<?xml version="1.0" encoding="UTF-8" standalone="no" ?>
<gpx xmlns="http://www.topografix.com/GPX/1/1" xmlns:xsi="http://www.w3.org/2001/XMLSchema-instance" xsi:schemaLocation="http://www.topografix.com/GPX/1/1 http://www.topografix.com/GPX/1/1/gpx.xsd" version="1.1" creator="VisuGPX - https://www.visugpx.com">
  <metadata>
    <name>2016-08-25 Bike ride-Amberieux en Dombes O via St Jean</name>
    <desc><![CDATA[2016-08-25 Bike ride-Amberieux en Dombes O via St Jean]]></desc>
  </metadata>
  <wpt lat="45.92443" lon="4.73685">
    <ele>174</ele>
    <name><![CDATA[2016-08-25 10:16 (Start)]]></name>
  </wpt>
  <wpt lat="45.92458" lon="4.73708">
    <ele>174</ele>
    <name><![CDATA[2016-08-25 10:16 (End)]]></name>
    <desc><![CDATA[Created by Google My Tracks on Android  Name: 2016-08-25 10:16 Activity type: biking Description: - Total distance: 46.44 km (28.9 mi) Total time: 2:25:32 Moving time: 2:22:13 Average speed: 19.15 km/h (11.9 mi/h) Average moving speed: 19.59 km/h (12.2 mi/h) Max speed: 44.88 km/h (27.9 mi/h) Average pace: 3:08 min/km (5:03 min/mi) Average moving pace: 3:04 min/km (4:56 min/mi) Fastest pace: 1:20 min/km (2:09 min/mi) Max elevation: 319 m (1047 ft) Min elevation: 149 m (487 ft) Elevation gain: 627 m (2057 ft) Max grade: 33 % Min grade: -14 % Recorded: 25/08/2016 10:16]]></desc>
  </wpt>
  <trk>
    <name><![CDATA[2016-08-25 10:16]]></name>
    <trkseg>
      <trkpt lat="45.92443" lon="4.73685">
        <ele>174</ele>
        <time>2016-08-25T08:16:24.965Z</time>
      </trkpt>
      <trkpt lat="45.92449" lon="4.73706">
        <ele>174</ele>
        <time>2016-08-25T08:16:59Z</time>
      </trkpt>
      <trkpt lat="45.92453" lon="4.73716">
        <ele>174</ele>
        <time>2016-08-25T08:17:35Z</time>
      </trkpt>
      <trkpt lat="45.9246" lon="4.73711">
        <ele>174</ele>
        <time>2016-08-25T08:17:36Z</time>
      </trkpt>
      <trkpt lat="45.92463" lon="4.737">
        <ele>174</ele>
        <time>2016-08-25T08:17:52Z</time>
      </trkpt>
      <trkpt lat="45.92464" lon="4.73699">
        <ele>174</ele>
        <time>2016-08-25T08:17:53Z</time>
      </trkpt>
      <trkpt lat="45.92467" lon="4.73689">
        <ele>174</ele>
        <time>2016-08-25T08:17:57Z</time>
      </trkpt>
      <trkpt lat="45.92468" lon="4.73686">
        <ele>174</ele>
        <time>2016-08-25T08:17:58Z</time>
      </trkpt>
      <trkpt lat="45.9247" lon="4.73673">
        <ele>174</ele>
        <time>2016-08-25T08:18:01Z</time>
      </trkpt>
      <trkpt lat="45.9247" lon="4.73669">
        <ele>174</ele>
        <time>2016-08-25T08:18:02Z</time>
      </trkpt>
      <trkpt lat="45.92472" lon="4.73658">
        <ele>174</ele>
        <time>2016-08-25T08:18:04Z</time>
      </trkpt>
      <trkpt lat="45.92474" lon="4.73653">
        <ele>174</ele>
        <time>2016-08-25T08:18:05Z</time>
      </trkpt>
      <trkpt lat="45.92479" lon="4.73643">
        <ele>174</ele>
        <time>2016-08-25T08:18:07Z</time>
      </trkpt>
      <trkpt lat="45.92483" lon="4.7364">
        <ele>174</ele>
        <time>2016-08-25T08:18:08Z</time>
      </trkpt>
      <trkpt lat="45.92491" lon="4.73638">
        <ele>174</ele>
        <time>2016-08-25T08:18:10Z</time>
      </trkpt>
      <trkpt lat="45.92495" lon="4.73638">
        <ele>174</ele>
        <time>2016-08-25T08:18:11Z</time>
      </trkpt>
      <trkpt lat="45.925" lon="4.73638">
        <ele>174</ele>
        <time>2016-08-25T08:18:12Z</time>
      </trkpt>
      <trkpt lat="45.92504" lon="4.73638">
        <ele>174</ele>
        <time>2016-08-25T08:18:13Z</time>
      </trkpt>
      <trkpt lat="45.92509" lon="4.73637">
        <ele>174</ele>
        <time>2016-08-25T08:18:14Z</time>
      </trkpt>
      <trkpt lat="45.92514" lon="4.73637">
        <ele>173</ele>
        <time>2016-08-25T08:18:15Z</time>
      </trkpt>
      <trkpt lat="45.92518" lon="4.73637">
        <ele>173</ele>
        <time>2016-08-25T08:18:16Z</time>
      </trkpt>
      <trkpt lat="45.92523" lon="4.73636">
        <ele>173</ele>
        <time>2016-08-25T08:18:17Z</time>
      </trkpt>
      <trkpt lat="45.92528" lon="4.73636">
        <ele>173</ele>
        <time>2016-08-25T08:18:18Z</time>
      </trkpt>
      <trkpt lat="45.92533" lon="4.73635">
        <ele>173</ele>
        <time>2016-08-25T08:18:19Z</time>
      </trkpt>
      <trkpt lat="45.92538" lon="4.73634">
        <ele>173</ele>
        <time>2016-08-25T08:18:20Z</time>
      </trkpt>
      <trkpt lat="45.92543" lon="4.73633">
        <ele>173</ele>
        <time>2016-08-25T08:18:21Z</time>
      </trkpt>
      <trkpt lat="45.92549" lon="4.73632">
        <ele>173</ele>
        <time>2016-08-25T08:18:22Z</time>
      </trkpt>
      <trkpt lat="45.92553" lon="4.7363">
        <ele>173</ele>
        <time>2016-08-25T08:18:23Z</time>
      </trkpt>
      <trkpt lat="45.92558" lon="4.73629">
        <ele>173</ele>
        <time>2016-08-25T08:18:24Z</time>
      </trkpt>
      <trkpt lat="45.92564" lon="4.73628">
        <ele>173</ele>
        <time>2016-08-25T08:18:25Z</time>
      </trkpt>
      <trkpt lat="45.92569" lon="4.73627">
        <ele>173</ele>
        <time>2016-08-25T08:18:26Z</time>
      </trkpt>
      <trkpt lat="45.92573" lon="4.73626">
        <ele>173</ele>
        <time>2016-08-25T08:18:27Z</time>
      </trkpt>
      <trkpt lat="45.92582" lon="4.73625">
        <ele>173</ele>
        <time>2016-08-25T08:18:29Z</time>
      </trkpt>
      <trkpt lat="45.92587" lon="4.73624">
        <ele>172</ele>
        <time>2016-08-25T08:18:30Z</time>
      </trkpt>
      <trkpt lat="45.92592" lon="4.73623">
        <ele>173</ele>
        <time>2016-08-25T08:18:31Z</time>
      </trkpt>
      <trkpt lat="45.92597" lon="4.73622">
        <ele>173</ele>
        <time>2016-08-25T08:18:32Z</time>
      </trkpt>
      <trkpt lat="45.92602" lon="4.73622">
        <ele>173</ele>
        <time>2016-08-25T08:18:33Z</time>
      </trkpt>
      <trkpt lat="45.92607" lon="4.73622">
        <ele>173</ele>
        <time>2016-08-25T08:18:34Z</time>
      </trkpt>
      <trkpt lat="45.92612" lon="4.73623">
        <ele>173</ele>
        <time>2016-08-25T08:18:35Z</time>
      </trkpt>
      <trkpt lat="45.92617" lon="4.73626">
        <ele>173</ele>
        <time>2016-08-25T08:18:36Z</time>
      </trkpt>
      <trkpt lat="45.92622" lon="4.73632">
        <ele>173</ele>
        <time>2016-08-25T08:18:37Z</time>
      </trkpt>
      <trkpt lat="45.92625" lon="4.73638">
        <ele>173</ele>
        <time>2016-08-25T08:18:38Z</time>
      </trkpt>
      <trkpt lat="45.92628" lon="4.73645">
        <ele>173</ele>
        <time>2016-08-25T08:18:39Z</time>
      </trkpt>
      <trkpt lat="45.92631" lon="4.73652">
        <ele>173</ele>
        <time>2016-08-25T08:18:40Z</time>
      </trkpt>
      <trkpt lat="45.92634" lon="4.73659">
        <ele>173</ele>
        <time>2016-08-25T08:18:41Z</time>
      </trkpt>
      <trkpt lat="45.92637" lon="4.73666">
        <ele>173</ele>
        <time>2016-08-25T08:18:42Z</time>
      </trkpt>
      <trkpt lat="45.92641" lon="4.73672">
        <ele>173</ele>
        <time>2016-08-25T08:18:43Z</time>
      </trkpt>
      <trkpt lat="45.92645" lon="4.73678">
        <ele>173</ele>
        <time>2016-08-25T08:18:44Z</time>
      </trkpt>
      <trkpt lat="45.92649" lon="4.73684">
        <ele>173</ele>
        <time>2016-08-25T08:18:45Z</time>
      </trkpt>
      <trkpt lat="45.92653" lon="4.73689">
        <ele>173</ele>
        <time>2016-08-25T08:18:46Z</time>
      </trkpt>
      <trkpt lat="45.92658" lon="4.73693">
        <ele>173</ele>
        <time>2016-08-25T08:18:47Z</time>
      </trkpt>
      <trkpt lat="45.92663" lon="4.73697">
        <ele>173</ele>
        <time>2016-08-25T08:18:48Z</time>
      </trkpt>
      <trkpt lat="45.92668" lon="4.737">
        <ele>174</ele>
        <time>2016-08-25T08:18:49Z</time>
      </trkpt>
      <trkpt lat="45.92674" lon="4.73702">
        <ele>174</ele>
        <time>2016-08-25T08:18:50Z</time>
      </trkpt>
      <trkpt lat="45.92679" lon="4.73704">
        <ele>173</ele>
        <time>2016-08-25T08:18:51Z</time>
      </trkpt>
      <trkpt lat="45.92684" lon="4.73705">
        <ele>173</ele>
        <time>2016-08-25T08:18:52Z</time>
      </trkpt>
      <trkpt lat="45.92689" lon="4.73706">
        <ele>173</ele>
        <time>2016-08-25T08:18:53Z</time>
      </trkpt>
      <trkpt lat="45.92694" lon="4.73706">
        <ele>173</ele>
        <time>2016-08-25T08:18:54Z</time>
      </trkpt>
      <trkpt lat="45.92699" lon="4.73706">
        <ele>173</ele>
        <time>2016-08-25T08:18:55Z</time>
      </trkpt>
      <trkpt lat="45.92704" lon="4.73707">
        <ele>173</ele>
        <time>2016-08-25T08:18:56Z</time>
      </trkpt>
      <trkpt lat="45.92709" lon="4.73709">
        <ele>173</ele>
        <time>2016-08-25T08:18:57Z</time>
      </trkpt>
      <trkpt lat="45.92714" lon="4.73712">
        <ele>173</ele>
        <time>2016-08-25T08:18:58Z</time>
      </trkpt>
      <trkpt lat="45.92719" lon="4.73714">
        <ele>173</ele>
        <time>2016-08-25T08:18:59Z</time>
      </trkpt>
      <trkpt lat="45.92725" lon="4.73715">
        <ele>173</ele>
        <time>2016-08-25T08:19:00Z</time>
      </trkpt>
      <trkpt lat="45.9273" lon="4.73717">
        <ele>173</ele>
        <time>2016-08-25T08:19:01Z</time>
      </trkpt>
      <trkpt lat="45.92735" lon="4.73718">
        <ele>173</ele>
        <time>2016-08-25T08:19:02Z</time>
      </trkpt>
      <trkpt lat="45.9274" lon="4.73719">
        <ele>173</ele>
        <time>2016-08-25T08:19:03Z</time>
      </trkpt>
      <trkpt lat="45.92745" lon="4.7372">
        <ele>173</ele>
        <time>2016-08-25T08:19:04Z</time>
      </trkpt>
      <trkpt lat="45.9275" lon="4.73721">
        <ele>173</ele>
        <time>2016-08-25T08:19:05Z</time>
      </trkpt>
      <trkpt lat="45.92754" lon="4.73722">
        <ele>172</ele>
        <time>2016-08-25T08:19:06Z</time>
      </trkpt>
      <trkpt lat="45.92762" lon="4.73727">
        <ele>172</ele>
        <time>2016-08-25T08:19:08Z</time>
      </trkpt>
      <trkpt lat="45.92766" lon="4.73728">
        <ele>172</ele>
        <time>2016-08-25T08:19:09Z</time>
      </trkpt>
      <trkpt lat="45.92773" lon="4.73728">
        <ele>172</ele>
        <time>2016-08-25T08:19:11Z</time>
      </trkpt>
      <trkpt lat="45.92776" lon="4.73725">
        <ele>172</ele>
        <time>2016-08-25T08:19:12Z</time>
      </trkpt>
      <trkpt lat="45.92783" lon="4.73723">
        <ele>172</ele>
        <time>2016-08-25T08:19:13Z</time>
      </trkpt>
      <trkpt lat="45.92787" lon="4.73719">
        <ele>172</ele>
        <time>2016-08-25T08:19:14Z</time>
      </trkpt>
      <trkpt lat="45.92789" lon="4.73714">
        <ele>172</ele>
        <time>2016-08-25T08:19:15Z</time>
      </trkpt>
      <trkpt lat="45.92791" lon="4.73707">
        <ele>172</ele>
        <time>2016-08-25T08:19:16Z</time>
      </trkpt>
      <trkpt lat="45.92792" lon="4.73701">
        <ele>172</ele>
        <time>2016-08-25T08:19:17Z</time>
      </trkpt>
      <trkpt lat="45.92794" lon="4.73693">
        <ele>172</ele>
        <time>2016-08-25T08:19:18Z</time>
      </trkpt>
      <trkpt lat="45.92795" lon="4.73686">
        <ele>172</ele>
        <time>2016-08-25T08:19:19Z</time>
      </trkpt>
      <trkpt lat="45.92797" lon="4.73679">
        <ele>172</ele>
        <time>2016-08-25T08:19:20Z</time>
      </trkpt>
      <trkpt lat="45.92799" lon="4.73672">
        <ele>172</ele>
        <time>2016-08-25T08:19:21Z</time>
      </trkpt>
      <trkpt lat="45.92801" lon="4.73665">
        <ele>172</ele>
        <time>2016-08-25T08:19:22Z</time>
      </trkpt>
      <trkpt lat="45.92803" lon="4.73658">
        <ele>172</ele>
        <time>2016-08-25T08:19:23Z</time>
      </trkpt>
      <trkpt lat="45.92804" lon="4.73651">
        <ele>172</ele>
        <time>2016-08-25T08:19:24Z</time>
      </trkpt>
      <trkpt lat="45.92806" lon="4.73645">
        <ele>172</ele>
        <time>2016-08-25T08:19:25Z</time>
      </trkpt>
      <trkpt lat="45.92808" lon="4.73638">
        <ele>172</ele>
        <time>2016-08-25T08:19:26Z</time>
      </trkpt>
      <trkpt lat="45.92812" lon="4.7363">
        <ele>172</ele>
        <time>2016-08-25T08:19:28Z</time>
      </trkpt>
      <trkpt lat="45.92815" lon="4.73628">
        <ele>172</ele>
        <time>2016-08-25T08:19:29Z</time>
      </trkpt>
      <trkpt lat="45.9282" lon="4.73622">
        <ele>172</ele>
        <time>2016-08-25T08:19:32Z</time>
      </trkpt>
      <trkpt lat="45.92821" lon="4.73617">
        <ele>172</ele>
        <time>2016-08-25T08:19:33Z</time>
      </trkpt>
      <trkpt lat="45.9282" lon="4.73604">
        <ele>171</ele>
        <time>2016-08-25T08:19:35Z</time>
      </trkpt>
      <trkpt lat="45.9282" lon="4.73598">
        <ele>171</ele>
        <time>2016-08-25T08:19:36Z</time>
      </trkpt>
      <trkpt lat="45.92819" lon="4.73591">
        <ele>171</ele>
        <time>2016-08-25T08:19:37Z</time>
      </trkpt>
      <trkpt lat="45.92819" lon="4.73583">
        <ele>171</ele>
        <time>2016-08-25T08:19:38Z</time>
      </trkpt>
      <trkpt lat="45.92819" lon="4.73576">
        <ele>171</ele>
        <time>2016-08-25T08:19:39Z</time>
      </trkpt>
      <trkpt lat="45.9282" lon="4.73569">
        <ele>171</ele>
        <time>2016-08-25T08:19:40Z</time>
      </trkpt>
      <trkpt lat="45.92821" lon="4.73561">
        <ele>171</ele>
        <time>2016-08-25T08:19:41Z</time>
      </trkpt>
      <trkpt lat="45.92821" lon="4.73554">
        <ele>171</ele>
        <time>2016-08-25T08:19:42Z</time>
      </trkpt>
      <trkpt lat="45.92822" lon="4.73547">
        <ele>171</ele>
        <time>2016-08-25T08:19:43Z</time>
      </trkpt>
      <trkpt lat="45.92823" lon="4.7354">
        <ele>172</ele>
        <time>2016-08-25T08:19:44Z</time>
      </trkpt>
      <trkpt lat="45.92824" lon="4.73532">
        <ele>172</ele>
        <time>2016-08-25T08:19:45Z</time>
      </trkpt>
      <trkpt lat="45.92825" lon="4.73525">
        <ele>172</ele>
        <time>2016-08-25T08:19:46Z</time>
      </trkpt>
      <trkpt lat="45.92826" lon="4.73517">
        <ele>172</ele>
        <time>2016-08-25T08:19:47Z</time>
      </trkpt>
      <trkpt lat="45.92827" lon="4.73509">
        <ele>172</ele>
        <time>2016-08-25T08:19:48Z</time>
      </trkpt>
      <trkpt lat="45.92827" lon="4.73501">
        <ele>172</ele>
        <time>2016-08-25T08:19:49Z</time>
      </trkpt>
      <trkpt lat="45.92828" lon="4.73492">
        <ele>172</ele>
        <time>2016-08-25T08:19:50Z</time>
      </trkpt>
      <trkpt lat="45.92829" lon="4.73484">
        <ele>172</ele>
        <time>2016-08-25T08:19:51Z</time>
      </trkpt>
      <trkpt lat="45.9283" lon="4.73475">
        <ele>172</ele>
        <time>2016-08-25T08:19:52Z</time>
      </trkpt>
      <trkpt lat="45.92831" lon="4.73467">
        <ele>172</ele>
        <time>2016-08-25T08:19:53Z</time>
      </trkpt>
      <trkpt lat="45.92832" lon="4.73459">
        <ele>172</ele>
        <time>2016-08-25T08:19:54Z</time>
      </trkpt>
      <trkpt lat="45.92834" lon="4.73451">
        <ele>172</ele>
        <time>2016-08-25T08:19:55Z</time>
      </trkpt>
      <trkpt lat="45.92835" lon="4.73442">
        <ele>172</ele>
        <time>2016-08-25T08:19:56Z</time>
      </trkpt>
      <trkpt lat="45.92837" lon="4.73434">
        <ele>172</ele>
        <time>2016-08-25T08:19:57Z</time>
      </trkpt>
      <trkpt lat="45.92838" lon="4.73426">
        <ele>172</ele>
        <time>2016-08-25T08:19:58Z</time>
      </trkpt>
      <trkpt lat="45.92839" lon="4.73417">
        <ele>172</ele>
        <time>2016-08-25T08:19:59Z</time>
      </trkpt>
      <trkpt lat="45.92839" lon="4.73409">
        <ele>172</ele>
        <time>2016-08-25T08:20:00Z</time>
      </trkpt>
      <trkpt lat="45.9284" lon="4.73401">
        <ele>172</ele>
        <time>2016-08-25T08:20:01Z</time>
      </trkpt>
      <trkpt lat="45.92841" lon="4.73392">
        <ele>172</ele>
        <time>2016-08-25T08:20:02Z</time>
      </trkpt>
      <trkpt lat="45.92842" lon="4.73384">
        <ele>172</ele>
        <time>2016-08-25T08:20:03Z</time>
      </trkpt>
      <trkpt lat="45.92842" lon="4.73375">
        <ele>172</ele>
        <time>2016-08-25T08:20:04Z</time>
      </trkpt>
      <trkpt lat="45.92844" lon="4.73367">
        <ele>171</ele>
        <time>2016-08-25T08:20:05Z</time>
      </trkpt>
      <trkpt lat="45.92845" lon="4.73359">
        <ele>171</ele>
        <time>2016-08-25T08:20:06Z</time>
      </trkpt>
      <trkpt lat="45.92846" lon="4.73351">
        <ele>171</ele>
        <time>2016-08-25T08:20:07Z</time>
      </trkpt>
      <trkpt lat="45.92847" lon="4.73343">
        <ele>171</ele>
        <time>2016-08-25T08:20:08Z</time>
      </trkpt>
      <trkpt lat="45.92848" lon="4.73335">
        <ele>171</ele>
        <time>2016-08-25T08:20:09Z</time>
      </trkpt>
      <trkpt lat="45.92849" lon="4.73326">
        <ele>171</ele>
        <time>2016-08-25T08:20:10Z</time>
      </trkpt>
      <trkpt lat="45.92851" lon="4.73318">
        <ele>171</ele>
        <time>2016-08-25T08:20:11Z</time>
      </trkpt>
      <trkpt lat="45.92852" lon="4.73309">
        <ele>171</ele>
        <time>2016-08-25T08:20:12Z</time>
      </trkpt>
      <trkpt lat="45.92853" lon="4.733">
        <ele>171</ele>
        <time>2016-08-25T08:20:13Z</time>
      </trkpt>
      <trkpt lat="45.92854" lon="4.73291">
        <ele>171</ele>
        <time>2016-08-25T08:20:14Z</time>
      </trkpt>
      <trkpt lat="45.92854" lon="4.73283">
        <ele>171</ele>
        <time>2016-08-25T08:20:15Z</time>
      </trkpt>
      <trkpt lat="45.92855" lon="4.73274">
        <ele>171</ele>
        <time>2016-08-25T08:20:16Z</time>
      </trkpt>
      <trkpt lat="45.92856" lon="4.73265">
        <ele>171</ele>
        <time>2016-08-25T08:20:17Z</time>
      </trkpt>
      <trkpt lat="45.92857" lon="4.73257">
        <ele>171</ele>
        <time>2016-08-25T08:20:18Z</time>
      </trkpt>
      <trkpt lat="45.92858" lon="4.73249">
        <ele>171</ele>
        <time>2016-08-25T08:20:19Z</time>
      </trkpt>
      <trkpt lat="45.92859" lon="4.73241">
        <ele>171</ele>
        <time>2016-08-25T08:20:20Z</time>
      </trkpt>
      <trkpt lat="45.9286" lon="4.73234">
        <ele>171</ele>
        <time>2016-08-25T08:20:21Z</time>
      </trkpt>
      <trkpt lat="45.92861" lon="4.73225">
        <ele>171</ele>
        <time>2016-08-25T08:20:22Z</time>
      </trkpt>
      <trkpt lat="45.92862" lon="4.73216">
        <ele>171</ele>
        <time>2016-08-25T08:20:23Z</time>
      </trkpt>
      <trkpt lat="45.92863" lon="4.73208">
        <ele>171</ele>
        <time>2016-08-25T08:20:24Z</time>
      </trkpt>
      <trkpt lat="45.92864" lon="4.73199">
        <ele>171</ele>
        <time>2016-08-25T08:20:25Z</time>
      </trkpt>
      <trkpt lat="45.92865" lon="4.7319">
        <ele>171</ele>
        <time>2016-08-25T08:20:26Z</time>
      </trkpt>
      <trkpt lat="45.92866" lon="4.73181">
        <ele>171</ele>
        <time>2016-08-25T08:20:27Z</time>
      </trkpt>
      <trkpt lat="45.92867" lon="4.73172">
        <ele>171</ele>
        <time>2016-08-25T08:20:28Z</time>
      </trkpt>
      <trkpt lat="45.92867" lon="4.73164">
        <ele>171</ele>
        <time>2016-08-25T08:20:29Z</time>
      </trkpt>
      <trkpt lat="45.92869" lon="4.73155">
        <ele>171</ele>
        <time>2016-08-25T08:20:30Z</time>
      </trkpt>
      <trkpt lat="45.9287" lon="4.73146">
        <ele>171</ele>
        <time>2016-08-25T08:20:31Z</time>
      </trkpt>
      <trkpt lat="45.92872" lon="4.73137">
        <ele>171</ele>
        <time>2016-08-25T08:20:32Z</time>
      </trkpt>
      <trkpt lat="45.92874" lon="4.73128">
        <ele>171</ele>
        <time>2016-08-25T08:20:33Z</time>
      </trkpt>
      <trkpt lat="45.92875" lon="4.7312">
        <ele>172</ele>
        <time>2016-08-25T08:20:34Z</time>
      </trkpt>
      <trkpt lat="45.92877" lon="4.73111">
        <ele>172</ele>
        <time>2016-08-25T08:20:35Z</time>
      </trkpt>
      <trkpt lat="45.92879" lon="4.73103">
        <ele>172</ele>
        <time>2016-08-25T08:20:36Z</time>
      </trkpt>
      <trkpt lat="45.92882" lon="4.73095">
        <ele>172</ele>
        <time>2016-08-25T08:20:37Z</time>
      </trkpt>
      <trkpt lat="45.92885" lon="4.73088">
        <ele>172</ele>
        <time>2016-08-25T08:20:38Z</time>
      </trkpt>
      <trkpt lat="45.92888" lon="4.7308">
        <ele>172</ele>
        <time>2016-08-25T08:20:39Z</time>
      </trkpt>
      <trkpt lat="45.92892" lon="4.73073">
        <ele>172</ele>
        <time>2016-08-25T08:20:40Z</time>
      </trkpt>
      <trkpt lat="45.92896" lon="4.73066">
        <ele>172</ele>
        <time>2016-08-25T08:20:41Z</time>
      </trkpt>
      <trkpt lat="45.929" lon="4.73059">
        <ele>172</ele>
        <time>2016-08-25T08:20:42Z</time>
      </trkpt>
      <trkpt lat="45.92904" lon="4.73051">
        <ele>172</ele>
        <time>2016-08-25T08:20:43Z</time>
      </trkpt>
      <trkpt lat="45.92908" lon="4.73044">
        <ele>172</ele>
        <time>2016-08-25T08:20:44Z</time>
      </trkpt>
      <trkpt lat="45.92912" lon="4.73038">
        <ele>172</ele>
        <time>2016-08-25T08:20:45Z</time>
      </trkpt>
      <trkpt lat="45.92916" lon="4.73031">
        <ele>172</ele>
        <time>2016-08-25T08:20:46Z</time>
      </trkpt>
      <trkpt lat="45.92921" lon="4.73024">
        <ele>172</ele>
        <time>2016-08-25T08:20:47Z</time>
      </trkpt>
      <trkpt lat="45.92926" lon="4.73018">
        <ele>171</ele>
        <time>2016-08-25T08:20:48Z</time>
      </trkpt>
      <trkpt lat="45.92931" lon="4.73011">
        <ele>171</ele>
        <time>2016-08-25T08:20:49Z</time>
      </trkpt>
      <trkpt lat="45.92936" lon="4.73005">
        <ele>171</ele>
        <time>2016-08-25T08:20:50Z</time>
      </trkpt>
      <trkpt lat="45.92941" lon="4.72999">
        <ele>171</ele>
        <time>2016-08-25T08:20:51Z</time>
      </trkpt>
      <trkpt lat="45.92946" lon="4.72993">
        <ele>171</ele>
        <time>2016-08-25T08:20:52Z</time>
      </trkpt>
      <trkpt lat="45.92951" lon="4.72987">
        <ele>171</ele>
        <time>2016-08-25T08:20:53Z</time>
      </trkpt>
      <trkpt lat="45.92956" lon="4.72982">
        <ele>171</ele>
        <time>2016-08-25T08:20:54Z</time>
      </trkpt>
      <trkpt lat="45.9296" lon="4.72976">
        <ele>171</ele>
        <time>2016-08-25T08:20:55Z</time>
      </trkpt>
      <trkpt lat="45.92965" lon="4.72971">
        <ele>171</ele>
        <time>2016-08-25T08:20:56Z</time>
      </trkpt>
      <trkpt lat="45.92969" lon="4.72965">
        <ele>171</ele>
        <time>2016-08-25T08:20:57Z</time>
      </trkpt>
      <trkpt lat="45.92974" lon="4.7296">
        <ele>171</ele>
        <time>2016-08-25T08:20:58Z</time>
      </trkpt>
      <trkpt lat="45.92979" lon="4.72955">
        <ele>171</ele>
        <time>2016-08-25T08:20:59Z</time>
      </trkpt>
      <trkpt lat="45.92984" lon="4.72949">
        <ele>171</ele>
        <time>2016-08-25T08:21:00Z</time>
      </trkpt>
      <trkpt lat="45.92988" lon="4.72943">
        <ele>171</ele>
        <time>2016-08-25T08:21:01Z</time>
      </trkpt>
      <trkpt lat="45.92993" lon="4.72937">
        <ele>171</ele>
        <time>2016-08-25T08:21:02Z</time>
      </trkpt>
      <trkpt lat="45.92997" lon="4.72932">
        <ele>171</ele>
        <time>2016-08-25T08:21:03Z</time>
      </trkpt>
      <trkpt lat="45.93002" lon="4.72926">
        <ele>170</ele>
        <time>2016-08-25T08:21:04Z</time>
      </trkpt>
      <trkpt lat="45.93007" lon="4.72921">
        <ele>171</ele>
        <time>2016-08-25T08:21:05Z</time>
      </trkpt>
      <trkpt lat="45.93011" lon="4.72915">
        <ele>171</ele>
        <time>2016-08-25T08:21:06Z</time>
      </trkpt>
      <trkpt lat="45.93016" lon="4.72909">
        <ele>171</ele>
        <time>2016-08-25T08:21:07Z</time>
      </trkpt>
      <trkpt lat="45.93021" lon="4.72904">
        <ele>172</ele>
        <time>2016-08-25T08:21:08Z</time>
      </trkpt>
      <trkpt lat="45.93026" lon="4.72898">
        <ele>172</ele>
        <time>2016-08-25T08:21:09Z</time>
      </trkpt>
      <trkpt lat="45.93031" lon="4.72892">
        <ele>172</ele>
        <time>2016-08-25T08:21:10Z</time>
      </trkpt>
      <trkpt lat="45.93036" lon="4.72885">
        <ele>172</ele>
        <time>2016-08-25T08:21:11Z</time>
      </trkpt>
      <trkpt lat="45.93041" lon="4.72879">
        <ele>172</ele>
        <time>2016-08-25T08:21:12Z</time>
      </trkpt>
      <trkpt lat="45.93046" lon="4.72873">
        <ele>172</ele>
        <time>2016-08-25T08:21:13Z</time>
      </trkpt>
      <trkpt lat="45.93052" lon="4.72867">
        <ele>172</ele>
        <time>2016-08-25T08:21:14Z</time>
      </trkpt>
      <trkpt lat="45.93056" lon="4.72861">
        <ele>172</ele>
        <time>2016-08-25T08:21:15Z</time>
      </trkpt>
      <trkpt lat="45.93061" lon="4.72855">
        <ele>172</ele>
        <time>2016-08-25T08:21:16Z</time>
      </trkpt>
      <trkpt lat="45.93066" lon="4.7285">
        <ele>172</ele>
        <time>2016-08-25T08:21:17Z</time>
      </trkpt>
      <trkpt lat="45.93071" lon="4.72844">
        <ele>173</ele>
        <time>2016-08-25T08:21:18Z</time>
      </trkpt>
      <trkpt lat="45.93075" lon="4.72838">
        <ele>173</ele>
        <time>2016-08-25T08:21:19Z</time>
      </trkpt>
      <trkpt lat="45.9308" lon="4.72832">
        <ele>173</ele>
        <time>2016-08-25T08:21:20Z</time>
      </trkpt>
      <trkpt lat="45.93084" lon="4.72826">
        <ele>172</ele>
        <time>2016-08-25T08:21:21Z</time>
      </trkpt>
      <trkpt lat="45.93089" lon="4.7282">
        <ele>172</ele>
        <time>2016-08-25T08:21:22Z</time>
      </trkpt>
      <trkpt lat="45.93094" lon="4.72814">
        <ele>172</ele>
        <time>2016-08-25T08:21:23Z</time>
      </trkpt>
      <trkpt lat="45.931" lon="4.72809">
        <ele>172</ele>
        <time>2016-08-25T08:21:24Z</time>
      </trkpt>
      <trkpt lat="45.93106" lon="4.72803">
        <ele>171</ele>
        <time>2016-08-25T08:21:25Z</time>
      </trkpt>
      <trkpt lat="45.9311" lon="4.72799">
        <ele>171</ele>
        <time>2016-08-25T08:21:26Z</time>
      </trkpt>
      <trkpt lat="45.93115" lon="4.72795">
        <ele>171</ele>
        <time>2016-08-25T08:21:27Z</time>
      </trkpt>
      <trkpt lat="45.9312" lon="4.7279">
        <ele>171</ele>
        <time>2016-08-25T08:21:28Z</time>
      </trkpt>
      <trkpt lat="45.93125" lon="4.72785">
        <ele>171</ele>
        <time>2016-08-25T08:21:29Z</time>
      </trkpt>
      <trkpt lat="45.9313" lon="4.72778">
        <ele>171</ele>
        <time>2016-08-25T08:21:30Z</time>
      </trkpt>
      <trkpt lat="45.93135" lon="4.72771">
        <ele>171</ele>
        <time>2016-08-25T08:21:31Z</time>
      </trkpt>
      <trkpt lat="45.9314" lon="4.72767">
        <ele>171</ele>
        <time>2016-08-25T08:21:32Z</time>
      </trkpt>
      <trkpt lat="45.93144" lon="4.72761">
        <ele>171</ele>
        <time>2016-08-25T08:21:33Z</time>
      </trkpt>
      <trkpt lat="45.93149" lon="4.72756">
        <ele>170</ele>
        <time>2016-08-25T08:21:34Z</time>
      </trkpt>
      <trkpt lat="45.93154" lon="4.7275">
        <ele>170</ele>
        <time>2016-08-25T08:21:35Z</time>
      </trkpt>
      <trkpt lat="45.93159" lon="4.72745">
        <ele>170</ele>
        <time>2016-08-25T08:21:36Z</time>
      </trkpt>
      <trkpt lat="45.93163" lon="4.7274">
        <ele>170</ele>
        <time>2016-08-25T08:21:37Z</time>
      </trkpt>
      <trkpt lat="45.93168" lon="4.72735">
        <ele>170</ele>
        <time>2016-08-25T08:21:38Z</time>
      </trkpt>
      <trkpt lat="45.93172" lon="4.7273">
        <ele>170</ele>
        <time>2016-08-25T08:21:39Z</time>
      </trkpt>
      <trkpt lat="45.93177" lon="4.72724">
        <ele>170</ele>
        <time>2016-08-25T08:21:40Z</time>
      </trkpt>
      <trkpt lat="45.93181" lon="4.72718">
        <ele>169</ele>
        <time>2016-08-25T08:21:41Z</time>
      </trkpt>
      <trkpt lat="45.93185" lon="4.72713">
        <ele>169</ele>
        <time>2016-08-25T08:21:42Z</time>
      </trkpt>
      <trkpt lat="45.9319" lon="4.72708">
        <ele>169</ele>
        <time>2016-08-25T08:21:43Z</time>
      </trkpt>
      <trkpt lat="45.93194" lon="4.72703">
        <ele>169</ele>
        <time>2016-08-25T08:21:44Z</time>
      </trkpt>
      <trkpt lat="45.93199" lon="4.72697">
        <ele>169</ele>
        <time>2016-08-25T08:21:45Z</time>
      </trkpt>
      <trkpt lat="45.93204" lon="4.72692">
        <ele>169</ele>
        <time>2016-08-25T08:21:46Z</time>
      </trkpt>
      <trkpt lat="45.93208" lon="4.72686">
        <ele>169</ele>
        <time>2016-08-25T08:21:47Z</time>
      </trkpt>
      <trkpt lat="45.93213" lon="4.7268">
        <ele>169</ele>
        <time>2016-08-25T08:21:48Z</time>
      </trkpt>
      <trkpt lat="45.93217" lon="4.72674">
        <ele>169</ele>
        <time>2016-08-25T08:21:49Z</time>
      </trkpt>
      <trkpt lat="45.93222" lon="4.72668">
        <ele>169</ele>
        <time>2016-08-25T08:21:50Z</time>
      </trkpt>
      <trkpt lat="45.93227" lon="4.72662">
        <ele>170</ele>
        <time>2016-08-25T08:21:51Z</time>
      </trkpt>
      <trkpt lat="45.93232" lon="4.72656">
        <ele>169</ele>
        <time>2016-08-25T08:21:52Z</time>
      </trkpt>
      <trkpt lat="45.93237" lon="4.7265">
        <ele>170</ele>
        <time>2016-08-25T08:21:53Z</time>
      </trkpt>
      <trkpt lat="45.93242" lon="4.72644">
        <ele>170</ele>
        <time>2016-08-25T08:21:54Z</time>
      </trkpt>
      <trkpt lat="45.93247" lon="4.72638">
        <ele>170</ele>
        <time>2016-08-25T08:21:55Z</time>
      </trkpt>
      <trkpt lat="45.93251" lon="4.72632">
        <ele>170</ele>
        <time>2016-08-25T08:21:56Z</time>
      </trkpt>
      <trkpt lat="45.93256" lon="4.72627">
        <ele>170</ele>
        <time>2016-08-25T08:21:57Z</time>
      </trkpt>
      <trkpt lat="45.93261" lon="4.72621">
        <ele>170</ele>
        <time>2016-08-25T08:21:58Z</time>
      </trkpt>
      <trkpt lat="45.93266" lon="4.72616">
        <ele>170</ele>
        <time>2016-08-25T08:21:59Z</time>
      </trkpt>
      <trkpt lat="45.93271" lon="4.72611">
        <ele>170</ele>
        <time>2016-08-25T08:22:00Z</time>
      </trkpt>
      <trkpt lat="45.93276" lon="4.72605">
        <ele>170</ele>
        <time>2016-08-25T08:22:01Z</time>
      </trkpt>
      <trkpt lat="45.93281" lon="4.72599">
        <ele>170</ele>
        <time>2016-08-25T08:22:02Z</time>
      </trkpt>
      <trkpt lat="45.93285" lon="4.72594">
        <ele>170</ele>
        <time>2016-08-25T08:22:03Z</time>
      </trkpt>
      <trkpt lat="45.9329" lon="4.72588">
        <ele>170</ele>
        <time>2016-08-25T08:22:04Z</time>
      </trkpt>
      <trkpt lat="45.93295" lon="4.72582">
        <ele>171</ele>
        <time>2016-08-25T08:22:05Z</time>
      </trkpt>
      <trkpt lat="45.933" lon="4.72577">
        <ele>171</ele>
        <time>2016-08-25T08:22:06Z</time>
      </trkpt>
      <trkpt lat="45.93305" lon="4.72571">
        <ele>171</ele>
        <time>2016-08-25T08:22:07Z</time>
      </trkpt>
      <trkpt lat="45.9331" lon="4.72565">
        <ele>171</ele>
        <time>2016-08-25T08:22:08Z</time>
      </trkpt>
      <trkpt lat="45.93315" lon="4.7256">
        <ele>171</ele>
        <time>2016-08-25T08:22:09Z</time>
      </trkpt>
      <trkpt lat="45.9332" lon="4.72554">
        <ele>172</ele>
        <time>2016-08-25T08:22:10Z</time>
      </trkpt>
      <trkpt lat="45.93325" lon="4.72549">
        <ele>172</ele>
        <time>2016-08-25T08:22:11Z</time>
      </trkpt>
      <trkpt lat="45.9333" lon="4.72543">
        <ele>172</ele>
        <time>2016-08-25T08:22:12Z</time>
      </trkpt>
      <trkpt lat="45.93335" lon="4.72537">
        <ele>171</ele>
        <time>2016-08-25T08:22:13Z</time>
      </trkpt>
      <trkpt lat="45.93339" lon="4.72532">
        <ele>172</ele>
        <time>2016-08-25T08:22:14Z</time>
      </trkpt>
      <trkpt lat="45.93344" lon="4.72526">
        <ele>172</ele>
        <time>2016-08-25T08:22:15Z</time>
      </trkpt>
      <trkpt lat="45.93349" lon="4.7252">
        <ele>172</ele>
        <time>2016-08-25T08:22:16Z</time>
      </trkpt>
      <trkpt lat="45.93355" lon="4.72514">
        <ele>172</ele>
        <time>2016-08-25T08:22:17Z</time>
      </trkpt>
      <trkpt lat="45.9336" lon="4.72508">
        <ele>172</ele>
        <time>2016-08-25T08:22:18Z</time>
      </trkpt>
      <trkpt lat="45.93365" lon="4.72502">
        <ele>172</ele>
        <time>2016-08-25T08:22:19Z</time>
      </trkpt>
      <trkpt lat="45.93371" lon="4.72497">
        <ele>173</ele>
        <time>2016-08-25T08:22:20Z</time>
      </trkpt>
      <trkpt lat="45.93376" lon="4.72491">
        <ele>173</ele>
        <time>2016-08-25T08:22:21Z</time>
      </trkpt>
      <trkpt lat="45.93381" lon="4.72485">
        <ele>173</ele>
        <time>2016-08-25T08:22:22Z</time>
      </trkpt>
      <trkpt lat="45.93386" lon="4.72479">
        <ele>173</ele>
        <time>2016-08-25T08:22:23Z</time>
      </trkpt>
      <trkpt lat="45.93391" lon="4.72474">
        <ele>173</ele>
        <time>2016-08-25T08:22:24Z</time>
      </trkpt>
      <trkpt lat="45.93395" lon="4.72467">
        <ele>173</ele>
        <time>2016-08-25T08:22:25Z</time>
      </trkpt>
      <trkpt lat="45.93399" lon="4.72461">
        <ele>173</ele>
        <time>2016-08-25T08:22:26Z</time>
      </trkpt>
      <trkpt lat="45.93403" lon="4.7245">
        <ele>173</ele>
        <time>2016-08-25T08:22:28Z</time>
      </trkpt>
      <trkpt lat="45.93405" lon="4.72445">
        <ele>173</ele>
        <time>2016-08-25T08:22:29Z</time>
      </trkpt>
      <trkpt lat="45.93407" lon="4.72433">
        <ele>173</ele>
        <time>2016-08-25T08:22:31Z</time>
      </trkpt>
      <trkpt lat="45.93409" lon="4.72427">
        <ele>174</ele>
        <time>2016-08-25T08:22:32Z</time>
      </trkpt>
      <trkpt lat="45.93412" lon="4.72422">
        <ele>174</ele>
        <time>2016-08-25T08:22:33Z</time>
      </trkpt>
      <trkpt lat="45.93416" lon="4.72417">
        <ele>174</ele>
        <time>2016-08-25T08:22:34Z</time>
      </trkpt>
      <trkpt lat="45.93421" lon="4.72414">
        <ele>174</ele>
        <time>2016-08-25T08:22:35Z</time>
      </trkpt>
      <trkpt lat="45.93426" lon="4.72411">
        <ele>174</ele>
        <time>2016-08-25T08:22:36Z</time>
      </trkpt>
      <trkpt lat="45.93431" lon="4.72408">
        <ele>174</ele>
        <time>2016-08-25T08:22:37Z</time>
      </trkpt>
      <trkpt lat="45.93436" lon="4.72406">
        <ele>174</ele>
        <time>2016-08-25T08:22:38Z</time>
      </trkpt>
      <trkpt lat="45.9344" lon="4.72403">
        <ele>173</ele>
        <time>2016-08-25T08:22:39Z</time>
      </trkpt>
      <trkpt lat="45.93445" lon="4.72399">
        <ele>173</ele>
        <time>2016-08-25T08:22:40Z</time>
      </trkpt>
      <trkpt lat="45.9345" lon="4.72395">
        <ele>173</ele>
        <time>2016-08-25T08:22:41Z</time>
      </trkpt>
      <trkpt lat="45.93454" lon="4.72391">
        <ele>173</ele>
        <time>2016-08-25T08:22:42Z</time>
      </trkpt>
      <trkpt lat="45.93459" lon="4.72387">
        <ele>173</ele>
        <time>2016-08-25T08:22:43Z</time>
      </trkpt>
      <trkpt lat="45.93464" lon="4.72382">
        <ele>173</ele>
        <time>2016-08-25T08:22:44Z</time>
      </trkpt>
      <trkpt lat="45.93468" lon="4.72376">
        <ele>173</ele>
        <time>2016-08-25T08:22:45Z</time>
      </trkpt>
      <trkpt lat="45.93472" lon="4.7237">
        <ele>173</ele>
        <time>2016-08-25T08:22:46Z</time>
      </trkpt>
      <trkpt lat="45.93476" lon="4.72364">
        <ele>173</ele>
        <time>2016-08-25T08:22:47Z</time>
      </trkpt>
      <trkpt lat="45.9348" lon="4.72358">
        <ele>173</ele>
        <time>2016-08-25T08:22:48Z</time>
      </trkpt>
      <trkpt lat="45.93485" lon="4.72352">
        <ele>173</ele>
        <time>2016-08-25T08:22:49Z</time>
      </trkpt>
      <trkpt lat="45.93489" lon="4.72346">
        <ele>173</ele>
        <time>2016-08-25T08:22:50Z</time>
      </trkpt>
      <trkpt lat="45.93493" lon="4.7234">
        <ele>173</ele>
        <time>2016-08-25T08:22:51Z</time>
      </trkpt>
      <trkpt lat="45.93498" lon="4.72334">
        <ele>173</ele>
        <time>2016-08-25T08:22:52Z</time>
      </trkpt>
      <trkpt lat="45.93502" lon="4.72328">
        <ele>173</ele>
        <time>2016-08-25T08:22:53Z</time>
      </trkpt>
      <trkpt lat="45.93507" lon="4.72322">
        <ele>173</ele>
        <time>2016-08-25T08:22:54Z</time>
      </trkpt>
      <trkpt lat="45.93512" lon="4.72316">
        <ele>173</ele>
        <time>2016-08-25T08:22:55Z</time>
      </trkpt>
      <trkpt lat="45.93516" lon="4.7231">
        <ele>173</ele>
        <time>2016-08-25T08:22:56Z</time>
      </trkpt>
      <trkpt lat="45.9352" lon="4.72303">
        <ele>173</ele>
        <time>2016-08-25T08:22:57Z</time>
      </trkpt>
      <trkpt lat="45.93524" lon="4.72297">
        <ele>172</ele>
        <time>2016-08-25T08:22:58Z</time>
      </trkpt>
      <trkpt lat="45.93527" lon="4.7229">
        <ele>172</ele>
        <time>2016-08-25T08:22:59Z</time>
      </trkpt>
      <trkpt lat="45.9353" lon="4.72283">
        <ele>172</ele>
        <time>2016-08-25T08:23:00Z</time>
      </trkpt>
      <trkpt lat="45.93533" lon="4.72277">
        <ele>172</ele>
        <time>2016-08-25T08:23:01Z</time>
      </trkpt>
      <trkpt lat="45.93536" lon="4.7227">
        <ele>172</ele>
        <time>2016-08-25T08:23:02Z</time>
      </trkpt>
      <trkpt lat="45.93539" lon="4.72263">
        <ele>172</ele>
        <time>2016-08-25T08:23:03Z</time>
      </trkpt>
      <trkpt lat="45.93542" lon="4.72257">
        <ele>172</ele>
        <time>2016-08-25T08:23:04Z</time>
      </trkpt>
      <trkpt lat="45.93544" lon="4.7225">
        <ele>172</ele>
        <time>2016-08-25T08:23:05Z</time>
      </trkpt>
      <trkpt lat="45.93547" lon="4.72244">
        <ele>172</ele>
        <time>2016-08-25T08:23:06Z</time>
      </trkpt>
      <trkpt lat="45.93549" lon="4.72237">
        <ele>172</ele>
        <time>2016-08-25T08:23:07Z</time>
      </trkpt>
      <trkpt lat="45.93552" lon="4.72231">
        <ele>172</ele>
        <time>2016-08-25T08:23:08Z</time>
      </trkpt>
      <trkpt lat="45.93555" lon="4.72225">
        <ele>173</ele>
        <time>2016-08-25T08:23:09Z</time>
      </trkpt>
      <trkpt lat="45.9356" lon="4.72222">
        <ele>173</ele>
        <time>2016-08-25T08:23:10Z</time>
      </trkpt>
      <trkpt lat="45.93565" lon="4.72221">
        <ele>173</ele>
        <time>2016-08-25T08:23:11Z</time>
      </trkpt>
      <trkpt lat="45.9357" lon="4.72223">
        <ele>173</ele>
        <time>2016-08-25T08:23:12Z</time>
      </trkpt>
      <trkpt lat="45.93575" lon="4.72226">
        <ele>173</ele>
        <time>2016-08-25T08:23:13Z</time>
      </trkpt>
      <trkpt lat="45.93579" lon="4.72231">
        <ele>173</ele>
        <time>2016-08-25T08:23:14Z</time>
      </trkpt>
      <trkpt lat="45.93583" lon="4.72236">
        <ele>173</ele>
        <time>2016-08-25T08:23:15Z</time>
      </trkpt>
      <trkpt lat="45.93587" lon="4.7224">
        <ele>173</ele>
        <time>2016-08-25T08:23:16Z</time>
      </trkpt>
      <trkpt lat="45.93591" lon="4.72245">
        <ele>173</ele>
        <time>2016-08-25T08:23:17Z</time>
      </trkpt>
      <trkpt lat="45.93595" lon="4.72249">
        <ele>173</ele>
        <time>2016-08-25T08:23:18Z</time>
      </trkpt>
      <trkpt lat="45.936" lon="4.72253">
        <ele>173</ele>
        <time>2016-08-25T08:23:19Z</time>
      </trkpt>
      <trkpt lat="45.93604" lon="4.72257">
        <ele>173</ele>
        <time>2016-08-25T08:23:20Z</time>
      </trkpt>
      <trkpt lat="45.93608" lon="4.7226">
        <ele>173</ele>
        <time>2016-08-25T08:23:21Z</time>
      </trkpt>
      <trkpt lat="45.93612" lon="4.72263">
        <ele>172</ele>
        <time>2016-08-25T08:23:22Z</time>
      </trkpt>
      <trkpt lat="45.93617" lon="4.72268">
        <ele>172</ele>
        <time>2016-08-25T08:23:23Z</time>
      </trkpt>
      <trkpt lat="45.93621" lon="4.72271">
        <ele>172</ele>
        <time>2016-08-25T08:23:24Z</time>
      </trkpt>
      <trkpt lat="45.93625" lon="4.72275">
        <ele>172</ele>
        <time>2016-08-25T08:23:25Z</time>
      </trkpt>
      <trkpt lat="45.93629" lon="4.72278">
        <ele>172</ele>
        <time>2016-08-25T08:23:26Z</time>
      </trkpt>
      <trkpt lat="45.93633" lon="4.72281">
        <ele>172</ele>
        <time>2016-08-25T08:23:27Z</time>
      </trkpt>
      <trkpt lat="45.93637" lon="4.72285">
        <ele>172</ele>
        <time>2016-08-25T08:23:28Z</time>
      </trkpt>
      <trkpt lat="45.93641" lon="4.72288">
        <ele>172</ele>
        <time>2016-08-25T08:23:29Z</time>
      </trkpt>
      <trkpt lat="45.93645" lon="4.72291">
        <ele>172</ele>
        <time>2016-08-25T08:23:30Z</time>
      </trkpt>
      <trkpt lat="45.93649" lon="4.72294">
        <ele>172</ele>
        <time>2016-08-25T08:23:31Z</time>
      </trkpt>
      <trkpt lat="45.93654" lon="4.723">
        <ele>172</ele>
        <time>2016-08-25T08:23:32Z</time>
      </trkpt>
      <trkpt lat="45.9366" lon="4.72309">
        <ele>172</ele>
        <time>2016-08-25T08:23:33Z</time>
      </trkpt>
      <trkpt lat="45.93665" lon="4.72314">
        <ele>172</ele>
        <time>2016-08-25T08:23:34Z</time>
      </trkpt>
      <trkpt lat="45.9367" lon="4.72318">
        <ele>171</ele>
        <time>2016-08-25T08:23:35Z</time>
      </trkpt>
      <trkpt lat="45.93675" lon="4.72322">
        <ele>171</ele>
        <time>2016-08-25T08:23:36Z</time>
      </trkpt>
      <trkpt lat="45.9368" lon="4.72328">
        <ele>171</ele>
        <time>2016-08-25T08:23:37Z</time>
      </trkpt>
      <trkpt lat="45.93685" lon="4.72333">
        <ele>172</ele>
        <time>2016-08-25T08:23:38Z</time>
      </trkpt>
      <trkpt lat="45.9369" lon="4.72336">
        <ele>171</ele>
        <time>2016-08-25T08:23:39Z</time>
      </trkpt>
      <trkpt lat="45.93695" lon="4.7234">
        <ele>171</ele>
        <time>2016-08-25T08:23:40Z</time>
      </trkpt>
      <trkpt lat="45.93698" lon="4.72344">
        <ele>171</ele>
        <time>2016-08-25T08:23:41Z</time>
      </trkpt>
      <trkpt lat="45.93703" lon="4.72349">
        <ele>171</ele>
        <time>2016-08-25T08:23:42Z</time>
      </trkpt>
      <trkpt lat="45.93709" lon="4.72356">
        <ele>172</ele>
        <time>2016-08-25T08:23:43Z</time>
      </trkpt>
      <trkpt lat="45.93713" lon="4.72361">
        <ele>172</ele>
        <time>2016-08-25T08:23:44Z</time>
      </trkpt>
      <trkpt lat="45.93719" lon="4.72368">
        <ele>172</ele>
        <time>2016-08-25T08:23:45Z</time>
      </trkpt>
      <trkpt lat="45.93723" lon="4.72373">
        <ele>172</ele>
        <time>2016-08-25T08:23:46Z</time>
      </trkpt>
      <trkpt lat="45.93728" lon="4.72377">
        <ele>171</ele>
        <time>2016-08-25T08:23:47Z</time>
      </trkpt>
      <trkpt lat="45.93733" lon="4.72382">
        <ele>171</ele>
        <time>2016-08-25T08:23:48Z</time>
      </trkpt>
      <trkpt lat="45.93737" lon="4.72387">
        <ele>171</ele>
        <time>2016-08-25T08:23:49Z</time>
      </trkpt>
      <trkpt lat="45.93742" lon="4.72392">
        <ele>171</ele>
        <time>2016-08-25T08:23:50Z</time>
      </trkpt>
      <trkpt lat="45.93746" lon="4.72397">
        <ele>171</ele>
        <time>2016-08-25T08:23:51Z</time>
      </trkpt>
      <trkpt lat="45.9375" lon="4.72401">
        <ele>171</ele>
        <time>2016-08-25T08:23:52Z</time>
      </trkpt>
      <trkpt lat="45.93755" lon="4.72406">
        <ele>171</ele>
        <time>2016-08-25T08:23:53Z</time>
      </trkpt>
      <trkpt lat="45.93759" lon="4.7241">
        <ele>171</ele>
        <time>2016-08-25T08:23:54Z</time>
      </trkpt>
      <trkpt lat="45.93764" lon="4.72414">
        <ele>171</ele>
        <time>2016-08-25T08:23:55Z</time>
      </trkpt>
      <trkpt lat="45.93769" lon="4.72418">
        <ele>171</ele>
        <time>2016-08-25T08:23:56Z</time>
      </trkpt>
      <trkpt lat="45.93774" lon="4.72423">
        <ele>171</ele>
        <time>2016-08-25T08:23:57Z</time>
      </trkpt>
      <trkpt lat="45.93778" lon="4.72428">
        <ele>172</ele>
        <time>2016-08-25T08:23:58Z</time>
      </trkpt>
      <trkpt lat="45.93783" lon="4.72433">
        <ele>172</ele>
        <time>2016-08-25T08:23:59Z</time>
      </trkpt>
      <trkpt lat="45.93788" lon="4.72438">
        <ele>172</ele>
        <time>2016-08-25T08:24:00Z</time>
      </trkpt>
      <trkpt lat="45.93794" lon="4.72443">
        <ele>172</ele>
        <time>2016-08-25T08:24:01Z</time>
      </trkpt>
      <trkpt lat="45.93799" lon="4.72448">
        <ele>172</ele>
        <time>2016-08-25T08:24:02Z</time>
      </trkpt>
      <trkpt lat="45.93804" lon="4.72453">
        <ele>172</ele>
        <time>2016-08-25T08:24:03Z</time>
      </trkpt>
      <trkpt lat="45.93809" lon="4.7246">
        <ele>172</ele>
        <time>2016-08-25T08:24:04Z</time>
      </trkpt>
      <trkpt lat="45.93816" lon="4.72466">
        <ele>172</ele>
        <time>2016-08-25T08:24:05Z</time>
      </trkpt>
      <trkpt lat="45.93822" lon="4.72474">
        <ele>172</ele>
        <time>2016-08-25T08:24:06Z</time>
      </trkpt>
      <trkpt lat="45.93828" lon="4.72479">
        <ele>173</ele>
        <time>2016-08-25T08:24:07Z</time>
      </trkpt>
      <trkpt lat="45.93833" lon="4.72483">
        <ele>173</ele>
        <time>2016-08-25T08:24:08Z</time>
      </trkpt>
      <trkpt lat="45.93839" lon="4.72488">
        <ele>173</ele>
        <time>2016-08-25T08:24:09Z</time>
      </trkpt>
      <trkpt lat="45.93845" lon="4.72493">
        <ele>173</ele>
        <time>2016-08-25T08:24:10Z</time>
      </trkpt>
      <trkpt lat="45.93851" lon="4.72498">
        <ele>173</ele>
        <time>2016-08-25T08:24:11Z</time>
      </trkpt>
      <trkpt lat="45.93857" lon="4.72503">
        <ele>173</ele>
        <time>2016-08-25T08:24:12Z</time>
      </trkpt>
      <trkpt lat="45.93862" lon="4.72511">
        <ele>173</ele>
        <time>2016-08-25T08:24:13Z</time>
      </trkpt>
      <trkpt lat="45.93868" lon="4.72516">
        <ele>173</ele>
        <time>2016-08-25T08:24:14Z</time>
      </trkpt>
      <trkpt lat="45.93873" lon="4.72514">
        <ele>173</ele>
        <time>2016-08-25T08:24:15Z</time>
      </trkpt>
      <trkpt lat="45.93878" lon="4.72513">
        <ele>173</ele>
        <time>2016-08-25T08:24:16Z</time>
      </trkpt>
      <trkpt lat="45.93881" lon="4.72508">
        <ele>173</ele>
        <time>2016-08-25T08:24:17Z</time>
      </trkpt>
      <trkpt lat="45.93885" lon="4.72502">
        <ele>173</ele>
        <time>2016-08-25T08:24:18Z</time>
      </trkpt>
      <trkpt lat="45.93889" lon="4.72496">
        <ele>172</ele>
        <time>2016-08-25T08:24:19Z</time>
      </trkpt>
      <trkpt lat="45.93894" lon="4.7249">
        <ele>172</ele>
        <time>2016-08-25T08:24:20Z</time>
      </trkpt>
      <trkpt lat="45.93899" lon="4.72485">
        <ele>172</ele>
        <time>2016-08-25T08:24:21Z</time>
      </trkpt>
      <trkpt lat="45.93904" lon="4.7248">
        <ele>172</ele>
        <time>2016-08-25T08:24:22Z</time>
      </trkpt>
      <trkpt lat="45.93909" lon="4.72475">
        <ele>172</ele>
        <time>2016-08-25T08:24:23Z</time>
      </trkpt>
      <trkpt lat="45.93914" lon="4.72469">
        <ele>172</ele>
        <time>2016-08-25T08:24:24Z</time>
      </trkpt>
      <trkpt lat="45.93919" lon="4.72464">
        <ele>171</ele>
        <time>2016-08-25T08:24:25Z</time>
      </trkpt>
      <trkpt lat="45.93923" lon="4.72458">
        <ele>171</ele>
        <time>2016-08-25T08:24:26Z</time>
      </trkpt>
      <trkpt lat="45.93929" lon="4.72452">
        <ele>171</ele>
        <time>2016-08-25T08:24:27Z</time>
      </trkpt>
      <trkpt lat="45.93934" lon="4.72446">
        <ele>171</ele>
        <time>2016-08-25T08:24:28Z</time>
      </trkpt>
      <trkpt lat="45.93939" lon="4.72439">
        <ele>171</ele>
        <time>2016-08-25T08:24:29Z</time>
      </trkpt>
      <trkpt lat="45.93944" lon="4.72433">
        <ele>171</ele>
        <time>2016-08-25T08:24:30Z</time>
      </trkpt>
      <trkpt lat="45.9395" lon="4.72427">
        <ele>171</ele>
        <time>2016-08-25T08:24:31Z</time>
      </trkpt>
      <trkpt lat="45.93955" lon="4.7242">
        <ele>171</ele>
        <time>2016-08-25T08:24:32Z</time>
      </trkpt>
      <trkpt lat="45.9396" lon="4.72413">
        <ele>171</ele>
        <time>2016-08-25T08:24:33Z</time>
      </trkpt>
      <trkpt lat="45.93966" lon="4.72407">
        <ele>171</ele>
        <time>2016-08-25T08:24:34Z</time>
      </trkpt>
      <trkpt lat="45.93971" lon="4.724">
        <ele>171</ele>
        <time>2016-08-25T08:24:35Z</time>
      </trkpt>
      <trkpt lat="45.93976" lon="4.72394">
        <ele>171</ele>
        <time>2016-08-25T08:24:36Z</time>
      </trkpt>
      <trkpt lat="45.93982" lon="4.72387">
        <ele>171</ele>
        <time>2016-08-25T08:24:37Z</time>
      </trkpt>
      <trkpt lat="45.93987" lon="4.7238">
        <ele>171</ele>
        <time>2016-08-25T08:24:38Z</time>
      </trkpt>
      <trkpt lat="45.93993" lon="4.72373">
        <ele>171</ele>
        <time>2016-08-25T08:24:39Z</time>
      </trkpt>
      <trkpt lat="45.93998" lon="4.72366">
        <ele>171</ele>
        <time>2016-08-25T08:24:40Z</time>
      </trkpt>
      <trkpt lat="45.94003" lon="4.72359">
        <ele>171</ele>
        <time>2016-08-25T08:24:41Z</time>
      </trkpt>
      <trkpt lat="45.94008" lon="4.72353">
        <ele>171</ele>
        <time>2016-08-25T08:24:42Z</time>
      </trkpt>
      <trkpt lat="45.94013" lon="4.72347">
        <ele>171</ele>
        <time>2016-08-25T08:24:43Z</time>
      </trkpt>
      <trkpt lat="45.94018" lon="4.72341">
        <ele>171</ele>
        <time>2016-08-25T08:24:44Z</time>
      </trkpt>
      <trkpt lat="45.94023" lon="4.72334">
        <ele>171</ele>
        <time>2016-08-25T08:24:45Z</time>
      </trkpt>
      <trkpt lat="45.94027" lon="4.72328">
        <ele>171</ele>
        <time>2016-08-25T08:24:46Z</time>
      </trkpt>
      <trkpt lat="45.94031" lon="4.72322">
        <ele>171</ele>
        <time>2016-08-25T08:24:47Z</time>
      </trkpt>
      <trkpt lat="45.94036" lon="4.72317">
        <ele>171</ele>
        <time>2016-08-25T08:24:48Z</time>
      </trkpt>
      <trkpt lat="45.94041" lon="4.72312">
        <ele>171</ele>
        <time>2016-08-25T08:24:49Z</time>
      </trkpt>
      <trkpt lat="45.94046" lon="4.72306">
        <ele>171</ele>
        <time>2016-08-25T08:24:50Z</time>
      </trkpt>
      <trkpt lat="45.94051" lon="4.72301">
        <ele>171</ele>
        <time>2016-08-25T08:24:51Z</time>
      </trkpt>
      <trkpt lat="45.94055" lon="4.72295">
        <ele>171</ele>
        <time>2016-08-25T08:24:52Z</time>
      </trkpt>
      <trkpt lat="45.9406" lon="4.7229">
        <ele>171</ele>
        <time>2016-08-25T08:24:53Z</time>
      </trkpt>
      <trkpt lat="45.94065" lon="4.72284">
        <ele>171</ele>
        <time>2016-08-25T08:24:54Z</time>
      </trkpt>
      <trkpt lat="45.9407" lon="4.72279">
        <ele>171</ele>
        <time>2016-08-25T08:24:55Z</time>
      </trkpt>
      <trkpt lat="45.94075" lon="4.72274">
        <ele>171</ele>
        <time>2016-08-25T08:24:56Z</time>
      </trkpt>
      <trkpt lat="45.94081" lon="4.7227">
        <ele>171</ele>
        <time>2016-08-25T08:24:57Z</time>
      </trkpt>
      <trkpt lat="45.94086" lon="4.72267">
        <ele>171</ele>
        <time>2016-08-25T08:24:58Z</time>
      </trkpt>
      <trkpt lat="45.94092" lon="4.72265">
        <ele>171</ele>
        <time>2016-08-25T08:24:59Z</time>
      </trkpt>
      <trkpt lat="45.94097" lon="4.72264">
        <ele>171</ele>
        <time>2016-08-25T08:25:00Z</time>
      </trkpt>
      <trkpt lat="45.94103" lon="4.72264">
        <ele>171</ele>
        <time>2016-08-25T08:25:01Z</time>
      </trkpt>
      <trkpt lat="45.94108" lon="4.72265">
        <ele>171</ele>
        <time>2016-08-25T08:25:02Z</time>
      </trkpt>
      <trkpt lat="45.94114" lon="4.72266">
        <ele>171</ele>
        <time>2016-08-25T08:25:03Z</time>
      </trkpt>
      <trkpt lat="45.9412" lon="4.72268">
        <ele>171</ele>
        <time>2016-08-25T08:25:04Z</time>
      </trkpt>
      <trkpt lat="45.94125" lon="4.7227">
        <ele>171</ele>
        <time>2016-08-25T08:25:05Z</time>
      </trkpt>
      <trkpt lat="45.94131" lon="4.72273">
        <ele>171</ele>
        <time>2016-08-25T08:25:06Z</time>
      </trkpt>
      <trkpt lat="45.94136" lon="4.72276">
        <ele>171</ele>
        <time>2016-08-25T08:25:07Z</time>
      </trkpt>
      <trkpt lat="45.94142" lon="4.72279">
        <ele>171</ele>
        <time>2016-08-25T08:25:08Z</time>
      </trkpt>
      <trkpt lat="45.94148" lon="4.72281">
        <ele>171</ele>
        <time>2016-08-25T08:25:09Z</time>
      </trkpt>
      <trkpt lat="45.94154" lon="4.72283">
        <ele>171</ele>
        <time>2016-08-25T08:25:10Z</time>
      </trkpt>
      <trkpt lat="45.94159" lon="4.72284">
        <ele>171</ele>
        <time>2016-08-25T08:25:11Z</time>
      </trkpt>
      <trkpt lat="45.94165" lon="4.72284">
        <ele>171</ele>
        <time>2016-08-25T08:25:12Z</time>
      </trkpt>
      <trkpt lat="45.94171" lon="4.72285">
        <ele>171</ele>
        <time>2016-08-25T08:25:13Z</time>
      </trkpt>
      <trkpt lat="45.94177" lon="4.72286">
        <ele>171</ele>
        <time>2016-08-25T08:25:14Z</time>
      </trkpt>
      <trkpt lat="45.94183" lon="4.72287">
        <ele>171</ele>
        <time>2016-08-25T08:25:15Z</time>
      </trkpt>
      <trkpt lat="45.94189" lon="4.72287">
        <ele>171</ele>
        <time>2016-08-25T08:25:16Z</time>
      </trkpt>
      <trkpt lat="45.94195" lon="4.72287">
        <ele>171</ele>
        <time>2016-08-25T08:25:17Z</time>
      </trkpt>
      <trkpt lat="45.94201" lon="4.72287">
        <ele>171</ele>
        <time>2016-08-25T08:25:18Z</time>
      </trkpt>
      <trkpt lat="45.94207" lon="4.72286">
        <ele>171</ele>
        <time>2016-08-25T08:25:19Z</time>
      </trkpt>
      <trkpt lat="45.94213" lon="4.72285">
        <ele>171</ele>
        <time>2016-08-25T08:25:20Z</time>
      </trkpt>
      <trkpt lat="45.94218" lon="4.72285">
        <ele>171</ele>
        <time>2016-08-25T08:25:21Z</time>
      </trkpt>
      <trkpt lat="45.94223" lon="4.72285">
        <ele>171</ele>
        <time>2016-08-25T08:25:22Z</time>
      </trkpt>
      <trkpt lat="45.94229" lon="4.72283">
        <ele>171</ele>
        <time>2016-08-25T08:25:23Z</time>
      </trkpt>
      <trkpt lat="45.94234" lon="4.72282">
        <ele>171</ele>
        <time>2016-08-25T08:25:24Z</time>
      </trkpt>
      <trkpt lat="45.94238" lon="4.7228">
        <ele>171</ele>
        <time>2016-08-25T08:25:25Z</time>
      </trkpt>
      <trkpt lat="45.94243" lon="4.72278">
        <ele>171</ele>
        <time>2016-08-25T08:25:26Z</time>
      </trkpt>
      <trkpt lat="45.94248" lon="4.72276">
        <ele>171</ele>
        <time>2016-08-25T08:25:27Z</time>
      </trkpt>
      <trkpt lat="45.94252" lon="4.72275">
        <ele>171</ele>
        <time>2016-08-25T08:25:28Z</time>
      </trkpt>
      <trkpt lat="45.94256" lon="4.72273">
        <ele>171</ele>
        <time>2016-08-25T08:25:29Z</time>
      </trkpt>
      <trkpt lat="45.94261" lon="4.72272">
        <ele>171</ele>
        <time>2016-08-25T08:25:30Z</time>
      </trkpt>
      <trkpt lat="45.94266" lon="4.72271">
        <ele>171</ele>
        <time>2016-08-25T08:25:31Z</time>
      </trkpt>
      <trkpt lat="45.9427" lon="4.72271">
        <ele>171</ele>
        <time>2016-08-25T08:25:32Z</time>
      </trkpt>
      <trkpt lat="45.94275" lon="4.72273">
        <ele>171</ele>
        <time>2016-08-25T08:25:33Z</time>
      </trkpt>
      <trkpt lat="45.94279" lon="4.72277">
        <ele>171</ele>
        <time>2016-08-25T08:25:34Z</time>
      </trkpt>
      <trkpt lat="45.94281" lon="4.72283">
        <ele>171</ele>
        <time>2016-08-25T08:25:35Z</time>
      </trkpt>
      <trkpt lat="45.94283" lon="4.7229">
        <ele>171</ele>
        <time>2016-08-25T08:25:36Z</time>
      </trkpt>
      <trkpt lat="45.94286" lon="4.72297">
        <ele>171</ele>
        <time>2016-08-25T08:25:37Z</time>
      </trkpt>
      <trkpt lat="45.9429" lon="4.72305">
        <ele>171</ele>
        <time>2016-08-25T08:25:38Z</time>
      </trkpt>
      <trkpt lat="45.94293" lon="4.72312">
        <ele>171</ele>
        <time>2016-08-25T08:25:39Z</time>
      </trkpt>
      <trkpt lat="45.94296" lon="4.72318">
        <ele>171</ele>
        <time>2016-08-25T08:25:40Z</time>
      </trkpt>
      <trkpt lat="45.943" lon="4.72325">
        <ele>171</ele>
        <time>2016-08-25T08:25:41Z</time>
      </trkpt>
      <trkpt lat="45.94303" lon="4.72331">
        <ele>171</ele>
        <time>2016-08-25T08:25:42Z</time>
      </trkpt>
      <trkpt lat="45.94306" lon="4.72338">
        <ele>172</ele>
        <time>2016-08-25T08:25:43Z</time>
      </trkpt>
      <trkpt lat="45.9431" lon="4.72344">
        <ele>172</ele>
        <time>2016-08-25T08:25:44Z</time>
      </trkpt>
      <trkpt lat="45.94313" lon="4.7235">
        <ele>172</ele>
        <time>2016-08-25T08:25:45Z</time>
      </trkpt>
      <trkpt lat="45.94317" lon="4.72357">
        <ele>172</ele>
        <time>2016-08-25T08:25:46Z</time>
      </trkpt>
      <trkpt lat="45.9432" lon="4.72363">
        <ele>172</ele>
        <time>2016-08-25T08:25:47Z</time>
      </trkpt>
      <trkpt lat="45.94323" lon="4.7237">
        <ele>172</ele>
        <time>2016-08-25T08:25:48Z</time>
      </trkpt>
      <trkpt lat="45.94326" lon="4.72377">
        <ele>172</ele>
        <time>2016-08-25T08:25:49Z</time>
      </trkpt>
      <trkpt lat="45.94329" lon="4.72383">
        <ele>172</ele>
        <time>2016-08-25T08:25:50Z</time>
      </trkpt>
      <trkpt lat="45.94332" lon="4.72389">
        <ele>172</ele>
        <time>2016-08-25T08:25:51Z</time>
      </trkpt>
      <trkpt lat="45.94334" lon="4.72396">
        <ele>172</ele>
        <time>2016-08-25T08:25:52Z</time>
      </trkpt>
      <trkpt lat="45.94337" lon="4.72403">
        <ele>173</ele>
        <time>2016-08-25T08:25:53Z</time>
      </trkpt>
      <trkpt lat="45.9434" lon="4.7241">
        <ele>173</ele>
        <time>2016-08-25T08:25:54Z</time>
      </trkpt>
      <trkpt lat="45.94343" lon="4.72417">
        <ele>173</ele>
        <time>2016-08-25T08:25:55Z</time>
      </trkpt>
      <trkpt lat="45.94346" lon="4.72424">
        <ele>173</ele>
        <time>2016-08-25T08:25:56Z</time>
      </trkpt>
      <trkpt lat="45.94349" lon="4.72432">
        <ele>173</ele>
        <time>2016-08-25T08:25:57Z</time>
      </trkpt>
      <trkpt lat="45.94352" lon="4.72439">
        <ele>173</ele>
        <time>2016-08-25T08:25:58Z</time>
      </trkpt>
      <trkpt lat="45.94356" lon="4.72446">
        <ele>173</ele>
        <time>2016-08-25T08:25:59Z</time>
      </trkpt>
      <trkpt lat="45.94359" lon="4.72453">
        <ele>173</ele>
        <time>2016-08-25T08:26:00Z</time>
      </trkpt>
      <trkpt lat="45.94362" lon="4.7246">
        <ele>173</ele>
        <time>2016-08-25T08:26:01Z</time>
      </trkpt>
      <trkpt lat="45.94364" lon="4.72467">
        <ele>173</ele>
        <time>2016-08-25T08:26:02Z</time>
      </trkpt>
      <trkpt lat="45.94367" lon="4.72474">
        <ele>173</ele>
        <time>2016-08-25T08:26:03Z</time>
      </trkpt>
      <trkpt lat="45.9437" lon="4.7248">
        <ele>173</ele>
        <time>2016-08-25T08:26:04Z</time>
      </trkpt>
      <trkpt lat="45.94372" lon="4.72487">
        <ele>173</ele>
        <time>2016-08-25T08:26:05Z</time>
      </trkpt>
      <trkpt lat="45.94374" lon="4.72494">
        <ele>173</ele>
        <time>2016-08-25T08:26:06Z</time>
      </trkpt>
      <trkpt lat="45.94376" lon="4.72502">
        <ele>174</ele>
        <time>2016-08-25T08:26:07Z</time>
      </trkpt>
      <trkpt lat="45.94378" lon="4.7251">
        <ele>174</ele>
        <time>2016-08-25T08:26:08Z</time>
      </trkpt>
      <trkpt lat="45.94379" lon="4.72518">
        <ele>174</ele>
        <time>2016-08-25T08:26:09Z</time>
      </trkpt>
      <trkpt lat="45.94381" lon="4.72526">
        <ele>174</ele>
        <time>2016-08-25T08:26:10Z</time>
      </trkpt>
      <trkpt lat="45.94383" lon="4.72534">
        <ele>174</ele>
        <time>2016-08-25T08:26:11Z</time>
      </trkpt>
      <trkpt lat="45.94385" lon="4.72543">
        <ele>173</ele>
        <time>2016-08-25T08:26:12Z</time>
      </trkpt>
      <trkpt lat="45.94386" lon="4.72551">
        <ele>173</ele>
        <time>2016-08-25T08:26:13Z</time>
      </trkpt>
      <trkpt lat="45.94388" lon="4.72559">
        <ele>173</ele>
        <time>2016-08-25T08:26:14Z</time>
      </trkpt>
      <trkpt lat="45.94389" lon="4.72567">
        <ele>173</ele>
        <time>2016-08-25T08:26:15Z</time>
      </trkpt>
      <trkpt lat="45.9439" lon="4.72574">
        <ele>173</ele>
        <time>2016-08-25T08:26:16Z</time>
      </trkpt>
      <trkpt lat="45.94391" lon="4.72583">
        <ele>173</ele>
        <time>2016-08-25T08:26:17Z</time>
      </trkpt>
      <trkpt lat="45.94392" lon="4.72591">
        <ele>173</ele>
        <time>2016-08-25T08:26:18Z</time>
      </trkpt>
      <trkpt lat="45.94392" lon="4.72598">
        <ele>173</ele>
        <time>2016-08-25T08:26:19Z</time>
      </trkpt>
      <trkpt lat="45.94393" lon="4.72606">
        <ele>173</ele>
        <time>2016-08-25T08:26:20Z</time>
      </trkpt>
      <trkpt lat="45.94394" lon="4.72614">
        <ele>173</ele>
        <time>2016-08-25T08:26:21Z</time>
      </trkpt>
      <trkpt lat="45.94394" lon="4.72622">
        <ele>173</ele>
        <time>2016-08-25T08:26:22Z</time>
      </trkpt>
      <trkpt lat="45.94395" lon="4.72631">
        <ele>174</ele>
        <time>2016-08-25T08:26:23Z</time>
      </trkpt>
      <trkpt lat="45.94396" lon="4.72639">
        <ele>174</ele>
        <time>2016-08-25T08:26:24Z</time>
      </trkpt>
      <trkpt lat="45.94397" lon="4.72646">
        <ele>174</ele>
        <time>2016-08-25T08:26:25Z</time>
      </trkpt>
      <trkpt lat="45.94398" lon="4.72654">
        <ele>174</ele>
        <time>2016-08-25T08:26:26Z</time>
      </trkpt>
      <trkpt lat="45.94399" lon="4.72662">
        <ele>174</ele>
        <time>2016-08-25T08:26:27Z</time>
      </trkpt>
      <trkpt lat="45.944" lon="4.72669">
        <ele>173</ele>
        <time>2016-08-25T08:26:28Z</time>
      </trkpt>
      <trkpt lat="45.94401" lon="4.72678">
        <ele>173</ele>
        <time>2016-08-25T08:26:29Z</time>
      </trkpt>
      <trkpt lat="45.94402" lon="4.72685">
        <ele>173</ele>
        <time>2016-08-25T08:26:30Z</time>
      </trkpt>
      <trkpt lat="45.94403" lon="4.72693">
        <ele>173</ele>
        <time>2016-08-25T08:26:31Z</time>
      </trkpt>
      <trkpt lat="45.94404" lon="4.727">
        <ele>172</ele>
        <time>2016-08-25T08:26:32Z</time>
      </trkpt>
      <trkpt lat="45.94405" lon="4.72708">
        <ele>172</ele>
        <time>2016-08-25T08:26:33Z</time>
      </trkpt>
      <trkpt lat="45.94407" lon="4.72715">
        <ele>172</ele>
        <time>2016-08-25T08:26:34Z</time>
      </trkpt>
      <trkpt lat="45.94408" lon="4.72723">
        <ele>172</ele>
        <time>2016-08-25T08:26:35Z</time>
      </trkpt>
      <trkpt lat="45.94409" lon="4.72731">
        <ele>172</ele>
        <time>2016-08-25T08:26:36Z</time>
      </trkpt>
      <trkpt lat="45.9441" lon="4.72739">
        <ele>171</ele>
        <time>2016-08-25T08:26:37Z</time>
      </trkpt>
      <trkpt lat="45.94412" lon="4.72747">
        <ele>171</ele>
        <time>2016-08-25T08:26:38Z</time>
      </trkpt>
      <trkpt lat="45.94414" lon="4.72755">
        <ele>170</ele>
        <time>2016-08-25T08:26:39Z</time>
      </trkpt>
      <trkpt lat="45.94416" lon="4.72762">
        <ele>170</ele>
        <time>2016-08-25T08:26:40Z</time>
      </trkpt>
      <trkpt lat="45.94418" lon="4.7277">
        <ele>169</ele>
        <time>2016-08-25T08:26:41Z</time>
      </trkpt>
      <trkpt lat="45.94419" lon="4.72778">
        <ele>168</ele>
        <time>2016-08-25T08:26:42Z</time>
      </trkpt>
      <trkpt lat="45.9442" lon="4.72786">
        <ele>168</ele>
        <time>2016-08-25T08:26:43Z</time>
      </trkpt>
      <trkpt lat="45.9442" lon="4.72794">
        <ele>168</ele>
        <time>2016-08-25T08:26:44Z</time>
      </trkpt>
      <trkpt lat="45.94421" lon="4.72802">
        <ele>167</ele>
        <time>2016-08-25T08:26:45Z</time>
      </trkpt>
      <trkpt lat="45.94422" lon="4.72809">
        <ele>167</ele>
        <time>2016-08-25T08:26:46Z</time>
      </trkpt>
      <trkpt lat="45.94422" lon="4.72816">
        <ele>167</ele>
        <time>2016-08-25T08:26:47Z</time>
      </trkpt>
      <trkpt lat="45.94423" lon="4.72823">
        <ele>167</ele>
        <time>2016-08-25T08:26:48Z</time>
      </trkpt>
      <trkpt lat="45.94424" lon="4.7283">
        <ele>166</ele>
        <time>2016-08-25T08:26:49Z</time>
      </trkpt>
      <trkpt lat="45.94425" lon="4.72837">
        <ele>166</ele>
        <time>2016-08-25T08:26:50Z</time>
      </trkpt>
      <trkpt lat="45.94426" lon="4.72843">
        <ele>166</ele>
        <time>2016-08-25T08:26:51Z</time>
      </trkpt>
      <trkpt lat="45.94427" lon="4.7285">
        <ele>166</ele>
        <time>2016-08-25T08:26:52Z</time>
      </trkpt>
      <trkpt lat="45.94428" lon="4.72863">
        <ele>166</ele>
        <time>2016-08-25T08:26:54Z</time>
      </trkpt>
      <trkpt lat="45.94429" lon="4.72868">
        <ele>166</ele>
        <time>2016-08-25T08:26:55Z</time>
      </trkpt>
      <trkpt lat="45.9443" lon="4.72879">
        <ele>166</ele>
        <time>2016-08-25T08:26:57Z</time>
      </trkpt>
      <trkpt lat="45.9443" lon="4.72884">
        <ele>166</ele>
        <time>2016-08-25T08:26:58Z</time>
      </trkpt>
      <trkpt lat="45.94431" lon="4.72896">
        <ele>166</ele>
        <time>2016-08-25T08:27:00Z</time>
      </trkpt>
      <trkpt lat="45.94431" lon="4.72902">
        <ele>166</ele>
        <time>2016-08-25T08:27:01Z</time>
      </trkpt>
      <trkpt lat="45.94433" lon="4.72914">
        <ele>166</ele>
        <time>2016-08-25T08:27:03Z</time>
      </trkpt>
      <trkpt lat="45.94434" lon="4.7292">
        <ele>167</ele>
        <time>2016-08-25T08:27:04Z</time>
      </trkpt>
      <trkpt lat="45.94435" lon="4.72928">
        <ele>167</ele>
        <time>2016-08-25T08:27:05Z</time>
      </trkpt>
      <trkpt lat="45.94435" lon="4.72935">
        <ele>167</ele>
        <time>2016-08-25T08:27:06Z</time>
      </trkpt>
      <trkpt lat="45.94436" lon="4.72943">
        <ele>167</ele>
        <time>2016-08-25T08:27:07Z</time>
      </trkpt>
      <trkpt lat="45.94438" lon="4.72952">
        <ele>167</ele>
        <time>2016-08-25T08:27:08Z</time>
      </trkpt>
      <trkpt lat="45.9444" lon="4.7296">
        <ele>167</ele>
        <time>2016-08-25T08:27:09Z</time>
      </trkpt>
      <trkpt lat="45.94442" lon="4.7297">
        <ele>167</ele>
        <time>2016-08-25T08:27:10Z</time>
      </trkpt>
      <trkpt lat="45.94443" lon="4.72979">
        <ele>167</ele>
        <time>2016-08-25T08:27:11Z</time>
      </trkpt>
      <trkpt lat="45.94445" lon="4.72989">
        <ele>167</ele>
        <time>2016-08-25T08:27:12Z</time>
      </trkpt>
      <trkpt lat="45.94446" lon="4.72999">
        <ele>167</ele>
        <time>2016-08-25T08:27:13Z</time>
      </trkpt>
      <trkpt lat="45.94447" lon="4.73009">
        <ele>169</ele>
        <time>2016-08-25T08:27:14Z</time>
      </trkpt>
      <trkpt lat="45.94448" lon="4.73019">
        <ele>169</ele>
        <time>2016-08-25T08:27:15Z</time>
      </trkpt>
      <trkpt lat="45.94449" lon="4.73029">
        <ele>169</ele>
        <time>2016-08-25T08:27:16Z</time>
      </trkpt>
      <trkpt lat="45.94451" lon="4.7304">
        <ele>169</ele>
        <time>2016-08-25T08:27:17Z</time>
      </trkpt>
      <trkpt lat="45.94453" lon="4.7305">
        <ele>169</ele>
        <time>2016-08-25T08:27:18Z</time>
      </trkpt>
      <trkpt lat="45.94454" lon="4.73061">
        <ele>170</ele>
        <time>2016-08-25T08:27:19Z</time>
      </trkpt>
      <trkpt lat="45.94455" lon="4.73072">
        <ele>170</ele>
        <time>2016-08-25T08:27:20Z</time>
      </trkpt>
      <trkpt lat="45.94457" lon="4.73082">
        <ele>170</ele>
        <time>2016-08-25T08:27:21Z</time>
      </trkpt>
      <trkpt lat="45.94458" lon="4.73092">
        <ele>171</ele>
        <time>2016-08-25T08:27:22Z</time>
      </trkpt>
      <trkpt lat="45.94459" lon="4.73101">
        <ele>171</ele>
        <time>2016-08-25T08:27:23Z</time>
      </trkpt>
      <trkpt lat="45.9446" lon="4.7311">
        <ele>172</ele>
        <time>2016-08-25T08:27:24Z</time>
      </trkpt>
      <trkpt lat="45.94461" lon="4.73119">
        <ele>172</ele>
        <time>2016-08-25T08:27:25Z</time>
      </trkpt>
      <trkpt lat="45.94463" lon="4.73127">
        <ele>172</ele>
        <time>2016-08-25T08:27:26Z</time>
      </trkpt>
      <trkpt lat="45.94464" lon="4.73135">
        <ele>172</ele>
        <time>2016-08-25T08:27:27Z</time>
      </trkpt>
      <trkpt lat="45.94466" lon="4.73143">
        <ele>172</ele>
        <time>2016-08-25T08:27:28Z</time>
      </trkpt>
      <trkpt lat="45.94467" lon="4.73151">
        <ele>172</ele>
        <time>2016-08-25T08:27:29Z</time>
      </trkpt>
      <trkpt lat="45.94468" lon="4.73159">
        <ele>172</ele>
        <time>2016-08-25T08:27:30Z</time>
      </trkpt>
      <trkpt lat="45.94469" lon="4.73168">
        <ele>174</ele>
        <time>2016-08-25T08:27:31Z</time>
      </trkpt>
      <trkpt lat="45.9447" lon="4.73176">
        <ele>174</ele>
        <time>2016-08-25T08:27:32Z</time>
      </trkpt>
      <trkpt lat="45.94471" lon="4.73185">
        <ele>174</ele>
        <time>2016-08-25T08:27:33Z</time>
      </trkpt>
      <trkpt lat="45.94472" lon="4.73194">
        <ele>174</ele>
        <time>2016-08-25T08:27:34Z</time>
      </trkpt>
      <trkpt lat="45.94474" lon="4.73202">
        <ele>174</ele>
        <time>2016-08-25T08:27:35Z</time>
      </trkpt>
      <trkpt lat="45.94475" lon="4.7321">
        <ele>175</ele>
        <time>2016-08-25T08:27:36Z</time>
      </trkpt>
      <trkpt lat="45.94476" lon="4.73218">
        <ele>175</ele>
        <time>2016-08-25T08:27:37Z</time>
      </trkpt>
      <trkpt lat="45.94477" lon="4.73224">
        <ele>175</ele>
        <time>2016-08-25T08:27:38Z</time>
      </trkpt>
      <trkpt lat="45.94478" lon="4.73236">
        <ele>175</ele>
        <time>2016-08-25T08:27:40Z</time>
      </trkpt>
      <trkpt lat="45.94478" lon="4.73241">
        <ele>175</ele>
        <time>2016-08-25T08:27:41Z</time>
      </trkpt>
      <trkpt lat="45.9448" lon="4.73254">
        <ele>176</ele>
        <time>2016-08-25T08:27:43Z</time>
      </trkpt>
      <trkpt lat="45.94481" lon="4.7326">
        <ele>177</ele>
        <time>2016-08-25T08:27:44Z</time>
      </trkpt>
      <trkpt lat="45.94483" lon="4.73272">
        <ele>177</ele>
        <time>2016-08-25T08:27:46Z</time>
      </trkpt>
      <trkpt lat="45.94483" lon="4.73278">
        <ele>177</ele>
        <time>2016-08-25T08:27:47Z</time>
      </trkpt>
      <trkpt lat="45.94484" lon="4.73285">
        <ele>177</ele>
        <time>2016-08-25T08:27:48Z</time>
      </trkpt>
      <trkpt lat="45.94484" lon="4.73291">
        <ele>177</ele>
        <time>2016-08-25T08:27:49Z</time>
      </trkpt>
      <trkpt lat="45.94485" lon="4.73298">
        <ele>177</ele>
        <time>2016-08-25T08:27:50Z</time>
      </trkpt>
      <trkpt lat="45.94486" lon="4.73306">
        <ele>177</ele>
        <time>2016-08-25T08:27:51Z</time>
      </trkpt>
      <trkpt lat="45.94487" lon="4.73312">
        <ele>177</ele>
        <time>2016-08-25T08:27:52Z</time>
      </trkpt>
      <trkpt lat="45.94487" lon="4.7332">
        <ele>177</ele>
        <time>2016-08-25T08:27:53Z</time>
      </trkpt>
      <trkpt lat="45.94488" lon="4.73327">
        <ele>177</ele>
        <time>2016-08-25T08:27:54Z</time>
      </trkpt>
      <trkpt lat="45.94488" lon="4.73334">
        <ele>178</ele>
        <time>2016-08-25T08:27:55Z</time>
      </trkpt>
      <trkpt lat="45.94489" lon="4.73341">
        <ele>178</ele>
        <time>2016-08-25T08:27:56Z</time>
      </trkpt>
      <trkpt lat="45.94489" lon="4.73348">
        <ele>178</ele>
        <time>2016-08-25T08:27:57Z</time>
      </trkpt>
      <trkpt lat="45.9449" lon="4.73355">
        <ele>178</ele>
        <time>2016-08-25T08:27:58Z</time>
      </trkpt>
      <trkpt lat="45.94491" lon="4.73362">
        <ele>179</ele>
        <time>2016-08-25T08:27:59Z</time>
      </trkpt>
      <trkpt lat="45.94492" lon="4.7337">
        <ele>179</ele>
        <time>2016-08-25T08:28:00Z</time>
      </trkpt>
      <trkpt lat="45.94492" lon="4.73377">
        <ele>179</ele>
        <time>2016-08-25T08:28:01Z</time>
      </trkpt>
      <trkpt lat="45.94493" lon="4.73384">
        <ele>179</ele>
        <time>2016-08-25T08:28:02Z</time>
      </trkpt>
      <trkpt lat="45.94493" lon="4.73392">
        <ele>179</ele>
        <time>2016-08-25T08:28:03Z</time>
      </trkpt>
      <trkpt lat="45.94494" lon="4.73398">
        <ele>180</ele>
        <time>2016-08-25T08:28:04Z</time>
      </trkpt>
      <trkpt lat="45.94494" lon="4.73406">
        <ele>180</ele>
        <time>2016-08-25T08:28:05Z</time>
      </trkpt>
      <trkpt lat="45.94494" lon="4.73413">
        <ele>180</ele>
        <time>2016-08-25T08:28:06Z</time>
      </trkpt>
      <trkpt lat="45.94494" lon="4.73419">
        <ele>180</ele>
        <time>2016-08-25T08:28:07Z</time>
      </trkpt>
      <trkpt lat="45.94494" lon="4.73426">
        <ele>181</ele>
        <time>2016-08-25T08:28:08Z</time>
      </trkpt>
      <trkpt lat="45.94495" lon="4.73433">
        <ele>181</ele>
        <time>2016-08-25T08:28:09Z</time>
      </trkpt>
      <trkpt lat="45.94495" lon="4.7344">
        <ele>181</ele>
        <time>2016-08-25T08:28:10Z</time>
      </trkpt>
      <trkpt lat="45.94495" lon="4.73447">
        <ele>181</ele>
        <time>2016-08-25T08:28:11Z</time>
      </trkpt>
      <trkpt lat="45.94496" lon="4.73455">
        <ele>182</ele>
        <time>2016-08-25T08:28:12Z</time>
      </trkpt>
      <trkpt lat="45.94496" lon="4.73462">
        <ele>182</ele>
        <time>2016-08-25T08:28:13Z</time>
      </trkpt>
      <trkpt lat="45.94496" lon="4.73469">
        <ele>182</ele>
        <time>2016-08-25T08:28:14Z</time>
      </trkpt>
      <trkpt lat="45.94496" lon="4.73475">
        <ele>182</ele>
        <time>2016-08-25T08:28:15Z</time>
      </trkpt>
      <trkpt lat="45.94496" lon="4.73483">
        <ele>182</ele>
        <time>2016-08-25T08:28:16Z</time>
      </trkpt>
      <trkpt lat="45.94497" lon="4.7349">
        <ele>183</ele>
        <time>2016-08-25T08:28:17Z</time>
      </trkpt>
      <trkpt lat="45.94496" lon="4.73497">
        <ele>183</ele>
        <time>2016-08-25T08:28:18Z</time>
      </trkpt>
      <trkpt lat="45.94496" lon="4.73504">
        <ele>183</ele>
        <time>2016-08-25T08:28:19Z</time>
      </trkpt>
      <trkpt lat="45.94496" lon="4.73512">
        <ele>184</ele>
        <time>2016-08-25T08:28:20Z</time>
      </trkpt>
      <trkpt lat="45.94496" lon="4.7352">
        <ele>184</ele>
        <time>2016-08-25T08:28:21Z</time>
      </trkpt>
      <trkpt lat="45.94495" lon="4.73528">
        <ele>184</ele>
        <time>2016-08-25T08:28:22Z</time>
      </trkpt>
      <trkpt lat="45.94496" lon="4.73535">
        <ele>184</ele>
        <time>2016-08-25T08:28:23Z</time>
      </trkpt>
      <trkpt lat="45.94496" lon="4.73543">
        <ele>184</ele>
        <time>2016-08-25T08:28:24Z</time>
      </trkpt>
      <trkpt lat="45.94497" lon="4.7355">
        <ele>185</ele>
        <time>2016-08-25T08:28:25Z</time>
      </trkpt>
      <trkpt lat="45.94497" lon="4.73557">
        <ele>185</ele>
        <time>2016-08-25T08:28:26Z</time>
      </trkpt>
      <trkpt lat="45.94498" lon="4.73565">
        <ele>185</ele>
        <time>2016-08-25T08:28:27Z</time>
      </trkpt>
      <trkpt lat="45.94498" lon="4.73572">
        <ele>185</ele>
        <time>2016-08-25T08:28:28Z</time>
      </trkpt>
      <trkpt lat="45.94498" lon="4.73579">
        <ele>185</ele>
        <time>2016-08-25T08:28:29Z</time>
      </trkpt>
      <trkpt lat="45.94498" lon="4.73586">
        <ele>185</ele>
        <time>2016-08-25T08:28:30Z</time>
      </trkpt>
      <trkpt lat="45.94497" lon="4.73593">
        <ele>185</ele>
        <time>2016-08-25T08:28:31Z</time>
      </trkpt>
      <trkpt lat="45.94497" lon="4.73601">
        <ele>185</ele>
        <time>2016-08-25T08:28:32Z</time>
      </trkpt>
      <trkpt lat="45.94496" lon="4.73608">
        <ele>186</ele>
        <time>2016-08-25T08:28:33Z</time>
      </trkpt>
      <trkpt lat="45.94496" lon="4.73614">
        <ele>186</ele>
        <time>2016-08-25T08:28:34Z</time>
      </trkpt>
      <trkpt lat="45.94495" lon="4.73622">
        <ele>186</ele>
        <time>2016-08-25T08:28:35Z</time>
      </trkpt>
      <trkpt lat="45.94495" lon="4.73629">
        <ele>186</ele>
        <time>2016-08-25T08:28:36Z</time>
      </trkpt>
      <trkpt lat="45.94493" lon="4.73637">
        <ele>186</ele>
        <time>2016-08-25T08:28:37Z</time>
      </trkpt>
      <trkpt lat="45.94492" lon="4.73645">
        <ele>186</ele>
        <time>2016-08-25T08:28:38Z</time>
      </trkpt>
      <trkpt lat="45.9449" lon="4.73653">
        <ele>185</ele>
        <time>2016-08-25T08:28:39Z</time>
      </trkpt>
      <trkpt lat="45.9449" lon="4.73662">
        <ele>185</ele>
        <time>2016-08-25T08:28:40Z</time>
      </trkpt>
      <trkpt lat="45.94488" lon="4.7367">
        <ele>185</ele>
        <time>2016-08-25T08:28:41Z</time>
      </trkpt>
      <trkpt lat="45.94487" lon="4.73678">
        <ele>186</ele>
        <time>2016-08-25T08:28:42Z</time>
      </trkpt>
      <trkpt lat="45.94486" lon="4.73687">
        <ele>186</ele>
        <time>2016-08-25T08:28:43Z</time>
      </trkpt>
      <trkpt lat="45.94485" lon="4.73695">
        <ele>186</ele>
        <time>2016-08-25T08:28:44Z</time>
      </trkpt>
      <trkpt lat="45.94484" lon="4.73704">
        <ele>186</ele>
        <time>2016-08-25T08:28:45Z</time>
      </trkpt>
      <trkpt lat="45.94483" lon="4.73712">
        <ele>186</ele>
        <time>2016-08-25T08:28:46Z</time>
      </trkpt>
      <trkpt lat="45.94482" lon="4.73721">
        <ele>186</ele>
        <time>2016-08-25T08:28:47Z</time>
      </trkpt>
      <trkpt lat="45.9448" lon="4.73729">
        <ele>186</ele>
        <time>2016-08-25T08:28:48Z</time>
      </trkpt>
      <trkpt lat="45.94478" lon="4.73736">
        <ele>186</ele>
        <time>2016-08-25T08:28:49Z</time>
      </trkpt>
      <trkpt lat="45.94477" lon="4.73743">
        <ele>186</ele>
        <time>2016-08-25T08:28:50Z</time>
      </trkpt>
      <trkpt lat="45.94475" lon="4.7375">
        <ele>186</ele>
        <time>2016-08-25T08:28:51Z</time>
      </trkpt>
      <trkpt lat="45.94474" lon="4.73757">
        <ele>186</ele>
        <time>2016-08-25T08:28:52Z</time>
      </trkpt>
      <trkpt lat="45.94474" lon="4.73763">
        <ele>186</ele>
        <time>2016-08-25T08:28:53Z</time>
      </trkpt>
      <trkpt lat="45.94479" lon="4.73773">
        <ele>186</ele>
        <time>2016-08-25T08:28:55Z</time>
      </trkpt>
      <trkpt lat="45.94483" lon="4.73776">
        <ele>186</ele>
        <time>2016-08-25T08:28:56Z</time>
      </trkpt>
      <trkpt lat="45.94488" lon="4.73778">
        <ele>186</ele>
        <time>2016-08-25T08:28:57Z</time>
      </trkpt>
      <trkpt lat="45.94493" lon="4.73782">
        <ele>186</ele>
        <time>2016-08-25T08:28:58Z</time>
      </trkpt>
      <trkpt lat="45.94497" lon="4.73785">
        <ele>186</ele>
        <time>2016-08-25T08:28:59Z</time>
      </trkpt>
      <trkpt lat="45.94501" lon="4.7379">
        <ele>186</ele>
        <time>2016-08-25T08:29:00Z</time>
      </trkpt>
      <trkpt lat="45.94506" lon="4.73794">
        <ele>186</ele>
        <time>2016-08-25T08:29:01Z</time>
      </trkpt>
      <trkpt lat="45.9451" lon="4.73799">
        <ele>186</ele>
        <time>2016-08-25T08:29:02Z</time>
      </trkpt>
      <trkpt lat="45.94514" lon="4.73803">
        <ele>186</ele>
        <time>2016-08-25T08:29:03Z</time>
      </trkpt>
      <trkpt lat="45.94519" lon="4.73808">
        <ele>186</ele>
        <time>2016-08-25T08:29:04Z</time>
      </trkpt>
      <trkpt lat="45.94523" lon="4.73812">
        <ele>186</ele>
        <time>2016-08-25T08:29:05Z</time>
      </trkpt>
      <trkpt lat="45.94528" lon="4.73816">
        <ele>186</ele>
        <time>2016-08-25T08:29:06Z</time>
      </trkpt>
      <trkpt lat="45.94532" lon="4.73821">
        <ele>186</ele>
        <time>2016-08-25T08:29:07Z</time>
      </trkpt>
      <trkpt lat="45.94537" lon="4.73825">
        <ele>186</ele>
        <time>2016-08-25T08:29:08Z</time>
      </trkpt>
      <trkpt lat="45.94542" lon="4.7383">
        <ele>186</ele>
        <time>2016-08-25T08:29:09Z</time>
      </trkpt>
      <trkpt lat="45.94546" lon="4.73835">
        <ele>186</ele>
        <time>2016-08-25T08:29:10Z</time>
      </trkpt>
      <trkpt lat="45.94551" lon="4.7384">
        <ele>186</ele>
        <time>2016-08-25T08:29:11Z</time>
      </trkpt>
      <trkpt lat="45.94556" lon="4.73846">
        <ele>186</ele>
        <time>2016-08-25T08:29:12Z</time>
      </trkpt>
      <trkpt lat="45.9456" lon="4.7385">
        <ele>186</ele>
        <time>2016-08-25T08:29:13Z</time>
      </trkpt>
      <trkpt lat="45.94564" lon="4.73856">
        <ele>186</ele>
        <time>2016-08-25T08:29:14Z</time>
      </trkpt>
      <trkpt lat="45.94569" lon="4.73862">
        <ele>186</ele>
        <time>2016-08-25T08:29:15Z</time>
      </trkpt>
      <trkpt lat="45.94574" lon="4.73867">
        <ele>186</ele>
        <time>2016-08-25T08:29:16Z</time>
      </trkpt>
      <trkpt lat="45.94578" lon="4.73872">
        <ele>186</ele>
        <time>2016-08-25T08:29:17Z</time>
      </trkpt>
      <trkpt lat="45.94583" lon="4.73877">
        <ele>186</ele>
        <time>2016-08-25T08:29:18Z</time>
      </trkpt>
      <trkpt lat="45.94587" lon="4.73882">
        <ele>187</ele>
        <time>2016-08-25T08:29:19Z</time>
      </trkpt>
      <trkpt lat="45.94591" lon="4.73886">
        <ele>187</ele>
        <time>2016-08-25T08:29:20Z</time>
      </trkpt>
      <trkpt lat="45.94596" lon="4.73891">
        <ele>187</ele>
        <time>2016-08-25T08:29:21Z</time>
      </trkpt>
      <trkpt lat="45.94599" lon="4.73896">
        <ele>187</ele>
        <time>2016-08-25T08:29:22Z</time>
      </trkpt>
      <trkpt lat="45.94604" lon="4.739">
        <ele>187</ele>
        <time>2016-08-25T08:29:23Z</time>
      </trkpt>
      <trkpt lat="45.94608" lon="4.73904">
        <ele>187</ele>
        <time>2016-08-25T08:29:24Z</time>
      </trkpt>
      <trkpt lat="45.94612" lon="4.73909">
        <ele>187</ele>
        <time>2016-08-25T08:29:25Z</time>
      </trkpt>
      <trkpt lat="45.94616" lon="4.73914">
        <ele>187</ele>
        <time>2016-08-25T08:29:26Z</time>
      </trkpt>
      <trkpt lat="45.94619" lon="4.73919">
        <ele>187</ele>
        <time>2016-08-25T08:29:27Z</time>
      </trkpt>
      <trkpt lat="45.94623" lon="4.73924">
        <ele>187</ele>
        <time>2016-08-25T08:29:28Z</time>
      </trkpt>
      <trkpt lat="45.94627" lon="4.73929">
        <ele>187</ele>
        <time>2016-08-25T08:29:29Z</time>
      </trkpt>
      <trkpt lat="45.9463" lon="4.73934">
        <ele>187</ele>
        <time>2016-08-25T08:29:30Z</time>
      </trkpt>
      <trkpt lat="45.94634" lon="4.73938">
        <ele>187</ele>
        <time>2016-08-25T08:29:31Z</time>
      </trkpt>
      <trkpt lat="45.94637" lon="4.73943">
        <ele>187</ele>
        <time>2016-08-25T08:29:32Z</time>
      </trkpt>
      <trkpt lat="45.94641" lon="4.73948">
        <ele>187</ele>
        <time>2016-08-25T08:29:33Z</time>
      </trkpt>
      <trkpt lat="45.94645" lon="4.73954">
        <ele>187</ele>
        <time>2016-08-25T08:29:34Z</time>
      </trkpt>
      <trkpt lat="45.94649" lon="4.73959">
        <ele>187</ele>
        <time>2016-08-25T08:29:35Z</time>
      </trkpt>
      <trkpt lat="45.94654" lon="4.73965">
        <ele>187</ele>
        <time>2016-08-25T08:29:36Z</time>
      </trkpt>
      <trkpt lat="45.94658" lon="4.73971">
        <ele>187</ele>
        <time>2016-08-25T08:29:37Z</time>
      </trkpt>
      <trkpt lat="45.94663" lon="4.73977">
        <ele>187</ele>
        <time>2016-08-25T08:29:38Z</time>
      </trkpt>
      <trkpt lat="45.94666" lon="4.73982">
        <ele>187</ele>
        <time>2016-08-25T08:29:39Z</time>
      </trkpt>
      <trkpt lat="45.9467" lon="4.73987">
        <ele>187</ele>
        <time>2016-08-25T08:29:40Z</time>
      </trkpt>
      <trkpt lat="45.94674" lon="4.73992">
        <ele>187</ele>
        <time>2016-08-25T08:29:41Z</time>
      </trkpt>
      <trkpt lat="45.94677" lon="4.73997">
        <ele>187</ele>
        <time>2016-08-25T08:29:42Z</time>
      </trkpt>
      <trkpt lat="45.94681" lon="4.74002">
        <ele>187</ele>
        <time>2016-08-25T08:29:43Z</time>
      </trkpt>
      <trkpt lat="45.94685" lon="4.74007">
        <ele>187</ele>
        <time>2016-08-25T08:29:44Z</time>
      </trkpt>
      <trkpt lat="45.9469" lon="4.74013">
        <ele>187</ele>
        <time>2016-08-25T08:29:45Z</time>
      </trkpt>
      <trkpt lat="45.94694" lon="4.74019">
        <ele>187</ele>
        <time>2016-08-25T08:29:46Z</time>
      </trkpt>
      <trkpt lat="45.94698" lon="4.74024">
        <ele>187</ele>
        <time>2016-08-25T08:29:47Z</time>
      </trkpt>
      <trkpt lat="45.94702" lon="4.74029">
        <ele>187</ele>
        <time>2016-08-25T08:29:48Z</time>
      </trkpt>
      <trkpt lat="45.94706" lon="4.74034">
        <ele>187</ele>
        <time>2016-08-25T08:29:49Z</time>
      </trkpt>
      <trkpt lat="45.9471" lon="4.7404">
        <ele>187</ele>
        <time>2016-08-25T08:29:50Z</time>
      </trkpt>
      <trkpt lat="45.94714" lon="4.74044">
        <ele>187</ele>
        <time>2016-08-25T08:29:51Z</time>
      </trkpt>
      <trkpt lat="45.94718" lon="4.74049">
        <ele>187</ele>
        <time>2016-08-25T08:29:52Z</time>
      </trkpt>
      <trkpt lat="45.94722" lon="4.74054">
        <ele>187</ele>
        <time>2016-08-25T08:29:53Z</time>
      </trkpt>
      <trkpt lat="45.94726" lon="4.74059">
        <ele>188</ele>
        <time>2016-08-25T08:29:54Z</time>
      </trkpt>
      <trkpt lat="45.94729" lon="4.74065">
        <ele>188</ele>
        <time>2016-08-25T08:29:55Z</time>
      </trkpt>
      <trkpt lat="45.94733" lon="4.74071">
        <ele>188</ele>
        <time>2016-08-25T08:29:56Z</time>
      </trkpt>
      <trkpt lat="45.94737" lon="4.74076">
        <ele>188</ele>
        <time>2016-08-25T08:29:57Z</time>
      </trkpt>
      <trkpt lat="45.94741" lon="4.74081">
        <ele>188</ele>
        <time>2016-08-25T08:29:58Z</time>
      </trkpt>
      <trkpt lat="45.94745" lon="4.74086">
        <ele>188</ele>
        <time>2016-08-25T08:29:59Z</time>
      </trkpt>
      <trkpt lat="45.94749" lon="4.74091">
        <ele>188</ele>
        <time>2016-08-25T08:30:00Z</time>
      </trkpt>
      <trkpt lat="45.94753" lon="4.74095">
        <ele>189</ele>
        <time>2016-08-25T08:30:01Z</time>
      </trkpt>
      <trkpt lat="45.94756" lon="4.741">
        <ele>189</ele>
        <time>2016-08-25T08:30:02Z</time>
      </trkpt>
      <trkpt lat="45.9476" lon="4.74105">
        <ele>189</ele>
        <time>2016-08-25T08:30:03Z</time>
      </trkpt>
      <trkpt lat="45.94764" lon="4.74111">
        <ele>189</ele>
        <time>2016-08-25T08:30:04Z</time>
      </trkpt>
      <trkpt lat="45.94768" lon="4.74116">
        <ele>189</ele>
        <time>2016-08-25T08:30:05Z</time>
      </trkpt>
      <trkpt lat="45.94772" lon="4.74121">
        <ele>189</ele>
        <time>2016-08-25T08:30:06Z</time>
      </trkpt>
      <trkpt lat="45.94775" lon="4.74127">
        <ele>189</ele>
        <time>2016-08-25T08:30:07Z</time>
      </trkpt>
      <trkpt lat="45.94779" lon="4.74132">
        <ele>189</ele>
        <time>2016-08-25T08:30:08Z</time>
      </trkpt>
      <trkpt lat="45.94783" lon="4.74138">
        <ele>189</ele>
        <time>2016-08-25T08:30:09Z</time>
      </trkpt>
      <trkpt lat="45.94787" lon="4.74143">
        <ele>189</ele>
        <time>2016-08-25T08:30:10Z</time>
      </trkpt>
      <trkpt lat="45.94791" lon="4.74148">
        <ele>189</ele>
        <time>2016-08-25T08:30:11Z</time>
      </trkpt>
      <trkpt lat="45.94794" lon="4.74154">
        <ele>189</ele>
        <time>2016-08-25T08:30:12Z</time>
      </trkpt>
      <trkpt lat="45.94798" lon="4.7416">
        <ele>189</ele>
        <time>2016-08-25T08:30:13Z</time>
      </trkpt>
      <trkpt lat="45.94802" lon="4.74165">
        <ele>189</ele>
        <time>2016-08-25T08:30:14Z</time>
      </trkpt>
      <trkpt lat="45.94805" lon="4.7417">
        <ele>189</ele>
        <time>2016-08-25T08:30:15Z</time>
      </trkpt>
      <trkpt lat="45.94808" lon="4.74176">
        <ele>189</ele>
        <time>2016-08-25T08:30:16Z</time>
      </trkpt>
      <trkpt lat="45.94811" lon="4.74182">
        <ele>189</ele>
        <time>2016-08-25T08:30:17Z</time>
      </trkpt>
      <trkpt lat="45.94814" lon="4.74188">
        <ele>189</ele>
        <time>2016-08-25T08:30:18Z</time>
      </trkpt>
      <trkpt lat="45.94817" lon="4.74194">
        <ele>189</ele>
        <time>2016-08-25T08:30:19Z</time>
      </trkpt>
      <trkpt lat="45.94821" lon="4.74201">
        <ele>189</ele>
        <time>2016-08-25T08:30:20Z</time>
      </trkpt>
      <trkpt lat="45.94824" lon="4.74207">
        <ele>189</ele>
        <time>2016-08-25T08:30:21Z</time>
      </trkpt>
      <trkpt lat="45.94827" lon="4.74214">
        <ele>188</ele>
        <time>2016-08-25T08:30:22Z</time>
      </trkpt>
      <trkpt lat="45.9483" lon="4.74221">
        <ele>188</ele>
        <time>2016-08-25T08:30:23Z</time>
      </trkpt>
      <trkpt lat="45.94833" lon="4.74227">
        <ele>189</ele>
        <time>2016-08-25T08:30:24Z</time>
      </trkpt>
      <trkpt lat="45.94836" lon="4.74233">
        <ele>190</ele>
        <time>2016-08-25T08:30:25Z</time>
      </trkpt>
      <trkpt lat="45.9484" lon="4.7424">
        <ele>190</ele>
        <time>2016-08-25T08:30:26Z</time>
      </trkpt>
      <trkpt lat="45.94843" lon="4.74246">
        <ele>189</ele>
        <time>2016-08-25T08:30:27Z</time>
      </trkpt>
      <trkpt lat="45.94847" lon="4.74252">
        <ele>190</ele>
        <time>2016-08-25T08:30:28Z</time>
      </trkpt>
      <trkpt lat="45.9485" lon="4.74259">
        <ele>190</ele>
        <time>2016-08-25T08:30:29Z</time>
      </trkpt>
      <trkpt lat="45.94854" lon="4.74265">
        <ele>190</ele>
        <time>2016-08-25T08:30:30Z</time>
      </trkpt>
      <trkpt lat="45.94857" lon="4.74271">
        <ele>190</ele>
        <time>2016-08-25T08:30:31Z</time>
      </trkpt>
      <trkpt lat="45.9486" lon="4.74278">
        <ele>190</ele>
        <time>2016-08-25T08:30:32Z</time>
      </trkpt>
      <trkpt lat="45.94863" lon="4.74285">
        <ele>191</ele>
        <time>2016-08-25T08:30:33Z</time>
      </trkpt>
      <trkpt lat="45.94866" lon="4.74292">
        <ele>191</ele>
        <time>2016-08-25T08:30:34Z</time>
      </trkpt>
      <trkpt lat="45.94869" lon="4.74299">
        <ele>191</ele>
        <time>2016-08-25T08:30:35Z</time>
      </trkpt>
      <trkpt lat="45.94872" lon="4.74305">
        <ele>191</ele>
        <time>2016-08-25T08:30:36Z</time>
      </trkpt>
      <trkpt lat="45.94876" lon="4.74312">
        <ele>191</ele>
        <time>2016-08-25T08:30:37Z</time>
      </trkpt>
      <trkpt lat="45.9488" lon="4.74318">
        <ele>191</ele>
        <time>2016-08-25T08:30:38Z</time>
      </trkpt>
      <trkpt lat="45.94884" lon="4.74326">
        <ele>191</ele>
        <time>2016-08-25T08:30:39Z</time>
      </trkpt>
      <trkpt lat="45.94888" lon="4.74332">
        <ele>191</ele>
        <time>2016-08-25T08:30:40Z</time>
      </trkpt>
      <trkpt lat="45.94891" lon="4.74339">
        <ele>191</ele>
        <time>2016-08-25T08:30:41Z</time>
      </trkpt>
      <trkpt lat="45.94894" lon="4.74345">
        <ele>191</ele>
        <time>2016-08-25T08:30:42Z</time>
      </trkpt>
      <trkpt lat="45.94898" lon="4.74351">
        <ele>191</ele>
        <time>2016-08-25T08:30:43Z</time>
      </trkpt>
      <trkpt lat="45.94901" lon="4.74358">
        <ele>191</ele>
        <time>2016-08-25T08:30:44Z</time>
      </trkpt>
      <trkpt lat="45.94904" lon="4.74365">
        <ele>191</ele>
        <time>2016-08-25T08:30:45Z</time>
      </trkpt>
      <trkpt lat="45.94908" lon="4.74372">
        <ele>191</ele>
        <time>2016-08-25T08:30:46Z</time>
      </trkpt>
      <trkpt lat="45.94912" lon="4.74379">
        <ele>191</ele>
        <time>2016-08-25T08:30:47Z</time>
      </trkpt>
      <trkpt lat="45.94915" lon="4.74385">
        <ele>191</ele>
        <time>2016-08-25T08:30:48Z</time>
      </trkpt>
      <trkpt lat="45.94919" lon="4.74391">
        <ele>192</ele>
        <time>2016-08-25T08:30:49Z</time>
      </trkpt>
      <trkpt lat="45.94922" lon="4.74398">
        <ele>192</ele>
        <time>2016-08-25T08:30:50Z</time>
      </trkpt>
      <trkpt lat="45.94926" lon="4.74404">
        <ele>192</ele>
        <time>2016-08-25T08:30:51Z</time>
      </trkpt>
      <trkpt lat="45.94929" lon="4.7441">
        <ele>192</ele>
        <time>2016-08-25T08:30:52Z</time>
      </trkpt>
      <trkpt lat="45.94932" lon="4.74416">
        <ele>192</ele>
        <time>2016-08-25T08:30:53Z</time>
      </trkpt>
      <trkpt lat="45.94935" lon="4.74423">
        <ele>192</ele>
        <time>2016-08-25T08:30:54Z</time>
      </trkpt>
      <trkpt lat="45.94937" lon="4.74429">
        <ele>192</ele>
        <time>2016-08-25T08:30:55Z</time>
      </trkpt>
      <trkpt lat="45.9494" lon="4.74436">
        <ele>192</ele>
        <time>2016-08-25T08:30:56Z</time>
      </trkpt>
      <trkpt lat="45.94943" lon="4.74442">
        <ele>192</ele>
        <time>2016-08-25T08:30:57Z</time>
      </trkpt>
      <trkpt lat="45.94947" lon="4.74448">
        <ele>192</ele>
        <time>2016-08-25T08:30:58Z</time>
      </trkpt>
      <trkpt lat="45.9495" lon="4.74454">
        <ele>192</ele>
        <time>2016-08-25T08:30:59Z</time>
      </trkpt>
      <trkpt lat="45.94953" lon="4.7446">
        <ele>193</ele>
        <time>2016-08-25T08:31:00Z</time>
      </trkpt>
      <trkpt lat="45.94956" lon="4.74467">
        <ele>193</ele>
        <time>2016-08-25T08:31:01Z</time>
      </trkpt>
      <trkpt lat="45.94959" lon="4.74473">
        <ele>193</ele>
        <time>2016-08-25T08:31:02Z</time>
      </trkpt>
      <trkpt lat="45.94962" lon="4.74479">
        <ele>193</ele>
        <time>2016-08-25T08:31:03Z</time>
      </trkpt>
      <trkpt lat="45.94966" lon="4.74485">
        <ele>193</ele>
        <time>2016-08-25T08:31:04Z</time>
      </trkpt>
      <trkpt lat="45.94969" lon="4.74491">
        <ele>193</ele>
        <time>2016-08-25T08:31:05Z</time>
      </trkpt>
      <trkpt lat="45.94972" lon="4.74498">
        <ele>193</ele>
        <time>2016-08-25T08:31:06Z</time>
      </trkpt>
      <trkpt lat="45.94975" lon="4.74504">
        <ele>193</ele>
        <time>2016-08-25T08:31:07Z</time>
      </trkpt>
      <trkpt lat="45.94978" lon="4.74511">
        <ele>193</ele>
        <time>2016-08-25T08:31:08Z</time>
      </trkpt>
      <trkpt lat="45.94981" lon="4.74517">
        <ele>193</ele>
        <time>2016-08-25T08:31:09Z</time>
      </trkpt>
      <trkpt lat="45.94985" lon="4.74524">
        <ele>193</ele>
        <time>2016-08-25T08:31:10Z</time>
      </trkpt>
      <trkpt lat="45.94989" lon="4.7453">
        <ele>193</ele>
        <time>2016-08-25T08:31:11Z</time>
      </trkpt>
      <trkpt lat="45.94992" lon="4.74537">
        <ele>193</ele>
        <time>2016-08-25T08:31:12Z</time>
      </trkpt>
      <trkpt lat="45.94996" lon="4.74543">
        <ele>193</ele>
        <time>2016-08-25T08:31:13Z</time>
      </trkpt>
      <trkpt lat="45.94999" lon="4.7455">
        <ele>193</ele>
        <time>2016-08-25T08:31:14Z</time>
      </trkpt>
      <trkpt lat="45.95002" lon="4.74556">
        <ele>194</ele>
        <time>2016-08-25T08:31:15Z</time>
      </trkpt>
      <trkpt lat="45.95005" lon="4.74562">
        <ele>194</ele>
        <time>2016-08-25T08:31:16Z</time>
      </trkpt>
      <trkpt lat="45.95008" lon="4.74568">
        <ele>194</ele>
        <time>2016-08-25T08:31:17Z</time>
      </trkpt>
      <trkpt lat="45.95011" lon="4.74574">
        <ele>194</ele>
        <time>2016-08-25T08:31:18Z</time>
      </trkpt>
      <trkpt lat="45.95014" lon="4.74581">
        <ele>194</ele>
        <time>2016-08-25T08:31:19Z</time>
      </trkpt>
      <trkpt lat="45.95017" lon="4.74587">
        <ele>194</ele>
        <time>2016-08-25T08:31:20Z</time>
      </trkpt>
      <trkpt lat="45.9502" lon="4.74592">
        <ele>194</ele>
        <time>2016-08-25T08:31:21Z</time>
      </trkpt>
      <trkpt lat="45.95024" lon="4.74597">
        <ele>194</ele>
        <time>2016-08-25T08:31:22Z</time>
      </trkpt>
      <trkpt lat="45.95027" lon="4.74603">
        <ele>194</ele>
        <time>2016-08-25T08:31:23Z</time>
      </trkpt>
      <trkpt lat="45.9503" lon="4.74609">
        <ele>194</ele>
        <time>2016-08-25T08:31:24Z</time>
      </trkpt>
      <trkpt lat="45.95033" lon="4.74614">
        <ele>194</ele>
        <time>2016-08-25T08:31:25Z</time>
      </trkpt>
      <trkpt lat="45.95036" lon="4.7462">
        <ele>194</ele>
        <time>2016-08-25T08:31:26Z</time>
      </trkpt>
      <trkpt lat="45.9504" lon="4.74626">
        <ele>194</ele>
        <time>2016-08-25T08:31:27Z</time>
      </trkpt>
      <trkpt lat="45.95043" lon="4.74632">
        <ele>194</ele>
        <time>2016-08-25T08:31:28Z</time>
      </trkpt>
      <trkpt lat="45.95046" lon="4.74638">
        <ele>194</ele>
        <time>2016-08-25T08:31:29Z</time>
      </trkpt>
      <trkpt lat="45.9505" lon="4.74644">
        <ele>194</ele>
        <time>2016-08-25T08:31:30Z</time>
      </trkpt>
      <trkpt lat="45.95053" lon="4.7465">
        <ele>194</ele>
        <time>2016-08-25T08:31:31Z</time>
      </trkpt>
      <trkpt lat="45.95057" lon="4.74656">
        <ele>194</ele>
        <time>2016-08-25T08:31:32Z</time>
      </trkpt>
      <trkpt lat="45.9506" lon="4.74661">
        <ele>194</ele>
        <time>2016-08-25T08:31:33Z</time>
      </trkpt>
      <trkpt lat="45.95064" lon="4.74667">
        <ele>194</ele>
        <time>2016-08-25T08:31:34Z</time>
      </trkpt>
      <trkpt lat="45.95067" lon="4.74673">
        <ele>194</ele>
        <time>2016-08-25T08:31:35Z</time>
      </trkpt>
      <trkpt lat="45.9507" lon="4.7468">
        <ele>194</ele>
        <time>2016-08-25T08:31:36Z</time>
      </trkpt>
      <trkpt lat="45.95073" lon="4.74686">
        <ele>194</ele>
        <time>2016-08-25T08:31:37Z</time>
      </trkpt>
      <trkpt lat="45.95077" lon="4.74693">
        <ele>194</ele>
        <time>2016-08-25T08:31:38Z</time>
      </trkpt>
      <trkpt lat="45.95081" lon="4.74699">
        <ele>194</ele>
        <time>2016-08-25T08:31:39Z</time>
      </trkpt>
      <trkpt lat="45.95085" lon="4.74706">
        <ele>194</ele>
        <time>2016-08-25T08:31:40Z</time>
      </trkpt>
      <trkpt lat="45.95089" lon="4.74714">
        <ele>194</ele>
        <time>2016-08-25T08:31:41Z</time>
      </trkpt>
      <trkpt lat="45.95093" lon="4.7472">
        <ele>194</ele>
        <time>2016-08-25T08:31:42Z</time>
      </trkpt>
      <trkpt lat="45.95097" lon="4.74726">
        <ele>194</ele>
        <time>2016-08-25T08:31:43Z</time>
      </trkpt>
      <trkpt lat="45.951" lon="4.74733">
        <ele>194</ele>
        <time>2016-08-25T08:31:44Z</time>
      </trkpt>
      <trkpt lat="45.95104" lon="4.74738">
        <ele>194</ele>
        <time>2016-08-25T08:31:45Z</time>
      </trkpt>
      <trkpt lat="45.95107" lon="4.74744">
        <ele>194</ele>
        <time>2016-08-25T08:31:46Z</time>
      </trkpt>
      <trkpt lat="45.95111" lon="4.7475">
        <ele>194</ele>
        <time>2016-08-25T08:31:47Z</time>
      </trkpt>
      <trkpt lat="45.95114" lon="4.74755">
        <ele>194</ele>
        <time>2016-08-25T08:31:48Z</time>
      </trkpt>
      <trkpt lat="45.95118" lon="4.7476">
        <ele>194</ele>
        <time>2016-08-25T08:31:49Z</time>
      </trkpt>
      <trkpt lat="45.95121" lon="4.74766">
        <ele>194</ele>
        <time>2016-08-25T08:31:50Z</time>
      </trkpt>
      <trkpt lat="45.95125" lon="4.74771">
        <ele>194</ele>
        <time>2016-08-25T08:31:51Z</time>
      </trkpt>
      <trkpt lat="45.95128" lon="4.74777">
        <ele>194</ele>
        <time>2016-08-25T08:31:52Z</time>
      </trkpt>
      <trkpt lat="45.95132" lon="4.74783">
        <ele>194</ele>
        <time>2016-08-25T08:31:53Z</time>
      </trkpt>
      <trkpt lat="45.95135" lon="4.74789">
        <ele>194</ele>
        <time>2016-08-25T08:31:54Z</time>
      </trkpt>
      <trkpt lat="45.95139" lon="4.74795">
        <ele>194</ele>
        <time>2016-08-25T08:31:55Z</time>
      </trkpt>
      <trkpt lat="45.95143" lon="4.74801">
        <ele>194</ele>
        <time>2016-08-25T08:31:56Z</time>
      </trkpt>
      <trkpt lat="45.95147" lon="4.74807">
        <ele>194</ele>
        <time>2016-08-25T08:31:57Z</time>
      </trkpt>
      <trkpt lat="45.9515" lon="4.74813">
        <ele>194</ele>
        <time>2016-08-25T08:31:58Z</time>
      </trkpt>
      <trkpt lat="45.95154" lon="4.74819">
        <ele>194</ele>
        <time>2016-08-25T08:31:59Z</time>
      </trkpt>
      <trkpt lat="45.95157" lon="4.74825">
        <ele>194</ele>
        <time>2016-08-25T08:32:00Z</time>
      </trkpt>
      <trkpt lat="45.95161" lon="4.74831">
        <ele>194</ele>
        <time>2016-08-25T08:32:01Z</time>
      </trkpt>
      <trkpt lat="45.95165" lon="4.74837">
        <ele>194</ele>
        <time>2016-08-25T08:32:02Z</time>
      </trkpt>
      <trkpt lat="45.95168" lon="4.74842">
        <ele>194</ele>
        <time>2016-08-25T08:32:03Z</time>
      </trkpt>
      <trkpt lat="45.95172" lon="4.74848">
        <ele>194</ele>
        <time>2016-08-25T08:32:04Z</time>
      </trkpt>
      <trkpt lat="45.95175" lon="4.74853">
        <ele>194</ele>
        <time>2016-08-25T08:32:05Z</time>
      </trkpt>
      <trkpt lat="45.95178" lon="4.74858">
        <ele>194</ele>
        <time>2016-08-25T08:32:06Z</time>
      </trkpt>
      <trkpt lat="45.95181" lon="4.74863">
        <ele>194</ele>
        <time>2016-08-25T08:32:07Z</time>
      </trkpt>
      <trkpt lat="45.95184" lon="4.74869">
        <ele>194</ele>
        <time>2016-08-25T08:32:08Z</time>
      </trkpt>
      <trkpt lat="45.95188" lon="4.74874">
        <ele>194</ele>
        <time>2016-08-25T08:32:09Z</time>
      </trkpt>
      <trkpt lat="45.95191" lon="4.74881">
        <ele>194</ele>
        <time>2016-08-25T08:32:10Z</time>
      </trkpt>
      <trkpt lat="45.95195" lon="4.74887">
        <ele>194</ele>
        <time>2016-08-25T08:32:11Z</time>
      </trkpt>
      <trkpt lat="45.95199" lon="4.74893">
        <ele>194</ele>
        <time>2016-08-25T08:32:12Z</time>
      </trkpt>
      <trkpt lat="45.95203" lon="4.74899">
        <ele>194</ele>
        <time>2016-08-25T08:32:13Z</time>
      </trkpt>
      <trkpt lat="45.95207" lon="4.74906">
        <ele>194</ele>
        <time>2016-08-25T08:32:14Z</time>
      </trkpt>
      <trkpt lat="45.95211" lon="4.74912">
        <ele>193</ele>
        <time>2016-08-25T08:32:15Z</time>
      </trkpt>
      <trkpt lat="45.95215" lon="4.74918">
        <ele>192</ele>
        <time>2016-08-25T08:32:16Z</time>
      </trkpt>
      <trkpt lat="45.95218" lon="4.74924">
        <ele>192</ele>
        <time>2016-08-25T08:32:17Z</time>
      </trkpt>
      <trkpt lat="45.95223" lon="4.7493">
        <ele>192</ele>
        <time>2016-08-25T08:32:18Z</time>
      </trkpt>
      <trkpt lat="45.95227" lon="4.74936">
        <ele>192</ele>
        <time>2016-08-25T08:32:19Z</time>
      </trkpt>
      <trkpt lat="45.95231" lon="4.74941">
        <ele>192</ele>
        <time>2016-08-25T08:32:20Z</time>
      </trkpt>
      <trkpt lat="45.95235" lon="4.74948">
        <ele>192</ele>
        <time>2016-08-25T08:32:21Z</time>
      </trkpt>
      <trkpt lat="45.95239" lon="4.74954">
        <ele>192</ele>
        <time>2016-08-25T08:32:22Z</time>
      </trkpt>
      <trkpt lat="45.95243" lon="4.74961">
        <ele>191</ele>
        <time>2016-08-25T08:32:23Z</time>
      </trkpt>
      <trkpt lat="45.95248" lon="4.74968">
        <ele>191</ele>
        <time>2016-08-25T08:32:24Z</time>
      </trkpt>
      <trkpt lat="45.95252" lon="4.74975">
        <ele>192</ele>
        <time>2016-08-25T08:32:25Z</time>
      </trkpt>
      <trkpt lat="45.95256" lon="4.74982">
        <ele>192</ele>
        <time>2016-08-25T08:32:26Z</time>
      </trkpt>
      <trkpt lat="45.95261" lon="4.7499">
        <ele>192</ele>
        <time>2016-08-25T08:32:27Z</time>
      </trkpt>
      <trkpt lat="45.95265" lon="4.74997">
        <ele>192</ele>
        <time>2016-08-25T08:32:28Z</time>
      </trkpt>
      <trkpt lat="45.95269" lon="4.75004">
        <ele>191</ele>
        <time>2016-08-25T08:32:29Z</time>
      </trkpt>
      <trkpt lat="45.95274" lon="4.7501">
        <ele>191</ele>
        <time>2016-08-25T08:32:30Z</time>
      </trkpt>
      <trkpt lat="45.95278" lon="4.75016">
        <ele>191</ele>
        <time>2016-08-25T08:32:31Z</time>
      </trkpt>
      <trkpt lat="45.95282" lon="4.75022">
        <ele>191</ele>
        <time>2016-08-25T08:32:32Z</time>
      </trkpt>
      <trkpt lat="45.95286" lon="4.75028">
        <ele>191</ele>
        <time>2016-08-25T08:32:33Z</time>
      </trkpt>
      <trkpt lat="45.9529" lon="4.75035">
        <ele>191</ele>
        <time>2016-08-25T08:32:34Z</time>
      </trkpt>
      <trkpt lat="45.95294" lon="4.75041">
        <ele>191</ele>
        <time>2016-08-25T08:32:35Z</time>
      </trkpt>
      <trkpt lat="45.95298" lon="4.75047">
        <ele>191</ele>
        <time>2016-08-25T08:32:36Z</time>
      </trkpt>
      <trkpt lat="45.95302" lon="4.75054">
        <ele>191</ele>
        <time>2016-08-25T08:32:37Z</time>
      </trkpt>
      <trkpt lat="45.95306" lon="4.7506">
        <ele>192</ele>
        <time>2016-08-25T08:32:38Z</time>
      </trkpt>
      <trkpt lat="45.95311" lon="4.75067">
        <ele>192</ele>
        <time>2016-08-25T08:32:39Z</time>
      </trkpt>
      <trkpt lat="45.95315" lon="4.75074">
        <ele>192</ele>
        <time>2016-08-25T08:32:40Z</time>
      </trkpt>
      <trkpt lat="45.9532" lon="4.75081">
        <ele>192</ele>
        <time>2016-08-25T08:32:41Z</time>
      </trkpt>
      <trkpt lat="45.95324" lon="4.75088">
        <ele>191</ele>
        <time>2016-08-25T08:32:42Z</time>
      </trkpt>
      <trkpt lat="45.95328" lon="4.75095">
        <ele>191</ele>
        <time>2016-08-25T08:32:43Z</time>
      </trkpt>
      <trkpt lat="45.95332" lon="4.75101">
        <ele>190</ele>
        <time>2016-08-25T08:32:44Z</time>
      </trkpt>
      <trkpt lat="45.95336" lon="4.75108">
        <ele>192</ele>
        <time>2016-08-25T08:32:45Z</time>
      </trkpt>
      <trkpt lat="45.9534" lon="4.75114">
        <ele>192</ele>
        <time>2016-08-25T08:32:46Z</time>
      </trkpt>
      <trkpt lat="45.95344" lon="4.7512">
        <ele>191</ele>
        <time>2016-08-25T08:32:47Z</time>
      </trkpt>
      <trkpt lat="45.95348" lon="4.75127">
        <ele>191</ele>
        <time>2016-08-25T08:32:48Z</time>
      </trkpt>
      <trkpt lat="45.95352" lon="4.75134">
        <ele>191</ele>
        <time>2016-08-25T08:32:49Z</time>
      </trkpt>
      <trkpt lat="45.95357" lon="4.75141">
        <ele>191</ele>
        <time>2016-08-25T08:32:50Z</time>
      </trkpt>
      <trkpt lat="45.95361" lon="4.75147">
        <ele>191</ele>
        <time>2016-08-25T08:32:51Z</time>
      </trkpt>
      <trkpt lat="45.95366" lon="4.75154">
        <ele>191</ele>
        <time>2016-08-25T08:32:52Z</time>
      </trkpt>
      <trkpt lat="45.9537" lon="4.75161">
        <ele>191</ele>
        <time>2016-08-25T08:32:53Z</time>
      </trkpt>
      <trkpt lat="45.95374" lon="4.75167">
        <ele>189</ele>
        <time>2016-08-25T08:32:54Z</time>
      </trkpt>
      <trkpt lat="45.95378" lon="4.75174">
        <ele>189</ele>
        <time>2016-08-25T08:32:55Z</time>
      </trkpt>
      <trkpt lat="45.95383" lon="4.75182">
        <ele>189</ele>
        <time>2016-08-25T08:32:56Z</time>
      </trkpt>
      <trkpt lat="45.95387" lon="4.75189">
        <ele>189</ele>
        <time>2016-08-25T08:32:57Z</time>
      </trkpt>
      <trkpt lat="45.95391" lon="4.75196">
        <ele>189</ele>
        <time>2016-08-25T08:32:58Z</time>
      </trkpt>
      <trkpt lat="45.95395" lon="4.75203">
        <ele>189</ele>
        <time>2016-08-25T08:32:59Z</time>
      </trkpt>
      <trkpt lat="45.95399" lon="4.7521">
        <ele>189</ele>
        <time>2016-08-25T08:33:00Z</time>
      </trkpt>
      <trkpt lat="45.95403" lon="4.75217">
        <ele>188</ele>
        <time>2016-08-25T08:33:01Z</time>
      </trkpt>
      <trkpt lat="45.95407" lon="4.75224">
        <ele>188</ele>
        <time>2016-08-25T08:33:02Z</time>
      </trkpt>
      <trkpt lat="45.95411" lon="4.75231">
        <ele>189</ele>
        <time>2016-08-25T08:33:03Z</time>
      </trkpt>
      <trkpt lat="45.95415" lon="4.75238">
        <ele>189</ele>
        <time>2016-08-25T08:33:04Z</time>
      </trkpt>
      <trkpt lat="45.95419" lon="4.75246">
        <ele>190</ele>
        <time>2016-08-25T08:33:05Z</time>
      </trkpt>
      <trkpt lat="45.95423" lon="4.75252">
        <ele>189</ele>
        <time>2016-08-25T08:33:06Z</time>
      </trkpt>
      <trkpt lat="45.95427" lon="4.7526">
        <ele>189</ele>
        <time>2016-08-25T08:33:07Z</time>
      </trkpt>
      <trkpt lat="45.95431" lon="4.75267">
        <ele>189</ele>
        <time>2016-08-25T08:33:08Z</time>
      </trkpt>
      <trkpt lat="45.95434" lon="4.75274">
        <ele>188</ele>
        <time>2016-08-25T08:33:09Z</time>
      </trkpt>
      <trkpt lat="45.95438" lon="4.75281">
        <ele>188</ele>
        <time>2016-08-25T08:33:10Z</time>
      </trkpt>
      <trkpt lat="45.95442" lon="4.75288">
        <ele>188</ele>
        <time>2016-08-25T08:33:11Z</time>
      </trkpt>
      <trkpt lat="45.95446" lon="4.75294">
        <ele>188</ele>
        <time>2016-08-25T08:33:12Z</time>
      </trkpt>
      <trkpt lat="45.95449" lon="4.75302">
        <ele>188</ele>
        <time>2016-08-25T08:33:13Z</time>
      </trkpt>
      <trkpt lat="45.95453" lon="4.75308">
        <ele>188</ele>
        <time>2016-08-25T08:33:14Z</time>
      </trkpt>
      <trkpt lat="45.95457" lon="4.75315">
        <ele>188</ele>
        <time>2016-08-25T08:33:15Z</time>
      </trkpt>
      <trkpt lat="45.95461" lon="4.75322">
        <ele>188</ele>
        <time>2016-08-25T08:33:16Z</time>
      </trkpt>
      <trkpt lat="45.95465" lon="4.75329">
        <ele>188</ele>
        <time>2016-08-25T08:33:17Z</time>
      </trkpt>
      <trkpt lat="45.95469" lon="4.75336">
        <ele>186</ele>
        <time>2016-08-25T08:33:18Z</time>
      </trkpt>
      <trkpt lat="45.95473" lon="4.75343">
        <ele>186</ele>
        <time>2016-08-25T08:33:19Z</time>
      </trkpt>
      <trkpt lat="45.95476" lon="4.7535">
        <ele>186</ele>
        <time>2016-08-25T08:33:20Z</time>
      </trkpt>
      <trkpt lat="45.9548" lon="4.75358">
        <ele>186</ele>
        <time>2016-08-25T08:33:21Z</time>
      </trkpt>
      <trkpt lat="45.95485" lon="4.75366">
        <ele>186</ele>
        <time>2016-08-25T08:33:22Z</time>
      </trkpt>
      <trkpt lat="45.95489" lon="4.75374">
        <ele>185</ele>
        <time>2016-08-25T08:33:23Z</time>
      </trkpt>
      <trkpt lat="45.95492" lon="4.75382">
        <ele>185</ele>
        <time>2016-08-25T08:33:24Z</time>
      </trkpt>
      <trkpt lat="45.95495" lon="4.75391">
        <ele>185</ele>
        <time>2016-08-25T08:33:25Z</time>
      </trkpt>
      <trkpt lat="45.95498" lon="4.75399">
        <ele>185</ele>
        <time>2016-08-25T08:33:26Z</time>
      </trkpt>
      <trkpt lat="45.955" lon="4.75408">
        <ele>186</ele>
        <time>2016-08-25T08:33:27Z</time>
      </trkpt>
      <trkpt lat="45.95503" lon="4.75418">
        <ele>185</ele>
        <time>2016-08-25T08:33:28Z</time>
      </trkpt>
      <trkpt lat="45.95504" lon="4.75428">
        <ele>186</ele>
        <time>2016-08-25T08:33:29Z</time>
      </trkpt>
      <trkpt lat="45.95506" lon="4.75437">
        <ele>186</ele>
        <time>2016-08-25T08:33:30Z</time>
      </trkpt>
      <trkpt lat="45.95507" lon="4.75448">
        <ele>186</ele>
        <time>2016-08-25T08:33:31Z</time>
      </trkpt>
      <trkpt lat="45.95507" lon="4.75458">
        <ele>186</ele>
        <time>2016-08-25T08:33:32Z</time>
      </trkpt>
      <trkpt lat="45.95507" lon="4.75468">
        <ele>186</ele>
        <time>2016-08-25T08:33:33Z</time>
      </trkpt>
      <trkpt lat="45.95507" lon="4.75478">
        <ele>186</ele>
        <time>2016-08-25T08:33:34Z</time>
      </trkpt>
      <trkpt lat="45.95509" lon="4.75486">
        <ele>186</ele>
        <time>2016-08-25T08:33:35Z</time>
      </trkpt>
      <trkpt lat="45.95514" lon="4.75493">
        <ele>186</ele>
        <time>2016-08-25T08:33:36Z</time>
      </trkpt>
      <trkpt lat="45.95519" lon="4.75499">
        <ele>186</ele>
        <time>2016-08-25T08:33:37Z</time>
      </trkpt>
      <trkpt lat="45.95524" lon="4.75503">
        <ele>185</ele>
        <time>2016-08-25T08:33:38Z</time>
      </trkpt>
      <trkpt lat="45.9553" lon="4.75507">
        <ele>185</ele>
        <time>2016-08-25T08:33:39Z</time>
      </trkpt>
      <trkpt lat="45.95536" lon="4.75512">
        <ele>186</ele>
        <time>2016-08-25T08:33:40Z</time>
      </trkpt>
      <trkpt lat="45.95541" lon="4.75518">
        <ele>186</ele>
        <time>2016-08-25T08:33:41Z</time>
      </trkpt>
      <trkpt lat="45.95547" lon="4.75524">
        <ele>186</ele>
        <time>2016-08-25T08:33:42Z</time>
      </trkpt>
      <trkpt lat="45.95552" lon="4.75529">
        <ele>186</ele>
        <time>2016-08-25T08:33:43Z</time>
      </trkpt>
      <trkpt lat="45.95558" lon="4.75535">
        <ele>186</ele>
        <time>2016-08-25T08:33:44Z</time>
      </trkpt>
      <trkpt lat="45.95563" lon="4.7554">
        <ele>186</ele>
        <time>2016-08-25T08:33:45Z</time>
      </trkpt>
      <trkpt lat="45.95568" lon="4.75545">
        <ele>186</ele>
        <time>2016-08-25T08:33:46Z</time>
      </trkpt>
      <trkpt lat="45.95572" lon="4.7555">
        <ele>186</ele>
        <time>2016-08-25T08:33:47Z</time>
      </trkpt>
      <trkpt lat="45.95577" lon="4.75556">
        <ele>186</ele>
        <time>2016-08-25T08:33:48Z</time>
      </trkpt>
      <trkpt lat="45.95581" lon="4.75562">
        <ele>186</ele>
        <time>2016-08-25T08:33:49Z</time>
      </trkpt>
      <trkpt lat="45.95584" lon="4.75568">
        <ele>188</ele>
        <time>2016-08-25T08:33:50Z</time>
      </trkpt>
      <trkpt lat="45.95588" lon="4.75574">
        <ele>187</ele>
        <time>2016-08-25T08:33:51Z</time>
      </trkpt>
      <trkpt lat="45.95592" lon="4.75581">
        <ele>187</ele>
        <time>2016-08-25T08:33:52Z</time>
      </trkpt>
      <trkpt lat="45.95594" lon="4.75588">
        <ele>187</ele>
        <time>2016-08-25T08:33:53Z</time>
      </trkpt>
      <trkpt lat="45.95597" lon="4.75596">
        <ele>187</ele>
        <time>2016-08-25T08:33:54Z</time>
      </trkpt>
      <trkpt lat="45.95601" lon="4.75603">
        <ele>187</ele>
        <time>2016-08-25T08:33:55Z</time>
      </trkpt>
      <trkpt lat="45.95604" lon="4.75611">
        <ele>187</ele>
        <time>2016-08-25T08:33:56Z</time>
      </trkpt>
      <trkpt lat="45.95607" lon="4.75619">
        <ele>188</ele>
        <time>2016-08-25T08:33:57Z</time>
      </trkpt>
      <trkpt lat="45.9561" lon="4.75627">
        <ele>188</ele>
        <time>2016-08-25T08:33:58Z</time>
      </trkpt>
      <trkpt lat="45.95612" lon="4.75634">
        <ele>188</ele>
        <time>2016-08-25T08:33:59Z</time>
      </trkpt>
      <trkpt lat="45.95614" lon="4.75642">
        <ele>188</ele>
        <time>2016-08-25T08:34:00Z</time>
      </trkpt>
      <trkpt lat="45.95616" lon="4.7565">
        <ele>188</ele>
        <time>2016-08-25T08:34:01Z</time>
      </trkpt>
      <trkpt lat="45.95617" lon="4.75658">
        <ele>188</ele>
        <time>2016-08-25T08:34:02Z</time>
      </trkpt>
      <trkpt lat="45.95618" lon="4.75666">
        <ele>188</ele>
        <time>2016-08-25T08:34:03Z</time>
      </trkpt>
      <trkpt lat="45.9562" lon="4.75674">
        <ele>187</ele>
        <time>2016-08-25T08:34:04Z</time>
      </trkpt>
      <trkpt lat="45.95621" lon="4.75682">
        <ele>187</ele>
        <time>2016-08-25T08:34:05Z</time>
      </trkpt>
      <trkpt lat="45.95622" lon="4.7569">
        <ele>187</ele>
        <time>2016-08-25T08:34:06Z</time>
      </trkpt>
      <trkpt lat="45.95624" lon="4.75698">
        <ele>187</ele>
        <time>2016-08-25T08:34:07Z</time>
      </trkpt>
      <trkpt lat="45.95625" lon="4.75706">
        <ele>187</ele>
        <time>2016-08-25T08:34:08Z</time>
      </trkpt>
      <trkpt lat="45.95626" lon="4.75715">
        <ele>187</ele>
        <time>2016-08-25T08:34:09Z</time>
      </trkpt>
      <trkpt lat="45.95627" lon="4.75724">
        <ele>187</ele>
        <time>2016-08-25T08:34:10Z</time>
      </trkpt>
      <trkpt lat="45.95628" lon="4.75733">
        <ele>187</ele>
        <time>2016-08-25T08:34:11Z</time>
      </trkpt>
      <trkpt lat="45.9563" lon="4.75741">
        <ele>187</ele>
        <time>2016-08-25T08:34:12Z</time>
      </trkpt>
      <trkpt lat="45.95631" lon="4.7575">
        <ele>187</ele>
        <time>2016-08-25T08:34:13Z</time>
      </trkpt>
      <trkpt lat="45.95632" lon="4.75758">
        <ele>186</ele>
        <time>2016-08-25T08:34:14Z</time>
      </trkpt>
      <trkpt lat="45.95633" lon="4.75766">
        <ele>186</ele>
        <time>2016-08-25T08:34:15Z</time>
      </trkpt>
      <trkpt lat="45.95634" lon="4.75774">
        <ele>185</ele>
        <time>2016-08-25T08:34:16Z</time>
      </trkpt>
      <trkpt lat="45.95636" lon="4.75782">
        <ele>185</ele>
        <time>2016-08-25T08:34:17Z</time>
      </trkpt>
      <trkpt lat="45.95637" lon="4.7579">
        <ele>185</ele>
        <time>2016-08-25T08:34:18Z</time>
      </trkpt>
      <trkpt lat="45.95638" lon="4.75799">
        <ele>185</ele>
        <time>2016-08-25T08:34:19Z</time>
      </trkpt>
      <trkpt lat="45.9564" lon="4.75807">
        <ele>185</ele>
        <time>2016-08-25T08:34:20Z</time>
      </trkpt>
      <trkpt lat="45.95642" lon="4.75816">
        <ele>185</ele>
        <time>2016-08-25T08:34:21Z</time>
      </trkpt>
      <trkpt lat="45.95643" lon="4.75825">
        <ele>185</ele>
        <time>2016-08-25T08:34:22Z</time>
      </trkpt>
      <trkpt lat="45.95646" lon="4.75834">
        <ele>185</ele>
        <time>2016-08-25T08:34:23Z</time>
      </trkpt>
      <trkpt lat="45.95648" lon="4.75844">
        <ele>184</ele>
        <time>2016-08-25T08:34:24Z</time>
      </trkpt>
      <trkpt lat="45.9565" lon="4.75852">
        <ele>184</ele>
        <time>2016-08-25T08:34:25Z</time>
      </trkpt>
      <trkpt lat="45.95652" lon="4.75861">
        <ele>184</ele>
        <time>2016-08-25T08:34:26Z</time>
      </trkpt>
      <trkpt lat="45.95654" lon="4.75869">
        <ele>184</ele>
        <time>2016-08-25T08:34:27Z</time>
      </trkpt>
      <trkpt lat="45.95656" lon="4.75877">
        <ele>184</ele>
        <time>2016-08-25T08:34:28Z</time>
      </trkpt>
      <trkpt lat="45.95658" lon="4.75885">
        <ele>184</ele>
        <time>2016-08-25T08:34:29Z</time>
      </trkpt>
      <trkpt lat="45.95661" lon="4.75892">
        <ele>184</ele>
        <time>2016-08-25T08:34:30Z</time>
      </trkpt>
      <trkpt lat="45.95663" lon="4.759">
        <ele>184</ele>
        <time>2016-08-25T08:34:31Z</time>
      </trkpt>
      <trkpt lat="45.95666" lon="4.75907">
        <ele>184</ele>
        <time>2016-08-25T08:34:32Z</time>
      </trkpt>
      <trkpt lat="45.95669" lon="4.75915">
        <ele>184</ele>
        <time>2016-08-25T08:34:33Z</time>
      </trkpt>
      <trkpt lat="45.95672" lon="4.75923">
        <ele>184</ele>
        <time>2016-08-25T08:34:34Z</time>
      </trkpt>
      <trkpt lat="45.95676" lon="4.75931">
        <ele>185</ele>
        <time>2016-08-25T08:34:35Z</time>
      </trkpt>
      <trkpt lat="45.9568" lon="4.75939">
        <ele>185</ele>
        <time>2016-08-25T08:34:36Z</time>
      </trkpt>
      <trkpt lat="45.95683" lon="4.75947">
        <ele>185</ele>
        <time>2016-08-25T08:34:37Z</time>
      </trkpt>
      <trkpt lat="45.95687" lon="4.75955">
        <ele>185</ele>
        <time>2016-08-25T08:34:38Z</time>
      </trkpt>
      <trkpt lat="45.95691" lon="4.75963">
        <ele>185</ele>
        <time>2016-08-25T08:34:39Z</time>
      </trkpt>
      <trkpt lat="45.95694" lon="4.75971">
        <ele>185</ele>
        <time>2016-08-25T08:34:40Z</time>
      </trkpt>
      <trkpt lat="45.95698" lon="4.75979">
        <ele>185</ele>
        <time>2016-08-25T08:34:41Z</time>
      </trkpt>
      <trkpt lat="45.95702" lon="4.75987">
        <ele>185</ele>
        <time>2016-08-25T08:34:42Z</time>
      </trkpt>
      <trkpt lat="45.95706" lon="4.75995">
        <ele>185</ele>
        <time>2016-08-25T08:34:43Z</time>
      </trkpt>
      <trkpt lat="45.95709" lon="4.76003">
        <ele>184</ele>
        <time>2016-08-25T08:34:44Z</time>
      </trkpt>
      <trkpt lat="45.95713" lon="4.7601">
        <ele>184</ele>
        <time>2016-08-25T08:34:45Z</time>
      </trkpt>
      <trkpt lat="45.95716" lon="4.76018">
        <ele>184</ele>
        <time>2016-08-25T08:34:46Z</time>
      </trkpt>
      <trkpt lat="45.9572" lon="4.76025">
        <ele>184</ele>
        <time>2016-08-25T08:34:47Z</time>
      </trkpt>
      <trkpt lat="45.95724" lon="4.76033">
        <ele>184</ele>
        <time>2016-08-25T08:34:48Z</time>
      </trkpt>
      <trkpt lat="45.95727" lon="4.7604">
        <ele>184</ele>
        <time>2016-08-25T08:34:49Z</time>
      </trkpt>
      <trkpt lat="45.95731" lon="4.76047">
        <ele>184</ele>
        <time>2016-08-25T08:34:50Z</time>
      </trkpt>
      <trkpt lat="45.95734" lon="4.76054">
        <ele>184</ele>
        <time>2016-08-25T08:34:51Z</time>
      </trkpt>
      <trkpt lat="45.95737" lon="4.76061">
        <ele>184</ele>
        <time>2016-08-25T08:34:52Z</time>
      </trkpt>
      <trkpt lat="45.9574" lon="4.76068">
        <ele>185</ele>
        <time>2016-08-25T08:34:53Z</time>
      </trkpt>
      <trkpt lat="45.95743" lon="4.76075">
        <ele>185</ele>
        <time>2016-08-25T08:34:54Z</time>
      </trkpt>
      <trkpt lat="45.95745" lon="4.76081">
        <ele>185</ele>
        <time>2016-08-25T08:34:55Z</time>
      </trkpt>
      <trkpt lat="45.95748" lon="4.76088">
        <ele>185</ele>
        <time>2016-08-25T08:34:56Z</time>
      </trkpt>
      <trkpt lat="45.9575" lon="4.76094">
        <ele>186</ele>
        <time>2016-08-25T08:34:57Z</time>
      </trkpt>
      <trkpt lat="45.95753" lon="4.76101">
        <ele>186</ele>
        <time>2016-08-25T08:34:58Z</time>
      </trkpt>
      <trkpt lat="45.95755" lon="4.76109">
        <ele>186</ele>
        <time>2016-08-25T08:34:59Z</time>
      </trkpt>
      <trkpt lat="45.95756" lon="4.76117">
        <ele>186</ele>
        <time>2016-08-25T08:35:00Z</time>
      </trkpt>
      <trkpt lat="45.95758" lon="4.76125">
        <ele>186</ele>
        <time>2016-08-25T08:35:01Z</time>
      </trkpt>
      <trkpt lat="45.95759" lon="4.76134">
        <ele>186</ele>
        <time>2016-08-25T08:35:02Z</time>
      </trkpt>
      <trkpt lat="45.9576" lon="4.76141">
        <ele>186</ele>
        <time>2016-08-25T08:35:03Z</time>
      </trkpt>
      <trkpt lat="45.9576" lon="4.76149">
        <ele>186</ele>
        <time>2016-08-25T08:35:04Z</time>
      </trkpt>
      <trkpt lat="45.9576" lon="4.76156">
        <ele>186</ele>
        <time>2016-08-25T08:35:05Z</time>
      </trkpt>
      <trkpt lat="45.95761" lon="4.76164">
        <ele>186</ele>
        <time>2016-08-25T08:35:06Z</time>
      </trkpt>
      <trkpt lat="45.95761" lon="4.76171">
        <ele>185</ele>
        <time>2016-08-25T08:35:07Z</time>
      </trkpt>
      <trkpt lat="45.95762" lon="4.76177">
        <ele>185</ele>
        <time>2016-08-25T08:35:08Z</time>
      </trkpt>
      <trkpt lat="45.95762" lon="4.76184">
        <ele>186</ele>
        <time>2016-08-25T08:35:09Z</time>
      </trkpt>
      <trkpt lat="45.95762" lon="4.76191">
        <ele>186</ele>
        <time>2016-08-25T08:35:10Z</time>
      </trkpt>
      <trkpt lat="45.95762" lon="4.76199">
        <ele>186</ele>
        <time>2016-08-25T08:35:11Z</time>
      </trkpt>
      <trkpt lat="45.95763" lon="4.76207">
        <ele>186</ele>
        <time>2016-08-25T08:35:12Z</time>
      </trkpt>
      <trkpt lat="45.95763" lon="4.76215">
        <ele>186</ele>
        <time>2016-08-25T08:35:13Z</time>
      </trkpt>
      <trkpt lat="45.95764" lon="4.76223">
        <ele>186</ele>
        <time>2016-08-25T08:35:14Z</time>
      </trkpt>
      <trkpt lat="45.95764" lon="4.76232">
        <ele>186</ele>
        <time>2016-08-25T08:35:15Z</time>
      </trkpt>
      <trkpt lat="45.95765" lon="4.76241">
        <ele>186</ele>
        <time>2016-08-25T08:35:16Z</time>
      </trkpt>
      <trkpt lat="45.95765" lon="4.7625">
        <ele>185</ele>
        <time>2016-08-25T08:35:17Z</time>
      </trkpt>
      <trkpt lat="45.95766" lon="4.76259">
        <ele>185</ele>
        <time>2016-08-25T08:35:18Z</time>
      </trkpt>
      <trkpt lat="45.95766" lon="4.76267">
        <ele>185</ele>
        <time>2016-08-25T08:35:19Z</time>
      </trkpt>
      <trkpt lat="45.95767" lon="4.76275">
        <ele>186</ele>
        <time>2016-08-25T08:35:20Z</time>
      </trkpt>
      <trkpt lat="45.95768" lon="4.76283">
        <ele>186</ele>
        <time>2016-08-25T08:35:21Z</time>
      </trkpt>
      <trkpt lat="45.95768" lon="4.76291">
        <ele>186</ele>
        <time>2016-08-25T08:35:22Z</time>
      </trkpt>
      <trkpt lat="45.95769" lon="4.76299">
        <ele>186</ele>
        <time>2016-08-25T08:35:23Z</time>
      </trkpt>
      <trkpt lat="45.95769" lon="4.76306">
        <ele>186</ele>
        <time>2016-08-25T08:35:24Z</time>
      </trkpt>
      <trkpt lat="45.95769" lon="4.76314">
        <ele>185</ele>
        <time>2016-08-25T08:35:25Z</time>
      </trkpt>
      <trkpt lat="45.9577" lon="4.76321">
        <ele>185</ele>
        <time>2016-08-25T08:35:26Z</time>
      </trkpt>
      <trkpt lat="45.9577" lon="4.76329">
        <ele>185</ele>
        <time>2016-08-25T08:35:27Z</time>
      </trkpt>
      <trkpt lat="45.9577" lon="4.76337">
        <ele>186</ele>
        <time>2016-08-25T08:35:28Z</time>
      </trkpt>
      <trkpt lat="45.9577" lon="4.76344">
        <ele>186</ele>
        <time>2016-08-25T08:35:29Z</time>
      </trkpt>
      <trkpt lat="45.95771" lon="4.76352">
        <ele>186</ele>
        <time>2016-08-25T08:35:30Z</time>
      </trkpt>
      <trkpt lat="45.95772" lon="4.7636">
        <ele>186</ele>
        <time>2016-08-25T08:35:31Z</time>
      </trkpt>
      <trkpt lat="45.95773" lon="4.76368">
        <ele>186</ele>
        <time>2016-08-25T08:35:32Z</time>
      </trkpt>
      <trkpt lat="45.95773" lon="4.76376">
        <ele>186</ele>
        <time>2016-08-25T08:35:33Z</time>
      </trkpt>
      <trkpt lat="45.95773" lon="4.76384">
        <ele>186</ele>
        <time>2016-08-25T08:35:34Z</time>
      </trkpt>
      <trkpt lat="45.95773" lon="4.76392">
        <ele>186</ele>
        <time>2016-08-25T08:35:35Z</time>
      </trkpt>
      <trkpt lat="45.95774" lon="4.76399">
        <ele>186</ele>
        <time>2016-08-25T08:35:36Z</time>
      </trkpt>
      <trkpt lat="45.95775" lon="4.76407">
        <ele>186</ele>
        <time>2016-08-25T08:35:37Z</time>
      </trkpt>
      <trkpt lat="45.95775" lon="4.76415">
        <ele>186</ele>
        <time>2016-08-25T08:35:38Z</time>
      </trkpt>
      <trkpt lat="45.95776" lon="4.76422">
        <ele>186</ele>
        <time>2016-08-25T08:35:39Z</time>
      </trkpt>
      <trkpt lat="45.95776" lon="4.7643">
        <ele>186</ele>
        <time>2016-08-25T08:35:40Z</time>
      </trkpt>
      <trkpt lat="45.95777" lon="4.76437">
        <ele>186</ele>
        <time>2016-08-25T08:35:41Z</time>
      </trkpt>
      <trkpt lat="45.95778" lon="4.76445">
        <ele>186</ele>
        <time>2016-08-25T08:35:42Z</time>
      </trkpt>
      <trkpt lat="45.95779" lon="4.76452">
        <ele>186</ele>
        <time>2016-08-25T08:35:43Z</time>
      </trkpt>
      <trkpt lat="45.9578" lon="4.7646">
        <ele>186</ele>
        <time>2016-08-25T08:35:44Z</time>
      </trkpt>
      <trkpt lat="45.95781" lon="4.76468">
        <ele>186</ele>
        <time>2016-08-25T08:35:45Z</time>
      </trkpt>
      <trkpt lat="45.95782" lon="4.76476">
        <ele>186</ele>
        <time>2016-08-25T08:35:46Z</time>
      </trkpt>
      <trkpt lat="45.95784" lon="4.76484">
        <ele>186</ele>
        <time>2016-08-25T08:35:47Z</time>
      </trkpt>
      <trkpt lat="45.95785" lon="4.76493">
        <ele>186</ele>
        <time>2016-08-25T08:35:48Z</time>
      </trkpt>
      <trkpt lat="45.95786" lon="4.76501">
        <ele>187</ele>
        <time>2016-08-25T08:35:49Z</time>
      </trkpt>
      <trkpt lat="45.95788" lon="4.7651">
        <ele>187</ele>
        <time>2016-08-25T08:35:50Z</time>
      </trkpt>
      <trkpt lat="45.95789" lon="4.76518">
        <ele>187</ele>
        <time>2016-08-25T08:35:51Z</time>
      </trkpt>
      <trkpt lat="45.9579" lon="4.76526">
        <ele>187</ele>
        <time>2016-08-25T08:35:52Z</time>
      </trkpt>
      <trkpt lat="45.95791" lon="4.76534">
        <ele>187</ele>
        <time>2016-08-25T08:35:53Z</time>
      </trkpt>
      <trkpt lat="45.95792" lon="4.76541">
        <ele>187</ele>
        <time>2016-08-25T08:35:54Z</time>
      </trkpt>
      <trkpt lat="45.95793" lon="4.76548">
        <ele>187</ele>
        <time>2016-08-25T08:35:55Z</time>
      </trkpt>
      <trkpt lat="45.95794" lon="4.76556">
        <ele>187</ele>
        <time>2016-08-25T08:35:56Z</time>
      </trkpt>
      <trkpt lat="45.95795" lon="4.76564">
        <ele>187</ele>
        <time>2016-08-25T08:35:57Z</time>
      </trkpt>
      <trkpt lat="45.95796" lon="4.76571">
        <ele>187</ele>
        <time>2016-08-25T08:35:58Z</time>
      </trkpt>
      <trkpt lat="45.95797" lon="4.76579">
        <ele>187</ele>
        <time>2016-08-25T08:35:59Z</time>
      </trkpt>
      <trkpt lat="45.95799" lon="4.76587">
        <ele>187</ele>
        <time>2016-08-25T08:36:00Z</time>
      </trkpt>
      <trkpt lat="45.95799" lon="4.76594">
        <ele>187</ele>
        <time>2016-08-25T08:36:01Z</time>
      </trkpt>
      <trkpt lat="45.958" lon="4.76601">
        <ele>187</ele>
        <time>2016-08-25T08:36:02Z</time>
      </trkpt>
      <trkpt lat="45.95802" lon="4.76608">
        <ele>188</ele>
        <time>2016-08-25T08:36:03Z</time>
      </trkpt>
      <trkpt lat="45.95803" lon="4.76616">
        <ele>188</ele>
        <time>2016-08-25T08:36:04Z</time>
      </trkpt>
      <trkpt lat="45.95805" lon="4.76623">
        <ele>188</ele>
        <time>2016-08-25T08:36:05Z</time>
      </trkpt>
      <trkpt lat="45.95806" lon="4.7663">
        <ele>188</ele>
        <time>2016-08-25T08:36:06Z</time>
      </trkpt>
      <trkpt lat="45.95807" lon="4.76638">
        <ele>188</ele>
        <time>2016-08-25T08:36:07Z</time>
      </trkpt>
      <trkpt lat="45.95808" lon="4.76647">
        <ele>188</ele>
        <time>2016-08-25T08:36:08Z</time>
      </trkpt>
      <trkpt lat="45.95809" lon="4.76655">
        <ele>188</ele>
        <time>2016-08-25T08:36:09Z</time>
      </trkpt>
      <trkpt lat="45.9581" lon="4.76663">
        <ele>188</ele>
        <time>2016-08-25T08:36:10Z</time>
      </trkpt>
      <trkpt lat="45.95811" lon="4.76672">
        <ele>189</ele>
        <time>2016-08-25T08:36:11Z</time>
      </trkpt>
      <trkpt lat="45.95812" lon="4.76681">
        <ele>189</ele>
        <time>2016-08-25T08:36:12Z</time>
      </trkpt>
      <trkpt lat="45.95813" lon="4.76689">
        <ele>189</ele>
        <time>2016-08-25T08:36:13Z</time>
      </trkpt>
      <trkpt lat="45.95814" lon="4.76696">
        <ele>189</ele>
        <time>2016-08-25T08:36:14Z</time>
      </trkpt>
      <trkpt lat="45.95815" lon="4.76703">
        <ele>189</ele>
        <time>2016-08-25T08:36:15Z</time>
      </trkpt>
      <trkpt lat="45.95816" lon="4.7671">
        <ele>189</ele>
        <time>2016-08-25T08:36:16Z</time>
      </trkpt>
      <trkpt lat="45.95817" lon="4.76718">
        <ele>189</ele>
        <time>2016-08-25T08:36:17Z</time>
      </trkpt>
      <trkpt lat="45.95818" lon="4.76725">
        <ele>190</ele>
        <time>2016-08-25T08:36:18Z</time>
      </trkpt>
      <trkpt lat="45.95818" lon="4.76731">
        <ele>190</ele>
        <time>2016-08-25T08:36:19Z</time>
      </trkpt>
      <trkpt lat="45.95819" lon="4.76739">
        <ele>190</ele>
        <time>2016-08-25T08:36:20Z</time>
      </trkpt>
      <trkpt lat="45.9582" lon="4.76746">
        <ele>190</ele>
        <time>2016-08-25T08:36:21Z</time>
      </trkpt>
      <trkpt lat="45.95821" lon="4.76754">
        <ele>190</ele>
        <time>2016-08-25T08:36:22Z</time>
      </trkpt>
      <trkpt lat="45.95822" lon="4.76761">
        <ele>190</ele>
        <time>2016-08-25T08:36:23Z</time>
      </trkpt>
      <trkpt lat="45.95823" lon="4.76769">
        <ele>190</ele>
        <time>2016-08-25T08:36:24Z</time>
      </trkpt>
      <trkpt lat="45.95824" lon="4.76777">
        <ele>190</ele>
        <time>2016-08-25T08:36:25Z</time>
      </trkpt>
      <trkpt lat="45.95826" lon="4.76786">
        <ele>190</ele>
        <time>2016-08-25T08:36:26Z</time>
      </trkpt>
      <trkpt lat="45.95827" lon="4.76794">
        <ele>190</ele>
        <time>2016-08-25T08:36:27Z</time>
      </trkpt>
      <trkpt lat="45.95827" lon="4.76801">
        <ele>190</ele>
        <time>2016-08-25T08:36:28Z</time>
      </trkpt>
      <trkpt lat="45.95828" lon="4.76808">
        <ele>190</ele>
        <time>2016-08-25T08:36:29Z</time>
      </trkpt>
      <trkpt lat="45.95828" lon="4.76816">
        <ele>190</ele>
        <time>2016-08-25T08:36:30Z</time>
      </trkpt>
      <trkpt lat="45.95827" lon="4.76824">
        <ele>190</ele>
        <time>2016-08-25T08:36:31Z</time>
      </trkpt>
      <trkpt lat="45.95827" lon="4.76832">
        <ele>190</ele>
        <time>2016-08-25T08:36:32Z</time>
      </trkpt>
      <trkpt lat="45.95825" lon="4.7684">
        <ele>190</ele>
        <time>2016-08-25T08:36:33Z</time>
      </trkpt>
      <trkpt lat="45.95824" lon="4.76848">
        <ele>190</ele>
        <time>2016-08-25T08:36:34Z</time>
      </trkpt>
      <trkpt lat="45.95822" lon="4.76856">
        <ele>189</ele>
        <time>2016-08-25T08:36:35Z</time>
      </trkpt>
      <trkpt lat="45.95821" lon="4.76864">
        <ele>189</ele>
        <time>2016-08-25T08:36:36Z</time>
      </trkpt>
      <trkpt lat="45.9582" lon="4.76872">
        <ele>189</ele>
        <time>2016-08-25T08:36:37Z</time>
      </trkpt>
      <trkpt lat="45.95819" lon="4.7688">
        <ele>189</ele>
        <time>2016-08-25T08:36:38Z</time>
      </trkpt>
      <trkpt lat="45.95817" lon="4.76888">
        <ele>189</ele>
        <time>2016-08-25T08:36:39Z</time>
      </trkpt>
      <trkpt lat="45.95816" lon="4.76895">
        <ele>189</ele>
        <time>2016-08-25T08:36:40Z</time>
      </trkpt>
      <trkpt lat="45.95814" lon="4.76903">
        <ele>189</ele>
        <time>2016-08-25T08:36:41Z</time>
      </trkpt>
      <trkpt lat="45.95813" lon="4.7691">
        <ele>189</ele>
        <time>2016-08-25T08:36:42Z</time>
      </trkpt>
      <trkpt lat="45.95811" lon="4.76919">
        <ele>189</ele>
        <time>2016-08-25T08:36:43Z</time>
      </trkpt>
      <trkpt lat="45.95809" lon="4.76927">
        <ele>189</ele>
        <time>2016-08-25T08:36:44Z</time>
      </trkpt>
      <trkpt lat="45.95808" lon="4.76935">
        <ele>189</ele>
        <time>2016-08-25T08:36:45Z</time>
      </trkpt>
      <trkpt lat="45.95806" lon="4.76943">
        <ele>189</ele>
        <time>2016-08-25T08:36:46Z</time>
      </trkpt>
      <trkpt lat="45.95805" lon="4.76951">
        <ele>189</ele>
        <time>2016-08-25T08:36:47Z</time>
      </trkpt>
      <trkpt lat="45.95803" lon="4.76959">
        <ele>189</ele>
        <time>2016-08-25T08:36:48Z</time>
      </trkpt>
      <trkpt lat="45.95802" lon="4.76967">
        <ele>189</ele>
        <time>2016-08-25T08:36:49Z</time>
      </trkpt>
      <trkpt lat="45.95801" lon="4.76975">
        <ele>189</ele>
        <time>2016-08-25T08:36:50Z</time>
      </trkpt>
      <trkpt lat="45.958" lon="4.76983">
        <ele>189</ele>
        <time>2016-08-25T08:36:51Z</time>
      </trkpt>
      <trkpt lat="45.958" lon="4.76991">
        <ele>189</ele>
        <time>2016-08-25T08:36:52Z</time>
      </trkpt>
      <trkpt lat="45.958" lon="4.77">
        <ele>189</ele>
        <time>2016-08-25T08:36:53Z</time>
      </trkpt>
      <trkpt lat="45.95801" lon="4.77008">
        <ele>190</ele>
        <time>2016-08-25T08:36:54Z</time>
      </trkpt>
      <trkpt lat="45.95802" lon="4.77016">
        <ele>190</ele>
        <time>2016-08-25T08:36:55Z</time>
      </trkpt>
      <trkpt lat="45.95804" lon="4.77024">
        <ele>190</ele>
        <time>2016-08-25T08:36:56Z</time>
      </trkpt>
      <trkpt lat="45.95806" lon="4.77032">
        <ele>190</ele>
        <time>2016-08-25T08:36:57Z</time>
      </trkpt>
      <trkpt lat="45.95809" lon="4.7704">
        <ele>190</ele>
        <time>2016-08-25T08:36:58Z</time>
      </trkpt>
      <trkpt lat="45.95812" lon="4.77046">
        <ele>190</ele>
        <time>2016-08-25T08:36:59Z</time>
      </trkpt>
      <trkpt lat="45.95815" lon="4.77054">
        <ele>190</ele>
        <time>2016-08-25T08:37:00Z</time>
      </trkpt>
      <trkpt lat="45.95819" lon="4.7706">
        <ele>190</ele>
        <time>2016-08-25T08:37:01Z</time>
      </trkpt>
      <trkpt lat="45.95822" lon="4.77067">
        <ele>191</ele>
        <time>2016-08-25T08:37:02Z</time>
      </trkpt>
      <trkpt lat="45.95825" lon="4.77074">
        <ele>191</ele>
        <time>2016-08-25T08:37:03Z</time>
      </trkpt>
      <trkpt lat="45.95828" lon="4.77082">
        <ele>191</ele>
        <time>2016-08-25T08:37:04Z</time>
      </trkpt>
      <trkpt lat="45.95831" lon="4.77089">
        <ele>191</ele>
        <time>2016-08-25T08:37:05Z</time>
      </trkpt>
      <trkpt lat="45.95833" lon="4.77097">
        <ele>191</ele>
        <time>2016-08-25T08:37:06Z</time>
      </trkpt>
      <trkpt lat="45.95835" lon="4.77104">
        <ele>193</ele>
        <time>2016-08-25T08:37:07Z</time>
      </trkpt>
      <trkpt lat="45.95838" lon="4.77111">
        <ele>193</ele>
        <time>2016-08-25T08:37:08Z</time>
      </trkpt>
      <trkpt lat="45.9584" lon="4.77119">
        <ele>193</ele>
        <time>2016-08-25T08:37:09Z</time>
      </trkpt>
      <trkpt lat="45.95842" lon="4.77126">
        <ele>193</ele>
        <time>2016-08-25T08:37:10Z</time>
      </trkpt>
      <trkpt lat="45.95845" lon="4.77133">
        <ele>193</ele>
        <time>2016-08-25T08:37:11Z</time>
      </trkpt>
      <trkpt lat="45.95847" lon="4.77141">
        <ele>193</ele>
        <time>2016-08-25T08:37:12Z</time>
      </trkpt>
      <trkpt lat="45.95849" lon="4.77148">
        <ele>192</ele>
        <time>2016-08-25T08:37:13Z</time>
      </trkpt>
      <trkpt lat="45.9585" lon="4.77155">
        <ele>192</ele>
        <time>2016-08-25T08:37:14Z</time>
      </trkpt>
      <trkpt lat="45.95852" lon="4.77163">
        <ele>192</ele>
        <time>2016-08-25T08:37:15Z</time>
      </trkpt>
      <trkpt lat="45.95854" lon="4.77169">
        <ele>192</ele>
        <time>2016-08-25T08:37:16Z</time>
      </trkpt>
      <trkpt lat="45.95856" lon="4.77176">
        <ele>192</ele>
        <time>2016-08-25T08:37:17Z</time>
      </trkpt>
      <trkpt lat="45.95858" lon="4.77183">
        <ele>192</ele>
        <time>2016-08-25T08:37:18Z</time>
      </trkpt>
      <trkpt lat="45.9586" lon="4.7719">
        <ele>192</ele>
        <time>2016-08-25T08:37:19Z</time>
      </trkpt>
      <trkpt lat="45.95862" lon="4.77197">
        <ele>192</ele>
        <time>2016-08-25T08:37:20Z</time>
      </trkpt>
      <trkpt lat="45.95863" lon="4.77203">
        <ele>193</ele>
        <time>2016-08-25T08:37:21Z</time>
      </trkpt>
      <trkpt lat="45.95865" lon="4.7721">
        <ele>193</ele>
        <time>2016-08-25T08:37:22Z</time>
      </trkpt>
      <trkpt lat="45.95866" lon="4.77218">
        <ele>193</ele>
        <time>2016-08-25T08:37:23Z</time>
      </trkpt>
      <trkpt lat="45.95868" lon="4.77225">
        <ele>193</ele>
        <time>2016-08-25T08:37:24Z</time>
      </trkpt>
      <trkpt lat="45.95869" lon="4.77232">
        <ele>193</ele>
        <time>2016-08-25T08:37:25Z</time>
      </trkpt>
      <trkpt lat="45.95871" lon="4.77239">
        <ele>193</ele>
        <time>2016-08-25T08:37:26Z</time>
      </trkpt>
      <trkpt lat="45.95872" lon="4.77246">
        <ele>193</ele>
        <time>2016-08-25T08:37:27Z</time>
      </trkpt>
      <trkpt lat="45.95873" lon="4.77253">
        <ele>193</ele>
        <time>2016-08-25T08:37:28Z</time>
      </trkpt>
      <trkpt lat="45.95875" lon="4.7726">
        <ele>193</ele>
        <time>2016-08-25T08:37:29Z</time>
      </trkpt>
      <trkpt lat="45.95876" lon="4.77266">
        <ele>193</ele>
        <time>2016-08-25T08:37:30Z</time>
      </trkpt>
      <trkpt lat="45.95877" lon="4.77273">
        <ele>193</ele>
        <time>2016-08-25T08:37:31Z</time>
      </trkpt>
      <trkpt lat="45.95878" lon="4.77279">
        <ele>193</ele>
        <time>2016-08-25T08:37:32Z</time>
      </trkpt>
      <trkpt lat="45.95881" lon="4.77285">
        <ele>193</ele>
        <time>2016-08-25T08:37:33Z</time>
      </trkpt>
      <trkpt lat="45.95883" lon="4.77291">
        <ele>193</ele>
        <time>2016-08-25T08:37:34Z</time>
      </trkpt>
      <trkpt lat="45.95885" lon="4.77298">
        <ele>193</ele>
        <time>2016-08-25T08:37:35Z</time>
      </trkpt>
      <trkpt lat="45.95887" lon="4.77305">
        <ele>193</ele>
        <time>2016-08-25T08:37:36Z</time>
      </trkpt>
      <trkpt lat="45.95889" lon="4.77312">
        <ele>193</ele>
        <time>2016-08-25T08:37:37Z</time>
      </trkpt>
      <trkpt lat="45.95891" lon="4.77319">
        <ele>193</ele>
        <time>2016-08-25T08:37:38Z</time>
      </trkpt>
      <trkpt lat="45.95893" lon="4.77326">
        <ele>193</ele>
        <time>2016-08-25T08:37:39Z</time>
      </trkpt>
      <trkpt lat="45.95895" lon="4.77333">
        <ele>193</ele>
        <time>2016-08-25T08:37:40Z</time>
      </trkpt>
      <trkpt lat="45.95897" lon="4.77339">
        <ele>193</ele>
        <time>2016-08-25T08:37:41Z</time>
      </trkpt>
      <trkpt lat="45.95899" lon="4.77345">
        <ele>193</ele>
        <time>2016-08-25T08:37:42Z</time>
      </trkpt>
      <trkpt lat="45.95902" lon="4.77351">
        <ele>193</ele>
        <time>2016-08-25T08:37:43Z</time>
      </trkpt>
      <trkpt lat="45.95905" lon="4.77358">
        <ele>193</ele>
        <time>2016-08-25T08:37:44Z</time>
      </trkpt>
      <trkpt lat="45.95907" lon="4.77365">
        <ele>193</ele>
        <time>2016-08-25T08:37:45Z</time>
      </trkpt>
      <trkpt lat="45.95909" lon="4.77371">
        <ele>193</ele>
        <time>2016-08-25T08:37:46Z</time>
      </trkpt>
      <trkpt lat="45.95911" lon="4.77378">
        <ele>193</ele>
        <time>2016-08-25T08:37:47Z</time>
      </trkpt>
      <trkpt lat="45.95913" lon="4.77385">
        <ele>193</ele>
        <time>2016-08-25T08:37:48Z</time>
      </trkpt>
      <trkpt lat="45.95915" lon="4.77391">
        <ele>193</ele>
        <time>2016-08-25T08:37:49Z</time>
      </trkpt>
      <trkpt lat="45.95918" lon="4.77398">
        <ele>196</ele>
        <time>2016-08-25T08:37:50Z</time>
      </trkpt>
      <trkpt lat="45.9592" lon="4.77404">
        <ele>195</ele>
        <time>2016-08-25T08:37:51Z</time>
      </trkpt>
      <trkpt lat="45.95922" lon="4.7741">
        <ele>195</ele>
        <time>2016-08-25T08:37:52Z</time>
      </trkpt>
      <trkpt lat="45.95925" lon="4.77416">
        <ele>195</ele>
        <time>2016-08-25T08:37:53Z</time>
      </trkpt>
      <trkpt lat="45.95927" lon="4.77422">
        <ele>195</ele>
        <time>2016-08-25T08:37:54Z</time>
      </trkpt>
      <trkpt lat="45.95929" lon="4.77428">
        <ele>195</ele>
        <time>2016-08-25T08:37:55Z</time>
      </trkpt>
      <trkpt lat="45.95931" lon="4.77434">
        <ele>195</ele>
        <time>2016-08-25T08:37:56Z</time>
      </trkpt>
      <trkpt lat="45.95933" lon="4.7744">
        <ele>195</ele>
        <time>2016-08-25T08:37:57Z</time>
      </trkpt>
      <trkpt lat="45.95934" lon="4.77447">
        <ele>195</ele>
        <time>2016-08-25T08:37:58Z</time>
      </trkpt>
      <trkpt lat="45.95936" lon="4.77453">
        <ele>195</ele>
        <time>2016-08-25T08:37:59Z</time>
      </trkpt>
      <trkpt lat="45.95938" lon="4.7746">
        <ele>195</ele>
        <time>2016-08-25T08:38:00Z</time>
      </trkpt>
      <trkpt lat="45.95939" lon="4.77466">
        <ele>195</ele>
        <time>2016-08-25T08:38:01Z</time>
      </trkpt>
      <trkpt lat="45.95941" lon="4.77472">
        <ele>195</ele>
        <time>2016-08-25T08:38:02Z</time>
      </trkpt>
      <trkpt lat="45.95944" lon="4.77478">
        <ele>195</ele>
        <time>2016-08-25T08:38:03Z</time>
      </trkpt>
      <trkpt lat="45.95946" lon="4.77484">
        <ele>195</ele>
        <time>2016-08-25T08:38:04Z</time>
      </trkpt>
      <trkpt lat="45.95948" lon="4.7749">
        <ele>195</ele>
        <time>2016-08-25T08:38:05Z</time>
      </trkpt>
      <trkpt lat="45.9595" lon="4.77495">
        <ele>195</ele>
        <time>2016-08-25T08:38:06Z</time>
      </trkpt>
      <trkpt lat="45.95953" lon="4.77501">
        <ele>195</ele>
        <time>2016-08-25T08:38:07Z</time>
      </trkpt>
      <trkpt lat="45.95956" lon="4.77506">
        <ele>195</ele>
        <time>2016-08-25T08:38:08Z</time>
      </trkpt>
      <trkpt lat="45.95958" lon="4.77512">
        <ele>195</ele>
        <time>2016-08-25T08:38:09Z</time>
      </trkpt>
      <trkpt lat="45.95961" lon="4.77518">
        <ele>195</ele>
        <time>2016-08-25T08:38:10Z</time>
      </trkpt>
      <trkpt lat="45.95964" lon="4.77524">
        <ele>195</ele>
        <time>2016-08-25T08:38:11Z</time>
      </trkpt>
      <trkpt lat="45.95966" lon="4.7753">
        <ele>195</ele>
        <time>2016-08-25T08:38:12Z</time>
      </trkpt>
      <trkpt lat="45.95971" lon="4.7754">
        <ele>195</ele>
        <time>2016-08-25T08:38:14Z</time>
      </trkpt>
      <trkpt lat="45.95974" lon="4.77545">
        <ele>195</ele>
        <time>2016-08-25T08:38:15Z</time>
      </trkpt>
      <trkpt lat="45.95976" lon="4.77551">
        <ele>195</ele>
        <time>2016-08-25T08:38:16Z</time>
      </trkpt>
      <trkpt lat="45.95979" lon="4.77557">
        <ele>195</ele>
        <time>2016-08-25T08:38:17Z</time>
      </trkpt>
      <trkpt lat="45.95982" lon="4.77564">
        <ele>196</ele>
        <time>2016-08-25T08:38:18Z</time>
      </trkpt>
      <trkpt lat="45.95984" lon="4.77572">
        <ele>196</ele>
        <time>2016-08-25T08:38:19Z</time>
      </trkpt>
      <trkpt lat="45.95988" lon="4.7758">
        <ele>196</ele>
        <time>2016-08-25T08:38:20Z</time>
      </trkpt>
      <trkpt lat="45.95991" lon="4.77586">
        <ele>196</ele>
        <time>2016-08-25T08:38:21Z</time>
      </trkpt>
      <trkpt lat="45.95995" lon="4.77593">
        <ele>196</ele>
        <time>2016-08-25T08:38:22Z</time>
      </trkpt>
      <trkpt lat="45.95999" lon="4.77597">
        <ele>196</ele>
        <time>2016-08-25T08:38:23Z</time>
      </trkpt>
      <trkpt lat="45.96003" lon="4.77602">
        <ele>198</ele>
        <time>2016-08-25T08:38:24Z</time>
      </trkpt>
      <trkpt lat="45.96007" lon="4.77607">
        <ele>199</ele>
        <time>2016-08-25T08:38:25Z</time>
      </trkpt>
      <trkpt lat="45.96012" lon="4.77611">
        <ele>199</ele>
        <time>2016-08-25T08:38:26Z</time>
      </trkpt>
      <trkpt lat="45.96016" lon="4.77616">
        <ele>199</ele>
        <time>2016-08-25T08:38:27Z</time>
      </trkpt>
      <trkpt lat="45.96023" lon="4.77624">
        <ele>199</ele>
        <time>2016-08-25T08:38:29Z</time>
      </trkpt>
      <trkpt lat="45.96026" lon="4.77627">
        <ele>199</ele>
        <time>2016-08-25T08:38:30Z</time>
      </trkpt>
      <trkpt lat="45.96033" lon="4.77635">
        <ele>199</ele>
        <time>2016-08-25T08:38:32Z</time>
      </trkpt>
      <trkpt lat="45.96036" lon="4.7764">
        <ele>199</ele>
        <time>2016-08-25T08:38:33Z</time>
      </trkpt>
      <trkpt lat="45.96039" lon="4.77645">
        <ele>199</ele>
        <time>2016-08-25T08:38:34Z</time>
      </trkpt>
      <trkpt lat="45.96043" lon="4.7765">
        <ele>199</ele>
        <time>2016-08-25T08:38:35Z</time>
      </trkpt>
      <trkpt lat="45.96046" lon="4.77655">
        <ele>199</ele>
        <time>2016-08-25T08:38:36Z</time>
      </trkpt>
      <trkpt lat="45.9605" lon="4.77661">
        <ele>200</ele>
        <time>2016-08-25T08:38:37Z</time>
      </trkpt>
      <trkpt lat="45.96053" lon="4.77666">
        <ele>200</ele>
        <time>2016-08-25T08:38:38Z</time>
      </trkpt>
      <trkpt lat="45.96057" lon="4.7767">
        <ele>197</ele>
        <time>2016-08-25T08:38:39Z</time>
      </trkpt>
      <trkpt lat="45.9606" lon="4.77676">
        <ele>198</ele>
        <time>2016-08-25T08:38:40Z</time>
      </trkpt>
      <trkpt lat="45.96064" lon="4.77681">
        <ele>198</ele>
        <time>2016-08-25T08:38:41Z</time>
      </trkpt>
      <trkpt lat="45.96068" lon="4.77687">
        <ele>198</ele>
        <time>2016-08-25T08:38:42Z</time>
      </trkpt>
      <trkpt lat="45.96071" lon="4.77692">
        <ele>197</ele>
        <time>2016-08-25T08:38:43Z</time>
      </trkpt>
      <trkpt lat="45.96074" lon="4.77698">
        <ele>197</ele>
        <time>2016-08-25T08:38:44Z</time>
      </trkpt>
      <trkpt lat="45.96078" lon="4.77704">
        <ele>197</ele>
        <time>2016-08-25T08:38:45Z</time>
      </trkpt>
      <trkpt lat="45.96081" lon="4.7771">
        <ele>197</ele>
        <time>2016-08-25T08:38:46Z</time>
      </trkpt>
      <trkpt lat="45.96084" lon="4.77716">
        <ele>199</ele>
        <time>2016-08-25T08:38:47Z</time>
      </trkpt>
      <trkpt lat="45.96088" lon="4.77721">
        <ele>199</ele>
        <time>2016-08-25T08:38:48Z</time>
      </trkpt>
      <trkpt lat="45.96091" lon="4.77727">
        <ele>199</ele>
        <time>2016-08-25T08:38:49Z</time>
      </trkpt>
      <trkpt lat="45.96094" lon="4.77733">
        <ele>198</ele>
        <time>2016-08-25T08:38:50Z</time>
      </trkpt>
      <trkpt lat="45.96098" lon="4.77738">
        <ele>198</ele>
        <time>2016-08-25T08:38:51Z</time>
      </trkpt>
      <trkpt lat="45.96101" lon="4.77743">
        <ele>198</ele>
        <time>2016-08-25T08:38:52Z</time>
      </trkpt>
      <trkpt lat="45.96105" lon="4.77748">
        <ele>198</ele>
        <time>2016-08-25T08:38:53Z</time>
      </trkpt>
      <trkpt lat="45.96108" lon="4.77753">
        <ele>197</ele>
        <time>2016-08-25T08:38:54Z</time>
      </trkpt>
      <trkpt lat="45.96111" lon="4.77758">
        <ele>197</ele>
        <time>2016-08-25T08:38:55Z</time>
      </trkpt>
      <trkpt lat="45.96114" lon="4.77763">
        <ele>197</ele>
        <time>2016-08-25T08:38:56Z</time>
      </trkpt>
      <trkpt lat="45.96117" lon="4.77768">
        <ele>197</ele>
        <time>2016-08-25T08:38:57Z</time>
      </trkpt>
      <trkpt lat="45.96121" lon="4.77774">
        <ele>197</ele>
        <time>2016-08-25T08:38:58Z</time>
      </trkpt>
      <trkpt lat="45.96124" lon="4.77779">
        <ele>197</ele>
        <time>2016-08-25T08:38:59Z</time>
      </trkpt>
      <trkpt lat="45.96127" lon="4.77785">
        <ele>197</ele>
        <time>2016-08-25T08:39:00Z</time>
      </trkpt>
      <trkpt lat="45.9613" lon="4.77791">
        <ele>197</ele>
        <time>2016-08-25T08:39:01Z</time>
      </trkpt>
      <trkpt lat="45.96134" lon="4.77797">
        <ele>198</ele>
        <time>2016-08-25T08:39:02Z</time>
      </trkpt>
      <trkpt lat="45.96137" lon="4.77802">
        <ele>198</ele>
        <time>2016-08-25T08:39:03Z</time>
      </trkpt>
      <trkpt lat="45.9614" lon="4.77807">
        <ele>198</ele>
        <time>2016-08-25T08:39:04Z</time>
      </trkpt>
      <trkpt lat="45.96143" lon="4.77812">
        <ele>198</ele>
        <time>2016-08-25T08:39:05Z</time>
      </trkpt>
      <trkpt lat="45.96146" lon="4.77818">
        <ele>198</ele>
        <time>2016-08-25T08:39:06Z</time>
      </trkpt>
      <trkpt lat="45.96149" lon="4.77825">
        <ele>198</ele>
        <time>2016-08-25T08:39:07Z</time>
      </trkpt>
      <trkpt lat="45.96153" lon="4.77831">
        <ele>198</ele>
        <time>2016-08-25T08:39:08Z</time>
      </trkpt>
      <trkpt lat="45.96157" lon="4.77836">
        <ele>197</ele>
        <time>2016-08-25T08:39:09Z</time>
      </trkpt>
      <trkpt lat="45.9616" lon="4.77842">
        <ele>197</ele>
        <time>2016-08-25T08:39:10Z</time>
      </trkpt>
      <trkpt lat="45.96164" lon="4.77848">
        <ele>197</ele>
        <time>2016-08-25T08:39:11Z</time>
      </trkpt>
      <trkpt lat="45.96167" lon="4.77854">
        <ele>201</ele>
        <time>2016-08-25T08:39:12Z</time>
      </trkpt>
      <trkpt lat="45.96171" lon="4.7786">
        <ele>201</ele>
        <time>2016-08-25T08:39:13Z</time>
      </trkpt>
      <trkpt lat="45.96174" lon="4.77865">
        <ele>201</ele>
        <time>2016-08-25T08:39:14Z</time>
      </trkpt>
      <trkpt lat="45.96178" lon="4.77871">
        <ele>201</ele>
        <time>2016-08-25T08:39:15Z</time>
      </trkpt>
      <trkpt lat="45.96181" lon="4.77876">
        <ele>201</ele>
        <time>2016-08-25T08:39:16Z</time>
      </trkpt>
      <trkpt lat="45.96185" lon="4.77882">
        <ele>201</ele>
        <time>2016-08-25T08:39:17Z</time>
      </trkpt>
      <trkpt lat="45.96188" lon="4.77888">
        <ele>201</ele>
        <time>2016-08-25T08:39:18Z</time>
      </trkpt>
      <trkpt lat="45.96191" lon="4.77894">
        <ele>201</ele>
        <time>2016-08-25T08:39:19Z</time>
      </trkpt>
      <trkpt lat="45.96195" lon="4.779">
        <ele>201</ele>
        <time>2016-08-25T08:39:20Z</time>
      </trkpt>
      <trkpt lat="45.96198" lon="4.77905">
        <ele>201</ele>
        <time>2016-08-25T08:39:21Z</time>
      </trkpt>
      <trkpt lat="45.96201" lon="4.77911">
        <ele>201</ele>
        <time>2016-08-25T08:39:22Z</time>
      </trkpt>
      <trkpt lat="45.96205" lon="4.77916">
        <ele>202</ele>
        <time>2016-08-25T08:39:23Z</time>
      </trkpt>
      <trkpt lat="45.96209" lon="4.77922">
        <ele>199</ele>
        <time>2016-08-25T08:39:24Z</time>
      </trkpt>
      <trkpt lat="45.96212" lon="4.77927">
        <ele>199</ele>
        <time>2016-08-25T08:39:25Z</time>
      </trkpt>
      <trkpt lat="45.96216" lon="4.77932">
        <ele>199</ele>
        <time>2016-08-25T08:39:26Z</time>
      </trkpt>
      <trkpt lat="45.9622" lon="4.77938">
        <ele>200</ele>
        <time>2016-08-25T08:39:27Z</time>
      </trkpt>
      <trkpt lat="45.96223" lon="4.77943">
        <ele>200</ele>
        <time>2016-08-25T08:39:28Z</time>
      </trkpt>
      <trkpt lat="45.96227" lon="4.77948">
        <ele>199</ele>
        <time>2016-08-25T08:39:29Z</time>
      </trkpt>
      <trkpt lat="45.96231" lon="4.77953">
        <ele>199</ele>
        <time>2016-08-25T08:39:30Z</time>
      </trkpt>
      <trkpt lat="45.96235" lon="4.77958">
        <ele>199</ele>
        <time>2016-08-25T08:39:31Z</time>
      </trkpt>
      <trkpt lat="45.9624" lon="4.77963">
        <ele>199</ele>
        <time>2016-08-25T08:39:32Z</time>
      </trkpt>
      <trkpt lat="45.96246" lon="4.77967">
        <ele>199</ele>
        <time>2016-08-25T08:39:33Z</time>
      </trkpt>
      <trkpt lat="45.96251" lon="4.77972">
        <ele>203</ele>
        <time>2016-08-25T08:39:34Z</time>
      </trkpt>
      <trkpt lat="45.96257" lon="4.77977">
        <ele>202</ele>
        <time>2016-08-25T08:39:35Z</time>
      </trkpt>
      <trkpt lat="45.96262" lon="4.77981">
        <ele>202</ele>
        <time>2016-08-25T08:39:36Z</time>
      </trkpt>
      <trkpt lat="45.96268" lon="4.77985">
        <ele>202</ele>
        <time>2016-08-25T08:39:37Z</time>
      </trkpt>
      <trkpt lat="45.96272" lon="4.77989">
        <ele>202</ele>
        <time>2016-08-25T08:39:38Z</time>
      </trkpt>
      <trkpt lat="45.96277" lon="4.77993">
        <ele>203</ele>
        <time>2016-08-25T08:39:39Z</time>
      </trkpt>
      <trkpt lat="45.96282" lon="4.77997">
        <ele>203</ele>
        <time>2016-08-25T08:39:40Z</time>
      </trkpt>
      <trkpt lat="45.96287" lon="4.78">
        <ele>204</ele>
        <time>2016-08-25T08:39:41Z</time>
      </trkpt>
      <trkpt lat="45.96292" lon="4.78004">
        <ele>199</ele>
        <time>2016-08-25T08:39:42Z</time>
      </trkpt>
      <trkpt lat="45.96297" lon="4.78008">
        <ele>199</ele>
        <time>2016-08-25T08:39:43Z</time>
      </trkpt>
      <trkpt lat="45.96301" lon="4.78012">
        <ele>200</ele>
        <time>2016-08-25T08:39:44Z</time>
      </trkpt>
      <trkpt lat="45.96305" lon="4.78016">
        <ele>200</ele>
        <time>2016-08-25T08:39:45Z</time>
      </trkpt>
      <trkpt lat="45.96309" lon="4.78021">
        <ele>200</ele>
        <time>2016-08-25T08:39:46Z</time>
      </trkpt>
      <trkpt lat="45.96313" lon="4.78026">
        <ele>200</ele>
        <time>2016-08-25T08:39:47Z</time>
      </trkpt>
      <trkpt lat="45.96317" lon="4.78032">
        <ele>200</ele>
        <time>2016-08-25T08:39:48Z</time>
      </trkpt>
      <trkpt lat="45.96321" lon="4.78037">
        <ele>200</ele>
        <time>2016-08-25T08:39:49Z</time>
      </trkpt>
      <trkpt lat="45.96325" lon="4.78042">
        <ele>199</ele>
        <time>2016-08-25T08:39:50Z</time>
      </trkpt>
      <trkpt lat="45.9633" lon="4.78048">
        <ele>199</ele>
        <time>2016-08-25T08:39:51Z</time>
      </trkpt>
      <trkpt lat="45.96335" lon="4.78055">
        <ele>202</ele>
        <time>2016-08-25T08:39:52Z</time>
      </trkpt>
      <trkpt lat="45.9634" lon="4.78061">
        <ele>202</ele>
        <time>2016-08-25T08:39:53Z</time>
      </trkpt>
      <trkpt lat="45.96345" lon="4.78066">
        <ele>201</ele>
        <time>2016-08-25T08:39:54Z</time>
      </trkpt>
      <trkpt lat="45.96349" lon="4.78071">
        <ele>201</ele>
        <time>2016-08-25T08:39:55Z</time>
      </trkpt>
      <trkpt lat="45.96353" lon="4.78076">
        <ele>201</ele>
        <time>2016-08-25T08:39:56Z</time>
      </trkpt>
      <trkpt lat="45.96357" lon="4.7808">
        <ele>202</ele>
        <time>2016-08-25T08:39:57Z</time>
      </trkpt>
      <trkpt lat="45.96364" lon="4.78088">
        <ele>199</ele>
        <time>2016-08-25T08:39:59Z</time>
      </trkpt>
      <trkpt lat="45.96367" lon="4.78092">
        <ele>199</ele>
        <time>2016-08-25T08:40:00Z</time>
      </trkpt>
      <trkpt lat="45.9637" lon="4.78095">
        <ele>199</ele>
        <time>2016-08-25T08:40:01Z</time>
      </trkpt>
      <trkpt lat="45.96374" lon="4.78098">
        <ele>200</ele>
        <time>2016-08-25T08:40:02Z</time>
      </trkpt>
      <trkpt lat="45.96378" lon="4.78102">
        <ele>200</ele>
        <time>2016-08-25T08:40:03Z</time>
      </trkpt>
      <trkpt lat="45.96383" lon="4.78106">
        <ele>200</ele>
        <time>2016-08-25T08:40:04Z</time>
      </trkpt>
      <trkpt lat="45.96388" lon="4.78112">
        <ele>200</ele>
        <time>2016-08-25T08:40:05Z</time>
      </trkpt>
      <trkpt lat="45.96392" lon="4.78118">
        <ele>200</ele>
        <time>2016-08-25T08:40:06Z</time>
      </trkpt>
      <trkpt lat="45.96396" lon="4.78121">
        <ele>200</ele>
        <time>2016-08-25T08:40:07Z</time>
      </trkpt>
      <trkpt lat="45.964" lon="4.78126">
        <ele>200</ele>
        <time>2016-08-25T08:40:08Z</time>
      </trkpt>
      <trkpt lat="45.96404" lon="4.7813">
        <ele>199</ele>
        <time>2016-08-25T08:40:09Z</time>
      </trkpt>
      <trkpt lat="45.96409" lon="4.78133">
        <ele>199</ele>
        <time>2016-08-25T08:40:10Z</time>
      </trkpt>
      <trkpt lat="45.96413" lon="4.78137">
        <ele>199</ele>
        <time>2016-08-25T08:40:11Z</time>
      </trkpt>
      <trkpt lat="45.96418" lon="4.78142">
        <ele>203</ele>
        <time>2016-08-25T08:40:12Z</time>
      </trkpt>
      <trkpt lat="45.96422" lon="4.78146">
        <ele>202</ele>
        <time>2016-08-25T08:40:13Z</time>
      </trkpt>
      <trkpt lat="45.96427" lon="4.7815">
        <ele>202</ele>
        <time>2016-08-25T08:40:14Z</time>
      </trkpt>
      <trkpt lat="45.96432" lon="4.78154">
        <ele>202</ele>
        <time>2016-08-25T08:40:15Z</time>
      </trkpt>
      <trkpt lat="45.96437" lon="4.78159">
        <ele>202</ele>
        <time>2016-08-25T08:40:16Z</time>
      </trkpt>
      <trkpt lat="45.96441" lon="4.78163">
        <ele>203</ele>
        <time>2016-08-25T08:40:17Z</time>
      </trkpt>
      <trkpt lat="45.96446" lon="4.78167">
        <ele>199</ele>
        <time>2016-08-25T08:40:18Z</time>
      </trkpt>
      <trkpt lat="45.96451" lon="4.78172">
        <ele>199</ele>
        <time>2016-08-25T08:40:19Z</time>
      </trkpt>
      <trkpt lat="45.96455" lon="4.78176">
        <ele>200</ele>
        <time>2016-08-25T08:40:20Z</time>
      </trkpt>
      <trkpt lat="45.9646" lon="4.7818">
        <ele>200</ele>
        <time>2016-08-25T08:40:21Z</time>
      </trkpt>
      <trkpt lat="45.96464" lon="4.78184">
        <ele>200</ele>
        <time>2016-08-25T08:40:22Z</time>
      </trkpt>
      <trkpt lat="45.96469" lon="4.78187">
        <ele>200</ele>
        <time>2016-08-25T08:40:23Z</time>
      </trkpt>
      <trkpt lat="45.96474" lon="4.78189">
        <ele>200</ele>
        <time>2016-08-25T08:40:24Z</time>
      </trkpt>
      <trkpt lat="45.96479" lon="4.78191">
        <ele>200</ele>
        <time>2016-08-25T08:40:25Z</time>
      </trkpt>
      <trkpt lat="45.96484" lon="4.78193">
        <ele>201</ele>
        <time>2016-08-25T08:40:26Z</time>
      </trkpt>
      <trkpt lat="45.96489" lon="4.78197">
        <ele>200</ele>
        <time>2016-08-25T08:40:27Z</time>
      </trkpt>
      <trkpt lat="45.96494" lon="4.78202">
        <ele>200</ele>
        <time>2016-08-25T08:40:28Z</time>
      </trkpt>
      <trkpt lat="45.96498" lon="4.78207">
        <ele>200</ele>
        <time>2016-08-25T08:40:29Z</time>
      </trkpt>
      <trkpt lat="45.96503" lon="4.78213">
        <ele>205</ele>
        <time>2016-08-25T08:40:30Z</time>
      </trkpt>
      <trkpt lat="45.96507" lon="4.78219">
        <ele>204</ele>
        <time>2016-08-25T08:40:31Z</time>
      </trkpt>
      <trkpt lat="45.96511" lon="4.78225">
        <ele>204</ele>
        <time>2016-08-25T08:40:32Z</time>
      </trkpt>
      <trkpt lat="45.96515" lon="4.78231">
        <ele>203</ele>
        <time>2016-08-25T08:40:33Z</time>
      </trkpt>
      <trkpt lat="45.96518" lon="4.78237">
        <ele>203</ele>
        <time>2016-08-25T08:40:34Z</time>
      </trkpt>
      <trkpt lat="45.96522" lon="4.78243">
        <ele>203</ele>
        <time>2016-08-25T08:40:35Z</time>
      </trkpt>
      <trkpt lat="45.96526" lon="4.78248">
        <ele>203</ele>
        <time>2016-08-25T08:40:36Z</time>
      </trkpt>
      <trkpt lat="45.96529" lon="4.78254">
        <ele>200</ele>
        <time>2016-08-25T08:40:37Z</time>
      </trkpt>
      <trkpt lat="45.96533" lon="4.78259">
        <ele>200</ele>
        <time>2016-08-25T08:40:38Z</time>
      </trkpt>
      <trkpt lat="45.96537" lon="4.78263">
        <ele>200</ele>
        <time>2016-08-25T08:40:39Z</time>
      </trkpt>
      <trkpt lat="45.9654" lon="4.78269">
        <ele>200</ele>
        <time>2016-08-25T08:40:40Z</time>
      </trkpt>
      <trkpt lat="45.96544" lon="4.78274">
        <ele>200</ele>
        <time>2016-08-25T08:40:41Z</time>
      </trkpt>
      <trkpt lat="45.96548" lon="4.7828">
        <ele>200</ele>
        <time>2016-08-25T08:40:42Z</time>
      </trkpt>
      <trkpt lat="45.96552" lon="4.78285">
        <ele>200</ele>
        <time>2016-08-25T08:40:43Z</time>
      </trkpt>
      <trkpt lat="45.96556" lon="4.7829">
        <ele>200</ele>
        <time>2016-08-25T08:40:44Z</time>
      </trkpt>
      <trkpt lat="45.9656" lon="4.78295">
        <ele>200</ele>
        <time>2016-08-25T08:40:45Z</time>
      </trkpt>
      <trkpt lat="45.96564" lon="4.783">
        <ele>200</ele>
        <time>2016-08-25T08:40:46Z</time>
      </trkpt>
      <trkpt lat="45.96569" lon="4.78304">
        <ele>200</ele>
        <time>2016-08-25T08:40:47Z</time>
      </trkpt>
      <trkpt lat="45.96573" lon="4.78308">
        <ele>200</ele>
        <time>2016-08-25T08:40:48Z</time>
      </trkpt>
      <trkpt lat="45.96578" lon="4.78312">
        <ele>199</ele>
        <time>2016-08-25T08:40:49Z</time>
      </trkpt>
      <trkpt lat="45.96583" lon="4.78316">
        <ele>199</ele>
        <time>2016-08-25T08:40:50Z</time>
      </trkpt>
      <trkpt lat="45.96587" lon="4.78321">
        <ele>202</ele>
        <time>2016-08-25T08:40:51Z</time>
      </trkpt>
      <trkpt lat="45.96591" lon="4.78325">
        <ele>201</ele>
        <time>2016-08-25T08:40:52Z</time>
      </trkpt>
      <trkpt lat="45.96596" lon="4.78331">
        <ele>201</ele>
        <time>2016-08-25T08:40:53Z</time>
      </trkpt>
      <trkpt lat="45.966" lon="4.78336">
        <ele>200</ele>
        <time>2016-08-25T08:40:54Z</time>
      </trkpt>
      <trkpt lat="45.96605" lon="4.7834">
        <ele>200</ele>
        <time>2016-08-25T08:40:55Z</time>
      </trkpt>
      <trkpt lat="45.96609" lon="4.78344">
        <ele>200</ele>
        <time>2016-08-25T08:40:56Z</time>
      </trkpt>
      <trkpt lat="45.96614" lon="4.78347">
        <ele>200</ele>
        <time>2016-08-25T08:40:57Z</time>
      </trkpt>
      <trkpt lat="45.96618" lon="4.78351">
        <ele>201</ele>
        <time>2016-08-25T08:40:58Z</time>
      </trkpt>
      <trkpt lat="45.96623" lon="4.78355">
        <ele>201</ele>
        <time>2016-08-25T08:40:59Z</time>
      </trkpt>
      <trkpt lat="45.96627" lon="4.7836">
        <ele>201</ele>
        <time>2016-08-25T08:41:00Z</time>
      </trkpt>
      <trkpt lat="45.96632" lon="4.78364">
        <ele>201</ele>
        <time>2016-08-25T08:41:01Z</time>
      </trkpt>
      <trkpt lat="45.96636" lon="4.78368">
        <ele>201</ele>
        <time>2016-08-25T08:41:02Z</time>
      </trkpt>
      <trkpt lat="45.96641" lon="4.78372">
        <ele>201</ele>
        <time>2016-08-25T08:41:03Z</time>
      </trkpt>
      <trkpt lat="45.96645" lon="4.78377">
        <ele>201</ele>
        <time>2016-08-25T08:41:04Z</time>
      </trkpt>
      <trkpt lat="45.9665" lon="4.78381">
        <ele>201</ele>
        <time>2016-08-25T08:41:05Z</time>
      </trkpt>
      <trkpt lat="45.96654" lon="4.78385">
        <ele>201</ele>
        <time>2016-08-25T08:41:06Z</time>
      </trkpt>
      <trkpt lat="45.96658" lon="4.7839">
        <ele>201</ele>
        <time>2016-08-25T08:41:07Z</time>
      </trkpt>
      <trkpt lat="45.96663" lon="4.78395">
        <ele>201</ele>
        <time>2016-08-25T08:41:08Z</time>
      </trkpt>
      <trkpt lat="45.96668" lon="4.784">
        <ele>204</ele>
        <time>2016-08-25T08:41:09Z</time>
      </trkpt>
      <trkpt lat="45.96674" lon="4.78405">
        <ele>203</ele>
        <time>2016-08-25T08:41:10Z</time>
      </trkpt>
      <trkpt lat="45.96678" lon="4.78409">
        <ele>203</ele>
        <time>2016-08-25T08:41:11Z</time>
      </trkpt>
      <trkpt lat="45.96682" lon="4.78414">
        <ele>204</ele>
        <time>2016-08-25T08:41:12Z</time>
      </trkpt>
      <trkpt lat="45.96685" lon="4.78418">
        <ele>202</ele>
        <time>2016-08-25T08:41:13Z</time>
      </trkpt>
      <trkpt lat="45.96689" lon="4.78421">
        <ele>202</ele>
        <time>2016-08-25T08:41:14Z</time>
      </trkpt>
      <trkpt lat="45.96696" lon="4.78429">
        <ele>203</ele>
        <time>2016-08-25T08:41:16Z</time>
      </trkpt>
      <trkpt lat="45.96699" lon="4.78434">
        <ele>203</ele>
        <time>2016-08-25T08:41:17Z</time>
      </trkpt>
      <trkpt lat="45.96702" lon="4.78438">
        <ele>203</ele>
        <time>2016-08-25T08:41:18Z</time>
      </trkpt>
      <trkpt lat="45.96706" lon="4.78443">
        <ele>203</ele>
        <time>2016-08-25T08:41:19Z</time>
      </trkpt>
      <trkpt lat="45.9671" lon="4.78447">
        <ele>203</ele>
        <time>2016-08-25T08:41:20Z</time>
      </trkpt>
      <trkpt lat="45.96714" lon="4.78451">
        <ele>203</ele>
        <time>2016-08-25T08:41:21Z</time>
      </trkpt>
      <trkpt lat="45.96719" lon="4.78455">
        <ele>203</ele>
        <time>2016-08-25T08:41:22Z</time>
      </trkpt>
      <trkpt lat="45.96723" lon="4.78458">
        <ele>203</ele>
        <time>2016-08-25T08:41:23Z</time>
      </trkpt>
      <trkpt lat="45.96728" lon="4.78462">
        <ele>203</ele>
        <time>2016-08-25T08:41:24Z</time>
      </trkpt>
      <trkpt lat="45.96733" lon="4.78466">
        <ele>203</ele>
        <time>2016-08-25T08:41:25Z</time>
      </trkpt>
      <trkpt lat="45.96739" lon="4.78471">
        <ele>203</ele>
        <time>2016-08-25T08:41:26Z</time>
      </trkpt>
      <trkpt lat="45.96743" lon="4.78475">
        <ele>203</ele>
        <time>2016-08-25T08:41:27Z</time>
      </trkpt>
      <trkpt lat="45.96748" lon="4.7848">
        <ele>203</ele>
        <time>2016-08-25T08:41:28Z</time>
      </trkpt>
      <trkpt lat="45.96753" lon="4.78484">
        <ele>205</ele>
        <time>2016-08-25T08:41:29Z</time>
      </trkpt>
      <trkpt lat="45.96758" lon="4.7849">
        <ele>204</ele>
        <time>2016-08-25T08:41:30Z</time>
      </trkpt>
      <trkpt lat="45.96763" lon="4.78495">
        <ele>204</ele>
        <time>2016-08-25T08:41:31Z</time>
      </trkpt>
      <trkpt lat="45.96767" lon="4.785">
        <ele>203</ele>
        <time>2016-08-25T08:41:32Z</time>
      </trkpt>
      <trkpt lat="45.9677" lon="4.78506">
        <ele>203</ele>
        <time>2016-08-25T08:41:33Z</time>
      </trkpt>
      <trkpt lat="45.96774" lon="4.78511">
        <ele>203</ele>
        <time>2016-08-25T08:41:34Z</time>
      </trkpt>
      <trkpt lat="45.96777" lon="4.78517">
        <ele>203</ele>
        <time>2016-08-25T08:41:35Z</time>
      </trkpt>
      <trkpt lat="45.96781" lon="4.78523">
        <ele>203</ele>
        <time>2016-08-25T08:41:36Z</time>
      </trkpt>
      <trkpt lat="45.96785" lon="4.78528">
        <ele>203</ele>
        <time>2016-08-25T08:41:37Z</time>
      </trkpt>
      <trkpt lat="45.96789" lon="4.78534">
        <ele>203</ele>
        <time>2016-08-25T08:41:38Z</time>
      </trkpt>
      <trkpt lat="45.96792" lon="4.7854">
        <ele>203</ele>
        <time>2016-08-25T08:41:39Z</time>
      </trkpt>
      <trkpt lat="45.96796" lon="4.78547">
        <ele>203</ele>
        <time>2016-08-25T08:41:40Z</time>
      </trkpt>
      <trkpt lat="45.96799" lon="4.78552">
        <ele>203</ele>
        <time>2016-08-25T08:41:41Z</time>
      </trkpt>
      <trkpt lat="45.96803" lon="4.78558">
        <ele>203</ele>
        <time>2016-08-25T08:41:42Z</time>
      </trkpt>
      <trkpt lat="45.96806" lon="4.78563">
        <ele>203</ele>
        <time>2016-08-25T08:41:43Z</time>
      </trkpt>
      <trkpt lat="45.9681" lon="4.78568">
        <ele>203</ele>
        <time>2016-08-25T08:41:44Z</time>
      </trkpt>
      <trkpt lat="45.96813" lon="4.78573">
        <ele>203</ele>
        <time>2016-08-25T08:41:45Z</time>
      </trkpt>
      <trkpt lat="45.96817" lon="4.78582">
        <ele>203</ele>
        <time>2016-08-25T08:41:47Z</time>
      </trkpt>
      <trkpt lat="45.96819" lon="4.78587">
        <ele>202</ele>
        <time>2016-08-25T08:41:48Z</time>
      </trkpt>
      <trkpt lat="45.96822" lon="4.78593">
        <ele>202</ele>
        <time>2016-08-25T08:41:49Z</time>
      </trkpt>
      <trkpt lat="45.96824" lon="4.78599">
        <ele>202</ele>
        <time>2016-08-25T08:41:50Z</time>
      </trkpt>
      <trkpt lat="45.96826" lon="4.78606">
        <ele>202</ele>
        <time>2016-08-25T08:41:51Z</time>
      </trkpt>
      <trkpt lat="45.96828" lon="4.78613">
        <ele>202</ele>
        <time>2016-08-25T08:41:52Z</time>
      </trkpt>
      <trkpt lat="45.96831" lon="4.7862">
        <ele>201</ele>
        <time>2016-08-25T08:41:53Z</time>
      </trkpt>
      <trkpt lat="45.96833" lon="4.78626">
        <ele>201</ele>
        <time>2016-08-25T08:41:54Z</time>
      </trkpt>
      <trkpt lat="45.96836" lon="4.78633">
        <ele>203</ele>
        <time>2016-08-25T08:41:55Z</time>
      </trkpt>
      <trkpt lat="45.96839" lon="4.78639">
        <ele>203</ele>
        <time>2016-08-25T08:41:56Z</time>
      </trkpt>
      <trkpt lat="45.96841" lon="4.78646">
        <ele>203</ele>
        <time>2016-08-25T08:41:57Z</time>
      </trkpt>
      <trkpt lat="45.96844" lon="4.78652">
        <ele>203</ele>
        <time>2016-08-25T08:41:58Z</time>
      </trkpt>
      <trkpt lat="45.96847" lon="4.78658">
        <ele>202</ele>
        <time>2016-08-25T08:41:59Z</time>
      </trkpt>
      <trkpt lat="45.9685" lon="4.78664">
        <ele>202</ele>
        <time>2016-08-25T08:42:00Z</time>
      </trkpt>
      <trkpt lat="45.96852" lon="4.78671">
        <ele>202</ele>
        <time>2016-08-25T08:42:01Z</time>
      </trkpt>
      <trkpt lat="45.96854" lon="4.78677">
        <ele>202</ele>
        <time>2016-08-25T08:42:02Z</time>
      </trkpt>
      <trkpt lat="45.96857" lon="4.78683">
        <ele>202</ele>
        <time>2016-08-25T08:42:03Z</time>
      </trkpt>
      <trkpt lat="45.96859" lon="4.78689">
        <ele>202</ele>
        <time>2016-08-25T08:42:04Z</time>
      </trkpt>
      <trkpt lat="45.96862" lon="4.78695">
        <ele>202</ele>
        <time>2016-08-25T08:42:05Z</time>
      </trkpt>
      <trkpt lat="45.96865" lon="4.78701">
        <ele>202</ele>
        <time>2016-08-25T08:42:06Z</time>
      </trkpt>
      <trkpt lat="45.96868" lon="4.78707">
        <ele>202</ele>
        <time>2016-08-25T08:42:07Z</time>
      </trkpt>
      <trkpt lat="45.9687" lon="4.78713">
        <ele>202</ele>
        <time>2016-08-25T08:42:08Z</time>
      </trkpt>
      <trkpt lat="45.96873" lon="4.7872">
        <ele>202</ele>
        <time>2016-08-25T08:42:09Z</time>
      </trkpt>
      <trkpt lat="45.96875" lon="4.78725">
        <ele>202</ele>
        <time>2016-08-25T08:42:10Z</time>
      </trkpt>
      <trkpt lat="45.96878" lon="4.78731">
        <ele>202</ele>
        <time>2016-08-25T08:42:11Z</time>
      </trkpt>
      <trkpt lat="45.96881" lon="4.78736">
        <ele>202</ele>
        <time>2016-08-25T08:42:12Z</time>
      </trkpt>
      <trkpt lat="45.96885" lon="4.78742">
        <ele>202</ele>
        <time>2016-08-25T08:42:13Z</time>
      </trkpt>
      <trkpt lat="45.96888" lon="4.78748">
        <ele>202</ele>
        <time>2016-08-25T08:42:14Z</time>
      </trkpt>
      <trkpt lat="45.96892" lon="4.78754">
        <ele>201</ele>
        <time>2016-08-25T08:42:15Z</time>
      </trkpt>
      <trkpt lat="45.96895" lon="4.7876">
        <ele>201</ele>
        <time>2016-08-25T08:42:16Z</time>
      </trkpt>
      <trkpt lat="45.96898" lon="4.78766">
        <ele>201</ele>
        <time>2016-08-25T08:42:17Z</time>
      </trkpt>
      <trkpt lat="45.96901" lon="4.78773">
        <ele>201</ele>
        <time>2016-08-25T08:42:18Z</time>
      </trkpt>
      <trkpt lat="45.96904" lon="4.78779">
        <ele>201</ele>
        <time>2016-08-25T08:42:19Z</time>
      </trkpt>
      <trkpt lat="45.96908" lon="4.78786">
        <ele>201</ele>
        <time>2016-08-25T08:42:20Z</time>
      </trkpt>
      <trkpt lat="45.9691" lon="4.78792">
        <ele>201</ele>
        <time>2016-08-25T08:42:21Z</time>
      </trkpt>
      <trkpt lat="45.96914" lon="4.788">
        <ele>201</ele>
        <time>2016-08-25T08:42:22Z</time>
      </trkpt>
      <trkpt lat="45.96917" lon="4.78805">
        <ele>203</ele>
        <time>2016-08-25T08:42:23Z</time>
      </trkpt>
      <trkpt lat="45.9692" lon="4.7881">
        <ele>202</ele>
        <time>2016-08-25T08:42:24Z</time>
      </trkpt>
      <trkpt lat="45.96924" lon="4.78816">
        <ele>202</ele>
        <time>2016-08-25T08:42:25Z</time>
      </trkpt>
      <trkpt lat="45.96927" lon="4.78822">
        <ele>202</ele>
        <time>2016-08-25T08:42:26Z</time>
      </trkpt>
      <trkpt lat="45.96931" lon="4.78827">
        <ele>202</ele>
        <time>2016-08-25T08:42:27Z</time>
      </trkpt>
      <trkpt lat="45.96934" lon="4.78832">
        <ele>202</ele>
        <time>2016-08-25T08:42:28Z</time>
      </trkpt>
      <trkpt lat="45.96938" lon="4.78837">
        <ele>202</ele>
        <time>2016-08-25T08:42:29Z</time>
      </trkpt>
      <trkpt lat="45.96942" lon="4.78841">
        <ele>202</ele>
        <time>2016-08-25T08:42:30Z</time>
      </trkpt>
      <trkpt lat="45.96946" lon="4.78845">
        <ele>202</ele>
        <time>2016-08-25T08:42:31Z</time>
      </trkpt>
      <trkpt lat="45.9695" lon="4.78849">
        <ele>202</ele>
        <time>2016-08-25T08:42:32Z</time>
      </trkpt>
      <trkpt lat="45.96955" lon="4.78854">
        <ele>203</ele>
        <time>2016-08-25T08:42:33Z</time>
      </trkpt>
      <trkpt lat="45.96959" lon="4.78859">
        <ele>203</ele>
        <time>2016-08-25T08:42:34Z</time>
      </trkpt>
      <trkpt lat="45.96963" lon="4.78864">
        <ele>203</ele>
        <time>2016-08-25T08:42:35Z</time>
      </trkpt>
      <trkpt lat="45.96966" lon="4.78869">
        <ele>203</ele>
        <time>2016-08-25T08:42:36Z</time>
      </trkpt>
      <trkpt lat="45.9697" lon="4.78875">
        <ele>203</ele>
        <time>2016-08-25T08:42:37Z</time>
      </trkpt>
      <trkpt lat="45.96974" lon="4.78879">
        <ele>203</ele>
        <time>2016-08-25T08:42:38Z</time>
      </trkpt>
      <trkpt lat="45.96977" lon="4.78884">
        <ele>203</ele>
        <time>2016-08-25T08:42:39Z</time>
      </trkpt>
      <trkpt lat="45.96981" lon="4.78888">
        <ele>203</ele>
        <time>2016-08-25T08:42:40Z</time>
      </trkpt>
      <trkpt lat="45.96985" lon="4.78893">
        <ele>203</ele>
        <time>2016-08-25T08:42:41Z</time>
      </trkpt>
      <trkpt lat="45.96988" lon="4.78897">
        <ele>203</ele>
        <time>2016-08-25T08:42:42Z</time>
      </trkpt>
      <trkpt lat="45.96992" lon="4.78902">
        <ele>203</ele>
        <time>2016-08-25T08:42:43Z</time>
      </trkpt>
      <trkpt lat="45.96996" lon="4.78906">
        <ele>204</ele>
        <time>2016-08-25T08:42:44Z</time>
      </trkpt>
      <trkpt lat="45.96999" lon="4.78911">
        <ele>204</ele>
        <time>2016-08-25T08:42:45Z</time>
      </trkpt>
      <trkpt lat="45.97003" lon="4.78916">
        <ele>205</ele>
        <time>2016-08-25T08:42:46Z</time>
      </trkpt>
      <trkpt lat="45.97007" lon="4.7892">
        <ele>204</ele>
        <time>2016-08-25T08:42:47Z</time>
      </trkpt>
      <trkpt lat="45.9701" lon="4.78925">
        <ele>204</ele>
        <time>2016-08-25T08:42:48Z</time>
      </trkpt>
      <trkpt lat="45.97014" lon="4.7893">
        <ele>205</ele>
        <time>2016-08-25T08:42:49Z</time>
      </trkpt>
      <trkpt lat="45.97017" lon="4.78935">
        <ele>205</ele>
        <time>2016-08-25T08:42:50Z</time>
      </trkpt>
      <trkpt lat="45.9702" lon="4.7894">
        <ele>205</ele>
        <time>2016-08-25T08:42:51Z</time>
      </trkpt>
      <trkpt lat="45.97023" lon="4.78944">
        <ele>205</ele>
        <time>2016-08-25T08:42:52Z</time>
      </trkpt>
      <trkpt lat="45.97027" lon="4.78949">
        <ele>205</ele>
        <time>2016-08-25T08:42:53Z</time>
      </trkpt>
      <trkpt lat="45.9703" lon="4.78955">
        <ele>205</ele>
        <time>2016-08-25T08:42:54Z</time>
      </trkpt>
      <trkpt lat="45.97033" lon="4.7896">
        <ele>205</ele>
        <time>2016-08-25T08:42:55Z</time>
      </trkpt>
      <trkpt lat="45.97036" lon="4.78966">
        <ele>205</ele>
        <time>2016-08-25T08:42:56Z</time>
      </trkpt>
      <trkpt lat="45.97039" lon="4.78973">
        <ele>205</ele>
        <time>2016-08-25T08:42:57Z</time>
      </trkpt>
      <trkpt lat="45.97041" lon="4.7898">
        <ele>205</ele>
        <time>2016-08-25T08:42:58Z</time>
      </trkpt>
      <trkpt lat="45.97043" lon="4.78987">
        <ele>204</ele>
        <time>2016-08-25T08:42:59Z</time>
      </trkpt>
      <trkpt lat="45.97045" lon="4.78994">
        <ele>204</ele>
        <time>2016-08-25T08:43:00Z</time>
      </trkpt>
      <trkpt lat="45.97048" lon="4.78999">
        <ele>204</ele>
        <time>2016-08-25T08:43:01Z</time>
      </trkpt>
      <trkpt lat="45.9705" lon="4.79005">
        <ele>203</ele>
        <time>2016-08-25T08:43:02Z</time>
      </trkpt>
      <trkpt lat="45.97052" lon="4.79011">
        <ele>203</ele>
        <time>2016-08-25T08:43:03Z</time>
      </trkpt>
      <trkpt lat="45.97054" lon="4.79017">
        <ele>203</ele>
        <time>2016-08-25T08:43:04Z</time>
      </trkpt>
      <trkpt lat="45.97056" lon="4.79024">
        <ele>203</ele>
        <time>2016-08-25T08:43:05Z</time>
      </trkpt>
      <trkpt lat="45.97058" lon="4.79031">
        <ele>203</ele>
        <time>2016-08-25T08:43:06Z</time>
      </trkpt>
      <trkpt lat="45.97061" lon="4.79039">
        <ele>203</ele>
        <time>2016-08-25T08:43:07Z</time>
      </trkpt>
      <trkpt lat="45.97063" lon="4.79045">
        <ele>203</ele>
        <time>2016-08-25T08:43:08Z</time>
      </trkpt>
      <trkpt lat="45.97065" lon="4.79053">
        <ele>203</ele>
        <time>2016-08-25T08:43:09Z</time>
      </trkpt>
      <trkpt lat="45.97068" lon="4.7906">
        <ele>203</ele>
        <time>2016-08-25T08:43:10Z</time>
      </trkpt>
      <trkpt lat="45.9707" lon="4.79068">
        <ele>203</ele>
        <time>2016-08-25T08:43:11Z</time>
      </trkpt>
      <trkpt lat="45.97071" lon="4.79075">
        <ele>204</ele>
        <time>2016-08-25T08:43:12Z</time>
      </trkpt>
      <trkpt lat="45.97074" lon="4.79083">
        <ele>204</ele>
        <time>2016-08-25T08:43:13Z</time>
      </trkpt>
      <trkpt lat="45.97075" lon="4.79091">
        <ele>204</ele>
        <time>2016-08-25T08:43:14Z</time>
      </trkpt>
      <trkpt lat="45.97077" lon="4.79098">
        <ele>204</ele>
        <time>2016-08-25T08:43:15Z</time>
      </trkpt>
      <trkpt lat="45.97079" lon="4.79105">
        <ele>204</ele>
        <time>2016-08-25T08:43:16Z</time>
      </trkpt>
      <trkpt lat="45.97082" lon="4.79111">
        <ele>204</ele>
        <time>2016-08-25T08:43:17Z</time>
      </trkpt>
      <trkpt lat="45.97085" lon="4.79116">
        <ele>206</ele>
        <time>2016-08-25T08:43:18Z</time>
      </trkpt>
      <trkpt lat="45.97088" lon="4.79122">
        <ele>206</ele>
        <time>2016-08-25T08:43:19Z</time>
      </trkpt>
      <trkpt lat="45.97091" lon="4.79128">
        <ele>206</ele>
        <time>2016-08-25T08:43:20Z</time>
      </trkpt>
      <trkpt lat="45.97094" lon="4.79133">
        <ele>206</ele>
        <time>2016-08-25T08:43:21Z</time>
      </trkpt>
      <trkpt lat="45.97097" lon="4.79138">
        <ele>206</ele>
        <time>2016-08-25T08:43:22Z</time>
      </trkpt>
      <trkpt lat="45.971" lon="4.79144">
        <ele>206</ele>
        <time>2016-08-25T08:43:23Z</time>
      </trkpt>
      <trkpt lat="45.97103" lon="4.7915">
        <ele>206</ele>
        <time>2016-08-25T08:43:24Z</time>
      </trkpt>
      <trkpt lat="45.97106" lon="4.79156">
        <ele>206</ele>
        <time>2016-08-25T08:43:25Z</time>
      </trkpt>
      <trkpt lat="45.97109" lon="4.79163">
        <ele>206</ele>
        <time>2016-08-25T08:43:26Z</time>
      </trkpt>
      <trkpt lat="45.97112" lon="4.79169">
        <ele>205</ele>
        <time>2016-08-25T08:43:27Z</time>
      </trkpt>
      <trkpt lat="45.97115" lon="4.79176">
        <ele>206</ele>
        <time>2016-08-25T08:43:28Z</time>
      </trkpt>
      <trkpt lat="45.97118" lon="4.79182">
        <ele>206</ele>
        <time>2016-08-25T08:43:29Z</time>
      </trkpt>
      <trkpt lat="45.9712" lon="4.79188">
        <ele>206</ele>
        <time>2016-08-25T08:43:30Z</time>
      </trkpt>
      <trkpt lat="45.97124" lon="4.79195">
        <ele>206</ele>
        <time>2016-08-25T08:43:31Z</time>
      </trkpt>
      <trkpt lat="45.97126" lon="4.79201">
        <ele>206</ele>
        <time>2016-08-25T08:43:32Z</time>
      </trkpt>
      <trkpt lat="45.97129" lon="4.79208">
        <ele>206</ele>
        <time>2016-08-25T08:43:33Z</time>
      </trkpt>
      <trkpt lat="45.97132" lon="4.79215">
        <ele>206</ele>
        <time>2016-08-25T08:43:34Z</time>
      </trkpt>
      <trkpt lat="45.97135" lon="4.79222">
        <ele>205</ele>
        <time>2016-08-25T08:43:35Z</time>
      </trkpt>
      <trkpt lat="45.97137" lon="4.79229">
        <ele>205</ele>
        <time>2016-08-25T08:43:36Z</time>
      </trkpt>
      <trkpt lat="45.97139" lon="4.79235">
        <ele>205</ele>
        <time>2016-08-25T08:43:37Z</time>
      </trkpt>
      <trkpt lat="45.97142" lon="4.79241">
        <ele>205</ele>
        <time>2016-08-25T08:43:38Z</time>
      </trkpt>
      <trkpt lat="45.97145" lon="4.79247">
        <ele>205</ele>
        <time>2016-08-25T08:43:39Z</time>
      </trkpt>
      <trkpt lat="45.97147" lon="4.79253">
        <ele>204</ele>
        <time>2016-08-25T08:43:40Z</time>
      </trkpt>
      <trkpt lat="45.9715" lon="4.79258">
        <ele>204</ele>
        <time>2016-08-25T08:43:41Z</time>
      </trkpt>
      <trkpt lat="45.97152" lon="4.79265">
        <ele>204</ele>
        <time>2016-08-25T08:43:42Z</time>
      </trkpt>
      <trkpt lat="45.97155" lon="4.79272">
        <ele>204</ele>
        <time>2016-08-25T08:43:43Z</time>
      </trkpt>
      <trkpt lat="45.97157" lon="4.79279">
        <ele>204</ele>
        <time>2016-08-25T08:43:44Z</time>
      </trkpt>
      <trkpt lat="45.97159" lon="4.79286">
        <ele>204</ele>
        <time>2016-08-25T08:43:45Z</time>
      </trkpt>
      <trkpt lat="45.97162" lon="4.79293">
        <ele>204</ele>
        <time>2016-08-25T08:43:46Z</time>
      </trkpt>
      <trkpt lat="45.97164" lon="4.79301">
        <ele>204</ele>
        <time>2016-08-25T08:43:47Z</time>
      </trkpt>
      <trkpt lat="45.97167" lon="4.79308">
        <ele>207</ele>
        <time>2016-08-25T08:43:48Z</time>
      </trkpt>
      <trkpt lat="45.9717" lon="4.79314">
        <ele>207</ele>
        <time>2016-08-25T08:43:49Z</time>
      </trkpt>
      <trkpt lat="45.97173" lon="4.7932">
        <ele>206</ele>
        <time>2016-08-25T08:43:50Z</time>
      </trkpt>
      <trkpt lat="45.97177" lon="4.7933">
        <ele>206</ele>
        <time>2016-08-25T08:43:52Z</time>
      </trkpt>
      <trkpt lat="45.97179" lon="4.79335">
        <ele>206</ele>
        <time>2016-08-25T08:43:53Z</time>
      </trkpt>
      <trkpt lat="45.97184" lon="4.79345">
        <ele>207</ele>
        <time>2016-08-25T08:43:55Z</time>
      </trkpt>
      <trkpt lat="45.97186" lon="4.79351">
        <ele>207</ele>
        <time>2016-08-25T08:43:56Z</time>
      </trkpt>
      <trkpt lat="45.97189" lon="4.79357">
        <ele>207</ele>
        <time>2016-08-25T08:43:57Z</time>
      </trkpt>
      <trkpt lat="45.97191" lon="4.79363">
        <ele>207</ele>
        <time>2016-08-25T08:43:58Z</time>
      </trkpt>
      <trkpt lat="45.97194" lon="4.7937">
        <ele>207</ele>
        <time>2016-08-25T08:43:59Z</time>
      </trkpt>
      <trkpt lat="45.97197" lon="4.79377">
        <ele>207</ele>
        <time>2016-08-25T08:44:00Z</time>
      </trkpt>
      <trkpt lat="45.97199" lon="4.79383">
        <ele>207</ele>
        <time>2016-08-25T08:44:01Z</time>
      </trkpt>
      <trkpt lat="45.97201" lon="4.79389">
        <ele>207</ele>
        <time>2016-08-25T08:44:02Z</time>
      </trkpt>
      <trkpt lat="45.97206" lon="4.794">
        <ele>208</ele>
        <time>2016-08-25T08:44:04Z</time>
      </trkpt>
      <trkpt lat="45.97208" lon="4.79406">
        <ele>208</ele>
        <time>2016-08-25T08:44:05Z</time>
      </trkpt>
      <trkpt lat="45.97211" lon="4.79412">
        <ele>208</ele>
        <time>2016-08-25T08:44:06Z</time>
      </trkpt>
      <trkpt lat="45.97213" lon="4.79418">
        <ele>208</ele>
        <time>2016-08-25T08:44:07Z</time>
      </trkpt>
      <trkpt lat="45.97215" lon="4.79424">
        <ele>208</ele>
        <time>2016-08-25T08:44:08Z</time>
      </trkpt>
      <trkpt lat="45.97218" lon="4.79429">
        <ele>208</ele>
        <time>2016-08-25T08:44:09Z</time>
      </trkpt>
      <trkpt lat="45.97221" lon="4.79435">
        <ele>208</ele>
        <time>2016-08-25T08:44:10Z</time>
      </trkpt>
      <trkpt lat="45.97223" lon="4.79441">
        <ele>209</ele>
        <time>2016-08-25T08:44:11Z</time>
      </trkpt>
      <trkpt lat="45.97225" lon="4.79447">
        <ele>209</ele>
        <time>2016-08-25T08:44:12Z</time>
      </trkpt>
      <trkpt lat="45.97227" lon="4.79453">
        <ele>209</ele>
        <time>2016-08-25T08:44:13Z</time>
      </trkpt>
      <trkpt lat="45.97229" lon="4.7946">
        <ele>209</ele>
        <time>2016-08-25T08:44:14Z</time>
      </trkpt>
      <trkpt lat="45.97231" lon="4.79467">
        <ele>209</ele>
        <time>2016-08-25T08:44:15Z</time>
      </trkpt>
      <trkpt lat="45.97233" lon="4.79475">
        <ele>209</ele>
        <time>2016-08-25T08:44:16Z</time>
      </trkpt>
      <trkpt lat="45.97235" lon="4.79482">
        <ele>209</ele>
        <time>2016-08-25T08:44:17Z</time>
      </trkpt>
      <trkpt lat="45.97237" lon="4.79489">
        <ele>210</ele>
        <time>2016-08-25T08:44:18Z</time>
      </trkpt>
      <trkpt lat="45.97238" lon="4.79495">
        <ele>210</ele>
        <time>2016-08-25T08:44:19Z</time>
      </trkpt>
      <trkpt lat="45.9724" lon="4.79507">
        <ele>210</ele>
        <time>2016-08-25T08:44:21Z</time>
      </trkpt>
      <trkpt lat="45.97241" lon="4.79513">
        <ele>210</ele>
        <time>2016-08-25T08:44:22Z</time>
      </trkpt>
      <trkpt lat="45.97242" lon="4.79519">
        <ele>210</ele>
        <time>2016-08-25T08:44:23Z</time>
      </trkpt>
      <trkpt lat="45.97243" lon="4.79526">
        <ele>210</ele>
        <time>2016-08-25T08:44:24Z</time>
      </trkpt>
      <trkpt lat="45.97246" lon="4.79537">
        <ele>210</ele>
        <time>2016-08-25T08:44:26Z</time>
      </trkpt>
      <trkpt lat="45.97246" lon="4.79543">
        <ele>210</ele>
        <time>2016-08-25T08:44:27Z</time>
      </trkpt>
      <trkpt lat="45.97247" lon="4.7955">
        <ele>210</ele>
        <time>2016-08-25T08:44:28Z</time>
      </trkpt>
      <trkpt lat="45.97248" lon="4.79556">
        <ele>210</ele>
        <time>2016-08-25T08:44:29Z</time>
      </trkpt>
      <trkpt lat="45.97249" lon="4.79563">
        <ele>210</ele>
        <time>2016-08-25T08:44:30Z</time>
      </trkpt>
      <trkpt lat="45.97249" lon="4.79571">
        <ele>210</ele>
        <time>2016-08-25T08:44:31Z</time>
      </trkpt>
      <trkpt lat="45.97249" lon="4.79578">
        <ele>210</ele>
        <time>2016-08-25T08:44:32Z</time>
      </trkpt>
      <trkpt lat="45.97249" lon="4.79585">
        <ele>210</ele>
        <time>2016-08-25T08:44:33Z</time>
      </trkpt>
      <trkpt lat="45.97248" lon="4.79592">
        <ele>210</ele>
        <time>2016-08-25T08:44:34Z</time>
      </trkpt>
      <trkpt lat="45.97248" lon="4.79599">
        <ele>209</ele>
        <time>2016-08-25T08:44:35Z</time>
      </trkpt>
      <trkpt lat="45.97248" lon="4.79606">
        <ele>209</ele>
        <time>2016-08-25T08:44:36Z</time>
      </trkpt>
      <trkpt lat="45.97248" lon="4.79612">
        <ele>209</ele>
        <time>2016-08-25T08:44:37Z</time>
      </trkpt>
      <trkpt lat="45.97248" lon="4.79619">
        <ele>209</ele>
        <time>2016-08-25T08:44:38Z</time>
      </trkpt>
      <trkpt lat="45.97248" lon="4.79626">
        <ele>209</ele>
        <time>2016-08-25T08:44:39Z</time>
      </trkpt>
      <trkpt lat="45.97248" lon="4.79632">
        <ele>209</ele>
        <time>2016-08-25T08:44:40Z</time>
      </trkpt>
      <trkpt lat="45.97249" lon="4.79639">
        <ele>208</ele>
        <time>2016-08-25T08:44:41Z</time>
      </trkpt>
      <trkpt lat="45.97249" lon="4.79645">
        <ele>208</ele>
        <time>2016-08-25T08:44:42Z</time>
      </trkpt>
      <trkpt lat="45.97249" lon="4.79652">
        <ele>208</ele>
        <time>2016-08-25T08:44:43Z</time>
      </trkpt>
      <trkpt lat="45.97248" lon="4.79659">
        <ele>208</ele>
        <time>2016-08-25T08:44:44Z</time>
      </trkpt>
      <trkpt lat="45.97247" lon="4.79667">
        <ele>208</ele>
        <time>2016-08-25T08:44:45Z</time>
      </trkpt>
      <trkpt lat="45.97246" lon="4.79674">
        <ele>208</ele>
        <time>2016-08-25T08:44:46Z</time>
      </trkpt>
      <trkpt lat="45.97245" lon="4.79681">
        <ele>208</ele>
        <time>2016-08-25T08:44:47Z</time>
      </trkpt>
      <trkpt lat="45.97244" lon="4.79688">
        <ele>208</ele>
        <time>2016-08-25T08:44:48Z</time>
      </trkpt>
      <trkpt lat="45.97243" lon="4.79695">
        <ele>208</ele>
        <time>2016-08-25T08:44:49Z</time>
      </trkpt>
      <trkpt lat="45.97242" lon="4.79703">
        <ele>208</ele>
        <time>2016-08-25T08:44:50Z</time>
      </trkpt>
      <trkpt lat="45.97242" lon="4.7971">
        <ele>209</ele>
        <time>2016-08-25T08:44:51Z</time>
      </trkpt>
      <trkpt lat="45.97242" lon="4.79717">
        <ele>209</ele>
        <time>2016-08-25T08:44:52Z</time>
      </trkpt>
      <trkpt lat="45.97241" lon="4.79725">
        <ele>209</ele>
        <time>2016-08-25T08:44:53Z</time>
      </trkpt>
      <trkpt lat="45.9724" lon="4.79732">
        <ele>209</ele>
        <time>2016-08-25T08:44:54Z</time>
      </trkpt>
      <trkpt lat="45.97238" lon="4.79739">
        <ele>209</ele>
        <time>2016-08-25T08:44:55Z</time>
      </trkpt>
      <trkpt lat="45.97237" lon="4.79745">
        <ele>209</ele>
        <time>2016-08-25T08:44:56Z</time>
      </trkpt>
      <trkpt lat="45.97236" lon="4.79751">
        <ele>209</ele>
        <time>2016-08-25T08:44:57Z</time>
      </trkpt>
      <trkpt lat="45.97235" lon="4.79764">
        <ele>209</ele>
        <time>2016-08-25T08:44:59Z</time>
      </trkpt>
      <trkpt lat="45.97235" lon="4.7977">
        <ele>210</ele>
        <time>2016-08-25T08:45:00Z</time>
      </trkpt>
      <trkpt lat="45.97235" lon="4.79783">
        <ele>210</ele>
        <time>2016-08-25T08:45:02Z</time>
      </trkpt>
      <trkpt lat="45.97235" lon="4.7979">
        <ele>210</ele>
        <time>2016-08-25T08:45:03Z</time>
      </trkpt>
      <trkpt lat="45.97234" lon="4.79797">
        <ele>210</ele>
        <time>2016-08-25T08:45:04Z</time>
      </trkpt>
      <trkpt lat="45.97233" lon="4.79804">
        <ele>210</ele>
        <time>2016-08-25T08:45:05Z</time>
      </trkpt>
      <trkpt lat="45.97233" lon="4.79812">
        <ele>210</ele>
        <time>2016-08-25T08:45:06Z</time>
      </trkpt>
      <trkpt lat="45.97233" lon="4.79819">
        <ele>211</ele>
        <time>2016-08-25T08:45:07Z</time>
      </trkpt>
      <trkpt lat="45.97233" lon="4.79826">
        <ele>211</ele>
        <time>2016-08-25T08:45:08Z</time>
      </trkpt>
      <trkpt lat="45.97234" lon="4.79833">
        <ele>211</ele>
        <time>2016-08-25T08:45:09Z</time>
      </trkpt>
      <trkpt lat="45.97235" lon="4.79845">
        <ele>211</ele>
        <time>2016-08-25T08:45:11Z</time>
      </trkpt>
      <trkpt lat="45.97236" lon="4.79851">
        <ele>211</ele>
        <time>2016-08-25T08:45:12Z</time>
      </trkpt>
      <trkpt lat="45.9724" lon="4.79862">
        <ele>211</ele>
        <time>2016-08-25T08:45:14Z</time>
      </trkpt>
      <trkpt lat="45.97241" lon="4.79867">
        <ele>211</ele>
        <time>2016-08-25T08:45:15Z</time>
      </trkpt>
      <trkpt lat="45.97243" lon="4.79877">
        <ele>211</ele>
        <time>2016-08-25T08:45:17Z</time>
      </trkpt>
      <trkpt lat="45.97245" lon="4.79881">
        <ele>211</ele>
        <time>2016-08-25T08:45:18Z</time>
      </trkpt>
      <trkpt lat="45.97248" lon="4.7989">
        <ele>211</ele>
        <time>2016-08-25T08:45:20Z</time>
      </trkpt>
      <trkpt lat="45.97248" lon="4.79894">
        <ele>211</ele>
        <time>2016-08-25T08:45:21Z</time>
      </trkpt>
      <trkpt lat="45.9725" lon="4.79902">
        <ele>212</ele>
        <time>2016-08-25T08:45:24Z</time>
      </trkpt>
      <trkpt lat="45.9725" lon="4.79903">
        <ele>213</ele>
        <time>2016-08-25T08:45:25Z</time>
      </trkpt>
      <trkpt lat="45.9725" lon="4.79909">
        <ele>212</ele>
        <time>2016-08-25T08:45:29Z</time>
      </trkpt>
      <trkpt lat="45.97252" lon="4.79914">
        <ele>212</ele>
        <time>2016-08-25T08:45:30Z</time>
      </trkpt>
      <trkpt lat="45.97258" lon="4.79916">
        <ele>212</ele>
        <time>2016-08-25T08:45:32Z</time>
      </trkpt>
      <trkpt lat="45.97262" lon="4.79916">
        <ele>213</ele>
        <time>2016-08-25T08:45:33Z</time>
      </trkpt>
      <trkpt lat="45.97269" lon="4.79916">
        <ele>213</ele>
        <time>2016-08-25T08:45:35Z</time>
      </trkpt>
      <trkpt lat="45.97273" lon="4.79915">
        <ele>213</ele>
        <time>2016-08-25T08:45:36Z</time>
      </trkpt>
      <trkpt lat="45.97281" lon="4.79913">
        <ele>213</ele>
        <time>2016-08-25T08:45:38Z</time>
      </trkpt>
      <trkpt lat="45.97285" lon="4.79912">
        <ele>213</ele>
        <time>2016-08-25T08:45:39Z</time>
      </trkpt>
      <trkpt lat="45.97294" lon="4.7991">
        <ele>213</ele>
        <time>2016-08-25T08:45:41Z</time>
      </trkpt>
      <trkpt lat="45.97299" lon="4.7991">
        <ele>213</ele>
        <time>2016-08-25T08:45:42Z</time>
      </trkpt>
      <trkpt lat="45.97307" lon="4.79908">
        <ele>213</ele>
        <time>2016-08-25T08:45:44Z</time>
      </trkpt>
      <trkpt lat="45.97312" lon="4.79907">
        <ele>213</ele>
        <time>2016-08-25T08:45:45Z</time>
      </trkpt>
      <trkpt lat="45.97316" lon="4.79906">
        <ele>213</ele>
        <time>2016-08-25T08:45:46Z</time>
      </trkpt>
      <trkpt lat="45.97321" lon="4.79905">
        <ele>213</ele>
        <time>2016-08-25T08:45:47Z</time>
      </trkpt>
      <trkpt lat="45.97325" lon="4.79905">
        <ele>213</ele>
        <time>2016-08-25T08:45:48Z</time>
      </trkpt>
      <trkpt lat="45.9733" lon="4.79904">
        <ele>213</ele>
        <time>2016-08-25T08:45:49Z</time>
      </trkpt>
      <trkpt lat="45.97335" lon="4.79903">
        <ele>215</ele>
        <time>2016-08-25T08:45:50Z</time>
      </trkpt>
      <trkpt lat="45.9734" lon="4.79903">
        <ele>215</ele>
        <time>2016-08-25T08:45:51Z</time>
      </trkpt>
      <trkpt lat="45.97344" lon="4.79902">
        <ele>215</ele>
        <time>2016-08-25T08:45:52Z</time>
      </trkpt>
      <trkpt lat="45.97349" lon="4.79902">
        <ele>216</ele>
        <time>2016-08-25T08:45:53Z</time>
      </trkpt>
      <trkpt lat="45.97356" lon="4.799">
        <ele>216</ele>
        <time>2016-08-25T08:45:55Z</time>
      </trkpt>
      <trkpt lat="45.9736" lon="4.79899">
        <ele>216</ele>
        <time>2016-08-25T08:45:56Z</time>
      </trkpt>
      <trkpt lat="45.97368" lon="4.79898">
        <ele>217</ele>
        <time>2016-08-25T08:45:58Z</time>
      </trkpt>
      <trkpt lat="45.97372" lon="4.79897">
        <ele>217</ele>
        <time>2016-08-25T08:45:59Z</time>
      </trkpt>
      <trkpt lat="45.9738" lon="4.79895">
        <ele>217</ele>
        <time>2016-08-25T08:46:01Z</time>
      </trkpt>
      <trkpt lat="45.97384" lon="4.79895">
        <ele>217</ele>
        <time>2016-08-25T08:46:02Z</time>
      </trkpt>
      <trkpt lat="45.97393" lon="4.79894">
        <ele>217</ele>
        <time>2016-08-25T08:46:04Z</time>
      </trkpt>
      <trkpt lat="45.97396" lon="4.79894">
        <ele>217</ele>
        <time>2016-08-25T08:46:05Z</time>
      </trkpt>
      <trkpt lat="45.97404" lon="4.79893">
        <ele>217</ele>
        <time>2016-08-25T08:46:07Z</time>
      </trkpt>
      <trkpt lat="45.97408" lon="4.79893">
        <ele>217</ele>
        <time>2016-08-25T08:46:08Z</time>
      </trkpt>
      <trkpt lat="45.97415" lon="4.79891">
        <ele>218</ele>
        <time>2016-08-25T08:46:10Z</time>
      </trkpt>
      <trkpt lat="45.97419" lon="4.7989">
        <ele>220</ele>
        <time>2016-08-25T08:46:11Z</time>
      </trkpt>
      <trkpt lat="45.97427" lon="4.7989">
        <ele>220</ele>
        <time>2016-08-25T08:46:13Z</time>
      </trkpt>
      <trkpt lat="45.97431" lon="4.79891">
        <ele>220</ele>
        <time>2016-08-25T08:46:14Z</time>
      </trkpt>
      <trkpt lat="45.97439" lon="4.79891">
        <ele>220</ele>
        <time>2016-08-25T08:46:16Z</time>
      </trkpt>
      <trkpt lat="45.97443" lon="4.79893">
        <ele>220</ele>
        <time>2016-08-25T08:46:17Z</time>
      </trkpt>
      <trkpt lat="45.97452" lon="4.79893">
        <ele>220</ele>
        <time>2016-08-25T08:46:19Z</time>
      </trkpt>
      <trkpt lat="45.97456" lon="4.79892">
        <ele>220</ele>
        <time>2016-08-25T08:46:20Z</time>
      </trkpt>
      <trkpt lat="45.97464" lon="4.79891">
        <ele>221</ele>
        <time>2016-08-25T08:46:22Z</time>
      </trkpt>
      <trkpt lat="45.97468" lon="4.79891">
        <ele>221</ele>
        <time>2016-08-25T08:46:23Z</time>
      </trkpt>
      <trkpt lat="45.97476" lon="4.79891">
        <ele>221</ele>
        <time>2016-08-25T08:46:25Z</time>
      </trkpt>
      <trkpt lat="45.9748" lon="4.7989">
        <ele>221</ele>
        <time>2016-08-25T08:46:26Z</time>
      </trkpt>
      <trkpt lat="45.97488" lon="4.79889">
        <ele>221</ele>
        <time>2016-08-25T08:46:28Z</time>
      </trkpt>
      <trkpt lat="45.97492" lon="4.79889">
        <ele>221</ele>
        <time>2016-08-25T08:46:29Z</time>
      </trkpt>
      <trkpt lat="45.975" lon="4.79889">
        <ele>221</ele>
        <time>2016-08-25T08:46:31Z</time>
      </trkpt>
      <trkpt lat="45.97503" lon="4.79889">
        <ele>221</ele>
        <time>2016-08-25T08:46:32Z</time>
      </trkpt>
      <trkpt lat="45.9751" lon="4.79888">
        <ele>221</ele>
        <time>2016-08-25T08:46:34Z</time>
      </trkpt>
      <trkpt lat="45.97513" lon="4.79888">
        <ele>221</ele>
        <time>2016-08-25T08:46:35Z</time>
      </trkpt>
      <trkpt lat="45.9752" lon="4.79888">
        <ele>221</ele>
        <time>2016-08-25T08:46:37Z</time>
      </trkpt>
      <trkpt lat="45.97523" lon="4.79887">
        <ele>221</ele>
        <time>2016-08-25T08:46:38Z</time>
      </trkpt>
      <trkpt lat="45.97531" lon="4.79887">
        <ele>221</ele>
        <time>2016-08-25T08:46:40Z</time>
      </trkpt>
      <trkpt lat="45.97534" lon="4.79886">
        <ele>221</ele>
        <time>2016-08-25T08:46:41Z</time>
      </trkpt>
      <trkpt lat="45.97541" lon="4.79884">
        <ele>221</ele>
        <time>2016-08-25T08:46:43Z</time>
      </trkpt>
      <trkpt lat="45.97545" lon="4.79882">
        <ele>221</ele>
        <time>2016-08-25T08:46:44Z</time>
      </trkpt>
      <trkpt lat="45.97552" lon="4.7988">
        <ele>222</ele>
        <time>2016-08-25T08:46:46Z</time>
      </trkpt>
      <trkpt lat="45.97556" lon="4.79879">
        <ele>221</ele>
        <time>2016-08-25T08:46:47Z</time>
      </trkpt>
      <trkpt lat="45.97563" lon="4.79878">
        <ele>221</ele>
        <time>2016-08-25T08:46:49Z</time>
      </trkpt>
      <trkpt lat="45.97566" lon="4.79877">
        <ele>221</ele>
        <time>2016-08-25T08:46:50Z</time>
      </trkpt>
      <trkpt lat="45.97573" lon="4.79875">
        <ele>222</ele>
        <time>2016-08-25T08:46:52Z</time>
      </trkpt>
      <trkpt lat="45.97576" lon="4.79874">
        <ele>222</ele>
        <time>2016-08-25T08:46:53Z</time>
      </trkpt>
      <trkpt lat="45.97583" lon="4.79872">
        <ele>222</ele>
        <time>2016-08-25T08:46:55Z</time>
      </trkpt>
      <trkpt lat="45.97586" lon="4.7987">
        <ele>221</ele>
        <time>2016-08-25T08:46:56Z</time>
      </trkpt>
      <trkpt lat="45.97594" lon="4.79868">
        <ele>221</ele>
        <time>2016-08-25T08:46:58Z</time>
      </trkpt>
      <trkpt lat="45.97598" lon="4.79867">
        <ele>221</ele>
        <time>2016-08-25T08:46:59Z</time>
      </trkpt>
      <trkpt lat="45.97605" lon="4.79864">
        <ele>221</ele>
        <time>2016-08-25T08:47:01Z</time>
      </trkpt>
      <trkpt lat="45.97608" lon="4.79862">
        <ele>221</ele>
        <time>2016-08-25T08:47:02Z</time>
      </trkpt>
      <trkpt lat="45.97615" lon="4.79859">
        <ele>221</ele>
        <time>2016-08-25T08:47:04Z</time>
      </trkpt>
      <trkpt lat="45.97618" lon="4.79858">
        <ele>221</ele>
        <time>2016-08-25T08:47:05Z</time>
      </trkpt>
      <trkpt lat="45.97625" lon="4.79855">
        <ele>221</ele>
        <time>2016-08-25T08:47:07Z</time>
      </trkpt>
      <trkpt lat="45.97629" lon="4.79854">
        <ele>221</ele>
        <time>2016-08-25T08:47:08Z</time>
      </trkpt>
      <trkpt lat="45.97637" lon="4.7985">
        <ele>221</ele>
        <time>2016-08-25T08:47:10Z</time>
      </trkpt>
      <trkpt lat="45.9764" lon="4.79849">
        <ele>221</ele>
        <time>2016-08-25T08:47:11Z</time>
      </trkpt>
      <trkpt lat="45.97648" lon="4.79846">
        <ele>221</ele>
        <time>2016-08-25T08:47:13Z</time>
      </trkpt>
      <trkpt lat="45.97651" lon="4.79844">
        <ele>221</ele>
        <time>2016-08-25T08:47:14Z</time>
      </trkpt>
      <trkpt lat="45.97655" lon="4.79843">
        <ele>221</ele>
        <time>2016-08-25T08:47:15Z</time>
      </trkpt>
      <trkpt lat="45.9766" lon="4.79842">
        <ele>221</ele>
        <time>2016-08-25T08:47:16Z</time>
      </trkpt>
      <trkpt lat="45.97669" lon="4.7984">
        <ele>221</ele>
        <time>2016-08-25T08:47:18Z</time>
      </trkpt>
      <trkpt lat="45.97673" lon="4.7984">
        <ele>221</ele>
        <time>2016-08-25T08:47:19Z</time>
      </trkpt>
      <trkpt lat="45.97681" lon="4.79837">
        <ele>221</ele>
        <time>2016-08-25T08:47:21Z</time>
      </trkpt>
      <trkpt lat="45.97686" lon="4.79836">
        <ele>221</ele>
        <time>2016-08-25T08:47:22Z</time>
      </trkpt>
      <trkpt lat="45.97694" lon="4.79833">
        <ele>223</ele>
        <time>2016-08-25T08:47:24Z</time>
      </trkpt>
      <trkpt lat="45.97699" lon="4.79832">
        <ele>223</ele>
        <time>2016-08-25T08:47:25Z</time>
      </trkpt>
      <trkpt lat="45.97703" lon="4.79831">
        <ele>223</ele>
        <time>2016-08-25T08:47:26Z</time>
      </trkpt>
      <trkpt lat="45.97708" lon="4.7983">
        <ele>223</ele>
        <time>2016-08-25T08:47:27Z</time>
      </trkpt>
      <trkpt lat="45.97713" lon="4.7983">
        <ele>223</ele>
        <time>2016-08-25T08:47:28Z</time>
      </trkpt>
      <trkpt lat="45.97719" lon="4.79829">
        <ele>223</ele>
        <time>2016-08-25T08:47:29Z</time>
      </trkpt>
      <trkpt lat="45.97724" lon="4.79827">
        <ele>223</ele>
        <time>2016-08-25T08:47:30Z</time>
      </trkpt>
      <trkpt lat="45.97729" lon="4.79826">
        <ele>223</ele>
        <time>2016-08-25T08:47:31Z</time>
      </trkpt>
      <trkpt lat="45.97735" lon="4.79825">
        <ele>223</ele>
        <time>2016-08-25T08:47:32Z</time>
      </trkpt>
      <trkpt lat="45.9774" lon="4.79824">
        <ele>223</ele>
        <time>2016-08-25T08:47:33Z</time>
      </trkpt>
      <trkpt lat="45.97745" lon="4.79823">
        <ele>223</ele>
        <time>2016-08-25T08:47:34Z</time>
      </trkpt>
      <trkpt lat="45.9775" lon="4.79822">
        <ele>222</ele>
        <time>2016-08-25T08:47:35Z</time>
      </trkpt>
      <trkpt lat="45.97756" lon="4.79822">
        <ele>223</ele>
        <time>2016-08-25T08:47:36Z</time>
      </trkpt>
      <trkpt lat="45.97761" lon="4.79821">
        <ele>223</ele>
        <time>2016-08-25T08:47:37Z</time>
      </trkpt>
      <trkpt lat="45.97767" lon="4.7982">
        <ele>223</ele>
        <time>2016-08-25T08:47:38Z</time>
      </trkpt>
      <trkpt lat="45.97772" lon="4.79819">
        <ele>223</ele>
        <time>2016-08-25T08:47:39Z</time>
      </trkpt>
      <trkpt lat="45.97777" lon="4.79818">
        <ele>223</ele>
        <time>2016-08-25T08:47:40Z</time>
      </trkpt>
      <trkpt lat="45.97783" lon="4.79817">
        <ele>223</ele>
        <time>2016-08-25T08:47:41Z</time>
      </trkpt>
      <trkpt lat="45.97789" lon="4.79816">
        <ele>223</ele>
        <time>2016-08-25T08:47:42Z</time>
      </trkpt>
      <trkpt lat="45.97794" lon="4.79815">
        <ele>223</ele>
        <time>2016-08-25T08:47:43Z</time>
      </trkpt>
      <trkpt lat="45.978" lon="4.79813">
        <ele>223</ele>
        <time>2016-08-25T08:47:44Z</time>
      </trkpt>
      <trkpt lat="45.97805" lon="4.79813">
        <ele>223</ele>
        <time>2016-08-25T08:47:45Z</time>
      </trkpt>
      <trkpt lat="45.97811" lon="4.79812">
        <ele>223</ele>
        <time>2016-08-25T08:47:46Z</time>
      </trkpt>
      <trkpt lat="45.97816" lon="4.79811">
        <ele>223</ele>
        <time>2016-08-25T08:47:47Z</time>
      </trkpt>
      <trkpt lat="45.97821" lon="4.7981">
        <ele>223</ele>
        <time>2016-08-25T08:47:48Z</time>
      </trkpt>
      <trkpt lat="45.97825" lon="4.79809">
        <ele>223</ele>
        <time>2016-08-25T08:47:49Z</time>
      </trkpt>
      <trkpt lat="45.9783" lon="4.79808">
        <ele>223</ele>
        <time>2016-08-25T08:47:50Z</time>
      </trkpt>
      <trkpt lat="45.97835" lon="4.79807">
        <ele>224</ele>
        <time>2016-08-25T08:47:51Z</time>
      </trkpt>
      <trkpt lat="45.97839" lon="4.79806">
        <ele>224</ele>
        <time>2016-08-25T08:47:52Z</time>
      </trkpt>
      <trkpt lat="45.97845" lon="4.79805">
        <ele>224</ele>
        <time>2016-08-25T08:47:53Z</time>
      </trkpt>
      <trkpt lat="45.9785" lon="4.79805">
        <ele>224</ele>
        <time>2016-08-25T08:47:54Z</time>
      </trkpt>
      <trkpt lat="45.97855" lon="4.79803">
        <ele>224</ele>
        <time>2016-08-25T08:47:55Z</time>
      </trkpt>
      <trkpt lat="45.9786" lon="4.79803">
        <ele>224</ele>
        <time>2016-08-25T08:47:56Z</time>
      </trkpt>
      <trkpt lat="45.97865" lon="4.79802">
        <ele>224</ele>
        <time>2016-08-25T08:47:57Z</time>
      </trkpt>
      <trkpt lat="45.97869" lon="4.79801">
        <ele>224</ele>
        <time>2016-08-25T08:47:58Z</time>
      </trkpt>
      <trkpt lat="45.97874" lon="4.798">
        <ele>224</ele>
        <time>2016-08-25T08:47:59Z</time>
      </trkpt>
      <trkpt lat="45.97879" lon="4.79799">
        <ele>224</ele>
        <time>2016-08-25T08:48:00Z</time>
      </trkpt>
      <trkpt lat="45.97883" lon="4.79798">
        <ele>224</ele>
        <time>2016-08-25T08:48:01Z</time>
      </trkpt>
      <trkpt lat="45.97892" lon="4.79796">
        <ele>224</ele>
        <time>2016-08-25T08:48:03Z</time>
      </trkpt>
      <trkpt lat="45.97896" lon="4.79796">
        <ele>224</ele>
        <time>2016-08-25T08:48:04Z</time>
      </trkpt>
      <trkpt lat="45.97901" lon="4.79795">
        <ele>224</ele>
        <time>2016-08-25T08:48:05Z</time>
      </trkpt>
      <trkpt lat="45.97905" lon="4.79794">
        <ele>224</ele>
        <time>2016-08-25T08:48:06Z</time>
      </trkpt>
      <trkpt lat="45.9791" lon="4.79793">
        <ele>224</ele>
        <time>2016-08-25T08:48:07Z</time>
      </trkpt>
      <trkpt lat="45.97915" lon="4.79792">
        <ele>225</ele>
        <time>2016-08-25T08:48:08Z</time>
      </trkpt>
      <trkpt lat="45.97921" lon="4.79791">
        <ele>224</ele>
        <time>2016-08-25T08:48:09Z</time>
      </trkpt>
      <trkpt lat="45.97926" lon="4.7979">
        <ele>224</ele>
        <time>2016-08-25T08:48:10Z</time>
      </trkpt>
      <trkpt lat="45.97932" lon="4.79789">
        <ele>224</ele>
        <time>2016-08-25T08:48:11Z</time>
      </trkpt>
      <trkpt lat="45.97937" lon="4.79788">
        <ele>224</ele>
        <time>2016-08-25T08:48:12Z</time>
      </trkpt>
      <trkpt lat="45.97942" lon="4.79787">
        <ele>224</ele>
        <time>2016-08-25T08:48:13Z</time>
      </trkpt>
      <trkpt lat="45.97948" lon="4.79786">
        <ele>224</ele>
        <time>2016-08-25T08:48:14Z</time>
      </trkpt>
      <trkpt lat="45.97953" lon="4.79785">
        <ele>224</ele>
        <time>2016-08-25T08:48:15Z</time>
      </trkpt>
      <trkpt lat="45.97957" lon="4.79784">
        <ele>224</ele>
        <time>2016-08-25T08:48:16Z</time>
      </trkpt>
      <trkpt lat="45.97962" lon="4.79784">
        <ele>224</ele>
        <time>2016-08-25T08:48:17Z</time>
      </trkpt>
      <trkpt lat="45.97968" lon="4.79783">
        <ele>224</ele>
        <time>2016-08-25T08:48:18Z</time>
      </trkpt>
      <trkpt lat="45.97973" lon="4.79782">
        <ele>224</ele>
        <time>2016-08-25T08:48:19Z</time>
      </trkpt>
      <trkpt lat="45.97978" lon="4.79782">
        <ele>224</ele>
        <time>2016-08-25T08:48:20Z</time>
      </trkpt>
      <trkpt lat="45.97983" lon="4.79782">
        <ele>224</ele>
        <time>2016-08-25T08:48:21Z</time>
      </trkpt>
      <trkpt lat="45.97989" lon="4.79783">
        <ele>224</ele>
        <time>2016-08-25T08:48:22Z</time>
      </trkpt>
      <trkpt lat="45.97995" lon="4.79782">
        <ele>224</ele>
        <time>2016-08-25T08:48:23Z</time>
      </trkpt>
      <trkpt lat="45.98" lon="4.79782">
        <ele>223</ele>
        <time>2016-08-25T08:48:24Z</time>
      </trkpt>
      <trkpt lat="45.98006" lon="4.79781">
        <ele>223</ele>
        <time>2016-08-25T08:48:25Z</time>
      </trkpt>
      <trkpt lat="45.98012" lon="4.79781">
        <ele>223</ele>
        <time>2016-08-25T08:48:26Z</time>
      </trkpt>
      <trkpt lat="45.98018" lon="4.7978">
        <ele>223</ele>
        <time>2016-08-25T08:48:27Z</time>
      </trkpt>
      <trkpt lat="45.98023" lon="4.79779">
        <ele>223</ele>
        <time>2016-08-25T08:48:28Z</time>
      </trkpt>
      <trkpt lat="45.98028" lon="4.79778">
        <ele>223</ele>
        <time>2016-08-25T08:48:29Z</time>
      </trkpt>
      <trkpt lat="45.98033" lon="4.79778">
        <ele>223</ele>
        <time>2016-08-25T08:48:30Z</time>
      </trkpt>
      <trkpt lat="45.98038" lon="4.79777">
        <ele>223</ele>
        <time>2016-08-25T08:48:31Z</time>
      </trkpt>
      <trkpt lat="45.98044" lon="4.79777">
        <ele>223</ele>
        <time>2016-08-25T08:48:32Z</time>
      </trkpt>
      <trkpt lat="45.9805" lon="4.79776">
        <ele>223</ele>
        <time>2016-08-25T08:48:33Z</time>
      </trkpt>
      <trkpt lat="45.98056" lon="4.79775">
        <ele>223</ele>
        <time>2016-08-25T08:48:34Z</time>
      </trkpt>
      <trkpt lat="45.98062" lon="4.79774">
        <ele>223</ele>
        <time>2016-08-25T08:48:35Z</time>
      </trkpt>
      <trkpt lat="45.98067" lon="4.79773">
        <ele>223</ele>
        <time>2016-08-25T08:48:36Z</time>
      </trkpt>
      <trkpt lat="45.98072" lon="4.79772">
        <ele>223</ele>
        <time>2016-08-25T08:48:37Z</time>
      </trkpt>
      <trkpt lat="45.98077" lon="4.79771">
        <ele>223</ele>
        <time>2016-08-25T08:48:38Z</time>
      </trkpt>
      <trkpt lat="45.98083" lon="4.7977">
        <ele>223</ele>
        <time>2016-08-25T08:48:39Z</time>
      </trkpt>
      <trkpt lat="45.98088" lon="4.7977">
        <ele>223</ele>
        <time>2016-08-25T08:48:40Z</time>
      </trkpt>
      <trkpt lat="45.98092" lon="4.79769">
        <ele>223</ele>
        <time>2016-08-25T08:48:41Z</time>
      </trkpt>
      <trkpt lat="45.98097" lon="4.79769">
        <ele>223</ele>
        <time>2016-08-25T08:48:42Z</time>
      </trkpt>
      <trkpt lat="45.98102" lon="4.79768">
        <ele>224</ele>
        <time>2016-08-25T08:48:43Z</time>
      </trkpt>
      <trkpt lat="45.98107" lon="4.79767">
        <ele>224</ele>
        <time>2016-08-25T08:48:44Z</time>
      </trkpt>
      <trkpt lat="45.98113" lon="4.79767">
        <ele>224</ele>
        <time>2016-08-25T08:48:45Z</time>
      </trkpt>
      <trkpt lat="45.98118" lon="4.79766">
        <ele>224</ele>
        <time>2016-08-25T08:48:46Z</time>
      </trkpt>
      <trkpt lat="45.98123" lon="4.79766">
        <ele>224</ele>
        <time>2016-08-25T08:48:47Z</time>
      </trkpt>
      <trkpt lat="45.98128" lon="4.79766">
        <ele>224</ele>
        <time>2016-08-25T08:48:48Z</time>
      </trkpt>
      <trkpt lat="45.98133" lon="4.79765">
        <ele>224</ele>
        <time>2016-08-25T08:48:49Z</time>
      </trkpt>
      <trkpt lat="45.98139" lon="4.79764">
        <ele>224</ele>
        <time>2016-08-25T08:48:50Z</time>
      </trkpt>
      <trkpt lat="45.98144" lon="4.79764">
        <ele>224</ele>
        <time>2016-08-25T08:48:51Z</time>
      </trkpt>
      <trkpt lat="45.98149" lon="4.79765">
        <ele>225</ele>
        <time>2016-08-25T08:48:52Z</time>
      </trkpt>
      <trkpt lat="45.98154" lon="4.79765">
        <ele>225</ele>
        <time>2016-08-25T08:48:53Z</time>
      </trkpt>
      <trkpt lat="45.98159" lon="4.79767">
        <ele>225</ele>
        <time>2016-08-25T08:48:54Z</time>
      </trkpt>
      <trkpt lat="45.98167" lon="4.79774">
        <ele>225</ele>
        <time>2016-08-25T08:48:56Z</time>
      </trkpt>
      <trkpt lat="45.9817" lon="4.79778">
        <ele>226</ele>
        <time>2016-08-25T08:48:57Z</time>
      </trkpt>
      <trkpt lat="45.98175" lon="4.79788">
        <ele>226</ele>
        <time>2016-08-25T08:48:59Z</time>
      </trkpt>
      <trkpt lat="45.98176" lon="4.79793">
        <ele>226</ele>
        <time>2016-08-25T08:49:00Z</time>
      </trkpt>
      <trkpt lat="45.98178" lon="4.79799">
        <ele>226</ele>
        <time>2016-08-25T08:49:01Z</time>
      </trkpt>
      <trkpt lat="45.9818" lon="4.79805">
        <ele>225</ele>
        <time>2016-08-25T08:49:02Z</time>
      </trkpt>
      <trkpt lat="45.98182" lon="4.79812">
        <ele>225</ele>
        <time>2016-08-25T08:49:03Z</time>
      </trkpt>
      <trkpt lat="45.98185" lon="4.79819">
        <ele>225</ele>
        <time>2016-08-25T08:49:04Z</time>
      </trkpt>
      <trkpt lat="45.98187" lon="4.79826">
        <ele>225</ele>
        <time>2016-08-25T08:49:05Z</time>
      </trkpt>
      <trkpt lat="45.9819" lon="4.79834">
        <ele>225</ele>
        <time>2016-08-25T08:49:06Z</time>
      </trkpt>
      <trkpt lat="45.98193" lon="4.79842">
        <ele>225</ele>
        <time>2016-08-25T08:49:07Z</time>
      </trkpt>
      <trkpt lat="45.98196" lon="4.79851">
        <ele>225</ele>
        <time>2016-08-25T08:49:08Z</time>
      </trkpt>
      <trkpt lat="45.98199" lon="4.7986">
        <ele>225</ele>
        <time>2016-08-25T08:49:09Z</time>
      </trkpt>
      <trkpt lat="45.98202" lon="4.79869">
        <ele>225</ele>
        <time>2016-08-25T08:49:10Z</time>
      </trkpt>
      <trkpt lat="45.98206" lon="4.79877">
        <ele>225</ele>
        <time>2016-08-25T08:49:11Z</time>
      </trkpt>
      <trkpt lat="45.98209" lon="4.79886">
        <ele>225</ele>
        <time>2016-08-25T08:49:12Z</time>
      </trkpt>
      <trkpt lat="45.98212" lon="4.79894">
        <ele>225</ele>
        <time>2016-08-25T08:49:13Z</time>
      </trkpt>
      <trkpt lat="45.98216" lon="4.79902">
        <ele>225</ele>
        <time>2016-08-25T08:49:14Z</time>
      </trkpt>
      <trkpt lat="45.98219" lon="4.7991">
        <ele>225</ele>
        <time>2016-08-25T08:49:15Z</time>
      </trkpt>
      <trkpt lat="45.98221" lon="4.79918">
        <ele>225</ele>
        <time>2016-08-25T08:49:16Z</time>
      </trkpt>
      <trkpt lat="45.98224" lon="4.79926">
        <ele>225</ele>
        <time>2016-08-25T08:49:17Z</time>
      </trkpt>
      <trkpt lat="45.98227" lon="4.79933">
        <ele>225</ele>
        <time>2016-08-25T08:49:18Z</time>
      </trkpt>
      <trkpt lat="45.9823" lon="4.7994">
        <ele>225</ele>
        <time>2016-08-25T08:49:19Z</time>
      </trkpt>
      <trkpt lat="45.98233" lon="4.79947">
        <ele>225</ele>
        <time>2016-08-25T08:49:20Z</time>
      </trkpt>
      <trkpt lat="45.98235" lon="4.79953">
        <ele>225</ele>
        <time>2016-08-25T08:49:21Z</time>
      </trkpt>
      <trkpt lat="45.98238" lon="4.79959">
        <ele>225</ele>
        <time>2016-08-25T08:49:22Z</time>
      </trkpt>
      <trkpt lat="45.9824" lon="4.79966">
        <ele>225</ele>
        <time>2016-08-25T08:49:23Z</time>
      </trkpt>
      <trkpt lat="45.98241" lon="4.79973">
        <ele>225</ele>
        <time>2016-08-25T08:49:24Z</time>
      </trkpt>
      <trkpt lat="45.98243" lon="4.7998">
        <ele>225</ele>
        <time>2016-08-25T08:49:25Z</time>
      </trkpt>
      <trkpt lat="45.98245" lon="4.79988">
        <ele>226</ele>
        <time>2016-08-25T08:49:26Z</time>
      </trkpt>
      <trkpt lat="45.98248" lon="4.79995">
        <ele>226</ele>
        <time>2016-08-25T08:49:27Z</time>
      </trkpt>
      <trkpt lat="45.9825" lon="4.80003">
        <ele>226</ele>
        <time>2016-08-25T08:49:28Z</time>
      </trkpt>
      <trkpt lat="45.98253" lon="4.80011">
        <ele>227</ele>
        <time>2016-08-25T08:49:29Z</time>
      </trkpt>
      <trkpt lat="45.98255" lon="4.80018">
        <ele>228</ele>
        <time>2016-08-25T08:49:30Z</time>
      </trkpt>
      <trkpt lat="45.98258" lon="4.80027">
        <ele>228</ele>
        <time>2016-08-25T08:49:31Z</time>
      </trkpt>
      <trkpt lat="45.98261" lon="4.80034">
        <ele>228</ele>
        <time>2016-08-25T08:49:32Z</time>
      </trkpt>
      <trkpt lat="45.98263" lon="4.80042">
        <ele>228</ele>
        <time>2016-08-25T08:49:33Z</time>
      </trkpt>
      <trkpt lat="45.98266" lon="4.8005">
        <ele>228</ele>
        <time>2016-08-25T08:49:34Z</time>
      </trkpt>
      <trkpt lat="45.98269" lon="4.80057">
        <ele>228</ele>
        <time>2016-08-25T08:49:35Z</time>
      </trkpt>
      <trkpt lat="45.98271" lon="4.80063">
        <ele>228</ele>
        <time>2016-08-25T08:49:36Z</time>
      </trkpt>
      <trkpt lat="45.98273" lon="4.8007">
        <ele>228</ele>
        <time>2016-08-25T08:49:37Z</time>
      </trkpt>
      <trkpt lat="45.98276" lon="4.80076">
        <ele>228</ele>
        <time>2016-08-25T08:49:38Z</time>
      </trkpt>
      <trkpt lat="45.98278" lon="4.80082">
        <ele>229</ele>
        <time>2016-08-25T08:49:39Z</time>
      </trkpt>
      <trkpt lat="45.98281" lon="4.80088">
        <ele>228</ele>
        <time>2016-08-25T08:49:40Z</time>
      </trkpt>
      <trkpt lat="45.98283" lon="4.80094">
        <ele>228</ele>
        <time>2016-08-25T08:49:41Z</time>
      </trkpt>
      <trkpt lat="45.98285" lon="4.801">
        <ele>228</ele>
        <time>2016-08-25T08:49:42Z</time>
      </trkpt>
      <trkpt lat="45.98287" lon="4.80107">
        <ele>228</ele>
        <time>2016-08-25T08:49:43Z</time>
      </trkpt>
      <trkpt lat="45.9829" lon="4.80113">
        <ele>228</ele>
        <time>2016-08-25T08:49:44Z</time>
      </trkpt>
      <trkpt lat="45.98292" lon="4.8012">
        <ele>228</ele>
        <time>2016-08-25T08:49:45Z</time>
      </trkpt>
      <trkpt lat="45.98294" lon="4.80126">
        <ele>228</ele>
        <time>2016-08-25T08:49:46Z</time>
      </trkpt>
      <trkpt lat="45.98297" lon="4.80133">
        <ele>228</ele>
        <time>2016-08-25T08:49:47Z</time>
      </trkpt>
      <trkpt lat="45.98299" lon="4.80139">
        <ele>228</ele>
        <time>2016-08-25T08:49:48Z</time>
      </trkpt>
      <trkpt lat="45.98301" lon="4.80146">
        <ele>228</ele>
        <time>2016-08-25T08:49:49Z</time>
      </trkpt>
      <trkpt lat="45.98304" lon="4.80154">
        <ele>228</ele>
        <time>2016-08-25T08:49:50Z</time>
      </trkpt>
      <trkpt lat="45.98306" lon="4.80161">
        <ele>228</ele>
        <time>2016-08-25T08:49:51Z</time>
      </trkpt>
      <trkpt lat="45.98309" lon="4.80167">
        <ele>227</ele>
        <time>2016-08-25T08:49:52Z</time>
      </trkpt>
      <trkpt lat="45.98313" lon="4.80178">
        <ele>227</ele>
        <time>2016-08-25T08:49:54Z</time>
      </trkpt>
      <trkpt lat="45.98315" lon="4.80184">
        <ele>227</ele>
        <time>2016-08-25T08:49:55Z</time>
      </trkpt>
      <trkpt lat="45.98318" lon="4.8019">
        <ele>227</ele>
        <time>2016-08-25T08:49:56Z</time>
      </trkpt>
      <trkpt lat="45.9832" lon="4.80196">
        <ele>227</ele>
        <time>2016-08-25T08:49:57Z</time>
      </trkpt>
      <trkpt lat="45.98322" lon="4.80202">
        <ele>227</ele>
        <time>2016-08-25T08:49:58Z</time>
      </trkpt>
      <trkpt lat="45.98324" lon="4.80208">
        <ele>227</ele>
        <time>2016-08-25T08:49:59Z</time>
      </trkpt>
      <trkpt lat="45.98326" lon="4.80215">
        <ele>227</ele>
        <time>2016-08-25T08:50:00Z</time>
      </trkpt>
      <trkpt lat="45.98327" lon="4.80222">
        <ele>227</ele>
        <time>2016-08-25T08:50:01Z</time>
      </trkpt>
      <trkpt lat="45.98326" lon="4.8023">
        <ele>228</ele>
        <time>2016-08-25T08:50:02Z</time>
      </trkpt>
      <trkpt lat="45.98324" lon="4.80238">
        <ele>228</ele>
        <time>2016-08-25T08:50:03Z</time>
      </trkpt>
      <trkpt lat="45.98322" lon="4.80244">
        <ele>228</ele>
        <time>2016-08-25T08:50:04Z</time>
      </trkpt>
      <trkpt lat="45.9832" lon="4.80252">
        <ele>228</ele>
        <time>2016-08-25T08:50:05Z</time>
      </trkpt>
      <trkpt lat="45.98318" lon="4.80259">
        <ele>227</ele>
        <time>2016-08-25T08:50:06Z</time>
      </trkpt>
      <trkpt lat="45.98316" lon="4.80267">
        <ele>227</ele>
        <time>2016-08-25T08:50:07Z</time>
      </trkpt>
      <trkpt lat="45.98314" lon="4.80274">
        <ele>227</ele>
        <time>2016-08-25T08:50:08Z</time>
      </trkpt>
      <trkpt lat="45.98313" lon="4.80282">
        <ele>226</ele>
        <time>2016-08-25T08:50:09Z</time>
      </trkpt>
      <trkpt lat="45.98312" lon="4.8029">
        <ele>226</ele>
        <time>2016-08-25T08:50:10Z</time>
      </trkpt>
      <trkpt lat="45.9831" lon="4.80298">
        <ele>226</ele>
        <time>2016-08-25T08:50:11Z</time>
      </trkpt>
      <trkpt lat="45.98309" lon="4.80306">
        <ele>226</ele>
        <time>2016-08-25T08:50:12Z</time>
      </trkpt>
      <trkpt lat="45.98307" lon="4.80314">
        <ele>226</ele>
        <time>2016-08-25T08:50:13Z</time>
      </trkpt>
      <trkpt lat="45.98306" lon="4.80323">
        <ele>226</ele>
        <time>2016-08-25T08:50:14Z</time>
      </trkpt>
      <trkpt lat="45.98304" lon="4.80331">
        <ele>226</ele>
        <time>2016-08-25T08:50:15Z</time>
      </trkpt>
      <trkpt lat="45.98302" lon="4.80341">
        <ele>225</ele>
        <time>2016-08-25T08:50:16Z</time>
      </trkpt>
      <trkpt lat="45.983" lon="4.8035">
        <ele>225</ele>
        <time>2016-08-25T08:50:17Z</time>
      </trkpt>
      <trkpt lat="45.98297" lon="4.80359">
        <ele>225</ele>
        <time>2016-08-25T08:50:18Z</time>
      </trkpt>
      <trkpt lat="45.98295" lon="4.80368">
        <ele>224</ele>
        <time>2016-08-25T08:50:19Z</time>
      </trkpt>
      <trkpt lat="45.98294" lon="4.80377">
        <ele>224</ele>
        <time>2016-08-25T08:50:20Z</time>
      </trkpt>
      <trkpt lat="45.98292" lon="4.80388">
        <ele>224</ele>
        <time>2016-08-25T08:50:21Z</time>
      </trkpt>
      <trkpt lat="45.9829" lon="4.80399">
        <ele>224</ele>
        <time>2016-08-25T08:50:22Z</time>
      </trkpt>
      <trkpt lat="45.98288" lon="4.8041">
        <ele>224</ele>
        <time>2016-08-25T08:50:23Z</time>
      </trkpt>
      <trkpt lat="45.98285" lon="4.8042">
        <ele>223</ele>
        <time>2016-08-25T08:50:24Z</time>
      </trkpt>
      <trkpt lat="45.98284" lon="4.80431">
        <ele>223</ele>
        <time>2016-08-25T08:50:25Z</time>
      </trkpt>
      <trkpt lat="45.98283" lon="4.80442">
        <ele>223</ele>
        <time>2016-08-25T08:50:26Z</time>
      </trkpt>
      <trkpt lat="45.98282" lon="4.80452">
        <ele>223</ele>
        <time>2016-08-25T08:50:27Z</time>
      </trkpt>
      <trkpt lat="45.9828" lon="4.80463">
        <ele>223</ele>
        <time>2016-08-25T08:50:28Z</time>
      </trkpt>
      <trkpt lat="45.98278" lon="4.80473">
        <ele>223</ele>
        <time>2016-08-25T08:50:29Z</time>
      </trkpt>
      <trkpt lat="45.98275" lon="4.80482">
        <ele>223</ele>
        <time>2016-08-25T08:50:30Z</time>
      </trkpt>
      <trkpt lat="45.98273" lon="4.80491">
        <ele>223</ele>
        <time>2016-08-25T08:50:31Z</time>
      </trkpt>
      <trkpt lat="45.9827" lon="4.805">
        <ele>223</ele>
        <time>2016-08-25T08:50:32Z</time>
      </trkpt>
      <trkpt lat="45.98268" lon="4.80509">
        <ele>223</ele>
        <time>2016-08-25T08:50:33Z</time>
      </trkpt>
      <trkpt lat="45.98266" lon="4.80518">
        <ele>223</ele>
        <time>2016-08-25T08:50:34Z</time>
      </trkpt>
      <trkpt lat="45.98264" lon="4.80526">
        <ele>224</ele>
        <time>2016-08-25T08:50:35Z</time>
      </trkpt>
      <trkpt lat="45.98262" lon="4.80534">
        <ele>224</ele>
        <time>2016-08-25T08:50:36Z</time>
      </trkpt>
      <trkpt lat="45.9826" lon="4.80542">
        <ele>224</ele>
        <time>2016-08-25T08:50:37Z</time>
      </trkpt>
      <trkpt lat="45.98258" lon="4.80548">
        <ele>224</ele>
        <time>2016-08-25T08:50:38Z</time>
      </trkpt>
      <trkpt lat="45.98255" lon="4.80556">
        <ele>224</ele>
        <time>2016-08-25T08:50:39Z</time>
      </trkpt>
      <trkpt lat="45.98253" lon="4.80563">
        <ele>224</ele>
        <time>2016-08-25T08:50:40Z</time>
      </trkpt>
      <trkpt lat="45.9825" lon="4.80571">
        <ele>224</ele>
        <time>2016-08-25T08:50:41Z</time>
      </trkpt>
      <trkpt lat="45.98248" lon="4.80578">
        <ele>224</ele>
        <time>2016-08-25T08:50:42Z</time>
      </trkpt>
      <trkpt lat="45.98245" lon="4.80585">
        <ele>224</ele>
        <time>2016-08-25T08:50:43Z</time>
      </trkpt>
      <trkpt lat="45.98242" lon="4.80593">
        <ele>224</ele>
        <time>2016-08-25T08:50:44Z</time>
      </trkpt>
      <trkpt lat="45.98239" lon="4.806">
        <ele>224</ele>
        <time>2016-08-25T08:50:45Z</time>
      </trkpt>
      <trkpt lat="45.98236" lon="4.80607">
        <ele>224</ele>
        <time>2016-08-25T08:50:46Z</time>
      </trkpt>
      <trkpt lat="45.98234" lon="4.80615">
        <ele>224</ele>
        <time>2016-08-25T08:50:47Z</time>
      </trkpt>
      <trkpt lat="45.98231" lon="4.80623">
        <ele>224</ele>
        <time>2016-08-25T08:50:48Z</time>
      </trkpt>
      <trkpt lat="45.98228" lon="4.8063">
        <ele>224</ele>
        <time>2016-08-25T08:50:49Z</time>
      </trkpt>
      <trkpt lat="45.98226" lon="4.80636">
        <ele>224</ele>
        <time>2016-08-25T08:50:50Z</time>
      </trkpt>
      <trkpt lat="45.98223" lon="4.80642">
        <ele>224</ele>
        <time>2016-08-25T08:50:51Z</time>
      </trkpt>
      <trkpt lat="45.98221" lon="4.80648">
        <ele>224</ele>
        <time>2016-08-25T08:50:52Z</time>
      </trkpt>
      <trkpt lat="45.98218" lon="4.80654">
        <ele>224</ele>
        <time>2016-08-25T08:50:53Z</time>
      </trkpt>
      <trkpt lat="45.98213" lon="4.80664">
        <ele>224</ele>
        <time>2016-08-25T08:50:55Z</time>
      </trkpt>
      <trkpt lat="45.98209" lon="4.80666">
        <ele>224</ele>
        <time>2016-08-25T08:50:56Z</time>
      </trkpt>
      <trkpt lat="45.98204" lon="4.80668">
        <ele>224</ele>
        <time>2016-08-25T08:50:57Z</time>
      </trkpt>
      <trkpt lat="45.982" lon="4.80669">
        <ele>225</ele>
        <time>2016-08-25T08:50:58Z</time>
      </trkpt>
      <trkpt lat="45.98195" lon="4.80671">
        <ele>225</ele>
        <time>2016-08-25T08:50:59Z</time>
      </trkpt>
      <trkpt lat="45.9819" lon="4.80674">
        <ele>225</ele>
        <time>2016-08-25T08:51:00Z</time>
      </trkpt>
      <trkpt lat="45.98186" lon="4.80675">
        <ele>225</ele>
        <time>2016-08-25T08:51:01Z</time>
      </trkpt>
      <trkpt lat="45.9818" lon="4.80678">
        <ele>225</ele>
        <time>2016-08-25T08:51:02Z</time>
      </trkpt>
      <trkpt lat="45.98175" lon="4.80679">
        <ele>225</ele>
        <time>2016-08-25T08:51:03Z</time>
      </trkpt>
      <trkpt lat="45.9817" lon="4.8068">
        <ele>225</ele>
        <time>2016-08-25T08:51:04Z</time>
      </trkpt>
      <trkpt lat="45.98162" lon="4.80682">
        <ele>227</ele>
        <time>2016-08-25T08:51:06Z</time>
      </trkpt>
      <trkpt lat="45.98157" lon="4.80682">
        <ele>227</ele>
        <time>2016-08-25T08:51:07Z</time>
      </trkpt>
      <trkpt lat="45.98148" lon="4.80683">
        <ele>227</ele>
        <time>2016-08-25T08:51:09Z</time>
      </trkpt>
      <trkpt lat="45.98145" lon="4.80683">
        <ele>227</ele>
        <time>2016-08-25T08:51:10Z</time>
      </trkpt>
      <trkpt lat="45.98138" lon="4.80684">
        <ele>228</ele>
        <time>2016-08-25T08:51:12Z</time>
      </trkpt>
      <trkpt lat="45.98134" lon="4.80684">
        <ele>228</ele>
        <time>2016-08-25T08:51:13Z</time>
      </trkpt>
      <trkpt lat="45.98126" lon="4.80685">
        <ele>228</ele>
        <time>2016-08-25T08:51:15Z</time>
      </trkpt>
      <trkpt lat="45.98122" lon="4.80685">
        <ele>228</ele>
        <time>2016-08-25T08:51:16Z</time>
      </trkpt>
      <trkpt lat="45.98113" lon="4.80684">
        <ele>228</ele>
        <time>2016-08-25T08:51:18Z</time>
      </trkpt>
      <trkpt lat="45.98109" lon="4.80684">
        <ele>228</ele>
        <time>2016-08-25T08:51:19Z</time>
      </trkpt>
      <trkpt lat="45.98103" lon="4.80685">
        <ele>228</ele>
        <time>2016-08-25T08:51:21Z</time>
      </trkpt>
      <trkpt lat="45.981" lon="4.80686">
        <ele>228</ele>
        <time>2016-08-25T08:51:22Z</time>
      </trkpt>
      <trkpt lat="45.98094" lon="4.80687">
        <ele>228</ele>
        <time>2016-08-25T08:51:24Z</time>
      </trkpt>
      <trkpt lat="45.9809" lon="4.80687">
        <ele>228</ele>
        <time>2016-08-25T08:51:25Z</time>
      </trkpt>
      <trkpt lat="45.98084" lon="4.80689">
        <ele>228</ele>
        <time>2016-08-25T08:51:27Z</time>
      </trkpt>
      <trkpt lat="45.98081" lon="4.80689">
        <ele>229</ele>
        <time>2016-08-25T08:51:28Z</time>
      </trkpt>
      <trkpt lat="45.98074" lon="4.8069">
        <ele>230</ele>
        <time>2016-08-25T08:51:30Z</time>
      </trkpt>
      <trkpt lat="45.9807" lon="4.80691">
        <ele>230</ele>
        <time>2016-08-25T08:51:31Z</time>
      </trkpt>
      <trkpt lat="45.98062" lon="4.80692">
        <ele>230</ele>
        <time>2016-08-25T08:51:33Z</time>
      </trkpt>
      <trkpt lat="45.98058" lon="4.80692">
        <ele>230</ele>
        <time>2016-08-25T08:51:34Z</time>
      </trkpt>
      <trkpt lat="45.9805" lon="4.80691">
        <ele>230</ele>
        <time>2016-08-25T08:51:36Z</time>
      </trkpt>
      <trkpt lat="45.98047" lon="4.80691">
        <ele>230</ele>
        <time>2016-08-25T08:51:37Z</time>
      </trkpt>
      <trkpt lat="45.98039" lon="4.80692">
        <ele>230</ele>
        <time>2016-08-25T08:51:40Z</time>
      </trkpt>
      <trkpt lat="45.98036" lon="4.80693">
        <ele>230</ele>
        <time>2016-08-25T08:51:41Z</time>
      </trkpt>
      <trkpt lat="45.98029" lon="4.80701">
        <ele>231</ele>
        <time>2016-08-25T08:51:44Z</time>
      </trkpt>
      <trkpt lat="45.98027" lon="4.80704">
        <ele>231</ele>
        <time>2016-08-25T08:51:45Z</time>
      </trkpt>
      <trkpt lat="45.98025" lon="4.80715">
        <ele>231</ele>
        <time>2016-08-25T08:51:49Z</time>
      </trkpt>
      <trkpt lat="45.98025" lon="4.80718">
        <ele>231</ele>
        <time>2016-08-25T08:51:50Z</time>
      </trkpt>
      <trkpt lat="45.98028" lon="4.80729">
        <ele>231</ele>
        <time>2016-08-25T08:51:53Z</time>
      </trkpt>
      <trkpt lat="45.98029" lon="4.80732">
        <ele>231</ele>
        <time>2016-08-25T08:51:54Z</time>
      </trkpt>
      <trkpt lat="45.98032" lon="4.80742">
        <ele>231</ele>
        <time>2016-08-25T08:51:57Z</time>
      </trkpt>
      <trkpt lat="45.98033" lon="4.80745">
        <ele>231</ele>
        <time>2016-08-25T08:51:58Z</time>
      </trkpt>
      <trkpt lat="45.98036" lon="4.80757">
        <ele>233</ele>
        <time>2016-08-25T08:52:02Z</time>
      </trkpt>
      <trkpt lat="45.98037" lon="4.8076">
        <ele>233</ele>
        <time>2016-08-25T08:52:03Z</time>
      </trkpt>
      <trkpt lat="45.98039" lon="4.80771">
        <ele>233</ele>
        <time>2016-08-25T08:52:06Z</time>
      </trkpt>
      <trkpt lat="45.9804" lon="4.80775">
        <ele>233</ele>
        <time>2016-08-25T08:52:07Z</time>
      </trkpt>
      <trkpt lat="45.98043" lon="4.80787">
        <ele>233</ele>
        <time>2016-08-25T08:52:10Z</time>
      </trkpt>
      <trkpt lat="45.98044" lon="4.80791">
        <ele>233</ele>
        <time>2016-08-25T08:52:11Z</time>
      </trkpt>
      <trkpt lat="45.98048" lon="4.80802">
        <ele>234</ele>
        <time>2016-08-25T08:52:14Z</time>
      </trkpt>
      <trkpt lat="45.98049" lon="4.80806">
        <ele>234</ele>
        <time>2016-08-25T08:52:15Z</time>
      </trkpt>
      <trkpt lat="45.98051" lon="4.80816">
        <ele>234</ele>
        <time>2016-08-25T08:52:18Z</time>
      </trkpt>
      <trkpt lat="45.98052" lon="4.8082">
        <ele>234</ele>
        <time>2016-08-25T08:52:19Z</time>
      </trkpt>
      <trkpt lat="45.98054" lon="4.8083">
        <ele>234</ele>
        <time>2016-08-25T08:52:22Z</time>
      </trkpt>
      <trkpt lat="45.98055" lon="4.80833">
        <ele>234</ele>
        <time>2016-08-25T08:52:23Z</time>
      </trkpt>
      <trkpt lat="45.98057" lon="4.80842">
        <ele>236</ele>
        <time>2016-08-25T08:52:26Z</time>
      </trkpt>
      <trkpt lat="45.98058" lon="4.80845">
        <ele>236</ele>
        <time>2016-08-25T08:52:27Z</time>
      </trkpt>
      <trkpt lat="45.9806" lon="4.80854">
        <ele>236</ele>
        <time>2016-08-25T08:52:29Z</time>
      </trkpt>
      <trkpt lat="45.9806" lon="4.80859">
        <ele>237</ele>
        <time>2016-08-25T08:52:30Z</time>
      </trkpt>
      <trkpt lat="45.98063" lon="4.8087">
        <ele>237</ele>
        <time>2016-08-25T08:52:33Z</time>
      </trkpt>
      <trkpt lat="45.98063" lon="4.80874">
        <ele>237</ele>
        <time>2016-08-25T08:52:34Z</time>
      </trkpt>
      <trkpt lat="45.98066" lon="4.80886">
        <ele>237</ele>
        <time>2016-08-25T08:52:37Z</time>
      </trkpt>
      <trkpt lat="45.98067" lon="4.8089">
        <ele>238</ele>
        <time>2016-08-25T08:52:38Z</time>
      </trkpt>
      <trkpt lat="45.9807" lon="4.809">
        <ele>238</ele>
        <time>2016-08-25T08:52:41Z</time>
      </trkpt>
      <trkpt lat="45.98071" lon="4.80904">
        <ele>238</ele>
        <time>2016-08-25T08:52:42Z</time>
      </trkpt>
      <trkpt lat="45.98073" lon="4.80915">
        <ele>238</ele>
        <time>2016-08-25T08:52:45Z</time>
      </trkpt>
      <trkpt lat="45.98073" lon="4.80919">
        <ele>240</ele>
        <time>2016-08-25T08:52:46Z</time>
      </trkpt>
      <trkpt lat="45.98077" lon="4.80928">
        <ele>240</ele>
        <time>2016-08-25T08:52:49Z</time>
      </trkpt>
      <trkpt lat="45.98079" lon="4.80932">
        <ele>240</ele>
        <time>2016-08-25T08:52:50Z</time>
      </trkpt>
      <trkpt lat="45.98082" lon="4.80943">
        <ele>240</ele>
        <time>2016-08-25T08:52:53Z</time>
      </trkpt>
      <trkpt lat="45.98083" lon="4.80947">
        <ele>240</ele>
        <time>2016-08-25T08:52:54Z</time>
      </trkpt>
      <trkpt lat="45.98086" lon="4.80958">
        <ele>239</ele>
        <time>2016-08-25T08:52:57Z</time>
      </trkpt>
      <trkpt lat="45.98086" lon="4.80961">
        <ele>239</ele>
        <time>2016-08-25T08:52:58Z</time>
      </trkpt>
      <trkpt lat="45.98089" lon="4.80972">
        <ele>239</ele>
        <time>2016-08-25T08:53:01Z</time>
      </trkpt>
      <trkpt lat="45.98091" lon="4.80974">
        <ele>239</ele>
        <time>2016-08-25T08:53:02Z</time>
      </trkpt>
      <trkpt lat="45.98095" lon="4.80983">
        <ele>240</ele>
        <time>2016-08-25T08:53:05Z</time>
      </trkpt>
      <trkpt lat="45.98096" lon="4.80987">
        <ele>240</ele>
        <time>2016-08-25T08:53:06Z</time>
      </trkpt>
      <trkpt lat="45.98099" lon="4.80996">
        <ele>240</ele>
        <time>2016-08-25T08:53:08Z</time>
      </trkpt>
      <trkpt lat="45.98101" lon="4.81001">
        <ele>242</ele>
        <time>2016-08-25T08:53:09Z</time>
      </trkpt>
      <trkpt lat="45.98104" lon="4.81011">
        <ele>242</ele>
        <time>2016-08-25T08:53:11Z</time>
      </trkpt>
      <trkpt lat="45.98104" lon="4.81016">
        <ele>242</ele>
        <time>2016-08-25T08:53:12Z</time>
      </trkpt>
      <trkpt lat="45.98107" lon="4.81026">
        <ele>242</ele>
        <time>2016-08-25T08:53:14Z</time>
      </trkpt>
      <trkpt lat="45.98109" lon="4.81031">
        <ele>242</ele>
        <time>2016-08-25T08:53:15Z</time>
      </trkpt>
      <trkpt lat="45.98112" lon="4.81036">
        <ele>242</ele>
        <time>2016-08-25T08:53:16Z</time>
      </trkpt>
      <trkpt lat="45.98114" lon="4.81042">
        <ele>242</ele>
        <time>2016-08-25T08:53:17Z</time>
      </trkpt>
      <trkpt lat="45.98117" lon="4.81054">
        <ele>243</ele>
        <time>2016-08-25T08:53:19Z</time>
      </trkpt>
      <trkpt lat="45.98119" lon="4.81059">
        <ele>243</ele>
        <time>2016-08-25T08:53:20Z</time>
      </trkpt>
      <trkpt lat="45.98123" lon="4.8107">
        <ele>243</ele>
        <time>2016-08-25T08:53:22Z</time>
      </trkpt>
      <trkpt lat="45.98125" lon="4.81075">
        <ele>243</ele>
        <time>2016-08-25T08:53:23Z</time>
      </trkpt>
      <trkpt lat="45.98129" lon="4.81085">
        <ele>245</ele>
        <time>2016-08-25T08:53:25Z</time>
      </trkpt>
      <trkpt lat="45.98131" lon="4.81091">
        <ele>245</ele>
        <time>2016-08-25T08:53:26Z</time>
      </trkpt>
      <trkpt lat="45.98135" lon="4.81101">
        <ele>245</ele>
        <time>2016-08-25T08:53:28Z</time>
      </trkpt>
      <trkpt lat="45.98137" lon="4.81106">
        <ele>245</ele>
        <time>2016-08-25T08:53:29Z</time>
      </trkpt>
      <trkpt lat="45.98141" lon="4.81117">
        <ele>245</ele>
        <time>2016-08-25T08:53:31Z</time>
      </trkpt>
      <trkpt lat="45.98142" lon="4.81122">
        <ele>245</ele>
        <time>2016-08-25T08:53:32Z</time>
      </trkpt>
      <trkpt lat="45.98147" lon="4.81131">
        <ele>245</ele>
        <time>2016-08-25T08:53:34Z</time>
      </trkpt>
      <trkpt lat="45.9815" lon="4.81136">
        <ele>245</ele>
        <time>2016-08-25T08:53:35Z</time>
      </trkpt>
      <trkpt lat="45.98153" lon="4.81146">
        <ele>245</ele>
        <time>2016-08-25T08:53:37Z</time>
      </trkpt>
      <trkpt lat="45.98155" lon="4.81151">
        <ele>245</ele>
        <time>2016-08-25T08:53:38Z</time>
      </trkpt>
      <trkpt lat="45.98158" lon="4.81161">
        <ele>245</ele>
        <time>2016-08-25T08:53:40Z</time>
      </trkpt>
      <trkpt lat="45.9816" lon="4.81167">
        <ele>245</ele>
        <time>2016-08-25T08:53:41Z</time>
      </trkpt>
      <trkpt lat="45.98163" lon="4.81177">
        <ele>246</ele>
        <time>2016-08-25T08:53:43Z</time>
      </trkpt>
      <trkpt lat="45.98164" lon="4.81183">
        <ele>246</ele>
        <time>2016-08-25T08:53:44Z</time>
      </trkpt>
      <trkpt lat="45.98166" lon="4.81194">
        <ele>246</ele>
        <time>2016-08-25T08:53:46Z</time>
      </trkpt>
      <trkpt lat="45.98167" lon="4.81199">
        <ele>245</ele>
        <time>2016-08-25T08:53:47Z</time>
      </trkpt>
      <trkpt lat="45.98168" lon="4.8121">
        <ele>246</ele>
        <time>2016-08-25T08:53:49Z</time>
      </trkpt>
      <trkpt lat="45.98169" lon="4.81215">
        <ele>246</ele>
        <time>2016-08-25T08:53:50Z</time>
      </trkpt>
      <trkpt lat="45.9817" lon="4.81227">
        <ele>246</ele>
        <time>2016-08-25T08:53:52Z</time>
      </trkpt>
      <trkpt lat="45.98171" lon="4.81232">
        <ele>246</ele>
        <time>2016-08-25T08:53:53Z</time>
      </trkpt>
      <trkpt lat="45.98172" lon="4.81243">
        <ele>247</ele>
        <time>2016-08-25T08:53:55Z</time>
      </trkpt>
      <trkpt lat="45.98173" lon="4.81248">
        <ele>247</ele>
        <time>2016-08-25T08:53:56Z</time>
      </trkpt>
      <trkpt lat="45.98174" lon="4.81259">
        <ele>247</ele>
        <time>2016-08-25T08:53:58Z</time>
      </trkpt>
      <trkpt lat="45.98175" lon="4.81264">
        <ele>247</ele>
        <time>2016-08-25T08:53:59Z</time>
      </trkpt>
      <trkpt lat="45.98177" lon="4.81275">
        <ele>247</ele>
        <time>2016-08-25T08:54:01Z</time>
      </trkpt>
      <trkpt lat="45.98178" lon="4.8128">
        <ele>247</ele>
        <time>2016-08-25T08:54:02Z</time>
      </trkpt>
      <trkpt lat="45.98177" lon="4.81291">
        <ele>247</ele>
        <time>2016-08-25T08:54:04Z</time>
      </trkpt>
      <trkpt lat="45.98178" lon="4.81296">
        <ele>247</ele>
        <time>2016-08-25T08:54:05Z</time>
      </trkpt>
      <trkpt lat="45.98181" lon="4.81306">
        <ele>247</ele>
        <time>2016-08-25T08:54:07Z</time>
      </trkpt>
      <trkpt lat="45.98182" lon="4.81311">
        <ele>247</ele>
        <time>2016-08-25T08:54:08Z</time>
      </trkpt>
      <trkpt lat="45.98185" lon="4.81322">
        <ele>247</ele>
        <time>2016-08-25T08:54:10Z</time>
      </trkpt>
      <trkpt lat="45.98186" lon="4.81327">
        <ele>247</ele>
        <time>2016-08-25T08:54:11Z</time>
      </trkpt>
      <trkpt lat="45.98189" lon="4.81337">
        <ele>248</ele>
        <time>2016-08-25T08:54:13Z</time>
      </trkpt>
      <trkpt lat="45.9819" lon="4.81342">
        <ele>248</ele>
        <time>2016-08-25T08:54:14Z</time>
      </trkpt>
      <trkpt lat="45.98192" lon="4.81352">
        <ele>248</ele>
        <time>2016-08-25T08:54:16Z</time>
      </trkpt>
      <trkpt lat="45.98193" lon="4.81357">
        <ele>248</ele>
        <time>2016-08-25T08:54:17Z</time>
      </trkpt>
      <trkpt lat="45.98196" lon="4.81367">
        <ele>248</ele>
        <time>2016-08-25T08:54:19Z</time>
      </trkpt>
      <trkpt lat="45.98197" lon="4.81372">
        <ele>248</ele>
        <time>2016-08-25T08:54:20Z</time>
      </trkpt>
      <trkpt lat="45.982" lon="4.81382">
        <ele>248</ele>
        <time>2016-08-25T08:54:22Z</time>
      </trkpt>
      <trkpt lat="45.98201" lon="4.81387">
        <ele>248</ele>
        <time>2016-08-25T08:54:23Z</time>
      </trkpt>
      <trkpt lat="45.98204" lon="4.81397">
        <ele>248</ele>
        <time>2016-08-25T08:54:25Z</time>
      </trkpt>
      <trkpt lat="45.98206" lon="4.81402">
        <ele>248</ele>
        <time>2016-08-25T08:54:26Z</time>
      </trkpt>
      <trkpt lat="45.98209" lon="4.81413">
        <ele>248</ele>
        <time>2016-08-25T08:54:28Z</time>
      </trkpt>
      <trkpt lat="45.98211" lon="4.81418">
        <ele>249</ele>
        <time>2016-08-25T08:54:29Z</time>
      </trkpt>
      <trkpt lat="45.98214" lon="4.81427">
        <ele>249</ele>
        <time>2016-08-25T08:54:31Z</time>
      </trkpt>
      <trkpt lat="45.98215" lon="4.81432">
        <ele>249</ele>
        <time>2016-08-25T08:54:32Z</time>
      </trkpt>
      <trkpt lat="45.98218" lon="4.81443">
        <ele>249</ele>
        <time>2016-08-25T08:54:34Z</time>
      </trkpt>
      <trkpt lat="45.9822" lon="4.81448">
        <ele>249</ele>
        <time>2016-08-25T08:54:35Z</time>
      </trkpt>
      <trkpt lat="45.98223" lon="4.8146">
        <ele>249</ele>
        <time>2016-08-25T08:54:37Z</time>
      </trkpt>
      <trkpt lat="45.98225" lon="4.81466">
        <ele>249</ele>
        <time>2016-08-25T08:54:38Z</time>
      </trkpt>
      <trkpt lat="45.98228" lon="4.81472">
        <ele>249</ele>
        <time>2016-08-25T08:54:39Z</time>
      </trkpt>
      <trkpt lat="45.9823" lon="4.81478">
        <ele>249</ele>
        <time>2016-08-25T08:54:40Z</time>
      </trkpt>
      <trkpt lat="45.98232" lon="4.81486">
        <ele>249</ele>
        <time>2016-08-25T08:54:41Z</time>
      </trkpt>
      <trkpt lat="45.98235" lon="4.81492">
        <ele>249</ele>
        <time>2016-08-25T08:54:42Z</time>
      </trkpt>
      <trkpt lat="45.98237" lon="4.815">
        <ele>249</ele>
        <time>2016-08-25T08:54:43Z</time>
      </trkpt>
      <trkpt lat="45.98239" lon="4.81507">
        <ele>249</ele>
        <time>2016-08-25T08:54:44Z</time>
      </trkpt>
      <trkpt lat="45.98241" lon="4.81514">
        <ele>249</ele>
        <time>2016-08-25T08:54:45Z</time>
      </trkpt>
      <trkpt lat="45.98244" lon="4.8152">
        <ele>249</ele>
        <time>2016-08-25T08:54:46Z</time>
      </trkpt>
      <trkpt lat="45.98246" lon="4.81527">
        <ele>249</ele>
        <time>2016-08-25T08:54:47Z</time>
      </trkpt>
      <trkpt lat="45.98249" lon="4.81534">
        <ele>249</ele>
        <time>2016-08-25T08:54:48Z</time>
      </trkpt>
      <trkpt lat="45.98251" lon="4.81541">
        <ele>247</ele>
        <time>2016-08-25T08:54:49Z</time>
      </trkpt>
      <trkpt lat="45.98253" lon="4.81548">
        <ele>247</ele>
        <time>2016-08-25T08:54:50Z</time>
      </trkpt>
      <trkpt lat="45.98256" lon="4.81554">
        <ele>247</ele>
        <time>2016-08-25T08:54:51Z</time>
      </trkpt>
      <trkpt lat="45.98258" lon="4.81561">
        <ele>247</ele>
        <time>2016-08-25T08:54:52Z</time>
      </trkpt>
      <trkpt lat="45.9826" lon="4.81567">
        <ele>247</ele>
        <time>2016-08-25T08:54:53Z</time>
      </trkpt>
      <trkpt lat="45.98262" lon="4.81574">
        <ele>247</ele>
        <time>2016-08-25T08:54:54Z</time>
      </trkpt>
      <trkpt lat="45.98264" lon="4.81581">
        <ele>247</ele>
        <time>2016-08-25T08:54:55Z</time>
      </trkpt>
      <trkpt lat="45.98267" lon="4.81587">
        <ele>247</ele>
        <time>2016-08-25T08:54:56Z</time>
      </trkpt>
      <trkpt lat="45.98268" lon="4.81594">
        <ele>247</ele>
        <time>2016-08-25T08:54:57Z</time>
      </trkpt>
      <trkpt lat="45.98271" lon="4.816">
        <ele>247</ele>
        <time>2016-08-25T08:54:58Z</time>
      </trkpt>
      <trkpt lat="45.98273" lon="4.81605">
        <ele>247</ele>
        <time>2016-08-25T08:54:59Z</time>
      </trkpt>
      <trkpt lat="45.98276" lon="4.81611">
        <ele>247</ele>
        <time>2016-08-25T08:55:00Z</time>
      </trkpt>
      <trkpt lat="45.98279" lon="4.81618">
        <ele>247</ele>
        <time>2016-08-25T08:55:01Z</time>
      </trkpt>
      <trkpt lat="45.98283" lon="4.81623">
        <ele>247</ele>
        <time>2016-08-25T08:55:02Z</time>
      </trkpt>
      <trkpt lat="45.98287" lon="4.81628">
        <ele>247</ele>
        <time>2016-08-25T08:55:03Z</time>
      </trkpt>
      <trkpt lat="45.98291" lon="4.81633">
        <ele>247</ele>
        <time>2016-08-25T08:55:04Z</time>
      </trkpt>
      <trkpt lat="45.98295" lon="4.81638">
        <ele>247</ele>
        <time>2016-08-25T08:55:05Z</time>
      </trkpt>
      <trkpt lat="45.983" lon="4.81643">
        <ele>247</ele>
        <time>2016-08-25T08:55:06Z</time>
      </trkpt>
      <trkpt lat="45.98304" lon="4.81647">
        <ele>246</ele>
        <time>2016-08-25T08:55:07Z</time>
      </trkpt>
      <trkpt lat="45.98308" lon="4.81651">
        <ele>246</ele>
        <time>2016-08-25T08:55:08Z</time>
      </trkpt>
      <trkpt lat="45.98312" lon="4.81655">
        <ele>246</ele>
        <time>2016-08-25T08:55:09Z</time>
      </trkpt>
      <trkpt lat="45.98316" lon="4.81659">
        <ele>246</ele>
        <time>2016-08-25T08:55:10Z</time>
      </trkpt>
      <trkpt lat="45.9832" lon="4.81662">
        <ele>246</ele>
        <time>2016-08-25T08:55:11Z</time>
      </trkpt>
      <trkpt lat="45.98324" lon="4.81666">
        <ele>246</ele>
        <time>2016-08-25T08:55:12Z</time>
      </trkpt>
      <trkpt lat="45.98328" lon="4.81668">
        <ele>246</ele>
        <time>2016-08-25T08:55:13Z</time>
      </trkpt>
      <trkpt lat="45.98333" lon="4.81671">
        <ele>246</ele>
        <time>2016-08-25T08:55:14Z</time>
      </trkpt>
      <trkpt lat="45.98338" lon="4.81673">
        <ele>245</ele>
        <time>2016-08-25T08:55:15Z</time>
      </trkpt>
      <trkpt lat="45.98344" lon="4.81675">
        <ele>245</ele>
        <time>2016-08-25T08:55:16Z</time>
      </trkpt>
      <trkpt lat="45.9835" lon="4.81676">
        <ele>245</ele>
        <time>2016-08-25T08:55:17Z</time>
      </trkpt>
      <trkpt lat="45.98356" lon="4.81675">
        <ele>245</ele>
        <time>2016-08-25T08:55:18Z</time>
      </trkpt>
      <trkpt lat="45.98362" lon="4.81674">
        <ele>244</ele>
        <time>2016-08-25T08:55:19Z</time>
      </trkpt>
      <trkpt lat="45.98368" lon="4.81673">
        <ele>244</ele>
        <time>2016-08-25T08:55:20Z</time>
      </trkpt>
      <trkpt lat="45.98374" lon="4.81671">
        <ele>244</ele>
        <time>2016-08-25T08:55:21Z</time>
      </trkpt>
      <trkpt lat="45.9838" lon="4.81669">
        <ele>244</ele>
        <time>2016-08-25T08:55:22Z</time>
      </trkpt>
      <trkpt lat="45.98386" lon="4.81667">
        <ele>243</ele>
        <time>2016-08-25T08:55:23Z</time>
      </trkpt>
      <trkpt lat="45.98392" lon="4.81666">
        <ele>242</ele>
        <time>2016-08-25T08:55:24Z</time>
      </trkpt>
      <trkpt lat="45.98398" lon="4.81665">
        <ele>242</ele>
        <time>2016-08-25T08:55:25Z</time>
      </trkpt>
      <trkpt lat="45.98403" lon="4.81664">
        <ele>241</ele>
        <time>2016-08-25T08:55:26Z</time>
      </trkpt>
      <trkpt lat="45.98409" lon="4.81664">
        <ele>241</ele>
        <time>2016-08-25T08:55:27Z</time>
      </trkpt>
      <trkpt lat="45.98415" lon="4.81664">
        <ele>241</ele>
        <time>2016-08-25T08:55:28Z</time>
      </trkpt>
      <trkpt lat="45.98421" lon="4.81664">
        <ele>240</ele>
        <time>2016-08-25T08:55:29Z</time>
      </trkpt>
      <trkpt lat="45.98426" lon="4.81666">
        <ele>240</ele>
        <time>2016-08-25T08:55:30Z</time>
      </trkpt>
      <trkpt lat="45.98432" lon="4.81669">
        <ele>240</ele>
        <time>2016-08-25T08:55:31Z</time>
      </trkpt>
      <trkpt lat="45.98437" lon="4.81674">
        <ele>240</ele>
        <time>2016-08-25T08:55:32Z</time>
      </trkpt>
      <trkpt lat="45.98441" lon="4.8168">
        <ele>240</ele>
        <time>2016-08-25T08:55:33Z</time>
      </trkpt>
      <trkpt lat="45.98444" lon="4.81687">
        <ele>239</ele>
        <time>2016-08-25T08:55:34Z</time>
      </trkpt>
      <trkpt lat="45.98448" lon="4.81694">
        <ele>239</ele>
        <time>2016-08-25T08:55:35Z</time>
      </trkpt>
      <trkpt lat="45.98452" lon="4.81701">
        <ele>239</ele>
        <time>2016-08-25T08:55:36Z</time>
      </trkpt>
      <trkpt lat="45.98456" lon="4.81707">
        <ele>239</ele>
        <time>2016-08-25T08:55:37Z</time>
      </trkpt>
      <trkpt lat="45.9846" lon="4.81714">
        <ele>239</ele>
        <time>2016-08-25T08:55:38Z</time>
      </trkpt>
      <trkpt lat="45.98465" lon="4.81721">
        <ele>239</ele>
        <time>2016-08-25T08:55:39Z</time>
      </trkpt>
      <trkpt lat="45.9847" lon="4.81728">
        <ele>239</ele>
        <time>2016-08-25T08:55:40Z</time>
      </trkpt>
      <trkpt lat="45.98476" lon="4.81734">
        <ele>238</ele>
        <time>2016-08-25T08:55:41Z</time>
      </trkpt>
      <trkpt lat="45.98483" lon="4.8174">
        <ele>238</ele>
        <time>2016-08-25T08:55:42Z</time>
      </trkpt>
      <trkpt lat="45.9849" lon="4.81747">
        <ele>238</ele>
        <time>2016-08-25T08:55:43Z</time>
      </trkpt>
      <trkpt lat="45.98497" lon="4.81754">
        <ele>238</ele>
        <time>2016-08-25T08:55:44Z</time>
      </trkpt>
      <trkpt lat="45.98503" lon="4.81762">
        <ele>237</ele>
        <time>2016-08-25T08:55:45Z</time>
      </trkpt>
      <trkpt lat="45.9851" lon="4.81769">
        <ele>237</ele>
        <time>2016-08-25T08:55:46Z</time>
      </trkpt>
      <trkpt lat="45.98515" lon="4.81777">
        <ele>238</ele>
        <time>2016-08-25T08:55:47Z</time>
      </trkpt>
      <trkpt lat="45.98521" lon="4.81785">
        <ele>238</ele>
        <time>2016-08-25T08:55:48Z</time>
      </trkpt>
      <trkpt lat="45.98527" lon="4.81793">
        <ele>238</ele>
        <time>2016-08-25T08:55:49Z</time>
      </trkpt>
      <trkpt lat="45.98532" lon="4.818">
        <ele>238</ele>
        <time>2016-08-25T08:55:50Z</time>
      </trkpt>
      <trkpt lat="45.98538" lon="4.81805">
        <ele>238</ele>
        <time>2016-08-25T08:55:51Z</time>
      </trkpt>
      <trkpt lat="45.98545" lon="4.81808">
        <ele>238</ele>
        <time>2016-08-25T08:55:52Z</time>
      </trkpt>
      <trkpt lat="45.98553" lon="4.81808">
        <ele>238</ele>
        <time>2016-08-25T08:55:53Z</time>
      </trkpt>
      <trkpt lat="45.9856" lon="4.81805">
        <ele>238</ele>
        <time>2016-08-25T08:55:54Z</time>
      </trkpt>
      <trkpt lat="45.98566" lon="4.81799">
        <ele>238</ele>
        <time>2016-08-25T08:55:55Z</time>
      </trkpt>
      <trkpt lat="45.98571" lon="4.81792">
        <ele>238</ele>
        <time>2016-08-25T08:55:56Z</time>
      </trkpt>
      <trkpt lat="45.98577" lon="4.81786">
        <ele>238</ele>
        <time>2016-08-25T08:55:57Z</time>
      </trkpt>
      <trkpt lat="45.98581" lon="4.81781">
        <ele>238</ele>
        <time>2016-08-25T08:55:58Z</time>
      </trkpt>
      <trkpt lat="45.98586" lon="4.81776">
        <ele>238</ele>
        <time>2016-08-25T08:55:59Z</time>
      </trkpt>
      <trkpt lat="45.98591" lon="4.81772">
        <ele>238</ele>
        <time>2016-08-25T08:56:00Z</time>
      </trkpt>
      <trkpt lat="45.98596" lon="4.81769">
        <ele>238</ele>
        <time>2016-08-25T08:56:01Z</time>
      </trkpt>
      <trkpt lat="45.98602" lon="4.81766">
        <ele>238</ele>
        <time>2016-08-25T08:56:02Z</time>
      </trkpt>
      <trkpt lat="45.98607" lon="4.81764">
        <ele>238</ele>
        <time>2016-08-25T08:56:03Z</time>
      </trkpt>
      <trkpt lat="45.98612" lon="4.81761">
        <ele>238</ele>
        <time>2016-08-25T08:56:04Z</time>
      </trkpt>
      <trkpt lat="45.98617" lon="4.81759">
        <ele>238</ele>
        <time>2016-08-25T08:56:05Z</time>
      </trkpt>
      <trkpt lat="45.98623" lon="4.81756">
        <ele>238</ele>
        <time>2016-08-25T08:56:06Z</time>
      </trkpt>
      <trkpt lat="45.98628" lon="4.81754">
        <ele>238</ele>
        <time>2016-08-25T08:56:07Z</time>
      </trkpt>
      <trkpt lat="45.98634" lon="4.81752">
        <ele>238</ele>
        <time>2016-08-25T08:56:08Z</time>
      </trkpt>
      <trkpt lat="45.9864" lon="4.8175">
        <ele>238</ele>
        <time>2016-08-25T08:56:09Z</time>
      </trkpt>
      <trkpt lat="45.98645" lon="4.81749">
        <ele>237</ele>
        <time>2016-08-25T08:56:10Z</time>
      </trkpt>
      <trkpt lat="45.9865" lon="4.81747">
        <ele>237</ele>
        <time>2016-08-25T08:56:11Z</time>
      </trkpt>
      <trkpt lat="45.98655" lon="4.81745">
        <ele>237</ele>
        <time>2016-08-25T08:56:12Z</time>
      </trkpt>
      <trkpt lat="45.9866" lon="4.81744">
        <ele>238</ele>
        <time>2016-08-25T08:56:13Z</time>
      </trkpt>
      <trkpt lat="45.98665" lon="4.81741">
        <ele>238</ele>
        <time>2016-08-25T08:56:14Z</time>
      </trkpt>
      <trkpt lat="45.98669" lon="4.8174">
        <ele>238</ele>
        <time>2016-08-25T08:56:15Z</time>
      </trkpt>
      <trkpt lat="45.98673" lon="4.81738">
        <ele>238</ele>
        <time>2016-08-25T08:56:16Z</time>
      </trkpt>
      <trkpt lat="45.98678" lon="4.81737">
        <ele>238</ele>
        <time>2016-08-25T08:56:17Z</time>
      </trkpt>
      <trkpt lat="45.98683" lon="4.81736">
        <ele>238</ele>
        <time>2016-08-25T08:56:18Z</time>
      </trkpt>
      <trkpt lat="45.98691" lon="4.81733">
        <ele>238</ele>
        <time>2016-08-25T08:56:20Z</time>
      </trkpt>
      <trkpt lat="45.98696" lon="4.81731">
        <ele>238</ele>
        <time>2016-08-25T08:56:21Z</time>
      </trkpt>
      <trkpt lat="45.987" lon="4.8173">
        <ele>239</ele>
        <time>2016-08-25T08:56:22Z</time>
      </trkpt>
      <trkpt lat="45.98704" lon="4.81728">
        <ele>239</ele>
        <time>2016-08-25T08:56:23Z</time>
      </trkpt>
      <trkpt lat="45.98709" lon="4.81727">
        <ele>239</ele>
        <time>2016-08-25T08:56:24Z</time>
      </trkpt>
      <trkpt lat="45.98714" lon="4.81726">
        <ele>239</ele>
        <time>2016-08-25T08:56:25Z</time>
      </trkpt>
      <trkpt lat="45.98719" lon="4.81727">
        <ele>239</ele>
        <time>2016-08-25T08:56:26Z</time>
      </trkpt>
      <trkpt lat="45.98724" lon="4.81728">
        <ele>239</ele>
        <time>2016-08-25T08:56:27Z</time>
      </trkpt>
      <trkpt lat="45.98728" lon="4.81731">
        <ele>239</ele>
        <time>2016-08-25T08:56:28Z</time>
      </trkpt>
      <trkpt lat="45.98732" lon="4.81737">
        <ele>240</ele>
        <time>2016-08-25T08:56:29Z</time>
      </trkpt>
      <trkpt lat="45.98736" lon="4.81743">
        <ele>240</ele>
        <time>2016-08-25T08:56:30Z</time>
      </trkpt>
      <trkpt lat="45.98738" lon="4.8175">
        <ele>240</ele>
        <time>2016-08-25T08:56:31Z</time>
      </trkpt>
      <trkpt lat="45.98741" lon="4.81757">
        <ele>240</ele>
        <time>2016-08-25T08:56:32Z</time>
      </trkpt>
      <trkpt lat="45.98744" lon="4.81764">
        <ele>240</ele>
        <time>2016-08-25T08:56:33Z</time>
      </trkpt>
      <trkpt lat="45.98747" lon="4.8177">
        <ele>240</ele>
        <time>2016-08-25T08:56:34Z</time>
      </trkpt>
      <trkpt lat="45.98749" lon="4.81775">
        <ele>240</ele>
        <time>2016-08-25T08:56:35Z</time>
      </trkpt>
      <trkpt lat="45.98752" lon="4.81781">
        <ele>241</ele>
        <time>2016-08-25T08:56:36Z</time>
      </trkpt>
      <trkpt lat="45.98756" lon="4.81788">
        <ele>241</ele>
        <time>2016-08-25T08:56:37Z</time>
      </trkpt>
      <trkpt lat="45.9876" lon="4.81794">
        <ele>240</ele>
        <time>2016-08-25T08:56:38Z</time>
      </trkpt>
      <trkpt lat="45.98763" lon="4.81801">
        <ele>240</ele>
        <time>2016-08-25T08:56:39Z</time>
      </trkpt>
      <trkpt lat="45.98766" lon="4.81808">
        <ele>240</ele>
        <time>2016-08-25T08:56:40Z</time>
      </trkpt>
      <trkpt lat="45.98769" lon="4.81815">
        <ele>240</ele>
        <time>2016-08-25T08:56:41Z</time>
      </trkpt>
      <trkpt lat="45.98772" lon="4.81823">
        <ele>240</ele>
        <time>2016-08-25T08:56:42Z</time>
      </trkpt>
      <trkpt lat="45.98775" lon="4.8183">
        <ele>240</ele>
        <time>2016-08-25T08:56:43Z</time>
      </trkpt>
      <trkpt lat="45.98779" lon="4.81838">
        <ele>239</ele>
        <time>2016-08-25T08:56:44Z</time>
      </trkpt>
      <trkpt lat="45.98782" lon="4.81845">
        <ele>239</ele>
        <time>2016-08-25T08:56:45Z</time>
      </trkpt>
      <trkpt lat="45.98785" lon="4.81853">
        <ele>239</ele>
        <time>2016-08-25T08:56:46Z</time>
      </trkpt>
      <trkpt lat="45.98788" lon="4.81861">
        <ele>239</ele>
        <time>2016-08-25T08:56:47Z</time>
      </trkpt>
      <trkpt lat="45.98792" lon="4.81868">
        <ele>239</ele>
        <time>2016-08-25T08:56:48Z</time>
      </trkpt>
      <trkpt lat="45.98795" lon="4.81877">
        <ele>239</ele>
        <time>2016-08-25T08:56:49Z</time>
      </trkpt>
      <trkpt lat="45.98798" lon="4.81885">
        <ele>239</ele>
        <time>2016-08-25T08:56:50Z</time>
      </trkpt>
      <trkpt lat="45.988" lon="4.81893">
        <ele>239</ele>
        <time>2016-08-25T08:56:51Z</time>
      </trkpt>
      <trkpt lat="45.98802" lon="4.81902">
        <ele>239</ele>
        <time>2016-08-25T08:56:52Z</time>
      </trkpt>
      <trkpt lat="45.98803" lon="4.81911">
        <ele>239</ele>
        <time>2016-08-25T08:56:53Z</time>
      </trkpt>
      <trkpt lat="45.98805" lon="4.81919">
        <ele>239</ele>
        <time>2016-08-25T08:56:54Z</time>
      </trkpt>
      <trkpt lat="45.98807" lon="4.81928">
        <ele>239</ele>
        <time>2016-08-25T08:56:55Z</time>
      </trkpt>
      <trkpt lat="45.98808" lon="4.81937">
        <ele>239</ele>
        <time>2016-08-25T08:56:56Z</time>
      </trkpt>
      <trkpt lat="45.98809" lon="4.81946">
        <ele>239</ele>
        <time>2016-08-25T08:56:57Z</time>
      </trkpt>
      <trkpt lat="45.98811" lon="4.81954">
        <ele>239</ele>
        <time>2016-08-25T08:56:58Z</time>
      </trkpt>
      <trkpt lat="45.98812" lon="4.81963">
        <ele>239</ele>
        <time>2016-08-25T08:56:59Z</time>
      </trkpt>
      <trkpt lat="45.98814" lon="4.81972">
        <ele>239</ele>
        <time>2016-08-25T08:57:00Z</time>
      </trkpt>
      <trkpt lat="45.98815" lon="4.81981">
        <ele>239</ele>
        <time>2016-08-25T08:57:01Z</time>
      </trkpt>
      <trkpt lat="45.98816" lon="4.81989">
        <ele>238</ele>
        <time>2016-08-25T08:57:02Z</time>
      </trkpt>
      <trkpt lat="45.98817" lon="4.81998">
        <ele>238</ele>
        <time>2016-08-25T08:57:03Z</time>
      </trkpt>
      <trkpt lat="45.98819" lon="4.82006">
        <ele>238</ele>
        <time>2016-08-25T08:57:04Z</time>
      </trkpt>
      <trkpt lat="45.9882" lon="4.82014">
        <ele>238</ele>
        <time>2016-08-25T08:57:05Z</time>
      </trkpt>
      <trkpt lat="45.98821" lon="4.82022">
        <ele>238</ele>
        <time>2016-08-25T08:57:06Z</time>
      </trkpt>
      <trkpt lat="45.98822" lon="4.82029">
        <ele>238</ele>
        <time>2016-08-25T08:57:07Z</time>
      </trkpt>
      <trkpt lat="45.98823" lon="4.82037">
        <ele>238</ele>
        <time>2016-08-25T08:57:08Z</time>
      </trkpt>
      <trkpt lat="45.98824" lon="4.82044">
        <ele>238</ele>
        <time>2016-08-25T08:57:09Z</time>
      </trkpt>
      <trkpt lat="45.98825" lon="4.82052">
        <ele>237</ele>
        <time>2016-08-25T08:57:10Z</time>
      </trkpt>
      <trkpt lat="45.98826" lon="4.8206">
        <ele>237</ele>
        <time>2016-08-25T08:57:11Z</time>
      </trkpt>
      <trkpt lat="45.98828" lon="4.82069">
        <ele>237</ele>
        <time>2016-08-25T08:57:12Z</time>
      </trkpt>
      <trkpt lat="45.98829" lon="4.82077">
        <ele>237</ele>
        <time>2016-08-25T08:57:13Z</time>
      </trkpt>
      <trkpt lat="45.98831" lon="4.82085">
        <ele>236</ele>
        <time>2016-08-25T08:57:14Z</time>
      </trkpt>
      <trkpt lat="45.98832" lon="4.82094">
        <ele>237</ele>
        <time>2016-08-25T08:57:15Z</time>
      </trkpt>
      <trkpt lat="45.98834" lon="4.82102">
        <ele>236</ele>
        <time>2016-08-25T08:57:16Z</time>
      </trkpt>
      <trkpt lat="45.98835" lon="4.8211">
        <ele>236</ele>
        <time>2016-08-25T08:57:17Z</time>
      </trkpt>
      <trkpt lat="45.98837" lon="4.82118">
        <ele>236</ele>
        <time>2016-08-25T08:57:18Z</time>
      </trkpt>
      <trkpt lat="45.98838" lon="4.82126">
        <ele>236</ele>
        <time>2016-08-25T08:57:19Z</time>
      </trkpt>
      <trkpt lat="45.9884" lon="4.82135">
        <ele>236</ele>
        <time>2016-08-25T08:57:20Z</time>
      </trkpt>
      <trkpt lat="45.98841" lon="4.82143">
        <ele>236</ele>
        <time>2016-08-25T08:57:21Z</time>
      </trkpt>
      <trkpt lat="45.98843" lon="4.8215">
        <ele>236</ele>
        <time>2016-08-25T08:57:22Z</time>
      </trkpt>
      <trkpt lat="45.98845" lon="4.82158">
        <ele>236</ele>
        <time>2016-08-25T08:57:23Z</time>
      </trkpt>
      <trkpt lat="45.98847" lon="4.82165">
        <ele>236</ele>
        <time>2016-08-25T08:57:24Z</time>
      </trkpt>
      <trkpt lat="45.98849" lon="4.82173">
        <ele>236</ele>
        <time>2016-08-25T08:57:25Z</time>
      </trkpt>
      <trkpt lat="45.98852" lon="4.8218">
        <ele>236</ele>
        <time>2016-08-25T08:57:26Z</time>
      </trkpt>
      <trkpt lat="45.98855" lon="4.82188">
        <ele>236</ele>
        <time>2016-08-25T08:57:27Z</time>
      </trkpt>
      <trkpt lat="45.98858" lon="4.82197">
        <ele>236</ele>
        <time>2016-08-25T08:57:28Z</time>
      </trkpt>
      <trkpt lat="45.98861" lon="4.82205">
        <ele>236</ele>
        <time>2016-08-25T08:57:29Z</time>
      </trkpt>
      <trkpt lat="45.98863" lon="4.82213">
        <ele>236</ele>
        <time>2016-08-25T08:57:30Z</time>
      </trkpt>
      <trkpt lat="45.98866" lon="4.82221">
        <ele>236</ele>
        <time>2016-08-25T08:57:31Z</time>
      </trkpt>
      <trkpt lat="45.98869" lon="4.82228">
        <ele>236</ele>
        <time>2016-08-25T08:57:32Z</time>
      </trkpt>
      <trkpt lat="45.98872" lon="4.82235">
        <ele>236</ele>
        <time>2016-08-25T08:57:33Z</time>
      </trkpt>
      <trkpt lat="45.98875" lon="4.82241">
        <ele>236</ele>
        <time>2016-08-25T08:57:34Z</time>
      </trkpt>
      <trkpt lat="45.98878" lon="4.82248">
        <ele>236</ele>
        <time>2016-08-25T08:57:35Z</time>
      </trkpt>
      <trkpt lat="45.98882" lon="4.82255">
        <ele>237</ele>
        <time>2016-08-25T08:57:36Z</time>
      </trkpt>
      <trkpt lat="45.98885" lon="4.82261">
        <ele>236</ele>
        <time>2016-08-25T08:57:37Z</time>
      </trkpt>
      <trkpt lat="45.98889" lon="4.82267">
        <ele>236</ele>
        <time>2016-08-25T08:57:38Z</time>
      </trkpt>
      <trkpt lat="45.98893" lon="4.82274">
        <ele>236</ele>
        <time>2016-08-25T08:57:39Z</time>
      </trkpt>
      <trkpt lat="45.98897" lon="4.8228">
        <ele>236</ele>
        <time>2016-08-25T08:57:40Z</time>
      </trkpt>
      <trkpt lat="45.98901" lon="4.82286">
        <ele>237</ele>
        <time>2016-08-25T08:57:41Z</time>
      </trkpt>
      <trkpt lat="45.98907" lon="4.82292">
        <ele>237</ele>
        <time>2016-08-25T08:57:42Z</time>
      </trkpt>
      <trkpt lat="45.98912" lon="4.82297">
        <ele>237</ele>
        <time>2016-08-25T08:57:43Z</time>
      </trkpt>
      <trkpt lat="45.98916" lon="4.82302">
        <ele>237</ele>
        <time>2016-08-25T08:57:44Z</time>
      </trkpt>
      <trkpt lat="45.98921" lon="4.82307">
        <ele>235</ele>
        <time>2016-08-25T08:57:45Z</time>
      </trkpt>
      <trkpt lat="45.98926" lon="4.82312">
        <ele>235</ele>
        <time>2016-08-25T08:57:46Z</time>
      </trkpt>
      <trkpt lat="45.9893" lon="4.82318">
        <ele>235</ele>
        <time>2016-08-25T08:57:47Z</time>
      </trkpt>
      <trkpt lat="45.98934" lon="4.82323">
        <ele>235</ele>
        <time>2016-08-25T08:57:48Z</time>
      </trkpt>
      <trkpt lat="45.98938" lon="4.82329">
        <ele>235</ele>
        <time>2016-08-25T08:57:49Z</time>
      </trkpt>
      <trkpt lat="45.98942" lon="4.82334">
        <ele>235</ele>
        <time>2016-08-25T08:57:50Z</time>
      </trkpt>
      <trkpt lat="45.98946" lon="4.8234">
        <ele>235</ele>
        <time>2016-08-25T08:57:51Z</time>
      </trkpt>
      <trkpt lat="45.98949" lon="4.82347">
        <ele>235</ele>
        <time>2016-08-25T08:57:52Z</time>
      </trkpt>
      <trkpt lat="45.98952" lon="4.82354">
        <ele>235</ele>
        <time>2016-08-25T08:57:53Z</time>
      </trkpt>
      <trkpt lat="45.98955" lon="4.82361">
        <ele>235</ele>
        <time>2016-08-25T08:57:54Z</time>
      </trkpt>
      <trkpt lat="45.98958" lon="4.82369">
        <ele>235</ele>
        <time>2016-08-25T08:57:55Z</time>
      </trkpt>
      <trkpt lat="45.98961" lon="4.82379">
        <ele>235</ele>
        <time>2016-08-25T08:57:56Z</time>
      </trkpt>
      <trkpt lat="45.98963" lon="4.82387">
        <ele>235</ele>
        <time>2016-08-25T08:57:57Z</time>
      </trkpt>
      <trkpt lat="45.98965" lon="4.82396">
        <ele>235</ele>
        <time>2016-08-25T08:57:58Z</time>
      </trkpt>
      <trkpt lat="45.98968" lon="4.82405">
        <ele>235</ele>
        <time>2016-08-25T08:57:59Z</time>
      </trkpt>
      <trkpt lat="45.9897" lon="4.82413">
        <ele>235</ele>
        <time>2016-08-25T08:58:00Z</time>
      </trkpt>
      <trkpt lat="45.98972" lon="4.82422">
        <ele>236</ele>
        <time>2016-08-25T08:58:01Z</time>
      </trkpt>
      <trkpt lat="45.98974" lon="4.8243">
        <ele>236</ele>
        <time>2016-08-25T08:58:02Z</time>
      </trkpt>
      <trkpt lat="45.98976" lon="4.82438">
        <ele>236</ele>
        <time>2016-08-25T08:58:03Z</time>
      </trkpt>
      <trkpt lat="45.98978" lon="4.82446">
        <ele>236</ele>
        <time>2016-08-25T08:58:04Z</time>
      </trkpt>
      <trkpt lat="45.9898" lon="4.82453">
        <ele>236</ele>
        <time>2016-08-25T08:58:05Z</time>
      </trkpt>
      <trkpt lat="45.98982" lon="4.82461">
        <ele>236</ele>
        <time>2016-08-25T08:58:06Z</time>
      </trkpt>
      <trkpt lat="45.98984" lon="4.82468">
        <ele>236</ele>
        <time>2016-08-25T08:58:07Z</time>
      </trkpt>
      <trkpt lat="45.98986" lon="4.82475">
        <ele>236</ele>
        <time>2016-08-25T08:58:08Z</time>
      </trkpt>
      <trkpt lat="45.98988" lon="4.82481">
        <ele>236</ele>
        <time>2016-08-25T08:58:09Z</time>
      </trkpt>
      <trkpt lat="45.98991" lon="4.82489">
        <ele>236</ele>
        <time>2016-08-25T08:58:10Z</time>
      </trkpt>
      <trkpt lat="45.98993" lon="4.82495">
        <ele>236</ele>
        <time>2016-08-25T08:58:11Z</time>
      </trkpt>
      <trkpt lat="45.98995" lon="4.82502">
        <ele>236</ele>
        <time>2016-08-25T08:58:12Z</time>
      </trkpt>
      <trkpt lat="45.98999" lon="4.82509">
        <ele>236</ele>
        <time>2016-08-25T08:58:13Z</time>
      </trkpt>
      <trkpt lat="45.99002" lon="4.82516">
        <ele>235</ele>
        <time>2016-08-25T08:58:14Z</time>
      </trkpt>
      <trkpt lat="45.99005" lon="4.82523">
        <ele>235</ele>
        <time>2016-08-25T08:58:15Z</time>
      </trkpt>
      <trkpt lat="45.99009" lon="4.8253">
        <ele>235</ele>
        <time>2016-08-25T08:58:16Z</time>
      </trkpt>
      <trkpt lat="45.99013" lon="4.82536">
        <ele>235</ele>
        <time>2016-08-25T08:58:17Z</time>
      </trkpt>
      <trkpt lat="45.99018" lon="4.82542">
        <ele>235</ele>
        <time>2016-08-25T08:58:18Z</time>
      </trkpt>
      <trkpt lat="45.99022" lon="4.82547">
        <ele>235</ele>
        <time>2016-08-25T08:58:19Z</time>
      </trkpt>
      <trkpt lat="45.99027" lon="4.82552">
        <ele>235</ele>
        <time>2016-08-25T08:58:20Z</time>
      </trkpt>
      <trkpt lat="45.99032" lon="4.82557">
        <ele>235</ele>
        <time>2016-08-25T08:58:21Z</time>
      </trkpt>
      <trkpt lat="45.99037" lon="4.82561">
        <ele>235</ele>
        <time>2016-08-25T08:58:22Z</time>
      </trkpt>
      <trkpt lat="45.99042" lon="4.82564">
        <ele>235</ele>
        <time>2016-08-25T08:58:23Z</time>
      </trkpt>
      <trkpt lat="45.99048" lon="4.82567">
        <ele>235</ele>
        <time>2016-08-25T08:58:24Z</time>
      </trkpt>
      <trkpt lat="45.99054" lon="4.82569">
        <ele>235</ele>
        <time>2016-08-25T08:58:25Z</time>
      </trkpt>
      <trkpt lat="45.99059" lon="4.82571">
        <ele>235</ele>
        <time>2016-08-25T08:58:26Z</time>
      </trkpt>
      <trkpt lat="45.99064" lon="4.82573">
        <ele>235</ele>
        <time>2016-08-25T08:58:27Z</time>
      </trkpt>
      <trkpt lat="45.99069" lon="4.82576">
        <ele>235</ele>
        <time>2016-08-25T08:58:28Z</time>
      </trkpt>
      <trkpt lat="45.99072" lon="4.8258">
        <ele>235</ele>
        <time>2016-08-25T08:58:29Z</time>
      </trkpt>
      <trkpt lat="45.99075" lon="4.8259">
        <ele>235</ele>
        <time>2016-08-25T08:58:31Z</time>
      </trkpt>
      <trkpt lat="45.99074" lon="4.82594">
        <ele>235</ele>
        <time>2016-08-25T08:58:32Z</time>
      </trkpt>
      <trkpt lat="45.9907" lon="4.82603">
        <ele>236</ele>
        <time>2016-08-25T08:58:34Z</time>
      </trkpt>
      <trkpt lat="45.99067" lon="4.82608">
        <ele>236</ele>
        <time>2016-08-25T08:58:35Z</time>
      </trkpt>
      <trkpt lat="45.99062" lon="4.82617">
        <ele>236</ele>
        <time>2016-08-25T08:58:37Z</time>
      </trkpt>
      <trkpt lat="45.9906" lon="4.82621">
        <ele>236</ele>
        <time>2016-08-25T08:58:38Z</time>
      </trkpt>
      <trkpt lat="45.99055" lon="4.8263">
        <ele>236</ele>
        <time>2016-08-25T08:58:40Z</time>
      </trkpt>
      <trkpt lat="45.99053" lon="4.82634">
        <ele>236</ele>
        <time>2016-08-25T08:58:41Z</time>
      </trkpt>
      <trkpt lat="45.99048" lon="4.82643">
        <ele>236</ele>
        <time>2016-08-25T08:58:43Z</time>
      </trkpt>
      <trkpt lat="45.99046" lon="4.82647">
        <ele>236</ele>
        <time>2016-08-25T08:58:44Z</time>
      </trkpt>
      <trkpt lat="45.99043" lon="4.82655">
        <ele>236</ele>
        <time>2016-08-25T08:58:46Z</time>
      </trkpt>
      <trkpt lat="45.99041" lon="4.82659">
        <ele>236</ele>
        <time>2016-08-25T08:58:47Z</time>
      </trkpt>
      <trkpt lat="45.99037" lon="4.82667">
        <ele>237</ele>
        <time>2016-08-25T08:58:49Z</time>
      </trkpt>
      <trkpt lat="45.99035" lon="4.8267">
        <ele>238</ele>
        <time>2016-08-25T08:58:50Z</time>
      </trkpt>
      <trkpt lat="45.99032" lon="4.82678">
        <ele>238</ele>
        <time>2016-08-25T08:58:52Z</time>
      </trkpt>
      <trkpt lat="45.99031" lon="4.82682">
        <ele>238</ele>
        <time>2016-08-25T08:58:53Z</time>
      </trkpt>
      <trkpt lat="45.99026" lon="4.82693">
        <ele>238</ele>
        <time>2016-08-25T08:58:56Z</time>
      </trkpt>
      <trkpt lat="45.99024" lon="4.82696">
        <ele>238</ele>
        <time>2016-08-25T08:58:57Z</time>
      </trkpt>
      <trkpt lat="45.99022" lon="4.82704">
        <ele>238</ele>
        <time>2016-08-25T08:58:59Z</time>
      </trkpt>
      <trkpt lat="45.9902" lon="4.82708">
        <ele>238</ele>
        <time>2016-08-25T08:59:00Z</time>
      </trkpt>
      <trkpt lat="45.99016" lon="4.82718">
        <ele>239</ele>
        <time>2016-08-25T08:59:03Z</time>
      </trkpt>
      <trkpt lat="45.99014" lon="4.82721">
        <ele>239</ele>
        <time>2016-08-25T08:59:04Z</time>
      </trkpt>
      <trkpt lat="45.99009" lon="4.82732">
        <ele>239</ele>
        <time>2016-08-25T08:59:07Z</time>
      </trkpt>
      <trkpt lat="45.99007" lon="4.82735">
        <ele>240</ele>
        <time>2016-08-25T08:59:08Z</time>
      </trkpt>
      <trkpt lat="45.99003" lon="4.82744">
        <ele>240</ele>
        <time>2016-08-25T08:59:11Z</time>
      </trkpt>
      <trkpt lat="45.99001" lon="4.82747">
        <ele>241</ele>
        <time>2016-08-25T08:59:12Z</time>
      </trkpt>
      <trkpt lat="45.98997" lon="4.82758">
        <ele>243</ele>
        <time>2016-08-25T08:59:15Z</time>
      </trkpt>
      <trkpt lat="45.98995" lon="4.82762">
        <ele>244</ele>
        <time>2016-08-25T08:59:16Z</time>
      </trkpt>
      <trkpt lat="45.98991" lon="4.82772">
        <ele>246</ele>
        <time>2016-08-25T08:59:19Z</time>
      </trkpt>
      <trkpt lat="45.9899" lon="4.82775">
        <ele>246</ele>
        <time>2016-08-25T08:59:20Z</time>
      </trkpt>
      <trkpt lat="45.98988" lon="4.82786">
        <ele>247</ele>
        <time>2016-08-25T08:59:23Z</time>
      </trkpt>
      <trkpt lat="45.98987" lon="4.82789">
        <ele>247</ele>
        <time>2016-08-25T08:59:24Z</time>
      </trkpt>
      <trkpt lat="45.98983" lon="4.82798">
        <ele>248</ele>
        <time>2016-08-25T08:59:27Z</time>
      </trkpt>
      <trkpt lat="45.98981" lon="4.82801">
        <ele>248</ele>
        <time>2016-08-25T08:59:28Z</time>
      </trkpt>
      <trkpt lat="45.98976" lon="4.8281">
        <ele>248</ele>
        <time>2016-08-25T08:59:31Z</time>
      </trkpt>
      <trkpt lat="45.98975" lon="4.82813">
        <ele>248</ele>
        <time>2016-08-25T08:59:32Z</time>
      </trkpt>
      <trkpt lat="45.9897" lon="4.82823">
        <ele>249</ele>
        <time>2016-08-25T08:59:36Z</time>
      </trkpt>
      <trkpt lat="45.98968" lon="4.82826">
        <ele>249</ele>
        <time>2016-08-25T08:59:37Z</time>
      </trkpt>
      <trkpt lat="45.98964" lon="4.82836">
        <ele>252</ele>
        <time>2016-08-25T08:59:41Z</time>
      </trkpt>
      <trkpt lat="45.98963" lon="4.82839">
        <ele>252</ele>
        <time>2016-08-25T08:59:42Z</time>
      </trkpt>
      <trkpt lat="45.98959" lon="4.82849">
        <ele>252</ele>
        <time>2016-08-25T08:59:46Z</time>
      </trkpt>
      <trkpt lat="45.98957" lon="4.82852">
        <ele>252</ele>
        <time>2016-08-25T08:59:47Z</time>
      </trkpt>
      <trkpt lat="45.98953" lon="4.82861">
        <ele>252</ele>
        <time>2016-08-25T08:59:50Z</time>
      </trkpt>
      <trkpt lat="45.98952" lon="4.82864">
        <ele>252</ele>
        <time>2016-08-25T08:59:51Z</time>
      </trkpt>
      <trkpt lat="45.98948" lon="4.82872">
        <ele>253</ele>
        <time>2016-08-25T08:59:54Z</time>
      </trkpt>
      <trkpt lat="45.98946" lon="4.82875">
        <ele>253</ele>
        <time>2016-08-25T08:59:55Z</time>
      </trkpt>
      <trkpt lat="45.98942" lon="4.82883">
        <ele>253</ele>
        <time>2016-08-25T08:59:58Z</time>
      </trkpt>
      <trkpt lat="45.98941" lon="4.82886">
        <ele>253</ele>
        <time>2016-08-25T08:59:59Z</time>
      </trkpt>
      <trkpt lat="45.98936" lon="4.82893">
        <ele>253</ele>
        <time>2016-08-25T09:00:02Z</time>
      </trkpt>
      <trkpt lat="45.98935" lon="4.82896">
        <ele>253</ele>
        <time>2016-08-25T09:00:03Z</time>
      </trkpt>
      <trkpt lat="45.98931" lon="4.82907">
        <ele>254</ele>
        <time>2016-08-25T09:00:07Z</time>
      </trkpt>
      <trkpt lat="45.98929" lon="4.82909">
        <ele>254</ele>
        <time>2016-08-25T09:00:08Z</time>
      </trkpt>
      <trkpt lat="45.98925" lon="4.8292">
        <ele>255</ele>
        <time>2016-08-25T09:00:12Z</time>
      </trkpt>
      <trkpt lat="45.98923" lon="4.82923">
        <ele>255</ele>
        <time>2016-08-25T09:00:13Z</time>
      </trkpt>
      <trkpt lat="45.98921" lon="4.82933">
        <ele>255</ele>
        <time>2016-08-25T09:00:16Z</time>
      </trkpt>
      <trkpt lat="45.9892" lon="4.82936">
        <ele>255</ele>
        <time>2016-08-25T09:00:17Z</time>
      </trkpt>
      <trkpt lat="45.98916" lon="4.82944">
        <ele>258</ele>
        <time>2016-08-25T09:00:20Z</time>
      </trkpt>
      <trkpt lat="45.98915" lon="4.82947">
        <ele>258</ele>
        <time>2016-08-25T09:00:21Z</time>
      </trkpt>
      <trkpt lat="45.98909" lon="4.82956">
        <ele>258</ele>
        <time>2016-08-25T09:00:25Z</time>
      </trkpt>
      <trkpt lat="45.98907" lon="4.82959">
        <ele>259</ele>
        <time>2016-08-25T09:00:26Z</time>
      </trkpt>
      <trkpt lat="45.98901" lon="4.82967">
        <ele>259</ele>
        <time>2016-08-25T09:00:30Z</time>
      </trkpt>
      <trkpt lat="45.989" lon="4.8297">
        <ele>259</ele>
        <time>2016-08-25T09:00:31Z</time>
      </trkpt>
      <trkpt lat="45.98894" lon="4.82977">
        <ele>259</ele>
        <time>2016-08-25T09:00:35Z</time>
      </trkpt>
      <trkpt lat="45.98893" lon="4.82979">
        <ele>259</ele>
        <time>2016-08-25T09:00:36Z</time>
      </trkpt>
      <trkpt lat="45.98886" lon="4.82984">
        <ele>259</ele>
        <time>2016-08-25T09:00:39Z</time>
      </trkpt>
      <trkpt lat="45.98883" lon="4.82985">
        <ele>259</ele>
        <time>2016-08-25T09:00:40Z</time>
      </trkpt>
      <trkpt lat="45.98875" lon="4.82989">
        <ele>260</ele>
        <time>2016-08-25T09:00:43Z</time>
      </trkpt>
      <trkpt lat="45.98873" lon="4.82991">
        <ele>260</ele>
        <time>2016-08-25T09:00:44Z</time>
      </trkpt>
      <trkpt lat="45.98865" lon="4.82996">
        <ele>260</ele>
        <time>2016-08-25T09:00:47Z</time>
      </trkpt>
      <trkpt lat="45.98862" lon="4.82998">
        <ele>261</ele>
        <time>2016-08-25T09:00:48Z</time>
      </trkpt>
      <trkpt lat="45.98855" lon="4.83001">
        <ele>261</ele>
        <time>2016-08-25T09:00:51Z</time>
      </trkpt>
      <trkpt lat="45.98853" lon="4.83003">
        <ele>261</ele>
        <time>2016-08-25T09:00:52Z</time>
      </trkpt>
      <trkpt lat="45.98845" lon="4.83009">
        <ele>261</ele>
        <time>2016-08-25T09:00:56Z</time>
      </trkpt>
      <trkpt lat="45.98845" lon="4.8301">
        <ele>261</ele>
        <time>2016-08-25T09:00:57Z</time>
      </trkpt>
      <trkpt lat="45.98839" lon="4.83017">
        <ele>261</ele>
        <time>2016-08-25T09:01:01Z</time>
      </trkpt>
      <trkpt lat="45.98837" lon="4.83018">
        <ele>261</ele>
        <time>2016-08-25T09:01:02Z</time>
      </trkpt>
      <trkpt lat="45.98831" lon="4.83022">
        <ele>264</ele>
        <time>2016-08-25T09:01:05Z</time>
      </trkpt>
      <trkpt lat="45.98829" lon="4.83024">
        <ele>264</ele>
        <time>2016-08-25T09:01:06Z</time>
      </trkpt>
      <trkpt lat="45.98823" lon="4.8303">
        <ele>264</ele>
        <time>2016-08-25T09:01:09Z</time>
      </trkpt>
      <trkpt lat="45.9882" lon="4.83031">
        <ele>264</ele>
        <time>2016-08-25T09:01:10Z</time>
      </trkpt>
      <trkpt lat="45.98813" lon="4.83036">
        <ele>264</ele>
        <time>2016-08-25T09:01:13Z</time>
      </trkpt>
      <trkpt lat="45.98811" lon="4.83038">
        <ele>264</ele>
        <time>2016-08-25T09:01:14Z</time>
      </trkpt>
      <trkpt lat="45.98805" lon="4.83042">
        <ele>264</ele>
        <time>2016-08-25T09:01:16Z</time>
      </trkpt>
      <trkpt lat="45.98803" lon="4.83045">
        <ele>264</ele>
        <time>2016-08-25T09:01:17Z</time>
      </trkpt>
      <trkpt lat="45.98797" lon="4.8305">
        <ele>264</ele>
        <time>2016-08-25T09:01:19Z</time>
      </trkpt>
      <trkpt lat="45.98794" lon="4.83053">
        <ele>265</ele>
        <time>2016-08-25T09:01:20Z</time>
      </trkpt>
      <trkpt lat="45.98788" lon="4.83057">
        <ele>265</ele>
        <time>2016-08-25T09:01:22Z</time>
      </trkpt>
      <trkpt lat="45.98786" lon="4.83059">
        <ele>265</ele>
        <time>2016-08-25T09:01:23Z</time>
      </trkpt>
      <trkpt lat="45.98779" lon="4.83066">
        <ele>265</ele>
        <time>2016-08-25T09:01:26Z</time>
      </trkpt>
      <trkpt lat="45.98776" lon="4.83069">
        <ele>265</ele>
        <time>2016-08-25T09:01:27Z</time>
      </trkpt>
      <trkpt lat="45.98771" lon="4.83074">
        <ele>266</ele>
        <time>2016-08-25T09:01:29Z</time>
      </trkpt>
      <trkpt lat="45.98768" lon="4.83076">
        <ele>266</ele>
        <time>2016-08-25T09:01:30Z</time>
      </trkpt>
      <trkpt lat="45.98763" lon="4.8308">
        <ele>266</ele>
        <time>2016-08-25T09:01:32Z</time>
      </trkpt>
      <trkpt lat="45.9876" lon="4.83082">
        <ele>266</ele>
        <time>2016-08-25T09:01:33Z</time>
      </trkpt>
      <trkpt lat="45.98755" lon="4.83088">
        <ele>266</ele>
        <time>2016-08-25T09:01:35Z</time>
      </trkpt>
      <trkpt lat="45.98752" lon="4.8309">
        <ele>266</ele>
        <time>2016-08-25T09:01:36Z</time>
      </trkpt>
      <trkpt lat="45.98747" lon="4.83096">
        <ele>267</ele>
        <time>2016-08-25T09:01:38Z</time>
      </trkpt>
      <trkpt lat="45.98744" lon="4.83099">
        <ele>267</ele>
        <time>2016-08-25T09:01:39Z</time>
      </trkpt>
      <trkpt lat="45.98739" lon="4.83104">
        <ele>267</ele>
        <time>2016-08-25T09:01:41Z</time>
      </trkpt>
      <trkpt lat="45.98736" lon="4.83107">
        <ele>267</ele>
        <time>2016-08-25T09:01:42Z</time>
      </trkpt>
      <trkpt lat="45.98731" lon="4.83112">
        <ele>267</ele>
        <time>2016-08-25T09:01:44Z</time>
      </trkpt>
      <trkpt lat="45.98728" lon="4.83115">
        <ele>267</ele>
        <time>2016-08-25T09:01:45Z</time>
      </trkpt>
      <trkpt lat="45.98721" lon="4.8312">
        <ele>266</ele>
        <time>2016-08-25T09:01:47Z</time>
      </trkpt>
      <trkpt lat="45.98718" lon="4.83122">
        <ele>266</ele>
        <time>2016-08-25T09:01:48Z</time>
      </trkpt>
      <trkpt lat="45.98712" lon="4.83127">
        <ele>266</ele>
        <time>2016-08-25T09:01:50Z</time>
      </trkpt>
      <trkpt lat="45.98708" lon="4.83129">
        <ele>266</ele>
        <time>2016-08-25T09:01:51Z</time>
      </trkpt>
      <trkpt lat="45.98702" lon="4.83133">
        <ele>266</ele>
        <time>2016-08-25T09:01:53Z</time>
      </trkpt>
      <trkpt lat="45.98699" lon="4.83136">
        <ele>266</ele>
        <time>2016-08-25T09:01:54Z</time>
      </trkpt>
      <trkpt lat="45.98692" lon="4.83142">
        <ele>266</ele>
        <time>2016-08-25T09:01:56Z</time>
      </trkpt>
      <trkpt lat="45.98689" lon="4.83144">
        <ele>266</ele>
        <time>2016-08-25T09:01:57Z</time>
      </trkpt>
      <trkpt lat="45.98683" lon="4.83149">
        <ele>266</ele>
        <time>2016-08-25T09:01:59Z</time>
      </trkpt>
      <trkpt lat="45.9868" lon="4.83151">
        <ele>266</ele>
        <time>2016-08-25T09:02:00Z</time>
      </trkpt>
      <trkpt lat="45.98673" lon="4.83157">
        <ele>266</ele>
        <time>2016-08-25T09:02:02Z</time>
      </trkpt>
      <trkpt lat="45.9867" lon="4.83159">
        <ele>266</ele>
        <time>2016-08-25T09:02:03Z</time>
      </trkpt>
      <trkpt lat="45.98662" lon="4.83165">
        <ele>266</ele>
        <time>2016-08-25T09:02:05Z</time>
      </trkpt>
      <trkpt lat="45.98658" lon="4.83167">
        <ele>266</ele>
        <time>2016-08-25T09:02:06Z</time>
      </trkpt>
      <trkpt lat="45.98651" lon="4.83173">
        <ele>267</ele>
        <time>2016-08-25T09:02:08Z</time>
      </trkpt>
      <trkpt lat="45.98648" lon="4.83176">
        <ele>267</ele>
        <time>2016-08-25T09:02:09Z</time>
      </trkpt>
      <trkpt lat="45.98641" lon="4.83182">
        <ele>267</ele>
        <time>2016-08-25T09:02:11Z</time>
      </trkpt>
      <trkpt lat="45.98638" lon="4.83186">
        <ele>267</ele>
        <time>2016-08-25T09:02:12Z</time>
      </trkpt>
      <trkpt lat="45.98632" lon="4.83193">
        <ele>267</ele>
        <time>2016-08-25T09:02:14Z</time>
      </trkpt>
      <trkpt lat="45.98628" lon="4.83196">
        <ele>267</ele>
        <time>2016-08-25T09:02:15Z</time>
      </trkpt>
      <trkpt lat="45.98622" lon="4.83204">
        <ele>267</ele>
        <time>2016-08-25T09:02:17Z</time>
      </trkpt>
      <trkpt lat="45.98618" lon="4.83209">
        <ele>267</ele>
        <time>2016-08-25T09:02:18Z</time>
      </trkpt>
      <trkpt lat="45.98614" lon="4.83214">
        <ele>267</ele>
        <time>2016-08-25T09:02:19Z</time>
      </trkpt>
      <trkpt lat="45.9861" lon="4.83218">
        <ele>267</ele>
        <time>2016-08-25T09:02:20Z</time>
      </trkpt>
      <trkpt lat="45.98606" lon="4.83223">
        <ele>267</ele>
        <time>2016-08-25T09:02:21Z</time>
      </trkpt>
      <trkpt lat="45.98603" lon="4.83228">
        <ele>268</ele>
        <time>2016-08-25T09:02:22Z</time>
      </trkpt>
      <trkpt lat="45.98596" lon="4.83236">
        <ele>268</ele>
        <time>2016-08-25T09:02:24Z</time>
      </trkpt>
      <trkpt lat="45.98593" lon="4.8324">
        <ele>268</ele>
        <time>2016-08-25T09:02:25Z</time>
      </trkpt>
      <trkpt lat="45.98587" lon="4.83249">
        <ele>268</ele>
        <time>2016-08-25T09:02:27Z</time>
      </trkpt>
      <trkpt lat="45.98584" lon="4.83253">
        <ele>268</ele>
        <time>2016-08-25T09:02:28Z</time>
      </trkpt>
      <trkpt lat="45.98578" lon="4.83261">
        <ele>268</ele>
        <time>2016-08-25T09:02:30Z</time>
      </trkpt>
      <trkpt lat="45.98575" lon="4.83265">
        <ele>269</ele>
        <time>2016-08-25T09:02:31Z</time>
      </trkpt>
      <trkpt lat="45.98569" lon="4.83273">
        <ele>269</ele>
        <time>2016-08-25T09:02:33Z</time>
      </trkpt>
      <trkpt lat="45.98566" lon="4.83277">
        <ele>269</ele>
        <time>2016-08-25T09:02:34Z</time>
      </trkpt>
      <trkpt lat="45.9856" lon="4.83284">
        <ele>269</ele>
        <time>2016-08-25T09:02:36Z</time>
      </trkpt>
      <trkpt lat="45.98557" lon="4.83289">
        <ele>269</ele>
        <time>2016-08-25T09:02:37Z</time>
      </trkpt>
      <trkpt lat="45.98551" lon="4.83297">
        <ele>269</ele>
        <time>2016-08-25T09:02:39Z</time>
      </trkpt>
      <trkpt lat="45.98548" lon="4.833">
        <ele>269</ele>
        <time>2016-08-25T09:02:40Z</time>
      </trkpt>
      <trkpt lat="45.98542" lon="4.83309">
        <ele>269</ele>
        <time>2016-08-25T09:02:42Z</time>
      </trkpt>
      <trkpt lat="45.9854" lon="4.83313">
        <ele>269</ele>
        <time>2016-08-25T09:02:43Z</time>
      </trkpt>
      <trkpt lat="45.98533" lon="4.83322">
        <ele>269</ele>
        <time>2016-08-25T09:02:45Z</time>
      </trkpt>
      <trkpt lat="45.9853" lon="4.83326">
        <ele>269</ele>
        <time>2016-08-25T09:02:46Z</time>
      </trkpt>
      <trkpt lat="45.98524" lon="4.83336">
        <ele>270</ele>
        <time>2016-08-25T09:02:48Z</time>
      </trkpt>
      <trkpt lat="45.9852" lon="4.8334">
        <ele>270</ele>
        <time>2016-08-25T09:02:49Z</time>
      </trkpt>
      <trkpt lat="45.98517" lon="4.83345">
        <ele>270</ele>
        <time>2016-08-25T09:02:50Z</time>
      </trkpt>
      <trkpt lat="45.98514" lon="4.83349">
        <ele>270</ele>
        <time>2016-08-25T09:02:51Z</time>
      </trkpt>
      <trkpt lat="45.9851" lon="4.83354">
        <ele>270</ele>
        <time>2016-08-25T09:02:52Z</time>
      </trkpt>
      <trkpt lat="45.98506" lon="4.83359">
        <ele>269</ele>
        <time>2016-08-25T09:02:53Z</time>
      </trkpt>
      <trkpt lat="45.98503" lon="4.83363">
        <ele>269</ele>
        <time>2016-08-25T09:02:54Z</time>
      </trkpt>
      <trkpt lat="45.985" lon="4.83368">
        <ele>270</ele>
        <time>2016-08-25T09:02:55Z</time>
      </trkpt>
      <trkpt lat="45.98496" lon="4.83373">
        <ele>270</ele>
        <time>2016-08-25T09:02:56Z</time>
      </trkpt>
      <trkpt lat="45.98493" lon="4.83379">
        <ele>269</ele>
        <time>2016-08-25T09:02:57Z</time>
      </trkpt>
      <trkpt lat="45.98489" lon="4.83384">
        <ele>269</ele>
        <time>2016-08-25T09:02:58Z</time>
      </trkpt>
      <trkpt lat="45.98486" lon="4.83389">
        <ele>269</ele>
        <time>2016-08-25T09:02:59Z</time>
      </trkpt>
      <trkpt lat="45.98482" lon="4.83394">
        <ele>269</ele>
        <time>2016-08-25T09:03:00Z</time>
      </trkpt>
      <trkpt lat="45.98479" lon="4.83399">
        <ele>269</ele>
        <time>2016-08-25T09:03:01Z</time>
      </trkpt>
      <trkpt lat="45.98475" lon="4.83404">
        <ele>269</ele>
        <time>2016-08-25T09:03:02Z</time>
      </trkpt>
      <trkpt lat="45.98472" lon="4.83408">
        <ele>269</ele>
        <time>2016-08-25T09:03:03Z</time>
      </trkpt>
      <trkpt lat="45.98468" lon="4.83413">
        <ele>269</ele>
        <time>2016-08-25T09:03:04Z</time>
      </trkpt>
      <trkpt lat="45.98464" lon="4.83417">
        <ele>269</ele>
        <time>2016-08-25T09:03:05Z</time>
      </trkpt>
      <trkpt lat="45.98461" lon="4.83421">
        <ele>269</ele>
        <time>2016-08-25T09:03:06Z</time>
      </trkpt>
      <trkpt lat="45.98457" lon="4.83426">
        <ele>268</ele>
        <time>2016-08-25T09:03:07Z</time>
      </trkpt>
      <trkpt lat="45.98454" lon="4.83431">
        <ele>268</ele>
        <time>2016-08-25T09:03:08Z</time>
      </trkpt>
      <trkpt lat="45.9845" lon="4.83436">
        <ele>268</ele>
        <time>2016-08-25T09:03:09Z</time>
      </trkpt>
      <trkpt lat="45.98446" lon="4.83441">
        <ele>268</ele>
        <time>2016-08-25T09:03:10Z</time>
      </trkpt>
      <trkpt lat="45.98443" lon="4.83445">
        <ele>268</ele>
        <time>2016-08-25T09:03:11Z</time>
      </trkpt>
      <trkpt lat="45.98439" lon="4.8345">
        <ele>268</ele>
        <time>2016-08-25T09:03:12Z</time>
      </trkpt>
      <trkpt lat="45.98435" lon="4.83455">
        <ele>268</ele>
        <time>2016-08-25T09:03:13Z</time>
      </trkpt>
      <trkpt lat="45.98432" lon="4.8346">
        <ele>268</ele>
        <time>2016-08-25T09:03:14Z</time>
      </trkpt>
      <trkpt lat="45.98429" lon="4.83464">
        <ele>268</ele>
        <time>2016-08-25T09:03:15Z</time>
      </trkpt>
      <trkpt lat="45.98425" lon="4.83469">
        <ele>268</ele>
        <time>2016-08-25T09:03:16Z</time>
      </trkpt>
      <trkpt lat="45.98422" lon="4.83474">
        <ele>268</ele>
        <time>2016-08-25T09:03:17Z</time>
      </trkpt>
      <trkpt lat="45.98418" lon="4.83479">
        <ele>268</ele>
        <time>2016-08-25T09:03:18Z</time>
      </trkpt>
      <trkpt lat="45.98414" lon="4.83483">
        <ele>269</ele>
        <time>2016-08-25T09:03:19Z</time>
      </trkpt>
      <trkpt lat="45.98411" lon="4.83488">
        <ele>269</ele>
        <time>2016-08-25T09:03:20Z</time>
      </trkpt>
      <trkpt lat="45.98408" lon="4.83493">
        <ele>268</ele>
        <time>2016-08-25T09:03:21Z</time>
      </trkpt>
      <trkpt lat="45.98405" lon="4.83498">
        <ele>269</ele>
        <time>2016-08-25T09:03:22Z</time>
      </trkpt>
      <trkpt lat="45.98401" lon="4.83503">
        <ele>268</ele>
        <time>2016-08-25T09:03:23Z</time>
      </trkpt>
      <trkpt lat="45.98397" lon="4.83508">
        <ele>269</ele>
        <time>2016-08-25T09:03:24Z</time>
      </trkpt>
      <trkpt lat="45.98394" lon="4.83512">
        <ele>269</ele>
        <time>2016-08-25T09:03:25Z</time>
      </trkpt>
      <trkpt lat="45.9839" lon="4.83517">
        <ele>269</ele>
        <time>2016-08-25T09:03:26Z</time>
      </trkpt>
      <trkpt lat="45.98386" lon="4.83521">
        <ele>269</ele>
        <time>2016-08-25T09:03:27Z</time>
      </trkpt>
      <trkpt lat="45.98383" lon="4.83526">
        <ele>269</ele>
        <time>2016-08-25T09:03:28Z</time>
      </trkpt>
      <trkpt lat="45.9838" lon="4.83531">
        <ele>269</ele>
        <time>2016-08-25T09:03:29Z</time>
      </trkpt>
      <trkpt lat="45.98376" lon="4.83535">
        <ele>269</ele>
        <time>2016-08-25T09:03:30Z</time>
      </trkpt>
      <trkpt lat="45.98373" lon="4.8354">
        <ele>269</ele>
        <time>2016-08-25T09:03:31Z</time>
      </trkpt>
      <trkpt lat="45.98369" lon="4.83544">
        <ele>269</ele>
        <time>2016-08-25T09:03:32Z</time>
      </trkpt>
      <trkpt lat="45.98365" lon="4.83549">
        <ele>269</ele>
        <time>2016-08-25T09:03:33Z</time>
      </trkpt>
      <trkpt lat="45.98361" lon="4.83553">
        <ele>269</ele>
        <time>2016-08-25T09:03:34Z</time>
      </trkpt>
      <trkpt lat="45.98358" lon="4.83558">
        <ele>269</ele>
        <time>2016-08-25T09:03:35Z</time>
      </trkpt>
      <trkpt lat="45.98355" lon="4.83563">
        <ele>269</ele>
        <time>2016-08-25T09:03:36Z</time>
      </trkpt>
      <trkpt lat="45.98351" lon="4.83567">
        <ele>269</ele>
        <time>2016-08-25T09:03:37Z</time>
      </trkpt>
      <trkpt lat="45.98347" lon="4.83572">
        <ele>269</ele>
        <time>2016-08-25T09:03:38Z</time>
      </trkpt>
      <trkpt lat="45.98343" lon="4.83577">
        <ele>270</ele>
        <time>2016-08-25T09:03:39Z</time>
      </trkpt>
      <trkpt lat="45.98339" lon="4.83581">
        <ele>270</ele>
        <time>2016-08-25T09:03:40Z</time>
      </trkpt>
      <trkpt lat="45.98335" lon="4.83586">
        <ele>270</ele>
        <time>2016-08-25T09:03:41Z</time>
      </trkpt>
      <trkpt lat="45.98332" lon="4.83591">
        <ele>270</ele>
        <time>2016-08-25T09:03:42Z</time>
      </trkpt>
      <trkpt lat="45.98329" lon="4.83596">
        <ele>270</ele>
        <time>2016-08-25T09:03:43Z</time>
      </trkpt>
      <trkpt lat="45.98323" lon="4.83605">
        <ele>271</ele>
        <time>2016-08-25T09:03:45Z</time>
      </trkpt>
      <trkpt lat="45.9832" lon="4.83609">
        <ele>271</ele>
        <time>2016-08-25T09:03:46Z</time>
      </trkpt>
      <trkpt lat="45.98315" lon="4.83618">
        <ele>271</ele>
        <time>2016-08-25T09:03:48Z</time>
      </trkpt>
      <trkpt lat="45.98312" lon="4.83623">
        <ele>271</ele>
        <time>2016-08-25T09:03:49Z</time>
      </trkpt>
      <trkpt lat="45.98307" lon="4.83633">
        <ele>271</ele>
        <time>2016-08-25T09:03:51Z</time>
      </trkpt>
      <trkpt lat="45.98304" lon="4.83637">
        <ele>271</ele>
        <time>2016-08-25T09:03:52Z</time>
      </trkpt>
      <trkpt lat="45.98299" lon="4.83648">
        <ele>271</ele>
        <time>2016-08-25T09:03:54Z</time>
      </trkpt>
      <trkpt lat="45.98297" lon="4.83653">
        <ele>271</ele>
        <time>2016-08-25T09:03:55Z</time>
      </trkpt>
      <trkpt lat="45.98294" lon="4.83659">
        <ele>271</ele>
        <time>2016-08-25T09:03:56Z</time>
      </trkpt>
      <trkpt lat="45.98291" lon="4.83664">
        <ele>272</ele>
        <time>2016-08-25T09:03:57Z</time>
      </trkpt>
      <trkpt lat="45.98289" lon="4.8367">
        <ele>272</ele>
        <time>2016-08-25T09:03:58Z</time>
      </trkpt>
      <trkpt lat="45.98287" lon="4.83676">
        <ele>272</ele>
        <time>2016-08-25T09:03:59Z</time>
      </trkpt>
      <trkpt lat="45.98285" lon="4.83681">
        <ele>272</ele>
        <time>2016-08-25T09:04:00Z</time>
      </trkpt>
      <trkpt lat="45.98282" lon="4.83688">
        <ele>272</ele>
        <time>2016-08-25T09:04:01Z</time>
      </trkpt>
      <trkpt lat="45.9828" lon="4.83694">
        <ele>272</ele>
        <time>2016-08-25T09:04:02Z</time>
      </trkpt>
      <trkpt lat="45.98278" lon="4.83701">
        <ele>272</ele>
        <time>2016-08-25T09:04:03Z</time>
      </trkpt>
      <trkpt lat="45.98276" lon="4.83707">
        <ele>272</ele>
        <time>2016-08-25T09:04:04Z</time>
      </trkpt>
      <trkpt lat="45.98274" lon="4.83714">
        <ele>272</ele>
        <time>2016-08-25T09:04:05Z</time>
      </trkpt>
      <trkpt lat="45.98271" lon="4.83721">
        <ele>272</ele>
        <time>2016-08-25T09:04:06Z</time>
      </trkpt>
      <trkpt lat="45.98269" lon="4.83728">
        <ele>272</ele>
        <time>2016-08-25T09:04:07Z</time>
      </trkpt>
      <trkpt lat="45.98266" lon="4.83735">
        <ele>272</ele>
        <time>2016-08-25T09:04:08Z</time>
      </trkpt>
      <trkpt lat="45.98264" lon="4.83741">
        <ele>272</ele>
        <time>2016-08-25T09:04:09Z</time>
      </trkpt>
      <trkpt lat="45.98263" lon="4.83748">
        <ele>272</ele>
        <time>2016-08-25T09:04:10Z</time>
      </trkpt>
      <trkpt lat="45.98261" lon="4.83754">
        <ele>272</ele>
        <time>2016-08-25T09:04:11Z</time>
      </trkpt>
      <trkpt lat="45.98259" lon="4.8376">
        <ele>272</ele>
        <time>2016-08-25T09:04:12Z</time>
      </trkpt>
      <trkpt lat="45.98257" lon="4.83766">
        <ele>272</ele>
        <time>2016-08-25T09:04:13Z</time>
      </trkpt>
      <trkpt lat="45.98255" lon="4.83773">
        <ele>272</ele>
        <time>2016-08-25T09:04:14Z</time>
      </trkpt>
      <trkpt lat="45.98253" lon="4.83779">
        <ele>272</ele>
        <time>2016-08-25T09:04:15Z</time>
      </trkpt>
      <trkpt lat="45.98251" lon="4.83785">
        <ele>272</ele>
        <time>2016-08-25T09:04:16Z</time>
      </trkpt>
      <trkpt lat="45.98249" lon="4.83791">
        <ele>272</ele>
        <time>2016-08-25T09:04:17Z</time>
      </trkpt>
      <trkpt lat="45.98247" lon="4.83797">
        <ele>272</ele>
        <time>2016-08-25T09:04:18Z</time>
      </trkpt>
      <trkpt lat="45.98245" lon="4.83803">
        <ele>272</ele>
        <time>2016-08-25T09:04:19Z</time>
      </trkpt>
      <trkpt lat="45.9824" lon="4.83814">
        <ele>272</ele>
        <time>2016-08-25T09:04:21Z</time>
      </trkpt>
      <trkpt lat="45.98239" lon="4.83819">
        <ele>272</ele>
        <time>2016-08-25T09:04:22Z</time>
      </trkpt>
      <trkpt lat="45.98236" lon="4.83825">
        <ele>272</ele>
        <time>2016-08-25T09:04:23Z</time>
      </trkpt>
      <trkpt lat="45.98234" lon="4.8383">
        <ele>272</ele>
        <time>2016-08-25T09:04:24Z</time>
      </trkpt>
      <trkpt lat="45.98232" lon="4.83836">
        <ele>272</ele>
        <time>2016-08-25T09:04:25Z</time>
      </trkpt>
      <trkpt lat="45.9823" lon="4.83842">
        <ele>272</ele>
        <time>2016-08-25T09:04:26Z</time>
      </trkpt>
      <trkpt lat="45.98226" lon="4.83854">
        <ele>272</ele>
        <time>2016-08-25T09:04:28Z</time>
      </trkpt>
      <trkpt lat="45.98225" lon="4.83859">
        <ele>272</ele>
        <time>2016-08-25T09:04:29Z</time>
      </trkpt>
      <trkpt lat="45.98222" lon="4.83865">
        <ele>272</ele>
        <time>2016-08-25T09:04:30Z</time>
      </trkpt>
      <trkpt lat="45.9822" lon="4.83871">
        <ele>272</ele>
        <time>2016-08-25T09:04:31Z</time>
      </trkpt>
      <trkpt lat="45.98217" lon="4.83883">
        <ele>272</ele>
        <time>2016-08-25T09:04:33Z</time>
      </trkpt>
      <trkpt lat="45.98214" lon="4.83889">
        <ele>273</ele>
        <time>2016-08-25T09:04:34Z</time>
      </trkpt>
      <trkpt lat="45.98212" lon="4.83895">
        <ele>273</ele>
        <time>2016-08-25T09:04:35Z</time>
      </trkpt>
      <trkpt lat="45.9821" lon="4.83901">
        <ele>273</ele>
        <time>2016-08-25T09:04:36Z</time>
      </trkpt>
      <trkpt lat="45.98208" lon="4.83907">
        <ele>273</ele>
        <time>2016-08-25T09:04:37Z</time>
      </trkpt>
      <trkpt lat="45.98206" lon="4.83913">
        <ele>273</ele>
        <time>2016-08-25T09:04:38Z</time>
      </trkpt>
      <trkpt lat="45.98204" lon="4.83919">
        <ele>273</ele>
        <time>2016-08-25T09:04:39Z</time>
      </trkpt>
      <trkpt lat="45.98202" lon="4.83925">
        <ele>273</ele>
        <time>2016-08-25T09:04:40Z</time>
      </trkpt>
      <trkpt lat="45.98199" lon="4.83931">
        <ele>273</ele>
        <time>2016-08-25T09:04:41Z</time>
      </trkpt>
      <trkpt lat="45.98197" lon="4.83937">
        <ele>273</ele>
        <time>2016-08-25T09:04:42Z</time>
      </trkpt>
      <trkpt lat="45.98194" lon="4.83943">
        <ele>273</ele>
        <time>2016-08-25T09:04:43Z</time>
      </trkpt>
      <trkpt lat="45.98192" lon="4.83949">
        <ele>273</ele>
        <time>2016-08-25T09:04:44Z</time>
      </trkpt>
      <trkpt lat="45.9819" lon="4.83955">
        <ele>273</ele>
        <time>2016-08-25T09:04:45Z</time>
      </trkpt>
      <trkpt lat="45.98188" lon="4.83961">
        <ele>273</ele>
        <time>2016-08-25T09:04:46Z</time>
      </trkpt>
      <trkpt lat="45.98186" lon="4.83967">
        <ele>273</ele>
        <time>2016-08-25T09:04:47Z</time>
      </trkpt>
      <trkpt lat="45.98183" lon="4.83973">
        <ele>273</ele>
        <time>2016-08-25T09:04:48Z</time>
      </trkpt>
      <trkpt lat="45.98181" lon="4.83979">
        <ele>273</ele>
        <time>2016-08-25T09:04:49Z</time>
      </trkpt>
      <trkpt lat="45.98179" lon="4.83984">
        <ele>273</ele>
        <time>2016-08-25T09:04:50Z</time>
      </trkpt>
      <trkpt lat="45.98176" lon="4.8399">
        <ele>273</ele>
        <time>2016-08-25T09:04:51Z</time>
      </trkpt>
      <trkpt lat="45.98174" lon="4.83996">
        <ele>273</ele>
        <time>2016-08-25T09:04:52Z</time>
      </trkpt>
      <trkpt lat="45.9817" lon="4.84006">
        <ele>273</ele>
        <time>2016-08-25T09:04:54Z</time>
      </trkpt>
      <trkpt lat="45.98167" lon="4.84012">
        <ele>273</ele>
        <time>2016-08-25T09:04:55Z</time>
      </trkpt>
      <trkpt lat="45.98164" lon="4.84017">
        <ele>273</ele>
        <time>2016-08-25T09:04:56Z</time>
      </trkpt>
      <trkpt lat="45.98162" lon="4.84023">
        <ele>273</ele>
        <time>2016-08-25T09:04:57Z</time>
      </trkpt>
      <trkpt lat="45.98159" lon="4.84028">
        <ele>273</ele>
        <time>2016-08-25T09:04:58Z</time>
      </trkpt>
      <trkpt lat="45.98156" lon="4.84034">
        <ele>273</ele>
        <time>2016-08-25T09:04:59Z</time>
      </trkpt>
      <trkpt lat="45.98153" lon="4.84039">
        <ele>273</ele>
        <time>2016-08-25T09:05:00Z</time>
      </trkpt>
      <trkpt lat="45.9815" lon="4.84045">
        <ele>273</ele>
        <time>2016-08-25T09:05:01Z</time>
      </trkpt>
      <trkpt lat="45.98146" lon="4.8405">
        <ele>273</ele>
        <time>2016-08-25T09:05:02Z</time>
      </trkpt>
      <trkpt lat="45.98143" lon="4.84055">
        <ele>273</ele>
        <time>2016-08-25T09:05:03Z</time>
      </trkpt>
      <trkpt lat="45.98139" lon="4.84061">
        <ele>273</ele>
        <time>2016-08-25T09:05:04Z</time>
      </trkpt>
      <trkpt lat="45.98135" lon="4.84066">
        <ele>273</ele>
        <time>2016-08-25T09:05:05Z</time>
      </trkpt>
      <trkpt lat="45.98131" lon="4.8407">
        <ele>273</ele>
        <time>2016-08-25T09:05:06Z</time>
      </trkpt>
      <trkpt lat="45.98128" lon="4.84075">
        <ele>273</ele>
        <time>2016-08-25T09:05:07Z</time>
      </trkpt>
      <trkpt lat="45.9812" lon="4.84083">
        <ele>273</ele>
        <time>2016-08-25T09:05:09Z</time>
      </trkpt>
      <trkpt lat="45.98117" lon="4.84086">
        <ele>273</ele>
        <time>2016-08-25T09:05:10Z</time>
      </trkpt>
      <trkpt lat="45.9811" lon="4.84094">
        <ele>273</ele>
        <time>2016-08-25T09:05:12Z</time>
      </trkpt>
      <trkpt lat="45.98106" lon="4.84097">
        <ele>273</ele>
        <time>2016-08-25T09:05:13Z</time>
      </trkpt>
      <trkpt lat="45.98099" lon="4.84104">
        <ele>273</ele>
        <time>2016-08-25T09:05:15Z</time>
      </trkpt>
      <trkpt lat="45.98095" lon="4.84108">
        <ele>273</ele>
        <time>2016-08-25T09:05:16Z</time>
      </trkpt>
      <trkpt lat="45.98088" lon="4.84115">
        <ele>273</ele>
        <time>2016-08-25T09:05:18Z</time>
      </trkpt>
      <trkpt lat="45.98084" lon="4.84118">
        <ele>273</ele>
        <time>2016-08-25T09:05:19Z</time>
      </trkpt>
      <trkpt lat="45.98077" lon="4.84125">
        <ele>273</ele>
        <time>2016-08-25T09:05:21Z</time>
      </trkpt>
      <trkpt lat="45.98073" lon="4.84128">
        <ele>273</ele>
        <time>2016-08-25T09:05:22Z</time>
      </trkpt>
      <trkpt lat="45.98066" lon="4.84134">
        <ele>273</ele>
        <time>2016-08-25T09:05:24Z</time>
      </trkpt>
      <trkpt lat="45.98062" lon="4.84137">
        <ele>273</ele>
        <time>2016-08-25T09:05:25Z</time>
      </trkpt>
      <trkpt lat="45.98054" lon="4.84144">
        <ele>273</ele>
        <time>2016-08-25T09:05:27Z</time>
      </trkpt>
      <trkpt lat="45.9805" lon="4.84147">
        <ele>273</ele>
        <time>2016-08-25T09:05:28Z</time>
      </trkpt>
      <trkpt lat="45.98046" lon="4.84151">
        <ele>273</ele>
        <time>2016-08-25T09:05:29Z</time>
      </trkpt>
      <trkpt lat="45.98042" lon="4.84155">
        <ele>273</ele>
        <time>2016-08-25T09:05:30Z</time>
      </trkpt>
      <trkpt lat="45.98038" lon="4.84158">
        <ele>273</ele>
        <time>2016-08-25T09:05:31Z</time>
      </trkpt>
      <trkpt lat="45.98034" lon="4.84162">
        <ele>273</ele>
        <time>2016-08-25T09:05:32Z</time>
      </trkpt>
      <trkpt lat="45.9803" lon="4.84166">
        <ele>273</ele>
        <time>2016-08-25T09:05:33Z</time>
      </trkpt>
      <trkpt lat="45.98026" lon="4.8417">
        <ele>274</ele>
        <time>2016-08-25T09:05:34Z</time>
      </trkpt>
      <trkpt lat="45.98022" lon="4.84173">
        <ele>274</ele>
        <time>2016-08-25T09:05:35Z</time>
      </trkpt>
      <trkpt lat="45.98019" lon="4.84177">
        <ele>274</ele>
        <time>2016-08-25T09:05:36Z</time>
      </trkpt>
      <trkpt lat="45.98011" lon="4.84184">
        <ele>274</ele>
        <time>2016-08-25T09:05:38Z</time>
      </trkpt>
      <trkpt lat="45.98008" lon="4.84187">
        <ele>274</ele>
        <time>2016-08-25T09:05:39Z</time>
      </trkpt>
      <trkpt lat="45.98004" lon="4.84191">
        <ele>274</ele>
        <time>2016-08-25T09:05:40Z</time>
      </trkpt>
      <trkpt lat="45.98" lon="4.84194">
        <ele>274</ele>
        <time>2016-08-25T09:05:41Z</time>
      </trkpt>
      <trkpt lat="45.97993" lon="4.84201">
        <ele>274</ele>
        <time>2016-08-25T09:05:43Z</time>
      </trkpt>
      <trkpt lat="45.97989" lon="4.84205">
        <ele>274</ele>
        <time>2016-08-25T09:05:44Z</time>
      </trkpt>
      <trkpt lat="45.97982" lon="4.84212">
        <ele>274</ele>
        <time>2016-08-25T09:05:46Z</time>
      </trkpt>
      <trkpt lat="45.97978" lon="4.84216">
        <ele>274</ele>
        <time>2016-08-25T09:05:47Z</time>
      </trkpt>
      <trkpt lat="45.97974" lon="4.84219">
        <ele>274</ele>
        <time>2016-08-25T09:05:48Z</time>
      </trkpt>
      <trkpt lat="45.9797" lon="4.84223">
        <ele>274</ele>
        <time>2016-08-25T09:05:49Z</time>
      </trkpt>
      <trkpt lat="45.97966" lon="4.84227">
        <ele>274</ele>
        <time>2016-08-25T09:05:50Z</time>
      </trkpt>
      <trkpt lat="45.97962" lon="4.84231">
        <ele>274</ele>
        <time>2016-08-25T09:05:51Z</time>
      </trkpt>
      <trkpt lat="45.97958" lon="4.84236">
        <ele>275</ele>
        <time>2016-08-25T09:05:52Z</time>
      </trkpt>
      <trkpt lat="45.97954" lon="4.8424">
        <ele>275</ele>
        <time>2016-08-25T09:05:53Z</time>
      </trkpt>
      <trkpt lat="45.9795" lon="4.84244">
        <ele>275</ele>
        <time>2016-08-25T09:05:54Z</time>
      </trkpt>
      <trkpt lat="45.97946" lon="4.84248">
        <ele>275</ele>
        <time>2016-08-25T09:05:55Z</time>
      </trkpt>
      <trkpt lat="45.97942" lon="4.84252">
        <ele>275</ele>
        <time>2016-08-25T09:05:56Z</time>
      </trkpt>
      <trkpt lat="45.97938" lon="4.84256">
        <ele>275</ele>
        <time>2016-08-25T09:05:57Z</time>
      </trkpt>
      <trkpt lat="45.97934" lon="4.84261">
        <ele>275</ele>
        <time>2016-08-25T09:05:58Z</time>
      </trkpt>
      <trkpt lat="45.9793" lon="4.84265">
        <ele>275</ele>
        <time>2016-08-25T09:05:59Z</time>
      </trkpt>
      <trkpt lat="45.97926" lon="4.8427">
        <ele>275</ele>
        <time>2016-08-25T09:06:00Z</time>
      </trkpt>
      <trkpt lat="45.97924" lon="4.84277">
        <ele>275</ele>
        <time>2016-08-25T09:06:01Z</time>
      </trkpt>
      <trkpt lat="45.97922" lon="4.84283">
        <ele>275</ele>
        <time>2016-08-25T09:06:02Z</time>
      </trkpt>
      <trkpt lat="45.97921" lon="4.8429">
        <ele>275</ele>
        <time>2016-08-25T09:06:03Z</time>
      </trkpt>
      <trkpt lat="45.97922" lon="4.84297">
        <ele>275</ele>
        <time>2016-08-25T09:06:04Z</time>
      </trkpt>
      <trkpt lat="45.97923" lon="4.84304">
        <ele>275</ele>
        <time>2016-08-25T09:06:05Z</time>
      </trkpt>
      <trkpt lat="45.97923" lon="4.84311">
        <ele>275</ele>
        <time>2016-08-25T09:06:06Z</time>
      </trkpt>
      <trkpt lat="45.97925" lon="4.84318">
        <ele>275</ele>
        <time>2016-08-25T09:06:07Z</time>
      </trkpt>
      <trkpt lat="45.97926" lon="4.84325">
        <ele>275</ele>
        <time>2016-08-25T09:06:08Z</time>
      </trkpt>
      <trkpt lat="45.97927" lon="4.84332">
        <ele>275</ele>
        <time>2016-08-25T09:06:09Z</time>
      </trkpt>
      <trkpt lat="45.97929" lon="4.84339">
        <ele>275</ele>
        <time>2016-08-25T09:06:10Z</time>
      </trkpt>
      <trkpt lat="45.9793" lon="4.84347">
        <ele>275</ele>
        <time>2016-08-25T09:06:11Z</time>
      </trkpt>
      <trkpt lat="45.97932" lon="4.84355">
        <ele>275</ele>
        <time>2016-08-25T09:06:12Z</time>
      </trkpt>
      <trkpt lat="45.97933" lon="4.84362">
        <ele>275</ele>
        <time>2016-08-25T09:06:13Z</time>
      </trkpt>
      <trkpt lat="45.97934" lon="4.84369">
        <ele>275</ele>
        <time>2016-08-25T09:06:14Z</time>
      </trkpt>
      <trkpt lat="45.97935" lon="4.84376">
        <ele>275</ele>
        <time>2016-08-25T09:06:15Z</time>
      </trkpt>
      <trkpt lat="45.97936" lon="4.84383">
        <ele>275</ele>
        <time>2016-08-25T09:06:16Z</time>
      </trkpt>
      <trkpt lat="45.97937" lon="4.84389">
        <ele>275</ele>
        <time>2016-08-25T09:06:17Z</time>
      </trkpt>
      <trkpt lat="45.97939" lon="4.84396">
        <ele>275</ele>
        <time>2016-08-25T09:06:18Z</time>
      </trkpt>
      <trkpt lat="45.9794" lon="4.84403">
        <ele>275</ele>
        <time>2016-08-25T09:06:19Z</time>
      </trkpt>
      <trkpt lat="45.97941" lon="4.8441">
        <ele>275</ele>
        <time>2016-08-25T09:06:20Z</time>
      </trkpt>
      <trkpt lat="45.97943" lon="4.84416">
        <ele>275</ele>
        <time>2016-08-25T09:06:21Z</time>
      </trkpt>
      <trkpt lat="45.97944" lon="4.84423">
        <ele>275</ele>
        <time>2016-08-25T09:06:22Z</time>
      </trkpt>
      <trkpt lat="45.97945" lon="4.8443">
        <ele>275</ele>
        <time>2016-08-25T09:06:23Z</time>
      </trkpt>
      <trkpt lat="45.97946" lon="4.84437">
        <ele>275</ele>
        <time>2016-08-25T09:06:24Z</time>
      </trkpt>
      <trkpt lat="45.97947" lon="4.84444">
        <ele>275</ele>
        <time>2016-08-25T09:06:25Z</time>
      </trkpt>
      <trkpt lat="45.97949" lon="4.8445">
        <ele>275</ele>
        <time>2016-08-25T09:06:26Z</time>
      </trkpt>
      <trkpt lat="45.9795" lon="4.84457">
        <ele>275</ele>
        <time>2016-08-25T09:06:27Z</time>
      </trkpt>
      <trkpt lat="45.97951" lon="4.84463">
        <ele>275</ele>
        <time>2016-08-25T09:06:28Z</time>
      </trkpt>
      <trkpt lat="45.97952" lon="4.8447">
        <ele>275</ele>
        <time>2016-08-25T09:06:29Z</time>
      </trkpt>
      <trkpt lat="45.97954" lon="4.84477">
        <ele>275</ele>
        <time>2016-08-25T09:06:30Z</time>
      </trkpt>
      <trkpt lat="45.97955" lon="4.84483">
        <ele>275</ele>
        <time>2016-08-25T09:06:31Z</time>
      </trkpt>
      <trkpt lat="45.97956" lon="4.8449">
        <ele>275</ele>
        <time>2016-08-25T09:06:32Z</time>
      </trkpt>
      <trkpt lat="45.97957" lon="4.84496">
        <ele>275</ele>
        <time>2016-08-25T09:06:33Z</time>
      </trkpt>
      <trkpt lat="45.97959" lon="4.84504">
        <ele>275</ele>
        <time>2016-08-25T09:06:34Z</time>
      </trkpt>
      <trkpt lat="45.9796" lon="4.84512">
        <ele>275</ele>
        <time>2016-08-25T09:06:35Z</time>
      </trkpt>
      <trkpt lat="45.97961" lon="4.84519">
        <ele>275</ele>
        <time>2016-08-25T09:06:36Z</time>
      </trkpt>
      <trkpt lat="45.97962" lon="4.84527">
        <ele>275</ele>
        <time>2016-08-25T09:06:37Z</time>
      </trkpt>
      <trkpt lat="45.97963" lon="4.84535">
        <ele>275</ele>
        <time>2016-08-25T09:06:38Z</time>
      </trkpt>
      <trkpt lat="45.97965" lon="4.84542">
        <ele>275</ele>
        <time>2016-08-25T09:06:39Z</time>
      </trkpt>
      <trkpt lat="45.97966" lon="4.84549">
        <ele>275</ele>
        <time>2016-08-25T09:06:40Z</time>
      </trkpt>
      <trkpt lat="45.97967" lon="4.84557">
        <ele>275</ele>
        <time>2016-08-25T09:06:41Z</time>
      </trkpt>
      <trkpt lat="45.97968" lon="4.84564">
        <ele>275</ele>
        <time>2016-08-25T09:06:42Z</time>
      </trkpt>
      <trkpt lat="45.97969" lon="4.84572">
        <ele>275</ele>
        <time>2016-08-25T09:06:43Z</time>
      </trkpt>
      <trkpt lat="45.9797" lon="4.84579">
        <ele>275</ele>
        <time>2016-08-25T09:06:44Z</time>
      </trkpt>
      <trkpt lat="45.97972" lon="4.84586">
        <ele>275</ele>
        <time>2016-08-25T09:06:45Z</time>
      </trkpt>
      <trkpt lat="45.97973" lon="4.84593">
        <ele>275</ele>
        <time>2016-08-25T09:06:46Z</time>
      </trkpt>
      <trkpt lat="45.97974" lon="4.84601">
        <ele>275</ele>
        <time>2016-08-25T09:06:47Z</time>
      </trkpt>
      <trkpt lat="45.97975" lon="4.84607">
        <ele>275</ele>
        <time>2016-08-25T09:06:48Z</time>
      </trkpt>
      <trkpt lat="45.97977" lon="4.84614">
        <ele>275</ele>
        <time>2016-08-25T09:06:49Z</time>
      </trkpt>
      <trkpt lat="45.97978" lon="4.84622">
        <ele>275</ele>
        <time>2016-08-25T09:06:50Z</time>
      </trkpt>
      <trkpt lat="45.97979" lon="4.84629">
        <ele>275</ele>
        <time>2016-08-25T09:06:51Z</time>
      </trkpt>
      <trkpt lat="45.97981" lon="4.84637">
        <ele>275</ele>
        <time>2016-08-25T09:06:52Z</time>
      </trkpt>
      <trkpt lat="45.97982" lon="4.84645">
        <ele>275</ele>
        <time>2016-08-25T09:06:53Z</time>
      </trkpt>
      <trkpt lat="45.97983" lon="4.84653">
        <ele>274</ele>
        <time>2016-08-25T09:06:54Z</time>
      </trkpt>
      <trkpt lat="45.97984" lon="4.84661">
        <ele>274</ele>
        <time>2016-08-25T09:06:55Z</time>
      </trkpt>
      <trkpt lat="45.97985" lon="4.84669">
        <ele>275</ele>
        <time>2016-08-25T09:06:56Z</time>
      </trkpt>
      <trkpt lat="45.97985" lon="4.84677">
        <ele>275</ele>
        <time>2016-08-25T09:06:57Z</time>
      </trkpt>
      <trkpt lat="45.97987" lon="4.84685">
        <ele>275</ele>
        <time>2016-08-25T09:06:58Z</time>
      </trkpt>
      <trkpt lat="45.97988" lon="4.84693">
        <ele>275</ele>
        <time>2016-08-25T09:06:59Z</time>
      </trkpt>
      <trkpt lat="45.97989" lon="4.84701">
        <ele>275</ele>
        <time>2016-08-25T09:07:00Z</time>
      </trkpt>
      <trkpt lat="45.9799" lon="4.84709">
        <ele>275</ele>
        <time>2016-08-25T09:07:01Z</time>
      </trkpt>
      <trkpt lat="45.97991" lon="4.84717">
        <ele>275</ele>
        <time>2016-08-25T09:07:02Z</time>
      </trkpt>
      <trkpt lat="45.97992" lon="4.84725">
        <ele>275</ele>
        <time>2016-08-25T09:07:03Z</time>
      </trkpt>
      <trkpt lat="45.97993" lon="4.84734">
        <ele>275</ele>
        <time>2016-08-25T09:07:04Z</time>
      </trkpt>
      <trkpt lat="45.97994" lon="4.84742">
        <ele>275</ele>
        <time>2016-08-25T09:07:05Z</time>
      </trkpt>
      <trkpt lat="45.97994" lon="4.84751">
        <ele>275</ele>
        <time>2016-08-25T09:07:06Z</time>
      </trkpt>
      <trkpt lat="45.97994" lon="4.84759">
        <ele>275</ele>
        <time>2016-08-25T09:07:07Z</time>
      </trkpt>
      <trkpt lat="45.97995" lon="4.84766">
        <ele>275</ele>
        <time>2016-08-25T09:07:08Z</time>
      </trkpt>
      <trkpt lat="45.97995" lon="4.84774">
        <ele>274</ele>
        <time>2016-08-25T09:07:09Z</time>
      </trkpt>
      <trkpt lat="45.97995" lon="4.84781">
        <ele>274</ele>
        <time>2016-08-25T09:07:10Z</time>
      </trkpt>
      <trkpt lat="45.97996" lon="4.84789">
        <ele>274</ele>
        <time>2016-08-25T09:07:11Z</time>
      </trkpt>
      <trkpt lat="45.97997" lon="4.84796">
        <ele>274</ele>
        <time>2016-08-25T09:07:12Z</time>
      </trkpt>
      <trkpt lat="45.97997" lon="4.84803">
        <ele>274</ele>
        <time>2016-08-25T09:07:13Z</time>
      </trkpt>
      <trkpt lat="45.97997" lon="4.8481">
        <ele>273</ele>
        <time>2016-08-25T09:07:14Z</time>
      </trkpt>
      <trkpt lat="45.97998" lon="4.84818">
        <ele>273</ele>
        <time>2016-08-25T09:07:15Z</time>
      </trkpt>
      <trkpt lat="45.97999" lon="4.84826">
        <ele>273</ele>
        <time>2016-08-25T09:07:16Z</time>
      </trkpt>
      <trkpt lat="45.98" lon="4.84834">
        <ele>272</ele>
        <time>2016-08-25T09:07:17Z</time>
      </trkpt>
      <trkpt lat="45.98" lon="4.84842">
        <ele>272</ele>
        <time>2016-08-25T09:07:18Z</time>
      </trkpt>
      <trkpt lat="45.98001" lon="4.8485">
        <ele>272</ele>
        <time>2016-08-25T09:07:19Z</time>
      </trkpt>
      <trkpt lat="45.98002" lon="4.84857">
        <ele>272</ele>
        <time>2016-08-25T09:07:20Z</time>
      </trkpt>
      <trkpt lat="45.98003" lon="4.84864">
        <ele>272</ele>
        <time>2016-08-25T09:07:21Z</time>
      </trkpt>
      <trkpt lat="45.98004" lon="4.84871">
        <ele>272</ele>
        <time>2016-08-25T09:07:22Z</time>
      </trkpt>
      <trkpt lat="45.98005" lon="4.84878">
        <ele>272</ele>
        <time>2016-08-25T09:07:23Z</time>
      </trkpt>
      <trkpt lat="45.98005" lon="4.84886">
        <ele>272</ele>
        <time>2016-08-25T09:07:24Z</time>
      </trkpt>
      <trkpt lat="45.98006" lon="4.84893">
        <ele>272</ele>
        <time>2016-08-25T09:07:25Z</time>
      </trkpt>
      <trkpt lat="45.98007" lon="4.84902">
        <ele>272</ele>
        <time>2016-08-25T09:07:26Z</time>
      </trkpt>
      <trkpt lat="45.98007" lon="4.8491">
        <ele>272</ele>
        <time>2016-08-25T09:07:27Z</time>
      </trkpt>
      <trkpt lat="45.98008" lon="4.84919">
        <ele>272</ele>
        <time>2016-08-25T09:07:28Z</time>
      </trkpt>
      <trkpt lat="45.98009" lon="4.84928">
        <ele>272</ele>
        <time>2016-08-25T09:07:29Z</time>
      </trkpt>
      <trkpt lat="45.98009" lon="4.84937">
        <ele>272</ele>
        <time>2016-08-25T09:07:30Z</time>
      </trkpt>
      <trkpt lat="45.9801" lon="4.84946">
        <ele>272</ele>
        <time>2016-08-25T09:07:31Z</time>
      </trkpt>
      <trkpt lat="45.9801" lon="4.84954">
        <ele>272</ele>
        <time>2016-08-25T09:07:32Z</time>
      </trkpt>
      <trkpt lat="45.9801" lon="4.84961">
        <ele>272</ele>
        <time>2016-08-25T09:07:33Z</time>
      </trkpt>
      <trkpt lat="45.98011" lon="4.84969">
        <ele>272</ele>
        <time>2016-08-25T09:07:34Z</time>
      </trkpt>
      <trkpt lat="45.98011" lon="4.84977">
        <ele>272</ele>
        <time>2016-08-25T09:07:35Z</time>
      </trkpt>
      <trkpt lat="45.98012" lon="4.84985">
        <ele>272</ele>
        <time>2016-08-25T09:07:36Z</time>
      </trkpt>
      <trkpt lat="45.98013" lon="4.84993">
        <ele>272</ele>
        <time>2016-08-25T09:07:37Z</time>
      </trkpt>
      <trkpt lat="45.98014" lon="4.85">
        <ele>272</ele>
        <time>2016-08-25T09:07:38Z</time>
      </trkpt>
      <trkpt lat="45.98015" lon="4.85007">
        <ele>272</ele>
        <time>2016-08-25T09:07:39Z</time>
      </trkpt>
      <trkpt lat="45.98015" lon="4.85014">
        <ele>273</ele>
        <time>2016-08-25T09:07:40Z</time>
      </trkpt>
      <trkpt lat="45.98016" lon="4.85022">
        <ele>273</ele>
        <time>2016-08-25T09:07:41Z</time>
      </trkpt>
      <trkpt lat="45.98016" lon="4.85029">
        <ele>273</ele>
        <time>2016-08-25T09:07:42Z</time>
      </trkpt>
      <trkpt lat="45.98016" lon="4.85036">
        <ele>273</ele>
        <time>2016-08-25T09:07:43Z</time>
      </trkpt>
      <trkpt lat="45.98016" lon="4.85043">
        <ele>273</ele>
        <time>2016-08-25T09:07:44Z</time>
      </trkpt>
      <trkpt lat="45.98016" lon="4.8505">
        <ele>273</ele>
        <time>2016-08-25T09:07:45Z</time>
      </trkpt>
      <trkpt lat="45.98016" lon="4.85057">
        <ele>273</ele>
        <time>2016-08-25T09:07:46Z</time>
      </trkpt>
      <trkpt lat="45.98016" lon="4.85064">
        <ele>273</ele>
        <time>2016-08-25T09:07:47Z</time>
      </trkpt>
      <trkpt lat="45.98016" lon="4.85071">
        <ele>273</ele>
        <time>2016-08-25T09:07:48Z</time>
      </trkpt>
      <trkpt lat="45.98016" lon="4.85078">
        <ele>273</ele>
        <time>2016-08-25T09:07:49Z</time>
      </trkpt>
      <trkpt lat="45.98016" lon="4.85086">
        <ele>274</ele>
        <time>2016-08-25T09:07:50Z</time>
      </trkpt>
      <trkpt lat="45.98017" lon="4.85093">
        <ele>274</ele>
        <time>2016-08-25T09:07:51Z</time>
      </trkpt>
      <trkpt lat="45.98018" lon="4.851">
        <ele>274</ele>
        <time>2016-08-25T09:07:52Z</time>
      </trkpt>
      <trkpt lat="45.98019" lon="4.85107">
        <ele>274</ele>
        <time>2016-08-25T09:07:53Z</time>
      </trkpt>
      <trkpt lat="45.9802" lon="4.85113">
        <ele>274</ele>
        <time>2016-08-25T09:07:54Z</time>
      </trkpt>
      <trkpt lat="45.98022" lon="4.8512">
        <ele>274</ele>
        <time>2016-08-25T09:07:55Z</time>
      </trkpt>
      <trkpt lat="45.98024" lon="4.85127">
        <ele>274</ele>
        <time>2016-08-25T09:07:56Z</time>
      </trkpt>
      <trkpt lat="45.98026" lon="4.85133">
        <ele>274</ele>
        <time>2016-08-25T09:07:57Z</time>
      </trkpt>
      <trkpt lat="45.98028" lon="4.8514">
        <ele>275</ele>
        <time>2016-08-25T09:07:58Z</time>
      </trkpt>
      <trkpt lat="45.9803" lon="4.85146">
        <ele>275</ele>
        <time>2016-08-25T09:07:59Z</time>
      </trkpt>
      <trkpt lat="45.98033" lon="4.85153">
        <ele>275</ele>
        <time>2016-08-25T09:08:00Z</time>
      </trkpt>
      <trkpt lat="45.98034" lon="4.8516">
        <ele>275</ele>
        <time>2016-08-25T09:08:01Z</time>
      </trkpt>
      <trkpt lat="45.98036" lon="4.85166">
        <ele>275</ele>
        <time>2016-08-25T09:08:02Z</time>
      </trkpt>
      <trkpt lat="45.98038" lon="4.85172">
        <ele>275</ele>
        <time>2016-08-25T09:08:03Z</time>
      </trkpt>
      <trkpt lat="45.98041" lon="4.85183">
        <ele>276</ele>
        <time>2016-08-25T09:08:05Z</time>
      </trkpt>
      <trkpt lat="45.98042" lon="4.85188">
        <ele>276</ele>
        <time>2016-08-25T09:08:06Z</time>
      </trkpt>
      <trkpt lat="45.98046" lon="4.852">
        <ele>276</ele>
        <time>2016-08-25T09:08:08Z</time>
      </trkpt>
      <trkpt lat="45.98048" lon="4.85206">
        <ele>276</ele>
        <time>2016-08-25T09:08:09Z</time>
      </trkpt>
      <trkpt lat="45.98051" lon="4.85216">
        <ele>276</ele>
        <time>2016-08-25T09:08:11Z</time>
      </trkpt>
      <trkpt lat="45.98053" lon="4.85221">
        <ele>276</ele>
        <time>2016-08-25T09:08:12Z</time>
      </trkpt>
      <trkpt lat="45.98057" lon="4.85231">
        <ele>276</ele>
        <time>2016-08-25T09:08:14Z</time>
      </trkpt>
      <trkpt lat="45.98059" lon="4.85236">
        <ele>276</ele>
        <time>2016-08-25T09:08:15Z</time>
      </trkpt>
      <trkpt lat="45.98062" lon="4.85241">
        <ele>276</ele>
        <time>2016-08-25T09:08:16Z</time>
      </trkpt>
      <trkpt lat="45.98065" lon="4.85246">
        <ele>276</ele>
        <time>2016-08-25T09:08:17Z</time>
      </trkpt>
      <trkpt lat="45.98068" lon="4.85251">
        <ele>276</ele>
        <time>2016-08-25T09:08:18Z</time>
      </trkpt>
      <trkpt lat="45.98071" lon="4.85257">
        <ele>276</ele>
        <time>2016-08-25T09:08:19Z</time>
      </trkpt>
      <trkpt lat="45.98075" lon="4.85263">
        <ele>276</ele>
        <time>2016-08-25T09:08:20Z</time>
      </trkpt>
      <trkpt lat="45.98078" lon="4.85268">
        <ele>276</ele>
        <time>2016-08-25T09:08:21Z</time>
      </trkpt>
      <trkpt lat="45.98081" lon="4.85274">
        <ele>276</ele>
        <time>2016-08-25T09:08:22Z</time>
      </trkpt>
      <trkpt lat="45.98083" lon="4.85281">
        <ele>276</ele>
        <time>2016-08-25T09:08:23Z</time>
      </trkpt>
      <trkpt lat="45.98086" lon="4.85287">
        <ele>276</ele>
        <time>2016-08-25T09:08:24Z</time>
      </trkpt>
      <trkpt lat="45.98089" lon="4.85293">
        <ele>276</ele>
        <time>2016-08-25T09:08:25Z</time>
      </trkpt>
      <trkpt lat="45.98091" lon="4.85299">
        <ele>276</ele>
        <time>2016-08-25T09:08:26Z</time>
      </trkpt>
      <trkpt lat="45.98094" lon="4.85305">
        <ele>276</ele>
        <time>2016-08-25T09:08:27Z</time>
      </trkpt>
      <trkpt lat="45.98097" lon="4.85311">
        <ele>276</ele>
        <time>2016-08-25T09:08:28Z</time>
      </trkpt>
      <trkpt lat="45.98099" lon="4.85317">
        <ele>276</ele>
        <time>2016-08-25T09:08:29Z</time>
      </trkpt>
      <trkpt lat="45.98101" lon="4.85323">
        <ele>276</ele>
        <time>2016-08-25T09:08:30Z</time>
      </trkpt>
      <trkpt lat="45.98103" lon="4.85328">
        <ele>276</ele>
        <time>2016-08-25T09:08:31Z</time>
      </trkpt>
      <trkpt lat="45.98105" lon="4.85335">
        <ele>276</ele>
        <time>2016-08-25T09:08:32Z</time>
      </trkpt>
      <trkpt lat="45.98107" lon="4.85341">
        <ele>276</ele>
        <time>2016-08-25T09:08:33Z</time>
      </trkpt>
      <trkpt lat="45.9811" lon="4.85347">
        <ele>276</ele>
        <time>2016-08-25T09:08:34Z</time>
      </trkpt>
      <trkpt lat="45.98113" lon="4.85353">
        <ele>276</ele>
        <time>2016-08-25T09:08:35Z</time>
      </trkpt>
      <trkpt lat="45.98115" lon="4.85359">
        <ele>276</ele>
        <time>2016-08-25T09:08:36Z</time>
      </trkpt>
      <trkpt lat="45.98119" lon="4.85365">
        <ele>276</ele>
        <time>2016-08-25T09:08:37Z</time>
      </trkpt>
      <trkpt lat="45.98122" lon="4.85371">
        <ele>276</ele>
        <time>2016-08-25T09:08:38Z</time>
      </trkpt>
      <trkpt lat="45.98124" lon="4.85377">
        <ele>276</ele>
        <time>2016-08-25T09:08:39Z</time>
      </trkpt>
      <trkpt lat="45.98127" lon="4.85383">
        <ele>276</ele>
        <time>2016-08-25T09:08:40Z</time>
      </trkpt>
      <trkpt lat="45.98129" lon="4.8539">
        <ele>276</ele>
        <time>2016-08-25T09:08:41Z</time>
      </trkpt>
      <trkpt lat="45.98131" lon="4.85396">
        <ele>276</ele>
        <time>2016-08-25T09:08:42Z</time>
      </trkpt>
      <trkpt lat="45.98134" lon="4.85401">
        <ele>276</ele>
        <time>2016-08-25T09:08:43Z</time>
      </trkpt>
      <trkpt lat="45.98136" lon="4.85407">
        <ele>276</ele>
        <time>2016-08-25T09:08:44Z</time>
      </trkpt>
      <trkpt lat="45.98138" lon="4.85413">
        <ele>276</ele>
        <time>2016-08-25T09:08:45Z</time>
      </trkpt>
      <trkpt lat="45.98141" lon="4.8542">
        <ele>276</ele>
        <time>2016-08-25T09:08:46Z</time>
      </trkpt>
      <trkpt lat="45.98143" lon="4.85426">
        <ele>276</ele>
        <time>2016-08-25T09:08:47Z</time>
      </trkpt>
      <trkpt lat="45.98146" lon="4.85432">
        <ele>276</ele>
        <time>2016-08-25T09:08:48Z</time>
      </trkpt>
      <trkpt lat="45.98149" lon="4.85439">
        <ele>276</ele>
        <time>2016-08-25T09:08:49Z</time>
      </trkpt>
      <trkpt lat="45.98152" lon="4.85445">
        <ele>276</ele>
        <time>2016-08-25T09:08:50Z</time>
      </trkpt>
      <trkpt lat="45.98154" lon="4.85452">
        <ele>276</ele>
        <time>2016-08-25T09:08:51Z</time>
      </trkpt>
      <trkpt lat="45.98157" lon="4.85459">
        <ele>275</ele>
        <time>2016-08-25T09:08:52Z</time>
      </trkpt>
      <trkpt lat="45.9816" lon="4.85466">
        <ele>275</ele>
        <time>2016-08-25T09:08:53Z</time>
      </trkpt>
      <trkpt lat="45.98162" lon="4.85472">
        <ele>275</ele>
        <time>2016-08-25T09:08:54Z</time>
      </trkpt>
      <trkpt lat="45.98165" lon="4.85479">
        <ele>275</ele>
        <time>2016-08-25T09:08:55Z</time>
      </trkpt>
      <trkpt lat="45.98168" lon="4.85485">
        <ele>275</ele>
        <time>2016-08-25T09:08:56Z</time>
      </trkpt>
      <trkpt lat="45.98171" lon="4.85491">
        <ele>275</ele>
        <time>2016-08-25T09:08:57Z</time>
      </trkpt>
      <trkpt lat="45.98174" lon="4.85498">
        <ele>275</ele>
        <time>2016-08-25T09:08:58Z</time>
      </trkpt>
      <trkpt lat="45.98177" lon="4.85504">
        <ele>275</ele>
        <time>2016-08-25T09:08:59Z</time>
      </trkpt>
      <trkpt lat="45.9818" lon="4.8551">
        <ele>275</ele>
        <time>2016-08-25T09:09:00Z</time>
      </trkpt>
      <trkpt lat="45.98182" lon="4.85516">
        <ele>275</ele>
        <time>2016-08-25T09:09:01Z</time>
      </trkpt>
      <trkpt lat="45.98185" lon="4.85523">
        <ele>276</ele>
        <time>2016-08-25T09:09:02Z</time>
      </trkpt>
      <trkpt lat="45.98187" lon="4.85529">
        <ele>276</ele>
        <time>2016-08-25T09:09:03Z</time>
      </trkpt>
      <trkpt lat="45.98189" lon="4.85535">
        <ele>276</ele>
        <time>2016-08-25T09:09:04Z</time>
      </trkpt>
      <trkpt lat="45.98191" lon="4.85541">
        <ele>276</ele>
        <time>2016-08-25T09:09:05Z</time>
      </trkpt>
      <trkpt lat="45.98193" lon="4.85547">
        <ele>276</ele>
        <time>2016-08-25T09:09:06Z</time>
      </trkpt>
      <trkpt lat="45.98196" lon="4.85553">
        <ele>276</ele>
        <time>2016-08-25T09:09:07Z</time>
      </trkpt>
      <trkpt lat="45.98201" lon="4.85563">
        <ele>276</ele>
        <time>2016-08-25T09:09:09Z</time>
      </trkpt>
      <trkpt lat="45.98203" lon="4.85569">
        <ele>276</ele>
        <time>2016-08-25T09:09:10Z</time>
      </trkpt>
      <trkpt lat="45.98205" lon="4.85574">
        <ele>276</ele>
        <time>2016-08-25T09:09:11Z</time>
      </trkpt>
      <trkpt lat="45.98208" lon="4.8558">
        <ele>276</ele>
        <time>2016-08-25T09:09:12Z</time>
      </trkpt>
      <trkpt lat="45.9821" lon="4.85586">
        <ele>277</ele>
        <time>2016-08-25T09:09:13Z</time>
      </trkpt>
      <trkpt lat="45.98213" lon="4.85592">
        <ele>277</ele>
        <time>2016-08-25T09:09:14Z</time>
      </trkpt>
      <trkpt lat="45.98215" lon="4.85599">
        <ele>277</ele>
        <time>2016-08-25T09:09:15Z</time>
      </trkpt>
      <trkpt lat="45.98218" lon="4.85605">
        <ele>277</ele>
        <time>2016-08-25T09:09:16Z</time>
      </trkpt>
      <trkpt lat="45.9822" lon="4.85612">
        <ele>277</ele>
        <time>2016-08-25T09:09:17Z</time>
      </trkpt>
      <trkpt lat="45.98223" lon="4.85619">
        <ele>277</ele>
        <time>2016-08-25T09:09:18Z</time>
      </trkpt>
      <trkpt lat="45.98225" lon="4.85625">
        <ele>277</ele>
        <time>2016-08-25T09:09:19Z</time>
      </trkpt>
      <trkpt lat="45.98228" lon="4.85631">
        <ele>277</ele>
        <time>2016-08-25T09:09:20Z</time>
      </trkpt>
      <trkpt lat="45.98231" lon="4.85637">
        <ele>277</ele>
        <time>2016-08-25T09:09:21Z</time>
      </trkpt>
      <trkpt lat="45.98234" lon="4.85644">
        <ele>277</ele>
        <time>2016-08-25T09:09:22Z</time>
      </trkpt>
      <trkpt lat="45.98236" lon="4.85651">
        <ele>276</ele>
        <time>2016-08-25T09:09:23Z</time>
      </trkpt>
      <trkpt lat="45.98239" lon="4.85657">
        <ele>276</ele>
        <time>2016-08-25T09:09:24Z</time>
      </trkpt>
      <trkpt lat="45.98242" lon="4.85664">
        <ele>276</ele>
        <time>2016-08-25T09:09:25Z</time>
      </trkpt>
      <trkpt lat="45.98244" lon="4.85671">
        <ele>276</ele>
        <time>2016-08-25T09:09:26Z</time>
      </trkpt>
      <trkpt lat="45.98247" lon="4.85678">
        <ele>276</ele>
        <time>2016-08-25T09:09:27Z</time>
      </trkpt>
      <trkpt lat="45.9825" lon="4.85685">
        <ele>275</ele>
        <time>2016-08-25T09:09:28Z</time>
      </trkpt>
      <trkpt lat="45.98253" lon="4.85692">
        <ele>275</ele>
        <time>2016-08-25T09:09:29Z</time>
      </trkpt>
      <trkpt lat="45.98256" lon="4.85699">
        <ele>275</ele>
        <time>2016-08-25T09:09:30Z</time>
      </trkpt>
      <trkpt lat="45.98258" lon="4.85706">
        <ele>275</ele>
        <time>2016-08-25T09:09:31Z</time>
      </trkpt>
      <trkpt lat="45.9826" lon="4.85714">
        <ele>275</ele>
        <time>2016-08-25T09:09:32Z</time>
      </trkpt>
      <trkpt lat="45.98263" lon="4.8572">
        <ele>275</ele>
        <time>2016-08-25T09:09:33Z</time>
      </trkpt>
      <trkpt lat="45.98265" lon="4.85727">
        <ele>275</ele>
        <time>2016-08-25T09:09:34Z</time>
      </trkpt>
      <trkpt lat="45.98268" lon="4.85734">
        <ele>275</ele>
        <time>2016-08-25T09:09:35Z</time>
      </trkpt>
      <trkpt lat="45.9827" lon="4.85741">
        <ele>275</ele>
        <time>2016-08-25T09:09:36Z</time>
      </trkpt>
      <trkpt lat="45.98273" lon="4.85749">
        <ele>274</ele>
        <time>2016-08-25T09:09:37Z</time>
      </trkpt>
      <trkpt lat="45.98276" lon="4.85756">
        <ele>275</ele>
        <time>2016-08-25T09:09:38Z</time>
      </trkpt>
      <trkpt lat="45.98279" lon="4.85762">
        <ele>275</ele>
        <time>2016-08-25T09:09:39Z</time>
      </trkpt>
      <trkpt lat="45.98282" lon="4.85769">
        <ele>275</ele>
        <time>2016-08-25T09:09:40Z</time>
      </trkpt>
      <trkpt lat="45.98285" lon="4.85776">
        <ele>275</ele>
        <time>2016-08-25T09:09:41Z</time>
      </trkpt>
      <trkpt lat="45.98287" lon="4.85782">
        <ele>275</ele>
        <time>2016-08-25T09:09:42Z</time>
      </trkpt>
      <trkpt lat="45.9829" lon="4.85789">
        <ele>275</ele>
        <time>2016-08-25T09:09:43Z</time>
      </trkpt>
      <trkpt lat="45.98293" lon="4.85796">
        <ele>275</ele>
        <time>2016-08-25T09:09:44Z</time>
      </trkpt>
      <trkpt lat="45.98295" lon="4.85803">
        <ele>275</ele>
        <time>2016-08-25T09:09:45Z</time>
      </trkpt>
      <trkpt lat="45.98298" lon="4.8581">
        <ele>275</ele>
        <time>2016-08-25T09:09:46Z</time>
      </trkpt>
      <trkpt lat="45.98301" lon="4.85817">
        <ele>275</ele>
        <time>2016-08-25T09:09:47Z</time>
      </trkpt>
      <trkpt lat="45.98304" lon="4.85824">
        <ele>275</ele>
        <time>2016-08-25T09:09:48Z</time>
      </trkpt>
      <trkpt lat="45.98307" lon="4.85831">
        <ele>275</ele>
        <time>2016-08-25T09:09:49Z</time>
      </trkpt>
      <trkpt lat="45.9831" lon="4.85838">
        <ele>276</ele>
        <time>2016-08-25T09:09:50Z</time>
      </trkpt>
      <trkpt lat="45.98312" lon="4.85845">
        <ele>276</ele>
        <time>2016-08-25T09:09:51Z</time>
      </trkpt>
      <trkpt lat="45.98315" lon="4.85852">
        <ele>276</ele>
        <time>2016-08-25T09:09:52Z</time>
      </trkpt>
      <trkpt lat="45.98317" lon="4.85859">
        <ele>276</ele>
        <time>2016-08-25T09:09:53Z</time>
      </trkpt>
      <trkpt lat="45.98319" lon="4.85865">
        <ele>276</ele>
        <time>2016-08-25T09:09:54Z</time>
      </trkpt>
      <trkpt lat="45.98321" lon="4.85871">
        <ele>276</ele>
        <time>2016-08-25T09:09:55Z</time>
      </trkpt>
      <trkpt lat="45.98324" lon="4.85877">
        <ele>276</ele>
        <time>2016-08-25T09:09:56Z</time>
      </trkpt>
      <trkpt lat="45.98326" lon="4.85883">
        <ele>276</ele>
        <time>2016-08-25T09:09:57Z</time>
      </trkpt>
      <trkpt lat="45.98328" lon="4.85889">
        <ele>276</ele>
        <time>2016-08-25T09:09:58Z</time>
      </trkpt>
      <trkpt lat="45.98331" lon="4.85896">
        <ele>276</ele>
        <time>2016-08-25T09:09:59Z</time>
      </trkpt>
      <trkpt lat="45.98334" lon="4.85903">
        <ele>276</ele>
        <time>2016-08-25T09:10:00Z</time>
      </trkpt>
      <trkpt lat="45.98337" lon="4.8591">
        <ele>276</ele>
        <time>2016-08-25T09:10:01Z</time>
      </trkpt>
      <trkpt lat="45.98341" lon="4.85917">
        <ele>276</ele>
        <time>2016-08-25T09:10:02Z</time>
      </trkpt>
      <trkpt lat="45.98346" lon="4.85925">
        <ele>276</ele>
        <time>2016-08-25T09:10:03Z</time>
      </trkpt>
      <trkpt lat="45.98349" lon="4.85932">
        <ele>276</ele>
        <time>2016-08-25T09:10:04Z</time>
      </trkpt>
      <trkpt lat="45.98353" lon="4.8594">
        <ele>276</ele>
        <time>2016-08-25T09:10:05Z</time>
      </trkpt>
      <trkpt lat="45.98356" lon="4.85948">
        <ele>276</ele>
        <time>2016-08-25T09:10:06Z</time>
      </trkpt>
      <trkpt lat="45.98358" lon="4.85956">
        <ele>276</ele>
        <time>2016-08-25T09:10:07Z</time>
      </trkpt>
      <trkpt lat="45.98361" lon="4.85963">
        <ele>276</ele>
        <time>2016-08-25T09:10:08Z</time>
      </trkpt>
      <trkpt lat="45.98364" lon="4.85971">
        <ele>276</ele>
        <time>2016-08-25T09:10:09Z</time>
      </trkpt>
      <trkpt lat="45.98367" lon="4.85978">
        <ele>276</ele>
        <time>2016-08-25T09:10:10Z</time>
      </trkpt>
      <trkpt lat="45.9837" lon="4.85985">
        <ele>276</ele>
        <time>2016-08-25T09:10:11Z</time>
      </trkpt>
      <trkpt lat="45.98373" lon="4.85991">
        <ele>277</ele>
        <time>2016-08-25T09:10:12Z</time>
      </trkpt>
      <trkpt lat="45.98375" lon="4.85997">
        <ele>277</ele>
        <time>2016-08-25T09:10:13Z</time>
      </trkpt>
      <trkpt lat="45.98378" lon="4.86003">
        <ele>277</ele>
        <time>2016-08-25T09:10:14Z</time>
      </trkpt>
      <trkpt lat="45.98381" lon="4.8601">
        <ele>277</ele>
        <time>2016-08-25T09:10:15Z</time>
      </trkpt>
      <trkpt lat="45.98383" lon="4.86017">
        <ele>277</ele>
        <time>2016-08-25T09:10:16Z</time>
      </trkpt>
      <trkpt lat="45.98386" lon="4.86023">
        <ele>277</ele>
        <time>2016-08-25T09:10:17Z</time>
      </trkpt>
      <trkpt lat="45.98388" lon="4.8603">
        <ele>277</ele>
        <time>2016-08-25T09:10:18Z</time>
      </trkpt>
      <trkpt lat="45.9839" lon="4.86037">
        <ele>277</ele>
        <time>2016-08-25T09:10:19Z</time>
      </trkpt>
      <trkpt lat="45.98392" lon="4.86044">
        <ele>277</ele>
        <time>2016-08-25T09:10:20Z</time>
      </trkpt>
      <trkpt lat="45.98394" lon="4.86051">
        <ele>277</ele>
        <time>2016-08-25T09:10:21Z</time>
      </trkpt>
      <trkpt lat="45.98395" lon="4.86057">
        <ele>277</ele>
        <time>2016-08-25T09:10:22Z</time>
      </trkpt>
      <trkpt lat="45.98397" lon="4.86064">
        <ele>277</ele>
        <time>2016-08-25T09:10:23Z</time>
      </trkpt>
      <trkpt lat="45.98399" lon="4.8607">
        <ele>277</ele>
        <time>2016-08-25T09:10:24Z</time>
      </trkpt>
      <trkpt lat="45.98401" lon="4.86076">
        <ele>277</ele>
        <time>2016-08-25T09:10:25Z</time>
      </trkpt>
      <trkpt lat="45.98402" lon="4.86083">
        <ele>277</ele>
        <time>2016-08-25T09:10:26Z</time>
      </trkpt>
      <trkpt lat="45.98403" lon="4.86089">
        <ele>277</ele>
        <time>2016-08-25T09:10:27Z</time>
      </trkpt>
      <trkpt lat="45.98405" lon="4.86096">
        <ele>277</ele>
        <time>2016-08-25T09:10:28Z</time>
      </trkpt>
      <trkpt lat="45.98408" lon="4.86107">
        <ele>277</ele>
        <time>2016-08-25T09:10:30Z</time>
      </trkpt>
      <trkpt lat="45.98409" lon="4.86113">
        <ele>277</ele>
        <time>2016-08-25T09:10:31Z</time>
      </trkpt>
      <trkpt lat="45.9841" lon="4.86124">
        <ele>277</ele>
        <time>2016-08-25T09:10:33Z</time>
      </trkpt>
      <trkpt lat="45.9841" lon="4.8613">
        <ele>276</ele>
        <time>2016-08-25T09:10:34Z</time>
      </trkpt>
      <trkpt lat="45.9841" lon="4.86143">
        <ele>276</ele>
        <time>2016-08-25T09:10:36Z</time>
      </trkpt>
      <trkpt lat="45.9841" lon="4.86148">
        <ele>276</ele>
        <time>2016-08-25T09:10:37Z</time>
      </trkpt>
      <trkpt lat="45.98412" lon="4.86158">
        <ele>276</ele>
        <time>2016-08-25T09:10:39Z</time>
      </trkpt>
      <trkpt lat="45.98413" lon="4.86163">
        <ele>276</ele>
        <time>2016-08-25T09:10:40Z</time>
      </trkpt>
      <trkpt lat="45.98415" lon="4.86173">
        <ele>276</ele>
        <time>2016-08-25T09:10:42Z</time>
      </trkpt>
      <trkpt lat="45.98417" lon="4.86177">
        <ele>276</ele>
        <time>2016-08-25T09:10:43Z</time>
      </trkpt>
      <trkpt lat="45.98418" lon="4.86185">
        <ele>275</ele>
        <time>2016-08-25T09:10:45Z</time>
      </trkpt>
      <trkpt lat="45.98419" lon="4.8619">
        <ele>275</ele>
        <time>2016-08-25T09:10:46Z</time>
      </trkpt>
      <trkpt lat="45.98421" lon="4.86199">
        <ele>275</ele>
        <time>2016-08-25T09:10:48Z</time>
      </trkpt>
      <trkpt lat="45.98421" lon="4.86205">
        <ele>275</ele>
        <time>2016-08-25T09:10:49Z</time>
      </trkpt>
      <trkpt lat="45.98423" lon="4.86216">
        <ele>275</ele>
        <time>2016-08-25T09:10:51Z</time>
      </trkpt>
      <trkpt lat="45.98424" lon="4.86221">
        <ele>275</ele>
        <time>2016-08-25T09:10:52Z</time>
      </trkpt>
      <trkpt lat="45.98426" lon="4.86233">
        <ele>275</ele>
        <time>2016-08-25T09:10:54Z</time>
      </trkpt>
      <trkpt lat="45.98427" lon="4.86239">
        <ele>275</ele>
        <time>2016-08-25T09:10:55Z</time>
      </trkpt>
      <trkpt lat="45.98429" lon="4.86246">
        <ele>275</ele>
        <time>2016-08-25T09:10:56Z</time>
      </trkpt>
      <trkpt lat="45.9843" lon="4.86253">
        <ele>275</ele>
        <time>2016-08-25T09:10:57Z</time>
      </trkpt>
      <trkpt lat="45.98431" lon="4.86262">
        <ele>275</ele>
        <time>2016-08-25T09:10:58Z</time>
      </trkpt>
      <trkpt lat="45.98433" lon="4.8627">
        <ele>275</ele>
        <time>2016-08-25T09:10:59Z</time>
      </trkpt>
      <trkpt lat="45.98434" lon="4.86279">
        <ele>276</ele>
        <time>2016-08-25T09:11:00Z</time>
      </trkpt>
      <trkpt lat="45.98436" lon="4.86288">
        <ele>276</ele>
        <time>2016-08-25T09:11:01Z</time>
      </trkpt>
      <trkpt lat="45.98438" lon="4.86298">
        <ele>276</ele>
        <time>2016-08-25T09:11:02Z</time>
      </trkpt>
      <trkpt lat="45.98439" lon="4.86308">
        <ele>276</ele>
        <time>2016-08-25T09:11:03Z</time>
      </trkpt>
      <trkpt lat="45.98441" lon="4.86318">
        <ele>276</ele>
        <time>2016-08-25T09:11:04Z</time>
      </trkpt>
      <trkpt lat="45.98443" lon="4.86328">
        <ele>276</ele>
        <time>2016-08-25T09:11:05Z</time>
      </trkpt>
      <trkpt lat="45.98445" lon="4.86337">
        <ele>277</ele>
        <time>2016-08-25T09:11:06Z</time>
      </trkpt>
      <trkpt lat="45.98448" lon="4.86346">
        <ele>277</ele>
        <time>2016-08-25T09:11:07Z</time>
      </trkpt>
      <trkpt lat="45.9845" lon="4.86355">
        <ele>277</ele>
        <time>2016-08-25T09:11:08Z</time>
      </trkpt>
      <trkpt lat="45.98452" lon="4.86364">
        <ele>277</ele>
        <time>2016-08-25T09:11:09Z</time>
      </trkpt>
      <trkpt lat="45.98455" lon="4.86373">
        <ele>277</ele>
        <time>2016-08-25T09:11:10Z</time>
      </trkpt>
      <trkpt lat="45.98458" lon="4.86381">
        <ele>277</ele>
        <time>2016-08-25T09:11:11Z</time>
      </trkpt>
      <trkpt lat="45.98462" lon="4.8639">
        <ele>277</ele>
        <time>2016-08-25T09:11:12Z</time>
      </trkpt>
      <trkpt lat="45.98465" lon="4.86399">
        <ele>277</ele>
        <time>2016-08-25T09:11:13Z</time>
      </trkpt>
      <trkpt lat="45.98469" lon="4.86407">
        <ele>277</ele>
        <time>2016-08-25T09:11:14Z</time>
      </trkpt>
      <trkpt lat="45.98473" lon="4.86415">
        <ele>277</ele>
        <time>2016-08-25T09:11:15Z</time>
      </trkpt>
      <trkpt lat="45.98477" lon="4.86423">
        <ele>278</ele>
        <time>2016-08-25T09:11:16Z</time>
      </trkpt>
      <trkpt lat="45.9848" lon="4.86431">
        <ele>278</ele>
        <time>2016-08-25T09:11:17Z</time>
      </trkpt>
      <trkpt lat="45.98483" lon="4.86439">
        <ele>278</ele>
        <time>2016-08-25T09:11:18Z</time>
      </trkpt>
      <trkpt lat="45.98487" lon="4.86447">
        <ele>278</ele>
        <time>2016-08-25T09:11:19Z</time>
      </trkpt>
      <trkpt lat="45.98491" lon="4.86455">
        <ele>278</ele>
        <time>2016-08-25T09:11:20Z</time>
      </trkpt>
      <trkpt lat="45.98495" lon="4.86462">
        <ele>278</ele>
        <time>2016-08-25T09:11:21Z</time>
      </trkpt>
      <trkpt lat="45.98498" lon="4.86469">
        <ele>279</ele>
        <time>2016-08-25T09:11:22Z</time>
      </trkpt>
      <trkpt lat="45.98502" lon="4.86477">
        <ele>278</ele>
        <time>2016-08-25T09:11:23Z</time>
      </trkpt>
      <trkpt lat="45.98506" lon="4.86485">
        <ele>279</ele>
        <time>2016-08-25T09:11:24Z</time>
      </trkpt>
      <trkpt lat="45.98509" lon="4.86492">
        <ele>279</ele>
        <time>2016-08-25T09:11:25Z</time>
      </trkpt>
      <trkpt lat="45.98512" lon="4.86499">
        <ele>279</ele>
        <time>2016-08-25T09:11:26Z</time>
      </trkpt>
      <trkpt lat="45.98516" lon="4.86507">
        <ele>279</ele>
        <time>2016-08-25T09:11:27Z</time>
      </trkpt>
      <trkpt lat="45.9852" lon="4.86515">
        <ele>279</ele>
        <time>2016-08-25T09:11:28Z</time>
      </trkpt>
      <trkpt lat="45.98524" lon="4.86522">
        <ele>279</ele>
        <time>2016-08-25T09:11:29Z</time>
      </trkpt>
      <trkpt lat="45.98528" lon="4.8653">
        <ele>279</ele>
        <time>2016-08-25T09:11:30Z</time>
      </trkpt>
      <trkpt lat="45.98532" lon="4.86537">
        <ele>279</ele>
        <time>2016-08-25T09:11:31Z</time>
      </trkpt>
      <trkpt lat="45.98536" lon="4.86545">
        <ele>278</ele>
        <time>2016-08-25T09:11:32Z</time>
      </trkpt>
      <trkpt lat="45.9854" lon="4.86553">
        <ele>278</ele>
        <time>2016-08-25T09:11:33Z</time>
      </trkpt>
      <trkpt lat="45.98545" lon="4.86562">
        <ele>278</ele>
        <time>2016-08-25T09:11:34Z</time>
      </trkpt>
      <trkpt lat="45.98547" lon="4.8657">
        <ele>278</ele>
        <time>2016-08-25T09:11:35Z</time>
      </trkpt>
      <trkpt lat="45.98548" lon="4.86579">
        <ele>278</ele>
        <time>2016-08-25T09:11:36Z</time>
      </trkpt>
      <trkpt lat="45.9855" lon="4.86589">
        <ele>278</ele>
        <time>2016-08-25T09:11:37Z</time>
      </trkpt>
      <trkpt lat="45.98551" lon="4.86598">
        <ele>278</ele>
        <time>2016-08-25T09:11:38Z</time>
      </trkpt>
      <trkpt lat="45.98553" lon="4.86607">
        <ele>278</ele>
        <time>2016-08-25T09:11:39Z</time>
      </trkpt>
      <trkpt lat="45.98555" lon="4.86617">
        <ele>278</ele>
        <time>2016-08-25T09:11:40Z</time>
      </trkpt>
      <trkpt lat="45.98556" lon="4.86627">
        <ele>278</ele>
        <time>2016-08-25T09:11:41Z</time>
      </trkpt>
      <trkpt lat="45.98558" lon="4.86636">
        <ele>278</ele>
        <time>2016-08-25T09:11:42Z</time>
      </trkpt>
      <trkpt lat="45.98559" lon="4.86644">
        <ele>277</ele>
        <time>2016-08-25T09:11:43Z</time>
      </trkpt>
      <trkpt lat="45.9856" lon="4.86652">
        <ele>277</ele>
        <time>2016-08-25T09:11:44Z</time>
      </trkpt>
      <trkpt lat="45.98561" lon="4.86661">
        <ele>277</ele>
        <time>2016-08-25T09:11:45Z</time>
      </trkpt>
      <trkpt lat="45.98562" lon="4.86669">
        <ele>277</ele>
        <time>2016-08-25T09:11:46Z</time>
      </trkpt>
      <trkpt lat="45.98563" lon="4.86678">
        <ele>277</ele>
        <time>2016-08-25T09:11:47Z</time>
      </trkpt>
      <trkpt lat="45.98564" lon="4.86685">
        <ele>277</ele>
        <time>2016-08-25T09:11:48Z</time>
      </trkpt>
      <trkpt lat="45.98565" lon="4.86693">
        <ele>277</ele>
        <time>2016-08-25T09:11:49Z</time>
      </trkpt>
      <trkpt lat="45.98566" lon="4.86701">
        <ele>277</ele>
        <time>2016-08-25T09:11:50Z</time>
      </trkpt>
      <trkpt lat="45.98567" lon="4.86709">
        <ele>277</ele>
        <time>2016-08-25T09:11:51Z</time>
      </trkpt>
      <trkpt lat="45.98568" lon="4.86717">
        <ele>277</ele>
        <time>2016-08-25T09:11:52Z</time>
      </trkpt>
      <trkpt lat="45.98568" lon="4.86725">
        <ele>277</ele>
        <time>2016-08-25T09:11:53Z</time>
      </trkpt>
      <trkpt lat="45.98569" lon="4.86734">
        <ele>277</ele>
        <time>2016-08-25T09:11:54Z</time>
      </trkpt>
      <trkpt lat="45.9857" lon="4.86742">
        <ele>277</ele>
        <time>2016-08-25T09:11:55Z</time>
      </trkpt>
      <trkpt lat="45.98571" lon="4.86751">
        <ele>277</ele>
        <time>2016-08-25T09:11:56Z</time>
      </trkpt>
      <trkpt lat="45.98572" lon="4.86759">
        <ele>277</ele>
        <time>2016-08-25T09:11:57Z</time>
      </trkpt>
      <trkpt lat="45.98573" lon="4.86768">
        <ele>277</ele>
        <time>2016-08-25T09:11:58Z</time>
      </trkpt>
      <trkpt lat="45.98574" lon="4.86776">
        <ele>277</ele>
        <time>2016-08-25T09:11:59Z</time>
      </trkpt>
      <trkpt lat="45.98576" lon="4.86784">
        <ele>277</ele>
        <time>2016-08-25T09:12:00Z</time>
      </trkpt>
      <trkpt lat="45.98577" lon="4.86792">
        <ele>277</ele>
        <time>2016-08-25T09:12:01Z</time>
      </trkpt>
      <trkpt lat="45.98578" lon="4.868">
        <ele>278</ele>
        <time>2016-08-25T09:12:02Z</time>
      </trkpt>
      <trkpt lat="45.98579" lon="4.86807">
        <ele>278</ele>
        <time>2016-08-25T09:12:03Z</time>
      </trkpt>
      <trkpt lat="45.9858" lon="4.86814">
        <ele>277</ele>
        <time>2016-08-25T09:12:04Z</time>
      </trkpt>
      <trkpt lat="45.98581" lon="4.86821">
        <ele>277</ele>
        <time>2016-08-25T09:12:05Z</time>
      </trkpt>
      <trkpt lat="45.98581" lon="4.86833">
        <ele>277</ele>
        <time>2016-08-25T09:12:07Z</time>
      </trkpt>
      <trkpt lat="45.98581" lon="4.86839">
        <ele>278</ele>
        <time>2016-08-25T09:12:08Z</time>
      </trkpt>
      <trkpt lat="45.98581" lon="4.86847">
        <ele>278</ele>
        <time>2016-08-25T09:12:09Z</time>
      </trkpt>
      <trkpt lat="45.98581" lon="4.86855">
        <ele>279</ele>
        <time>2016-08-25T09:12:10Z</time>
      </trkpt>
      <trkpt lat="45.98581" lon="4.86864">
        <ele>279</ele>
        <time>2016-08-25T09:12:11Z</time>
      </trkpt>
      <trkpt lat="45.98581" lon="4.86872">
        <ele>279</ele>
        <time>2016-08-25T09:12:12Z</time>
      </trkpt>
      <trkpt lat="45.98581" lon="4.86881">
        <ele>279</ele>
        <time>2016-08-25T09:12:13Z</time>
      </trkpt>
      <trkpt lat="45.98582" lon="4.8689">
        <ele>279</ele>
        <time>2016-08-25T09:12:14Z</time>
      </trkpt>
      <trkpt lat="45.98582" lon="4.86899">
        <ele>279</ele>
        <time>2016-08-25T09:12:15Z</time>
      </trkpt>
      <trkpt lat="45.98582" lon="4.86909">
        <ele>279</ele>
        <time>2016-08-25T09:12:16Z</time>
      </trkpt>
      <trkpt lat="45.98582" lon="4.86918">
        <ele>279</ele>
        <time>2016-08-25T09:12:17Z</time>
      </trkpt>
      <trkpt lat="45.98582" lon="4.86928">
        <ele>280</ele>
        <time>2016-08-25T09:12:18Z</time>
      </trkpt>
      <trkpt lat="45.98582" lon="4.86937">
        <ele>280</ele>
        <time>2016-08-25T09:12:19Z</time>
      </trkpt>
      <trkpt lat="45.98582" lon="4.86946">
        <ele>281</ele>
        <time>2016-08-25T09:12:20Z</time>
      </trkpt>
      <trkpt lat="45.98582" lon="4.86954">
        <ele>281</ele>
        <time>2016-08-25T09:12:21Z</time>
      </trkpt>
      <trkpt lat="45.98582" lon="4.86963">
        <ele>281</ele>
        <time>2016-08-25T09:12:22Z</time>
      </trkpt>
      <trkpt lat="45.98582" lon="4.86971">
        <ele>281</ele>
        <time>2016-08-25T09:12:23Z</time>
      </trkpt>
      <trkpt lat="45.98583" lon="4.86979">
        <ele>281</ele>
        <time>2016-08-25T09:12:24Z</time>
      </trkpt>
      <trkpt lat="45.98584" lon="4.86986">
        <ele>279</ele>
        <time>2016-08-25T09:12:25Z</time>
      </trkpt>
      <trkpt lat="45.98585" lon="4.86995">
        <ele>280</ele>
        <time>2016-08-25T09:12:26Z</time>
      </trkpt>
      <trkpt lat="45.98586" lon="4.87003">
        <ele>280</ele>
        <time>2016-08-25T09:12:27Z</time>
      </trkpt>
      <trkpt lat="45.98588" lon="4.87011">
        <ele>279</ele>
        <time>2016-08-25T09:12:28Z</time>
      </trkpt>
      <trkpt lat="45.98589" lon="4.8702">
        <ele>279</ele>
        <time>2016-08-25T09:12:29Z</time>
      </trkpt>
      <trkpt lat="45.98591" lon="4.87028">
        <ele>279</ele>
        <time>2016-08-25T09:12:30Z</time>
      </trkpt>
      <trkpt lat="45.98593" lon="4.87037">
        <ele>279</ele>
        <time>2016-08-25T09:12:31Z</time>
      </trkpt>
      <trkpt lat="45.98594" lon="4.87046">
        <ele>279</ele>
        <time>2016-08-25T09:12:32Z</time>
      </trkpt>
      <trkpt lat="45.98596" lon="4.87054">
        <ele>279</ele>
        <time>2016-08-25T09:12:33Z</time>
      </trkpt>
      <trkpt lat="45.98597" lon="4.87062">
        <ele>279</ele>
        <time>2016-08-25T09:12:34Z</time>
      </trkpt>
      <trkpt lat="45.98598" lon="4.87069">
        <ele>279</ele>
        <time>2016-08-25T09:12:35Z</time>
      </trkpt>
      <trkpt lat="45.98599" lon="4.87076">
        <ele>279</ele>
        <time>2016-08-25T09:12:36Z</time>
      </trkpt>
      <trkpt lat="45.986" lon="4.87082">
        <ele>279</ele>
        <time>2016-08-25T09:12:37Z</time>
      </trkpt>
      <trkpt lat="45.986" lon="4.87089">
        <ele>279</ele>
        <time>2016-08-25T09:12:38Z</time>
      </trkpt>
      <trkpt lat="45.98601" lon="4.87096">
        <ele>279</ele>
        <time>2016-08-25T09:12:39Z</time>
      </trkpt>
      <trkpt lat="45.98602" lon="4.87104">
        <ele>279</ele>
        <time>2016-08-25T09:12:40Z</time>
      </trkpt>
      <trkpt lat="45.98603" lon="4.87112">
        <ele>279</ele>
        <time>2016-08-25T09:12:41Z</time>
      </trkpt>
      <trkpt lat="45.98605" lon="4.87121">
        <ele>279</ele>
        <time>2016-08-25T09:12:42Z</time>
      </trkpt>
      <trkpt lat="45.98605" lon="4.87129">
        <ele>279</ele>
        <time>2016-08-25T09:12:43Z</time>
      </trkpt>
      <trkpt lat="45.98605" lon="4.87138">
        <ele>278</ele>
        <time>2016-08-25T09:12:44Z</time>
      </trkpt>
      <trkpt lat="45.98603" lon="4.87146">
        <ele>278</ele>
        <time>2016-08-25T09:12:45Z</time>
      </trkpt>
      <trkpt lat="45.98603" lon="4.87152">
        <ele>278</ele>
        <time>2016-08-25T09:12:46Z</time>
      </trkpt>
      <trkpt lat="45.98602" lon="4.8716">
        <ele>278</ele>
        <time>2016-08-25T09:12:47Z</time>
      </trkpt>
      <trkpt lat="45.98601" lon="4.87166">
        <ele>278</ele>
        <time>2016-08-25T09:12:48Z</time>
      </trkpt>
      <trkpt lat="45.986" lon="4.87173">
        <ele>277</ele>
        <time>2016-08-25T09:12:49Z</time>
      </trkpt>
      <trkpt lat="45.98599" lon="4.87181">
        <ele>277</ele>
        <time>2016-08-25T09:12:50Z</time>
      </trkpt>
      <trkpt lat="45.98597" lon="4.87187">
        <ele>277</ele>
        <time>2016-08-25T09:12:51Z</time>
      </trkpt>
      <trkpt lat="45.98596" lon="4.87194">
        <ele>277</ele>
        <time>2016-08-25T09:12:52Z</time>
      </trkpt>
      <trkpt lat="45.98595" lon="4.87201">
        <ele>277</ele>
        <time>2016-08-25T09:12:53Z</time>
      </trkpt>
      <trkpt lat="45.98594" lon="4.87209">
        <ele>277</ele>
        <time>2016-08-25T09:12:54Z</time>
      </trkpt>
      <trkpt lat="45.98593" lon="4.87218">
        <ele>277</ele>
        <time>2016-08-25T09:12:55Z</time>
      </trkpt>
      <trkpt lat="45.98593" lon="4.87227">
        <ele>277</ele>
        <time>2016-08-25T09:12:56Z</time>
      </trkpt>
      <trkpt lat="45.98591" lon="4.87235">
        <ele>277</ele>
        <time>2016-08-25T09:12:57Z</time>
      </trkpt>
      <trkpt lat="45.98591" lon="4.87245">
        <ele>276</ele>
        <time>2016-08-25T09:12:58Z</time>
      </trkpt>
      <trkpt lat="45.9859" lon="4.87254">
        <ele>276</ele>
        <time>2016-08-25T09:12:59Z</time>
      </trkpt>
      <trkpt lat="45.98589" lon="4.87263">
        <ele>275</ele>
        <time>2016-08-25T09:13:00Z</time>
      </trkpt>
      <trkpt lat="45.9859" lon="4.87276">
        <ele>275</ele>
        <time>2016-08-25T09:13:01Z</time>
      </trkpt>
      <trkpt lat="45.9859" lon="4.87286">
        <ele>275</ele>
        <time>2016-08-25T09:13:02Z</time>
      </trkpt>
      <trkpt lat="45.98593" lon="4.87299">
        <ele>275</ele>
        <time>2016-08-25T09:13:03Z</time>
      </trkpt>
      <trkpt lat="45.98596" lon="4.87312">
        <ele>274</ele>
        <time>2016-08-25T09:13:04Z</time>
      </trkpt>
      <trkpt lat="45.98598" lon="4.87325">
        <ele>274</ele>
        <time>2016-08-25T09:13:05Z</time>
      </trkpt>
      <trkpt lat="45.986" lon="4.87336">
        <ele>273</ele>
        <time>2016-08-25T09:13:06Z</time>
      </trkpt>
      <trkpt lat="45.98603" lon="4.87348">
        <ele>272</ele>
        <time>2016-08-25T09:13:07Z</time>
      </trkpt>
      <trkpt lat="45.98605" lon="4.8736">
        <ele>272</ele>
        <time>2016-08-25T09:13:08Z</time>
      </trkpt>
      <trkpt lat="45.98608" lon="4.87373">
        <ele>271</ele>
        <time>2016-08-25T09:13:09Z</time>
      </trkpt>
      <trkpt lat="45.9861" lon="4.87385">
        <ele>271</ele>
        <time>2016-08-25T09:13:10Z</time>
      </trkpt>
      <trkpt lat="45.98612" lon="4.87397">
        <ele>271</ele>
        <time>2016-08-25T09:13:11Z</time>
      </trkpt>
      <trkpt lat="45.98614" lon="4.87408">
        <ele>271</ele>
        <time>2016-08-25T09:13:12Z</time>
      </trkpt>
      <trkpt lat="45.98616" lon="4.87418">
        <ele>269</ele>
        <time>2016-08-25T09:13:13Z</time>
      </trkpt>
      <trkpt lat="45.98618" lon="4.87429">
        <ele>269</ele>
        <time>2016-08-25T09:13:14Z</time>
      </trkpt>
      <trkpt lat="45.9862" lon="4.8744">
        <ele>269</ele>
        <time>2016-08-25T09:13:15Z</time>
      </trkpt>
      <trkpt lat="45.98623" lon="4.87452">
        <ele>268</ele>
        <time>2016-08-25T09:13:16Z</time>
      </trkpt>
      <trkpt lat="45.98625" lon="4.87463">
        <ele>268</ele>
        <time>2016-08-25T09:13:17Z</time>
      </trkpt>
      <trkpt lat="45.98626" lon="4.87474">
        <ele>268</ele>
        <time>2016-08-25T09:13:18Z</time>
      </trkpt>
      <trkpt lat="45.98628" lon="4.87485">
        <ele>268</ele>
        <time>2016-08-25T09:13:19Z</time>
      </trkpt>
      <trkpt lat="45.9863" lon="4.87496">
        <ele>268</ele>
        <time>2016-08-25T09:13:20Z</time>
      </trkpt>
      <trkpt lat="45.98632" lon="4.87507">
        <ele>267</ele>
        <time>2016-08-25T09:13:21Z</time>
      </trkpt>
      <trkpt lat="45.98634" lon="4.87517">
        <ele>267</ele>
        <time>2016-08-25T09:13:22Z</time>
      </trkpt>
      <trkpt lat="45.98636" lon="4.87526">
        <ele>267</ele>
        <time>2016-08-25T09:13:23Z</time>
      </trkpt>
      <trkpt lat="45.98639" lon="4.87536">
        <ele>267</ele>
        <time>2016-08-25T09:13:24Z</time>
      </trkpt>
      <trkpt lat="45.98643" lon="4.87546">
        <ele>267</ele>
        <time>2016-08-25T09:13:25Z</time>
      </trkpt>
      <trkpt lat="45.98648" lon="4.87555">
        <ele>267</ele>
        <time>2016-08-25T09:13:26Z</time>
      </trkpt>
      <trkpt lat="45.98653" lon="4.87561">
        <ele>267</ele>
        <time>2016-08-25T09:13:27Z</time>
      </trkpt>
      <trkpt lat="45.98659" lon="4.87565">
        <ele>267</ele>
        <time>2016-08-25T09:13:28Z</time>
      </trkpt>
      <trkpt lat="45.98666" lon="4.87567">
        <ele>267</ele>
        <time>2016-08-25T09:13:29Z</time>
      </trkpt>
      <trkpt lat="45.98672" lon="4.87568">
        <ele>267</ele>
        <time>2016-08-25T09:13:30Z</time>
      </trkpt>
      <trkpt lat="45.98678" lon="4.87567">
        <ele>267</ele>
        <time>2016-08-25T09:13:31Z</time>
      </trkpt>
      <trkpt lat="45.98683" lon="4.87566">
        <ele>267</ele>
        <time>2016-08-25T09:13:32Z</time>
      </trkpt>
      <trkpt lat="45.98689" lon="4.87565">
        <ele>267</ele>
        <time>2016-08-25T09:13:33Z</time>
      </trkpt>
      <trkpt lat="45.98695" lon="4.87564">
        <ele>267</ele>
        <time>2016-08-25T09:13:34Z</time>
      </trkpt>
      <trkpt lat="45.98701" lon="4.87562">
        <ele>267</ele>
        <time>2016-08-25T09:13:35Z</time>
      </trkpt>
      <trkpt lat="45.98707" lon="4.87559">
        <ele>267</ele>
        <time>2016-08-25T09:13:36Z</time>
      </trkpt>
      <trkpt lat="45.98713" lon="4.87558">
        <ele>267</ele>
        <time>2016-08-25T09:13:37Z</time>
      </trkpt>
      <trkpt lat="45.98719" lon="4.87556">
        <ele>267</ele>
        <time>2016-08-25T09:13:38Z</time>
      </trkpt>
      <trkpt lat="45.98724" lon="4.87555">
        <ele>267</ele>
        <time>2016-08-25T09:13:39Z</time>
      </trkpt>
      <trkpt lat="45.9873" lon="4.87554">
        <ele>267</ele>
        <time>2016-08-25T09:13:40Z</time>
      </trkpt>
      <trkpt lat="45.98735" lon="4.87553">
        <ele>267</ele>
        <time>2016-08-25T09:13:41Z</time>
      </trkpt>
      <trkpt lat="45.98741" lon="4.87553">
        <ele>267</ele>
        <time>2016-08-25T09:13:42Z</time>
      </trkpt>
      <trkpt lat="45.98746" lon="4.87554">
        <ele>267</ele>
        <time>2016-08-25T09:13:43Z</time>
      </trkpt>
      <trkpt lat="45.98751" lon="4.87556">
        <ele>269</ele>
        <time>2016-08-25T09:13:44Z</time>
      </trkpt>
      <trkpt lat="45.98757" lon="4.87559">
        <ele>269</ele>
        <time>2016-08-25T09:13:45Z</time>
      </trkpt>
      <trkpt lat="45.98762" lon="4.87563">
        <ele>269</ele>
        <time>2016-08-25T09:13:46Z</time>
      </trkpt>
      <trkpt lat="45.98767" lon="4.87567">
        <ele>269</ele>
        <time>2016-08-25T09:13:47Z</time>
      </trkpt>
      <trkpt lat="45.98771" lon="4.87572">
        <ele>269</ele>
        <time>2016-08-25T09:13:48Z</time>
      </trkpt>
      <trkpt lat="45.98776" lon="4.87577">
        <ele>269</ele>
        <time>2016-08-25T09:13:49Z</time>
      </trkpt>
      <trkpt lat="45.9878" lon="4.87582">
        <ele>269</ele>
        <time>2016-08-25T09:13:50Z</time>
      </trkpt>
      <trkpt lat="45.98784" lon="4.87587">
        <ele>271</ele>
        <time>2016-08-25T09:13:51Z</time>
      </trkpt>
      <trkpt lat="45.98788" lon="4.87592">
        <ele>271</ele>
        <time>2016-08-25T09:13:52Z</time>
      </trkpt>
      <trkpt lat="45.98792" lon="4.87597">
        <ele>271</ele>
        <time>2016-08-25T09:13:53Z</time>
      </trkpt>
      <trkpt lat="45.98796" lon="4.87601">
        <ele>271</ele>
        <time>2016-08-25T09:13:54Z</time>
      </trkpt>
      <trkpt lat="45.98799" lon="4.87607">
        <ele>271</ele>
        <time>2016-08-25T09:13:55Z</time>
      </trkpt>
      <trkpt lat="45.98802" lon="4.87614">
        <ele>271</ele>
        <time>2016-08-25T09:13:56Z</time>
      </trkpt>
      <trkpt lat="45.98805" lon="4.8762">
        <ele>271</ele>
        <time>2016-08-25T09:13:57Z</time>
      </trkpt>
      <trkpt lat="45.98807" lon="4.87627">
        <ele>271</ele>
        <time>2016-08-25T09:13:58Z</time>
      </trkpt>
      <trkpt lat="45.98808" lon="4.87633">
        <ele>271</ele>
        <time>2016-08-25T09:13:59Z</time>
      </trkpt>
      <trkpt lat="45.9881" lon="4.8764">
        <ele>272</ele>
        <time>2016-08-25T09:14:00Z</time>
      </trkpt>
      <trkpt lat="45.98812" lon="4.87647">
        <ele>272</ele>
        <time>2016-08-25T09:14:01Z</time>
      </trkpt>
      <trkpt lat="45.98814" lon="4.87655">
        <ele>272</ele>
        <time>2016-08-25T09:14:02Z</time>
      </trkpt>
      <trkpt lat="45.98815" lon="4.87662">
        <ele>272</ele>
        <time>2016-08-25T09:14:03Z</time>
      </trkpt>
      <trkpt lat="45.98817" lon="4.87669">
        <ele>273</ele>
        <time>2016-08-25T09:14:04Z</time>
      </trkpt>
      <trkpt lat="45.98819" lon="4.87677">
        <ele>273</ele>
        <time>2016-08-25T09:14:05Z</time>
      </trkpt>
      <trkpt lat="45.98821" lon="4.87686">
        <ele>273</ele>
        <time>2016-08-25T09:14:06Z</time>
      </trkpt>
      <trkpt lat="45.98823" lon="4.87694">
        <ele>273</ele>
        <time>2016-08-25T09:14:07Z</time>
      </trkpt>
      <trkpt lat="45.98825" lon="4.87702">
        <ele>273</ele>
        <time>2016-08-25T09:14:08Z</time>
      </trkpt>
      <trkpt lat="45.98827" lon="4.8771">
        <ele>273</ele>
        <time>2016-08-25T09:14:09Z</time>
      </trkpt>
      <trkpt lat="45.98829" lon="4.87718">
        <ele>274</ele>
        <time>2016-08-25T09:14:10Z</time>
      </trkpt>
      <trkpt lat="45.98831" lon="4.87728">
        <ele>274</ele>
        <time>2016-08-25T09:14:11Z</time>
      </trkpt>
      <trkpt lat="45.98834" lon="4.87738">
        <ele>273</ele>
        <time>2016-08-25T09:14:12Z</time>
      </trkpt>
      <trkpt lat="45.98837" lon="4.87746">
        <ele>273</ele>
        <time>2016-08-25T09:14:13Z</time>
      </trkpt>
      <trkpt lat="45.98838" lon="4.87754">
        <ele>273</ele>
        <time>2016-08-25T09:14:14Z</time>
      </trkpt>
      <trkpt lat="45.9884" lon="4.87762">
        <ele>273</ele>
        <time>2016-08-25T09:14:15Z</time>
      </trkpt>
      <trkpt lat="45.98841" lon="4.8777">
        <ele>273</ele>
        <time>2016-08-25T09:14:16Z</time>
      </trkpt>
      <trkpt lat="45.98843" lon="4.87777">
        <ele>273</ele>
        <time>2016-08-25T09:14:17Z</time>
      </trkpt>
      <trkpt lat="45.98845" lon="4.87784">
        <ele>273</ele>
        <time>2016-08-25T09:14:18Z</time>
      </trkpt>
      <trkpt lat="45.98847" lon="4.8779">
        <ele>273</ele>
        <time>2016-08-25T09:14:19Z</time>
      </trkpt>
      <trkpt lat="45.98851" lon="4.87797">
        <ele>273</ele>
        <time>2016-08-25T09:14:20Z</time>
      </trkpt>
      <trkpt lat="45.98853" lon="4.87803">
        <ele>273</ele>
        <time>2016-08-25T09:14:21Z</time>
      </trkpt>
      <trkpt lat="45.98856" lon="4.87809">
        <ele>273</ele>
        <time>2016-08-25T09:14:22Z</time>
      </trkpt>
      <trkpt lat="45.98858" lon="4.87815">
        <ele>273</ele>
        <time>2016-08-25T09:14:23Z</time>
      </trkpt>
      <trkpt lat="45.98861" lon="4.87821">
        <ele>273</ele>
        <time>2016-08-25T09:14:24Z</time>
      </trkpt>
      <trkpt lat="45.98864" lon="4.87826">
        <ele>273</ele>
        <time>2016-08-25T09:14:25Z</time>
      </trkpt>
      <trkpt lat="45.98867" lon="4.87832">
        <ele>273</ele>
        <time>2016-08-25T09:14:26Z</time>
      </trkpt>
      <trkpt lat="45.98869" lon="4.87838">
        <ele>273</ele>
        <time>2016-08-25T09:14:27Z</time>
      </trkpt>
      <trkpt lat="45.98872" lon="4.87844">
        <ele>273</ele>
        <time>2016-08-25T09:14:28Z</time>
      </trkpt>
      <trkpt lat="45.98875" lon="4.87849">
        <ele>272</ele>
        <time>2016-08-25T09:14:29Z</time>
      </trkpt>
      <trkpt lat="45.98881" lon="4.87859">
        <ele>272</ele>
        <time>2016-08-25T09:14:31Z</time>
      </trkpt>
      <trkpt lat="45.98884" lon="4.87865">
        <ele>272</ele>
        <time>2016-08-25T09:14:32Z</time>
      </trkpt>
      <trkpt lat="45.98888" lon="4.8787">
        <ele>272</ele>
        <time>2016-08-25T09:14:33Z</time>
      </trkpt>
      <trkpt lat="45.98891" lon="4.87875">
        <ele>272</ele>
        <time>2016-08-25T09:14:34Z</time>
      </trkpt>
      <trkpt lat="45.98895" lon="4.8788">
        <ele>272</ele>
        <time>2016-08-25T09:14:35Z</time>
      </trkpt>
      <trkpt lat="45.98899" lon="4.87885">
        <ele>272</ele>
        <time>2016-08-25T09:14:36Z</time>
      </trkpt>
      <trkpt lat="45.98903" lon="4.8789">
        <ele>272</ele>
        <time>2016-08-25T09:14:37Z</time>
      </trkpt>
      <trkpt lat="45.98906" lon="4.87894">
        <ele>272</ele>
        <time>2016-08-25T09:14:38Z</time>
      </trkpt>
      <trkpt lat="45.98913" lon="4.87902">
        <ele>272</ele>
        <time>2016-08-25T09:14:40Z</time>
      </trkpt>
      <trkpt lat="45.98916" lon="4.87905">
        <ele>272</ele>
        <time>2016-08-25T09:14:41Z</time>
      </trkpt>
      <trkpt lat="45.98921" lon="4.87912">
        <ele>272</ele>
        <time>2016-08-25T09:14:43Z</time>
      </trkpt>
      <trkpt lat="45.98924" lon="4.87915">
        <ele>272</ele>
        <time>2016-08-25T09:14:44Z</time>
      </trkpt>
      <trkpt lat="45.9893" lon="4.87919">
        <ele>272</ele>
        <time>2016-08-25T09:14:46Z</time>
      </trkpt>
      <trkpt lat="45.98933" lon="4.87921">
        <ele>272</ele>
        <time>2016-08-25T09:14:47Z</time>
      </trkpt>
      <trkpt lat="45.9894" lon="4.87925">
        <ele>273</ele>
        <time>2016-08-25T09:14:49Z</time>
      </trkpt>
      <trkpt lat="45.98943" lon="4.87926">
        <ele>273</ele>
        <time>2016-08-25T09:14:50Z</time>
      </trkpt>
      <trkpt lat="45.98949" lon="4.87929">
        <ele>273</ele>
        <time>2016-08-25T09:14:52Z</time>
      </trkpt>
      <trkpt lat="45.98952" lon="4.8793">
        <ele>273</ele>
        <time>2016-08-25T09:14:53Z</time>
      </trkpt>
      <trkpt lat="45.98958" lon="4.87933">
        <ele>273</ele>
        <time>2016-08-25T09:14:55Z</time>
      </trkpt>
      <trkpt lat="45.98961" lon="4.87935">
        <ele>273</ele>
        <time>2016-08-25T09:14:56Z</time>
      </trkpt>
      <trkpt lat="45.98967" lon="4.87937">
        <ele>274</ele>
        <time>2016-08-25T09:14:58Z</time>
      </trkpt>
      <trkpt lat="45.9897" lon="4.87939">
        <ele>274</ele>
        <time>2016-08-25T09:14:59Z</time>
      </trkpt>
      <trkpt lat="45.98977" lon="4.87944">
        <ele>274</ele>
        <time>2016-08-25T09:15:02Z</time>
      </trkpt>
      <trkpt lat="45.9898" lon="4.87946">
        <ele>274</ele>
        <time>2016-08-25T09:15:03Z</time>
      </trkpt>
      <trkpt lat="45.98986" lon="4.87948">
        <ele>274</ele>
        <time>2016-08-25T09:15:05Z</time>
      </trkpt>
      <trkpt lat="45.9899" lon="4.87949">
        <ele>274</ele>
        <time>2016-08-25T09:15:06Z</time>
      </trkpt>
      <trkpt lat="45.98995" lon="4.87952">
        <ele>274</ele>
        <time>2016-08-25T09:15:08Z</time>
      </trkpt>
      <trkpt lat="45.98998" lon="4.87954">
        <ele>274</ele>
        <time>2016-08-25T09:15:09Z</time>
      </trkpt>
      <trkpt lat="45.99005" lon="4.87958">
        <ele>276</ele>
        <time>2016-08-25T09:15:11Z</time>
      </trkpt>
      <trkpt lat="45.99009" lon="4.87961">
        <ele>276</ele>
        <time>2016-08-25T09:15:12Z</time>
      </trkpt>
      <trkpt lat="45.99016" lon="4.87966">
        <ele>276</ele>
        <time>2016-08-25T09:15:14Z</time>
      </trkpt>
      <trkpt lat="45.9902" lon="4.87967">
        <ele>276</ele>
        <time>2016-08-25T09:15:15Z</time>
      </trkpt>
      <trkpt lat="45.99027" lon="4.87971">
        <ele>276</ele>
        <time>2016-08-25T09:15:17Z</time>
      </trkpt>
      <trkpt lat="45.99031" lon="4.87973">
        <ele>276</ele>
        <time>2016-08-25T09:15:18Z</time>
      </trkpt>
      <trkpt lat="45.99038" lon="4.87978">
        <ele>276</ele>
        <time>2016-08-25T09:15:20Z</time>
      </trkpt>
      <trkpt lat="45.99042" lon="4.8798">
        <ele>276</ele>
        <time>2016-08-25T09:15:21Z</time>
      </trkpt>
      <trkpt lat="45.99048" lon="4.87984">
        <ele>277</ele>
        <time>2016-08-25T09:15:23Z</time>
      </trkpt>
      <trkpt lat="45.99052" lon="4.87987">
        <ele>277</ele>
        <time>2016-08-25T09:15:24Z</time>
      </trkpt>
      <trkpt lat="45.99058" lon="4.87991">
        <ele>277</ele>
        <time>2016-08-25T09:15:26Z</time>
      </trkpt>
      <trkpt lat="45.99063" lon="4.87994">
        <ele>277</ele>
        <time>2016-08-25T09:15:27Z</time>
      </trkpt>
      <trkpt lat="45.9907" lon="4.87998">
        <ele>277</ele>
        <time>2016-08-25T09:15:29Z</time>
      </trkpt>
      <trkpt lat="45.99074" lon="4.88">
        <ele>278</ele>
        <time>2016-08-25T09:15:30Z</time>
      </trkpt>
      <trkpt lat="45.99082" lon="4.88005">
        <ele>278</ele>
        <time>2016-08-25T09:15:32Z</time>
      </trkpt>
      <trkpt lat="45.99086" lon="4.88007">
        <ele>278</ele>
        <time>2016-08-25T09:15:33Z</time>
      </trkpt>
      <trkpt lat="45.99093" lon="4.88011">
        <ele>278</ele>
        <time>2016-08-25T09:15:35Z</time>
      </trkpt>
      <trkpt lat="45.99096" lon="4.88014">
        <ele>278</ele>
        <time>2016-08-25T09:15:36Z</time>
      </trkpt>
      <trkpt lat="45.99104" lon="4.88018">
        <ele>278</ele>
        <time>2016-08-25T09:15:38Z</time>
      </trkpt>
      <trkpt lat="45.99108" lon="4.8802">
        <ele>278</ele>
        <time>2016-08-25T09:15:39Z</time>
      </trkpt>
      <trkpt lat="45.99116" lon="4.88024">
        <ele>278</ele>
        <time>2016-08-25T09:15:41Z</time>
      </trkpt>
      <trkpt lat="45.9912" lon="4.88026">
        <ele>278</ele>
        <time>2016-08-25T09:15:42Z</time>
      </trkpt>
      <trkpt lat="45.99128" lon="4.88031">
        <ele>279</ele>
        <time>2016-08-25T09:15:44Z</time>
      </trkpt>
      <trkpt lat="45.99132" lon="4.88034">
        <ele>279</ele>
        <time>2016-08-25T09:15:45Z</time>
      </trkpt>
      <trkpt lat="45.99136" lon="4.88037">
        <ele>279</ele>
        <time>2016-08-25T09:15:46Z</time>
      </trkpt>
      <trkpt lat="45.9914" lon="4.88039">
        <ele>279</ele>
        <time>2016-08-25T09:15:47Z</time>
      </trkpt>
      <trkpt lat="45.99145" lon="4.88043">
        <ele>279</ele>
        <time>2016-08-25T09:15:48Z</time>
      </trkpt>
      <trkpt lat="45.9915" lon="4.88046">
        <ele>279</ele>
        <time>2016-08-25T09:15:49Z</time>
      </trkpt>
      <trkpt lat="45.99155" lon="4.88049">
        <ele>279</ele>
        <time>2016-08-25T09:15:50Z</time>
      </trkpt>
      <trkpt lat="45.9916" lon="4.88052">
        <ele>279</ele>
        <time>2016-08-25T09:15:51Z</time>
      </trkpt>
      <trkpt lat="45.99165" lon="4.88055">
        <ele>279</ele>
        <time>2016-08-25T09:15:52Z</time>
      </trkpt>
      <trkpt lat="45.99169" lon="4.88059">
        <ele>279</ele>
        <time>2016-08-25T09:15:53Z</time>
      </trkpt>
      <trkpt lat="45.99173" lon="4.88063">
        <ele>279</ele>
        <time>2016-08-25T09:15:54Z</time>
      </trkpt>
      <trkpt lat="45.99177" lon="4.88066">
        <ele>279</ele>
        <time>2016-08-25T09:15:55Z</time>
      </trkpt>
      <trkpt lat="45.99181" lon="4.8807">
        <ele>279</ele>
        <time>2016-08-25T09:15:56Z</time>
      </trkpt>
      <trkpt lat="45.99185" lon="4.88073">
        <ele>279</ele>
        <time>2016-08-25T09:15:57Z</time>
      </trkpt>
      <trkpt lat="45.99192" lon="4.8808">
        <ele>280</ele>
        <time>2016-08-25T09:15:59Z</time>
      </trkpt>
      <trkpt lat="45.99196" lon="4.88083">
        <ele>280</ele>
        <time>2016-08-25T09:16:00Z</time>
      </trkpt>
      <trkpt lat="45.99203" lon="4.88089">
        <ele>280</ele>
        <time>2016-08-25T09:16:02Z</time>
      </trkpt>
      <trkpt lat="45.99207" lon="4.88093">
        <ele>280</ele>
        <time>2016-08-25T09:16:03Z</time>
      </trkpt>
      <trkpt lat="45.9921" lon="4.88096">
        <ele>280</ele>
        <time>2016-08-25T09:16:04Z</time>
      </trkpt>
      <trkpt lat="45.99215" lon="4.881">
        <ele>280</ele>
        <time>2016-08-25T09:16:05Z</time>
      </trkpt>
      <trkpt lat="45.99222" lon="4.88106">
        <ele>280</ele>
        <time>2016-08-25T09:16:07Z</time>
      </trkpt>
      <trkpt lat="45.99226" lon="4.8811">
        <ele>280</ele>
        <time>2016-08-25T09:16:08Z</time>
      </trkpt>
      <trkpt lat="45.99231" lon="4.88113">
        <ele>280</ele>
        <time>2016-08-25T09:16:09Z</time>
      </trkpt>
      <trkpt lat="45.99235" lon="4.88117">
        <ele>280</ele>
        <time>2016-08-25T09:16:10Z</time>
      </trkpt>
      <trkpt lat="45.99238" lon="4.8812">
        <ele>280</ele>
        <time>2016-08-25T09:16:11Z</time>
      </trkpt>
      <trkpt lat="45.99242" lon="4.88124">
        <ele>280</ele>
        <time>2016-08-25T09:16:12Z</time>
      </trkpt>
      <trkpt lat="45.9925" lon="4.88131">
        <ele>280</ele>
        <time>2016-08-25T09:16:14Z</time>
      </trkpt>
      <trkpt lat="45.99254" lon="4.88134">
        <ele>283</ele>
        <time>2016-08-25T09:16:15Z</time>
      </trkpt>
      <trkpt lat="45.99258" lon="4.88139">
        <ele>283</ele>
        <time>2016-08-25T09:16:16Z</time>
      </trkpt>
      <trkpt lat="45.99262" lon="4.88143">
        <ele>283</ele>
        <time>2016-08-25T09:16:17Z</time>
      </trkpt>
      <trkpt lat="45.99267" lon="4.88147">
        <ele>283</ele>
        <time>2016-08-25T09:16:18Z</time>
      </trkpt>
      <trkpt lat="45.99272" lon="4.88151">
        <ele>283</ele>
        <time>2016-08-25T09:16:19Z</time>
      </trkpt>
      <trkpt lat="45.99276" lon="4.88155">
        <ele>283</ele>
        <time>2016-08-25T09:16:20Z</time>
      </trkpt>
      <trkpt lat="45.9928" lon="4.88158">
        <ele>284</ele>
        <time>2016-08-25T09:16:21Z</time>
      </trkpt>
      <trkpt lat="45.99288" lon="4.88164">
        <ele>284</ele>
        <time>2016-08-25T09:16:23Z</time>
      </trkpt>
      <trkpt lat="45.99291" lon="4.88168">
        <ele>284</ele>
        <time>2016-08-25T09:16:24Z</time>
      </trkpt>
      <trkpt lat="45.99298" lon="4.88174">
        <ele>284</ele>
        <time>2016-08-25T09:16:26Z</time>
      </trkpt>
      <trkpt lat="45.99301" lon="4.88178">
        <ele>285</ele>
        <time>2016-08-25T09:16:27Z</time>
      </trkpt>
      <trkpt lat="45.99305" lon="4.88181">
        <ele>285</ele>
        <time>2016-08-25T09:16:28Z</time>
      </trkpt>
      <trkpt lat="45.99309" lon="4.88185">
        <ele>285</ele>
        <time>2016-08-25T09:16:29Z</time>
      </trkpt>
      <trkpt lat="45.99314" lon="4.88189">
        <ele>285</ele>
        <time>2016-08-25T09:16:30Z</time>
      </trkpt>
      <trkpt lat="45.99318" lon="4.88193">
        <ele>285</ele>
        <time>2016-08-25T09:16:31Z</time>
      </trkpt>
      <trkpt lat="45.99323" lon="4.88197">
        <ele>285</ele>
        <time>2016-08-25T09:16:32Z</time>
      </trkpt>
      <trkpt lat="45.99327" lon="4.88201">
        <ele>285</ele>
        <time>2016-08-25T09:16:33Z</time>
      </trkpt>
      <trkpt lat="45.99332" lon="4.88205">
        <ele>285</ele>
        <time>2016-08-25T09:16:34Z</time>
      </trkpt>
      <trkpt lat="45.99336" lon="4.88208">
        <ele>287</ele>
        <time>2016-08-25T09:16:35Z</time>
      </trkpt>
      <trkpt lat="45.9934" lon="4.88211">
        <ele>287</ele>
        <time>2016-08-25T09:16:36Z</time>
      </trkpt>
      <trkpt lat="45.99343" lon="4.88215">
        <ele>287</ele>
        <time>2016-08-25T09:16:37Z</time>
      </trkpt>
      <trkpt lat="45.99347" lon="4.88218">
        <ele>287</ele>
        <time>2016-08-25T09:16:38Z</time>
      </trkpt>
      <trkpt lat="45.99351" lon="4.88222">
        <ele>287</ele>
        <time>2016-08-25T09:16:39Z</time>
      </trkpt>
      <trkpt lat="45.99358" lon="4.8823">
        <ele>287</ele>
        <time>2016-08-25T09:16:41Z</time>
      </trkpt>
      <trkpt lat="45.99361" lon="4.88234">
        <ele>287</ele>
        <time>2016-08-25T09:16:42Z</time>
      </trkpt>
      <trkpt lat="45.99365" lon="4.88238">
        <ele>287</ele>
        <time>2016-08-25T09:16:43Z</time>
      </trkpt>
      <trkpt lat="45.99369" lon="4.88244">
        <ele>287</ele>
        <time>2016-08-25T09:16:44Z</time>
      </trkpt>
      <trkpt lat="45.99372" lon="4.88249">
        <ele>287</ele>
        <time>2016-08-25T09:16:45Z</time>
      </trkpt>
      <trkpt lat="45.99375" lon="4.88256">
        <ele>285</ele>
        <time>2016-08-25T09:16:46Z</time>
      </trkpt>
      <trkpt lat="45.99378" lon="4.88263">
        <ele>285</ele>
        <time>2016-08-25T09:16:47Z</time>
      </trkpt>
      <trkpt lat="45.99381" lon="4.8827">
        <ele>284</ele>
        <time>2016-08-25T09:16:48Z</time>
      </trkpt>
      <trkpt lat="45.99384" lon="4.88276">
        <ele>284</ele>
        <time>2016-08-25T09:16:49Z</time>
      </trkpt>
      <trkpt lat="45.99386" lon="4.88282">
        <ele>284</ele>
        <time>2016-08-25T09:16:50Z</time>
      </trkpt>
      <trkpt lat="45.99388" lon="4.88288">
        <ele>284</ele>
        <time>2016-08-25T09:16:51Z</time>
      </trkpt>
      <trkpt lat="45.99391" lon="4.88293">
        <ele>284</ele>
        <time>2016-08-25T09:16:52Z</time>
      </trkpt>
      <trkpt lat="45.99395" lon="4.88304">
        <ele>284</ele>
        <time>2016-08-25T09:16:54Z</time>
      </trkpt>
      <trkpt lat="45.99397" lon="4.8831">
        <ele>283</ele>
        <time>2016-08-25T09:16:55Z</time>
      </trkpt>
      <trkpt lat="45.99399" lon="4.88317">
        <ele>283</ele>
        <time>2016-08-25T09:16:56Z</time>
      </trkpt>
      <trkpt lat="45.99401" lon="4.88323">
        <ele>283</ele>
        <time>2016-08-25T09:16:57Z</time>
      </trkpt>
      <trkpt lat="45.99404" lon="4.88329">
        <ele>283</ele>
        <time>2016-08-25T09:16:58Z</time>
      </trkpt>
      <trkpt lat="45.99407" lon="4.88335">
        <ele>282</ele>
        <time>2016-08-25T09:16:59Z</time>
      </trkpt>
      <trkpt lat="45.99409" lon="4.88341">
        <ele>282</ele>
        <time>2016-08-25T09:17:00Z</time>
      </trkpt>
      <trkpt lat="45.99412" lon="4.88347">
        <ele>282</ele>
        <time>2016-08-25T09:17:01Z</time>
      </trkpt>
      <trkpt lat="45.99416" lon="4.88358">
        <ele>282</ele>
        <time>2016-08-25T09:17:03Z</time>
      </trkpt>
      <trkpt lat="45.99418" lon="4.88363">
        <ele>283</ele>
        <time>2016-08-25T09:17:04Z</time>
      </trkpt>
      <trkpt lat="45.99422" lon="4.88373">
        <ele>283</ele>
        <time>2016-08-25T09:17:06Z</time>
      </trkpt>
      <trkpt lat="45.99425" lon="4.88378">
        <ele>283</ele>
        <time>2016-08-25T09:17:07Z</time>
      </trkpt>
      <trkpt lat="45.99427" lon="4.88384">
        <ele>283</ele>
        <time>2016-08-25T09:17:08Z</time>
      </trkpt>
      <trkpt lat="45.9943" lon="4.88389">
        <ele>283</ele>
        <time>2016-08-25T09:17:09Z</time>
      </trkpt>
      <trkpt lat="45.99436" lon="4.88399">
        <ele>283</ele>
        <time>2016-08-25T09:17:11Z</time>
      </trkpt>
      <trkpt lat="45.99439" lon="4.88403">
        <ele>283</ele>
        <time>2016-08-25T09:17:12Z</time>
      </trkpt>
      <trkpt lat="45.99443" lon="4.88407">
        <ele>283</ele>
        <time>2016-08-25T09:17:13Z</time>
      </trkpt>
      <trkpt lat="45.99447" lon="4.8841">
        <ele>283</ele>
        <time>2016-08-25T09:17:14Z</time>
      </trkpt>
      <trkpt lat="45.99451" lon="4.88414">
        <ele>283</ele>
        <time>2016-08-25T09:17:15Z</time>
      </trkpt>
      <trkpt lat="45.99456" lon="4.88417">
        <ele>283</ele>
        <time>2016-08-25T09:17:16Z</time>
      </trkpt>
      <trkpt lat="45.9946" lon="4.88421">
        <ele>284</ele>
        <time>2016-08-25T09:17:17Z</time>
      </trkpt>
      <trkpt lat="45.99463" lon="4.88425">
        <ele>284</ele>
        <time>2016-08-25T09:17:18Z</time>
      </trkpt>
      <trkpt lat="45.99467" lon="4.88429">
        <ele>284</ele>
        <time>2016-08-25T09:17:19Z</time>
      </trkpt>
      <trkpt lat="45.99471" lon="4.88434">
        <ele>284</ele>
        <time>2016-08-25T09:17:20Z</time>
      </trkpt>
      <trkpt lat="45.99474" lon="4.88438">
        <ele>284</ele>
        <time>2016-08-25T09:17:21Z</time>
      </trkpt>
      <trkpt lat="45.99477" lon="4.88443">
        <ele>284</ele>
        <time>2016-08-25T09:17:22Z</time>
      </trkpt>
      <trkpt lat="45.99481" lon="4.88449">
        <ele>284</ele>
        <time>2016-08-25T09:17:23Z</time>
      </trkpt>
      <trkpt lat="45.99484" lon="4.88455">
        <ele>284</ele>
        <time>2016-08-25T09:17:24Z</time>
      </trkpt>
      <trkpt lat="45.99488" lon="4.88461">
        <ele>284</ele>
        <time>2016-08-25T09:17:25Z</time>
      </trkpt>
      <trkpt lat="45.99491" lon="4.88467">
        <ele>284</ele>
        <time>2016-08-25T09:17:26Z</time>
      </trkpt>
      <trkpt lat="45.99494" lon="4.88473">
        <ele>284</ele>
        <time>2016-08-25T09:17:27Z</time>
      </trkpt>
      <trkpt lat="45.99497" lon="4.88479">
        <ele>284</ele>
        <time>2016-08-25T09:17:28Z</time>
      </trkpt>
      <trkpt lat="45.99499" lon="4.88484">
        <ele>284</ele>
        <time>2016-08-25T09:17:29Z</time>
      </trkpt>
      <trkpt lat="45.99502" lon="4.8849">
        <ele>284</ele>
        <time>2016-08-25T09:17:30Z</time>
      </trkpt>
      <trkpt lat="45.99505" lon="4.88495">
        <ele>284</ele>
        <time>2016-08-25T09:17:31Z</time>
      </trkpt>
      <trkpt lat="45.99508" lon="4.885">
        <ele>284</ele>
        <time>2016-08-25T09:17:32Z</time>
      </trkpt>
      <trkpt lat="45.99513" lon="4.8851">
        <ele>285</ele>
        <time>2016-08-25T09:17:34Z</time>
      </trkpt>
      <trkpt lat="45.99516" lon="4.88515">
        <ele>285</ele>
        <time>2016-08-25T09:17:35Z</time>
      </trkpt>
      <trkpt lat="45.99521" lon="4.88526">
        <ele>285</ele>
        <time>2016-08-25T09:17:37Z</time>
      </trkpt>
      <trkpt lat="45.99523" lon="4.88531">
        <ele>285</ele>
        <time>2016-08-25T09:17:38Z</time>
      </trkpt>
      <trkpt lat="45.99526" lon="4.88536">
        <ele>285</ele>
        <time>2016-08-25T09:17:39Z</time>
      </trkpt>
      <trkpt lat="45.99528" lon="4.88542">
        <ele>285</ele>
        <time>2016-08-25T09:17:40Z</time>
      </trkpt>
      <trkpt lat="45.9953" lon="4.88548">
        <ele>285</ele>
        <time>2016-08-25T09:17:41Z</time>
      </trkpt>
      <trkpt lat="45.99532" lon="4.88554">
        <ele>285</ele>
        <time>2016-08-25T09:17:42Z</time>
      </trkpt>
      <trkpt lat="45.99535" lon="4.88561">
        <ele>285</ele>
        <time>2016-08-25T09:17:43Z</time>
      </trkpt>
      <trkpt lat="45.99538" lon="4.88568">
        <ele>285</ele>
        <time>2016-08-25T09:17:44Z</time>
      </trkpt>
      <trkpt lat="45.9954" lon="4.88575">
        <ele>285</ele>
        <time>2016-08-25T09:17:45Z</time>
      </trkpt>
      <trkpt lat="45.99542" lon="4.88583">
        <ele>286</ele>
        <time>2016-08-25T09:17:46Z</time>
      </trkpt>
      <trkpt lat="45.99544" lon="4.88591">
        <ele>286</ele>
        <time>2016-08-25T09:17:47Z</time>
      </trkpt>
      <trkpt lat="45.99545" lon="4.88601">
        <ele>286</ele>
        <time>2016-08-25T09:17:48Z</time>
      </trkpt>
      <trkpt lat="45.99546" lon="4.88609">
        <ele>286</ele>
        <time>2016-08-25T09:17:49Z</time>
      </trkpt>
      <trkpt lat="45.99547" lon="4.88617">
        <ele>286</ele>
        <time>2016-08-25T09:17:50Z</time>
      </trkpt>
      <trkpt lat="45.99548" lon="4.88624">
        <ele>286</ele>
        <time>2016-08-25T09:17:51Z</time>
      </trkpt>
      <trkpt lat="45.99549" lon="4.88631">
        <ele>286</ele>
        <time>2016-08-25T09:17:52Z</time>
      </trkpt>
      <trkpt lat="45.99549" lon="4.88638">
        <ele>286</ele>
        <time>2016-08-25T09:17:53Z</time>
      </trkpt>
      <trkpt lat="45.9955" lon="4.88646">
        <ele>286</ele>
        <time>2016-08-25T09:17:54Z</time>
      </trkpt>
      <trkpt lat="45.99551" lon="4.88653">
        <ele>286</ele>
        <time>2016-08-25T09:17:55Z</time>
      </trkpt>
      <trkpt lat="45.99551" lon="4.8866">
        <ele>286</ele>
        <time>2016-08-25T09:17:56Z</time>
      </trkpt>
      <trkpt lat="45.99551" lon="4.88667">
        <ele>286</ele>
        <time>2016-08-25T09:17:57Z</time>
      </trkpt>
      <trkpt lat="45.99552" lon="4.88673">
        <ele>286</ele>
        <time>2016-08-25T09:17:58Z</time>
      </trkpt>
      <trkpt lat="45.99553" lon="4.8868">
        <ele>286</ele>
        <time>2016-08-25T09:17:59Z</time>
      </trkpt>
      <trkpt lat="45.99553" lon="4.88687">
        <ele>286</ele>
        <time>2016-08-25T09:18:00Z</time>
      </trkpt>
      <trkpt lat="45.99554" lon="4.88694">
        <ele>286</ele>
        <time>2016-08-25T09:18:01Z</time>
      </trkpt>
      <trkpt lat="45.99555" lon="4.88701">
        <ele>286</ele>
        <time>2016-08-25T09:18:02Z</time>
      </trkpt>
      <trkpt lat="45.99556" lon="4.88708">
        <ele>286</ele>
        <time>2016-08-25T09:18:03Z</time>
      </trkpt>
      <trkpt lat="45.99556" lon="4.88714">
        <ele>286</ele>
        <time>2016-08-25T09:18:04Z</time>
      </trkpt>
      <trkpt lat="45.99557" lon="4.88721">
        <ele>286</ele>
        <time>2016-08-25T09:18:05Z</time>
      </trkpt>
      <trkpt lat="45.99558" lon="4.88728">
        <ele>286</ele>
        <time>2016-08-25T09:18:06Z</time>
      </trkpt>
      <trkpt lat="45.99559" lon="4.88736">
        <ele>286</ele>
        <time>2016-08-25T09:18:07Z</time>
      </trkpt>
      <trkpt lat="45.9956" lon="4.88743">
        <ele>287</ele>
        <time>2016-08-25T09:18:08Z</time>
      </trkpt>
      <trkpt lat="45.99561" lon="4.88751">
        <ele>287</ele>
        <time>2016-08-25T09:18:09Z</time>
      </trkpt>
      <trkpt lat="45.99561" lon="4.88758">
        <ele>287</ele>
        <time>2016-08-25T09:18:10Z</time>
      </trkpt>
      <trkpt lat="45.99562" lon="4.88765">
        <ele>287</ele>
        <time>2016-08-25T09:18:11Z</time>
      </trkpt>
      <trkpt lat="45.99563" lon="4.88772">
        <ele>287</ele>
        <time>2016-08-25T09:18:12Z</time>
      </trkpt>
      <trkpt lat="45.99564" lon="4.88778">
        <ele>287</ele>
        <time>2016-08-25T09:18:13Z</time>
      </trkpt>
      <trkpt lat="45.99565" lon="4.88785">
        <ele>287</ele>
        <time>2016-08-25T09:18:14Z</time>
      </trkpt>
      <trkpt lat="45.99565" lon="4.88791">
        <ele>287</ele>
        <time>2016-08-25T09:18:15Z</time>
      </trkpt>
      <trkpt lat="45.99566" lon="4.88798">
        <ele>287</ele>
        <time>2016-08-25T09:18:16Z</time>
      </trkpt>
      <trkpt lat="45.99566" lon="4.88804">
        <ele>287</ele>
        <time>2016-08-25T09:18:17Z</time>
      </trkpt>
      <trkpt lat="45.99567" lon="4.88811">
        <ele>287</ele>
        <time>2016-08-25T09:18:18Z</time>
      </trkpt>
      <trkpt lat="45.99568" lon="4.88818">
        <ele>287</ele>
        <time>2016-08-25T09:18:19Z</time>
      </trkpt>
      <trkpt lat="45.99568" lon="4.88824">
        <ele>287</ele>
        <time>2016-08-25T09:18:20Z</time>
      </trkpt>
      <trkpt lat="45.99569" lon="4.88831">
        <ele>287</ele>
        <time>2016-08-25T09:18:21Z</time>
      </trkpt>
      <trkpt lat="45.9957" lon="4.88838">
        <ele>287</ele>
        <time>2016-08-25T09:18:22Z</time>
      </trkpt>
      <trkpt lat="45.9957" lon="4.88845">
        <ele>287</ele>
        <time>2016-08-25T09:18:23Z</time>
      </trkpt>
      <trkpt lat="45.9957" lon="4.88853">
        <ele>287</ele>
        <time>2016-08-25T09:18:24Z</time>
      </trkpt>
      <trkpt lat="45.99571" lon="4.8886">
        <ele>287</ele>
        <time>2016-08-25T09:18:25Z</time>
      </trkpt>
      <trkpt lat="45.99571" lon="4.88867">
        <ele>287</ele>
        <time>2016-08-25T09:18:26Z</time>
      </trkpt>
      <trkpt lat="45.99572" lon="4.88874">
        <ele>287</ele>
        <time>2016-08-25T09:18:27Z</time>
      </trkpt>
      <trkpt lat="45.99573" lon="4.88882">
        <ele>287</ele>
        <time>2016-08-25T09:18:28Z</time>
      </trkpt>
      <trkpt lat="45.99574" lon="4.88889">
        <ele>287</ele>
        <time>2016-08-25T09:18:29Z</time>
      </trkpt>
      <trkpt lat="45.99574" lon="4.88896">
        <ele>287</ele>
        <time>2016-08-25T09:18:30Z</time>
      </trkpt>
      <trkpt lat="45.99576" lon="4.88903">
        <ele>287</ele>
        <time>2016-08-25T09:18:31Z</time>
      </trkpt>
      <trkpt lat="45.99577" lon="4.88911">
        <ele>287</ele>
        <time>2016-08-25T09:18:32Z</time>
      </trkpt>
      <trkpt lat="45.99578" lon="4.88918">
        <ele>287</ele>
        <time>2016-08-25T09:18:33Z</time>
      </trkpt>
      <trkpt lat="45.99579" lon="4.88925">
        <ele>287</ele>
        <time>2016-08-25T09:18:34Z</time>
      </trkpt>
      <trkpt lat="45.9958" lon="4.88932">
        <ele>287</ele>
        <time>2016-08-25T09:18:35Z</time>
      </trkpt>
      <trkpt lat="45.99581" lon="4.88938">
        <ele>287</ele>
        <time>2016-08-25T09:18:36Z</time>
      </trkpt>
      <trkpt lat="45.99581" lon="4.8895">
        <ele>287</ele>
        <time>2016-08-25T09:18:38Z</time>
      </trkpt>
      <trkpt lat="45.99582" lon="4.88956">
        <ele>287</ele>
        <time>2016-08-25T09:18:39Z</time>
      </trkpt>
      <trkpt lat="45.99583" lon="4.88968">
        <ele>287</ele>
        <time>2016-08-25T09:18:41Z</time>
      </trkpt>
      <trkpt lat="45.99583" lon="4.88974">
        <ele>287</ele>
        <time>2016-08-25T09:18:42Z</time>
      </trkpt>
      <trkpt lat="45.99583" lon="4.88985">
        <ele>288</ele>
        <time>2016-08-25T09:18:44Z</time>
      </trkpt>
      <trkpt lat="45.99583" lon="4.88991">
        <ele>288</ele>
        <time>2016-08-25T09:18:45Z</time>
      </trkpt>
      <trkpt lat="45.99582" lon="4.89003">
        <ele>288</ele>
        <time>2016-08-25T09:18:47Z</time>
      </trkpt>
      <trkpt lat="45.99582" lon="4.8901">
        <ele>288</ele>
        <time>2016-08-25T09:18:48Z</time>
      </trkpt>
      <trkpt lat="45.99582" lon="4.89017">
        <ele>288</ele>
        <time>2016-08-25T09:18:49Z</time>
      </trkpt>
      <trkpt lat="45.99581" lon="4.89023">
        <ele>288</ele>
        <time>2016-08-25T09:18:50Z</time>
      </trkpt>
      <trkpt lat="45.9958" lon="4.8903">
        <ele>288</ele>
        <time>2016-08-25T09:18:51Z</time>
      </trkpt>
      <trkpt lat="45.99579" lon="4.89037">
        <ele>288</ele>
        <time>2016-08-25T09:18:52Z</time>
      </trkpt>
      <trkpt lat="45.99577" lon="4.89049">
        <ele>288</ele>
        <time>2016-08-25T09:18:54Z</time>
      </trkpt>
      <trkpt lat="45.99575" lon="4.89055">
        <ele>288</ele>
        <time>2016-08-25T09:18:55Z</time>
      </trkpt>
      <trkpt lat="45.99575" lon="4.89061">
        <ele>289</ele>
        <time>2016-08-25T09:18:56Z</time>
      </trkpt>
      <trkpt lat="45.99576" lon="4.89068">
        <ele>289</ele>
        <time>2016-08-25T09:18:57Z</time>
      </trkpt>
      <trkpt lat="45.99576" lon="4.89075">
        <ele>289</ele>
        <time>2016-08-25T09:18:58Z</time>
      </trkpt>
      <trkpt lat="45.99576" lon="4.89082">
        <ele>289</ele>
        <time>2016-08-25T09:18:59Z</time>
      </trkpt>
      <trkpt lat="45.99574" lon="4.89094">
        <ele>289</ele>
        <time>2016-08-25T09:19:01Z</time>
      </trkpt>
      <trkpt lat="45.99573" lon="4.89101">
        <ele>289</ele>
        <time>2016-08-25T09:19:02Z</time>
      </trkpt>
      <trkpt lat="45.99572" lon="4.89108">
        <ele>289</ele>
        <time>2016-08-25T09:19:03Z</time>
      </trkpt>
      <trkpt lat="45.99571" lon="4.89115">
        <ele>289</ele>
        <time>2016-08-25T09:19:04Z</time>
      </trkpt>
      <trkpt lat="45.99571" lon="4.89122">
        <ele>289</ele>
        <time>2016-08-25T09:19:05Z</time>
      </trkpt>
      <trkpt lat="45.99571" lon="4.89128">
        <ele>289</ele>
        <time>2016-08-25T09:19:06Z</time>
      </trkpt>
      <trkpt lat="45.99571" lon="4.89136">
        <ele>289</ele>
        <time>2016-08-25T09:19:07Z</time>
      </trkpt>
      <trkpt lat="45.99572" lon="4.89143">
        <ele>289</ele>
        <time>2016-08-25T09:19:08Z</time>
      </trkpt>
      <trkpt lat="45.99572" lon="4.8915">
        <ele>289</ele>
        <time>2016-08-25T09:19:09Z</time>
      </trkpt>
      <trkpt lat="45.99572" lon="4.89157">
        <ele>288</ele>
        <time>2016-08-25T09:19:10Z</time>
      </trkpt>
      <trkpt lat="45.99573" lon="4.89164">
        <ele>288</ele>
        <time>2016-08-25T09:19:11Z</time>
      </trkpt>
      <trkpt lat="45.99573" lon="4.89171">
        <ele>288</ele>
        <time>2016-08-25T09:19:12Z</time>
      </trkpt>
      <trkpt lat="45.99573" lon="4.89178">
        <ele>288</ele>
        <time>2016-08-25T09:19:13Z</time>
      </trkpt>
      <trkpt lat="45.99574" lon="4.89186">
        <ele>288</ele>
        <time>2016-08-25T09:19:14Z</time>
      </trkpt>
      <trkpt lat="45.99574" lon="4.89192">
        <ele>288</ele>
        <time>2016-08-25T09:19:15Z</time>
      </trkpt>
      <trkpt lat="45.99575" lon="4.89199">
        <ele>288</ele>
        <time>2016-08-25T09:19:16Z</time>
      </trkpt>
      <trkpt lat="45.99575" lon="4.89206">
        <ele>288</ele>
        <time>2016-08-25T09:19:17Z</time>
      </trkpt>
      <trkpt lat="45.99576" lon="4.89213">
        <ele>288</ele>
        <time>2016-08-25T09:19:18Z</time>
      </trkpt>
      <trkpt lat="45.99576" lon="4.89219">
        <ele>288</ele>
        <time>2016-08-25T09:19:19Z</time>
      </trkpt>
      <trkpt lat="45.99577" lon="4.89226">
        <ele>288</ele>
        <time>2016-08-25T09:19:20Z</time>
      </trkpt>
      <trkpt lat="45.99578" lon="4.89233">
        <ele>288</ele>
        <time>2016-08-25T09:19:21Z</time>
      </trkpt>
      <trkpt lat="45.9958" lon="4.89241">
        <ele>288</ele>
        <time>2016-08-25T09:19:22Z</time>
      </trkpt>
      <trkpt lat="45.9958" lon="4.89249">
        <ele>288</ele>
        <time>2016-08-25T09:19:23Z</time>
      </trkpt>
      <trkpt lat="45.99581" lon="4.89257">
        <ele>288</ele>
        <time>2016-08-25T09:19:24Z</time>
      </trkpt>
      <trkpt lat="45.99582" lon="4.89264">
        <ele>288</ele>
        <time>2016-08-25T09:19:25Z</time>
      </trkpt>
      <trkpt lat="45.99582" lon="4.89272">
        <ele>288</ele>
        <time>2016-08-25T09:19:26Z</time>
      </trkpt>
      <trkpt lat="45.99583" lon="4.89279">
        <ele>288</ele>
        <time>2016-08-25T09:19:27Z</time>
      </trkpt>
      <trkpt lat="45.99583" lon="4.89286">
        <ele>288</ele>
        <time>2016-08-25T09:19:28Z</time>
      </trkpt>
      <trkpt lat="45.99583" lon="4.89294">
        <ele>288</ele>
        <time>2016-08-25T09:19:29Z</time>
      </trkpt>
      <trkpt lat="45.99583" lon="4.89301">
        <ele>288</ele>
        <time>2016-08-25T09:19:30Z</time>
      </trkpt>
      <trkpt lat="45.99584" lon="4.89308">
        <ele>289</ele>
        <time>2016-08-25T09:19:31Z</time>
      </trkpt>
      <trkpt lat="45.99584" lon="4.89315">
        <ele>289</ele>
        <time>2016-08-25T09:19:32Z</time>
      </trkpt>
      <trkpt lat="45.99585" lon="4.89322">
        <ele>289</ele>
        <time>2016-08-25T09:19:33Z</time>
      </trkpt>
      <trkpt lat="45.99585" lon="4.89329">
        <ele>289</ele>
        <time>2016-08-25T09:19:34Z</time>
      </trkpt>
      <trkpt lat="45.99585" lon="4.89336">
        <ele>289</ele>
        <time>2016-08-25T09:19:35Z</time>
      </trkpt>
      <trkpt lat="45.99586" lon="4.89344">
        <ele>289</ele>
        <time>2016-08-25T09:19:36Z</time>
      </trkpt>
      <trkpt lat="45.99586" lon="4.89352">
        <ele>289</ele>
        <time>2016-08-25T09:19:37Z</time>
      </trkpt>
      <trkpt lat="45.99587" lon="4.8936">
        <ele>289</ele>
        <time>2016-08-25T09:19:38Z</time>
      </trkpt>
      <trkpt lat="45.99587" lon="4.89368">
        <ele>289</ele>
        <time>2016-08-25T09:19:39Z</time>
      </trkpt>
      <trkpt lat="45.99588" lon="4.89375">
        <ele>290</ele>
        <time>2016-08-25T09:19:40Z</time>
      </trkpt>
      <trkpt lat="45.99588" lon="4.89382">
        <ele>290</ele>
        <time>2016-08-25T09:19:41Z</time>
      </trkpt>
      <trkpt lat="45.99588" lon="4.89389">
        <ele>290</ele>
        <time>2016-08-25T09:19:42Z</time>
      </trkpt>
      <trkpt lat="45.99589" lon="4.89395">
        <ele>290</ele>
        <time>2016-08-25T09:19:43Z</time>
      </trkpt>
      <trkpt lat="45.99589" lon="4.89402">
        <ele>290</ele>
        <time>2016-08-25T09:19:44Z</time>
      </trkpt>
      <trkpt lat="45.99589" lon="4.89408">
        <ele>290</ele>
        <time>2016-08-25T09:19:45Z</time>
      </trkpt>
      <trkpt lat="45.9959" lon="4.89415">
        <ele>290</ele>
        <time>2016-08-25T09:19:46Z</time>
      </trkpt>
      <trkpt lat="45.9959" lon="4.89422">
        <ele>290</ele>
        <time>2016-08-25T09:19:47Z</time>
      </trkpt>
      <trkpt lat="45.99591" lon="4.89429">
        <ele>290</ele>
        <time>2016-08-25T09:19:48Z</time>
      </trkpt>
      <trkpt lat="45.99591" lon="4.89437">
        <ele>290</ele>
        <time>2016-08-25T09:19:49Z</time>
      </trkpt>
      <trkpt lat="45.99591" lon="4.89444">
        <ele>290</ele>
        <time>2016-08-25T09:19:50Z</time>
      </trkpt>
      <trkpt lat="45.99592" lon="4.89451">
        <ele>290</ele>
        <time>2016-08-25T09:19:51Z</time>
      </trkpt>
      <trkpt lat="45.99591" lon="4.89457">
        <ele>290</ele>
        <time>2016-08-25T09:19:52Z</time>
      </trkpt>
      <trkpt lat="45.99593" lon="4.8947">
        <ele>290</ele>
        <time>2016-08-25T09:19:54Z</time>
      </trkpt>
      <trkpt lat="45.99594" lon="4.89477">
        <ele>290</ele>
        <time>2016-08-25T09:19:55Z</time>
      </trkpt>
      <trkpt lat="45.99594" lon="4.89483">
        <ele>290</ele>
        <time>2016-08-25T09:19:56Z</time>
      </trkpt>
      <trkpt lat="45.99594" lon="4.8949">
        <ele>290</ele>
        <time>2016-08-25T09:19:57Z</time>
      </trkpt>
      <trkpt lat="45.99595" lon="4.89496">
        <ele>290</ele>
        <time>2016-08-25T09:19:58Z</time>
      </trkpt>
      <trkpt lat="45.99595" lon="4.89503">
        <ele>290</ele>
        <time>2016-08-25T09:19:59Z</time>
      </trkpt>
      <trkpt lat="45.99595" lon="4.8951">
        <ele>290</ele>
        <time>2016-08-25T09:20:00Z</time>
      </trkpt>
      <trkpt lat="45.99596" lon="4.89517">
        <ele>290</ele>
        <time>2016-08-25T09:20:01Z</time>
      </trkpt>
      <trkpt lat="45.99596" lon="4.89524">
        <ele>291</ele>
        <time>2016-08-25T09:20:02Z</time>
      </trkpt>
      <trkpt lat="45.99596" lon="4.89531">
        <ele>291</ele>
        <time>2016-08-25T09:20:03Z</time>
      </trkpt>
      <trkpt lat="45.99597" lon="4.89538">
        <ele>291</ele>
        <time>2016-08-25T09:20:04Z</time>
      </trkpt>
      <trkpt lat="45.99597" lon="4.89545">
        <ele>291</ele>
        <time>2016-08-25T09:20:05Z</time>
      </trkpt>
      <trkpt lat="45.99597" lon="4.89552">
        <ele>291</ele>
        <time>2016-08-25T09:20:06Z</time>
      </trkpt>
      <trkpt lat="45.99597" lon="4.89559">
        <ele>291</ele>
        <time>2016-08-25T09:20:07Z</time>
      </trkpt>
      <trkpt lat="45.99597" lon="4.89566">
        <ele>291</ele>
        <time>2016-08-25T09:20:08Z</time>
      </trkpt>
      <trkpt lat="45.99598" lon="4.89573">
        <ele>291</ele>
        <time>2016-08-25T09:20:09Z</time>
      </trkpt>
      <trkpt lat="45.99598" lon="4.8958">
        <ele>291</ele>
        <time>2016-08-25T09:20:10Z</time>
      </trkpt>
      <trkpt lat="45.99599" lon="4.89586">
        <ele>292</ele>
        <time>2016-08-25T09:20:11Z</time>
      </trkpt>
      <trkpt lat="45.99599" lon="4.89594">
        <ele>292</ele>
        <time>2016-08-25T09:20:12Z</time>
      </trkpt>
      <trkpt lat="45.99599" lon="4.89601">
        <ele>292</ele>
        <time>2016-08-25T09:20:13Z</time>
      </trkpt>
      <trkpt lat="45.996" lon="4.89609">
        <ele>292</ele>
        <time>2016-08-25T09:20:14Z</time>
      </trkpt>
      <trkpt lat="45.996" lon="4.89616">
        <ele>291</ele>
        <time>2016-08-25T09:20:15Z</time>
      </trkpt>
      <trkpt lat="45.996" lon="4.89623">
        <ele>291</ele>
        <time>2016-08-25T09:20:16Z</time>
      </trkpt>
      <trkpt lat="45.996" lon="4.8963">
        <ele>291</ele>
        <time>2016-08-25T09:20:17Z</time>
      </trkpt>
      <trkpt lat="45.996" lon="4.89642">
        <ele>291</ele>
        <time>2016-08-25T09:20:19Z</time>
      </trkpt>
      <trkpt lat="45.99601" lon="4.89648">
        <ele>292</ele>
        <time>2016-08-25T09:20:20Z</time>
      </trkpt>
      <trkpt lat="45.996" lon="4.89661">
        <ele>292</ele>
        <time>2016-08-25T09:20:22Z</time>
      </trkpt>
      <trkpt lat="45.996" lon="4.89667">
        <ele>292</ele>
        <time>2016-08-25T09:20:23Z</time>
      </trkpt>
      <trkpt lat="45.996" lon="4.89673">
        <ele>292</ele>
        <time>2016-08-25T09:20:24Z</time>
      </trkpt>
      <trkpt lat="45.99601" lon="4.8968">
        <ele>292</ele>
        <time>2016-08-25T09:20:25Z</time>
      </trkpt>
      <trkpt lat="45.99601" lon="4.89686">
        <ele>292</ele>
        <time>2016-08-25T09:20:26Z</time>
      </trkpt>
      <trkpt lat="45.99601" lon="4.89693">
        <ele>292</ele>
        <time>2016-08-25T09:20:27Z</time>
      </trkpt>
      <trkpt lat="45.99602" lon="4.89705">
        <ele>292</ele>
        <time>2016-08-25T09:20:29Z</time>
      </trkpt>
      <trkpt lat="45.99602" lon="4.89711">
        <ele>292</ele>
        <time>2016-08-25T09:20:30Z</time>
      </trkpt>
      <trkpt lat="45.99601" lon="4.89721">
        <ele>292</ele>
        <time>2016-08-25T09:20:32Z</time>
      </trkpt>
      <trkpt lat="45.99601" lon="4.89726">
        <ele>292</ele>
        <time>2016-08-25T09:20:33Z</time>
      </trkpt>
      <trkpt lat="45.996" lon="4.89735">
        <ele>292</ele>
        <time>2016-08-25T09:20:35Z</time>
      </trkpt>
      <trkpt lat="45.99599" lon="4.8974">
        <ele>292</ele>
        <time>2016-08-25T09:20:36Z</time>
      </trkpt>
      <trkpt lat="45.99599" lon="4.8975">
        <ele>292</ele>
        <time>2016-08-25T09:20:38Z</time>
      </trkpt>
      <trkpt lat="45.996" lon="4.89756">
        <ele>292</ele>
        <time>2016-08-25T09:20:39Z</time>
      </trkpt>
      <trkpt lat="45.996" lon="4.89769">
        <ele>292</ele>
        <time>2016-08-25T09:20:41Z</time>
      </trkpt>
      <trkpt lat="45.996" lon="4.89777">
        <ele>292</ele>
        <time>2016-08-25T09:20:42Z</time>
      </trkpt>
      <trkpt lat="45.996" lon="4.89784">
        <ele>292</ele>
        <time>2016-08-25T09:20:43Z</time>
      </trkpt>
      <trkpt lat="45.99601" lon="4.89792">
        <ele>292</ele>
        <time>2016-08-25T09:20:44Z</time>
      </trkpt>
      <trkpt lat="45.99601" lon="4.898">
        <ele>292</ele>
        <time>2016-08-25T09:20:45Z</time>
      </trkpt>
      <trkpt lat="45.99601" lon="4.89807">
        <ele>292</ele>
        <time>2016-08-25T09:20:46Z</time>
      </trkpt>
      <trkpt lat="45.99601" lon="4.89818">
        <ele>292</ele>
        <time>2016-08-25T09:20:48Z</time>
      </trkpt>
      <trkpt lat="45.996" lon="4.89823">
        <ele>292</ele>
        <time>2016-08-25T09:20:49Z</time>
      </trkpt>
      <trkpt lat="45.99601" lon="4.89829">
        <ele>293</ele>
        <time>2016-08-25T09:20:50Z</time>
      </trkpt>
      <trkpt lat="45.99602" lon="4.89836">
        <ele>293</ele>
        <time>2016-08-25T09:20:51Z</time>
      </trkpt>
      <trkpt lat="45.99602" lon="4.89844">
        <ele>293</ele>
        <time>2016-08-25T09:20:52Z</time>
      </trkpt>
      <trkpt lat="45.99602" lon="4.89851">
        <ele>293</ele>
        <time>2016-08-25T09:20:53Z</time>
      </trkpt>
      <trkpt lat="45.99602" lon="4.89861">
        <ele>293</ele>
        <time>2016-08-25T09:20:54Z</time>
      </trkpt>
      <trkpt lat="45.996" lon="4.89871">
        <ele>293</ele>
        <time>2016-08-25T09:20:55Z</time>
      </trkpt>
      <trkpt lat="45.996" lon="4.8988">
        <ele>292</ele>
        <time>2016-08-25T09:20:56Z</time>
      </trkpt>
      <trkpt lat="45.99599" lon="4.89888">
        <ele>292</ele>
        <time>2016-08-25T09:20:57Z</time>
      </trkpt>
      <trkpt lat="45.99599" lon="4.89896">
        <ele>292</ele>
        <time>2016-08-25T09:20:58Z</time>
      </trkpt>
      <trkpt lat="45.99599" lon="4.89903">
        <ele>292</ele>
        <time>2016-08-25T09:20:59Z</time>
      </trkpt>
      <trkpt lat="45.99599" lon="4.89915">
        <ele>292</ele>
        <time>2016-08-25T09:21:01Z</time>
      </trkpt>
      <trkpt lat="45.99599" lon="4.89921">
        <ele>293</ele>
        <time>2016-08-25T09:21:02Z</time>
      </trkpt>
      <trkpt lat="45.996" lon="4.89928">
        <ele>293</ele>
        <time>2016-08-25T09:21:03Z</time>
      </trkpt>
      <trkpt lat="45.99601" lon="4.89935">
        <ele>293</ele>
        <time>2016-08-25T09:21:04Z</time>
      </trkpt>
      <trkpt lat="45.99601" lon="4.89942">
        <ele>293</ele>
        <time>2016-08-25T09:21:05Z</time>
      </trkpt>
      <trkpt lat="45.99601" lon="4.89949">
        <ele>294</ele>
        <time>2016-08-25T09:21:06Z</time>
      </trkpt>
      <trkpt lat="45.99601" lon="4.89957">
        <ele>294</ele>
        <time>2016-08-25T09:21:07Z</time>
      </trkpt>
      <trkpt lat="45.99602" lon="4.89964">
        <ele>294</ele>
        <time>2016-08-25T09:21:08Z</time>
      </trkpt>
      <trkpt lat="45.99603" lon="4.89972">
        <ele>294</ele>
        <time>2016-08-25T09:21:09Z</time>
      </trkpt>
      <trkpt lat="45.99604" lon="4.89978">
        <ele>294</ele>
        <time>2016-08-25T09:21:10Z</time>
      </trkpt>
      <trkpt lat="45.99606" lon="4.8999">
        <ele>294</ele>
        <time>2016-08-25T09:21:12Z</time>
      </trkpt>
      <trkpt lat="45.99607" lon="4.89995">
        <ele>294</ele>
        <time>2016-08-25T09:21:13Z</time>
      </trkpt>
      <trkpt lat="45.99609" lon="4.90005">
        <ele>296</ele>
        <time>2016-08-25T09:21:15Z</time>
      </trkpt>
      <trkpt lat="45.9961" lon="4.9001">
        <ele>296</ele>
        <time>2016-08-25T09:21:16Z</time>
      </trkpt>
      <trkpt lat="45.99613" lon="4.90022">
        <ele>296</ele>
        <time>2016-08-25T09:21:18Z</time>
      </trkpt>
      <trkpt lat="45.99615" lon="4.90027">
        <ele>296</ele>
        <time>2016-08-25T09:21:19Z</time>
      </trkpt>
      <trkpt lat="45.99619" lon="4.90037">
        <ele>296</ele>
        <time>2016-08-25T09:21:21Z</time>
      </trkpt>
      <trkpt lat="45.9962" lon="4.90042">
        <ele>296</ele>
        <time>2016-08-25T09:21:22Z</time>
      </trkpt>
      <trkpt lat="45.99624" lon="4.90051">
        <ele>297</ele>
        <time>2016-08-25T09:21:24Z</time>
      </trkpt>
      <trkpt lat="45.99625" lon="4.90057">
        <ele>297</ele>
        <time>2016-08-25T09:21:25Z</time>
      </trkpt>
      <trkpt lat="45.99626" lon="4.90068">
        <ele>297</ele>
        <time>2016-08-25T09:21:27Z</time>
      </trkpt>
      <trkpt lat="45.99628" lon="4.90074">
        <ele>297</ele>
        <time>2016-08-25T09:21:28Z</time>
      </trkpt>
      <trkpt lat="45.99632" lon="4.90083">
        <ele>297</ele>
        <time>2016-08-25T09:21:30Z</time>
      </trkpt>
      <trkpt lat="45.99633" lon="4.90087">
        <ele>299</ele>
        <time>2016-08-25T09:21:31Z</time>
      </trkpt>
      <trkpt lat="45.99635" lon="4.90097">
        <ele>299</ele>
        <time>2016-08-25T09:21:33Z</time>
      </trkpt>
      <trkpt lat="45.99636" lon="4.90103">
        <ele>299</ele>
        <time>2016-08-25T09:21:34Z</time>
      </trkpt>
      <trkpt lat="45.99639" lon="4.90113">
        <ele>299</ele>
        <time>2016-08-25T09:21:36Z</time>
      </trkpt>
      <trkpt lat="45.99641" lon="4.90119">
        <ele>299</ele>
        <time>2016-08-25T09:21:37Z</time>
      </trkpt>
      <trkpt lat="45.99643" lon="4.9013">
        <ele>299</ele>
        <time>2016-08-25T09:21:39Z</time>
      </trkpt>
      <trkpt lat="45.99645" lon="4.90135">
        <ele>299</ele>
        <time>2016-08-25T09:21:40Z</time>
      </trkpt>
      <trkpt lat="45.99648" lon="4.90144">
        <ele>300</ele>
        <time>2016-08-25T09:21:42Z</time>
      </trkpt>
      <trkpt lat="45.99649" lon="4.90149">
        <ele>300</ele>
        <time>2016-08-25T09:21:43Z</time>
      </trkpt>
      <trkpt lat="45.99652" lon="4.9016">
        <ele>300</ele>
        <time>2016-08-25T09:21:45Z</time>
      </trkpt>
      <trkpt lat="45.99654" lon="4.90165">
        <ele>300</ele>
        <time>2016-08-25T09:21:46Z</time>
      </trkpt>
      <trkpt lat="45.99657" lon="4.90175">
        <ele>301</ele>
        <time>2016-08-25T09:21:48Z</time>
      </trkpt>
      <trkpt lat="45.99659" lon="4.90179">
        <ele>301</ele>
        <time>2016-08-25T09:21:49Z</time>
      </trkpt>
      <trkpt lat="45.99663" lon="4.90188">
        <ele>301</ele>
        <time>2016-08-25T09:21:51Z</time>
      </trkpt>
      <trkpt lat="45.99664" lon="4.90193">
        <ele>301</ele>
        <time>2016-08-25T09:21:52Z</time>
      </trkpt>
      <trkpt lat="45.99666" lon="4.90204">
        <ele>302</ele>
        <time>2016-08-25T09:21:54Z</time>
      </trkpt>
      <trkpt lat="45.99667" lon="4.90209">
        <ele>302</ele>
        <time>2016-08-25T09:21:55Z</time>
      </trkpt>
      <trkpt lat="45.99669" lon="4.90216">
        <ele>303</ele>
        <time>2016-08-25T09:21:56Z</time>
      </trkpt>
      <trkpt lat="45.9967" lon="4.90222">
        <ele>303</ele>
        <time>2016-08-25T09:21:57Z</time>
      </trkpt>
      <trkpt lat="45.99673" lon="4.90232">
        <ele>304</ele>
        <time>2016-08-25T09:21:59Z</time>
      </trkpt>
      <trkpt lat="45.99675" lon="4.90237">
        <ele>304</ele>
        <time>2016-08-25T09:22:00Z</time>
      </trkpt>
      <trkpt lat="45.99677" lon="4.90249">
        <ele>304</ele>
        <time>2016-08-25T09:22:02Z</time>
      </trkpt>
      <trkpt lat="45.99677" lon="4.90255">
        <ele>304</ele>
        <time>2016-08-25T09:22:03Z</time>
      </trkpt>
      <trkpt lat="45.99677" lon="4.90265">
        <ele>304</ele>
        <time>2016-08-25T09:22:05Z</time>
      </trkpt>
      <trkpt lat="45.99676" lon="4.9027">
        <ele>304</ele>
        <time>2016-08-25T09:22:06Z</time>
      </trkpt>
      <trkpt lat="45.99674" lon="4.9028">
        <ele>304</ele>
        <time>2016-08-25T09:22:08Z</time>
      </trkpt>
      <trkpt lat="45.99673" lon="4.90286">
        <ele>304</ele>
        <time>2016-08-25T09:22:09Z</time>
      </trkpt>
      <trkpt lat="45.9967" lon="4.90297">
        <ele>304</ele>
        <time>2016-08-25T09:22:11Z</time>
      </trkpt>
      <trkpt lat="45.99669" lon="4.90303">
        <ele>304</ele>
        <time>2016-08-25T09:22:12Z</time>
      </trkpt>
      <trkpt lat="45.99669" lon="4.90312">
        <ele>304</ele>
        <time>2016-08-25T09:22:14Z</time>
      </trkpt>
      <trkpt lat="45.99669" lon="4.90316">
        <ele>303</ele>
        <time>2016-08-25T09:22:15Z</time>
      </trkpt>
      <trkpt lat="45.9967" lon="4.90319">
        <ele>303</ele>
        <time>2016-08-25T09:22:16Z</time>
      </trkpt>
      <trkpt lat="45.9967" lon="4.9032">
        <ele>303</ele>
        <time>2016-08-25T09:22:17Z</time>
      </trkpt>
      <trkpt lat="45.99677" lon="4.90326">
        <ele>303</ele>
        <time>2016-08-25T09:22:27Z</time>
      </trkpt>
      <trkpt lat="45.9968" lon="4.90328">
        <ele>303</ele>
        <time>2016-08-25T09:22:28Z</time>
      </trkpt>
      <trkpt lat="45.9968" lon="4.90336">
        <ele>302</ele>
        <time>2016-08-25T09:22:30Z</time>
      </trkpt>
      <trkpt lat="45.9968" lon="4.90342">
        <ele>302</ele>
        <time>2016-08-25T09:22:31Z</time>
      </trkpt>
      <trkpt lat="45.99679" lon="4.9035">
        <ele>302</ele>
        <time>2016-08-25T09:22:32Z</time>
      </trkpt>
      <trkpt lat="45.9968" lon="4.90359">
        <ele>302</ele>
        <time>2016-08-25T09:22:33Z</time>
      </trkpt>
      <trkpt lat="45.99679" lon="4.90366">
        <ele>302</ele>
        <time>2016-08-25T09:22:34Z</time>
      </trkpt>
      <trkpt lat="45.99677" lon="4.90373">
        <ele>302</ele>
        <time>2016-08-25T09:22:35Z</time>
      </trkpt>
      <trkpt lat="45.99676" lon="4.90381">
        <ele>302</ele>
        <time>2016-08-25T09:22:36Z</time>
      </trkpt>
      <trkpt lat="45.99675" lon="4.9039">
        <ele>302</ele>
        <time>2016-08-25T09:22:37Z</time>
      </trkpt>
      <trkpt lat="45.99673" lon="4.90398">
        <ele>302</ele>
        <time>2016-08-25T09:22:38Z</time>
      </trkpt>
      <trkpt lat="45.99672" lon="4.90406">
        <ele>301</ele>
        <time>2016-08-25T09:22:39Z</time>
      </trkpt>
      <trkpt lat="45.9967" lon="4.90415">
        <ele>301</ele>
        <time>2016-08-25T09:22:40Z</time>
      </trkpt>
      <trkpt lat="45.99668" lon="4.90423">
        <ele>301</ele>
        <time>2016-08-25T09:22:41Z</time>
      </trkpt>
      <trkpt lat="45.99664" lon="4.90432">
        <ele>300</ele>
        <time>2016-08-25T09:22:43Z</time>
      </trkpt>
      <trkpt lat="45.9966" lon="4.90434">
        <ele>300</ele>
        <time>2016-08-25T09:22:44Z</time>
      </trkpt>
      <trkpt lat="45.99653" lon="4.90438">
        <ele>300</ele>
        <time>2016-08-25T09:22:46Z</time>
      </trkpt>
      <trkpt lat="45.99649" lon="4.9044">
        <ele>300</ele>
        <time>2016-08-25T09:22:47Z</time>
      </trkpt>
      <trkpt lat="45.9964" lon="4.90444">
        <ele>300</ele>
        <time>2016-08-25T09:22:49Z</time>
      </trkpt>
      <trkpt lat="45.99636" lon="4.90446">
        <ele>300</ele>
        <time>2016-08-25T09:22:50Z</time>
      </trkpt>
      <trkpt lat="45.99631" lon="4.90447">
        <ele>300</ele>
        <time>2016-08-25T09:22:51Z</time>
      </trkpt>
      <trkpt lat="45.99627" lon="4.90447">
        <ele>300</ele>
        <time>2016-08-25T09:22:52Z</time>
      </trkpt>
      <trkpt lat="45.99618" lon="4.90449">
        <ele>300</ele>
        <time>2016-08-25T09:22:54Z</time>
      </trkpt>
      <trkpt lat="45.99614" lon="4.9045">
        <ele>300</ele>
        <time>2016-08-25T09:22:55Z</time>
      </trkpt>
      <trkpt lat="45.99605" lon="4.9045">
        <ele>300</ele>
        <time>2016-08-25T09:22:57Z</time>
      </trkpt>
      <trkpt lat="45.99601" lon="4.9045">
        <ele>300</ele>
        <time>2016-08-25T09:22:58Z</time>
      </trkpt>
      <trkpt lat="45.99596" lon="4.90451">
        <ele>300</ele>
        <time>2016-08-25T09:22:59Z</time>
      </trkpt>
      <trkpt lat="45.99592" lon="4.90453">
        <ele>300</ele>
        <time>2016-08-25T09:23:00Z</time>
      </trkpt>
      <trkpt lat="45.99583" lon="4.90457">
        <ele>299</ele>
        <time>2016-08-25T09:23:02Z</time>
      </trkpt>
      <trkpt lat="45.99578" lon="4.9046">
        <ele>299</ele>
        <time>2016-08-25T09:23:03Z</time>
      </trkpt>
      <trkpt lat="45.99574" lon="4.90463">
        <ele>299</ele>
        <time>2016-08-25T09:23:04Z</time>
      </trkpt>
      <trkpt lat="45.9957" lon="4.90468">
        <ele>299</ele>
        <time>2016-08-25T09:23:05Z</time>
      </trkpt>
      <trkpt lat="45.99566" lon="4.90472">
        <ele>299</ele>
        <time>2016-08-25T09:23:06Z</time>
      </trkpt>
      <trkpt lat="45.99562" lon="4.90477">
        <ele>299</ele>
        <time>2016-08-25T09:23:07Z</time>
      </trkpt>
      <trkpt lat="45.99558" lon="4.90481">
        <ele>299</ele>
        <time>2016-08-25T09:23:08Z</time>
      </trkpt>
      <trkpt lat="45.99555" lon="4.90486">
        <ele>299</ele>
        <time>2016-08-25T09:23:09Z</time>
      </trkpt>
      <trkpt lat="45.99548" lon="4.90493">
        <ele>299</ele>
        <time>2016-08-25T09:23:11Z</time>
      </trkpt>
      <trkpt lat="45.99545" lon="4.90497">
        <ele>299</ele>
        <time>2016-08-25T09:23:12Z</time>
      </trkpt>
      <trkpt lat="45.99539" lon="4.90504">
        <ele>299</ele>
        <time>2016-08-25T09:23:14Z</time>
      </trkpt>
      <trkpt lat="45.99536" lon="4.90508">
        <ele>299</ele>
        <time>2016-08-25T09:23:15Z</time>
      </trkpt>
      <trkpt lat="45.99529" lon="4.90516">
        <ele>299</ele>
        <time>2016-08-25T09:23:17Z</time>
      </trkpt>
      <trkpt lat="45.99526" lon="4.9052">
        <ele>299</ele>
        <time>2016-08-25T09:23:18Z</time>
      </trkpt>
      <trkpt lat="45.99522" lon="4.90524">
        <ele>299</ele>
        <time>2016-08-25T09:23:19Z</time>
      </trkpt>
      <trkpt lat="45.99518" lon="4.90528">
        <ele>299</ele>
        <time>2016-08-25T09:23:20Z</time>
      </trkpt>
      <trkpt lat="45.99512" lon="4.90536">
        <ele>299</ele>
        <time>2016-08-25T09:23:22Z</time>
      </trkpt>
      <trkpt lat="45.99509" lon="4.90539">
        <ele>299</ele>
        <time>2016-08-25T09:23:23Z</time>
      </trkpt>
      <trkpt lat="45.99503" lon="4.90546">
        <ele>299</ele>
        <time>2016-08-25T09:23:25Z</time>
      </trkpt>
      <trkpt lat="45.995" lon="4.9055">
        <ele>299</ele>
        <time>2016-08-25T09:23:26Z</time>
      </trkpt>
      <trkpt lat="45.99495" lon="4.90556">
        <ele>299</ele>
        <time>2016-08-25T09:23:28Z</time>
      </trkpt>
      <trkpt lat="45.99492" lon="4.9056">
        <ele>299</ele>
        <time>2016-08-25T09:23:29Z</time>
      </trkpt>
      <trkpt lat="45.99487" lon="4.90566">
        <ele>299</ele>
        <time>2016-08-25T09:23:31Z</time>
      </trkpt>
      <trkpt lat="45.99484" lon="4.90569">
        <ele>299</ele>
        <time>2016-08-25T09:23:32Z</time>
      </trkpt>
      <trkpt lat="45.99479" lon="4.90575">
        <ele>299</ele>
        <time>2016-08-25T09:23:34Z</time>
      </trkpt>
      <trkpt lat="45.99477" lon="4.90579">
        <ele>299</ele>
        <time>2016-08-25T09:23:35Z</time>
      </trkpt>
      <trkpt lat="45.99472" lon="4.90587">
        <ele>298</ele>
        <time>2016-08-25T09:23:37Z</time>
      </trkpt>
      <trkpt lat="45.9947" lon="4.90591">
        <ele>298</ele>
        <time>2016-08-25T09:23:38Z</time>
      </trkpt>
      <trkpt lat="45.99463" lon="4.90597">
        <ele>298</ele>
        <time>2016-08-25T09:23:40Z</time>
      </trkpt>
      <trkpt lat="45.99459" lon="4.90601">
        <ele>298</ele>
        <time>2016-08-25T09:23:41Z</time>
      </trkpt>
      <trkpt lat="45.99453" lon="4.90608">
        <ele>298</ele>
        <time>2016-08-25T09:23:43Z</time>
      </trkpt>
      <trkpt lat="45.9945" lon="4.90612">
        <ele>298</ele>
        <time>2016-08-25T09:23:44Z</time>
      </trkpt>
      <trkpt lat="45.99443" lon="4.90621">
        <ele>298</ele>
        <time>2016-08-25T09:23:46Z</time>
      </trkpt>
      <trkpt lat="45.9944" lon="4.90625">
        <ele>298</ele>
        <time>2016-08-25T09:23:47Z</time>
      </trkpt>
      <trkpt lat="45.99436" lon="4.90629">
        <ele>298</ele>
        <time>2016-08-25T09:23:48Z</time>
      </trkpt>
      <trkpt lat="45.99433" lon="4.90633">
        <ele>298</ele>
        <time>2016-08-25T09:23:49Z</time>
      </trkpt>
      <trkpt lat="45.99428" lon="4.90637">
        <ele>298</ele>
        <time>2016-08-25T09:23:50Z</time>
      </trkpt>
      <trkpt lat="45.99424" lon="4.90641">
        <ele>298</ele>
        <time>2016-08-25T09:23:51Z</time>
      </trkpt>
      <trkpt lat="45.99421" lon="4.90646">
        <ele>298</ele>
        <time>2016-08-25T09:23:52Z</time>
      </trkpt>
      <trkpt lat="45.99417" lon="4.90651">
        <ele>298</ele>
        <time>2016-08-25T09:23:53Z</time>
      </trkpt>
      <trkpt lat="45.99413" lon="4.90655">
        <ele>298</ele>
        <time>2016-08-25T09:23:54Z</time>
      </trkpt>
      <trkpt lat="45.99409" lon="4.90659">
        <ele>298</ele>
        <time>2016-08-25T09:23:55Z</time>
      </trkpt>
      <trkpt lat="45.99406" lon="4.90663">
        <ele>298</ele>
        <time>2016-08-25T09:23:56Z</time>
      </trkpt>
      <trkpt lat="45.99403" lon="4.90667">
        <ele>298</ele>
        <time>2016-08-25T09:23:57Z</time>
      </trkpt>
      <trkpt lat="45.99399" lon="4.90672">
        <ele>298</ele>
        <time>2016-08-25T09:23:58Z</time>
      </trkpt>
      <trkpt lat="45.99395" lon="4.90677">
        <ele>298</ele>
        <time>2016-08-25T09:23:59Z</time>
      </trkpt>
      <trkpt lat="45.99391" lon="4.90682">
        <ele>298</ele>
        <time>2016-08-25T09:24:00Z</time>
      </trkpt>
      <trkpt lat="45.99387" lon="4.90686">
        <ele>298</ele>
        <time>2016-08-25T09:24:01Z</time>
      </trkpt>
      <trkpt lat="45.99383" lon="4.9069">
        <ele>298</ele>
        <time>2016-08-25T09:24:02Z</time>
      </trkpt>
      <trkpt lat="45.9938" lon="4.90695">
        <ele>298</ele>
        <time>2016-08-25T09:24:03Z</time>
      </trkpt>
      <trkpt lat="45.99376" lon="4.907">
        <ele>298</ele>
        <time>2016-08-25T09:24:04Z</time>
      </trkpt>
      <trkpt lat="45.99373" lon="4.90704">
        <ele>299</ele>
        <time>2016-08-25T09:24:05Z</time>
      </trkpt>
      <trkpt lat="45.99369" lon="4.90709">
        <ele>299</ele>
        <time>2016-08-25T09:24:06Z</time>
      </trkpt>
      <trkpt lat="45.99365" lon="4.90713">
        <ele>299</ele>
        <time>2016-08-25T09:24:07Z</time>
      </trkpt>
      <trkpt lat="45.99362" lon="4.90718">
        <ele>299</ele>
        <time>2016-08-25T09:24:08Z</time>
      </trkpt>
      <trkpt lat="45.99358" lon="4.90722">
        <ele>299</ele>
        <time>2016-08-25T09:24:09Z</time>
      </trkpt>
      <trkpt lat="45.99354" lon="4.90727">
        <ele>299</ele>
        <time>2016-08-25T09:24:10Z</time>
      </trkpt>
      <trkpt lat="45.99351" lon="4.90731">
        <ele>299</ele>
        <time>2016-08-25T09:24:11Z</time>
      </trkpt>
      <trkpt lat="45.99348" lon="4.90735">
        <ele>299</ele>
        <time>2016-08-25T09:24:12Z</time>
      </trkpt>
      <trkpt lat="45.99344" lon="4.9074">
        <ele>299</ele>
        <time>2016-08-25T09:24:13Z</time>
      </trkpt>
      <trkpt lat="45.9934" lon="4.90744">
        <ele>300</ele>
        <time>2016-08-25T09:24:14Z</time>
      </trkpt>
      <trkpt lat="45.99336" lon="4.90749">
        <ele>300</ele>
        <time>2016-08-25T09:24:15Z</time>
      </trkpt>
      <trkpt lat="45.99332" lon="4.90754">
        <ele>300</ele>
        <time>2016-08-25T09:24:16Z</time>
      </trkpt>
      <trkpt lat="45.99328" lon="4.90758">
        <ele>300</ele>
        <time>2016-08-25T09:24:17Z</time>
      </trkpt>
      <trkpt lat="45.99324" lon="4.90763">
        <ele>300</ele>
        <time>2016-08-25T09:24:18Z</time>
      </trkpt>
      <trkpt lat="45.9932" lon="4.90768">
        <ele>300</ele>
        <time>2016-08-25T09:24:19Z</time>
      </trkpt>
      <trkpt lat="45.99316" lon="4.90773">
        <ele>300</ele>
        <time>2016-08-25T09:24:20Z</time>
      </trkpt>
      <trkpt lat="45.99313" lon="4.90777">
        <ele>300</ele>
        <time>2016-08-25T09:24:21Z</time>
      </trkpt>
      <trkpt lat="45.99306" lon="4.90786">
        <ele>300</ele>
        <time>2016-08-25T09:24:23Z</time>
      </trkpt>
      <trkpt lat="45.99303" lon="4.90789">
        <ele>300</ele>
        <time>2016-08-25T09:24:24Z</time>
      </trkpt>
      <trkpt lat="45.99298" lon="4.90797">
        <ele>300</ele>
        <time>2016-08-25T09:24:26Z</time>
      </trkpt>
      <trkpt lat="45.99295" lon="4.90801">
        <ele>300</ele>
        <time>2016-08-25T09:24:27Z</time>
      </trkpt>
      <trkpt lat="45.99288" lon="4.90809">
        <ele>300</ele>
        <time>2016-08-25T09:24:29Z</time>
      </trkpt>
      <trkpt lat="45.99284" lon="4.90813">
        <ele>300</ele>
        <time>2016-08-25T09:24:30Z</time>
      </trkpt>
      <trkpt lat="45.9928" lon="4.90817">
        <ele>300</ele>
        <time>2016-08-25T09:24:31Z</time>
      </trkpt>
      <trkpt lat="45.99277" lon="4.90821">
        <ele>300</ele>
        <time>2016-08-25T09:24:32Z</time>
      </trkpt>
      <trkpt lat="45.99273" lon="4.90826">
        <ele>300</ele>
        <time>2016-08-25T09:24:33Z</time>
      </trkpt>
      <trkpt lat="45.9927" lon="4.9083">
        <ele>300</ele>
        <time>2016-08-25T09:24:34Z</time>
      </trkpt>
      <trkpt lat="45.99264" lon="4.90838">
        <ele>300</ele>
        <time>2016-08-25T09:24:36Z</time>
      </trkpt>
      <trkpt lat="45.9926" lon="4.90842">
        <ele>300</ele>
        <time>2016-08-25T09:24:37Z</time>
      </trkpt>
      <trkpt lat="45.99257" lon="4.90846">
        <ele>300</ele>
        <time>2016-08-25T09:24:38Z</time>
      </trkpt>
      <trkpt lat="45.99253" lon="4.9085">
        <ele>300</ele>
        <time>2016-08-25T09:24:39Z</time>
      </trkpt>
      <trkpt lat="45.99249" lon="4.90854">
        <ele>300</ele>
        <time>2016-08-25T09:24:40Z</time>
      </trkpt>
      <trkpt lat="45.99246" lon="4.90858">
        <ele>300</ele>
        <time>2016-08-25T09:24:41Z</time>
      </trkpt>
      <trkpt lat="45.99239" lon="4.90866">
        <ele>300</ele>
        <time>2016-08-25T09:24:43Z</time>
      </trkpt>
      <trkpt lat="45.99236" lon="4.90871">
        <ele>300</ele>
        <time>2016-08-25T09:24:44Z</time>
      </trkpt>
      <trkpt lat="45.99233" lon="4.90875">
        <ele>300</ele>
        <time>2016-08-25T09:24:45Z</time>
      </trkpt>
      <trkpt lat="45.99229" lon="4.90879">
        <ele>299</ele>
        <time>2016-08-25T09:24:46Z</time>
      </trkpt>
      <trkpt lat="45.99226" lon="4.90884">
        <ele>299</ele>
        <time>2016-08-25T09:24:47Z</time>
      </trkpt>
      <trkpt lat="45.99223" lon="4.90889">
        <ele>299</ele>
        <time>2016-08-25T09:24:48Z</time>
      </trkpt>
      <trkpt lat="45.99219" lon="4.90893">
        <ele>299</ele>
        <time>2016-08-25T09:24:49Z</time>
      </trkpt>
      <trkpt lat="45.99216" lon="4.90898">
        <ele>299</ele>
        <time>2016-08-25T09:24:50Z</time>
      </trkpt>
      <trkpt lat="45.99212" lon="4.90902">
        <ele>299</ele>
        <time>2016-08-25T09:24:51Z</time>
      </trkpt>
      <trkpt lat="45.99209" lon="4.90906">
        <ele>299</ele>
        <time>2016-08-25T09:24:52Z</time>
      </trkpt>
      <trkpt lat="45.99205" lon="4.9091">
        <ele>300</ele>
        <time>2016-08-25T09:24:53Z</time>
      </trkpt>
      <trkpt lat="45.99201" lon="4.90914">
        <ele>300</ele>
        <time>2016-08-25T09:24:54Z</time>
      </trkpt>
      <trkpt lat="45.99198" lon="4.90919">
        <ele>300</ele>
        <time>2016-08-25T09:24:55Z</time>
      </trkpt>
      <trkpt lat="45.99194" lon="4.90923">
        <ele>300</ele>
        <time>2016-08-25T09:24:56Z</time>
      </trkpt>
      <trkpt lat="45.99188" lon="4.90931">
        <ele>300</ele>
        <time>2016-08-25T09:24:58Z</time>
      </trkpt>
      <trkpt lat="45.99184" lon="4.90935">
        <ele>300</ele>
        <time>2016-08-25T09:24:59Z</time>
      </trkpt>
      <trkpt lat="45.99178" lon="4.90944">
        <ele>300</ele>
        <time>2016-08-25T09:25:01Z</time>
      </trkpt>
      <trkpt lat="45.99175" lon="4.90947">
        <ele>300</ele>
        <time>2016-08-25T09:25:02Z</time>
      </trkpt>
      <trkpt lat="45.99171" lon="4.90951">
        <ele>300</ele>
        <time>2016-08-25T09:25:03Z</time>
      </trkpt>
      <trkpt lat="45.99168" lon="4.90955">
        <ele>300</ele>
        <time>2016-08-25T09:25:04Z</time>
      </trkpt>
      <trkpt lat="45.99161" lon="4.90963">
        <ele>300</ele>
        <time>2016-08-25T09:25:06Z</time>
      </trkpt>
      <trkpt lat="45.99158" lon="4.90967">
        <ele>300</ele>
        <time>2016-08-25T09:25:07Z</time>
      </trkpt>
      <trkpt lat="45.99154" lon="4.90971">
        <ele>300</ele>
        <time>2016-08-25T09:25:08Z</time>
      </trkpt>
      <trkpt lat="45.99151" lon="4.90976">
        <ele>300</ele>
        <time>2016-08-25T09:25:09Z</time>
      </trkpt>
      <trkpt lat="45.99147" lon="4.90981">
        <ele>301</ele>
        <time>2016-08-25T09:25:10Z</time>
      </trkpt>
      <trkpt lat="45.99144" lon="4.90986">
        <ele>301</ele>
        <time>2016-08-25T09:25:11Z</time>
      </trkpt>
      <trkpt lat="45.9914" lon="4.9099">
        <ele>301</ele>
        <time>2016-08-25T09:25:12Z</time>
      </trkpt>
      <trkpt lat="45.99137" lon="4.90994">
        <ele>301</ele>
        <time>2016-08-25T09:25:13Z</time>
      </trkpt>
      <trkpt lat="45.99133" lon="4.90998">
        <ele>301</ele>
        <time>2016-08-25T09:25:14Z</time>
      </trkpt>
      <trkpt lat="45.99129" lon="4.91003">
        <ele>301</ele>
        <time>2016-08-25T09:25:15Z</time>
      </trkpt>
      <trkpt lat="45.99126" lon="4.91007">
        <ele>301</ele>
        <time>2016-08-25T09:25:16Z</time>
      </trkpt>
      <trkpt lat="45.99122" lon="4.91012">
        <ele>301</ele>
        <time>2016-08-25T09:25:17Z</time>
      </trkpt>
      <trkpt lat="45.99119" lon="4.91017">
        <ele>301</ele>
        <time>2016-08-25T09:25:18Z</time>
      </trkpt>
      <trkpt lat="45.99115" lon="4.91022">
        <ele>301</ele>
        <time>2016-08-25T09:25:19Z</time>
      </trkpt>
      <trkpt lat="45.99111" lon="4.91027">
        <ele>301</ele>
        <time>2016-08-25T09:25:20Z</time>
      </trkpt>
      <trkpt lat="45.99108" lon="4.91031">
        <ele>301</ele>
        <time>2016-08-25T09:25:21Z</time>
      </trkpt>
      <trkpt lat="45.99104" lon="4.91036">
        <ele>301</ele>
        <time>2016-08-25T09:25:22Z</time>
      </trkpt>
      <trkpt lat="45.99101" lon="4.9104">
        <ele>301</ele>
        <time>2016-08-25T09:25:23Z</time>
      </trkpt>
      <trkpt lat="45.99097" lon="4.91045">
        <ele>301</ele>
        <time>2016-08-25T09:25:24Z</time>
      </trkpt>
      <trkpt lat="45.99094" lon="4.9105">
        <ele>301</ele>
        <time>2016-08-25T09:25:25Z</time>
      </trkpt>
      <trkpt lat="45.99089" lon="4.91054">
        <ele>301</ele>
        <time>2016-08-25T09:25:26Z</time>
      </trkpt>
      <trkpt lat="45.99085" lon="4.91059">
        <ele>300</ele>
        <time>2016-08-25T09:25:27Z</time>
      </trkpt>
      <trkpt lat="45.99081" lon="4.91063">
        <ele>300</ele>
        <time>2016-08-25T09:25:28Z</time>
      </trkpt>
      <trkpt lat="45.99077" lon="4.91068">
        <ele>300</ele>
        <time>2016-08-25T09:25:29Z</time>
      </trkpt>
      <trkpt lat="45.99073" lon="4.91073">
        <ele>300</ele>
        <time>2016-08-25T09:25:30Z</time>
      </trkpt>
      <trkpt lat="45.99069" lon="4.91078">
        <ele>300</ele>
        <time>2016-08-25T09:25:31Z</time>
      </trkpt>
      <trkpt lat="45.99066" lon="4.91083">
        <ele>300</ele>
        <time>2016-08-25T09:25:32Z</time>
      </trkpt>
      <trkpt lat="45.99061" lon="4.91089">
        <ele>300</ele>
        <time>2016-08-25T09:25:33Z</time>
      </trkpt>
      <trkpt lat="45.99057" lon="4.91094">
        <ele>299</ele>
        <time>2016-08-25T09:25:34Z</time>
      </trkpt>
      <trkpt lat="45.99053" lon="4.91098">
        <ele>299</ele>
        <time>2016-08-25T09:25:35Z</time>
      </trkpt>
      <trkpt lat="45.99049" lon="4.91103">
        <ele>299</ele>
        <time>2016-08-25T09:25:36Z</time>
      </trkpt>
      <trkpt lat="45.99044" lon="4.91108">
        <ele>299</ele>
        <time>2016-08-25T09:25:37Z</time>
      </trkpt>
      <trkpt lat="45.9904" lon="4.91113">
        <ele>299</ele>
        <time>2016-08-25T09:25:38Z</time>
      </trkpt>
      <trkpt lat="45.99036" lon="4.91118">
        <ele>299</ele>
        <time>2016-08-25T09:25:39Z</time>
      </trkpt>
      <trkpt lat="45.99032" lon="4.91122">
        <ele>299</ele>
        <time>2016-08-25T09:25:40Z</time>
      </trkpt>
      <trkpt lat="45.99028" lon="4.91127">
        <ele>299</ele>
        <time>2016-08-25T09:25:41Z</time>
      </trkpt>
      <trkpt lat="45.99024" lon="4.91132">
        <ele>299</ele>
        <time>2016-08-25T09:25:42Z</time>
      </trkpt>
      <trkpt lat="45.9902" lon="4.91137">
        <ele>299</ele>
        <time>2016-08-25T09:25:43Z</time>
      </trkpt>
      <trkpt lat="45.99016" lon="4.91142">
        <ele>299</ele>
        <time>2016-08-25T09:25:44Z</time>
      </trkpt>
      <trkpt lat="45.99012" lon="4.91147">
        <ele>299</ele>
        <time>2016-08-25T09:25:45Z</time>
      </trkpt>
      <trkpt lat="45.99008" lon="4.91152">
        <ele>299</ele>
        <time>2016-08-25T09:25:46Z</time>
      </trkpt>
      <trkpt lat="45.99003" lon="4.91158">
        <ele>299</ele>
        <time>2016-08-25T09:25:47Z</time>
      </trkpt>
      <trkpt lat="45.98999" lon="4.91164">
        <ele>299</ele>
        <time>2016-08-25T09:25:48Z</time>
      </trkpt>
      <trkpt lat="45.98995" lon="4.91169">
        <ele>299</ele>
        <time>2016-08-25T09:25:49Z</time>
      </trkpt>
      <trkpt lat="45.98991" lon="4.91174">
        <ele>299</ele>
        <time>2016-08-25T09:25:50Z</time>
      </trkpt>
      <trkpt lat="45.98988" lon="4.91179">
        <ele>299</ele>
        <time>2016-08-25T09:25:51Z</time>
      </trkpt>
      <trkpt lat="45.98984" lon="4.91183">
        <ele>299</ele>
        <time>2016-08-25T09:25:52Z</time>
      </trkpt>
      <trkpt lat="45.9898" lon="4.91187">
        <ele>299</ele>
        <time>2016-08-25T09:25:53Z</time>
      </trkpt>
      <trkpt lat="45.98976" lon="4.91192">
        <ele>299</ele>
        <time>2016-08-25T09:25:54Z</time>
      </trkpt>
      <trkpt lat="45.98972" lon="4.91197">
        <ele>299</ele>
        <time>2016-08-25T09:25:55Z</time>
      </trkpt>
      <trkpt lat="45.98968" lon="4.91202">
        <ele>299</ele>
        <time>2016-08-25T09:25:56Z</time>
      </trkpt>
      <trkpt lat="45.98964" lon="4.91206">
        <ele>299</ele>
        <time>2016-08-25T09:25:57Z</time>
      </trkpt>
      <trkpt lat="45.9896" lon="4.91211">
        <ele>299</ele>
        <time>2016-08-25T09:25:58Z</time>
      </trkpt>
      <trkpt lat="45.98956" lon="4.91217">
        <ele>299</ele>
        <time>2016-08-25T09:25:59Z</time>
      </trkpt>
      <trkpt lat="45.98952" lon="4.91221">
        <ele>299</ele>
        <time>2016-08-25T09:26:00Z</time>
      </trkpt>
      <trkpt lat="45.98948" lon="4.91226">
        <ele>299</ele>
        <time>2016-08-25T09:26:01Z</time>
      </trkpt>
      <trkpt lat="45.98944" lon="4.91231">
        <ele>299</ele>
        <time>2016-08-25T09:26:02Z</time>
      </trkpt>
      <trkpt lat="45.9894" lon="4.91235">
        <ele>299</ele>
        <time>2016-08-25T09:26:03Z</time>
      </trkpt>
      <trkpt lat="45.98937" lon="4.91239">
        <ele>299</ele>
        <time>2016-08-25T09:26:04Z</time>
      </trkpt>
      <trkpt lat="45.98934" lon="4.91244">
        <ele>299</ele>
        <time>2016-08-25T09:26:05Z</time>
      </trkpt>
      <trkpt lat="45.9893" lon="4.91249">
        <ele>299</ele>
        <time>2016-08-25T09:26:06Z</time>
      </trkpt>
      <trkpt lat="45.98926" lon="4.91254">
        <ele>299</ele>
        <time>2016-08-25T09:26:07Z</time>
      </trkpt>
      <trkpt lat="45.98922" lon="4.91258">
        <ele>299</ele>
        <time>2016-08-25T09:26:08Z</time>
      </trkpt>
      <trkpt lat="45.98918" lon="4.91263">
        <ele>299</ele>
        <time>2016-08-25T09:26:09Z</time>
      </trkpt>
      <trkpt lat="45.98915" lon="4.91268">
        <ele>299</ele>
        <time>2016-08-25T09:26:10Z</time>
      </trkpt>
      <trkpt lat="45.98911" lon="4.91272">
        <ele>299</ele>
        <time>2016-08-25T09:26:11Z</time>
      </trkpt>
      <trkpt lat="45.98907" lon="4.91276">
        <ele>299</ele>
        <time>2016-08-25T09:26:12Z</time>
      </trkpt>
      <trkpt lat="45.98904" lon="4.91281">
        <ele>299</ele>
        <time>2016-08-25T09:26:13Z</time>
      </trkpt>
      <trkpt lat="45.989" lon="4.91286">
        <ele>299</ele>
        <time>2016-08-25T09:26:14Z</time>
      </trkpt>
      <trkpt lat="45.98897" lon="4.91291">
        <ele>299</ele>
        <time>2016-08-25T09:26:15Z</time>
      </trkpt>
      <trkpt lat="45.98893" lon="4.91295">
        <ele>299</ele>
        <time>2016-08-25T09:26:16Z</time>
      </trkpt>
      <trkpt lat="45.98889" lon="4.913">
        <ele>299</ele>
        <time>2016-08-25T09:26:17Z</time>
      </trkpt>
      <trkpt lat="45.98885" lon="4.91305">
        <ele>299</ele>
        <time>2016-08-25T09:26:18Z</time>
      </trkpt>
      <trkpt lat="45.98881" lon="4.91309">
        <ele>299</ele>
        <time>2016-08-25T09:26:19Z</time>
      </trkpt>
      <trkpt lat="45.98878" lon="4.91314">
        <ele>299</ele>
        <time>2016-08-25T09:26:20Z</time>
      </trkpt>
      <trkpt lat="45.98874" lon="4.91319">
        <ele>298</ele>
        <time>2016-08-25T09:26:21Z</time>
      </trkpt>
      <trkpt lat="45.9887" lon="4.91323">
        <ele>298</ele>
        <time>2016-08-25T09:26:22Z</time>
      </trkpt>
      <trkpt lat="45.98866" lon="4.91328">
        <ele>298</ele>
        <time>2016-08-25T09:26:23Z</time>
      </trkpt>
      <trkpt lat="45.98862" lon="4.91333">
        <ele>298</ele>
        <time>2016-08-25T09:26:24Z</time>
      </trkpt>
      <trkpt lat="45.98858" lon="4.91337">
        <ele>298</ele>
        <time>2016-08-25T09:26:25Z</time>
      </trkpt>
      <trkpt lat="45.98854" lon="4.91342">
        <ele>298</ele>
        <time>2016-08-25T09:26:26Z</time>
      </trkpt>
      <trkpt lat="45.9885" lon="4.91347">
        <ele>298</ele>
        <time>2016-08-25T09:26:27Z</time>
      </trkpt>
      <trkpt lat="45.98847" lon="4.91351">
        <ele>298</ele>
        <time>2016-08-25T09:26:28Z</time>
      </trkpt>
      <trkpt lat="45.98843" lon="4.91356">
        <ele>298</ele>
        <time>2016-08-25T09:26:29Z</time>
      </trkpt>
      <trkpt lat="45.98839" lon="4.9136">
        <ele>298</ele>
        <time>2016-08-25T09:26:30Z</time>
      </trkpt>
      <trkpt lat="45.98835" lon="4.91365">
        <ele>298</ele>
        <time>2016-08-25T09:26:31Z</time>
      </trkpt>
      <trkpt lat="45.98831" lon="4.9137">
        <ele>298</ele>
        <time>2016-08-25T09:26:32Z</time>
      </trkpt>
      <trkpt lat="45.98827" lon="4.91374">
        <ele>298</ele>
        <time>2016-08-25T09:26:33Z</time>
      </trkpt>
      <trkpt lat="45.98824" lon="4.91379">
        <ele>298</ele>
        <time>2016-08-25T09:26:34Z</time>
      </trkpt>
      <trkpt lat="45.9882" lon="4.91383">
        <ele>299</ele>
        <time>2016-08-25T09:26:35Z</time>
      </trkpt>
      <trkpt lat="45.98816" lon="4.91388">
        <ele>299</ele>
        <time>2016-08-25T09:26:36Z</time>
      </trkpt>
      <trkpt lat="45.98813" lon="4.91392">
        <ele>299</ele>
        <time>2016-08-25T09:26:37Z</time>
      </trkpt>
      <trkpt lat="45.98809" lon="4.91396">
        <ele>299</ele>
        <time>2016-08-25T09:26:38Z</time>
      </trkpt>
      <trkpt lat="45.98805" lon="4.914">
        <ele>299</ele>
        <time>2016-08-25T09:26:39Z</time>
      </trkpt>
      <trkpt lat="45.98802" lon="4.91404">
        <ele>299</ele>
        <time>2016-08-25T09:26:40Z</time>
      </trkpt>
      <trkpt lat="45.98799" lon="4.91409">
        <ele>299</ele>
        <time>2016-08-25T09:26:41Z</time>
      </trkpt>
      <trkpt lat="45.98795" lon="4.91413">
        <ele>299</ele>
        <time>2016-08-25T09:26:42Z</time>
      </trkpt>
      <trkpt lat="45.98791" lon="4.91418">
        <ele>298</ele>
        <time>2016-08-25T09:26:43Z</time>
      </trkpt>
      <trkpt lat="45.98786" lon="4.91423">
        <ele>298</ele>
        <time>2016-08-25T09:26:44Z</time>
      </trkpt>
      <trkpt lat="45.98782" lon="4.91429">
        <ele>298</ele>
        <time>2016-08-25T09:26:45Z</time>
      </trkpt>
      <trkpt lat="45.98777" lon="4.91434">
        <ele>298</ele>
        <time>2016-08-25T09:26:46Z</time>
      </trkpt>
      <trkpt lat="45.98773" lon="4.9144">
        <ele>298</ele>
        <time>2016-08-25T09:26:47Z</time>
      </trkpt>
      <trkpt lat="45.98768" lon="4.91445">
        <ele>298</ele>
        <time>2016-08-25T09:26:48Z</time>
      </trkpt>
      <trkpt lat="45.98764" lon="4.91451">
        <ele>298</ele>
        <time>2016-08-25T09:26:49Z</time>
      </trkpt>
      <trkpt lat="45.9876" lon="4.91457">
        <ele>298</ele>
        <time>2016-08-25T09:26:50Z</time>
      </trkpt>
      <trkpt lat="45.98755" lon="4.91462">
        <ele>298</ele>
        <time>2016-08-25T09:26:51Z</time>
      </trkpt>
      <trkpt lat="45.9875" lon="4.91467">
        <ele>298</ele>
        <time>2016-08-25T09:26:52Z</time>
      </trkpt>
      <trkpt lat="45.98746" lon="4.91472">
        <ele>299</ele>
        <time>2016-08-25T09:26:53Z</time>
      </trkpt>
      <trkpt lat="45.98742" lon="4.91477">
        <ele>299</ele>
        <time>2016-08-25T09:26:54Z</time>
      </trkpt>
      <trkpt lat="45.98738" lon="4.91482">
        <ele>299</ele>
        <time>2016-08-25T09:26:55Z</time>
      </trkpt>
      <trkpt lat="45.98735" lon="4.91487">
        <ele>299</ele>
        <time>2016-08-25T09:26:56Z</time>
      </trkpt>
      <trkpt lat="45.98731" lon="4.91492">
        <ele>299</ele>
        <time>2016-08-25T09:26:57Z</time>
      </trkpt>
      <trkpt lat="45.98727" lon="4.91497">
        <ele>299</ele>
        <time>2016-08-25T09:26:58Z</time>
      </trkpt>
      <trkpt lat="45.98723" lon="4.91502">
        <ele>299</ele>
        <time>2016-08-25T09:26:59Z</time>
      </trkpt>
      <trkpt lat="45.98719" lon="4.91507">
        <ele>299</ele>
        <time>2016-08-25T09:27:00Z</time>
      </trkpt>
      <trkpt lat="45.98715" lon="4.91512">
        <ele>299</ele>
        <time>2016-08-25T09:27:01Z</time>
      </trkpt>
      <trkpt lat="45.98711" lon="4.91517">
        <ele>299</ele>
        <time>2016-08-25T09:27:02Z</time>
      </trkpt>
      <trkpt lat="45.98708" lon="4.91522">
        <ele>299</ele>
        <time>2016-08-25T09:27:03Z</time>
      </trkpt>
      <trkpt lat="45.98703" lon="4.91528">
        <ele>299</ele>
        <time>2016-08-25T09:27:04Z</time>
      </trkpt>
      <trkpt lat="45.98699" lon="4.91533">
        <ele>299</ele>
        <time>2016-08-25T09:27:05Z</time>
      </trkpt>
      <trkpt lat="45.98694" lon="4.91538">
        <ele>299</ele>
        <time>2016-08-25T09:27:06Z</time>
      </trkpt>
      <trkpt lat="45.9869" lon="4.91544">
        <ele>299</ele>
        <time>2016-08-25T09:27:07Z</time>
      </trkpt>
      <trkpt lat="45.98685" lon="4.91549">
        <ele>299</ele>
        <time>2016-08-25T09:27:08Z</time>
      </trkpt>
      <trkpt lat="45.9868" lon="4.91555">
        <ele>299</ele>
        <time>2016-08-25T09:27:09Z</time>
      </trkpt>
      <trkpt lat="45.98675" lon="4.9156">
        <ele>299</ele>
        <time>2016-08-25T09:27:10Z</time>
      </trkpt>
      <trkpt lat="45.98671" lon="4.91566">
        <ele>299</ele>
        <time>2016-08-25T09:27:11Z</time>
      </trkpt>
      <trkpt lat="45.98667" lon="4.91571">
        <ele>299</ele>
        <time>2016-08-25T09:27:12Z</time>
      </trkpt>
      <trkpt lat="45.98662" lon="4.91577">
        <ele>299</ele>
        <time>2016-08-25T09:27:13Z</time>
      </trkpt>
      <trkpt lat="45.98659" lon="4.91582">
        <ele>299</ele>
        <time>2016-08-25T09:27:14Z</time>
      </trkpt>
      <trkpt lat="45.98654" lon="4.91587">
        <ele>299</ele>
        <time>2016-08-25T09:27:15Z</time>
      </trkpt>
      <trkpt lat="45.98651" lon="4.91592">
        <ele>299</ele>
        <time>2016-08-25T09:27:16Z</time>
      </trkpt>
      <trkpt lat="45.98648" lon="4.91597">
        <ele>299</ele>
        <time>2016-08-25T09:27:17Z</time>
      </trkpt>
      <trkpt lat="45.98644" lon="4.91601">
        <ele>298</ele>
        <time>2016-08-25T09:27:18Z</time>
      </trkpt>
      <trkpt lat="45.98641" lon="4.91607">
        <ele>298</ele>
        <time>2016-08-25T09:27:19Z</time>
      </trkpt>
      <trkpt lat="45.98636" lon="4.91612">
        <ele>298</ele>
        <time>2016-08-25T09:27:20Z</time>
      </trkpt>
      <trkpt lat="45.98632" lon="4.91618">
        <ele>298</ele>
        <time>2016-08-25T09:27:21Z</time>
      </trkpt>
      <trkpt lat="45.98628" lon="4.91623">
        <ele>298</ele>
        <time>2016-08-25T09:27:22Z</time>
      </trkpt>
      <trkpt lat="45.98623" lon="4.91629">
        <ele>298</ele>
        <time>2016-08-25T09:27:23Z</time>
      </trkpt>
      <trkpt lat="45.98619" lon="4.91634">
        <ele>298</ele>
        <time>2016-08-25T09:27:24Z</time>
      </trkpt>
      <trkpt lat="45.98615" lon="4.9164">
        <ele>298</ele>
        <time>2016-08-25T09:27:25Z</time>
      </trkpt>
      <trkpt lat="45.98611" lon="4.91645">
        <ele>298</ele>
        <time>2016-08-25T09:27:26Z</time>
      </trkpt>
      <trkpt lat="45.98606" lon="4.9165">
        <ele>298</ele>
        <time>2016-08-25T09:27:27Z</time>
      </trkpt>
      <trkpt lat="45.98602" lon="4.91655">
        <ele>298</ele>
        <time>2016-08-25T09:27:28Z</time>
      </trkpt>
      <trkpt lat="45.98598" lon="4.91659">
        <ele>298</ele>
        <time>2016-08-25T09:27:29Z</time>
      </trkpt>
      <trkpt lat="45.98594" lon="4.91663">
        <ele>298</ele>
        <time>2016-08-25T09:27:30Z</time>
      </trkpt>
      <trkpt lat="45.9859" lon="4.91668">
        <ele>298</ele>
        <time>2016-08-25T09:27:31Z</time>
      </trkpt>
      <trkpt lat="45.98587" lon="4.91673">
        <ele>298</ele>
        <time>2016-08-25T09:27:32Z</time>
      </trkpt>
      <trkpt lat="45.98582" lon="4.91678">
        <ele>298</ele>
        <time>2016-08-25T09:27:33Z</time>
      </trkpt>
      <trkpt lat="45.98578" lon="4.91683">
        <ele>298</ele>
        <time>2016-08-25T09:27:34Z</time>
      </trkpt>
      <trkpt lat="45.98573" lon="4.91688">
        <ele>298</ele>
        <time>2016-08-25T09:27:35Z</time>
      </trkpt>
      <trkpt lat="45.98569" lon="4.91693">
        <ele>298</ele>
        <time>2016-08-25T09:27:36Z</time>
      </trkpt>
      <trkpt lat="45.98564" lon="4.91699">
        <ele>298</ele>
        <time>2016-08-25T09:27:37Z</time>
      </trkpt>
      <trkpt lat="45.98559" lon="4.91704">
        <ele>298</ele>
        <time>2016-08-25T09:27:38Z</time>
      </trkpt>
      <trkpt lat="45.98555" lon="4.9171">
        <ele>298</ele>
        <time>2016-08-25T09:27:39Z</time>
      </trkpt>
      <trkpt lat="45.98551" lon="4.91715">
        <ele>298</ele>
        <time>2016-08-25T09:27:40Z</time>
      </trkpt>
      <trkpt lat="45.98547" lon="4.9172">
        <ele>298</ele>
        <time>2016-08-25T09:27:41Z</time>
      </trkpt>
      <trkpt lat="45.98543" lon="4.91724">
        <ele>298</ele>
        <time>2016-08-25T09:27:42Z</time>
      </trkpt>
      <trkpt lat="45.98539" lon="4.91729">
        <ele>297</ele>
        <time>2016-08-25T09:27:43Z</time>
      </trkpt>
      <trkpt lat="45.98535" lon="4.91733">
        <ele>297</ele>
        <time>2016-08-25T09:27:44Z</time>
      </trkpt>
      <trkpt lat="45.98531" lon="4.91738">
        <ele>297</ele>
        <time>2016-08-25T09:27:45Z</time>
      </trkpt>
      <trkpt lat="45.98526" lon="4.91742">
        <ele>297</ele>
        <time>2016-08-25T09:27:46Z</time>
      </trkpt>
      <trkpt lat="45.98522" lon="4.91747">
        <ele>297</ele>
        <time>2016-08-25T09:27:47Z</time>
      </trkpt>
      <trkpt lat="45.98518" lon="4.91751">
        <ele>297</ele>
        <time>2016-08-25T09:27:48Z</time>
      </trkpt>
      <trkpt lat="45.98514" lon="4.91756">
        <ele>297</ele>
        <time>2016-08-25T09:27:49Z</time>
      </trkpt>
      <trkpt lat="45.9851" lon="4.91761">
        <ele>297</ele>
        <time>2016-08-25T09:27:50Z</time>
      </trkpt>
      <trkpt lat="45.98506" lon="4.91766">
        <ele>297</ele>
        <time>2016-08-25T09:27:51Z</time>
      </trkpt>
      <trkpt lat="45.98502" lon="4.9177">
        <ele>297</ele>
        <time>2016-08-25T09:27:52Z</time>
      </trkpt>
      <trkpt lat="45.98498" lon="4.91775">
        <ele>297</ele>
        <time>2016-08-25T09:27:53Z</time>
      </trkpt>
      <trkpt lat="45.98494" lon="4.9178">
        <ele>297</ele>
        <time>2016-08-25T09:27:54Z</time>
      </trkpt>
      <trkpt lat="45.9849" lon="4.91785">
        <ele>297</ele>
        <time>2016-08-25T09:27:55Z</time>
      </trkpt>
      <trkpt lat="45.98486" lon="4.9179">
        <ele>297</ele>
        <time>2016-08-25T09:27:56Z</time>
      </trkpt>
      <trkpt lat="45.98483" lon="4.91795">
        <ele>297</ele>
        <time>2016-08-25T09:27:57Z</time>
      </trkpt>
      <trkpt lat="45.98479" lon="4.91799">
        <ele>297</ele>
        <time>2016-08-25T09:27:58Z</time>
      </trkpt>
      <trkpt lat="45.98475" lon="4.91803">
        <ele>297</ele>
        <time>2016-08-25T09:27:59Z</time>
      </trkpt>
      <trkpt lat="45.98471" lon="4.91807">
        <ele>297</ele>
        <time>2016-08-25T09:28:00Z</time>
      </trkpt>
      <trkpt lat="45.98467" lon="4.91812">
        <ele>297</ele>
        <time>2016-08-25T09:28:01Z</time>
      </trkpt>
      <trkpt lat="45.98463" lon="4.91816">
        <ele>297</ele>
        <time>2016-08-25T09:28:02Z</time>
      </trkpt>
      <trkpt lat="45.9846" lon="4.9182">
        <ele>297</ele>
        <time>2016-08-25T09:28:03Z</time>
      </trkpt>
      <trkpt lat="45.98456" lon="4.91825">
        <ele>297</ele>
        <time>2016-08-25T09:28:04Z</time>
      </trkpt>
      <trkpt lat="45.98452" lon="4.91829">
        <ele>297</ele>
        <time>2016-08-25T09:28:05Z</time>
      </trkpt>
      <trkpt lat="45.98448" lon="4.91834">
        <ele>297</ele>
        <time>2016-08-25T09:28:06Z</time>
      </trkpt>
      <trkpt lat="45.98445" lon="4.91838">
        <ele>297</ele>
        <time>2016-08-25T09:28:07Z</time>
      </trkpt>
      <trkpt lat="45.98442" lon="4.91843">
        <ele>297</ele>
        <time>2016-08-25T09:28:08Z</time>
      </trkpt>
      <trkpt lat="45.98438" lon="4.91847">
        <ele>297</ele>
        <time>2016-08-25T09:28:09Z</time>
      </trkpt>
      <trkpt lat="45.98434" lon="4.91851">
        <ele>297</ele>
        <time>2016-08-25T09:28:10Z</time>
      </trkpt>
      <trkpt lat="45.98431" lon="4.91856">
        <ele>297</ele>
        <time>2016-08-25T09:28:11Z</time>
      </trkpt>
      <trkpt lat="45.98424" lon="4.91865">
        <ele>297</ele>
        <time>2016-08-25T09:28:13Z</time>
      </trkpt>
      <trkpt lat="45.98421" lon="4.91868">
        <ele>297</ele>
        <time>2016-08-25T09:28:14Z</time>
      </trkpt>
      <trkpt lat="45.98414" lon="4.91876">
        <ele>297</ele>
        <time>2016-08-25T09:28:16Z</time>
      </trkpt>
      <trkpt lat="45.9841" lon="4.91881">
        <ele>297</ele>
        <time>2016-08-25T09:28:17Z</time>
      </trkpt>
      <trkpt lat="45.98406" lon="4.91885">
        <ele>297</ele>
        <time>2016-08-25T09:28:18Z</time>
      </trkpt>
      <trkpt lat="45.98402" lon="4.91891">
        <ele>297</ele>
        <time>2016-08-25T09:28:19Z</time>
      </trkpt>
      <trkpt lat="45.98398" lon="4.91896">
        <ele>297</ele>
        <time>2016-08-25T09:28:20Z</time>
      </trkpt>
      <trkpt lat="45.98394" lon="4.91901">
        <ele>297</ele>
        <time>2016-08-25T09:28:21Z</time>
      </trkpt>
      <trkpt lat="45.98391" lon="4.91905">
        <ele>298</ele>
        <time>2016-08-25T09:28:22Z</time>
      </trkpt>
      <trkpt lat="45.98387" lon="4.91909">
        <ele>298</ele>
        <time>2016-08-25T09:28:23Z</time>
      </trkpt>
      <trkpt lat="45.98384" lon="4.91914">
        <ele>298</ele>
        <time>2016-08-25T09:28:24Z</time>
      </trkpt>
      <trkpt lat="45.9838" lon="4.91918">
        <ele>297</ele>
        <time>2016-08-25T09:28:25Z</time>
      </trkpt>
      <trkpt lat="45.98377" lon="4.91923">
        <ele>297</ele>
        <time>2016-08-25T09:28:26Z</time>
      </trkpt>
      <trkpt lat="45.98373" lon="4.91927">
        <ele>298</ele>
        <time>2016-08-25T09:28:27Z</time>
      </trkpt>
      <trkpt lat="45.98369" lon="4.91932">
        <ele>298</ele>
        <time>2016-08-25T09:28:28Z</time>
      </trkpt>
      <trkpt lat="45.98366" lon="4.91936">
        <ele>298</ele>
        <time>2016-08-25T09:28:29Z</time>
      </trkpt>
      <trkpt lat="45.98362" lon="4.91941">
        <ele>298</ele>
        <time>2016-08-25T09:28:30Z</time>
      </trkpt>
      <trkpt lat="45.98358" lon="4.91945">
        <ele>298</ele>
        <time>2016-08-25T09:28:31Z</time>
      </trkpt>
      <trkpt lat="45.98354" lon="4.9195">
        <ele>298</ele>
        <time>2016-08-25T09:28:32Z</time>
      </trkpt>
      <trkpt lat="45.98351" lon="4.91954">
        <ele>298</ele>
        <time>2016-08-25T09:28:33Z</time>
      </trkpt>
      <trkpt lat="45.98347" lon="4.91958">
        <ele>298</ele>
        <time>2016-08-25T09:28:34Z</time>
      </trkpt>
      <trkpt lat="45.98343" lon="4.91962">
        <ele>297</ele>
        <time>2016-08-25T09:28:35Z</time>
      </trkpt>
      <trkpt lat="45.98339" lon="4.91967">
        <ele>297</ele>
        <time>2016-08-25T09:28:36Z</time>
      </trkpt>
      <trkpt lat="45.98336" lon="4.91972">
        <ele>297</ele>
        <time>2016-08-25T09:28:37Z</time>
      </trkpt>
      <trkpt lat="45.98332" lon="4.91976">
        <ele>298</ele>
        <time>2016-08-25T09:28:38Z</time>
      </trkpt>
      <trkpt lat="45.98329" lon="4.91981">
        <ele>298</ele>
        <time>2016-08-25T09:28:39Z</time>
      </trkpt>
      <trkpt lat="45.98325" lon="4.91985">
        <ele>298</ele>
        <time>2016-08-25T09:28:40Z</time>
      </trkpt>
      <trkpt lat="45.98321" lon="4.91989">
        <ele>298</ele>
        <time>2016-08-25T09:28:41Z</time>
      </trkpt>
      <trkpt lat="45.98318" lon="4.91994">
        <ele>298</ele>
        <time>2016-08-25T09:28:42Z</time>
      </trkpt>
      <trkpt lat="45.98314" lon="4.91998">
        <ele>298</ele>
        <time>2016-08-25T09:28:43Z</time>
      </trkpt>
      <trkpt lat="45.9831" lon="4.92003">
        <ele>298</ele>
        <time>2016-08-25T09:28:44Z</time>
      </trkpt>
      <trkpt lat="45.98307" lon="4.92008">
        <ele>298</ele>
        <time>2016-08-25T09:28:45Z</time>
      </trkpt>
      <trkpt lat="45.983" lon="4.92016">
        <ele>298</ele>
        <time>2016-08-25T09:28:47Z</time>
      </trkpt>
      <trkpt lat="45.98297" lon="4.9202">
        <ele>298</ele>
        <time>2016-08-25T09:28:48Z</time>
      </trkpt>
      <trkpt lat="45.98293" lon="4.92024">
        <ele>298</ele>
        <time>2016-08-25T09:28:49Z</time>
      </trkpt>
      <trkpt lat="45.9829" lon="4.92029">
        <ele>298</ele>
        <time>2016-08-25T09:28:50Z</time>
      </trkpt>
      <trkpt lat="45.98286" lon="4.92033">
        <ele>298</ele>
        <time>2016-08-25T09:28:51Z</time>
      </trkpt>
      <trkpt lat="45.98282" lon="4.92038">
        <ele>298</ele>
        <time>2016-08-25T09:28:52Z</time>
      </trkpt>
      <trkpt lat="45.98278" lon="4.92043">
        <ele>298</ele>
        <time>2016-08-25T09:28:53Z</time>
      </trkpt>
      <trkpt lat="45.98274" lon="4.92047">
        <ele>298</ele>
        <time>2016-08-25T09:28:54Z</time>
      </trkpt>
      <trkpt lat="45.9827" lon="4.92052">
        <ele>298</ele>
        <time>2016-08-25T09:28:55Z</time>
      </trkpt>
      <trkpt lat="45.98265" lon="4.92056">
        <ele>298</ele>
        <time>2016-08-25T09:28:56Z</time>
      </trkpt>
      <trkpt lat="45.98261" lon="4.92061">
        <ele>298</ele>
        <time>2016-08-25T09:28:57Z</time>
      </trkpt>
      <trkpt lat="45.98258" lon="4.92065">
        <ele>298</ele>
        <time>2016-08-25T09:28:58Z</time>
      </trkpt>
      <trkpt lat="45.98251" lon="4.92072">
        <ele>299</ele>
        <time>2016-08-25T09:29:00Z</time>
      </trkpt>
      <trkpt lat="45.98247" lon="4.92076">
        <ele>299</ele>
        <time>2016-08-25T09:29:01Z</time>
      </trkpt>
      <trkpt lat="45.98244" lon="4.9208">
        <ele>299</ele>
        <time>2016-08-25T09:29:02Z</time>
      </trkpt>
      <trkpt lat="45.9824" lon="4.92085">
        <ele>299</ele>
        <time>2016-08-25T09:29:03Z</time>
      </trkpt>
      <trkpt lat="45.98236" lon="4.92089">
        <ele>299</ele>
        <time>2016-08-25T09:29:04Z</time>
      </trkpt>
      <trkpt lat="45.98232" lon="4.92094">
        <ele>299</ele>
        <time>2016-08-25T09:29:05Z</time>
      </trkpt>
      <trkpt lat="45.98227" lon="4.92099">
        <ele>299</ele>
        <time>2016-08-25T09:29:06Z</time>
      </trkpt>
      <trkpt lat="45.98224" lon="4.92104">
        <ele>299</ele>
        <time>2016-08-25T09:29:07Z</time>
      </trkpt>
      <trkpt lat="45.9822" lon="4.92108">
        <ele>299</ele>
        <time>2016-08-25T09:29:08Z</time>
      </trkpt>
      <trkpt lat="45.98217" lon="4.92112">
        <ele>299</ele>
        <time>2016-08-25T09:29:09Z</time>
      </trkpt>
      <trkpt lat="45.98212" lon="4.92123">
        <ele>299</ele>
        <time>2016-08-25T09:29:11Z</time>
      </trkpt>
      <trkpt lat="45.98209" lon="4.92127">
        <ele>299</ele>
        <time>2016-08-25T09:29:12Z</time>
      </trkpt>
      <trkpt lat="45.98202" lon="4.92135">
        <ele>299</ele>
        <time>2016-08-25T09:29:14Z</time>
      </trkpt>
      <trkpt lat="45.98199" lon="4.92139">
        <ele>299</ele>
        <time>2016-08-25T09:29:15Z</time>
      </trkpt>
      <trkpt lat="45.98195" lon="4.92143">
        <ele>299</ele>
        <time>2016-08-25T09:29:16Z</time>
      </trkpt>
      <trkpt lat="45.98192" lon="4.92147">
        <ele>299</ele>
        <time>2016-08-25T09:29:17Z</time>
      </trkpt>
      <trkpt lat="45.98188" lon="4.92152">
        <ele>299</ele>
        <time>2016-08-25T09:29:18Z</time>
      </trkpt>
      <trkpt lat="45.98184" lon="4.92156">
        <ele>299</ele>
        <time>2016-08-25T09:29:19Z</time>
      </trkpt>
      <trkpt lat="45.98181" lon="4.92161">
        <ele>299</ele>
        <time>2016-08-25T09:29:20Z</time>
      </trkpt>
      <trkpt lat="45.98178" lon="4.92165">
        <ele>299</ele>
        <time>2016-08-25T09:29:21Z</time>
      </trkpt>
      <trkpt lat="45.98174" lon="4.9217">
        <ele>299</ele>
        <time>2016-08-25T09:29:22Z</time>
      </trkpt>
      <trkpt lat="45.98171" lon="4.92174">
        <ele>299</ele>
        <time>2016-08-25T09:29:23Z</time>
      </trkpt>
      <trkpt lat="45.98167" lon="4.92178">
        <ele>299</ele>
        <time>2016-08-25T09:29:24Z</time>
      </trkpt>
      <trkpt lat="45.98164" lon="4.92182">
        <ele>299</ele>
        <time>2016-08-25T09:29:25Z</time>
      </trkpt>
      <trkpt lat="45.98157" lon="4.9219">
        <ele>299</ele>
        <time>2016-08-25T09:29:27Z</time>
      </trkpt>
      <trkpt lat="45.98153" lon="4.92195">
        <ele>299</ele>
        <time>2016-08-25T09:29:28Z</time>
      </trkpt>
      <trkpt lat="45.98149" lon="4.922">
        <ele>299</ele>
        <time>2016-08-25T09:29:29Z</time>
      </trkpt>
      <trkpt lat="45.98146" lon="4.92204">
        <ele>299</ele>
        <time>2016-08-25T09:29:30Z</time>
      </trkpt>
      <trkpt lat="45.98142" lon="4.92209">
        <ele>299</ele>
        <time>2016-08-25T09:29:31Z</time>
      </trkpt>
      <trkpt lat="45.98138" lon="4.92214">
        <ele>299</ele>
        <time>2016-08-25T09:29:32Z</time>
      </trkpt>
      <trkpt lat="45.98135" lon="4.92218">
        <ele>299</ele>
        <time>2016-08-25T09:29:33Z</time>
      </trkpt>
      <trkpt lat="45.98131" lon="4.92222">
        <ele>299</ele>
        <time>2016-08-25T09:29:34Z</time>
      </trkpt>
      <trkpt lat="45.98124" lon="4.9223">
        <ele>299</ele>
        <time>2016-08-25T09:29:36Z</time>
      </trkpt>
      <trkpt lat="45.98121" lon="4.92234">
        <ele>299</ele>
        <time>2016-08-25T09:29:37Z</time>
      </trkpt>
      <trkpt lat="45.98117" lon="4.92239">
        <ele>299</ele>
        <time>2016-08-25T09:29:38Z</time>
      </trkpt>
      <trkpt lat="45.98113" lon="4.92243">
        <ele>299</ele>
        <time>2016-08-25T09:29:39Z</time>
      </trkpt>
      <trkpt lat="45.9811" lon="4.92248">
        <ele>299</ele>
        <time>2016-08-25T09:29:40Z</time>
      </trkpt>
      <trkpt lat="45.98106" lon="4.92253">
        <ele>300</ele>
        <time>2016-08-25T09:29:41Z</time>
      </trkpt>
      <trkpt lat="45.98102" lon="4.92258">
        <ele>300</ele>
        <time>2016-08-25T09:29:42Z</time>
      </trkpt>
      <trkpt lat="45.98098" lon="4.92263">
        <ele>300</ele>
        <time>2016-08-25T09:29:43Z</time>
      </trkpt>
      <trkpt lat="45.98095" lon="4.92267">
        <ele>300</ele>
        <time>2016-08-25T09:29:44Z</time>
      </trkpt>
      <trkpt lat="45.98091" lon="4.92272">
        <ele>300</ele>
        <time>2016-08-25T09:29:45Z</time>
      </trkpt>
      <trkpt lat="45.98085" lon="4.92281">
        <ele>300</ele>
        <time>2016-08-25T09:29:47Z</time>
      </trkpt>
      <trkpt lat="45.98081" lon="4.92285">
        <ele>299</ele>
        <time>2016-08-25T09:29:48Z</time>
      </trkpt>
      <trkpt lat="45.98075" lon="4.92294">
        <ele>299</ele>
        <time>2016-08-25T09:29:50Z</time>
      </trkpt>
      <trkpt lat="45.98071" lon="4.92298">
        <ele>299</ele>
        <time>2016-08-25T09:29:51Z</time>
      </trkpt>
      <trkpt lat="45.98068" lon="4.92303">
        <ele>299</ele>
        <time>2016-08-25T09:29:52Z</time>
      </trkpt>
      <trkpt lat="45.98065" lon="4.92307">
        <ele>299</ele>
        <time>2016-08-25T09:29:53Z</time>
      </trkpt>
      <trkpt lat="45.98061" lon="4.92312">
        <ele>299</ele>
        <time>2016-08-25T09:29:54Z</time>
      </trkpt>
      <trkpt lat="45.98058" lon="4.92316">
        <ele>299</ele>
        <time>2016-08-25T09:29:55Z</time>
      </trkpt>
      <trkpt lat="45.98051" lon="4.92324">
        <ele>299</ele>
        <time>2016-08-25T09:29:57Z</time>
      </trkpt>
      <trkpt lat="45.98047" lon="4.92329">
        <ele>299</ele>
        <time>2016-08-25T09:29:58Z</time>
      </trkpt>
      <trkpt lat="45.98043" lon="4.92333">
        <ele>299</ele>
        <time>2016-08-25T09:29:59Z</time>
      </trkpt>
      <trkpt lat="45.98039" lon="4.92337">
        <ele>299</ele>
        <time>2016-08-25T09:30:00Z</time>
      </trkpt>
      <trkpt lat="45.98035" lon="4.92341">
        <ele>299</ele>
        <time>2016-08-25T09:30:01Z</time>
      </trkpt>
      <trkpt lat="45.98032" lon="4.92345">
        <ele>299</ele>
        <time>2016-08-25T09:30:02Z</time>
      </trkpt>
      <trkpt lat="45.98028" lon="4.92349">
        <ele>298</ele>
        <time>2016-08-25T09:30:03Z</time>
      </trkpt>
      <trkpt lat="45.98024" lon="4.92353">
        <ele>298</ele>
        <time>2016-08-25T09:30:04Z</time>
      </trkpt>
      <trkpt lat="45.98019" lon="4.92358">
        <ele>298</ele>
        <time>2016-08-25T09:30:05Z</time>
      </trkpt>
      <trkpt lat="45.98015" lon="4.92362">
        <ele>298</ele>
        <time>2016-08-25T09:30:06Z</time>
      </trkpt>
      <trkpt lat="45.98011" lon="4.92367">
        <ele>298</ele>
        <time>2016-08-25T09:30:07Z</time>
      </trkpt>
      <trkpt lat="45.98007" lon="4.92372">
        <ele>298</ele>
        <time>2016-08-25T09:30:08Z</time>
      </trkpt>
      <trkpt lat="45.98004" lon="4.92377">
        <ele>298</ele>
        <time>2016-08-25T09:30:09Z</time>
      </trkpt>
      <trkpt lat="45.98" lon="4.92381">
        <ele>298</ele>
        <time>2016-08-25T09:30:10Z</time>
      </trkpt>
      <trkpt lat="45.97996" lon="4.92386">
        <ele>298</ele>
        <time>2016-08-25T09:30:11Z</time>
      </trkpt>
      <trkpt lat="45.97993" lon="4.92391">
        <ele>298</ele>
        <time>2016-08-25T09:30:12Z</time>
      </trkpt>
      <trkpt lat="45.97989" lon="4.92395">
        <ele>298</ele>
        <time>2016-08-25T09:30:13Z</time>
      </trkpt>
      <trkpt lat="45.97986" lon="4.924">
        <ele>298</ele>
        <time>2016-08-25T09:30:14Z</time>
      </trkpt>
      <trkpt lat="45.97982" lon="4.92405">
        <ele>298</ele>
        <time>2016-08-25T09:30:15Z</time>
      </trkpt>
      <trkpt lat="45.97979" lon="4.92409">
        <ele>298</ele>
        <time>2016-08-25T09:30:16Z</time>
      </trkpt>
      <trkpt lat="45.97975" lon="4.92414">
        <ele>298</ele>
        <time>2016-08-25T09:30:17Z</time>
      </trkpt>
      <trkpt lat="45.97972" lon="4.92418">
        <ele>298</ele>
        <time>2016-08-25T09:30:18Z</time>
      </trkpt>
      <trkpt lat="45.97968" lon="4.92423">
        <ele>298</ele>
        <time>2016-08-25T09:30:19Z</time>
      </trkpt>
      <trkpt lat="45.97965" lon="4.92427">
        <ele>298</ele>
        <time>2016-08-25T09:30:20Z</time>
      </trkpt>
      <trkpt lat="45.97961" lon="4.92431">
        <ele>298</ele>
        <time>2016-08-25T09:30:21Z</time>
      </trkpt>
      <trkpt lat="45.97957" lon="4.92435">
        <ele>299</ele>
        <time>2016-08-25T09:30:22Z</time>
      </trkpt>
      <trkpt lat="45.97954" lon="4.92439">
        <ele>299</ele>
        <time>2016-08-25T09:30:23Z</time>
      </trkpt>
      <trkpt lat="45.9795" lon="4.92444">
        <ele>299</ele>
        <time>2016-08-25T09:30:24Z</time>
      </trkpt>
      <trkpt lat="45.97947" lon="4.92448">
        <ele>299</ele>
        <time>2016-08-25T09:30:25Z</time>
      </trkpt>
      <trkpt lat="45.97943" lon="4.92452">
        <ele>299</ele>
        <time>2016-08-25T09:30:26Z</time>
      </trkpt>
      <trkpt lat="45.9794" lon="4.92457">
        <ele>299</ele>
        <time>2016-08-25T09:30:27Z</time>
      </trkpt>
      <trkpt lat="45.97936" lon="4.92461">
        <ele>299</ele>
        <time>2016-08-25T09:30:28Z</time>
      </trkpt>
      <trkpt lat="45.97933" lon="4.92465">
        <ele>299</ele>
        <time>2016-08-25T09:30:29Z</time>
      </trkpt>
      <trkpt lat="45.97929" lon="4.9247">
        <ele>299</ele>
        <time>2016-08-25T09:30:30Z</time>
      </trkpt>
      <trkpt lat="45.97925" lon="4.92475">
        <ele>299</ele>
        <time>2016-08-25T09:30:31Z</time>
      </trkpt>
      <trkpt lat="45.97921" lon="4.9248">
        <ele>299</ele>
        <time>2016-08-25T09:30:32Z</time>
      </trkpt>
      <trkpt lat="45.97917" lon="4.92484">
        <ele>299</ele>
        <time>2016-08-25T09:30:33Z</time>
      </trkpt>
      <trkpt lat="45.97913" lon="4.92489">
        <ele>299</ele>
        <time>2016-08-25T09:30:34Z</time>
      </trkpt>
      <trkpt lat="45.97909" lon="4.92493">
        <ele>299</ele>
        <time>2016-08-25T09:30:35Z</time>
      </trkpt>
      <trkpt lat="45.97905" lon="4.92497">
        <ele>299</ele>
        <time>2016-08-25T09:30:36Z</time>
      </trkpt>
      <trkpt lat="45.97899" lon="4.92505">
        <ele>299</ele>
        <time>2016-08-25T09:30:38Z</time>
      </trkpt>
      <trkpt lat="45.97895" lon="4.92509">
        <ele>299</ele>
        <time>2016-08-25T09:30:39Z</time>
      </trkpt>
      <trkpt lat="45.97888" lon="4.92518">
        <ele>300</ele>
        <time>2016-08-25T09:30:41Z</time>
      </trkpt>
      <trkpt lat="45.97885" lon="4.92522">
        <ele>300</ele>
        <time>2016-08-25T09:30:42Z</time>
      </trkpt>
      <trkpt lat="45.97881" lon="4.92526">
        <ele>300</ele>
        <time>2016-08-25T09:30:43Z</time>
      </trkpt>
      <trkpt lat="45.97878" lon="4.9253">
        <ele>300</ele>
        <time>2016-08-25T09:30:44Z</time>
      </trkpt>
      <trkpt lat="45.97874" lon="4.92534">
        <ele>300</ele>
        <time>2016-08-25T09:30:45Z</time>
      </trkpt>
      <trkpt lat="45.97871" lon="4.92539">
        <ele>300</ele>
        <time>2016-08-25T09:30:46Z</time>
      </trkpt>
      <trkpt lat="45.97868" lon="4.92544">
        <ele>300</ele>
        <time>2016-08-25T09:30:47Z</time>
      </trkpt>
      <trkpt lat="45.97864" lon="4.92548">
        <ele>300</ele>
        <time>2016-08-25T09:30:48Z</time>
      </trkpt>
      <trkpt lat="45.9786" lon="4.92553">
        <ele>300</ele>
        <time>2016-08-25T09:30:49Z</time>
      </trkpt>
      <trkpt lat="45.97856" lon="4.92557">
        <ele>300</ele>
        <time>2016-08-25T09:30:50Z</time>
      </trkpt>
      <trkpt lat="45.97852" lon="4.92562">
        <ele>300</ele>
        <time>2016-08-25T09:30:51Z</time>
      </trkpt>
      <trkpt lat="45.97848" lon="4.92568">
        <ele>300</ele>
        <time>2016-08-25T09:30:52Z</time>
      </trkpt>
      <trkpt lat="45.97844" lon="4.92573">
        <ele>300</ele>
        <time>2016-08-25T09:30:53Z</time>
      </trkpt>
      <trkpt lat="45.9784" lon="4.92578">
        <ele>300</ele>
        <time>2016-08-25T09:30:54Z</time>
      </trkpt>
      <trkpt lat="45.97836" lon="4.92582">
        <ele>300</ele>
        <time>2016-08-25T09:30:55Z</time>
      </trkpt>
      <trkpt lat="45.97832" lon="4.92586">
        <ele>300</ele>
        <time>2016-08-25T09:30:56Z</time>
      </trkpt>
      <trkpt lat="45.97829" lon="4.9259">
        <ele>300</ele>
        <time>2016-08-25T09:30:57Z</time>
      </trkpt>
      <trkpt lat="45.97825" lon="4.92595">
        <ele>300</ele>
        <time>2016-08-25T09:30:58Z</time>
      </trkpt>
      <trkpt lat="45.97818" lon="4.92602">
        <ele>300</ele>
        <time>2016-08-25T09:31:00Z</time>
      </trkpt>
      <trkpt lat="45.97815" lon="4.92606">
        <ele>300</ele>
        <time>2016-08-25T09:31:01Z</time>
      </trkpt>
      <trkpt lat="45.97809" lon="4.92614">
        <ele>300</ele>
        <time>2016-08-25T09:31:03Z</time>
      </trkpt>
      <trkpt lat="45.97806" lon="4.92618">
        <ele>300</ele>
        <time>2016-08-25T09:31:04Z</time>
      </trkpt>
      <trkpt lat="45.978" lon="4.92626">
        <ele>301</ele>
        <time>2016-08-25T09:31:06Z</time>
      </trkpt>
      <trkpt lat="45.97796" lon="4.9263">
        <ele>301</ele>
        <time>2016-08-25T09:31:07Z</time>
      </trkpt>
      <trkpt lat="45.97792" lon="4.92635">
        <ele>301</ele>
        <time>2016-08-25T09:31:08Z</time>
      </trkpt>
      <trkpt lat="45.97789" lon="4.92639">
        <ele>300</ele>
        <time>2016-08-25T09:31:09Z</time>
      </trkpt>
      <trkpt lat="45.97785" lon="4.92643">
        <ele>300</ele>
        <time>2016-08-25T09:31:10Z</time>
      </trkpt>
      <trkpt lat="45.97781" lon="4.92648">
        <ele>300</ele>
        <time>2016-08-25T09:31:11Z</time>
      </trkpt>
      <trkpt lat="45.97777" lon="4.92652">
        <ele>300</ele>
        <time>2016-08-25T09:31:12Z</time>
      </trkpt>
      <trkpt lat="45.97774" lon="4.92657">
        <ele>300</ele>
        <time>2016-08-25T09:31:13Z</time>
      </trkpt>
      <trkpt lat="45.97771" lon="4.92663">
        <ele>300</ele>
        <time>2016-08-25T09:31:14Z</time>
      </trkpt>
      <trkpt lat="45.97767" lon="4.92668">
        <ele>300</ele>
        <time>2016-08-25T09:31:15Z</time>
      </trkpt>
      <trkpt lat="45.97763" lon="4.92673">
        <ele>300</ele>
        <time>2016-08-25T09:31:16Z</time>
      </trkpt>
      <trkpt lat="45.97759" lon="4.92678">
        <ele>300</ele>
        <time>2016-08-25T09:31:17Z</time>
      </trkpt>
      <trkpt lat="45.97755" lon="4.92683">
        <ele>300</ele>
        <time>2016-08-25T09:31:18Z</time>
      </trkpt>
      <trkpt lat="45.97751" lon="4.92688">
        <ele>300</ele>
        <time>2016-08-25T09:31:19Z</time>
      </trkpt>
      <trkpt lat="45.97747" lon="4.92693">
        <ele>301</ele>
        <time>2016-08-25T09:31:20Z</time>
      </trkpt>
      <trkpt lat="45.97743" lon="4.92698">
        <ele>301</ele>
        <time>2016-08-25T09:31:21Z</time>
      </trkpt>
      <trkpt lat="45.97738" lon="4.92703">
        <ele>301</ele>
        <time>2016-08-25T09:31:22Z</time>
      </trkpt>
      <trkpt lat="45.97734" lon="4.92708">
        <ele>301</ele>
        <time>2016-08-25T09:31:23Z</time>
      </trkpt>
      <trkpt lat="45.9773" lon="4.92713">
        <ele>301</ele>
        <time>2016-08-25T09:31:24Z</time>
      </trkpt>
      <trkpt lat="45.97726" lon="4.92718">
        <ele>301</ele>
        <time>2016-08-25T09:31:25Z</time>
      </trkpt>
      <trkpt lat="45.97722" lon="4.92722">
        <ele>301</ele>
        <time>2016-08-25T09:31:26Z</time>
      </trkpt>
      <trkpt lat="45.97718" lon="4.92727">
        <ele>301</ele>
        <time>2016-08-25T09:31:27Z</time>
      </trkpt>
      <trkpt lat="45.97714" lon="4.92731">
        <ele>301</ele>
        <time>2016-08-25T09:31:28Z</time>
      </trkpt>
      <trkpt lat="45.9771" lon="4.92736">
        <ele>301</ele>
        <time>2016-08-25T09:31:29Z</time>
      </trkpt>
      <trkpt lat="45.97705" lon="4.92741">
        <ele>302</ele>
        <time>2016-08-25T09:31:30Z</time>
      </trkpt>
      <trkpt lat="45.97701" lon="4.92747">
        <ele>302</ele>
        <time>2016-08-25T09:31:31Z</time>
      </trkpt>
      <trkpt lat="45.97697" lon="4.92752">
        <ele>301</ele>
        <time>2016-08-25T09:31:32Z</time>
      </trkpt>
      <trkpt lat="45.97692" lon="4.92758">
        <ele>301</ele>
        <time>2016-08-25T09:31:33Z</time>
      </trkpt>
      <trkpt lat="45.97688" lon="4.92763">
        <ele>301</ele>
        <time>2016-08-25T09:31:34Z</time>
      </trkpt>
      <trkpt lat="45.97684" lon="4.92769">
        <ele>301</ele>
        <time>2016-08-25T09:31:35Z</time>
      </trkpt>
      <trkpt lat="45.97679" lon="4.92774">
        <ele>301</ele>
        <time>2016-08-25T09:31:36Z</time>
      </trkpt>
      <trkpt lat="45.97675" lon="4.92779">
        <ele>301</ele>
        <time>2016-08-25T09:31:37Z</time>
      </trkpt>
      <trkpt lat="45.97671" lon="4.92784">
        <ele>301</ele>
        <time>2016-08-25T09:31:38Z</time>
      </trkpt>
      <trkpt lat="45.97667" lon="4.92789">
        <ele>301</ele>
        <time>2016-08-25T09:31:39Z</time>
      </trkpt>
      <trkpt lat="45.97664" lon="4.92793">
        <ele>301</ele>
        <time>2016-08-25T09:31:40Z</time>
      </trkpt>
      <trkpt lat="45.9766" lon="4.92798">
        <ele>301</ele>
        <time>2016-08-25T09:31:41Z</time>
      </trkpt>
      <trkpt lat="45.97656" lon="4.92802">
        <ele>300</ele>
        <time>2016-08-25T09:31:42Z</time>
      </trkpt>
      <trkpt lat="45.97652" lon="4.92806">
        <ele>300</ele>
        <time>2016-08-25T09:31:43Z</time>
      </trkpt>
      <trkpt lat="45.97649" lon="4.92811">
        <ele>300</ele>
        <time>2016-08-25T09:31:44Z</time>
      </trkpt>
      <trkpt lat="45.97645" lon="4.92815">
        <ele>300</ele>
        <time>2016-08-25T09:31:45Z</time>
      </trkpt>
      <trkpt lat="45.97641" lon="4.9282">
        <ele>300</ele>
        <time>2016-08-25T09:31:46Z</time>
      </trkpt>
      <trkpt lat="45.97637" lon="4.92824">
        <ele>300</ele>
        <time>2016-08-25T09:31:47Z</time>
      </trkpt>
      <trkpt lat="45.97633" lon="4.92829">
        <ele>300</ele>
        <time>2016-08-25T09:31:48Z</time>
      </trkpt>
      <trkpt lat="45.9763" lon="4.92834">
        <ele>298</ele>
        <time>2016-08-25T09:31:49Z</time>
      </trkpt>
      <trkpt lat="45.97626" lon="4.92839">
        <ele>298</ele>
        <time>2016-08-25T09:31:50Z</time>
      </trkpt>
      <trkpt lat="45.97622" lon="4.92843">
        <ele>298</ele>
        <time>2016-08-25T09:31:51Z</time>
      </trkpt>
      <trkpt lat="45.97618" lon="4.92848">
        <ele>298</ele>
        <time>2016-08-25T09:31:52Z</time>
      </trkpt>
      <trkpt lat="45.97614" lon="4.92852">
        <ele>298</ele>
        <time>2016-08-25T09:31:53Z</time>
      </trkpt>
      <trkpt lat="45.97611" lon="4.92856">
        <ele>298</ele>
        <time>2016-08-25T09:31:54Z</time>
      </trkpt>
      <trkpt lat="45.97607" lon="4.9286">
        <ele>298</ele>
        <time>2016-08-25T09:31:55Z</time>
      </trkpt>
      <trkpt lat="45.97603" lon="4.92864">
        <ele>298</ele>
        <time>2016-08-25T09:31:56Z</time>
      </trkpt>
      <trkpt lat="45.97599" lon="4.92869">
        <ele>298</ele>
        <time>2016-08-25T09:31:57Z</time>
      </trkpt>
      <trkpt lat="45.97596" lon="4.92874">
        <ele>298</ele>
        <time>2016-08-25T09:31:58Z</time>
      </trkpt>
      <trkpt lat="45.97591" lon="4.92878">
        <ele>298</ele>
        <time>2016-08-25T09:31:59Z</time>
      </trkpt>
      <trkpt lat="45.97587" lon="4.92883">
        <ele>298</ele>
        <time>2016-08-25T09:32:00Z</time>
      </trkpt>
      <trkpt lat="45.97583" lon="4.92888">
        <ele>298</ele>
        <time>2016-08-25T09:32:01Z</time>
      </trkpt>
      <trkpt lat="45.97579" lon="4.92893">
        <ele>298</ele>
        <time>2016-08-25T09:32:02Z</time>
      </trkpt>
      <trkpt lat="45.97575" lon="4.92898">
        <ele>298</ele>
        <time>2016-08-25T09:32:03Z</time>
      </trkpt>
      <trkpt lat="45.97572" lon="4.92903">
        <ele>298</ele>
        <time>2016-08-25T09:32:04Z</time>
      </trkpt>
      <trkpt lat="45.97568" lon="4.92908">
        <ele>298</ele>
        <time>2016-08-25T09:32:05Z</time>
      </trkpt>
      <trkpt lat="45.97565" lon="4.92912">
        <ele>298</ele>
        <time>2016-08-25T09:32:06Z</time>
      </trkpt>
      <trkpt lat="45.97561" lon="4.92917">
        <ele>298</ele>
        <time>2016-08-25T09:32:07Z</time>
      </trkpt>
      <trkpt lat="45.97558" lon="4.92921">
        <ele>298</ele>
        <time>2016-08-25T09:32:08Z</time>
      </trkpt>
      <trkpt lat="45.97554" lon="4.92926">
        <ele>298</ele>
        <time>2016-08-25T09:32:09Z</time>
      </trkpt>
      <trkpt lat="45.9755" lon="4.92931">
        <ele>299</ele>
        <time>2016-08-25T09:32:10Z</time>
      </trkpt>
      <trkpt lat="45.97546" lon="4.92936">
        <ele>299</ele>
        <time>2016-08-25T09:32:11Z</time>
      </trkpt>
      <trkpt lat="45.97542" lon="4.92941">
        <ele>299</ele>
        <time>2016-08-25T09:32:12Z</time>
      </trkpt>
      <trkpt lat="45.97539" lon="4.92946">
        <ele>299</ele>
        <time>2016-08-25T09:32:13Z</time>
      </trkpt>
      <trkpt lat="45.97535" lon="4.92951">
        <ele>299</ele>
        <time>2016-08-25T09:32:14Z</time>
      </trkpt>
      <trkpt lat="45.97531" lon="4.92956">
        <ele>299</ele>
        <time>2016-08-25T09:32:15Z</time>
      </trkpt>
      <trkpt lat="45.97526" lon="4.92959">
        <ele>299</ele>
        <time>2016-08-25T09:32:16Z</time>
      </trkpt>
      <trkpt lat="45.97523" lon="4.92963">
        <ele>299</ele>
        <time>2016-08-25T09:32:17Z</time>
      </trkpt>
      <trkpt lat="45.97517" lon="4.92972">
        <ele>299</ele>
        <time>2016-08-25T09:32:19Z</time>
      </trkpt>
      <trkpt lat="45.97513" lon="4.92976">
        <ele>299</ele>
        <time>2016-08-25T09:32:20Z</time>
      </trkpt>
      <trkpt lat="45.97509" lon="4.92981">
        <ele>299</ele>
        <time>2016-08-25T09:32:21Z</time>
      </trkpt>
      <trkpt lat="45.97505" lon="4.92986">
        <ele>299</ele>
        <time>2016-08-25T09:32:22Z</time>
      </trkpt>
      <trkpt lat="45.97501" lon="4.92991">
        <ele>299</ele>
        <time>2016-08-25T09:32:23Z</time>
      </trkpt>
      <trkpt lat="45.97497" lon="4.92996">
        <ele>299</ele>
        <time>2016-08-25T09:32:24Z</time>
      </trkpt>
      <trkpt lat="45.97493" lon="4.93001">
        <ele>299</ele>
        <time>2016-08-25T09:32:25Z</time>
      </trkpt>
      <trkpt lat="45.97489" lon="4.93007">
        <ele>299</ele>
        <time>2016-08-25T09:32:26Z</time>
      </trkpt>
      <trkpt lat="45.97485" lon="4.93012">
        <ele>299</ele>
        <time>2016-08-25T09:32:27Z</time>
      </trkpt>
      <trkpt lat="45.97481" lon="4.93017">
        <ele>299</ele>
        <time>2016-08-25T09:32:28Z</time>
      </trkpt>
      <trkpt lat="45.97477" lon="4.93022">
        <ele>299</ele>
        <time>2016-08-25T09:32:29Z</time>
      </trkpt>
      <trkpt lat="45.97474" lon="4.93026">
        <ele>299</ele>
        <time>2016-08-25T09:32:30Z</time>
      </trkpt>
      <trkpt lat="45.97467" lon="4.93034">
        <ele>299</ele>
        <time>2016-08-25T09:32:32Z</time>
      </trkpt>
      <trkpt lat="45.97463" lon="4.93039">
        <ele>299</ele>
        <time>2016-08-25T09:32:33Z</time>
      </trkpt>
      <trkpt lat="45.9746" lon="4.93043">
        <ele>299</ele>
        <time>2016-08-25T09:32:34Z</time>
      </trkpt>
      <trkpt lat="45.97456" lon="4.93047">
        <ele>299</ele>
        <time>2016-08-25T09:32:35Z</time>
      </trkpt>
      <trkpt lat="45.97452" lon="4.93052">
        <ele>299</ele>
        <time>2016-08-25T09:32:36Z</time>
      </trkpt>
      <trkpt lat="45.97449" lon="4.93056">
        <ele>299</ele>
        <time>2016-08-25T09:32:37Z</time>
      </trkpt>
      <trkpt lat="45.97444" lon="4.93061">
        <ele>299</ele>
        <time>2016-08-25T09:32:38Z</time>
      </trkpt>
      <trkpt lat="45.9744" lon="4.93065">
        <ele>299</ele>
        <time>2016-08-25T09:32:39Z</time>
      </trkpt>
      <trkpt lat="45.97436" lon="4.9307">
        <ele>299</ele>
        <time>2016-08-25T09:32:40Z</time>
      </trkpt>
      <trkpt lat="45.97432" lon="4.93075">
        <ele>299</ele>
        <time>2016-08-25T09:32:41Z</time>
      </trkpt>
      <trkpt lat="45.97428" lon="4.9308">
        <ele>299</ele>
        <time>2016-08-25T09:32:42Z</time>
      </trkpt>
      <trkpt lat="45.97423" lon="4.93085">
        <ele>299</ele>
        <time>2016-08-25T09:32:43Z</time>
      </trkpt>
      <trkpt lat="45.9742" lon="4.9309">
        <ele>299</ele>
        <time>2016-08-25T09:32:44Z</time>
      </trkpt>
      <trkpt lat="45.97416" lon="4.93094">
        <ele>299</ele>
        <time>2016-08-25T09:32:45Z</time>
      </trkpt>
      <trkpt lat="45.97412" lon="4.93098">
        <ele>299</ele>
        <time>2016-08-25T09:32:46Z</time>
      </trkpt>
      <trkpt lat="45.97408" lon="4.93103">
        <ele>300</ele>
        <time>2016-08-25T09:32:47Z</time>
      </trkpt>
      <trkpt lat="45.97404" lon="4.93107">
        <ele>300</ele>
        <time>2016-08-25T09:32:48Z</time>
      </trkpt>
      <trkpt lat="45.97401" lon="4.93111">
        <ele>300</ele>
        <time>2016-08-25T09:32:49Z</time>
      </trkpt>
      <trkpt lat="45.97395" lon="4.9312">
        <ele>300</ele>
        <time>2016-08-25T09:32:51Z</time>
      </trkpt>
      <trkpt lat="45.97392" lon="4.93125">
        <ele>300</ele>
        <time>2016-08-25T09:32:52Z</time>
      </trkpt>
      <trkpt lat="45.97386" lon="4.93133">
        <ele>300</ele>
        <time>2016-08-25T09:32:54Z</time>
      </trkpt>
      <trkpt lat="45.97382" lon="4.93137">
        <ele>300</ele>
        <time>2016-08-25T09:32:55Z</time>
      </trkpt>
      <trkpt lat="45.97379" lon="4.93141">
        <ele>300</ele>
        <time>2016-08-25T09:32:56Z</time>
      </trkpt>
      <trkpt lat="45.97375" lon="4.93146">
        <ele>300</ele>
        <time>2016-08-25T09:32:57Z</time>
      </trkpt>
      <trkpt lat="45.97369" lon="4.93155">
        <ele>300</ele>
        <time>2016-08-25T09:32:59Z</time>
      </trkpt>
      <trkpt lat="45.97366" lon="4.93159">
        <ele>300</ele>
        <time>2016-08-25T09:33:00Z</time>
      </trkpt>
      <trkpt lat="45.97359" lon="4.93167">
        <ele>300</ele>
        <time>2016-08-25T09:33:02Z</time>
      </trkpt>
      <trkpt lat="45.97355" lon="4.93171">
        <ele>301</ele>
        <time>2016-08-25T09:33:03Z</time>
      </trkpt>
      <trkpt lat="45.97352" lon="4.93176">
        <ele>301</ele>
        <time>2016-08-25T09:33:04Z</time>
      </trkpt>
      <trkpt lat="45.97349" lon="4.9318">
        <ele>301</ele>
        <time>2016-08-25T09:33:05Z</time>
      </trkpt>
      <trkpt lat="45.97346" lon="4.93185">
        <ele>301</ele>
        <time>2016-08-25T09:33:06Z</time>
      </trkpt>
      <trkpt lat="45.97342" lon="4.9319">
        <ele>301</ele>
        <time>2016-08-25T09:33:07Z</time>
      </trkpt>
      <trkpt lat="45.97338" lon="4.93194">
        <ele>301</ele>
        <time>2016-08-25T09:33:08Z</time>
      </trkpt>
      <trkpt lat="45.97334" lon="4.93199">
        <ele>301</ele>
        <time>2016-08-25T09:33:09Z</time>
      </trkpt>
      <trkpt lat="45.9733" lon="4.93203">
        <ele>301</ele>
        <time>2016-08-25T09:33:10Z</time>
      </trkpt>
      <trkpt lat="45.97326" lon="4.93208">
        <ele>301</ele>
        <time>2016-08-25T09:33:11Z</time>
      </trkpt>
      <trkpt lat="45.97322" lon="4.93212">
        <ele>302</ele>
        <time>2016-08-25T09:33:12Z</time>
      </trkpt>
      <trkpt lat="45.97318" lon="4.93216">
        <ele>302</ele>
        <time>2016-08-25T09:33:13Z</time>
      </trkpt>
      <trkpt lat="45.97312" lon="4.93224">
        <ele>302</ele>
        <time>2016-08-25T09:33:15Z</time>
      </trkpt>
      <trkpt lat="45.97308" lon="4.93227">
        <ele>302</ele>
        <time>2016-08-25T09:33:16Z</time>
      </trkpt>
      <trkpt lat="45.97302" lon="4.93236">
        <ele>302</ele>
        <time>2016-08-25T09:33:18Z</time>
      </trkpt>
      <trkpt lat="45.97299" lon="4.93241">
        <ele>302</ele>
        <time>2016-08-25T09:33:19Z</time>
      </trkpt>
      <trkpt lat="45.97295" lon="4.93245">
        <ele>301</ele>
        <time>2016-08-25T09:33:20Z</time>
      </trkpt>
      <trkpt lat="45.97291" lon="4.93249">
        <ele>301</ele>
        <time>2016-08-25T09:33:21Z</time>
      </trkpt>
      <trkpt lat="45.97287" lon="4.93254">
        <ele>302</ele>
        <time>2016-08-25T09:33:22Z</time>
      </trkpt>
      <trkpt lat="45.97284" lon="4.93259">
        <ele>302</ele>
        <time>2016-08-25T09:33:23Z</time>
      </trkpt>
      <trkpt lat="45.9728" lon="4.93264">
        <ele>302</ele>
        <time>2016-08-25T09:33:24Z</time>
      </trkpt>
      <trkpt lat="45.97277" lon="4.93268">
        <ele>302</ele>
        <time>2016-08-25T09:33:25Z</time>
      </trkpt>
      <trkpt lat="45.97273" lon="4.93271">
        <ele>302</ele>
        <time>2016-08-25T09:33:26Z</time>
      </trkpt>
      <trkpt lat="45.97269" lon="4.93275">
        <ele>302</ele>
        <time>2016-08-25T09:33:27Z</time>
      </trkpt>
      <trkpt lat="45.97262" lon="4.93283">
        <ele>302</ele>
        <time>2016-08-25T09:33:29Z</time>
      </trkpt>
      <trkpt lat="45.97259" lon="4.93287">
        <ele>302</ele>
        <time>2016-08-25T09:33:30Z</time>
      </trkpt>
      <trkpt lat="45.97255" lon="4.93292">
        <ele>302</ele>
        <time>2016-08-25T09:33:31Z</time>
      </trkpt>
      <trkpt lat="45.97252" lon="4.93297">
        <ele>302</ele>
        <time>2016-08-25T09:33:32Z</time>
      </trkpt>
      <trkpt lat="45.97248" lon="4.93301">
        <ele>300</ele>
        <time>2016-08-25T09:33:33Z</time>
      </trkpt>
      <trkpt lat="45.97244" lon="4.93306">
        <ele>300</ele>
        <time>2016-08-25T09:33:34Z</time>
      </trkpt>
      <trkpt lat="45.9724" lon="4.93311">
        <ele>301</ele>
        <time>2016-08-25T09:33:35Z</time>
      </trkpt>
      <trkpt lat="45.97236" lon="4.93316">
        <ele>301</ele>
        <time>2016-08-25T09:33:36Z</time>
      </trkpt>
      <trkpt lat="45.97232" lon="4.93321">
        <ele>301</ele>
        <time>2016-08-25T09:33:37Z</time>
      </trkpt>
      <trkpt lat="45.97228" lon="4.93326">
        <ele>301</ele>
        <time>2016-08-25T09:33:38Z</time>
      </trkpt>
      <trkpt lat="45.97225" lon="4.9333">
        <ele>300</ele>
        <time>2016-08-25T09:33:39Z</time>
      </trkpt>
      <trkpt lat="45.97222" lon="4.93335">
        <ele>301</ele>
        <time>2016-08-25T09:33:40Z</time>
      </trkpt>
      <trkpt lat="45.97218" lon="4.93339">
        <ele>301</ele>
        <time>2016-08-25T09:33:41Z</time>
      </trkpt>
      <trkpt lat="45.97215" lon="4.93343">
        <ele>301</ele>
        <time>2016-08-25T09:33:42Z</time>
      </trkpt>
      <trkpt lat="45.97211" lon="4.93348">
        <ele>301</ele>
        <time>2016-08-25T09:33:43Z</time>
      </trkpt>
      <trkpt lat="45.97207" lon="4.93353">
        <ele>301</ele>
        <time>2016-08-25T09:33:44Z</time>
      </trkpt>
      <trkpt lat="45.97203" lon="4.93358">
        <ele>301</ele>
        <time>2016-08-25T09:33:45Z</time>
      </trkpt>
      <trkpt lat="45.97199" lon="4.93363">
        <ele>301</ele>
        <time>2016-08-25T09:33:46Z</time>
      </trkpt>
      <trkpt lat="45.97196" lon="4.93368">
        <ele>301</ele>
        <time>2016-08-25T09:33:47Z</time>
      </trkpt>
      <trkpt lat="45.97192" lon="4.93373">
        <ele>301</ele>
        <time>2016-08-25T09:33:48Z</time>
      </trkpt>
      <trkpt lat="45.97189" lon="4.93377">
        <ele>301</ele>
        <time>2016-08-25T09:33:49Z</time>
      </trkpt>
      <trkpt lat="45.97185" lon="4.93381">
        <ele>301</ele>
        <time>2016-08-25T09:33:50Z</time>
      </trkpt>
      <trkpt lat="45.97181" lon="4.93385">
        <ele>301</ele>
        <time>2016-08-25T09:33:51Z</time>
      </trkpt>
      <trkpt lat="45.97178" lon="4.9339">
        <ele>301</ele>
        <time>2016-08-25T09:33:52Z</time>
      </trkpt>
      <trkpt lat="45.97172" lon="4.93398">
        <ele>302</ele>
        <time>2016-08-25T09:33:54Z</time>
      </trkpt>
      <trkpt lat="45.97169" lon="4.93402">
        <ele>302</ele>
        <time>2016-08-25T09:33:55Z</time>
      </trkpt>
      <trkpt lat="45.97166" lon="4.93407">
        <ele>301</ele>
        <time>2016-08-25T09:33:56Z</time>
      </trkpt>
      <trkpt lat="45.97162" lon="4.93412">
        <ele>302</ele>
        <time>2016-08-25T09:33:57Z</time>
      </trkpt>
      <trkpt lat="45.97158" lon="4.93416">
        <ele>301</ele>
        <time>2016-08-25T09:33:58Z</time>
      </trkpt>
      <trkpt lat="45.97154" lon="4.93421">
        <ele>302</ele>
        <time>2016-08-25T09:33:59Z</time>
      </trkpt>
      <trkpt lat="45.9715" lon="4.93426">
        <ele>302</ele>
        <time>2016-08-25T09:34:00Z</time>
      </trkpt>
      <trkpt lat="45.97146" lon="4.9343">
        <ele>302</ele>
        <time>2016-08-25T09:34:01Z</time>
      </trkpt>
      <trkpt lat="45.9714" lon="4.93438">
        <ele>301</ele>
        <time>2016-08-25T09:34:03Z</time>
      </trkpt>
      <trkpt lat="45.97136" lon="4.93442">
        <ele>301</ele>
        <time>2016-08-25T09:34:04Z</time>
      </trkpt>
      <trkpt lat="45.97133" lon="4.93446">
        <ele>301</ele>
        <time>2016-08-25T09:34:05Z</time>
      </trkpt>
      <trkpt lat="45.97129" lon="4.93451">
        <ele>301</ele>
        <time>2016-08-25T09:34:06Z</time>
      </trkpt>
      <trkpt lat="45.97125" lon="4.93455">
        <ele>301</ele>
        <time>2016-08-25T09:34:07Z</time>
      </trkpt>
      <trkpt lat="45.97122" lon="4.9346">
        <ele>301</ele>
        <time>2016-08-25T09:34:08Z</time>
      </trkpt>
      <trkpt lat="45.97118" lon="4.93464">
        <ele>301</ele>
        <time>2016-08-25T09:34:09Z</time>
      </trkpt>
      <trkpt lat="45.97114" lon="4.93468">
        <ele>301</ele>
        <time>2016-08-25T09:34:10Z</time>
      </trkpt>
      <trkpt lat="45.9711" lon="4.93473">
        <ele>301</ele>
        <time>2016-08-25T09:34:11Z</time>
      </trkpt>
      <trkpt lat="45.97106" lon="4.93478">
        <ele>301</ele>
        <time>2016-08-25T09:34:12Z</time>
      </trkpt>
      <trkpt lat="45.97102" lon="4.93482">
        <ele>301</ele>
        <time>2016-08-25T09:34:13Z</time>
      </trkpt>
      <trkpt lat="45.97099" lon="4.93487">
        <ele>301</ele>
        <time>2016-08-25T09:34:14Z</time>
      </trkpt>
      <trkpt lat="45.97095" lon="4.93492">
        <ele>301</ele>
        <time>2016-08-25T09:34:15Z</time>
      </trkpt>
      <trkpt lat="45.97091" lon="4.93497">
        <ele>300</ele>
        <time>2016-08-25T09:34:16Z</time>
      </trkpt>
      <trkpt lat="45.97087" lon="4.93502">
        <ele>300</ele>
        <time>2016-08-25T09:34:17Z</time>
      </trkpt>
      <trkpt lat="45.97083" lon="4.93507">
        <ele>300</ele>
        <time>2016-08-25T09:34:18Z</time>
      </trkpt>
      <trkpt lat="45.97079" lon="4.93513">
        <ele>300</ele>
        <time>2016-08-25T09:34:19Z</time>
      </trkpt>
      <trkpt lat="45.97074" lon="4.93518">
        <ele>299</ele>
        <time>2016-08-25T09:34:20Z</time>
      </trkpt>
      <trkpt lat="45.9707" lon="4.93523">
        <ele>299</ele>
        <time>2016-08-25T09:34:21Z</time>
      </trkpt>
      <trkpt lat="45.97066" lon="4.93528">
        <ele>299</ele>
        <time>2016-08-25T09:34:22Z</time>
      </trkpt>
      <trkpt lat="45.97061" lon="4.93533">
        <ele>299</ele>
        <time>2016-08-25T09:34:23Z</time>
      </trkpt>
      <trkpt lat="45.97057" lon="4.93538">
        <ele>299</ele>
        <time>2016-08-25T09:34:24Z</time>
      </trkpt>
      <trkpt lat="45.97052" lon="4.93543">
        <ele>299</ele>
        <time>2016-08-25T09:34:25Z</time>
      </trkpt>
      <trkpt lat="45.97048" lon="4.93548">
        <ele>299</ele>
        <time>2016-08-25T09:34:26Z</time>
      </trkpt>
      <trkpt lat="45.97044" lon="4.93554">
        <ele>299</ele>
        <time>2016-08-25T09:34:27Z</time>
      </trkpt>
      <trkpt lat="45.97039" lon="4.93559">
        <ele>299</ele>
        <time>2016-08-25T09:34:28Z</time>
      </trkpt>
      <trkpt lat="45.97035" lon="4.93565">
        <ele>299</ele>
        <time>2016-08-25T09:34:29Z</time>
      </trkpt>
      <trkpt lat="45.9703" lon="4.9357">
        <ele>299</ele>
        <time>2016-08-25T09:34:30Z</time>
      </trkpt>
      <trkpt lat="45.97025" lon="4.93576">
        <ele>299</ele>
        <time>2016-08-25T09:34:31Z</time>
      </trkpt>
      <trkpt lat="45.97021" lon="4.93581">
        <ele>299</ele>
        <time>2016-08-25T09:34:32Z</time>
      </trkpt>
      <trkpt lat="45.97017" lon="4.93587">
        <ele>299</ele>
        <time>2016-08-25T09:34:33Z</time>
      </trkpt>
      <trkpt lat="45.97012" lon="4.93592">
        <ele>299</ele>
        <time>2016-08-25T09:34:34Z</time>
      </trkpt>
      <trkpt lat="45.97008" lon="4.93597">
        <ele>299</ele>
        <time>2016-08-25T09:34:35Z</time>
      </trkpt>
      <trkpt lat="45.97004" lon="4.93601">
        <ele>300</ele>
        <time>2016-08-25T09:34:36Z</time>
      </trkpt>
      <trkpt lat="45.97" lon="4.93606">
        <ele>299</ele>
        <time>2016-08-25T09:34:37Z</time>
      </trkpt>
      <trkpt lat="45.96996" lon="4.93611">
        <ele>299</ele>
        <time>2016-08-25T09:34:38Z</time>
      </trkpt>
      <trkpt lat="45.96992" lon="4.93616">
        <ele>299</ele>
        <time>2016-08-25T09:34:39Z</time>
      </trkpt>
      <trkpt lat="45.96988" lon="4.93621">
        <ele>299</ele>
        <time>2016-08-25T09:34:40Z</time>
      </trkpt>
      <trkpt lat="45.96984" lon="4.93626">
        <ele>299</ele>
        <time>2016-08-25T09:34:41Z</time>
      </trkpt>
      <trkpt lat="45.9698" lon="4.93631">
        <ele>299</ele>
        <time>2016-08-25T09:34:42Z</time>
      </trkpt>
      <trkpt lat="45.96977" lon="4.93635">
        <ele>299</ele>
        <time>2016-08-25T09:34:43Z</time>
      </trkpt>
      <trkpt lat="45.96973" lon="4.93639">
        <ele>299</ele>
        <time>2016-08-25T09:34:44Z</time>
      </trkpt>
      <trkpt lat="45.96969" lon="4.93644">
        <ele>299</ele>
        <time>2016-08-25T09:34:45Z</time>
      </trkpt>
      <trkpt lat="45.96965" lon="4.93649">
        <ele>299</ele>
        <time>2016-08-25T09:34:46Z</time>
      </trkpt>
      <trkpt lat="45.96961" lon="4.93654">
        <ele>299</ele>
        <time>2016-08-25T09:34:47Z</time>
      </trkpt>
      <trkpt lat="45.96956" lon="4.93659">
        <ele>299</ele>
        <time>2016-08-25T09:34:48Z</time>
      </trkpt>
      <trkpt lat="45.96952" lon="4.93664">
        <ele>299</ele>
        <time>2016-08-25T09:34:49Z</time>
      </trkpt>
      <trkpt lat="45.96948" lon="4.9367">
        <ele>298</ele>
        <time>2016-08-25T09:34:50Z</time>
      </trkpt>
      <trkpt lat="45.96943" lon="4.93676">
        <ele>298</ele>
        <time>2016-08-25T09:34:51Z</time>
      </trkpt>
      <trkpt lat="45.96939" lon="4.93681">
        <ele>298</ele>
        <time>2016-08-25T09:34:52Z</time>
      </trkpt>
      <trkpt lat="45.96934" lon="4.93686">
        <ele>298</ele>
        <time>2016-08-25T09:34:53Z</time>
      </trkpt>
      <trkpt lat="45.9693" lon="4.93692">
        <ele>298</ele>
        <time>2016-08-25T09:34:54Z</time>
      </trkpt>
      <trkpt lat="45.96925" lon="4.93697">
        <ele>298</ele>
        <time>2016-08-25T09:34:55Z</time>
      </trkpt>
      <trkpt lat="45.9692" lon="4.93702">
        <ele>298</ele>
        <time>2016-08-25T09:34:56Z</time>
      </trkpt>
      <trkpt lat="45.96915" lon="4.93707">
        <ele>297</ele>
        <time>2016-08-25T09:34:57Z</time>
      </trkpt>
      <trkpt lat="45.9691" lon="4.93711">
        <ele>297</ele>
        <time>2016-08-25T09:34:58Z</time>
      </trkpt>
      <trkpt lat="45.96905" lon="4.93716">
        <ele>297</ele>
        <time>2016-08-25T09:34:59Z</time>
      </trkpt>
      <trkpt lat="45.96899" lon="4.9372">
        <ele>297</ele>
        <time>2016-08-25T09:35:00Z</time>
      </trkpt>
      <trkpt lat="45.96894" lon="4.93724">
        <ele>297</ele>
        <time>2016-08-25T09:35:01Z</time>
      </trkpt>
      <trkpt lat="45.96889" lon="4.93727">
        <ele>297</ele>
        <time>2016-08-25T09:35:02Z</time>
      </trkpt>
      <trkpt lat="45.96883" lon="4.93731">
        <ele>297</ele>
        <time>2016-08-25T09:35:03Z</time>
      </trkpt>
      <trkpt lat="45.96878" lon="4.93734">
        <ele>297</ele>
        <time>2016-08-25T09:35:04Z</time>
      </trkpt>
      <trkpt lat="45.96872" lon="4.93736">
        <ele>297</ele>
        <time>2016-08-25T09:35:05Z</time>
      </trkpt>
      <trkpt lat="45.96866" lon="4.93739">
        <ele>297</ele>
        <time>2016-08-25T09:35:06Z</time>
      </trkpt>
      <trkpt lat="45.9686" lon="4.93741">
        <ele>297</ele>
        <time>2016-08-25T09:35:07Z</time>
      </trkpt>
      <trkpt lat="45.96854" lon="4.93744">
        <ele>297</ele>
        <time>2016-08-25T09:35:08Z</time>
      </trkpt>
      <trkpt lat="45.96849" lon="4.93746">
        <ele>296</ele>
        <time>2016-08-25T09:35:09Z</time>
      </trkpt>
      <trkpt lat="45.96843" lon="4.93748">
        <ele>296</ele>
        <time>2016-08-25T09:35:10Z</time>
      </trkpt>
      <trkpt lat="45.96837" lon="4.9375">
        <ele>296</ele>
        <time>2016-08-25T09:35:11Z</time>
      </trkpt>
      <trkpt lat="45.96832" lon="4.93751">
        <ele>296</ele>
        <time>2016-08-25T09:35:12Z</time>
      </trkpt>
      <trkpt lat="45.96826" lon="4.93753">
        <ele>296</ele>
        <time>2016-08-25T09:35:13Z</time>
      </trkpt>
      <trkpt lat="45.9682" lon="4.93755">
        <ele>296</ele>
        <time>2016-08-25T09:35:14Z</time>
      </trkpt>
      <trkpt lat="45.96815" lon="4.93757">
        <ele>296</ele>
        <time>2016-08-25T09:35:15Z</time>
      </trkpt>
      <trkpt lat="45.9681" lon="4.93759">
        <ele>295</ele>
        <time>2016-08-25T09:35:16Z</time>
      </trkpt>
      <trkpt lat="45.96804" lon="4.93762">
        <ele>295</ele>
        <time>2016-08-25T09:35:17Z</time>
      </trkpt>
      <trkpt lat="45.96799" lon="4.93764">
        <ele>295</ele>
        <time>2016-08-25T09:35:18Z</time>
      </trkpt>
      <trkpt lat="45.96793" lon="4.93766">
        <ele>295</ele>
        <time>2016-08-25T09:35:19Z</time>
      </trkpt>
      <trkpt lat="45.96788" lon="4.93768">
        <ele>295</ele>
        <time>2016-08-25T09:35:20Z</time>
      </trkpt>
      <trkpt lat="45.96782" lon="4.9377">
        <ele>295</ele>
        <time>2016-08-25T09:35:21Z</time>
      </trkpt>
      <trkpt lat="45.96777" lon="4.93772">
        <ele>295</ele>
        <time>2016-08-25T09:35:22Z</time>
      </trkpt>
      <trkpt lat="45.96771" lon="4.93773">
        <ele>295</ele>
        <time>2016-08-25T09:35:23Z</time>
      </trkpt>
      <trkpt lat="45.96765" lon="4.93775">
        <ele>295</ele>
        <time>2016-08-25T09:35:24Z</time>
      </trkpt>
      <trkpt lat="45.9676" lon="4.93777">
        <ele>295</ele>
        <time>2016-08-25T09:35:25Z</time>
      </trkpt>
      <trkpt lat="45.96755" lon="4.93779">
        <ele>295</ele>
        <time>2016-08-25T09:35:26Z</time>
      </trkpt>
      <trkpt lat="45.9675" lon="4.93781">
        <ele>295</ele>
        <time>2016-08-25T09:35:27Z</time>
      </trkpt>
      <trkpt lat="45.96744" lon="4.93783">
        <ele>296</ele>
        <time>2016-08-25T09:35:28Z</time>
      </trkpt>
      <trkpt lat="45.96739" lon="4.93784">
        <ele>296</ele>
        <time>2016-08-25T09:35:29Z</time>
      </trkpt>
      <trkpt lat="45.96734" lon="4.93786">
        <ele>296</ele>
        <time>2016-08-25T09:35:30Z</time>
      </trkpt>
      <trkpt lat="45.96729" lon="4.93788">
        <ele>296</ele>
        <time>2016-08-25T09:35:31Z</time>
      </trkpt>
      <trkpt lat="45.96723" lon="4.9379">
        <ele>296</ele>
        <time>2016-08-25T09:35:32Z</time>
      </trkpt>
      <trkpt lat="45.96717" lon="4.93792">
        <ele>296</ele>
        <time>2016-08-25T09:35:33Z</time>
      </trkpt>
      <trkpt lat="45.96712" lon="4.93794">
        <ele>296</ele>
        <time>2016-08-25T09:35:34Z</time>
      </trkpt>
      <trkpt lat="45.96706" lon="4.93796">
        <ele>296</ele>
        <time>2016-08-25T09:35:35Z</time>
      </trkpt>
      <trkpt lat="45.967" lon="4.93798">
        <ele>296</ele>
        <time>2016-08-25T09:35:36Z</time>
      </trkpt>
      <trkpt lat="45.96694" lon="4.938">
        <ele>297</ele>
        <time>2016-08-25T09:35:37Z</time>
      </trkpt>
      <trkpt lat="45.96688" lon="4.93802">
        <ele>297</ele>
        <time>2016-08-25T09:35:38Z</time>
      </trkpt>
      <trkpt lat="45.96683" lon="4.93804">
        <ele>297</ele>
        <time>2016-08-25T09:35:39Z</time>
      </trkpt>
      <trkpt lat="45.96677" lon="4.93806">
        <ele>297</ele>
        <time>2016-08-25T09:35:40Z</time>
      </trkpt>
      <trkpt lat="45.96672" lon="4.93808">
        <ele>297</ele>
        <time>2016-08-25T09:35:41Z</time>
      </trkpt>
      <trkpt lat="45.96668" lon="4.93809">
        <ele>297</ele>
        <time>2016-08-25T09:35:42Z</time>
      </trkpt>
      <trkpt lat="45.96663" lon="4.93811">
        <ele>297</ele>
        <time>2016-08-25T09:35:43Z</time>
      </trkpt>
      <trkpt lat="45.96658" lon="4.93813">
        <ele>297</ele>
        <time>2016-08-25T09:35:44Z</time>
      </trkpt>
      <trkpt lat="45.96653" lon="4.93815">
        <ele>297</ele>
        <time>2016-08-25T09:35:45Z</time>
      </trkpt>
      <trkpt lat="45.96648" lon="4.93817">
        <ele>297</ele>
        <time>2016-08-25T09:35:46Z</time>
      </trkpt>
      <trkpt lat="45.96643" lon="4.93819">
        <ele>297</ele>
        <time>2016-08-25T09:35:47Z</time>
      </trkpt>
      <trkpt lat="45.96637" lon="4.93821">
        <ele>297</ele>
        <time>2016-08-25T09:35:48Z</time>
      </trkpt>
      <trkpt lat="45.96632" lon="4.93823">
        <ele>297</ele>
        <time>2016-08-25T09:35:49Z</time>
      </trkpt>
      <trkpt lat="45.96626" lon="4.93824">
        <ele>297</ele>
        <time>2016-08-25T09:35:50Z</time>
      </trkpt>
      <trkpt lat="45.96621" lon="4.93826">
        <ele>297</ele>
        <time>2016-08-25T09:35:51Z</time>
      </trkpt>
      <trkpt lat="45.96615" lon="4.93829">
        <ele>297</ele>
        <time>2016-08-25T09:35:52Z</time>
      </trkpt>
      <trkpt lat="45.9661" lon="4.9383">
        <ele>297</ele>
        <time>2016-08-25T09:35:53Z</time>
      </trkpt>
      <trkpt lat="45.96604" lon="4.93832">
        <ele>297</ele>
        <time>2016-08-25T09:35:54Z</time>
      </trkpt>
      <trkpt lat="45.96598" lon="4.93834">
        <ele>296</ele>
        <time>2016-08-25T09:35:55Z</time>
      </trkpt>
      <trkpt lat="45.96593" lon="4.93836">
        <ele>296</ele>
        <time>2016-08-25T09:35:56Z</time>
      </trkpt>
      <trkpt lat="45.96588" lon="4.93837">
        <ele>296</ele>
        <time>2016-08-25T09:35:57Z</time>
      </trkpt>
      <trkpt lat="45.96583" lon="4.93839">
        <ele>296</ele>
        <time>2016-08-25T09:35:58Z</time>
      </trkpt>
      <trkpt lat="45.96578" lon="4.93841">
        <ele>296</ele>
        <time>2016-08-25T09:35:59Z</time>
      </trkpt>
      <trkpt lat="45.96573" lon="4.93842">
        <ele>296</ele>
        <time>2016-08-25T09:36:00Z</time>
      </trkpt>
      <trkpt lat="45.96565" lon="4.93846">
        <ele>296</ele>
        <time>2016-08-25T09:36:02Z</time>
      </trkpt>
      <trkpt lat="45.9656" lon="4.93848">
        <ele>296</ele>
        <time>2016-08-25T09:36:03Z</time>
      </trkpt>
      <trkpt lat="45.96555" lon="4.9385">
        <ele>296</ele>
        <time>2016-08-25T09:36:04Z</time>
      </trkpt>
      <trkpt lat="45.96551" lon="4.93851">
        <ele>296</ele>
        <time>2016-08-25T09:36:05Z</time>
      </trkpt>
      <trkpt lat="45.96546" lon="4.93852">
        <ele>296</ele>
        <time>2016-08-25T09:36:06Z</time>
      </trkpt>
      <trkpt lat="45.96542" lon="4.93854">
        <ele>296</ele>
        <time>2016-08-25T09:36:07Z</time>
      </trkpt>
      <trkpt lat="45.96537" lon="4.93855">
        <ele>296</ele>
        <time>2016-08-25T09:36:08Z</time>
      </trkpt>
      <trkpt lat="45.96533" lon="4.93857">
        <ele>296</ele>
        <time>2016-08-25T09:36:09Z</time>
      </trkpt>
      <trkpt lat="45.96528" lon="4.93858">
        <ele>296</ele>
        <time>2016-08-25T09:36:10Z</time>
      </trkpt>
      <trkpt lat="45.96523" lon="4.9386">
        <ele>296</ele>
        <time>2016-08-25T09:36:11Z</time>
      </trkpt>
      <trkpt lat="45.96518" lon="4.93861">
        <ele>296</ele>
        <time>2016-08-25T09:36:12Z</time>
      </trkpt>
      <trkpt lat="45.96513" lon="4.93863">
        <ele>296</ele>
        <time>2016-08-25T09:36:13Z</time>
      </trkpt>
      <trkpt lat="45.96508" lon="4.93864">
        <ele>296</ele>
        <time>2016-08-25T09:36:14Z</time>
      </trkpt>
      <trkpt lat="45.96503" lon="4.93866">
        <ele>296</ele>
        <time>2016-08-25T09:36:15Z</time>
      </trkpt>
      <trkpt lat="45.96498" lon="4.93868">
        <ele>296</ele>
        <time>2016-08-25T09:36:16Z</time>
      </trkpt>
      <trkpt lat="45.96493" lon="4.9387">
        <ele>296</ele>
        <time>2016-08-25T09:36:17Z</time>
      </trkpt>
      <trkpt lat="45.96487" lon="4.93872">
        <ele>296</ele>
        <time>2016-08-25T09:36:18Z</time>
      </trkpt>
      <trkpt lat="45.96482" lon="4.93874">
        <ele>296</ele>
        <time>2016-08-25T09:36:19Z</time>
      </trkpt>
      <trkpt lat="45.96476" lon="4.93876">
        <ele>295</ele>
        <time>2016-08-25T09:36:20Z</time>
      </trkpt>
      <trkpt lat="45.96471" lon="4.93878">
        <ele>295</ele>
        <time>2016-08-25T09:36:21Z</time>
      </trkpt>
      <trkpt lat="45.96466" lon="4.9388">
        <ele>295</ele>
        <time>2016-08-25T09:36:22Z</time>
      </trkpt>
      <trkpt lat="45.96461" lon="4.93882">
        <ele>295</ele>
        <time>2016-08-25T09:36:23Z</time>
      </trkpt>
      <trkpt lat="45.96457" lon="4.93884">
        <ele>296</ele>
        <time>2016-08-25T09:36:24Z</time>
      </trkpt>
      <trkpt lat="45.96451" lon="4.93886">
        <ele>296</ele>
        <time>2016-08-25T09:36:25Z</time>
      </trkpt>
      <trkpt lat="45.96443" lon="4.9389">
        <ele>296</ele>
        <time>2016-08-25T09:36:27Z</time>
      </trkpt>
      <trkpt lat="45.96438" lon="4.93892">
        <ele>296</ele>
        <time>2016-08-25T09:36:28Z</time>
      </trkpt>
      <trkpt lat="45.96434" lon="4.93893">
        <ele>296</ele>
        <time>2016-08-25T09:36:29Z</time>
      </trkpt>
      <trkpt lat="45.96429" lon="4.93894">
        <ele>296</ele>
        <time>2016-08-25T09:36:30Z</time>
      </trkpt>
      <trkpt lat="45.96423" lon="4.93896">
        <ele>296</ele>
        <time>2016-08-25T09:36:31Z</time>
      </trkpt>
      <trkpt lat="45.96418" lon="4.93898">
        <ele>296</ele>
        <time>2016-08-25T09:36:32Z</time>
      </trkpt>
      <trkpt lat="45.96412" lon="4.939">
        <ele>295</ele>
        <time>2016-08-25T09:36:33Z</time>
      </trkpt>
      <trkpt lat="45.96406" lon="4.93902">
        <ele>295</ele>
        <time>2016-08-25T09:36:34Z</time>
      </trkpt>
      <trkpt lat="45.96401" lon="4.93904">
        <ele>295</ele>
        <time>2016-08-25T09:36:35Z</time>
      </trkpt>
      <trkpt lat="45.96396" lon="4.93905">
        <ele>295</ele>
        <time>2016-08-25T09:36:36Z</time>
      </trkpt>
      <trkpt lat="45.9639" lon="4.93907">
        <ele>294</ele>
        <time>2016-08-25T09:36:37Z</time>
      </trkpt>
      <trkpt lat="45.96385" lon="4.93909">
        <ele>294</ele>
        <time>2016-08-25T09:36:38Z</time>
      </trkpt>
      <trkpt lat="45.9638" lon="4.93911">
        <ele>294</ele>
        <time>2016-08-25T09:36:39Z</time>
      </trkpt>
      <trkpt lat="45.96375" lon="4.93912">
        <ele>294</ele>
        <time>2016-08-25T09:36:40Z</time>
      </trkpt>
      <trkpt lat="45.9637" lon="4.93914">
        <ele>294</ele>
        <time>2016-08-25T09:36:41Z</time>
      </trkpt>
      <trkpt lat="45.96365" lon="4.93916">
        <ele>294</ele>
        <time>2016-08-25T09:36:42Z</time>
      </trkpt>
      <trkpt lat="45.9636" lon="4.93918">
        <ele>294</ele>
        <time>2016-08-25T09:36:43Z</time>
      </trkpt>
      <trkpt lat="45.96356" lon="4.9392">
        <ele>294</ele>
        <time>2016-08-25T09:36:44Z</time>
      </trkpt>
      <trkpt lat="45.96351" lon="4.93922">
        <ele>293</ele>
        <time>2016-08-25T09:36:45Z</time>
      </trkpt>
      <trkpt lat="45.96345" lon="4.93924">
        <ele>293</ele>
        <time>2016-08-25T09:36:46Z</time>
      </trkpt>
      <trkpt lat="45.9634" lon="4.93926">
        <ele>293</ele>
        <time>2016-08-25T09:36:47Z</time>
      </trkpt>
      <trkpt lat="45.96334" lon="4.93928">
        <ele>293</ele>
        <time>2016-08-25T09:36:48Z</time>
      </trkpt>
      <trkpt lat="45.96329" lon="4.93929">
        <ele>292</ele>
        <time>2016-08-25T09:36:49Z</time>
      </trkpt>
      <trkpt lat="45.96323" lon="4.93931">
        <ele>292</ele>
        <time>2016-08-25T09:36:50Z</time>
      </trkpt>
      <trkpt lat="45.96316" lon="4.93933">
        <ele>292</ele>
        <time>2016-08-25T09:36:51Z</time>
      </trkpt>
      <trkpt lat="45.9631" lon="4.93935">
        <ele>292</ele>
        <time>2016-08-25T09:36:52Z</time>
      </trkpt>
      <trkpt lat="45.96305" lon="4.93937">
        <ele>292</ele>
        <time>2016-08-25T09:36:53Z</time>
      </trkpt>
      <trkpt lat="45.96299" lon="4.93939">
        <ele>292</ele>
        <time>2016-08-25T09:36:54Z</time>
      </trkpt>
      <trkpt lat="45.96293" lon="4.9394">
        <ele>292</ele>
        <time>2016-08-25T09:36:55Z</time>
      </trkpt>
      <trkpt lat="45.96287" lon="4.93942">
        <ele>292</ele>
        <time>2016-08-25T09:36:56Z</time>
      </trkpt>
      <trkpt lat="45.96281" lon="4.93945">
        <ele>291</ele>
        <time>2016-08-25T09:36:57Z</time>
      </trkpt>
      <trkpt lat="45.96276" lon="4.93947">
        <ele>291</ele>
        <time>2016-08-25T09:36:58Z</time>
      </trkpt>
      <trkpt lat="45.9627" lon="4.93949">
        <ele>291</ele>
        <time>2016-08-25T09:36:59Z</time>
      </trkpt>
      <trkpt lat="45.96264" lon="4.93952">
        <ele>291</ele>
        <time>2016-08-25T09:37:00Z</time>
      </trkpt>
      <trkpt lat="45.96258" lon="4.93955">
        <ele>291</ele>
        <time>2016-08-25T09:37:01Z</time>
      </trkpt>
      <trkpt lat="45.96253" lon="4.93958">
        <ele>291</ele>
        <time>2016-08-25T09:37:02Z</time>
      </trkpt>
      <trkpt lat="45.96247" lon="4.93962">
        <ele>290</ele>
        <time>2016-08-25T09:37:03Z</time>
      </trkpt>
      <trkpt lat="45.96242" lon="4.93966">
        <ele>290</ele>
        <time>2016-08-25T09:37:04Z</time>
      </trkpt>
      <trkpt lat="45.96236" lon="4.9397">
        <ele>290</ele>
        <time>2016-08-25T09:37:05Z</time>
      </trkpt>
      <trkpt lat="45.96231" lon="4.93974">
        <ele>290</ele>
        <time>2016-08-25T09:37:06Z</time>
      </trkpt>
      <trkpt lat="45.96226" lon="4.93978">
        <ele>290</ele>
        <time>2016-08-25T09:37:07Z</time>
      </trkpt>
      <trkpt lat="45.96221" lon="4.93982">
        <ele>290</ele>
        <time>2016-08-25T09:37:08Z</time>
      </trkpt>
      <trkpt lat="45.96216" lon="4.93987">
        <ele>290</ele>
        <time>2016-08-25T09:37:09Z</time>
      </trkpt>
      <trkpt lat="45.96211" lon="4.93991">
        <ele>290</ele>
        <time>2016-08-25T09:37:10Z</time>
      </trkpt>
      <trkpt lat="45.96205" lon="4.93995">
        <ele>290</ele>
        <time>2016-08-25T09:37:11Z</time>
      </trkpt>
      <trkpt lat="45.96201" lon="4.93998">
        <ele>290</ele>
        <time>2016-08-25T09:37:12Z</time>
      </trkpt>
      <trkpt lat="45.96196" lon="4.94002">
        <ele>290</ele>
        <time>2016-08-25T09:37:13Z</time>
      </trkpt>
      <trkpt lat="45.96191" lon="4.94006">
        <ele>290</ele>
        <time>2016-08-25T09:37:14Z</time>
      </trkpt>
      <trkpt lat="45.96187" lon="4.9401">
        <ele>290</ele>
        <time>2016-08-25T09:37:15Z</time>
      </trkpt>
      <trkpt lat="45.96183" lon="4.94014">
        <ele>290</ele>
        <time>2016-08-25T09:37:16Z</time>
      </trkpt>
      <trkpt lat="45.96178" lon="4.94019">
        <ele>290</ele>
        <time>2016-08-25T09:37:17Z</time>
      </trkpt>
      <trkpt lat="45.96173" lon="4.94023">
        <ele>290</ele>
        <time>2016-08-25T09:37:18Z</time>
      </trkpt>
      <trkpt lat="45.96168" lon="4.94027">
        <ele>290</ele>
        <time>2016-08-25T09:37:19Z</time>
      </trkpt>
      <trkpt lat="45.96163" lon="4.94032">
        <ele>290</ele>
        <time>2016-08-25T09:37:20Z</time>
      </trkpt>
      <trkpt lat="45.96157" lon="4.94036">
        <ele>290</ele>
        <time>2016-08-25T09:37:21Z</time>
      </trkpt>
      <trkpt lat="45.96152" lon="4.94041">
        <ele>290</ele>
        <time>2016-08-25T09:37:22Z</time>
      </trkpt>
      <trkpt lat="45.96147" lon="4.94045">
        <ele>290</ele>
        <time>2016-08-25T09:37:23Z</time>
      </trkpt>
      <trkpt lat="45.96142" lon="4.9405">
        <ele>290</ele>
        <time>2016-08-25T09:37:24Z</time>
      </trkpt>
      <trkpt lat="45.96137" lon="4.94054">
        <ele>290</ele>
        <time>2016-08-25T09:37:25Z</time>
      </trkpt>
      <trkpt lat="45.96133" lon="4.94058">
        <ele>290</ele>
        <time>2016-08-25T09:37:26Z</time>
      </trkpt>
      <trkpt lat="45.96129" lon="4.94063">
        <ele>290</ele>
        <time>2016-08-25T09:37:27Z</time>
      </trkpt>
      <trkpt lat="45.96125" lon="4.94066">
        <ele>290</ele>
        <time>2016-08-25T09:37:28Z</time>
      </trkpt>
      <trkpt lat="45.9612" lon="4.94071">
        <ele>290</ele>
        <time>2016-08-25T09:37:29Z</time>
      </trkpt>
      <trkpt lat="45.96115" lon="4.94074">
        <ele>291</ele>
        <time>2016-08-25T09:37:30Z</time>
      </trkpt>
      <trkpt lat="45.9611" lon="4.94078">
        <ele>291</ele>
        <time>2016-08-25T09:37:31Z</time>
      </trkpt>
      <trkpt lat="45.96105" lon="4.94082">
        <ele>291</ele>
        <time>2016-08-25T09:37:32Z</time>
      </trkpt>
      <trkpt lat="45.961" lon="4.94087">
        <ele>291</ele>
        <time>2016-08-25T09:37:33Z</time>
      </trkpt>
      <trkpt lat="45.96095" lon="4.9409">
        <ele>291</ele>
        <time>2016-08-25T09:37:34Z</time>
      </trkpt>
      <trkpt lat="45.9609" lon="4.94095">
        <ele>291</ele>
        <time>2016-08-25T09:37:35Z</time>
      </trkpt>
      <trkpt lat="45.96086" lon="4.94099">
        <ele>291</ele>
        <time>2016-08-25T09:37:36Z</time>
      </trkpt>
      <trkpt lat="45.96081" lon="4.94103">
        <ele>291</ele>
        <time>2016-08-25T09:37:37Z</time>
      </trkpt>
      <trkpt lat="45.96076" lon="4.94106">
        <ele>291</ele>
        <time>2016-08-25T09:37:38Z</time>
      </trkpt>
      <trkpt lat="45.96068" lon="4.94112">
        <ele>291</ele>
        <time>2016-08-25T09:37:40Z</time>
      </trkpt>
      <trkpt lat="45.96064" lon="4.94115">
        <ele>291</ele>
        <time>2016-08-25T09:37:41Z</time>
      </trkpt>
      <trkpt lat="45.9606" lon="4.94117">
        <ele>291</ele>
        <time>2016-08-25T09:37:42Z</time>
      </trkpt>
      <trkpt lat="45.96056" lon="4.9412">
        <ele>291</ele>
        <time>2016-08-25T09:37:43Z</time>
      </trkpt>
      <trkpt lat="45.96052" lon="4.94123">
        <ele>291</ele>
        <time>2016-08-25T09:37:44Z</time>
      </trkpt>
      <trkpt lat="45.96047" lon="4.94125">
        <ele>291</ele>
        <time>2016-08-25T09:37:45Z</time>
      </trkpt>
      <trkpt lat="45.96042" lon="4.94126">
        <ele>291</ele>
        <time>2016-08-25T09:37:46Z</time>
      </trkpt>
      <trkpt lat="45.96037" lon="4.94127">
        <ele>291</ele>
        <time>2016-08-25T09:37:47Z</time>
      </trkpt>
      <trkpt lat="45.96032" lon="4.94128">
        <ele>291</ele>
        <time>2016-08-25T09:37:48Z</time>
      </trkpt>
      <trkpt lat="45.96028" lon="4.94128">
        <ele>291</ele>
        <time>2016-08-25T09:37:49Z</time>
      </trkpt>
      <trkpt lat="45.96019" lon="4.94126">
        <ele>291</ele>
        <time>2016-08-25T09:37:51Z</time>
      </trkpt>
      <trkpt lat="45.96015" lon="4.94125">
        <ele>291</ele>
        <time>2016-08-25T09:37:52Z</time>
      </trkpt>
      <trkpt lat="45.96006" lon="4.94123">
        <ele>291</ele>
        <time>2016-08-25T09:37:54Z</time>
      </trkpt>
      <trkpt lat="45.96002" lon="4.94121">
        <ele>291</ele>
        <time>2016-08-25T09:37:55Z</time>
      </trkpt>
      <trkpt lat="45.95997" lon="4.9412">
        <ele>291</ele>
        <time>2016-08-25T09:37:56Z</time>
      </trkpt>
      <trkpt lat="45.95992" lon="4.94119">
        <ele>291</ele>
        <time>2016-08-25T09:37:57Z</time>
      </trkpt>
      <trkpt lat="45.95987" lon="4.94118">
        <ele>292</ele>
        <time>2016-08-25T09:37:58Z</time>
      </trkpt>
      <trkpt lat="45.95983" lon="4.94116">
        <ele>292</ele>
        <time>2016-08-25T09:37:59Z</time>
      </trkpt>
      <trkpt lat="45.95974" lon="4.94114">
        <ele>292</ele>
        <time>2016-08-25T09:38:01Z</time>
      </trkpt>
      <trkpt lat="45.9597" lon="4.94113">
        <ele>292</ele>
        <time>2016-08-25T09:38:02Z</time>
      </trkpt>
      <trkpt lat="45.95962" lon="4.94112">
        <ele>292</ele>
        <time>2016-08-25T09:38:04Z</time>
      </trkpt>
      <trkpt lat="45.95958" lon="4.94111">
        <ele>292</ele>
        <time>2016-08-25T09:38:05Z</time>
      </trkpt>
      <trkpt lat="45.9595" lon="4.94109">
        <ele>292</ele>
        <time>2016-08-25T09:38:07Z</time>
      </trkpt>
      <trkpt lat="45.95946" lon="4.94108">
        <ele>292</ele>
        <time>2016-08-25T09:38:08Z</time>
      </trkpt>
      <trkpt lat="45.95941" lon="4.94106">
        <ele>292</ele>
        <time>2016-08-25T09:38:09Z</time>
      </trkpt>
      <trkpt lat="45.95937" lon="4.94105">
        <ele>292</ele>
        <time>2016-08-25T09:38:10Z</time>
      </trkpt>
      <trkpt lat="45.95928" lon="4.94102">
        <ele>292</ele>
        <time>2016-08-25T09:38:12Z</time>
      </trkpt>
      <trkpt lat="45.95924" lon="4.94101">
        <ele>292</ele>
        <time>2016-08-25T09:38:13Z</time>
      </trkpt>
      <trkpt lat="45.95916" lon="4.94099">
        <ele>293</ele>
        <time>2016-08-25T09:38:15Z</time>
      </trkpt>
      <trkpt lat="45.95912" lon="4.94098">
        <ele>293</ele>
        <time>2016-08-25T09:38:16Z</time>
      </trkpt>
      <trkpt lat="45.95903" lon="4.94095">
        <ele>293</ele>
        <time>2016-08-25T09:38:18Z</time>
      </trkpt>
      <trkpt lat="45.95899" lon="4.94094">
        <ele>293</ele>
        <time>2016-08-25T09:38:19Z</time>
      </trkpt>
      <trkpt lat="45.95891" lon="4.94092">
        <ele>293</ele>
        <time>2016-08-25T09:38:21Z</time>
      </trkpt>
      <trkpt lat="45.95886" lon="4.9409">
        <ele>293</ele>
        <time>2016-08-25T09:38:22Z</time>
      </trkpt>
      <trkpt lat="45.95881" lon="4.94089">
        <ele>293</ele>
        <time>2016-08-25T09:38:23Z</time>
      </trkpt>
      <trkpt lat="45.95877" lon="4.94088">
        <ele>293</ele>
        <time>2016-08-25T09:38:24Z</time>
      </trkpt>
      <trkpt lat="45.95872" lon="4.94087">
        <ele>293</ele>
        <time>2016-08-25T09:38:25Z</time>
      </trkpt>
      <trkpt lat="45.95867" lon="4.94086">
        <ele>293</ele>
        <time>2016-08-25T09:38:26Z</time>
      </trkpt>
      <trkpt lat="45.95863" lon="4.94084">
        <ele>293</ele>
        <time>2016-08-25T09:38:27Z</time>
      </trkpt>
      <trkpt lat="45.95858" lon="4.94083">
        <ele>293</ele>
        <time>2016-08-25T09:38:28Z</time>
      </trkpt>
      <trkpt lat="45.9585" lon="4.94081">
        <ele>293</ele>
        <time>2016-08-25T09:38:30Z</time>
      </trkpt>
      <trkpt lat="45.95846" lon="4.9408">
        <ele>293</ele>
        <time>2016-08-25T09:38:31Z</time>
      </trkpt>
      <trkpt lat="45.95838" lon="4.94077">
        <ele>294</ele>
        <time>2016-08-25T09:38:33Z</time>
      </trkpt>
      <trkpt lat="45.95834" lon="4.94077">
        <ele>294</ele>
        <time>2016-08-25T09:38:34Z</time>
      </trkpt>
      <trkpt lat="45.95827" lon="4.94075">
        <ele>294</ele>
        <time>2016-08-25T09:38:36Z</time>
      </trkpt>
      <trkpt lat="45.95823" lon="4.94074">
        <ele>294</ele>
        <time>2016-08-25T09:38:37Z</time>
      </trkpt>
      <trkpt lat="45.95816" lon="4.94072">
        <ele>294</ele>
        <time>2016-08-25T09:38:39Z</time>
      </trkpt>
      <trkpt lat="45.95813" lon="4.94071">
        <ele>294</ele>
        <time>2016-08-25T09:38:40Z</time>
      </trkpt>
      <trkpt lat="45.95805" lon="4.9407">
        <ele>294</ele>
        <time>2016-08-25T09:38:42Z</time>
      </trkpt>
      <trkpt lat="45.95802" lon="4.9407">
        <ele>294</ele>
        <time>2016-08-25T09:38:43Z</time>
      </trkpt>
      <trkpt lat="45.95796" lon="4.94068">
        <ele>294</ele>
        <time>2016-08-25T09:38:45Z</time>
      </trkpt>
      <trkpt lat="45.95793" lon="4.94067">
        <ele>294</ele>
        <time>2016-08-25T09:38:46Z</time>
      </trkpt>
      <trkpt lat="45.95787" lon="4.94064">
        <ele>294</ele>
        <time>2016-08-25T09:38:48Z</time>
      </trkpt>
      <trkpt lat="45.95783" lon="4.94062">
        <ele>294</ele>
        <time>2016-08-25T09:38:49Z</time>
      </trkpt>
      <trkpt lat="45.95776" lon="4.9406">
        <ele>294</ele>
        <time>2016-08-25T09:38:51Z</time>
      </trkpt>
      <trkpt lat="45.95772" lon="4.94059">
        <ele>294</ele>
        <time>2016-08-25T09:38:52Z</time>
      </trkpt>
      <trkpt lat="45.95763" lon="4.94057">
        <ele>294</ele>
        <time>2016-08-25T09:38:54Z</time>
      </trkpt>
      <trkpt lat="45.95759" lon="4.94056">
        <ele>294</ele>
        <time>2016-08-25T09:38:55Z</time>
      </trkpt>
      <trkpt lat="45.9575" lon="4.94054">
        <ele>294</ele>
        <time>2016-08-25T09:38:57Z</time>
      </trkpt>
      <trkpt lat="45.95745" lon="4.94054">
        <ele>295</ele>
        <time>2016-08-25T09:38:58Z</time>
      </trkpt>
      <trkpt lat="45.95738" lon="4.94052">
        <ele>295</ele>
        <time>2016-08-25T09:39:00Z</time>
      </trkpt>
      <trkpt lat="45.95734" lon="4.94051">
        <ele>295</ele>
        <time>2016-08-25T09:39:01Z</time>
      </trkpt>
      <trkpt lat="45.95726" lon="4.94049">
        <ele>295</ele>
        <time>2016-08-25T09:39:03Z</time>
      </trkpt>
      <trkpt lat="45.95721" lon="4.94047">
        <ele>295</ele>
        <time>2016-08-25T09:39:04Z</time>
      </trkpt>
      <trkpt lat="45.95713" lon="4.94046">
        <ele>295</ele>
        <time>2016-08-25T09:39:06Z</time>
      </trkpt>
      <trkpt lat="45.95709" lon="4.94045">
        <ele>295</ele>
        <time>2016-08-25T09:39:07Z</time>
      </trkpt>
      <trkpt lat="45.95702" lon="4.94043">
        <ele>295</ele>
        <time>2016-08-25T09:39:09Z</time>
      </trkpt>
      <trkpt lat="45.95698" lon="4.94043">
        <ele>295</ele>
        <time>2016-08-25T09:39:10Z</time>
      </trkpt>
      <trkpt lat="45.9569" lon="4.94042">
        <ele>295</ele>
        <time>2016-08-25T09:39:12Z</time>
      </trkpt>
      <trkpt lat="45.95686" lon="4.94041">
        <ele>295</ele>
        <time>2016-08-25T09:39:13Z</time>
      </trkpt>
      <trkpt lat="45.95679" lon="4.94039">
        <ele>295</ele>
        <time>2016-08-25T09:39:15Z</time>
      </trkpt>
      <trkpt lat="45.95676" lon="4.94037">
        <ele>295</ele>
        <time>2016-08-25T09:39:16Z</time>
      </trkpt>
      <trkpt lat="45.95671" lon="4.94029">
        <ele>295</ele>
        <time>2016-08-25T09:39:18Z</time>
      </trkpt>
      <trkpt lat="45.95671" lon="4.94024">
        <ele>295</ele>
        <time>2016-08-25T09:39:19Z</time>
      </trkpt>
      <trkpt lat="45.95673" lon="4.94014">
        <ele>295</ele>
        <time>2016-08-25T09:39:21Z</time>
      </trkpt>
      <trkpt lat="45.95673" lon="4.94008">
        <ele>296</ele>
        <time>2016-08-25T09:39:22Z</time>
      </trkpt>
      <trkpt lat="45.95672" lon="4.93997">
        <ele>296</ele>
        <time>2016-08-25T09:39:24Z</time>
      </trkpt>
      <trkpt lat="45.9567" lon="4.93992">
        <ele>295</ele>
        <time>2016-08-25T09:39:25Z</time>
      </trkpt>
      <trkpt lat="45.95665" lon="4.93985">
        <ele>295</ele>
        <time>2016-08-25T09:39:27Z</time>
      </trkpt>
      <trkpt lat="45.95662" lon="4.93984">
        <ele>295</ele>
        <time>2016-08-25T09:39:28Z</time>
      </trkpt>
      <trkpt lat="45.95656" lon="4.93981">
        <ele>295</ele>
        <time>2016-08-25T09:39:30Z</time>
      </trkpt>
      <trkpt lat="45.95653" lon="4.93977">
        <ele>294</ele>
        <time>2016-08-25T09:39:31Z</time>
      </trkpt>
      <trkpt lat="45.9565" lon="4.93966">
        <ele>294</ele>
        <time>2016-08-25T09:39:33Z</time>
      </trkpt>
      <trkpt lat="45.95649" lon="4.93958">
        <ele>294</ele>
        <time>2016-08-25T09:39:34Z</time>
      </trkpt>
      <trkpt lat="45.95648" lon="4.93949">
        <ele>294</ele>
        <time>2016-08-25T09:39:35Z</time>
      </trkpt>
      <trkpt lat="45.95649" lon="4.9394">
        <ele>294</ele>
        <time>2016-08-25T09:39:36Z</time>
      </trkpt>
      <trkpt lat="45.9565" lon="4.93929">
        <ele>294</ele>
        <time>2016-08-25T09:39:37Z</time>
      </trkpt>
      <trkpt lat="45.95651" lon="4.93919">
        <ele>294</ele>
        <time>2016-08-25T09:39:38Z</time>
      </trkpt>
      <trkpt lat="45.95652" lon="4.93908">
        <ele>292</ele>
        <time>2016-08-25T09:39:39Z</time>
      </trkpt>
      <trkpt lat="45.95654" lon="4.93897">
        <ele>292</ele>
        <time>2016-08-25T09:39:40Z</time>
      </trkpt>
      <trkpt lat="45.95655" lon="4.93887">
        <ele>291</ele>
        <time>2016-08-25T09:39:41Z</time>
      </trkpt>
      <trkpt lat="45.95655" lon="4.93878">
        <ele>291</ele>
        <time>2016-08-25T09:39:42Z</time>
      </trkpt>
      <trkpt lat="45.95654" lon="4.93869">
        <ele>291</ele>
        <time>2016-08-25T09:39:43Z</time>
      </trkpt>
      <trkpt lat="45.95652" lon="4.93862">
        <ele>290</ele>
        <time>2016-08-25T09:39:44Z</time>
      </trkpt>
      <trkpt lat="45.95648" lon="4.93858">
        <ele>290</ele>
        <time>2016-08-25T09:39:45Z</time>
      </trkpt>
      <trkpt lat="45.95644" lon="4.93856">
        <ele>290</ele>
        <time>2016-08-25T09:39:46Z</time>
      </trkpt>
      <trkpt lat="45.95639" lon="4.93853">
        <ele>290</ele>
        <time>2016-08-25T09:39:47Z</time>
      </trkpt>
      <trkpt lat="45.95635" lon="4.93851">
        <ele>290</ele>
        <time>2016-08-25T09:39:48Z</time>
      </trkpt>
      <trkpt lat="45.95631" lon="4.93849">
        <ele>290</ele>
        <time>2016-08-25T09:39:49Z</time>
      </trkpt>
      <trkpt lat="45.95626" lon="4.93845">
        <ele>290</ele>
        <time>2016-08-25T09:39:50Z</time>
      </trkpt>
      <trkpt lat="45.95621" lon="4.93842">
        <ele>290</ele>
        <time>2016-08-25T09:39:51Z</time>
      </trkpt>
      <trkpt lat="45.95617" lon="4.93838">
        <ele>290</ele>
        <time>2016-08-25T09:39:52Z</time>
      </trkpt>
      <trkpt lat="45.95613" lon="4.93835">
        <ele>290</ele>
        <time>2016-08-25T09:39:53Z</time>
      </trkpt>
      <trkpt lat="45.95608" lon="4.93831">
        <ele>289</ele>
        <time>2016-08-25T09:39:54Z</time>
      </trkpt>
      <trkpt lat="45.95604" lon="4.93828">
        <ele>289</ele>
        <time>2016-08-25T09:39:55Z</time>
      </trkpt>
      <trkpt lat="45.956" lon="4.93824">
        <ele>289</ele>
        <time>2016-08-25T09:39:56Z</time>
      </trkpt>
      <trkpt lat="45.95596" lon="4.9382">
        <ele>289</ele>
        <time>2016-08-25T09:39:57Z</time>
      </trkpt>
      <trkpt lat="45.95591" lon="4.93816">
        <ele>289</ele>
        <time>2016-08-25T09:39:58Z</time>
      </trkpt>
      <trkpt lat="45.95587" lon="4.93812">
        <ele>289</ele>
        <time>2016-08-25T09:39:59Z</time>
      </trkpt>
      <trkpt lat="45.95582" lon="4.93809">
        <ele>290</ele>
        <time>2016-08-25T09:40:00Z</time>
      </trkpt>
      <trkpt lat="45.95578" lon="4.93805">
        <ele>290</ele>
        <time>2016-08-25T09:40:01Z</time>
      </trkpt>
      <trkpt lat="45.95574" lon="4.93801">
        <ele>290</ele>
        <time>2016-08-25T09:40:02Z</time>
      </trkpt>
      <trkpt lat="45.9557" lon="4.93796">
        <ele>290</ele>
        <time>2016-08-25T09:40:03Z</time>
      </trkpt>
      <trkpt lat="45.95567" lon="4.93791">
        <ele>290</ele>
        <time>2016-08-25T09:40:04Z</time>
      </trkpt>
      <trkpt lat="45.95565" lon="4.93785">
        <ele>290</ele>
        <time>2016-08-25T09:40:05Z</time>
      </trkpt>
      <trkpt lat="45.95564" lon="4.93778">
        <ele>290</ele>
        <time>2016-08-25T09:40:06Z</time>
      </trkpt>
      <trkpt lat="45.95563" lon="4.9377">
        <ele>290</ele>
        <time>2016-08-25T09:40:07Z</time>
      </trkpt>
      <trkpt lat="45.95562" lon="4.93763">
        <ele>290</ele>
        <time>2016-08-25T09:40:08Z</time>
      </trkpt>
      <trkpt lat="45.95561" lon="4.93755">
        <ele>290</ele>
        <time>2016-08-25T09:40:09Z</time>
      </trkpt>
      <trkpt lat="45.95561" lon="4.93748">
        <ele>290</ele>
        <time>2016-08-25T09:40:10Z</time>
      </trkpt>
      <trkpt lat="45.95561" lon="4.93741">
        <ele>290</ele>
        <time>2016-08-25T09:40:11Z</time>
      </trkpt>
      <trkpt lat="45.9556" lon="4.93733">
        <ele>290</ele>
        <time>2016-08-25T09:40:12Z</time>
      </trkpt>
      <trkpt lat="45.9556" lon="4.93726">
        <ele>290</ele>
        <time>2016-08-25T09:40:13Z</time>
      </trkpt>
      <trkpt lat="45.9556" lon="4.93719">
        <ele>290</ele>
        <time>2016-08-25T09:40:14Z</time>
      </trkpt>
      <trkpt lat="45.9556" lon="4.93713">
        <ele>290</ele>
        <time>2016-08-25T09:40:15Z</time>
      </trkpt>
      <trkpt lat="45.95561" lon="4.93707">
        <ele>290</ele>
        <time>2016-08-25T09:40:16Z</time>
      </trkpt>
      <trkpt lat="45.95561" lon="4.937">
        <ele>290</ele>
        <time>2016-08-25T09:40:17Z</time>
      </trkpt>
      <trkpt lat="45.95562" lon="4.93693">
        <ele>290</ele>
        <time>2016-08-25T09:40:18Z</time>
      </trkpt>
      <trkpt lat="45.95562" lon="4.9368">
        <ele>289</ele>
        <time>2016-08-25T09:40:20Z</time>
      </trkpt>
      <trkpt lat="45.95562" lon="4.93672">
        <ele>289</ele>
        <time>2016-08-25T09:40:21Z</time>
      </trkpt>
      <trkpt lat="45.95562" lon="4.93665">
        <ele>289</ele>
        <time>2016-08-25T09:40:22Z</time>
      </trkpt>
      <trkpt lat="45.95562" lon="4.93656">
        <ele>289</ele>
        <time>2016-08-25T09:40:23Z</time>
      </trkpt>
      <trkpt lat="45.95563" lon="4.93649">
        <ele>289</ele>
        <time>2016-08-25T09:40:24Z</time>
      </trkpt>
      <trkpt lat="45.95564" lon="4.9364">
        <ele>289</ele>
        <time>2016-08-25T09:40:25Z</time>
      </trkpt>
      <trkpt lat="45.95564" lon="4.93632">
        <ele>289</ele>
        <time>2016-08-25T09:40:26Z</time>
      </trkpt>
      <trkpt lat="45.95565" lon="4.93623">
        <ele>289</ele>
        <time>2016-08-25T09:40:27Z</time>
      </trkpt>
      <trkpt lat="45.95566" lon="4.93614">
        <ele>289</ele>
        <time>2016-08-25T09:40:28Z</time>
      </trkpt>
      <trkpt lat="45.95566" lon="4.93605">
        <ele>289</ele>
        <time>2016-08-25T09:40:29Z</time>
      </trkpt>
      <trkpt lat="45.95567" lon="4.93596">
        <ele>289</ele>
        <time>2016-08-25T09:40:30Z</time>
      </trkpt>
      <trkpt lat="45.95568" lon="4.93588">
        <ele>289</ele>
        <time>2016-08-25T09:40:31Z</time>
      </trkpt>
      <trkpt lat="45.95569" lon="4.93579">
        <ele>289</ele>
        <time>2016-08-25T09:40:32Z</time>
      </trkpt>
      <trkpt lat="45.95569" lon="4.93571">
        <ele>289</ele>
        <time>2016-08-25T09:40:33Z</time>
      </trkpt>
      <trkpt lat="45.9557" lon="4.93563">
        <ele>289</ele>
        <time>2016-08-25T09:40:34Z</time>
      </trkpt>
      <trkpt lat="45.95571" lon="4.93556">
        <ele>289</ele>
        <time>2016-08-25T09:40:35Z</time>
      </trkpt>
      <trkpt lat="45.95571" lon="4.93549">
        <ele>289</ele>
        <time>2016-08-25T09:40:36Z</time>
      </trkpt>
      <trkpt lat="45.95571" lon="4.93542">
        <ele>290</ele>
        <time>2016-08-25T09:40:37Z</time>
      </trkpt>
      <trkpt lat="45.95571" lon="4.93534">
        <ele>290</ele>
        <time>2016-08-25T09:40:38Z</time>
      </trkpt>
      <trkpt lat="45.95571" lon="4.93527">
        <ele>290</ele>
        <time>2016-08-25T09:40:39Z</time>
      </trkpt>
      <trkpt lat="45.95571" lon="4.93521">
        <ele>290</ele>
        <time>2016-08-25T09:40:40Z</time>
      </trkpt>
      <trkpt lat="45.9557" lon="4.93514">
        <ele>290</ele>
        <time>2016-08-25T09:40:41Z</time>
      </trkpt>
      <trkpt lat="45.95568" lon="4.93507">
        <ele>290</ele>
        <time>2016-08-25T09:40:42Z</time>
      </trkpt>
      <trkpt lat="45.95566" lon="4.935">
        <ele>290</ele>
        <time>2016-08-25T09:40:43Z</time>
      </trkpt>
      <trkpt lat="45.95564" lon="4.93494">
        <ele>290</ele>
        <time>2016-08-25T09:40:44Z</time>
      </trkpt>
      <trkpt lat="45.95561" lon="4.93487">
        <ele>289</ele>
        <time>2016-08-25T09:40:45Z</time>
      </trkpt>
      <trkpt lat="45.95559" lon="4.9348">
        <ele>289</ele>
        <time>2016-08-25T09:40:46Z</time>
      </trkpt>
      <trkpt lat="45.95556" lon="4.93474">
        <ele>289</ele>
        <time>2016-08-25T09:40:47Z</time>
      </trkpt>
      <trkpt lat="45.95553" lon="4.93467">
        <ele>289</ele>
        <time>2016-08-25T09:40:48Z</time>
      </trkpt>
      <trkpt lat="45.95551" lon="4.93461">
        <ele>289</ele>
        <time>2016-08-25T09:40:49Z</time>
      </trkpt>
      <trkpt lat="45.95547" lon="4.93451">
        <ele>289</ele>
        <time>2016-08-25T09:40:51Z</time>
      </trkpt>
      <trkpt lat="45.95544" lon="4.93445">
        <ele>289</ele>
        <time>2016-08-25T09:40:52Z</time>
      </trkpt>
      <trkpt lat="45.95542" lon="4.93439">
        <ele>289</ele>
        <time>2016-08-25T09:40:53Z</time>
      </trkpt>
      <trkpt lat="45.95539" lon="4.93433">
        <ele>289</ele>
        <time>2016-08-25T09:40:54Z</time>
      </trkpt>
      <trkpt lat="45.95537" lon="4.93427">
        <ele>289</ele>
        <time>2016-08-25T09:40:55Z</time>
      </trkpt>
      <trkpt lat="45.95534" lon="4.93421">
        <ele>289</ele>
        <time>2016-08-25T09:40:56Z</time>
      </trkpt>
      <trkpt lat="45.95532" lon="4.93415">
        <ele>289</ele>
        <time>2016-08-25T09:40:57Z</time>
      </trkpt>
      <trkpt lat="45.95529" lon="4.93408">
        <ele>289</ele>
        <time>2016-08-25T09:40:58Z</time>
      </trkpt>
      <trkpt lat="45.95527" lon="4.93402">
        <ele>289</ele>
        <time>2016-08-25T09:40:59Z</time>
      </trkpt>
      <trkpt lat="45.95524" lon="4.93396">
        <ele>289</ele>
        <time>2016-08-25T09:41:00Z</time>
      </trkpt>
      <trkpt lat="45.95522" lon="4.9339">
        <ele>289</ele>
        <time>2016-08-25T09:41:01Z</time>
      </trkpt>
      <trkpt lat="45.95519" lon="4.93383">
        <ele>289</ele>
        <time>2016-08-25T09:41:02Z</time>
      </trkpt>
      <trkpt lat="45.95516" lon="4.93377">
        <ele>289</ele>
        <time>2016-08-25T09:41:03Z</time>
      </trkpt>
      <trkpt lat="45.95513" lon="4.93371">
        <ele>289</ele>
        <time>2016-08-25T09:41:04Z</time>
      </trkpt>
      <trkpt lat="45.95511" lon="4.93365">
        <ele>289</ele>
        <time>2016-08-25T09:41:05Z</time>
      </trkpt>
      <trkpt lat="45.95508" lon="4.93359">
        <ele>289</ele>
        <time>2016-08-25T09:41:06Z</time>
      </trkpt>
      <trkpt lat="45.95505" lon="4.93353">
        <ele>289</ele>
        <time>2016-08-25T09:41:07Z</time>
      </trkpt>
      <trkpt lat="45.95503" lon="4.93347">
        <ele>289</ele>
        <time>2016-08-25T09:41:08Z</time>
      </trkpt>
      <trkpt lat="45.955" lon="4.93341">
        <ele>289</ele>
        <time>2016-08-25T09:41:09Z</time>
      </trkpt>
      <trkpt lat="45.95497" lon="4.93336">
        <ele>289</ele>
        <time>2016-08-25T09:41:10Z</time>
      </trkpt>
      <trkpt lat="45.95494" lon="4.9333">
        <ele>289</ele>
        <time>2016-08-25T09:41:11Z</time>
      </trkpt>
      <trkpt lat="45.95492" lon="4.93323">
        <ele>289</ele>
        <time>2016-08-25T09:41:12Z</time>
      </trkpt>
      <trkpt lat="45.95489" lon="4.93317">
        <ele>290</ele>
        <time>2016-08-25T09:41:13Z</time>
      </trkpt>
      <trkpt lat="45.95487" lon="4.93311">
        <ele>290</ele>
        <time>2016-08-25T09:41:14Z</time>
      </trkpt>
      <trkpt lat="45.95482" lon="4.933">
        <ele>290</ele>
        <time>2016-08-25T09:41:16Z</time>
      </trkpt>
      <trkpt lat="45.9548" lon="4.93294">
        <ele>290</ele>
        <time>2016-08-25T09:41:17Z</time>
      </trkpt>
      <trkpt lat="45.95476" lon="4.93283">
        <ele>290</ele>
        <time>2016-08-25T09:41:19Z</time>
      </trkpt>
      <trkpt lat="45.95473" lon="4.93278">
        <ele>290</ele>
        <time>2016-08-25T09:41:20Z</time>
      </trkpt>
      <trkpt lat="45.95469" lon="4.93268">
        <ele>290</ele>
        <time>2016-08-25T09:41:22Z</time>
      </trkpt>
      <trkpt lat="45.95467" lon="4.93262">
        <ele>290</ele>
        <time>2016-08-25T09:41:23Z</time>
      </trkpt>
      <trkpt lat="45.95463" lon="4.93252">
        <ele>290</ele>
        <time>2016-08-25T09:41:25Z</time>
      </trkpt>
      <trkpt lat="45.95461" lon="4.93247">
        <ele>290</ele>
        <time>2016-08-25T09:41:26Z</time>
      </trkpt>
      <trkpt lat="45.95456" lon="4.93236">
        <ele>291</ele>
        <time>2016-08-25T09:41:28Z</time>
      </trkpt>
      <trkpt lat="45.95454" lon="4.9323">
        <ele>291</ele>
        <time>2016-08-25T09:41:29Z</time>
      </trkpt>
      <trkpt lat="45.95449" lon="4.93219">
        <ele>291</ele>
        <time>2016-08-25T09:41:31Z</time>
      </trkpt>
      <trkpt lat="45.95447" lon="4.93213">
        <ele>291</ele>
        <time>2016-08-25T09:41:32Z</time>
      </trkpt>
      <trkpt lat="45.95446" lon="4.93207">
        <ele>291</ele>
        <time>2016-08-25T09:41:33Z</time>
      </trkpt>
      <trkpt lat="45.95445" lon="4.93201">
        <ele>291</ele>
        <time>2016-08-25T09:41:34Z</time>
      </trkpt>
      <trkpt lat="45.95446" lon="4.93193">
        <ele>291</ele>
        <time>2016-08-25T09:41:35Z</time>
      </trkpt>
      <trkpt lat="45.95447" lon="4.93186">
        <ele>291</ele>
        <time>2016-08-25T09:41:36Z</time>
      </trkpt>
      <trkpt lat="45.95453" lon="4.93177">
        <ele>291</ele>
        <time>2016-08-25T09:41:38Z</time>
      </trkpt>
      <trkpt lat="45.95457" lon="4.93172">
        <ele>291</ele>
        <time>2016-08-25T09:41:39Z</time>
      </trkpt>
      <trkpt lat="45.95461" lon="4.93168">
        <ele>290</ele>
        <time>2016-08-25T09:41:40Z</time>
      </trkpt>
      <trkpt lat="45.95465" lon="4.93165">
        <ele>290</ele>
        <time>2016-08-25T09:41:41Z</time>
      </trkpt>
      <trkpt lat="45.95472" lon="4.93158">
        <ele>290</ele>
        <time>2016-08-25T09:41:43Z</time>
      </trkpt>
      <trkpt lat="45.95476" lon="4.93155">
        <ele>290</ele>
        <time>2016-08-25T09:41:44Z</time>
      </trkpt>
      <trkpt lat="45.95484" lon="4.9315">
        <ele>290</ele>
        <time>2016-08-25T09:41:46Z</time>
      </trkpt>
      <trkpt lat="45.95488" lon="4.93147">
        <ele>290</ele>
        <time>2016-08-25T09:41:47Z</time>
      </trkpt>
      <trkpt lat="45.95495" lon="4.9314">
        <ele>290</ele>
        <time>2016-08-25T09:41:49Z</time>
      </trkpt>
      <trkpt lat="45.95499" lon="4.93136">
        <ele>290</ele>
        <time>2016-08-25T09:41:50Z</time>
      </trkpt>
      <trkpt lat="45.95505" lon="4.9313">
        <ele>289</ele>
        <time>2016-08-25T09:41:52Z</time>
      </trkpt>
      <trkpt lat="45.95509" lon="4.93127">
        <ele>289</ele>
        <time>2016-08-25T09:41:53Z</time>
      </trkpt>
      <trkpt lat="45.95516" lon="4.9312">
        <ele>289</ele>
        <time>2016-08-25T09:41:55Z</time>
      </trkpt>
      <trkpt lat="45.95519" lon="4.93117">
        <ele>289</ele>
        <time>2016-08-25T09:41:56Z</time>
      </trkpt>
      <trkpt lat="45.95523" lon="4.93113">
        <ele>289</ele>
        <time>2016-08-25T09:41:57Z</time>
      </trkpt>
      <trkpt lat="45.95527" lon="4.93109">
        <ele>289</ele>
        <time>2016-08-25T09:41:58Z</time>
      </trkpt>
      <trkpt lat="45.9553" lon="4.93104">
        <ele>289</ele>
        <time>2016-08-25T09:41:59Z</time>
      </trkpt>
      <trkpt lat="45.95533" lon="4.93099">
        <ele>289</ele>
        <time>2016-08-25T09:42:00Z</time>
      </trkpt>
      <trkpt lat="45.95536" lon="4.93093">
        <ele>290</ele>
        <time>2016-08-25T09:42:01Z</time>
      </trkpt>
      <trkpt lat="45.95539" lon="4.93087">
        <ele>290</ele>
        <time>2016-08-25T09:42:02Z</time>
      </trkpt>
      <trkpt lat="45.95541" lon="4.9308">
        <ele>290</ele>
        <time>2016-08-25T09:42:03Z</time>
      </trkpt>
      <trkpt lat="45.95543" lon="4.93073">
        <ele>290</ele>
        <time>2016-08-25T09:42:04Z</time>
      </trkpt>
      <trkpt lat="45.95545" lon="4.93066">
        <ele>290</ele>
        <time>2016-08-25T09:42:05Z</time>
      </trkpt>
      <trkpt lat="45.95546" lon="4.93059">
        <ele>290</ele>
        <time>2016-08-25T09:42:06Z</time>
      </trkpt>
      <trkpt lat="45.95547" lon="4.93052">
        <ele>290</ele>
        <time>2016-08-25T09:42:07Z</time>
      </trkpt>
      <trkpt lat="45.95548" lon="4.93045">
        <ele>291</ele>
        <time>2016-08-25T09:42:08Z</time>
      </trkpt>
      <trkpt lat="45.95549" lon="4.93039">
        <ele>291</ele>
        <time>2016-08-25T09:42:09Z</time>
      </trkpt>
      <trkpt lat="45.9555" lon="4.93032">
        <ele>291</ele>
        <time>2016-08-25T09:42:10Z</time>
      </trkpt>
      <trkpt lat="45.95551" lon="4.93026">
        <ele>291</ele>
        <time>2016-08-25T09:42:11Z</time>
      </trkpt>
      <trkpt lat="45.95552" lon="4.93019">
        <ele>291</ele>
        <time>2016-08-25T09:42:12Z</time>
      </trkpt>
      <trkpt lat="45.95553" lon="4.93012">
        <ele>291</ele>
        <time>2016-08-25T09:42:13Z</time>
      </trkpt>
      <trkpt lat="45.95554" lon="4.93005">
        <ele>291</ele>
        <time>2016-08-25T09:42:14Z</time>
      </trkpt>
      <trkpt lat="45.95554" lon="4.92999">
        <ele>292</ele>
        <time>2016-08-25T09:42:15Z</time>
      </trkpt>
      <trkpt lat="45.95555" lon="4.92991">
        <ele>292</ele>
        <time>2016-08-25T09:42:16Z</time>
      </trkpt>
      <trkpt lat="45.95556" lon="4.92985">
        <ele>292</ele>
        <time>2016-08-25T09:42:17Z</time>
      </trkpt>
      <trkpt lat="45.95557" lon="4.92977">
        <ele>292</ele>
        <time>2016-08-25T09:42:18Z</time>
      </trkpt>
      <trkpt lat="45.95558" lon="4.92969">
        <ele>292</ele>
        <time>2016-08-25T09:42:19Z</time>
      </trkpt>
      <trkpt lat="45.95559" lon="4.92962">
        <ele>292</ele>
        <time>2016-08-25T09:42:20Z</time>
      </trkpt>
      <trkpt lat="45.9556" lon="4.92954">
        <ele>292</ele>
        <time>2016-08-25T09:42:21Z</time>
      </trkpt>
      <trkpt lat="45.95561" lon="4.92946">
        <ele>292</ele>
        <time>2016-08-25T09:42:22Z</time>
      </trkpt>
      <trkpt lat="45.95562" lon="4.92938">
        <ele>292</ele>
        <time>2016-08-25T09:42:23Z</time>
      </trkpt>
      <trkpt lat="45.95564" lon="4.9293">
        <ele>293</ele>
        <time>2016-08-25T09:42:24Z</time>
      </trkpt>
      <trkpt lat="45.95565" lon="4.92923">
        <ele>293</ele>
        <time>2016-08-25T09:42:25Z</time>
      </trkpt>
      <trkpt lat="45.95566" lon="4.92915">
        <ele>294</ele>
        <time>2016-08-25T09:42:26Z</time>
      </trkpt>
      <trkpt lat="45.95568" lon="4.92907">
        <ele>294</ele>
        <time>2016-08-25T09:42:27Z</time>
      </trkpt>
      <trkpt lat="45.95569" lon="4.929">
        <ele>294</ele>
        <time>2016-08-25T09:42:28Z</time>
      </trkpt>
      <trkpt lat="45.9557" lon="4.92892">
        <ele>294</ele>
        <time>2016-08-25T09:42:29Z</time>
      </trkpt>
      <trkpt lat="45.95572" lon="4.92885">
        <ele>294</ele>
        <time>2016-08-25T09:42:30Z</time>
      </trkpt>
      <trkpt lat="45.95573" lon="4.92878">
        <ele>294</ele>
        <time>2016-08-25T09:42:31Z</time>
      </trkpt>
      <trkpt lat="45.95574" lon="4.9287">
        <ele>294</ele>
        <time>2016-08-25T09:42:32Z</time>
      </trkpt>
      <trkpt lat="45.95576" lon="4.92863">
        <ele>294</ele>
        <time>2016-08-25T09:42:33Z</time>
      </trkpt>
      <trkpt lat="45.95577" lon="4.92856">
        <ele>294</ele>
        <time>2016-08-25T09:42:34Z</time>
      </trkpt>
      <trkpt lat="45.95579" lon="4.92848">
        <ele>294</ele>
        <time>2016-08-25T09:42:35Z</time>
      </trkpt>
      <trkpt lat="45.9558" lon="4.92841">
        <ele>295</ele>
        <time>2016-08-25T09:42:36Z</time>
      </trkpt>
      <trkpt lat="45.95581" lon="4.92833">
        <ele>295</ele>
        <time>2016-08-25T09:42:37Z</time>
      </trkpt>
      <trkpt lat="45.95582" lon="4.92825">
        <ele>295</ele>
        <time>2016-08-25T09:42:38Z</time>
      </trkpt>
      <trkpt lat="45.95583" lon="4.92818">
        <ele>295</ele>
        <time>2016-08-25T09:42:39Z</time>
      </trkpt>
      <trkpt lat="45.95585" lon="4.9281">
        <ele>295</ele>
        <time>2016-08-25T09:42:40Z</time>
      </trkpt>
      <trkpt lat="45.95586" lon="4.92802">
        <ele>295</ele>
        <time>2016-08-25T09:42:41Z</time>
      </trkpt>
      <trkpt lat="45.95587" lon="4.92795">
        <ele>295</ele>
        <time>2016-08-25T09:42:42Z</time>
      </trkpt>
      <trkpt lat="45.95588" lon="4.92787">
        <ele>295</ele>
        <time>2016-08-25T09:42:43Z</time>
      </trkpt>
      <trkpt lat="45.9559" lon="4.92779">
        <ele>295</ele>
        <time>2016-08-25T09:42:44Z</time>
      </trkpt>
      <trkpt lat="45.95591" lon="4.92771">
        <ele>295</ele>
        <time>2016-08-25T09:42:45Z</time>
      </trkpt>
      <trkpt lat="45.95592" lon="4.92763">
        <ele>295</ele>
        <time>2016-08-25T09:42:46Z</time>
      </trkpt>
      <trkpt lat="45.95593" lon="4.92755">
        <ele>295</ele>
        <time>2016-08-25T09:42:47Z</time>
      </trkpt>
      <trkpt lat="45.95594" lon="4.92747">
        <ele>295</ele>
        <time>2016-08-25T09:42:48Z</time>
      </trkpt>
      <trkpt lat="45.95595" lon="4.92738">
        <ele>295</ele>
        <time>2016-08-25T09:42:49Z</time>
      </trkpt>
      <trkpt lat="45.95596" lon="4.9273">
        <ele>295</ele>
        <time>2016-08-25T09:42:50Z</time>
      </trkpt>
      <trkpt lat="45.95598" lon="4.92721">
        <ele>295</ele>
        <time>2016-08-25T09:42:51Z</time>
      </trkpt>
      <trkpt lat="45.95599" lon="4.92713">
        <ele>295</ele>
        <time>2016-08-25T09:42:52Z</time>
      </trkpt>
      <trkpt lat="45.95601" lon="4.92704">
        <ele>295</ele>
        <time>2016-08-25T09:42:53Z</time>
      </trkpt>
      <trkpt lat="45.95602" lon="4.92696">
        <ele>295</ele>
        <time>2016-08-25T09:42:54Z</time>
      </trkpt>
      <trkpt lat="45.95604" lon="4.92687">
        <ele>295</ele>
        <time>2016-08-25T09:42:55Z</time>
      </trkpt>
      <trkpt lat="45.95606" lon="4.92679">
        <ele>295</ele>
        <time>2016-08-25T09:42:56Z</time>
      </trkpt>
      <trkpt lat="45.95607" lon="4.92671">
        <ele>294</ele>
        <time>2016-08-25T09:42:57Z</time>
      </trkpt>
      <trkpt lat="45.95609" lon="4.92663">
        <ele>294</ele>
        <time>2016-08-25T09:42:58Z</time>
      </trkpt>
      <trkpt lat="45.95611" lon="4.92655">
        <ele>294</ele>
        <time>2016-08-25T09:42:59Z</time>
      </trkpt>
      <trkpt lat="45.95612" lon="4.92646">
        <ele>294</ele>
        <time>2016-08-25T09:43:00Z</time>
      </trkpt>
      <trkpt lat="45.95614" lon="4.92638">
        <ele>294</ele>
        <time>2016-08-25T09:43:01Z</time>
      </trkpt>
      <trkpt lat="45.95615" lon="4.9263">
        <ele>294</ele>
        <time>2016-08-25T09:43:02Z</time>
      </trkpt>
      <trkpt lat="45.95617" lon="4.92623">
        <ele>294</ele>
        <time>2016-08-25T09:43:03Z</time>
      </trkpt>
      <trkpt lat="45.95619" lon="4.92615">
        <ele>294</ele>
        <time>2016-08-25T09:43:04Z</time>
      </trkpt>
      <trkpt lat="45.9562" lon="4.92607">
        <ele>294</ele>
        <time>2016-08-25T09:43:05Z</time>
      </trkpt>
      <trkpt lat="45.95621" lon="4.92599">
        <ele>294</ele>
        <time>2016-08-25T09:43:06Z</time>
      </trkpt>
      <trkpt lat="45.95622" lon="4.9259">
        <ele>294</ele>
        <time>2016-08-25T09:43:07Z</time>
      </trkpt>
      <trkpt lat="45.95623" lon="4.9258">
        <ele>294</ele>
        <time>2016-08-25T09:43:08Z</time>
      </trkpt>
      <trkpt lat="45.95624" lon="4.92571">
        <ele>294</ele>
        <time>2016-08-25T09:43:09Z</time>
      </trkpt>
      <trkpt lat="45.95625" lon="4.92562">
        <ele>294</ele>
        <time>2016-08-25T09:43:10Z</time>
      </trkpt>
      <trkpt lat="45.95626" lon="4.92553">
        <ele>294</ele>
        <time>2016-08-25T09:43:11Z</time>
      </trkpt>
      <trkpt lat="45.95628" lon="4.92545">
        <ele>294</ele>
        <time>2016-08-25T09:43:12Z</time>
      </trkpt>
      <trkpt lat="45.95629" lon="4.92537">
        <ele>294</ele>
        <time>2016-08-25T09:43:13Z</time>
      </trkpt>
      <trkpt lat="45.9563" lon="4.92528">
        <ele>294</ele>
        <time>2016-08-25T09:43:14Z</time>
      </trkpt>
      <trkpt lat="45.95631" lon="4.92521">
        <ele>294</ele>
        <time>2016-08-25T09:43:15Z</time>
      </trkpt>
      <trkpt lat="45.95633" lon="4.92513">
        <ele>294</ele>
        <time>2016-08-25T09:43:16Z</time>
      </trkpt>
      <trkpt lat="45.95634" lon="4.92506">
        <ele>294</ele>
        <time>2016-08-25T09:43:17Z</time>
      </trkpt>
      <trkpt lat="45.95635" lon="4.92498">
        <ele>293</ele>
        <time>2016-08-25T09:43:18Z</time>
      </trkpt>
      <trkpt lat="45.95635" lon="4.9249">
        <ele>293</ele>
        <time>2016-08-25T09:43:19Z</time>
      </trkpt>
      <trkpt lat="45.95636" lon="4.92482">
        <ele>293</ele>
        <time>2016-08-25T09:43:20Z</time>
      </trkpt>
      <trkpt lat="45.95638" lon="4.92474">
        <ele>293</ele>
        <time>2016-08-25T09:43:21Z</time>
      </trkpt>
      <trkpt lat="45.95639" lon="4.92465">
        <ele>293</ele>
        <time>2016-08-25T09:43:22Z</time>
      </trkpt>
      <trkpt lat="45.95641" lon="4.92457">
        <ele>293</ele>
        <time>2016-08-25T09:43:23Z</time>
      </trkpt>
      <trkpt lat="45.95642" lon="4.92449">
        <ele>293</ele>
        <time>2016-08-25T09:43:24Z</time>
      </trkpt>
      <trkpt lat="45.95644" lon="4.92441">
        <ele>293</ele>
        <time>2016-08-25T09:43:25Z</time>
      </trkpt>
      <trkpt lat="45.95645" lon="4.92433">
        <ele>293</ele>
        <time>2016-08-25T09:43:26Z</time>
      </trkpt>
      <trkpt lat="45.95646" lon="4.92426">
        <ele>293</ele>
        <time>2016-08-25T09:43:27Z</time>
      </trkpt>
      <trkpt lat="45.95647" lon="4.92418">
        <ele>293</ele>
        <time>2016-08-25T09:43:28Z</time>
      </trkpt>
      <trkpt lat="45.95648" lon="4.9241">
        <ele>293</ele>
        <time>2016-08-25T09:43:29Z</time>
      </trkpt>
      <trkpt lat="45.95649" lon="4.92403">
        <ele>293</ele>
        <time>2016-08-25T09:43:30Z</time>
      </trkpt>
      <trkpt lat="45.9565" lon="4.92396">
        <ele>293</ele>
        <time>2016-08-25T09:43:31Z</time>
      </trkpt>
      <trkpt lat="45.95651" lon="4.92387">
        <ele>293</ele>
        <time>2016-08-25T09:43:32Z</time>
      </trkpt>
      <trkpt lat="45.95652" lon="4.92379">
        <ele>293</ele>
        <time>2016-08-25T09:43:33Z</time>
      </trkpt>
      <trkpt lat="45.95653" lon="4.9237">
        <ele>293</ele>
        <time>2016-08-25T09:43:34Z</time>
      </trkpt>
      <trkpt lat="45.95653" lon="4.92361">
        <ele>293</ele>
        <time>2016-08-25T09:43:35Z</time>
      </trkpt>
      <trkpt lat="45.95654" lon="4.92353">
        <ele>293</ele>
        <time>2016-08-25T09:43:36Z</time>
      </trkpt>
      <trkpt lat="45.95655" lon="4.92343">
        <ele>293</ele>
        <time>2016-08-25T09:43:37Z</time>
      </trkpt>
      <trkpt lat="45.95656" lon="4.92333">
        <ele>293</ele>
        <time>2016-08-25T09:43:38Z</time>
      </trkpt>
      <trkpt lat="45.95657" lon="4.92324">
        <ele>293</ele>
        <time>2016-08-25T09:43:39Z</time>
      </trkpt>
      <trkpt lat="45.95657" lon="4.92315">
        <ele>293</ele>
        <time>2016-08-25T09:43:40Z</time>
      </trkpt>
      <trkpt lat="45.95657" lon="4.92306">
        <ele>293</ele>
        <time>2016-08-25T09:43:41Z</time>
      </trkpt>
      <trkpt lat="45.95657" lon="4.92298">
        <ele>293</ele>
        <time>2016-08-25T09:43:42Z</time>
      </trkpt>
      <trkpt lat="45.95658" lon="4.9229">
        <ele>293</ele>
        <time>2016-08-25T09:43:43Z</time>
      </trkpt>
      <trkpt lat="45.95658" lon="4.92282">
        <ele>293</ele>
        <time>2016-08-25T09:43:44Z</time>
      </trkpt>
      <trkpt lat="45.95659" lon="4.92275">
        <ele>293</ele>
        <time>2016-08-25T09:43:45Z</time>
      </trkpt>
      <trkpt lat="45.95659" lon="4.92268">
        <ele>294</ele>
        <time>2016-08-25T09:43:46Z</time>
      </trkpt>
      <trkpt lat="45.95659" lon="4.92261">
        <ele>294</ele>
        <time>2016-08-25T09:43:47Z</time>
      </trkpt>
      <trkpt lat="45.9566" lon="4.92255">
        <ele>294</ele>
        <time>2016-08-25T09:43:48Z</time>
      </trkpt>
      <trkpt lat="45.9566" lon="4.92248">
        <ele>294</ele>
        <time>2016-08-25T09:43:49Z</time>
      </trkpt>
      <trkpt lat="45.9566" lon="4.92241">
        <ele>294</ele>
        <time>2016-08-25T09:43:50Z</time>
      </trkpt>
      <trkpt lat="45.9566" lon="4.92233">
        <ele>294</ele>
        <time>2016-08-25T09:43:51Z</time>
      </trkpt>
      <trkpt lat="45.95661" lon="4.92225">
        <ele>294</ele>
        <time>2016-08-25T09:43:52Z</time>
      </trkpt>
      <trkpt lat="45.95661" lon="4.92217">
        <ele>294</ele>
        <time>2016-08-25T09:43:53Z</time>
      </trkpt>
      <trkpt lat="45.95661" lon="4.92209">
        <ele>294</ele>
        <time>2016-08-25T09:43:54Z</time>
      </trkpt>
      <trkpt lat="45.95662" lon="4.92201">
        <ele>295</ele>
        <time>2016-08-25T09:43:55Z</time>
      </trkpt>
      <trkpt lat="45.95662" lon="4.92193">
        <ele>295</ele>
        <time>2016-08-25T09:43:56Z</time>
      </trkpt>
      <trkpt lat="45.95662" lon="4.92185">
        <ele>295</ele>
        <time>2016-08-25T09:43:57Z</time>
      </trkpt>
      <trkpt lat="45.95663" lon="4.92177">
        <ele>296</ele>
        <time>2016-08-25T09:43:58Z</time>
      </trkpt>
      <trkpt lat="45.95663" lon="4.92169">
        <ele>296</ele>
        <time>2016-08-25T09:43:59Z</time>
      </trkpt>
      <trkpt lat="45.95664" lon="4.92162">
        <ele>297</ele>
        <time>2016-08-25T09:44:00Z</time>
      </trkpt>
      <trkpt lat="45.95664" lon="4.92155">
        <ele>296</ele>
        <time>2016-08-25T09:44:01Z</time>
      </trkpt>
      <trkpt lat="45.95665" lon="4.92148">
        <ele>296</ele>
        <time>2016-08-25T09:44:02Z</time>
      </trkpt>
      <trkpt lat="45.95665" lon="4.92141">
        <ele>296</ele>
        <time>2016-08-25T09:44:03Z</time>
      </trkpt>
      <trkpt lat="45.95665" lon="4.92134">
        <ele>296</ele>
        <time>2016-08-25T09:44:04Z</time>
      </trkpt>
      <trkpt lat="45.95665" lon="4.92127">
        <ele>296</ele>
        <time>2016-08-25T09:44:05Z</time>
      </trkpt>
      <trkpt lat="45.95666" lon="4.92121">
        <ele>296</ele>
        <time>2016-08-25T09:44:06Z</time>
      </trkpt>
      <trkpt lat="45.95666" lon="4.92113">
        <ele>296</ele>
        <time>2016-08-25T09:44:07Z</time>
      </trkpt>
      <trkpt lat="45.95666" lon="4.92106">
        <ele>297</ele>
        <time>2016-08-25T09:44:08Z</time>
      </trkpt>
      <trkpt lat="45.95666" lon="4.92099">
        <ele>297</ele>
        <time>2016-08-25T09:44:09Z</time>
      </trkpt>
      <trkpt lat="45.95666" lon="4.92092">
        <ele>298</ele>
        <time>2016-08-25T09:44:10Z</time>
      </trkpt>
      <trkpt lat="45.95667" lon="4.92084">
        <ele>299</ele>
        <time>2016-08-25T09:44:11Z</time>
      </trkpt>
      <trkpt lat="45.95667" lon="4.92076">
        <ele>300</ele>
        <time>2016-08-25T09:44:12Z</time>
      </trkpt>
      <trkpt lat="45.95667" lon="4.92069">
        <ele>300</ele>
        <time>2016-08-25T09:44:13Z</time>
      </trkpt>
      <trkpt lat="45.95668" lon="4.92062">
        <ele>300</ele>
        <time>2016-08-25T09:44:14Z</time>
      </trkpt>
      <trkpt lat="45.95668" lon="4.92055">
        <ele>300</ele>
        <time>2016-08-25T09:44:15Z</time>
      </trkpt>
      <trkpt lat="45.95669" lon="4.92048">
        <ele>300</ele>
        <time>2016-08-25T09:44:16Z</time>
      </trkpt>
      <trkpt lat="45.95669" lon="4.92041">
        <ele>300</ele>
        <time>2016-08-25T09:44:17Z</time>
      </trkpt>
      <trkpt lat="45.95669" lon="4.92034">
        <ele>300</ele>
        <time>2016-08-25T09:44:18Z</time>
      </trkpt>
      <trkpt lat="45.95668" lon="4.92027">
        <ele>300</ele>
        <time>2016-08-25T09:44:19Z</time>
      </trkpt>
      <trkpt lat="45.95665" lon="4.92021">
        <ele>297</ele>
        <time>2016-08-25T09:44:20Z</time>
      </trkpt>
      <trkpt lat="45.95662" lon="4.92016">
        <ele>297</ele>
        <time>2016-08-25T09:44:21Z</time>
      </trkpt>
      <trkpt lat="45.95658" lon="4.9201">
        <ele>297</ele>
        <time>2016-08-25T09:44:22Z</time>
      </trkpt>
      <trkpt lat="45.95654" lon="4.92004">
        <ele>297</ele>
        <time>2016-08-25T09:44:23Z</time>
      </trkpt>
      <trkpt lat="45.95651" lon="4.91998">
        <ele>296</ele>
        <time>2016-08-25T09:44:24Z</time>
      </trkpt>
      <trkpt lat="45.95647" lon="4.91993">
        <ele>296</ele>
        <time>2016-08-25T09:44:25Z</time>
      </trkpt>
      <trkpt lat="45.95643" lon="4.91988">
        <ele>296</ele>
        <time>2016-08-25T09:44:26Z</time>
      </trkpt>
      <trkpt lat="45.9564" lon="4.91983">
        <ele>296</ele>
        <time>2016-08-25T09:44:27Z</time>
      </trkpt>
      <trkpt lat="45.95637" lon="4.91978">
        <ele>295</ele>
        <time>2016-08-25T09:44:28Z</time>
      </trkpt>
      <trkpt lat="45.95633" lon="4.91972">
        <ele>295</ele>
        <time>2016-08-25T09:44:29Z</time>
      </trkpt>
      <trkpt lat="45.9563" lon="4.91967">
        <ele>295</ele>
        <time>2016-08-25T09:44:30Z</time>
      </trkpt>
      <trkpt lat="45.95625" lon="4.91962">
        <ele>295</ele>
        <time>2016-08-25T09:44:31Z</time>
      </trkpt>
      <trkpt lat="45.95621" lon="4.91958">
        <ele>295</ele>
        <time>2016-08-25T09:44:32Z</time>
      </trkpt>
      <trkpt lat="45.95617" lon="4.91954">
        <ele>295</ele>
        <time>2016-08-25T09:44:33Z</time>
      </trkpt>
      <trkpt lat="45.95613" lon="4.91949">
        <ele>294</ele>
        <time>2016-08-25T09:44:34Z</time>
      </trkpt>
      <trkpt lat="45.95608" lon="4.91945">
        <ele>294</ele>
        <time>2016-08-25T09:44:35Z</time>
      </trkpt>
      <trkpt lat="45.95604" lon="4.91941">
        <ele>294</ele>
        <time>2016-08-25T09:44:36Z</time>
      </trkpt>
      <trkpt lat="45.95598" lon="4.91935">
        <ele>294</ele>
        <time>2016-08-25T09:44:38Z</time>
      </trkpt>
      <trkpt lat="45.95594" lon="4.91932">
        <ele>294</ele>
        <time>2016-08-25T09:44:39Z</time>
      </trkpt>
      <trkpt lat="45.9559" lon="4.91928">
        <ele>294</ele>
        <time>2016-08-25T09:44:40Z</time>
      </trkpt>
      <trkpt lat="45.95586" lon="4.91924">
        <ele>293</ele>
        <time>2016-08-25T09:44:41Z</time>
      </trkpt>
      <trkpt lat="45.95582" lon="4.91921">
        <ele>293</ele>
        <time>2016-08-25T09:44:42Z</time>
      </trkpt>
      <trkpt lat="45.95578" lon="4.91917">
        <ele>293</ele>
        <time>2016-08-25T09:44:43Z</time>
      </trkpt>
      <trkpt lat="45.95572" lon="4.91914">
        <ele>294</ele>
        <time>2016-08-25T09:44:44Z</time>
      </trkpt>
      <trkpt lat="45.95566" lon="4.9191">
        <ele>294</ele>
        <time>2016-08-25T09:44:45Z</time>
      </trkpt>
      <trkpt lat="45.95559" lon="4.91906">
        <ele>294</ele>
        <time>2016-08-25T09:44:46Z</time>
      </trkpt>
      <trkpt lat="45.95554" lon="4.91903">
        <ele>294</ele>
        <time>2016-08-25T09:44:47Z</time>
      </trkpt>
      <trkpt lat="45.95549" lon="4.919">
        <ele>294</ele>
        <time>2016-08-25T09:44:48Z</time>
      </trkpt>
      <trkpt lat="45.95545" lon="4.91896">
        <ele>294</ele>
        <time>2016-08-25T09:44:49Z</time>
      </trkpt>
      <trkpt lat="45.9554" lon="4.91892">
        <ele>294</ele>
        <time>2016-08-25T09:44:50Z</time>
      </trkpt>
      <trkpt lat="45.95536" lon="4.91889">
        <ele>294</ele>
        <time>2016-08-25T09:44:51Z</time>
      </trkpt>
      <trkpt lat="45.95531" lon="4.91886">
        <ele>294</ele>
        <time>2016-08-25T09:44:52Z</time>
      </trkpt>
      <trkpt lat="45.95526" lon="4.91883">
        <ele>294</ele>
        <time>2016-08-25T09:44:53Z</time>
      </trkpt>
      <trkpt lat="45.95521" lon="4.91879">
        <ele>294</ele>
        <time>2016-08-25T09:44:54Z</time>
      </trkpt>
      <trkpt lat="45.95516" lon="4.91875">
        <ele>294</ele>
        <time>2016-08-25T09:44:55Z</time>
      </trkpt>
      <trkpt lat="45.95511" lon="4.91871">
        <ele>295</ele>
        <time>2016-08-25T09:44:56Z</time>
      </trkpt>
      <trkpt lat="45.95506" lon="4.91868">
        <ele>295</ele>
        <time>2016-08-25T09:44:57Z</time>
      </trkpt>
      <trkpt lat="45.955" lon="4.91863">
        <ele>295</ele>
        <time>2016-08-25T09:44:58Z</time>
      </trkpt>
      <trkpt lat="45.95495" lon="4.91859">
        <ele>295</ele>
        <time>2016-08-25T09:44:59Z</time>
      </trkpt>
      <trkpt lat="45.9549" lon="4.91854">
        <ele>295</ele>
        <time>2016-08-25T09:45:00Z</time>
      </trkpt>
      <trkpt lat="45.95485" lon="4.9185">
        <ele>295</ele>
        <time>2016-08-25T09:45:01Z</time>
      </trkpt>
      <trkpt lat="45.95479" lon="4.91845">
        <ele>295</ele>
        <time>2016-08-25T09:45:02Z</time>
      </trkpt>
      <trkpt lat="45.95474" lon="4.91841">
        <ele>295</ele>
        <time>2016-08-25T09:45:03Z</time>
      </trkpt>
      <trkpt lat="45.95469" lon="4.91836">
        <ele>295</ele>
        <time>2016-08-25T09:45:04Z</time>
      </trkpt>
      <trkpt lat="45.95464" lon="4.9183">
        <ele>297</ele>
        <time>2016-08-25T09:45:05Z</time>
      </trkpt>
      <trkpt lat="45.95459" lon="4.91824">
        <ele>297</ele>
        <time>2016-08-25T09:45:06Z</time>
      </trkpt>
      <trkpt lat="45.95455" lon="4.91817">
        <ele>297</ele>
        <time>2016-08-25T09:45:07Z</time>
      </trkpt>
      <trkpt lat="45.95451" lon="4.91811">
        <ele>297</ele>
        <time>2016-08-25T09:45:08Z</time>
      </trkpt>
      <trkpt lat="45.95447" lon="4.91804">
        <ele>297</ele>
        <time>2016-08-25T09:45:09Z</time>
      </trkpt>
      <trkpt lat="45.95443" lon="4.91798">
        <ele>298</ele>
        <time>2016-08-25T09:45:10Z</time>
      </trkpt>
      <trkpt lat="45.95439" lon="4.91793">
        <ele>298</ele>
        <time>2016-08-25T09:45:11Z</time>
      </trkpt>
      <trkpt lat="45.95437" lon="4.91786">
        <ele>298</ele>
        <time>2016-08-25T09:45:12Z</time>
      </trkpt>
      <trkpt lat="45.95434" lon="4.91779">
        <ele>298</ele>
        <time>2016-08-25T09:45:13Z</time>
      </trkpt>
      <trkpt lat="45.95431" lon="4.91772">
        <ele>298</ele>
        <time>2016-08-25T09:45:14Z</time>
      </trkpt>
      <trkpt lat="45.95428" lon="4.91764">
        <ele>298</ele>
        <time>2016-08-25T09:45:15Z</time>
      </trkpt>
      <trkpt lat="45.95426" lon="4.91758">
        <ele>298</ele>
        <time>2016-08-25T09:45:16Z</time>
      </trkpt>
      <trkpt lat="45.95423" lon="4.91751">
        <ele>298</ele>
        <time>2016-08-25T09:45:17Z</time>
      </trkpt>
      <trkpt lat="45.95421" lon="4.91745">
        <ele>299</ele>
        <time>2016-08-25T09:45:18Z</time>
      </trkpt>
      <trkpt lat="45.95419" lon="4.91739">
        <ele>299</ele>
        <time>2016-08-25T09:45:19Z</time>
      </trkpt>
      <trkpt lat="45.95416" lon="4.9173">
        <ele>299</ele>
        <time>2016-08-25T09:45:21Z</time>
      </trkpt>
      <trkpt lat="45.95415" lon="4.91726">
        <ele>299</ele>
        <time>2016-08-25T09:45:22Z</time>
      </trkpt>
      <trkpt lat="45.9541" lon="4.91716">
        <ele>299</ele>
        <time>2016-08-25T09:45:25Z</time>
      </trkpt>
      <trkpt lat="45.95408" lon="4.91712">
        <ele>299</ele>
        <time>2016-08-25T09:45:26Z</time>
      </trkpt>
      <trkpt lat="45.95405" lon="4.91704">
        <ele>299</ele>
        <time>2016-08-25T09:45:28Z</time>
      </trkpt>
      <trkpt lat="45.95403" lon="4.91701">
        <ele>299</ele>
        <time>2016-08-25T09:45:29Z</time>
      </trkpt>
      <trkpt lat="45.95399" lon="4.91692">
        <ele>300</ele>
        <time>2016-08-25T09:45:32Z</time>
      </trkpt>
      <trkpt lat="45.95397" lon="4.91689">
        <ele>300</ele>
        <time>2016-08-25T09:45:33Z</time>
      </trkpt>
      <trkpt lat="45.95392" lon="4.91681">
        <ele>300</ele>
        <time>2016-08-25T09:45:36Z</time>
      </trkpt>
      <trkpt lat="45.95391" lon="4.91678">
        <ele>300</ele>
        <time>2016-08-25T09:45:37Z</time>
      </trkpt>
      <trkpt lat="45.95385" lon="4.91669">
        <ele>300</ele>
        <time>2016-08-25T09:45:40Z</time>
      </trkpt>
      <trkpt lat="45.95384" lon="4.91665">
        <ele>301</ele>
        <time>2016-08-25T09:45:41Z</time>
      </trkpt>
      <trkpt lat="45.95382" lon="4.91656">
        <ele>301</ele>
        <time>2016-08-25T09:45:43Z</time>
      </trkpt>
      <trkpt lat="45.95381" lon="4.91651">
        <ele>301</ele>
        <time>2016-08-25T09:45:44Z</time>
      </trkpt>
      <trkpt lat="45.95377" lon="4.91643">
        <ele>301</ele>
        <time>2016-08-25T09:45:46Z</time>
      </trkpt>
      <trkpt lat="45.95375" lon="4.9164">
        <ele>301</ele>
        <time>2016-08-25T09:45:47Z</time>
      </trkpt>
      <trkpt lat="45.9537" lon="4.91631">
        <ele>300</ele>
        <time>2016-08-25T09:45:50Z</time>
      </trkpt>
      <trkpt lat="45.95369" lon="4.91628">
        <ele>300</ele>
        <time>2016-08-25T09:45:51Z</time>
      </trkpt>
      <trkpt lat="45.95364" lon="4.91619">
        <ele>300</ele>
        <time>2016-08-25T09:45:54Z</time>
      </trkpt>
      <trkpt lat="45.95363" lon="4.91616">
        <ele>300</ele>
        <time>2016-08-25T09:45:55Z</time>
      </trkpt>
      <trkpt lat="45.9536" lon="4.91606">
        <ele>300</ele>
        <time>2016-08-25T09:45:58Z</time>
      </trkpt>
      <trkpt lat="45.95359" lon="4.91602">
        <ele>300</ele>
        <time>2016-08-25T09:45:59Z</time>
      </trkpt>
      <trkpt lat="45.95356" lon="4.91593">
        <ele>300</ele>
        <time>2016-08-25T09:46:02Z</time>
      </trkpt>
      <trkpt lat="45.95356" lon="4.91589">
        <ele>300</ele>
        <time>2016-08-25T09:46:03Z</time>
      </trkpt>
      <trkpt lat="45.95355" lon="4.9158">
        <ele>300</ele>
        <time>2016-08-25T09:46:05Z</time>
      </trkpt>
      <trkpt lat="45.95355" lon="4.91576">
        <ele>300</ele>
        <time>2016-08-25T09:46:06Z</time>
      </trkpt>
      <trkpt lat="45.95352" lon="4.91565">
        <ele>300</ele>
        <time>2016-08-25T09:46:09Z</time>
      </trkpt>
      <trkpt lat="45.95351" lon="4.91561">
        <ele>300</ele>
        <time>2016-08-25T09:46:10Z</time>
      </trkpt>
      <trkpt lat="45.9535" lon="4.91549">
        <ele>300</ele>
        <time>2016-08-25T09:46:14Z</time>
      </trkpt>
      <trkpt lat="45.9535" lon="4.91546">
        <ele>300</ele>
        <time>2016-08-25T09:46:15Z</time>
      </trkpt>
      <trkpt lat="45.95347" lon="4.91535">
        <ele>299</ele>
        <time>2016-08-25T09:46:18Z</time>
      </trkpt>
      <trkpt lat="45.95347" lon="4.91531">
        <ele>299</ele>
        <time>2016-08-25T09:46:19Z</time>
      </trkpt>
      <trkpt lat="45.95346" lon="4.9152">
        <ele>299</ele>
        <time>2016-08-25T09:46:22Z</time>
      </trkpt>
      <trkpt lat="45.95345" lon="4.91516">
        <ele>299</ele>
        <time>2016-08-25T09:46:23Z</time>
      </trkpt>
      <trkpt lat="45.95343" lon="4.91508">
        <ele>299</ele>
        <time>2016-08-25T09:46:25Z</time>
      </trkpt>
      <trkpt lat="45.95342" lon="4.91504">
        <ele>299</ele>
        <time>2016-08-25T09:46:26Z</time>
      </trkpt>
      <trkpt lat="45.9534" lon="4.91495">
        <ele>298</ele>
        <time>2016-08-25T09:46:28Z</time>
      </trkpt>
      <trkpt lat="45.9534" lon="4.91491">
        <ele>298</ele>
        <time>2016-08-25T09:46:29Z</time>
      </trkpt>
      <trkpt lat="45.95338" lon="4.9148">
        <ele>298</ele>
        <time>2016-08-25T09:46:32Z</time>
      </trkpt>
      <trkpt lat="45.95338" lon="4.91477">
        <ele>298</ele>
        <time>2016-08-25T09:46:33Z</time>
      </trkpt>
      <trkpt lat="45.95336" lon="4.91467">
        <ele>298</ele>
        <time>2016-08-25T09:46:36Z</time>
      </trkpt>
      <trkpt lat="45.95336" lon="4.91463">
        <ele>298</ele>
        <time>2016-08-25T09:46:37Z</time>
      </trkpt>
      <trkpt lat="45.95332" lon="4.91454">
        <ele>298</ele>
        <time>2016-08-25T09:46:40Z</time>
      </trkpt>
      <trkpt lat="45.95331" lon="4.91451">
        <ele>298</ele>
        <time>2016-08-25T09:46:41Z</time>
      </trkpt>
      <trkpt lat="45.9533" lon="4.91441">
        <ele>298</ele>
        <time>2016-08-25T09:46:44Z</time>
      </trkpt>
      <trkpt lat="45.9533" lon="4.91438">
        <ele>298</ele>
        <time>2016-08-25T09:46:45Z</time>
      </trkpt>
      <trkpt lat="45.95327" lon="4.91428">
        <ele>298</ele>
        <time>2016-08-25T09:46:49Z</time>
      </trkpt>
      <trkpt lat="45.95326" lon="4.91425">
        <ele>298</ele>
        <time>2016-08-25T09:46:50Z</time>
      </trkpt>
      <trkpt lat="45.95325" lon="4.91414">
        <ele>298</ele>
        <time>2016-08-25T09:46:54Z</time>
      </trkpt>
      <trkpt lat="45.95325" lon="4.91412">
        <ele>298</ele>
        <time>2016-08-25T09:46:55Z</time>
      </trkpt>
      <trkpt lat="45.95321" lon="4.91402">
        <ele>298</ele>
        <time>2016-08-25T09:47:00Z</time>
      </trkpt>
      <trkpt lat="45.95321" lon="4.91399">
        <ele>298</ele>
        <time>2016-08-25T09:47:01Z</time>
      </trkpt>
      <trkpt lat="45.95319" lon="4.91388">
        <ele>298</ele>
        <time>2016-08-25T09:47:05Z</time>
      </trkpt>
      <trkpt lat="45.95318" lon="4.91385">
        <ele>298</ele>
        <time>2016-08-25T09:47:06Z</time>
      </trkpt>
      <trkpt lat="45.95317" lon="4.91373">
        <ele>298</ele>
        <time>2016-08-25T09:47:09Z</time>
      </trkpt>
      <trkpt lat="45.95317" lon="4.9137">
        <ele>298</ele>
        <time>2016-08-25T09:47:10Z</time>
      </trkpt>
      <trkpt lat="45.95316" lon="4.91358">
        <ele>298</ele>
        <time>2016-08-25T09:47:14Z</time>
      </trkpt>
      <trkpt lat="45.95314" lon="4.91351">
        <ele>298</ele>
        <time>2016-08-25T09:47:15Z</time>
      </trkpt>
      <trkpt lat="45.95311" lon="4.9134">
        <ele>297</ele>
        <time>2016-08-25T09:47:18Z</time>
      </trkpt>
      <trkpt lat="45.95311" lon="4.91337">
        <ele>297</ele>
        <time>2016-08-25T09:47:19Z</time>
      </trkpt>
      <trkpt lat="45.95308" lon="4.91326">
        <ele>298</ele>
        <time>2016-08-25T09:47:23Z</time>
      </trkpt>
      <trkpt lat="45.95307" lon="4.91322">
        <ele>298</ele>
        <time>2016-08-25T09:47:24Z</time>
      </trkpt>
      <trkpt lat="45.95304" lon="4.9131">
        <ele>298</ele>
        <time>2016-08-25T09:47:28Z</time>
      </trkpt>
      <trkpt lat="45.95304" lon="4.91308">
        <ele>298</ele>
        <time>2016-08-25T09:47:29Z</time>
      </trkpt>
      <trkpt lat="45.95302" lon="4.91297">
        <ele>298</ele>
        <time>2016-08-25T09:47:33Z</time>
      </trkpt>
      <trkpt lat="45.95301" lon="4.91293">
        <ele>298</ele>
        <time>2016-08-25T09:47:34Z</time>
      </trkpt>
      <trkpt lat="45.95298" lon="4.91285">
        <ele>298</ele>
        <time>2016-08-25T09:47:36Z</time>
      </trkpt>
      <trkpt lat="45.95297" lon="4.91281">
        <ele>298</ele>
        <time>2016-08-25T09:47:37Z</time>
      </trkpt>
      <trkpt lat="45.95293" lon="4.91269">
        <ele>298</ele>
        <time>2016-08-25T09:47:40Z</time>
      </trkpt>
      <trkpt lat="45.95291" lon="4.91266">
        <ele>298</ele>
        <time>2016-08-25T09:47:41Z</time>
      </trkpt>
      <trkpt lat="45.95288" lon="4.91255">
        <ele>298</ele>
        <time>2016-08-25T09:47:44Z</time>
      </trkpt>
      <trkpt lat="45.95287" lon="4.91251">
        <ele>298</ele>
        <time>2016-08-25T09:47:45Z</time>
      </trkpt>
      <trkpt lat="45.95281" lon="4.91242">
        <ele>299</ele>
        <time>2016-08-25T09:47:47Z</time>
      </trkpt>
      <trkpt lat="45.95279" lon="4.91238">
        <ele>299</ele>
        <time>2016-08-25T09:47:48Z</time>
      </trkpt>
      <trkpt lat="45.95278" lon="4.91228">
        <ele>299</ele>
        <time>2016-08-25T09:47:51Z</time>
      </trkpt>
      <trkpt lat="45.95277" lon="4.91225">
        <ele>299</ele>
        <time>2016-08-25T09:47:52Z</time>
      </trkpt>
      <trkpt lat="45.95274" lon="4.91217">
        <ele>299</ele>
        <time>2016-08-25T09:47:55Z</time>
      </trkpt>
      <trkpt lat="45.95272" lon="4.91214">
        <ele>299</ele>
        <time>2016-08-25T09:47:56Z</time>
      </trkpt>
      <trkpt lat="45.9527" lon="4.91202">
        <ele>299</ele>
        <time>2016-08-25T09:48:00Z</time>
      </trkpt>
      <trkpt lat="45.95269" lon="4.91201">
        <ele>299</ele>
        <time>2016-08-25T09:48:01Z</time>
      </trkpt>
      <trkpt lat="45.95264" lon="4.9119">
        <ele>299</ele>
        <time>2016-08-25T09:48:05Z</time>
      </trkpt>
      <trkpt lat="45.95263" lon="4.91187">
        <ele>299</ele>
        <time>2016-08-25T09:48:06Z</time>
      </trkpt>
      <trkpt lat="45.95261" lon="4.91176">
        <ele>299</ele>
        <time>2016-08-25T09:48:09Z</time>
      </trkpt>
      <trkpt lat="45.95261" lon="4.91173">
        <ele>299</ele>
        <time>2016-08-25T09:48:10Z</time>
      </trkpt>
      <trkpt lat="45.95257" lon="4.91163">
        <ele>299</ele>
        <time>2016-08-25T09:48:13Z</time>
      </trkpt>
      <trkpt lat="45.95254" lon="4.9116">
        <ele>299</ele>
        <time>2016-08-25T09:48:14Z</time>
      </trkpt>
      <trkpt lat="45.95247" lon="4.91151">
        <ele>298</ele>
        <time>2016-08-25T09:48:17Z</time>
      </trkpt>
      <trkpt lat="45.95245" lon="4.91149">
        <ele>298</ele>
        <time>2016-08-25T09:48:18Z</time>
      </trkpt>
      <trkpt lat="45.95239" lon="4.91141">
        <ele>298</ele>
        <time>2016-08-25T09:48:21Z</time>
      </trkpt>
      <trkpt lat="45.95238" lon="4.91138">
        <ele>298</ele>
        <time>2016-08-25T09:48:22Z</time>
      </trkpt>
      <trkpt lat="45.95234" lon="4.91129">
        <ele>298</ele>
        <time>2016-08-25T09:48:25Z</time>
      </trkpt>
      <trkpt lat="45.95232" lon="4.91126">
        <ele>298</ele>
        <time>2016-08-25T09:48:26Z</time>
      </trkpt>
      <trkpt lat="45.95227" lon="4.91118">
        <ele>298</ele>
        <time>2016-08-25T09:48:29Z</time>
      </trkpt>
      <trkpt lat="45.95226" lon="4.91115">
        <ele>298</ele>
        <time>2016-08-25T09:48:30Z</time>
      </trkpt>
      <trkpt lat="45.9522" lon="4.91105">
        <ele>298</ele>
        <time>2016-08-25T09:48:34Z</time>
      </trkpt>
      <trkpt lat="45.95219" lon="4.91103">
        <ele>298</ele>
        <time>2016-08-25T09:48:35Z</time>
      </trkpt>
      <trkpt lat="45.95213" lon="4.91095">
        <ele>298</ele>
        <time>2016-08-25T09:48:39Z</time>
      </trkpt>
      <trkpt lat="45.95212" lon="4.91094">
        <ele>298</ele>
        <time>2016-08-25T09:48:40Z</time>
      </trkpt>
      <trkpt lat="45.95205" lon="4.91091">
        <ele>297</ele>
        <time>2016-08-25T09:48:43Z</time>
      </trkpt>
      <trkpt lat="45.95202" lon="4.9109">
        <ele>297</ele>
        <time>2016-08-25T09:48:44Z</time>
      </trkpt>
      <trkpt lat="45.95196" lon="4.91084">
        <ele>297</ele>
        <time>2016-08-25T09:48:47Z</time>
      </trkpt>
      <trkpt lat="45.95194" lon="4.91081">
        <ele>297</ele>
        <time>2016-08-25T09:48:48Z</time>
      </trkpt>
      <trkpt lat="45.95188" lon="4.91073">
        <ele>297</ele>
        <time>2016-08-25T09:48:51Z</time>
      </trkpt>
      <trkpt lat="45.95186" lon="4.9107">
        <ele>297</ele>
        <time>2016-08-25T09:48:52Z</time>
      </trkpt>
      <trkpt lat="45.95183" lon="4.91061">
        <ele>297</ele>
        <time>2016-08-25T09:48:55Z</time>
      </trkpt>
      <trkpt lat="45.95181" lon="4.91058">
        <ele>297</ele>
        <time>2016-08-25T09:48:56Z</time>
      </trkpt>
      <trkpt lat="45.95175" lon="4.91049">
        <ele>297</ele>
        <time>2016-08-25T09:49:00Z</time>
      </trkpt>
      <trkpt lat="45.95173" lon="4.91047">
        <ele>297</ele>
        <time>2016-08-25T09:49:01Z</time>
      </trkpt>
      <trkpt lat="45.95171" lon="4.91035">
        <ele>297</ele>
        <time>2016-08-25T09:55:25Z</time>
      </trkpt>
      <trkpt lat="45.95172" lon="4.91034">
        <ele>297</ele>
        <time>2016-08-25T09:55:26Z</time>
      </trkpt>
      <trkpt lat="45.95177" lon="4.91024">
        <ele>297</ele>
        <time>2016-08-25T09:55:37Z</time>
      </trkpt>
      <trkpt lat="45.95177" lon="4.91024">
        <ele>297</ele>
        <time>2016-08-25T09:55:38Z</time>
      </trkpt>
      <trkpt lat="45.95177" lon="4.91012">
        <ele>298</ele>
        <time>2016-08-25T09:55:55Z</time>
      </trkpt>
      <trkpt lat="45.95176" lon="4.91009">
        <ele>298</ele>
        <time>2016-08-25T09:55:56Z</time>
      </trkpt>
      <trkpt lat="45.95175" lon="4.90998">
        <ele>298</ele>
        <time>2016-08-25T09:55:59Z</time>
      </trkpt>
      <trkpt lat="45.95175" lon="4.90994">
        <ele>298</ele>
        <time>2016-08-25T09:56:00Z</time>
      </trkpt>
      <trkpt lat="45.95173" lon="4.90983">
        <ele>298</ele>
        <time>2016-08-25T09:56:02Z</time>
      </trkpt>
      <trkpt lat="45.95172" lon="4.90978">
        <ele>298</ele>
        <time>2016-08-25T09:56:03Z</time>
      </trkpt>
      <trkpt lat="45.95172" lon="4.90972">
        <ele>298</ele>
        <time>2016-08-25T09:56:04Z</time>
      </trkpt>
      <trkpt lat="45.95172" lon="4.90965">
        <ele>298</ele>
        <time>2016-08-25T09:56:05Z</time>
      </trkpt>
      <trkpt lat="45.95172" lon="4.90952">
        <ele>297</ele>
        <time>2016-08-25T09:56:07Z</time>
      </trkpt>
      <trkpt lat="45.95172" lon="4.90946">
        <ele>297</ele>
        <time>2016-08-25T09:56:08Z</time>
      </trkpt>
      <trkpt lat="45.95172" lon="4.90938">
        <ele>297</ele>
        <time>2016-08-25T09:56:09Z</time>
      </trkpt>
      <trkpt lat="45.95173" lon="4.9093">
        <ele>297</ele>
        <time>2016-08-25T09:56:10Z</time>
      </trkpt>
      <trkpt lat="45.95173" lon="4.90922">
        <ele>297</ele>
        <time>2016-08-25T09:56:11Z</time>
      </trkpt>
      <trkpt lat="45.95174" lon="4.90915">
        <ele>297</ele>
        <time>2016-08-25T09:56:12Z</time>
      </trkpt>
      <trkpt lat="45.95175" lon="4.90908">
        <ele>297</ele>
        <time>2016-08-25T09:56:13Z</time>
      </trkpt>
      <trkpt lat="45.95177" lon="4.90901">
        <ele>298</ele>
        <time>2016-08-25T09:56:14Z</time>
      </trkpt>
      <trkpt lat="45.95178" lon="4.90894">
        <ele>298</ele>
        <time>2016-08-25T09:56:15Z</time>
      </trkpt>
      <trkpt lat="45.95179" lon="4.90887">
        <ele>298</ele>
        <time>2016-08-25T09:56:16Z</time>
      </trkpt>
      <trkpt lat="45.9518" lon="4.90879">
        <ele>298</ele>
        <time>2016-08-25T09:56:17Z</time>
      </trkpt>
      <trkpt lat="45.95181" lon="4.90871">
        <ele>298</ele>
        <time>2016-08-25T09:56:18Z</time>
      </trkpt>
      <trkpt lat="45.95182" lon="4.90864">
        <ele>298</ele>
        <time>2016-08-25T09:56:19Z</time>
      </trkpt>
      <trkpt lat="45.95183" lon="4.90856">
        <ele>298</ele>
        <time>2016-08-25T09:56:20Z</time>
      </trkpt>
      <trkpt lat="45.95183" lon="4.90848">
        <ele>298</ele>
        <time>2016-08-25T09:56:21Z</time>
      </trkpt>
      <trkpt lat="45.95184" lon="4.9084">
        <ele>298</ele>
        <time>2016-08-25T09:56:22Z</time>
      </trkpt>
      <trkpt lat="45.95185" lon="4.90831">
        <ele>298</ele>
        <time>2016-08-25T09:56:23Z</time>
      </trkpt>
      <trkpt lat="45.95185" lon="4.90823">
        <ele>298</ele>
        <time>2016-08-25T09:56:24Z</time>
      </trkpt>
      <trkpt lat="45.95184" lon="4.90814">
        <ele>298</ele>
        <time>2016-08-25T09:56:25Z</time>
      </trkpt>
      <trkpt lat="45.95183" lon="4.90806">
        <ele>298</ele>
        <time>2016-08-25T09:56:26Z</time>
      </trkpt>
      <trkpt lat="45.95181" lon="4.90798">
        <ele>298</ele>
        <time>2016-08-25T09:56:27Z</time>
      </trkpt>
      <trkpt lat="45.95179" lon="4.90791">
        <ele>298</ele>
        <time>2016-08-25T09:56:28Z</time>
      </trkpt>
      <trkpt lat="45.95177" lon="4.90784">
        <ele>298</ele>
        <time>2016-08-25T09:56:29Z</time>
      </trkpt>
      <trkpt lat="45.95175" lon="4.90776">
        <ele>298</ele>
        <time>2016-08-25T09:56:30Z</time>
      </trkpt>
      <trkpt lat="45.95175" lon="4.90769">
        <ele>298</ele>
        <time>2016-08-25T09:56:31Z</time>
      </trkpt>
      <trkpt lat="45.95174" lon="4.90761">
        <ele>298</ele>
        <time>2016-08-25T09:56:32Z</time>
      </trkpt>
      <trkpt lat="45.95175" lon="4.90755">
        <ele>298</ele>
        <time>2016-08-25T09:56:33Z</time>
      </trkpt>
      <trkpt lat="45.95175" lon="4.90748">
        <ele>297</ele>
        <time>2016-08-25T09:56:34Z</time>
      </trkpt>
      <trkpt lat="45.95176" lon="4.90741">
        <ele>297</ele>
        <time>2016-08-25T09:56:35Z</time>
      </trkpt>
      <trkpt lat="45.95177" lon="4.90734">
        <ele>297</ele>
        <time>2016-08-25T09:56:36Z</time>
      </trkpt>
      <trkpt lat="45.95177" lon="4.90727">
        <ele>297</ele>
        <time>2016-08-25T09:56:37Z</time>
      </trkpt>
      <trkpt lat="45.95178" lon="4.9072">
        <ele>297</ele>
        <time>2016-08-25T09:56:38Z</time>
      </trkpt>
      <trkpt lat="45.95179" lon="4.90712">
        <ele>297</ele>
        <time>2016-08-25T09:56:39Z</time>
      </trkpt>
      <trkpt lat="45.9518" lon="4.90704">
        <ele>297</ele>
        <time>2016-08-25T09:56:40Z</time>
      </trkpt>
      <trkpt lat="45.9518" lon="4.90697">
        <ele>297</ele>
        <time>2016-08-25T09:56:41Z</time>
      </trkpt>
      <trkpt lat="45.95179" lon="4.90689">
        <ele>297</ele>
        <time>2016-08-25T09:56:42Z</time>
      </trkpt>
      <trkpt lat="45.95179" lon="4.90681">
        <ele>296</ele>
        <time>2016-08-25T09:56:43Z</time>
      </trkpt>
      <trkpt lat="45.95179" lon="4.90673">
        <ele>296</ele>
        <time>2016-08-25T09:56:44Z</time>
      </trkpt>
      <trkpt lat="45.95179" lon="4.90666">
        <ele>295</ele>
        <time>2016-08-25T09:56:45Z</time>
      </trkpt>
      <trkpt lat="45.95179" lon="4.90658">
        <ele>295</ele>
        <time>2016-08-25T09:56:46Z</time>
      </trkpt>
      <trkpt lat="45.95179" lon="4.90651">
        <ele>295</ele>
        <time>2016-08-25T09:56:47Z</time>
      </trkpt>
      <trkpt lat="45.9518" lon="4.90643">
        <ele>295</ele>
        <time>2016-08-25T09:56:48Z</time>
      </trkpt>
      <trkpt lat="45.95181" lon="4.90636">
        <ele>295</ele>
        <time>2016-08-25T09:56:49Z</time>
      </trkpt>
      <trkpt lat="45.95181" lon="4.90627">
        <ele>295</ele>
        <time>2016-08-25T09:56:50Z</time>
      </trkpt>
      <trkpt lat="45.95182" lon="4.90619">
        <ele>295</ele>
        <time>2016-08-25T09:56:51Z</time>
      </trkpt>
      <trkpt lat="45.95182" lon="4.90611">
        <ele>295</ele>
        <time>2016-08-25T09:56:52Z</time>
      </trkpt>
      <trkpt lat="45.95183" lon="4.90603">
        <ele>295</ele>
        <time>2016-08-25T09:56:53Z</time>
      </trkpt>
      <trkpt lat="45.95183" lon="4.90594">
        <ele>294</ele>
        <time>2016-08-25T09:56:54Z</time>
      </trkpt>
      <trkpt lat="45.95183" lon="4.90586">
        <ele>294</ele>
        <time>2016-08-25T09:56:55Z</time>
      </trkpt>
      <trkpt lat="45.95184" lon="4.90578">
        <ele>293</ele>
        <time>2016-08-25T09:56:56Z</time>
      </trkpt>
      <trkpt lat="45.95185" lon="4.90569">
        <ele>293</ele>
        <time>2016-08-25T09:56:57Z</time>
      </trkpt>
      <trkpt lat="45.95185" lon="4.90561">
        <ele>293</ele>
        <time>2016-08-25T09:56:58Z</time>
      </trkpt>
      <trkpt lat="45.95185" lon="4.90552">
        <ele>293</ele>
        <time>2016-08-25T09:56:59Z</time>
      </trkpt>
      <trkpt lat="45.95186" lon="4.90544">
        <ele>293</ele>
        <time>2016-08-25T09:57:00Z</time>
      </trkpt>
      <trkpt lat="45.95186" lon="4.90535">
        <ele>293</ele>
        <time>2016-08-25T09:57:01Z</time>
      </trkpt>
      <trkpt lat="45.95187" lon="4.90526">
        <ele>292</ele>
        <time>2016-08-25T09:57:02Z</time>
      </trkpt>
      <trkpt lat="45.95187" lon="4.90517">
        <ele>292</ele>
        <time>2016-08-25T09:57:03Z</time>
      </trkpt>
      <trkpt lat="45.95186" lon="4.90508">
        <ele>292</ele>
        <time>2016-08-25T09:57:04Z</time>
      </trkpt>
      <trkpt lat="45.95187" lon="4.90498">
        <ele>291</ele>
        <time>2016-08-25T09:57:05Z</time>
      </trkpt>
      <trkpt lat="45.95189" lon="4.90489">
        <ele>291</ele>
        <time>2016-08-25T09:57:06Z</time>
      </trkpt>
      <trkpt lat="45.95189" lon="4.90479">
        <ele>290</ele>
        <time>2016-08-25T09:57:07Z</time>
      </trkpt>
      <trkpt lat="45.95191" lon="4.9047">
        <ele>290</ele>
        <time>2016-08-25T09:57:08Z</time>
      </trkpt>
      <trkpt lat="45.95192" lon="4.9046">
        <ele>290</ele>
        <time>2016-08-25T09:57:09Z</time>
      </trkpt>
      <trkpt lat="45.95192" lon="4.90451">
        <ele>290</ele>
        <time>2016-08-25T09:57:10Z</time>
      </trkpt>
      <trkpt lat="45.95193" lon="4.90441">
        <ele>290</ele>
        <time>2016-08-25T09:57:11Z</time>
      </trkpt>
      <trkpt lat="45.95193" lon="4.90432">
        <ele>289</ele>
        <time>2016-08-25T09:57:12Z</time>
      </trkpt>
      <trkpt lat="45.95194" lon="4.90422">
        <ele>289</ele>
        <time>2016-08-25T09:57:13Z</time>
      </trkpt>
      <trkpt lat="45.95194" lon="4.90413">
        <ele>288</ele>
        <time>2016-08-25T09:57:14Z</time>
      </trkpt>
      <trkpt lat="45.95195" lon="4.90404">
        <ele>288</ele>
        <time>2016-08-25T09:57:15Z</time>
      </trkpt>
      <trkpt lat="45.95196" lon="4.90395">
        <ele>288</ele>
        <time>2016-08-25T09:57:16Z</time>
      </trkpt>
      <trkpt lat="45.95197" lon="4.90386">
        <ele>288</ele>
        <time>2016-08-25T09:57:17Z</time>
      </trkpt>
      <trkpt lat="45.95198" lon="4.90377">
        <ele>288</ele>
        <time>2016-08-25T09:57:18Z</time>
      </trkpt>
      <trkpt lat="45.95199" lon="4.90368">
        <ele>288</ele>
        <time>2016-08-25T09:57:19Z</time>
      </trkpt>
      <trkpt lat="45.95201" lon="4.9036">
        <ele>288</ele>
        <time>2016-08-25T09:57:20Z</time>
      </trkpt>
      <trkpt lat="45.95203" lon="4.90351">
        <ele>288</ele>
        <time>2016-08-25T09:57:21Z</time>
      </trkpt>
      <trkpt lat="45.95205" lon="4.90342">
        <ele>288</ele>
        <time>2016-08-25T09:57:22Z</time>
      </trkpt>
      <trkpt lat="45.95206" lon="4.90333">
        <ele>287</ele>
        <time>2016-08-25T09:57:23Z</time>
      </trkpt>
      <trkpt lat="45.95208" lon="4.90323">
        <ele>287</ele>
        <time>2016-08-25T09:57:24Z</time>
      </trkpt>
      <trkpt lat="45.9521" lon="4.90314">
        <ele>287</ele>
        <time>2016-08-25T09:57:25Z</time>
      </trkpt>
      <trkpt lat="45.95211" lon="4.90305">
        <ele>287</ele>
        <time>2016-08-25T09:57:26Z</time>
      </trkpt>
      <trkpt lat="45.95213" lon="4.90296">
        <ele>287</ele>
        <time>2016-08-25T09:57:27Z</time>
      </trkpt>
      <trkpt lat="45.95214" lon="4.90287">
        <ele>287</ele>
        <time>2016-08-25T09:57:28Z</time>
      </trkpt>
      <trkpt lat="45.95216" lon="4.90279">
        <ele>287</ele>
        <time>2016-08-25T09:57:29Z</time>
      </trkpt>
      <trkpt lat="45.95217" lon="4.9027">
        <ele>287</ele>
        <time>2016-08-25T09:57:30Z</time>
      </trkpt>
      <trkpt lat="45.95218" lon="4.9026">
        <ele>287</ele>
        <time>2016-08-25T09:57:31Z</time>
      </trkpt>
      <trkpt lat="45.95218" lon="4.9025">
        <ele>287</ele>
        <time>2016-08-25T09:57:32Z</time>
      </trkpt>
      <trkpt lat="45.95217" lon="4.90241">
        <ele>286</ele>
        <time>2016-08-25T09:57:33Z</time>
      </trkpt>
      <trkpt lat="45.95216" lon="4.90231">
        <ele>286</ele>
        <time>2016-08-25T09:57:34Z</time>
      </trkpt>
      <trkpt lat="45.95216" lon="4.90223">
        <ele>286</ele>
        <time>2016-08-25T09:57:35Z</time>
      </trkpt>
      <trkpt lat="45.95215" lon="4.90214">
        <ele>286</ele>
        <time>2016-08-25T09:57:36Z</time>
      </trkpt>
      <trkpt lat="45.95215" lon="4.90205">
        <ele>286</ele>
        <time>2016-08-25T09:57:37Z</time>
      </trkpt>
      <trkpt lat="45.95214" lon="4.90197">
        <ele>286</ele>
        <time>2016-08-25T09:57:38Z</time>
      </trkpt>
      <trkpt lat="45.95213" lon="4.90188">
        <ele>286</ele>
        <time>2016-08-25T09:57:39Z</time>
      </trkpt>
      <trkpt lat="45.95212" lon="4.90181">
        <ele>286</ele>
        <time>2016-08-25T09:57:40Z</time>
      </trkpt>
      <trkpt lat="45.95209" lon="4.90174">
        <ele>286</ele>
        <time>2016-08-25T09:57:41Z</time>
      </trkpt>
      <trkpt lat="45.95205" lon="4.90169">
        <ele>287</ele>
        <time>2016-08-25T09:57:42Z</time>
      </trkpt>
      <trkpt lat="45.95201" lon="4.90166">
        <ele>287</ele>
        <time>2016-08-25T09:57:43Z</time>
      </trkpt>
      <trkpt lat="45.95194" lon="4.90165">
        <ele>287</ele>
        <time>2016-08-25T09:57:44Z</time>
      </trkpt>
      <trkpt lat="45.95188" lon="4.90165">
        <ele>287</ele>
        <time>2016-08-25T09:57:45Z</time>
      </trkpt>
      <trkpt lat="45.95182" lon="4.90167">
        <ele>287</ele>
        <time>2016-08-25T09:57:46Z</time>
      </trkpt>
      <trkpt lat="45.95176" lon="4.90168">
        <ele>287</ele>
        <time>2016-08-25T09:57:47Z</time>
      </trkpt>
      <trkpt lat="45.9517" lon="4.9017">
        <ele>287</ele>
        <time>2016-08-25T09:57:48Z</time>
      </trkpt>
      <trkpt lat="45.95164" lon="4.90171">
        <ele>287</ele>
        <time>2016-08-25T09:57:49Z</time>
      </trkpt>
      <trkpt lat="45.95159" lon="4.90171">
        <ele>287</ele>
        <time>2016-08-25T09:57:50Z</time>
      </trkpt>
      <trkpt lat="45.95153" lon="4.90171">
        <ele>287</ele>
        <time>2016-08-25T09:57:51Z</time>
      </trkpt>
      <trkpt lat="45.95148" lon="4.9017">
        <ele>287</ele>
        <time>2016-08-25T09:57:52Z</time>
      </trkpt>
      <trkpt lat="45.95142" lon="4.90168">
        <ele>287</ele>
        <time>2016-08-25T09:57:53Z</time>
      </trkpt>
      <trkpt lat="45.95136" lon="4.90165">
        <ele>286</ele>
        <time>2016-08-25T09:57:54Z</time>
      </trkpt>
      <trkpt lat="45.9513" lon="4.90162">
        <ele>286</ele>
        <time>2016-08-25T09:57:55Z</time>
      </trkpt>
      <trkpt lat="45.95124" lon="4.90158">
        <ele>286</ele>
        <time>2016-08-25T09:57:56Z</time>
      </trkpt>
      <trkpt lat="45.95118" lon="4.90154">
        <ele>286</ele>
        <time>2016-08-25T09:57:57Z</time>
      </trkpt>
      <trkpt lat="45.95113" lon="4.9015">
        <ele>286</ele>
        <time>2016-08-25T09:57:58Z</time>
      </trkpt>
      <trkpt lat="45.95108" lon="4.90145">
        <ele>286</ele>
        <time>2016-08-25T09:57:59Z</time>
      </trkpt>
      <trkpt lat="45.95103" lon="4.9014">
        <ele>286</ele>
        <time>2016-08-25T09:58:00Z</time>
      </trkpt>
      <trkpt lat="45.95099" lon="4.90135">
        <ele>286</ele>
        <time>2016-08-25T09:58:01Z</time>
      </trkpt>
      <trkpt lat="45.95094" lon="4.9013">
        <ele>286</ele>
        <time>2016-08-25T09:58:02Z</time>
      </trkpt>
      <trkpt lat="45.9509" lon="4.90124">
        <ele>286</ele>
        <time>2016-08-25T09:58:03Z</time>
      </trkpt>
      <trkpt lat="45.95085" lon="4.90119">
        <ele>286</ele>
        <time>2016-08-25T09:58:04Z</time>
      </trkpt>
      <trkpt lat="45.95081" lon="4.90113">
        <ele>285</ele>
        <time>2016-08-25T09:58:05Z</time>
      </trkpt>
      <trkpt lat="45.95077" lon="4.90107">
        <ele>285</ele>
        <time>2016-08-25T09:58:06Z</time>
      </trkpt>
      <trkpt lat="45.95072" lon="4.90101">
        <ele>285</ele>
        <time>2016-08-25T09:58:07Z</time>
      </trkpt>
      <trkpt lat="45.95068" lon="4.90095">
        <ele>285</ele>
        <time>2016-08-25T09:58:08Z</time>
      </trkpt>
      <trkpt lat="45.95063" lon="4.90089">
        <ele>285</ele>
        <time>2016-08-25T09:58:09Z</time>
      </trkpt>
      <trkpt lat="45.95058" lon="4.90083">
        <ele>285</ele>
        <time>2016-08-25T09:58:10Z</time>
      </trkpt>
      <trkpt lat="45.95054" lon="4.90078">
        <ele>285</ele>
        <time>2016-08-25T09:58:11Z</time>
      </trkpt>
      <trkpt lat="45.9505" lon="4.90072">
        <ele>285</ele>
        <time>2016-08-25T09:58:12Z</time>
      </trkpt>
      <trkpt lat="45.95045" lon="4.90066">
        <ele>285</ele>
        <time>2016-08-25T09:58:13Z</time>
      </trkpt>
      <trkpt lat="45.9504" lon="4.9006">
        <ele>285</ele>
        <time>2016-08-25T09:58:14Z</time>
      </trkpt>
      <trkpt lat="45.95036" lon="4.90053">
        <ele>285</ele>
        <time>2016-08-25T09:58:15Z</time>
      </trkpt>
      <trkpt lat="45.95032" lon="4.90045">
        <ele>284</ele>
        <time>2016-08-25T09:58:16Z</time>
      </trkpt>
      <trkpt lat="45.95027" lon="4.90038">
        <ele>284</ele>
        <time>2016-08-25T09:58:17Z</time>
      </trkpt>
      <trkpt lat="45.95023" lon="4.90031">
        <ele>284</ele>
        <time>2016-08-25T09:58:18Z</time>
      </trkpt>
      <trkpt lat="45.95019" lon="4.90024">
        <ele>284</ele>
        <time>2016-08-25T09:58:19Z</time>
      </trkpt>
      <trkpt lat="45.95015" lon="4.90018">
        <ele>284</ele>
        <time>2016-08-25T09:58:20Z</time>
      </trkpt>
      <trkpt lat="45.95011" lon="4.90011">
        <ele>284</ele>
        <time>2016-08-25T09:58:21Z</time>
      </trkpt>
      <trkpt lat="45.95008" lon="4.90004">
        <ele>283</ele>
        <time>2016-08-25T09:58:22Z</time>
      </trkpt>
      <trkpt lat="45.95004" lon="4.89997">
        <ele>283</ele>
        <time>2016-08-25T09:58:23Z</time>
      </trkpt>
      <trkpt lat="45.95001" lon="4.8999">
        <ele>283</ele>
        <time>2016-08-25T09:58:24Z</time>
      </trkpt>
      <trkpt lat="45.94998" lon="4.89984">
        <ele>283</ele>
        <time>2016-08-25T09:58:25Z</time>
      </trkpt>
      <trkpt lat="45.94994" lon="4.89977">
        <ele>284</ele>
        <time>2016-08-25T09:58:26Z</time>
      </trkpt>
      <trkpt lat="45.94991" lon="4.89971">
        <ele>284</ele>
        <time>2016-08-25T09:58:27Z</time>
      </trkpt>
      <trkpt lat="45.94987" lon="4.89964">
        <ele>284</ele>
        <time>2016-08-25T09:58:28Z</time>
      </trkpt>
      <trkpt lat="45.94984" lon="4.89958">
        <ele>284</ele>
        <time>2016-08-25T09:58:29Z</time>
      </trkpt>
      <trkpt lat="45.94979" lon="4.89952">
        <ele>284</ele>
        <time>2016-08-25T09:58:30Z</time>
      </trkpt>
      <trkpt lat="45.94975" lon="4.89946">
        <ele>284</ele>
        <time>2016-08-25T09:58:31Z</time>
      </trkpt>
      <trkpt lat="45.9497" lon="4.8994">
        <ele>284</ele>
        <time>2016-08-25T09:58:32Z</time>
      </trkpt>
      <trkpt lat="45.94965" lon="4.89934">
        <ele>284</ele>
        <time>2016-08-25T09:58:33Z</time>
      </trkpt>
      <trkpt lat="45.94961" lon="4.89928">
        <ele>284</ele>
        <time>2016-08-25T09:58:34Z</time>
      </trkpt>
      <trkpt lat="45.94956" lon="4.89923">
        <ele>284</ele>
        <time>2016-08-25T09:58:35Z</time>
      </trkpt>
      <trkpt lat="45.94952" lon="4.89918">
        <ele>284</ele>
        <time>2016-08-25T09:58:36Z</time>
      </trkpt>
      <trkpt lat="45.94948" lon="4.89913">
        <ele>284</ele>
        <time>2016-08-25T09:58:37Z</time>
      </trkpt>
      <trkpt lat="45.94944" lon="4.89907">
        <ele>284</ele>
        <time>2016-08-25T09:58:38Z</time>
      </trkpt>
      <trkpt lat="45.9494" lon="4.89902">
        <ele>284</ele>
        <time>2016-08-25T09:58:39Z</time>
      </trkpt>
      <trkpt lat="45.94936" lon="4.89896">
        <ele>284</ele>
        <time>2016-08-25T09:58:40Z</time>
      </trkpt>
      <trkpt lat="45.94933" lon="4.89891">
        <ele>284</ele>
        <time>2016-08-25T09:58:41Z</time>
      </trkpt>
      <trkpt lat="45.9493" lon="4.89884">
        <ele>284</ele>
        <time>2016-08-25T09:58:42Z</time>
      </trkpt>
      <trkpt lat="45.94928" lon="4.89877">
        <ele>284</ele>
        <time>2016-08-25T09:58:43Z</time>
      </trkpt>
      <trkpt lat="45.94926" lon="4.8987">
        <ele>284</ele>
        <time>2016-08-25T09:58:44Z</time>
      </trkpt>
      <trkpt lat="45.94925" lon="4.89863">
        <ele>284</ele>
        <time>2016-08-25T09:58:45Z</time>
      </trkpt>
      <trkpt lat="45.94923" lon="4.89855">
        <ele>284</ele>
        <time>2016-08-25T09:58:46Z</time>
      </trkpt>
      <trkpt lat="45.94923" lon="4.89846">
        <ele>284</ele>
        <time>2016-08-25T09:58:47Z</time>
      </trkpt>
      <trkpt lat="45.94922" lon="4.89838">
        <ele>284</ele>
        <time>2016-08-25T09:58:48Z</time>
      </trkpt>
      <trkpt lat="45.94922" lon="4.8983">
        <ele>284</ele>
        <time>2016-08-25T09:58:49Z</time>
      </trkpt>
      <trkpt lat="45.94922" lon="4.89822">
        <ele>284</ele>
        <time>2016-08-25T09:58:50Z</time>
      </trkpt>
      <trkpt lat="45.94923" lon="4.89814">
        <ele>284</ele>
        <time>2016-08-25T09:58:51Z</time>
      </trkpt>
      <trkpt lat="45.94925" lon="4.89805">
        <ele>284</ele>
        <time>2016-08-25T09:58:52Z</time>
      </trkpt>
      <trkpt lat="45.94927" lon="4.89797">
        <ele>284</ele>
        <time>2016-08-25T09:58:53Z</time>
      </trkpt>
      <trkpt lat="45.94929" lon="4.89789">
        <ele>284</ele>
        <time>2016-08-25T09:58:54Z</time>
      </trkpt>
      <trkpt lat="45.94931" lon="4.8978">
        <ele>284</ele>
        <time>2016-08-25T09:58:55Z</time>
      </trkpt>
      <trkpt lat="45.94933" lon="4.89771">
        <ele>284</ele>
        <time>2016-08-25T09:58:56Z</time>
      </trkpt>
      <trkpt lat="45.94935" lon="4.89763">
        <ele>284</ele>
        <time>2016-08-25T09:58:57Z</time>
      </trkpt>
      <trkpt lat="45.94937" lon="4.89754">
        <ele>284</ele>
        <time>2016-08-25T09:58:58Z</time>
      </trkpt>
      <trkpt lat="45.94939" lon="4.89746">
        <ele>284</ele>
        <time>2016-08-25T09:58:59Z</time>
      </trkpt>
      <trkpt lat="45.94941" lon="4.89738">
        <ele>284</ele>
        <time>2016-08-25T09:59:00Z</time>
      </trkpt>
      <trkpt lat="45.94943" lon="4.8973">
        <ele>284</ele>
        <time>2016-08-25T09:59:01Z</time>
      </trkpt>
      <trkpt lat="45.94946" lon="4.89723">
        <ele>284</ele>
        <time>2016-08-25T09:59:02Z</time>
      </trkpt>
      <trkpt lat="45.94948" lon="4.89715">
        <ele>284</ele>
        <time>2016-08-25T09:59:03Z</time>
      </trkpt>
      <trkpt lat="45.9495" lon="4.89707">
        <ele>284</ele>
        <time>2016-08-25T09:59:04Z</time>
      </trkpt>
      <trkpt lat="45.94953" lon="4.89699">
        <ele>284</ele>
        <time>2016-08-25T09:59:05Z</time>
      </trkpt>
      <trkpt lat="45.94956" lon="4.89691">
        <ele>284</ele>
        <time>2016-08-25T09:59:06Z</time>
      </trkpt>
      <trkpt lat="45.94958" lon="4.89682">
        <ele>284</ele>
        <time>2016-08-25T09:59:07Z</time>
      </trkpt>
      <trkpt lat="45.9496" lon="4.89674">
        <ele>284</ele>
        <time>2016-08-25T09:59:08Z</time>
      </trkpt>
      <trkpt lat="45.94963" lon="4.89665">
        <ele>285</ele>
        <time>2016-08-25T09:59:09Z</time>
      </trkpt>
      <trkpt lat="45.94965" lon="4.89657">
        <ele>285</ele>
        <time>2016-08-25T09:59:10Z</time>
      </trkpt>
      <trkpt lat="45.94967" lon="4.89649">
        <ele>285</ele>
        <time>2016-08-25T09:59:11Z</time>
      </trkpt>
      <trkpt lat="45.9497" lon="4.89641">
        <ele>285</ele>
        <time>2016-08-25T09:59:12Z</time>
      </trkpt>
      <trkpt lat="45.94972" lon="4.89633">
        <ele>285</ele>
        <time>2016-08-25T09:59:13Z</time>
      </trkpt>
      <trkpt lat="45.94975" lon="4.89625">
        <ele>285</ele>
        <time>2016-08-25T09:59:14Z</time>
      </trkpt>
      <trkpt lat="45.94977" lon="4.89618">
        <ele>285</ele>
        <time>2016-08-25T09:59:15Z</time>
      </trkpt>
      <trkpt lat="45.94979" lon="4.8961">
        <ele>285</ele>
        <time>2016-08-25T09:59:16Z</time>
      </trkpt>
      <trkpt lat="45.94982" lon="4.89602">
        <ele>285</ele>
        <time>2016-08-25T09:59:17Z</time>
      </trkpt>
      <trkpt lat="45.94984" lon="4.89594">
        <ele>284</ele>
        <time>2016-08-25T09:59:18Z</time>
      </trkpt>
      <trkpt lat="45.94986" lon="4.89586">
        <ele>284</ele>
        <time>2016-08-25T09:59:19Z</time>
      </trkpt>
      <trkpt lat="45.94988" lon="4.89578">
        <ele>284</ele>
        <time>2016-08-25T09:59:20Z</time>
      </trkpt>
      <trkpt lat="45.9499" lon="4.8957">
        <ele>284</ele>
        <time>2016-08-25T09:59:21Z</time>
      </trkpt>
      <trkpt lat="45.94993" lon="4.89562">
        <ele>284</ele>
        <time>2016-08-25T09:59:22Z</time>
      </trkpt>
      <trkpt lat="45.94995" lon="4.89553">
        <ele>284</ele>
        <time>2016-08-25T09:59:23Z</time>
      </trkpt>
      <trkpt lat="45.94998" lon="4.89544">
        <ele>284</ele>
        <time>2016-08-25T09:59:24Z</time>
      </trkpt>
      <trkpt lat="45.95001" lon="4.89535">
        <ele>283</ele>
        <time>2016-08-25T09:59:25Z</time>
      </trkpt>
      <trkpt lat="45.95005" lon="4.89528">
        <ele>283</ele>
        <time>2016-08-25T09:59:26Z</time>
      </trkpt>
      <trkpt lat="45.95009" lon="4.89522">
        <ele>283</ele>
        <time>2016-08-25T09:59:27Z</time>
      </trkpt>
      <trkpt lat="45.95015" lon="4.89517">
        <ele>283</ele>
        <time>2016-08-25T09:59:28Z</time>
      </trkpt>
      <trkpt lat="45.95021" lon="4.89514">
        <ele>283</ele>
        <time>2016-08-25T09:59:29Z</time>
      </trkpt>
      <trkpt lat="45.95028" lon="4.89512">
        <ele>283</ele>
        <time>2016-08-25T09:59:30Z</time>
      </trkpt>
      <trkpt lat="45.95035" lon="4.8951">
        <ele>283</ele>
        <time>2016-08-25T09:59:31Z</time>
      </trkpt>
      <trkpt lat="45.95041" lon="4.89509">
        <ele>283</ele>
        <time>2016-08-25T09:59:32Z</time>
      </trkpt>
      <trkpt lat="45.95048" lon="4.89507">
        <ele>283</ele>
        <time>2016-08-25T09:59:33Z</time>
      </trkpt>
      <trkpt lat="45.95054" lon="4.89505">
        <ele>283</ele>
        <time>2016-08-25T09:59:34Z</time>
      </trkpt>
      <trkpt lat="45.95061" lon="4.89504">
        <ele>282</ele>
        <time>2016-08-25T09:59:35Z</time>
      </trkpt>
      <trkpt lat="45.95067" lon="4.89502">
        <ele>282</ele>
        <time>2016-08-25T09:59:36Z</time>
      </trkpt>
      <trkpt lat="45.95074" lon="4.89499">
        <ele>282</ele>
        <time>2016-08-25T09:59:37Z</time>
      </trkpt>
      <trkpt lat="45.95079" lon="4.89494">
        <ele>282</ele>
        <time>2016-08-25T09:59:38Z</time>
      </trkpt>
      <trkpt lat="45.95083" lon="4.89487">
        <ele>282</ele>
        <time>2016-08-25T09:59:39Z</time>
      </trkpt>
      <trkpt lat="45.95084" lon="4.89479">
        <ele>282</ele>
        <time>2016-08-25T09:59:40Z</time>
      </trkpt>
      <trkpt lat="45.95085" lon="4.89471">
        <ele>282</ele>
        <time>2016-08-25T09:59:41Z</time>
      </trkpt>
      <trkpt lat="45.95083" lon="4.89462">
        <ele>282</ele>
        <time>2016-08-25T09:59:42Z</time>
      </trkpt>
      <trkpt lat="45.95081" lon="4.89453">
        <ele>282</ele>
        <time>2016-08-25T09:59:43Z</time>
      </trkpt>
      <trkpt lat="45.95079" lon="4.89444">
        <ele>282</ele>
        <time>2016-08-25T09:59:44Z</time>
      </trkpt>
      <trkpt lat="45.95078" lon="4.89436">
        <ele>282</ele>
        <time>2016-08-25T09:59:45Z</time>
      </trkpt>
      <trkpt lat="45.95076" lon="4.89427">
        <ele>282</ele>
        <time>2016-08-25T09:59:46Z</time>
      </trkpt>
      <trkpt lat="45.95075" lon="4.89419">
        <ele>282</ele>
        <time>2016-08-25T09:59:47Z</time>
      </trkpt>
      <trkpt lat="45.95074" lon="4.89409">
        <ele>283</ele>
        <time>2016-08-25T09:59:48Z</time>
      </trkpt>
      <trkpt lat="45.95072" lon="4.894">
        <ele>283</ele>
        <time>2016-08-25T09:59:49Z</time>
      </trkpt>
      <trkpt lat="45.95072" lon="4.8939">
        <ele>283</ele>
        <time>2016-08-25T09:59:50Z</time>
      </trkpt>
      <trkpt lat="45.95071" lon="4.8938">
        <ele>283</ele>
        <time>2016-08-25T09:59:51Z</time>
      </trkpt>
      <trkpt lat="45.95071" lon="4.8937">
        <ele>283</ele>
        <time>2016-08-25T09:59:52Z</time>
      </trkpt>
      <trkpt lat="45.95071" lon="4.8936">
        <ele>283</ele>
        <time>2016-08-25T09:59:53Z</time>
      </trkpt>
      <trkpt lat="45.95071" lon="4.8935">
        <ele>283</ele>
        <time>2016-08-25T09:59:54Z</time>
      </trkpt>
      <trkpt lat="45.95071" lon="4.8934">
        <ele>283</ele>
        <time>2016-08-25T09:59:55Z</time>
      </trkpt>
      <trkpt lat="45.95071" lon="4.89331">
        <ele>283</ele>
        <time>2016-08-25T09:59:56Z</time>
      </trkpt>
      <trkpt lat="45.95071" lon="4.89322">
        <ele>283</ele>
        <time>2016-08-25T09:59:57Z</time>
      </trkpt>
      <trkpt lat="45.95071" lon="4.89313">
        <ele>283</ele>
        <time>2016-08-25T09:59:58Z</time>
      </trkpt>
      <trkpt lat="45.95071" lon="4.89304">
        <ele>283</ele>
        <time>2016-08-25T09:59:59Z</time>
      </trkpt>
      <trkpt lat="45.95072" lon="4.89296">
        <ele>283</ele>
        <time>2016-08-25T10:00:00Z</time>
      </trkpt>
      <trkpt lat="45.95072" lon="4.89288">
        <ele>283</ele>
        <time>2016-08-25T10:00:01Z</time>
      </trkpt>
      <trkpt lat="45.95072" lon="4.89279">
        <ele>283</ele>
        <time>2016-08-25T10:00:02Z</time>
      </trkpt>
      <trkpt lat="45.95072" lon="4.8927">
        <ele>283</ele>
        <time>2016-08-25T10:00:03Z</time>
      </trkpt>
      <trkpt lat="45.95073" lon="4.8926">
        <ele>283</ele>
        <time>2016-08-25T10:00:04Z</time>
      </trkpt>
      <trkpt lat="45.95074" lon="4.89251">
        <ele>283</ele>
        <time>2016-08-25T10:00:05Z</time>
      </trkpt>
      <trkpt lat="45.95074" lon="4.89241">
        <ele>283</ele>
        <time>2016-08-25T10:00:06Z</time>
      </trkpt>
      <trkpt lat="45.95075" lon="4.89232">
        <ele>284</ele>
        <time>2016-08-25T10:00:07Z</time>
      </trkpt>
      <trkpt lat="45.95075" lon="4.89222">
        <ele>284</ele>
        <time>2016-08-25T10:00:08Z</time>
      </trkpt>
      <trkpt lat="45.95075" lon="4.89213">
        <ele>284</ele>
        <time>2016-08-25T10:00:09Z</time>
      </trkpt>
      <trkpt lat="45.95076" lon="4.89204">
        <ele>284</ele>
        <time>2016-08-25T10:00:10Z</time>
      </trkpt>
      <trkpt lat="45.95076" lon="4.89196">
        <ele>284</ele>
        <time>2016-08-25T10:00:11Z</time>
      </trkpt>
      <trkpt lat="45.95077" lon="4.89188">
        <ele>284</ele>
        <time>2016-08-25T10:00:12Z</time>
      </trkpt>
      <trkpt lat="45.95077" lon="4.89181">
        <ele>284</ele>
        <time>2016-08-25T10:00:13Z</time>
      </trkpt>
      <trkpt lat="45.95077" lon="4.89173">
        <ele>284</ele>
        <time>2016-08-25T10:00:14Z</time>
      </trkpt>
      <trkpt lat="45.95077" lon="4.89165">
        <ele>284</ele>
        <time>2016-08-25T10:00:15Z</time>
      </trkpt>
      <trkpt lat="45.95077" lon="4.89158">
        <ele>284</ele>
        <time>2016-08-25T10:00:16Z</time>
      </trkpt>
      <trkpt lat="45.95077" lon="4.8915">
        <ele>284</ele>
        <time>2016-08-25T10:00:17Z</time>
      </trkpt>
      <trkpt lat="45.95078" lon="4.89143">
        <ele>285</ele>
        <time>2016-08-25T10:00:18Z</time>
      </trkpt>
      <trkpt lat="45.95078" lon="4.89135">
        <ele>285</ele>
        <time>2016-08-25T10:00:19Z</time>
      </trkpt>
      <trkpt lat="45.95079" lon="4.89127">
        <ele>285</ele>
        <time>2016-08-25T10:00:20Z</time>
      </trkpt>
      <trkpt lat="45.95079" lon="4.89119">
        <ele>285</ele>
        <time>2016-08-25T10:00:21Z</time>
      </trkpt>
      <trkpt lat="45.9508" lon="4.8911">
        <ele>285</ele>
        <time>2016-08-25T10:00:22Z</time>
      </trkpt>
      <trkpt lat="45.95081" lon="4.89101">
        <ele>284</ele>
        <time>2016-08-25T10:00:23Z</time>
      </trkpt>
      <trkpt lat="45.95082" lon="4.89092">
        <ele>284</ele>
        <time>2016-08-25T10:00:24Z</time>
      </trkpt>
      <trkpt lat="45.95083" lon="4.89083">
        <ele>284</ele>
        <time>2016-08-25T10:00:25Z</time>
      </trkpt>
      <trkpt lat="45.95083" lon="4.89074">
        <ele>284</ele>
        <time>2016-08-25T10:00:26Z</time>
      </trkpt>
      <trkpt lat="45.95084" lon="4.89066">
        <ele>284</ele>
        <time>2016-08-25T10:00:27Z</time>
      </trkpt>
      <trkpt lat="45.95085" lon="4.89057">
        <ele>284</ele>
        <time>2016-08-25T10:00:28Z</time>
      </trkpt>
      <trkpt lat="45.95087" lon="4.89049">
        <ele>284</ele>
        <time>2016-08-25T10:00:29Z</time>
      </trkpt>
      <trkpt lat="45.95088" lon="4.89042">
        <ele>284</ele>
        <time>2016-08-25T10:00:30Z</time>
      </trkpt>
      <trkpt lat="45.95089" lon="4.89035">
        <ele>284</ele>
        <time>2016-08-25T10:00:31Z</time>
      </trkpt>
      <trkpt lat="45.9509" lon="4.89028">
        <ele>284</ele>
        <time>2016-08-25T10:00:32Z</time>
      </trkpt>
      <trkpt lat="45.95091" lon="4.89022">
        <ele>284</ele>
        <time>2016-08-25T10:00:33Z</time>
      </trkpt>
      <trkpt lat="45.95092" lon="4.89015">
        <ele>284</ele>
        <time>2016-08-25T10:00:34Z</time>
      </trkpt>
      <trkpt lat="45.95092" lon="4.89008">
        <ele>284</ele>
        <time>2016-08-25T10:00:35Z</time>
      </trkpt>
      <trkpt lat="45.95093" lon="4.89001">
        <ele>284</ele>
        <time>2016-08-25T10:00:36Z</time>
      </trkpt>
      <trkpt lat="45.95094" lon="4.88994">
        <ele>285</ele>
        <time>2016-08-25T10:00:37Z</time>
      </trkpt>
      <trkpt lat="45.95095" lon="4.88986">
        <ele>285</ele>
        <time>2016-08-25T10:00:38Z</time>
      </trkpt>
      <trkpt lat="45.95095" lon="4.88978">
        <ele>284</ele>
        <time>2016-08-25T10:00:39Z</time>
      </trkpt>
      <trkpt lat="45.95096" lon="4.8897">
        <ele>284</ele>
        <time>2016-08-25T10:00:40Z</time>
      </trkpt>
      <trkpt lat="45.95096" lon="4.88961">
        <ele>284</ele>
        <time>2016-08-25T10:00:41Z</time>
      </trkpt>
      <trkpt lat="45.95096" lon="4.88952">
        <ele>285</ele>
        <time>2016-08-25T10:00:42Z</time>
      </trkpt>
      <trkpt lat="45.95096" lon="4.88944">
        <ele>285</ele>
        <time>2016-08-25T10:00:43Z</time>
      </trkpt>
      <trkpt lat="45.95097" lon="4.88937">
        <ele>285</ele>
        <time>2016-08-25T10:00:44Z</time>
      </trkpt>
      <trkpt lat="45.95097" lon="4.8893">
        <ele>285</ele>
        <time>2016-08-25T10:00:45Z</time>
      </trkpt>
      <trkpt lat="45.95097" lon="4.88923">
        <ele>285</ele>
        <time>2016-08-25T10:00:46Z</time>
      </trkpt>
      <trkpt lat="45.95098" lon="4.88917">
        <ele>285</ele>
        <time>2016-08-25T10:00:47Z</time>
      </trkpt>
      <trkpt lat="45.95099" lon="4.88909">
        <ele>285</ele>
        <time>2016-08-25T10:00:48Z</time>
      </trkpt>
      <trkpt lat="45.95099" lon="4.88902">
        <ele>285</ele>
        <time>2016-08-25T10:00:49Z</time>
      </trkpt>
      <trkpt lat="45.95099" lon="4.88895">
        <ele>285</ele>
        <time>2016-08-25T10:00:50Z</time>
      </trkpt>
      <trkpt lat="45.951" lon="4.88888">
        <ele>285</ele>
        <time>2016-08-25T10:00:51Z</time>
      </trkpt>
      <trkpt lat="45.951" lon="4.8888">
        <ele>285</ele>
        <time>2016-08-25T10:00:52Z</time>
      </trkpt>
      <trkpt lat="45.95101" lon="4.88872">
        <ele>285</ele>
        <time>2016-08-25T10:00:53Z</time>
      </trkpt>
      <trkpt lat="45.95102" lon="4.88865">
        <ele>285</ele>
        <time>2016-08-25T10:00:54Z</time>
      </trkpt>
      <trkpt lat="45.95103" lon="4.88856">
        <ele>285</ele>
        <time>2016-08-25T10:00:55Z</time>
      </trkpt>
      <trkpt lat="45.95105" lon="4.88849">
        <ele>285</ele>
        <time>2016-08-25T10:00:56Z</time>
      </trkpt>
      <trkpt lat="45.95105" lon="4.8884">
        <ele>285</ele>
        <time>2016-08-25T10:00:57Z</time>
      </trkpt>
      <trkpt lat="45.95106" lon="4.88832">
        <ele>286</ele>
        <time>2016-08-25T10:00:58Z</time>
      </trkpt>
      <trkpt lat="45.95106" lon="4.88824">
        <ele>286</ele>
        <time>2016-08-25T10:00:59Z</time>
      </trkpt>
      <trkpt lat="45.95107" lon="4.88817">
        <ele>286</ele>
        <time>2016-08-25T10:01:00Z</time>
      </trkpt>
      <trkpt lat="45.95107" lon="4.88809">
        <ele>286</ele>
        <time>2016-08-25T10:01:01Z</time>
      </trkpt>
      <trkpt lat="45.95108" lon="4.88802">
        <ele>286</ele>
        <time>2016-08-25T10:01:02Z</time>
      </trkpt>
      <trkpt lat="45.95109" lon="4.8879">
        <ele>287</ele>
        <time>2016-08-25T10:01:04Z</time>
      </trkpt>
      <trkpt lat="45.95109" lon="4.88784">
        <ele>287</ele>
        <time>2016-08-25T10:01:05Z</time>
      </trkpt>
      <trkpt lat="45.9511" lon="4.88778">
        <ele>287</ele>
        <time>2016-08-25T10:01:06Z</time>
      </trkpt>
      <trkpt lat="45.9511" lon="4.88771">
        <ele>287</ele>
        <time>2016-08-25T10:01:07Z</time>
      </trkpt>
      <trkpt lat="45.9511" lon="4.88758">
        <ele>287</ele>
        <time>2016-08-25T10:01:09Z</time>
      </trkpt>
      <trkpt lat="45.9511" lon="4.88752">
        <ele>287</ele>
        <time>2016-08-25T10:01:10Z</time>
      </trkpt>
      <trkpt lat="45.9511" lon="4.88745">
        <ele>288</ele>
        <time>2016-08-25T10:01:11Z</time>
      </trkpt>
      <trkpt lat="45.9511" lon="4.88739">
        <ele>288</ele>
        <time>2016-08-25T10:01:12Z</time>
      </trkpt>
      <trkpt lat="45.9511" lon="4.88732">
        <ele>288</ele>
        <time>2016-08-25T10:01:13Z</time>
      </trkpt>
      <trkpt lat="45.9511" lon="4.88725">
        <ele>289</ele>
        <time>2016-08-25T10:01:14Z</time>
      </trkpt>
      <trkpt lat="45.9511" lon="4.88714">
        <ele>289</ele>
        <time>2016-08-25T10:01:16Z</time>
      </trkpt>
      <trkpt lat="45.9511" lon="4.88707">
        <ele>289</ele>
        <time>2016-08-25T10:01:17Z</time>
      </trkpt>
      <trkpt lat="45.9511" lon="4.88701">
        <ele>289</ele>
        <time>2016-08-25T10:01:18Z</time>
      </trkpt>
      <trkpt lat="45.9511" lon="4.88694">
        <ele>289</ele>
        <time>2016-08-25T10:01:19Z</time>
      </trkpt>
      <trkpt lat="45.9511" lon="4.88682">
        <ele>289</ele>
        <time>2016-08-25T10:01:21Z</time>
      </trkpt>
      <trkpt lat="45.9511" lon="4.88676">
        <ele>289</ele>
        <time>2016-08-25T10:01:22Z</time>
      </trkpt>
      <trkpt lat="45.95109" lon="4.88663">
        <ele>290</ele>
        <time>2016-08-25T10:01:24Z</time>
      </trkpt>
      <trkpt lat="45.9511" lon="4.88656">
        <ele>290</ele>
        <time>2016-08-25T10:01:25Z</time>
      </trkpt>
      <trkpt lat="45.9511" lon="4.88645">
        <ele>290</ele>
        <time>2016-08-25T10:01:27Z</time>
      </trkpt>
      <trkpt lat="45.9511" lon="4.8864">
        <ele>290</ele>
        <time>2016-08-25T10:01:28Z</time>
      </trkpt>
      <trkpt lat="45.95111" lon="4.88629">
        <ele>290</ele>
        <time>2016-08-25T10:01:30Z</time>
      </trkpt>
      <trkpt lat="45.95112" lon="4.88622">
        <ele>290</ele>
        <time>2016-08-25T10:01:31Z</time>
      </trkpt>
      <trkpt lat="45.95113" lon="4.88616">
        <ele>290</ele>
        <time>2016-08-25T10:01:32Z</time>
      </trkpt>
      <trkpt lat="45.95114" lon="4.8861">
        <ele>290</ele>
        <time>2016-08-25T10:01:33Z</time>
      </trkpt>
      <trkpt lat="45.95117" lon="4.88598">
        <ele>290</ele>
        <time>2016-08-25T10:01:35Z</time>
      </trkpt>
      <trkpt lat="45.95117" lon="4.88592">
        <ele>290</ele>
        <time>2016-08-25T10:01:36Z</time>
      </trkpt>
      <trkpt lat="45.95117" lon="4.8858">
        <ele>291</ele>
        <time>2016-08-25T10:01:38Z</time>
      </trkpt>
      <trkpt lat="45.95116" lon="4.88574">
        <ele>291</ele>
        <time>2016-08-25T10:01:39Z</time>
      </trkpt>
      <trkpt lat="45.95116" lon="4.88568">
        <ele>291</ele>
        <time>2016-08-25T10:01:40Z</time>
      </trkpt>
      <trkpt lat="45.95115" lon="4.88561">
        <ele>291</ele>
        <time>2016-08-25T10:01:41Z</time>
      </trkpt>
      <trkpt lat="45.95114" lon="4.88554">
        <ele>291</ele>
        <time>2016-08-25T10:01:42Z</time>
      </trkpt>
      <trkpt lat="45.95113" lon="4.88546">
        <ele>291</ele>
        <time>2016-08-25T10:01:43Z</time>
      </trkpt>
      <trkpt lat="45.95113" lon="4.88539">
        <ele>291</ele>
        <time>2016-08-25T10:01:44Z</time>
      </trkpt>
      <trkpt lat="45.95111" lon="4.88532">
        <ele>291</ele>
        <time>2016-08-25T10:01:45Z</time>
      </trkpt>
      <trkpt lat="45.95109" lon="4.88526">
        <ele>291</ele>
        <time>2016-08-25T10:01:46Z</time>
      </trkpt>
      <trkpt lat="45.95108" lon="4.8852">
        <ele>291</ele>
        <time>2016-08-25T10:01:47Z</time>
      </trkpt>
      <trkpt lat="45.95106" lon="4.88507">
        <ele>291</ele>
        <time>2016-08-25T10:01:49Z</time>
      </trkpt>
      <trkpt lat="45.95105" lon="4.88501">
        <ele>290</ele>
        <time>2016-08-25T10:01:50Z</time>
      </trkpt>
      <trkpt lat="45.95102" lon="4.88489">
        <ele>291</ele>
        <time>2016-08-25T10:01:52Z</time>
      </trkpt>
      <trkpt lat="45.95101" lon="4.88483">
        <ele>291</ele>
        <time>2016-08-25T10:01:53Z</time>
      </trkpt>
      <trkpt lat="45.95099" lon="4.88477">
        <ele>291</ele>
        <time>2016-08-25T10:01:54Z</time>
      </trkpt>
      <trkpt lat="45.95098" lon="4.88471">
        <ele>291</ele>
        <time>2016-08-25T10:01:55Z</time>
      </trkpt>
      <trkpt lat="45.95097" lon="4.88464">
        <ele>291</ele>
        <time>2016-08-25T10:01:56Z</time>
      </trkpt>
      <trkpt lat="45.95096" lon="4.88458">
        <ele>291</ele>
        <time>2016-08-25T10:01:57Z</time>
      </trkpt>
      <trkpt lat="45.95096" lon="4.8845">
        <ele>291</ele>
        <time>2016-08-25T10:01:58Z</time>
      </trkpt>
      <trkpt lat="45.95097" lon="4.88442">
        <ele>291</ele>
        <time>2016-08-25T10:01:59Z</time>
      </trkpt>
      <trkpt lat="45.95098" lon="4.88435">
        <ele>291</ele>
        <time>2016-08-25T10:02:00Z</time>
      </trkpt>
      <trkpt lat="45.951" lon="4.88428">
        <ele>291</ele>
        <time>2016-08-25T10:02:01Z</time>
      </trkpt>
      <trkpt lat="45.95102" lon="4.88416">
        <ele>290</ele>
        <time>2016-08-25T10:02:03Z</time>
      </trkpt>
      <trkpt lat="45.95102" lon="4.8841">
        <ele>290</ele>
        <time>2016-08-25T10:02:04Z</time>
      </trkpt>
      <trkpt lat="45.95104" lon="4.88399">
        <ele>290</ele>
        <time>2016-08-25T10:02:06Z</time>
      </trkpt>
      <trkpt lat="45.95105" lon="4.88393">
        <ele>291</ele>
        <time>2016-08-25T10:02:07Z</time>
      </trkpt>
      <trkpt lat="45.95108" lon="4.88382">
        <ele>290</ele>
        <time>2016-08-25T10:02:09Z</time>
      </trkpt>
      <trkpt lat="45.95109" lon="4.88376">
        <ele>290</ele>
        <time>2016-08-25T10:02:10Z</time>
      </trkpt>
      <trkpt lat="45.9511" lon="4.88364">
        <ele>290</ele>
        <time>2016-08-25T10:02:12Z</time>
      </trkpt>
      <trkpt lat="45.95111" lon="4.88357">
        <ele>290</ele>
        <time>2016-08-25T10:02:13Z</time>
      </trkpt>
      <trkpt lat="45.95112" lon="4.8835">
        <ele>290</ele>
        <time>2016-08-25T10:02:14Z</time>
      </trkpt>
      <trkpt lat="45.95114" lon="4.88343">
        <ele>290</ele>
        <time>2016-08-25T10:02:15Z</time>
      </trkpt>
      <trkpt lat="45.95115" lon="4.88336">
        <ele>290</ele>
        <time>2016-08-25T10:02:16Z</time>
      </trkpt>
      <trkpt lat="45.95116" lon="4.88329">
        <ele>289</ele>
        <time>2016-08-25T10:02:17Z</time>
      </trkpt>
      <trkpt lat="45.95116" lon="4.88319">
        <ele>289</ele>
        <time>2016-08-25T10:02:19Z</time>
      </trkpt>
      <trkpt lat="45.95117" lon="4.88316">
        <ele>289</ele>
        <time>2016-08-25T10:02:20Z</time>
      </trkpt>
      <trkpt lat="45.9512" lon="4.88305">
        <ele>289</ele>
        <time>2016-08-25T10:02:24Z</time>
      </trkpt>
      <trkpt lat="45.95119" lon="4.88301">
        <ele>289</ele>
        <time>2016-08-25T10:02:25Z</time>
      </trkpt>
      <trkpt lat="45.9512" lon="4.88292">
        <ele>289</ele>
        <time>2016-08-25T10:02:27Z</time>
      </trkpt>
      <trkpt lat="45.95121" lon="4.88288">
        <ele>289</ele>
        <time>2016-08-25T10:02:28Z</time>
      </trkpt>
      <trkpt lat="45.95122" lon="4.88278">
        <ele>289</ele>
        <time>2016-08-25T10:02:30Z</time>
      </trkpt>
      <trkpt lat="45.95122" lon="4.88271">
        <ele>289</ele>
        <time>2016-08-25T10:02:31Z</time>
      </trkpt>
      <trkpt lat="45.95122" lon="4.88264">
        <ele>289</ele>
        <time>2016-08-25T10:02:32Z</time>
      </trkpt>
      <trkpt lat="45.95122" lon="4.88258">
        <ele>289</ele>
        <time>2016-08-25T10:02:33Z</time>
      </trkpt>
      <trkpt lat="45.95123" lon="4.88246">
        <ele>287</ele>
        <time>2016-08-25T10:02:35Z</time>
      </trkpt>
      <trkpt lat="45.95124" lon="4.88239">
        <ele>287</ele>
        <time>2016-08-25T10:02:36Z</time>
      </trkpt>
      <trkpt lat="45.95124" lon="4.88233">
        <ele>287</ele>
        <time>2016-08-25T10:02:37Z</time>
      </trkpt>
      <trkpt lat="45.95124" lon="4.88225">
        <ele>287</ele>
        <time>2016-08-25T10:02:38Z</time>
      </trkpt>
      <trkpt lat="45.95126" lon="4.88217">
        <ele>287</ele>
        <time>2016-08-25T10:02:39Z</time>
      </trkpt>
      <trkpt lat="45.95128" lon="4.88209">
        <ele>287</ele>
        <time>2016-08-25T10:02:40Z</time>
      </trkpt>
      <trkpt lat="45.95131" lon="4.88202">
        <ele>287</ele>
        <time>2016-08-25T10:02:41Z</time>
      </trkpt>
      <trkpt lat="45.95135" lon="4.88196">
        <ele>287</ele>
        <time>2016-08-25T10:02:42Z</time>
      </trkpt>
      <trkpt lat="45.95139" lon="4.8819">
        <ele>286</ele>
        <time>2016-08-25T10:02:43Z</time>
      </trkpt>
      <trkpt lat="45.95144" lon="4.88186">
        <ele>286</ele>
        <time>2016-08-25T10:02:44Z</time>
      </trkpt>
      <trkpt lat="45.95149" lon="4.88183">
        <ele>286</ele>
        <time>2016-08-25T10:02:45Z</time>
      </trkpt>
      <trkpt lat="45.95155" lon="4.8818">
        <ele>286</ele>
        <time>2016-08-25T10:02:46Z</time>
      </trkpt>
      <trkpt lat="45.95161" lon="4.88179">
        <ele>286</ele>
        <time>2016-08-25T10:02:47Z</time>
      </trkpt>
      <trkpt lat="45.95165" lon="4.88174">
        <ele>285</ele>
        <time>2016-08-25T10:02:48Z</time>
      </trkpt>
      <trkpt lat="45.95168" lon="4.88167">
        <ele>285</ele>
        <time>2016-08-25T10:02:49Z</time>
      </trkpt>
      <trkpt lat="45.95169" lon="4.88159">
        <ele>284</ele>
        <time>2016-08-25T10:02:50Z</time>
      </trkpt>
      <trkpt lat="45.9517" lon="4.88151">
        <ele>283</ele>
        <time>2016-08-25T10:02:51Z</time>
      </trkpt>
      <trkpt lat="45.95172" lon="4.88143">
        <ele>283</ele>
        <time>2016-08-25T10:02:52Z</time>
      </trkpt>
      <trkpt lat="45.95174" lon="4.88135">
        <ele>283</ele>
        <time>2016-08-25T10:02:53Z</time>
      </trkpt>
      <trkpt lat="45.95176" lon="4.88127">
        <ele>282</ele>
        <time>2016-08-25T10:02:54Z</time>
      </trkpt>
      <trkpt lat="45.95178" lon="4.88119">
        <ele>282</ele>
        <time>2016-08-25T10:02:55Z</time>
      </trkpt>
      <trkpt lat="45.9518" lon="4.8811">
        <ele>282</ele>
        <time>2016-08-25T10:02:56Z</time>
      </trkpt>
      <trkpt lat="45.95182" lon="4.88101">
        <ele>282</ele>
        <time>2016-08-25T10:02:57Z</time>
      </trkpt>
      <trkpt lat="45.95184" lon="4.88092">
        <ele>282</ele>
        <time>2016-08-25T10:02:58Z</time>
      </trkpt>
      <trkpt lat="45.95186" lon="4.88082">
        <ele>281</ele>
        <time>2016-08-25T10:02:59Z</time>
      </trkpt>
      <trkpt lat="45.95188" lon="4.88073">
        <ele>281</ele>
        <time>2016-08-25T10:03:00Z</time>
      </trkpt>
      <trkpt lat="45.95191" lon="4.88064">
        <ele>281</ele>
        <time>2016-08-25T10:03:01Z</time>
      </trkpt>
      <trkpt lat="45.95194" lon="4.88055">
        <ele>281</ele>
        <time>2016-08-25T10:03:02Z</time>
      </trkpt>
      <trkpt lat="45.95198" lon="4.88046">
        <ele>281</ele>
        <time>2016-08-25T10:03:03Z</time>
      </trkpt>
      <trkpt lat="45.95202" lon="4.88037">
        <ele>281</ele>
        <time>2016-08-25T10:03:04Z</time>
      </trkpt>
      <trkpt lat="45.95206" lon="4.88029">
        <ele>281</ele>
        <time>2016-08-25T10:03:05Z</time>
      </trkpt>
      <trkpt lat="45.95211" lon="4.88022">
        <ele>281</ele>
        <time>2016-08-25T10:03:06Z</time>
      </trkpt>
      <trkpt lat="45.95216" lon="4.88016">
        <ele>281</ele>
        <time>2016-08-25T10:03:07Z</time>
      </trkpt>
      <trkpt lat="45.9522" lon="4.88009">
        <ele>281</ele>
        <time>2016-08-25T10:03:08Z</time>
      </trkpt>
      <trkpt lat="45.95225" lon="4.88003">
        <ele>281</ele>
        <time>2016-08-25T10:03:09Z</time>
      </trkpt>
      <trkpt lat="45.9523" lon="4.87997">
        <ele>281</ele>
        <time>2016-08-25T10:03:10Z</time>
      </trkpt>
      <trkpt lat="45.95234" lon="4.8799">
        <ele>281</ele>
        <time>2016-08-25T10:03:11Z</time>
      </trkpt>
      <trkpt lat="45.95239" lon="4.87984">
        <ele>281</ele>
        <time>2016-08-25T10:03:12Z</time>
      </trkpt>
      <trkpt lat="45.95244" lon="4.87978">
        <ele>282</ele>
        <time>2016-08-25T10:03:13Z</time>
      </trkpt>
      <trkpt lat="45.95248" lon="4.87971">
        <ele>282</ele>
        <time>2016-08-25T10:03:14Z</time>
      </trkpt>
      <trkpt lat="45.95253" lon="4.87963">
        <ele>280</ele>
        <time>2016-08-25T10:03:15Z</time>
      </trkpt>
      <trkpt lat="45.95257" lon="4.87955">
        <ele>280</ele>
        <time>2016-08-25T10:03:16Z</time>
      </trkpt>
      <trkpt lat="45.95259" lon="4.87947">
        <ele>280</ele>
        <time>2016-08-25T10:03:17Z</time>
      </trkpt>
      <trkpt lat="45.95262" lon="4.87938">
        <ele>280</ele>
        <time>2016-08-25T10:03:18Z</time>
      </trkpt>
      <trkpt lat="45.95263" lon="4.87928">
        <ele>281</ele>
        <time>2016-08-25T10:03:19Z</time>
      </trkpt>
      <trkpt lat="45.95264" lon="4.87919">
        <ele>281</ele>
        <time>2016-08-25T10:03:20Z</time>
      </trkpt>
      <trkpt lat="45.95264" lon="4.8791">
        <ele>281</ele>
        <time>2016-08-25T10:03:21Z</time>
      </trkpt>
      <trkpt lat="45.95263" lon="4.879">
        <ele>281</ele>
        <time>2016-08-25T10:03:22Z</time>
      </trkpt>
      <trkpt lat="45.95262" lon="4.87891">
        <ele>281</ele>
        <time>2016-08-25T10:03:23Z</time>
      </trkpt>
      <trkpt lat="45.9526" lon="4.87882">
        <ele>281</ele>
        <time>2016-08-25T10:03:24Z</time>
      </trkpt>
      <trkpt lat="45.95258" lon="4.87874">
        <ele>281</ele>
        <time>2016-08-25T10:03:25Z</time>
      </trkpt>
      <trkpt lat="45.95256" lon="4.87866">
        <ele>281</ele>
        <time>2016-08-25T10:03:26Z</time>
      </trkpt>
      <trkpt lat="45.95255" lon="4.87858">
        <ele>281</ele>
        <time>2016-08-25T10:03:27Z</time>
      </trkpt>
      <trkpt lat="45.95253" lon="4.8785">
        <ele>281</ele>
        <time>2016-08-25T10:03:28Z</time>
      </trkpt>
      <trkpt lat="45.95252" lon="4.87842">
        <ele>281</ele>
        <time>2016-08-25T10:03:29Z</time>
      </trkpt>
      <trkpt lat="45.9525" lon="4.87834">
        <ele>282</ele>
        <time>2016-08-25T10:03:30Z</time>
      </trkpt>
      <trkpt lat="45.95249" lon="4.87827">
        <ele>282</ele>
        <time>2016-08-25T10:03:31Z</time>
      </trkpt>
      <trkpt lat="45.95248" lon="4.87818">
        <ele>282</ele>
        <time>2016-08-25T10:03:32Z</time>
      </trkpt>
      <trkpt lat="45.95247" lon="4.8781">
        <ele>282</ele>
        <time>2016-08-25T10:03:33Z</time>
      </trkpt>
      <trkpt lat="45.95246" lon="4.87802">
        <ele>282</ele>
        <time>2016-08-25T10:03:34Z</time>
      </trkpt>
      <trkpt lat="45.95244" lon="4.87794">
        <ele>282</ele>
        <time>2016-08-25T10:03:35Z</time>
      </trkpt>
      <trkpt lat="45.95242" lon="4.87785">
        <ele>282</ele>
        <time>2016-08-25T10:03:36Z</time>
      </trkpt>
      <trkpt lat="45.9524" lon="4.87777">
        <ele>282</ele>
        <time>2016-08-25T10:03:37Z</time>
      </trkpt>
      <trkpt lat="45.95239" lon="4.87768">
        <ele>282</ele>
        <time>2016-08-25T10:03:38Z</time>
      </trkpt>
      <trkpt lat="45.95237" lon="4.87759">
        <ele>281</ele>
        <time>2016-08-25T10:03:39Z</time>
      </trkpt>
      <trkpt lat="45.95235" lon="4.8775">
        <ele>281</ele>
        <time>2016-08-25T10:03:40Z</time>
      </trkpt>
      <trkpt lat="45.95233" lon="4.87741">
        <ele>280</ele>
        <time>2016-08-25T10:03:41Z</time>
      </trkpt>
      <trkpt lat="45.95232" lon="4.87733">
        <ele>280</ele>
        <time>2016-08-25T10:03:42Z</time>
      </trkpt>
      <trkpt lat="45.9523" lon="4.87724">
        <ele>280</ele>
        <time>2016-08-25T10:03:43Z</time>
      </trkpt>
      <trkpt lat="45.95228" lon="4.87716">
        <ele>279</ele>
        <time>2016-08-25T10:03:44Z</time>
      </trkpt>
      <trkpt lat="45.95226" lon="4.87708">
        <ele>279</ele>
        <time>2016-08-25T10:03:45Z</time>
      </trkpt>
      <trkpt lat="45.95224" lon="4.87698">
        <ele>279</ele>
        <time>2016-08-25T10:03:46Z</time>
      </trkpt>
      <trkpt lat="45.95223" lon="4.87689">
        <ele>279</ele>
        <time>2016-08-25T10:03:47Z</time>
      </trkpt>
      <trkpt lat="45.95221" lon="4.87679">
        <ele>278</ele>
        <time>2016-08-25T10:03:48Z</time>
      </trkpt>
      <trkpt lat="45.9522" lon="4.87669">
        <ele>278</ele>
        <time>2016-08-25T10:03:49Z</time>
      </trkpt>
      <trkpt lat="45.95218" lon="4.87659">
        <ele>276</ele>
        <time>2016-08-25T10:03:50Z</time>
      </trkpt>
      <trkpt lat="45.95217" lon="4.87649">
        <ele>276</ele>
        <time>2016-08-25T10:03:51Z</time>
      </trkpt>
      <trkpt lat="45.95215" lon="4.87638">
        <ele>276</ele>
        <time>2016-08-25T10:03:52Z</time>
      </trkpt>
      <trkpt lat="45.95214" lon="4.87627">
        <ele>276</ele>
        <time>2016-08-25T10:03:53Z</time>
      </trkpt>
      <trkpt lat="45.95213" lon="4.87615">
        <ele>276</ele>
        <time>2016-08-25T10:03:54Z</time>
      </trkpt>
      <trkpt lat="45.95211" lon="4.87604">
        <ele>276</ele>
        <time>2016-08-25T10:03:55Z</time>
      </trkpt>
      <trkpt lat="45.9521" lon="4.87592">
        <ele>276</ele>
        <time>2016-08-25T10:03:56Z</time>
      </trkpt>
      <trkpt lat="45.9521" lon="4.87579">
        <ele>274</ele>
        <time>2016-08-25T10:03:57Z</time>
      </trkpt>
      <trkpt lat="45.95208" lon="4.87567">
        <ele>274</ele>
        <time>2016-08-25T10:03:58Z</time>
      </trkpt>
      <trkpt lat="45.95207" lon="4.87554">
        <ele>274</ele>
        <time>2016-08-25T10:03:59Z</time>
      </trkpt>
      <trkpt lat="45.95206" lon="4.87541">
        <ele>274</ele>
        <time>2016-08-25T10:04:00Z</time>
      </trkpt>
      <trkpt lat="45.95204" lon="4.87529">
        <ele>274</ele>
        <time>2016-08-25T10:04:01Z</time>
      </trkpt>
      <trkpt lat="45.95201" lon="4.87517">
        <ele>273</ele>
        <time>2016-08-25T10:04:02Z</time>
      </trkpt>
      <trkpt lat="45.95198" lon="4.87506">
        <ele>273</ele>
        <time>2016-08-25T10:04:03Z</time>
      </trkpt>
      <trkpt lat="45.95196" lon="4.87495">
        <ele>272</ele>
        <time>2016-08-25T10:04:04Z</time>
      </trkpt>
      <trkpt lat="45.95193" lon="4.87483">
        <ele>272</ele>
        <time>2016-08-25T10:04:05Z</time>
      </trkpt>
      <trkpt lat="45.95191" lon="4.87473">
        <ele>272</ele>
        <time>2016-08-25T10:04:06Z</time>
      </trkpt>
      <trkpt lat="45.95188" lon="4.87462">
        <ele>272</ele>
        <time>2016-08-25T10:04:07Z</time>
      </trkpt>
      <trkpt lat="45.95186" lon="4.87452">
        <ele>272</ele>
        <time>2016-08-25T10:04:08Z</time>
      </trkpt>
      <trkpt lat="45.95183" lon="4.87442">
        <ele>272</ele>
        <time>2016-08-25T10:04:09Z</time>
      </trkpt>
      <trkpt lat="45.95181" lon="4.87433">
        <ele>271</ele>
        <time>2016-08-25T10:04:10Z</time>
      </trkpt>
      <trkpt lat="45.95179" lon="4.87423">
        <ele>271</ele>
        <time>2016-08-25T10:04:11Z</time>
      </trkpt>
      <trkpt lat="45.95177" lon="4.87415">
        <ele>271</ele>
        <time>2016-08-25T10:04:12Z</time>
      </trkpt>
      <trkpt lat="45.95175" lon="4.87406">
        <ele>271</ele>
        <time>2016-08-25T10:04:13Z</time>
      </trkpt>
      <trkpt lat="45.95173" lon="4.87398">
        <ele>271</ele>
        <time>2016-08-25T10:04:14Z</time>
      </trkpt>
      <trkpt lat="45.95171" lon="4.87389">
        <ele>271</ele>
        <time>2016-08-25T10:04:15Z</time>
      </trkpt>
      <trkpt lat="45.95169" lon="4.8738">
        <ele>271</ele>
        <time>2016-08-25T10:04:16Z</time>
      </trkpt>
      <trkpt lat="45.95167" lon="4.8737">
        <ele>272</ele>
        <time>2016-08-25T10:04:17Z</time>
      </trkpt>
      <trkpt lat="45.95166" lon="4.87359">
        <ele>272</ele>
        <time>2016-08-25T10:04:18Z</time>
      </trkpt>
      <trkpt lat="45.95164" lon="4.87349">
        <ele>272</ele>
        <time>2016-08-25T10:04:19Z</time>
      </trkpt>
      <trkpt lat="45.95162" lon="4.8734">
        <ele>272</ele>
        <time>2016-08-25T10:04:20Z</time>
      </trkpt>
      <trkpt lat="45.95159" lon="4.87331">
        <ele>272</ele>
        <time>2016-08-25T10:04:21Z</time>
      </trkpt>
      <trkpt lat="45.95157" lon="4.87322">
        <ele>273</ele>
        <time>2016-08-25T10:04:22Z</time>
      </trkpt>
      <trkpt lat="45.95156" lon="4.87314">
        <ele>273</ele>
        <time>2016-08-25T10:04:23Z</time>
      </trkpt>
      <trkpt lat="45.95154" lon="4.87306">
        <ele>274</ele>
        <time>2016-08-25T10:04:24Z</time>
      </trkpt>
      <trkpt lat="45.95152" lon="4.87298">
        <ele>274</ele>
        <time>2016-08-25T10:04:25Z</time>
      </trkpt>
      <trkpt lat="45.9515" lon="4.87289">
        <ele>274</ele>
        <time>2016-08-25T10:04:26Z</time>
      </trkpt>
      <trkpt lat="45.95148" lon="4.87281">
        <ele>274</ele>
        <time>2016-08-25T10:04:27Z</time>
      </trkpt>
      <trkpt lat="45.95147" lon="4.87273">
        <ele>274</ele>
        <time>2016-08-25T10:04:28Z</time>
      </trkpt>
      <trkpt lat="45.95145" lon="4.87265">
        <ele>274</ele>
        <time>2016-08-25T10:04:29Z</time>
      </trkpt>
      <trkpt lat="45.95143" lon="4.87257">
        <ele>274</ele>
        <time>2016-08-25T10:04:30Z</time>
      </trkpt>
      <trkpt lat="45.95141" lon="4.8725">
        <ele>275</ele>
        <time>2016-08-25T10:04:31Z</time>
      </trkpt>
      <trkpt lat="45.95139" lon="4.87242">
        <ele>275</ele>
        <time>2016-08-25T10:04:32Z</time>
      </trkpt>
      <trkpt lat="45.95137" lon="4.87234">
        <ele>276</ele>
        <time>2016-08-25T10:04:33Z</time>
      </trkpt>
      <trkpt lat="45.95136" lon="4.87226">
        <ele>276</ele>
        <time>2016-08-25T10:04:34Z</time>
      </trkpt>
      <trkpt lat="45.95134" lon="4.87218">
        <ele>276</ele>
        <time>2016-08-25T10:04:35Z</time>
      </trkpt>
      <trkpt lat="45.95133" lon="4.87211">
        <ele>276</ele>
        <time>2016-08-25T10:04:36Z</time>
      </trkpt>
      <trkpt lat="45.95131" lon="4.87203">
        <ele>276</ele>
        <time>2016-08-25T10:04:37Z</time>
      </trkpt>
      <trkpt lat="45.9513" lon="4.87195">
        <ele>276</ele>
        <time>2016-08-25T10:04:38Z</time>
      </trkpt>
      <trkpt lat="45.95129" lon="4.87188">
        <ele>276</ele>
        <time>2016-08-25T10:04:39Z</time>
      </trkpt>
      <trkpt lat="45.95127" lon="4.8718">
        <ele>276</ele>
        <time>2016-08-25T10:04:40Z</time>
      </trkpt>
      <trkpt lat="45.95126" lon="4.87173">
        <ele>276</ele>
        <time>2016-08-25T10:04:41Z</time>
      </trkpt>
      <trkpt lat="45.95124" lon="4.87166">
        <ele>276</ele>
        <time>2016-08-25T10:04:42Z</time>
      </trkpt>
      <trkpt lat="45.95123" lon="4.87159">
        <ele>276</ele>
        <time>2016-08-25T10:04:43Z</time>
      </trkpt>
      <trkpt lat="45.95121" lon="4.87152">
        <ele>276</ele>
        <time>2016-08-25T10:04:44Z</time>
      </trkpt>
      <trkpt lat="45.95119" lon="4.87144">
        <ele>277</ele>
        <time>2016-08-25T10:04:45Z</time>
      </trkpt>
      <trkpt lat="45.95118" lon="4.87137">
        <ele>277</ele>
        <time>2016-08-25T10:04:46Z</time>
      </trkpt>
      <trkpt lat="45.95116" lon="4.87129">
        <ele>276</ele>
        <time>2016-08-25T10:04:47Z</time>
      </trkpt>
      <trkpt lat="45.95115" lon="4.87122">
        <ele>277</ele>
        <time>2016-08-25T10:04:48Z</time>
      </trkpt>
      <trkpt lat="45.95113" lon="4.87115">
        <ele>277</ele>
        <time>2016-08-25T10:04:49Z</time>
      </trkpt>
      <trkpt lat="45.95111" lon="4.87107">
        <ele>277</ele>
        <time>2016-08-25T10:04:50Z</time>
      </trkpt>
      <trkpt lat="45.95108" lon="4.871">
        <ele>277</ele>
        <time>2016-08-25T10:04:51Z</time>
      </trkpt>
      <trkpt lat="45.95106" lon="4.87092">
        <ele>277</ele>
        <time>2016-08-25T10:04:52Z</time>
      </trkpt>
      <trkpt lat="45.95104" lon="4.87085">
        <ele>277</ele>
        <time>2016-08-25T10:04:53Z</time>
      </trkpt>
      <trkpt lat="45.95102" lon="4.87078">
        <ele>277</ele>
        <time>2016-08-25T10:04:54Z</time>
      </trkpt>
      <trkpt lat="45.95099" lon="4.87071">
        <ele>277</ele>
        <time>2016-08-25T10:04:55Z</time>
      </trkpt>
      <trkpt lat="45.95096" lon="4.87065">
        <ele>277</ele>
        <time>2016-08-25T10:04:56Z</time>
      </trkpt>
      <trkpt lat="45.95093" lon="4.87059">
        <ele>277</ele>
        <time>2016-08-25T10:04:57Z</time>
      </trkpt>
      <trkpt lat="45.9509" lon="4.87053">
        <ele>277</ele>
        <time>2016-08-25T10:04:58Z</time>
      </trkpt>
      <trkpt lat="45.95087" lon="4.87047">
        <ele>277</ele>
        <time>2016-08-25T10:04:59Z</time>
      </trkpt>
      <trkpt lat="45.95084" lon="4.87042">
        <ele>277</ele>
        <time>2016-08-25T10:05:00Z</time>
      </trkpt>
      <trkpt lat="45.95081" lon="4.87036">
        <ele>277</ele>
        <time>2016-08-25T10:05:01Z</time>
      </trkpt>
      <trkpt lat="45.95078" lon="4.8703">
        <ele>277</ele>
        <time>2016-08-25T10:05:02Z</time>
      </trkpt>
      <trkpt lat="45.95075" lon="4.87024">
        <ele>277</ele>
        <time>2016-08-25T10:05:03Z</time>
      </trkpt>
      <trkpt lat="45.95071" lon="4.87018">
        <ele>277</ele>
        <time>2016-08-25T10:05:04Z</time>
      </trkpt>
      <trkpt lat="45.95068" lon="4.87012">
        <ele>277</ele>
        <time>2016-08-25T10:05:05Z</time>
      </trkpt>
      <trkpt lat="45.95065" lon="4.87006">
        <ele>277</ele>
        <time>2016-08-25T10:05:06Z</time>
      </trkpt>
      <trkpt lat="45.95062" lon="4.87">
        <ele>276</ele>
        <time>2016-08-25T10:05:07Z</time>
      </trkpt>
      <trkpt lat="45.9506" lon="4.86993">
        <ele>276</ele>
        <time>2016-08-25T10:05:08Z</time>
      </trkpt>
      <trkpt lat="45.95057" lon="4.86987">
        <ele>276</ele>
        <time>2016-08-25T10:05:09Z</time>
      </trkpt>
      <trkpt lat="45.95054" lon="4.86979">
        <ele>276</ele>
        <time>2016-08-25T10:05:10Z</time>
      </trkpt>
      <trkpt lat="45.95051" lon="4.86972">
        <ele>276</ele>
        <time>2016-08-25T10:05:11Z</time>
      </trkpt>
      <trkpt lat="45.95049" lon="4.86965">
        <ele>276</ele>
        <time>2016-08-25T10:05:12Z</time>
      </trkpt>
      <trkpt lat="45.95047" lon="4.86958">
        <ele>276</ele>
        <time>2016-08-25T10:05:13Z</time>
      </trkpt>
      <trkpt lat="45.95044" lon="4.86951">
        <ele>276</ele>
        <time>2016-08-25T10:05:14Z</time>
      </trkpt>
      <trkpt lat="45.95042" lon="4.86945">
        <ele>276</ele>
        <time>2016-08-25T10:05:15Z</time>
      </trkpt>
      <trkpt lat="45.9504" lon="4.86938">
        <ele>276</ele>
        <time>2016-08-25T10:05:16Z</time>
      </trkpt>
      <trkpt lat="45.95037" lon="4.86931">
        <ele>276</ele>
        <time>2016-08-25T10:05:17Z</time>
      </trkpt>
      <trkpt lat="45.95035" lon="4.86924">
        <ele>276</ele>
        <time>2016-08-25T10:05:18Z</time>
      </trkpt>
      <trkpt lat="45.95033" lon="4.86918">
        <ele>276</ele>
        <time>2016-08-25T10:05:19Z</time>
      </trkpt>
      <trkpt lat="45.95031" lon="4.8691">
        <ele>275</ele>
        <time>2016-08-25T10:05:20Z</time>
      </trkpt>
      <trkpt lat="45.9503" lon="4.86902">
        <ele>275</ele>
        <time>2016-08-25T10:05:21Z</time>
      </trkpt>
      <trkpt lat="45.95027" lon="4.86895">
        <ele>275</ele>
        <time>2016-08-25T10:05:22Z</time>
      </trkpt>
      <trkpt lat="45.95024" lon="4.86887">
        <ele>275</ele>
        <time>2016-08-25T10:05:23Z</time>
      </trkpt>
      <trkpt lat="45.95022" lon="4.86879">
        <ele>275</ele>
        <time>2016-08-25T10:05:24Z</time>
      </trkpt>
      <trkpt lat="45.9502" lon="4.86871">
        <ele>275</ele>
        <time>2016-08-25T10:05:25Z</time>
      </trkpt>
      <trkpt lat="45.95017" lon="4.86863">
        <ele>275</ele>
        <time>2016-08-25T10:05:26Z</time>
      </trkpt>
      <trkpt lat="45.95015" lon="4.86856">
        <ele>275</ele>
        <time>2016-08-25T10:05:27Z</time>
      </trkpt>
      <trkpt lat="45.95012" lon="4.86848">
        <ele>275</ele>
        <time>2016-08-25T10:05:28Z</time>
      </trkpt>
      <trkpt lat="45.95009" lon="4.86842">
        <ele>276</ele>
        <time>2016-08-25T10:05:29Z</time>
      </trkpt>
      <trkpt lat="45.95006" lon="4.86835">
        <ele>276</ele>
        <time>2016-08-25T10:05:30Z</time>
      </trkpt>
      <trkpt lat="45.95004" lon="4.86828">
        <ele>276</ele>
        <time>2016-08-25T10:05:31Z</time>
      </trkpt>
      <trkpt lat="45.95001" lon="4.86823">
        <ele>275</ele>
        <time>2016-08-25T10:05:32Z</time>
      </trkpt>
      <trkpt lat="45.94999" lon="4.86818">
        <ele>276</ele>
        <time>2016-08-25T10:05:33Z</time>
      </trkpt>
      <trkpt lat="45.94994" lon="4.86807">
        <ele>276</ele>
        <time>2016-08-25T10:05:35Z</time>
      </trkpt>
      <trkpt lat="45.94991" lon="4.86802">
        <ele>276</ele>
        <time>2016-08-25T10:05:36Z</time>
      </trkpt>
      <trkpt lat="45.94989" lon="4.86796">
        <ele>276</ele>
        <time>2016-08-25T10:05:37Z</time>
      </trkpt>
      <trkpt lat="45.94986" lon="4.86791">
        <ele>276</ele>
        <time>2016-08-25T10:05:38Z</time>
      </trkpt>
      <trkpt lat="45.94983" lon="4.86785">
        <ele>275</ele>
        <time>2016-08-25T10:05:39Z</time>
      </trkpt>
      <trkpt lat="45.9498" lon="4.8678">
        <ele>275</ele>
        <time>2016-08-25T10:05:40Z</time>
      </trkpt>
      <trkpt lat="45.94977" lon="4.86775">
        <ele>275</ele>
        <time>2016-08-25T10:05:41Z</time>
      </trkpt>
      <trkpt lat="45.94974" lon="4.8677">
        <ele>275</ele>
        <time>2016-08-25T10:05:42Z</time>
      </trkpt>
      <trkpt lat="45.94971" lon="4.86764">
        <ele>275</ele>
        <time>2016-08-25T10:05:43Z</time>
      </trkpt>
      <trkpt lat="45.94968" lon="4.86757">
        <ele>275</ele>
        <time>2016-08-25T10:05:44Z</time>
      </trkpt>
      <trkpt lat="45.94964" lon="4.86751">
        <ele>275</ele>
        <time>2016-08-25T10:05:45Z</time>
      </trkpt>
      <trkpt lat="45.94961" lon="4.86744">
        <ele>275</ele>
        <time>2016-08-25T10:05:46Z</time>
      </trkpt>
      <trkpt lat="45.94958" lon="4.86737">
        <ele>275</ele>
        <time>2016-08-25T10:05:47Z</time>
      </trkpt>
      <trkpt lat="45.94954" lon="4.86729">
        <ele>275</ele>
        <time>2016-08-25T10:05:48Z</time>
      </trkpt>
      <trkpt lat="45.94952" lon="4.86721">
        <ele>275</ele>
        <time>2016-08-25T10:05:49Z</time>
      </trkpt>
      <trkpt lat="45.94949" lon="4.86712">
        <ele>275</ele>
        <time>2016-08-25T10:05:50Z</time>
      </trkpt>
      <trkpt lat="45.94947" lon="4.86704">
        <ele>275</ele>
        <time>2016-08-25T10:05:51Z</time>
      </trkpt>
      <trkpt lat="45.94946" lon="4.86696">
        <ele>276</ele>
        <time>2016-08-25T10:05:52Z</time>
      </trkpt>
      <trkpt lat="45.94945" lon="4.86687">
        <ele>276</ele>
        <time>2016-08-25T10:05:53Z</time>
      </trkpt>
      <trkpt lat="45.94944" lon="4.86679">
        <ele>276</ele>
        <time>2016-08-25T10:05:54Z</time>
      </trkpt>
      <trkpt lat="45.94943" lon="4.86671">
        <ele>276</ele>
        <time>2016-08-25T10:05:55Z</time>
      </trkpt>
      <trkpt lat="45.94944" lon="4.86663">
        <ele>276</ele>
        <time>2016-08-25T10:05:56Z</time>
      </trkpt>
      <trkpt lat="45.94945" lon="4.86655">
        <ele>276</ele>
        <time>2016-08-25T10:05:57Z</time>
      </trkpt>
      <trkpt lat="45.94947" lon="4.86648">
        <ele>276</ele>
        <time>2016-08-25T10:05:58Z</time>
      </trkpt>
      <trkpt lat="45.9495" lon="4.86642">
        <ele>276</ele>
        <time>2016-08-25T10:05:59Z</time>
      </trkpt>
      <trkpt lat="45.94954" lon="4.86636">
        <ele>276</ele>
        <time>2016-08-25T10:06:00Z</time>
      </trkpt>
      <trkpt lat="45.94958" lon="4.86631">
        <ele>276</ele>
        <time>2016-08-25T10:06:01Z</time>
      </trkpt>
      <trkpt lat="45.94962" lon="4.86627">
        <ele>275</ele>
        <time>2016-08-25T10:06:02Z</time>
      </trkpt>
      <trkpt lat="45.94967" lon="4.86623">
        <ele>275</ele>
        <time>2016-08-25T10:06:03Z</time>
      </trkpt>
      <trkpt lat="45.94973" lon="4.8662">
        <ele>275</ele>
        <time>2016-08-25T10:06:04Z</time>
      </trkpt>
      <trkpt lat="45.94979" lon="4.86618">
        <ele>275</ele>
        <time>2016-08-25T10:06:05Z</time>
      </trkpt>
      <trkpt lat="45.94985" lon="4.86616">
        <ele>275</ele>
        <time>2016-08-25T10:06:06Z</time>
      </trkpt>
      <trkpt lat="45.94991" lon="4.86615">
        <ele>275</ele>
        <time>2016-08-25T10:06:07Z</time>
      </trkpt>
      <trkpt lat="45.94998" lon="4.86614">
        <ele>275</ele>
        <time>2016-08-25T10:06:08Z</time>
      </trkpt>
      <trkpt lat="45.95004" lon="4.86613">
        <ele>273</ele>
        <time>2016-08-25T10:06:09Z</time>
      </trkpt>
      <trkpt lat="45.95011" lon="4.86612">
        <ele>273</ele>
        <time>2016-08-25T10:06:10Z</time>
      </trkpt>
      <trkpt lat="45.95018" lon="4.86611">
        <ele>273</ele>
        <time>2016-08-25T10:06:11Z</time>
      </trkpt>
      <trkpt lat="45.95025" lon="4.86609">
        <ele>273</ele>
        <time>2016-08-25T10:06:12Z</time>
      </trkpt>
      <trkpt lat="45.95032" lon="4.86608">
        <ele>273</ele>
        <time>2016-08-25T10:06:13Z</time>
      </trkpt>
      <trkpt lat="45.95039" lon="4.86606">
        <ele>273</ele>
        <time>2016-08-25T10:06:14Z</time>
      </trkpt>
      <trkpt lat="45.95047" lon="4.86604">
        <ele>272</ele>
        <time>2016-08-25T10:06:15Z</time>
      </trkpt>
      <trkpt lat="45.95054" lon="4.86602">
        <ele>272</ele>
        <time>2016-08-25T10:06:16Z</time>
      </trkpt>
      <trkpt lat="45.95062" lon="4.866">
        <ele>272</ele>
        <time>2016-08-25T10:06:17Z</time>
      </trkpt>
      <trkpt lat="45.9507" lon="4.86597">
        <ele>272</ele>
        <time>2016-08-25T10:06:18Z</time>
      </trkpt>
      <trkpt lat="45.95077" lon="4.86595">
        <ele>272</ele>
        <time>2016-08-25T10:06:19Z</time>
      </trkpt>
      <trkpt lat="45.95085" lon="4.86593">
        <ele>271</ele>
        <time>2016-08-25T10:06:20Z</time>
      </trkpt>
      <trkpt lat="45.95093" lon="4.86591">
        <ele>271</ele>
        <time>2016-08-25T10:06:21Z</time>
      </trkpt>
      <trkpt lat="45.95102" lon="4.86589">
        <ele>271</ele>
        <time>2016-08-25T10:06:22Z</time>
      </trkpt>
      <trkpt lat="45.9511" lon="4.86587">
        <ele>271</ele>
        <time>2016-08-25T10:06:23Z</time>
      </trkpt>
      <trkpt lat="45.95119" lon="4.86586">
        <ele>270</ele>
        <time>2016-08-25T10:06:24Z</time>
      </trkpt>
      <trkpt lat="45.95127" lon="4.86584">
        <ele>270</ele>
        <time>2016-08-25T10:06:25Z</time>
      </trkpt>
      <trkpt lat="45.95136" lon="4.86582">
        <ele>270</ele>
        <time>2016-08-25T10:06:26Z</time>
      </trkpt>
      <trkpt lat="45.95145" lon="4.86581">
        <ele>270</ele>
        <time>2016-08-25T10:06:27Z</time>
      </trkpt>
      <trkpt lat="45.95154" lon="4.8658">
        <ele>269</ele>
        <time>2016-08-25T10:06:28Z</time>
      </trkpt>
      <trkpt lat="45.95163" lon="4.86579">
        <ele>269</ele>
        <time>2016-08-25T10:06:29Z</time>
      </trkpt>
      <trkpt lat="45.95172" lon="4.86578">
        <ele>269</ele>
        <time>2016-08-25T10:06:30Z</time>
      </trkpt>
      <trkpt lat="45.95182" lon="4.86578">
        <ele>269</ele>
        <time>2016-08-25T10:06:31Z</time>
      </trkpt>
      <trkpt lat="45.95191" lon="4.86577">
        <ele>269</ele>
        <time>2016-08-25T10:06:32Z</time>
      </trkpt>
      <trkpt lat="45.952" lon="4.86578">
        <ele>268</ele>
        <time>2016-08-25T10:06:33Z</time>
      </trkpt>
      <trkpt lat="45.95209" lon="4.86578">
        <ele>268</ele>
        <time>2016-08-25T10:06:34Z</time>
      </trkpt>
      <trkpt lat="45.95218" lon="4.86579">
        <ele>268</ele>
        <time>2016-08-25T10:06:35Z</time>
      </trkpt>
      <trkpt lat="45.95226" lon="4.86581">
        <ele>268</ele>
        <time>2016-08-25T10:06:36Z</time>
      </trkpt>
      <trkpt lat="45.95234" lon="4.86582">
        <ele>268</ele>
        <time>2016-08-25T10:06:37Z</time>
      </trkpt>
      <trkpt lat="45.95242" lon="4.86583">
        <ele>268</ele>
        <time>2016-08-25T10:06:38Z</time>
      </trkpt>
      <trkpt lat="45.95248" lon="4.86583">
        <ele>268</ele>
        <time>2016-08-25T10:06:39Z</time>
      </trkpt>
      <trkpt lat="45.95253" lon="4.86582">
        <ele>268</ele>
        <time>2016-08-25T10:06:40Z</time>
      </trkpt>
      <trkpt lat="45.95257" lon="4.86581">
        <ele>268</ele>
        <time>2016-08-25T10:06:41Z</time>
      </trkpt>
      <trkpt lat="45.95265" lon="4.86575">
        <ele>267</ele>
        <time>2016-08-25T10:06:45Z</time>
      </trkpt>
      <trkpt lat="45.95266" lon="4.86575">
        <ele>267</ele>
        <time>2016-08-25T10:06:46Z</time>
      </trkpt>
      <trkpt lat="45.95266" lon="4.86564">
        <ele>267</ele>
        <time>2016-08-25T10:06:50Z</time>
      </trkpt>
      <trkpt lat="45.95263" lon="4.86561">
        <ele>267</ele>
        <time>2016-08-25T10:06:51Z</time>
      </trkpt>
      <trkpt lat="45.95256" lon="4.86554">
        <ele>267</ele>
        <time>2016-08-25T10:06:53Z</time>
      </trkpt>
      <trkpt lat="45.95253" lon="4.8655">
        <ele>267</ele>
        <time>2016-08-25T10:06:54Z</time>
      </trkpt>
      <trkpt lat="45.9525" lon="4.86544">
        <ele>268</ele>
        <time>2016-08-25T10:06:55Z</time>
      </trkpt>
      <trkpt lat="45.95246" lon="4.86539">
        <ele>268</ele>
        <time>2016-08-25T10:06:56Z</time>
      </trkpt>
      <trkpt lat="45.95243" lon="4.86535">
        <ele>268</ele>
        <time>2016-08-25T10:06:57Z</time>
      </trkpt>
      <trkpt lat="45.95239" lon="4.86529">
        <ele>268</ele>
        <time>2016-08-25T10:06:58Z</time>
      </trkpt>
      <trkpt lat="45.95235" lon="4.86524">
        <ele>268</ele>
        <time>2016-08-25T10:06:59Z</time>
      </trkpt>
      <trkpt lat="45.95231" lon="4.86519">
        <ele>268</ele>
        <time>2016-08-25T10:07:00Z</time>
      </trkpt>
      <trkpt lat="45.95226" lon="4.86514">
        <ele>268</ele>
        <time>2016-08-25T10:07:01Z</time>
      </trkpt>
      <trkpt lat="45.95221" lon="4.86509">
        <ele>268</ele>
        <time>2016-08-25T10:07:02Z</time>
      </trkpt>
      <trkpt lat="45.95217" lon="4.86503">
        <ele>268</ele>
        <time>2016-08-25T10:07:03Z</time>
      </trkpt>
      <trkpt lat="45.95212" lon="4.86498">
        <ele>268</ele>
        <time>2016-08-25T10:07:04Z</time>
      </trkpt>
      <trkpt lat="45.95208" lon="4.86493">
        <ele>268</ele>
        <time>2016-08-25T10:07:05Z</time>
      </trkpt>
      <trkpt lat="45.95205" lon="4.86488">
        <ele>268</ele>
        <time>2016-08-25T10:07:06Z</time>
      </trkpt>
      <trkpt lat="45.95201" lon="4.86484">
        <ele>268</ele>
        <time>2016-08-25T10:07:07Z</time>
      </trkpt>
      <trkpt lat="45.95197" lon="4.8648">
        <ele>268</ele>
        <time>2016-08-25T10:07:08Z</time>
      </trkpt>
      <trkpt lat="45.9519" lon="4.86471">
        <ele>268</ele>
        <time>2016-08-25T10:07:10Z</time>
      </trkpt>
      <trkpt lat="45.95187" lon="4.86467">
        <ele>268</ele>
        <time>2016-08-25T10:07:11Z</time>
      </trkpt>
      <trkpt lat="45.95181" lon="4.86459">
        <ele>268</ele>
        <time>2016-08-25T10:07:13Z</time>
      </trkpt>
      <trkpt lat="45.95178" lon="4.86455">
        <ele>268</ele>
        <time>2016-08-25T10:07:14Z</time>
      </trkpt>
      <trkpt lat="45.95171" lon="4.86447">
        <ele>268</ele>
        <time>2016-08-25T10:07:16Z</time>
      </trkpt>
      <trkpt lat="45.95168" lon="4.86443">
        <ele>267</ele>
        <time>2016-08-25T10:07:17Z</time>
      </trkpt>
      <trkpt lat="45.95162" lon="4.86436">
        <ele>268</ele>
        <time>2016-08-25T10:07:19Z</time>
      </trkpt>
      <trkpt lat="45.95159" lon="4.86432">
        <ele>268</ele>
        <time>2016-08-25T10:07:20Z</time>
      </trkpt>
      <trkpt lat="45.95152" lon="4.86424">
        <ele>268</ele>
        <time>2016-08-25T10:07:22Z</time>
      </trkpt>
      <trkpt lat="45.95148" lon="4.8642">
        <ele>268</ele>
        <time>2016-08-25T10:07:23Z</time>
      </trkpt>
      <trkpt lat="45.95144" lon="4.86415">
        <ele>268</ele>
        <time>2016-08-25T10:07:24Z</time>
      </trkpt>
      <trkpt lat="45.9514" lon="4.86411">
        <ele>268</ele>
        <time>2016-08-25T10:07:25Z</time>
      </trkpt>
      <trkpt lat="45.95137" lon="4.86406">
        <ele>268</ele>
        <time>2016-08-25T10:07:26Z</time>
      </trkpt>
      <trkpt lat="45.95133" lon="4.86402">
        <ele>268</ele>
        <time>2016-08-25T10:07:27Z</time>
      </trkpt>
      <trkpt lat="45.9513" lon="4.86397">
        <ele>268</ele>
        <time>2016-08-25T10:07:28Z</time>
      </trkpt>
      <trkpt lat="45.95126" lon="4.86393">
        <ele>268</ele>
        <time>2016-08-25T10:07:29Z</time>
      </trkpt>
      <trkpt lat="45.95123" lon="4.86389">
        <ele>269</ele>
        <time>2016-08-25T10:07:30Z</time>
      </trkpt>
      <trkpt lat="45.95119" lon="4.86384">
        <ele>269</ele>
        <time>2016-08-25T10:07:31Z</time>
      </trkpt>
      <trkpt lat="45.95116" lon="4.8638">
        <ele>269</ele>
        <time>2016-08-25T10:07:32Z</time>
      </trkpt>
      <trkpt lat="45.95112" lon="4.86376">
        <ele>269</ele>
        <time>2016-08-25T10:07:33Z</time>
      </trkpt>
      <trkpt lat="45.95105" lon="4.86368">
        <ele>269</ele>
        <time>2016-08-25T10:07:35Z</time>
      </trkpt>
      <trkpt lat="45.95102" lon="4.86363">
        <ele>269</ele>
        <time>2016-08-25T10:07:36Z</time>
      </trkpt>
      <trkpt lat="45.95099" lon="4.86359">
        <ele>269</ele>
        <time>2016-08-25T10:07:37Z</time>
      </trkpt>
      <trkpt lat="45.95095" lon="4.86355">
        <ele>269</ele>
        <time>2016-08-25T10:07:38Z</time>
      </trkpt>
      <trkpt lat="45.95088" lon="4.86347">
        <ele>269</ele>
        <time>2016-08-25T10:07:40Z</time>
      </trkpt>
      <trkpt lat="45.95084" lon="4.86344">
        <ele>269</ele>
        <time>2016-08-25T10:07:41Z</time>
      </trkpt>
      <trkpt lat="45.95078" lon="4.86336">
        <ele>270</ele>
        <time>2016-08-25T10:07:43Z</time>
      </trkpt>
      <trkpt lat="45.95075" lon="4.86332">
        <ele>270</ele>
        <time>2016-08-25T10:07:44Z</time>
      </trkpt>
      <trkpt lat="45.95072" lon="4.86327">
        <ele>270</ele>
        <time>2016-08-25T10:07:45Z</time>
      </trkpt>
      <trkpt lat="45.95068" lon="4.86322">
        <ele>270</ele>
        <time>2016-08-25T10:07:46Z</time>
      </trkpt>
      <trkpt lat="45.95065" lon="4.86318">
        <ele>270</ele>
        <time>2016-08-25T10:07:47Z</time>
      </trkpt>
      <trkpt lat="45.95061" lon="4.86313">
        <ele>270</ele>
        <time>2016-08-25T10:07:48Z</time>
      </trkpt>
      <trkpt lat="45.95057" lon="4.86309">
        <ele>271</ele>
        <time>2016-08-25T10:07:49Z</time>
      </trkpt>
      <trkpt lat="45.95053" lon="4.86305">
        <ele>271</ele>
        <time>2016-08-25T10:07:50Z</time>
      </trkpt>
      <trkpt lat="45.9505" lon="4.863">
        <ele>271</ele>
        <time>2016-08-25T10:07:51Z</time>
      </trkpt>
      <trkpt lat="45.95046" lon="4.86296">
        <ele>271</ele>
        <time>2016-08-25T10:07:52Z</time>
      </trkpt>
      <trkpt lat="45.95043" lon="4.86291">
        <ele>271</ele>
        <time>2016-08-25T10:07:53Z</time>
      </trkpt>
      <trkpt lat="45.95039" lon="4.86287">
        <ele>271</ele>
        <time>2016-08-25T10:07:54Z</time>
      </trkpt>
      <trkpt lat="45.95036" lon="4.86282">
        <ele>271</ele>
        <time>2016-08-25T10:07:55Z</time>
      </trkpt>
      <trkpt lat="45.95032" lon="4.86278">
        <ele>271</ele>
        <time>2016-08-25T10:07:56Z</time>
      </trkpt>
      <trkpt lat="45.95025" lon="4.8627">
        <ele>271</ele>
        <time>2016-08-25T10:07:58Z</time>
      </trkpt>
      <trkpt lat="45.95022" lon="4.86266">
        <ele>271</ele>
        <time>2016-08-25T10:07:59Z</time>
      </trkpt>
      <trkpt lat="45.95016" lon="4.86258">
        <ele>271</ele>
        <time>2016-08-25T10:08:01Z</time>
      </trkpt>
      <trkpt lat="45.95014" lon="4.86255">
        <ele>272</ele>
        <time>2016-08-25T10:08:02Z</time>
      </trkpt>
      <trkpt lat="45.95008" lon="4.86248">
        <ele>272</ele>
        <time>2016-08-25T10:08:04Z</time>
      </trkpt>
      <trkpt lat="45.95005" lon="4.86244">
        <ele>272</ele>
        <time>2016-08-25T10:08:05Z</time>
      </trkpt>
      <trkpt lat="45.95" lon="4.86237">
        <ele>272</ele>
        <time>2016-08-25T10:08:07Z</time>
      </trkpt>
      <trkpt lat="45.94997" lon="4.86234">
        <ele>272</ele>
        <time>2016-08-25T10:08:08Z</time>
      </trkpt>
      <trkpt lat="45.94991" lon="4.86228">
        <ele>272</ele>
        <time>2016-08-25T10:08:10Z</time>
      </trkpt>
      <trkpt lat="45.94988" lon="4.86225">
        <ele>272</ele>
        <time>2016-08-25T10:08:11Z</time>
      </trkpt>
      <trkpt lat="45.94983" lon="4.86218">
        <ele>272</ele>
        <time>2016-08-25T10:08:13Z</time>
      </trkpt>
      <trkpt lat="45.9498" lon="4.86215">
        <ele>272</ele>
        <time>2016-08-25T10:08:14Z</time>
      </trkpt>
      <trkpt lat="45.94974" lon="4.86206">
        <ele>272</ele>
        <time>2016-08-25T10:08:16Z</time>
      </trkpt>
      <trkpt lat="45.94971" lon="4.86202">
        <ele>272</ele>
        <time>2016-08-25T10:08:17Z</time>
      </trkpt>
      <trkpt lat="45.94965" lon="4.86195">
        <ele>272</ele>
        <time>2016-08-25T10:08:19Z</time>
      </trkpt>
      <trkpt lat="45.94961" lon="4.86191">
        <ele>272</ele>
        <time>2016-08-25T10:08:20Z</time>
      </trkpt>
      <trkpt lat="45.94955" lon="4.86184">
        <ele>273</ele>
        <time>2016-08-25T10:08:22Z</time>
      </trkpt>
      <trkpt lat="45.94952" lon="4.8618">
        <ele>273</ele>
        <time>2016-08-25T10:08:23Z</time>
      </trkpt>
      <trkpt lat="45.94946" lon="4.86172">
        <ele>273</ele>
        <time>2016-08-25T10:08:25Z</time>
      </trkpt>
      <trkpt lat="45.94943" lon="4.86169">
        <ele>273</ele>
        <time>2016-08-25T10:08:26Z</time>
      </trkpt>
      <trkpt lat="45.94937" lon="4.8616">
        <ele>273</ele>
        <time>2016-08-25T10:08:28Z</time>
      </trkpt>
      <trkpt lat="45.94934" lon="4.86156">
        <ele>273</ele>
        <time>2016-08-25T10:08:29Z</time>
      </trkpt>
      <trkpt lat="45.94928" lon="4.86147">
        <ele>273</ele>
        <time>2016-08-25T10:08:31Z</time>
      </trkpt>
      <trkpt lat="45.94925" lon="4.86142">
        <ele>273</ele>
        <time>2016-08-25T10:08:32Z</time>
      </trkpt>
      <trkpt lat="45.9492" lon="4.86134">
        <ele>273</ele>
        <time>2016-08-25T10:08:34Z</time>
      </trkpt>
      <trkpt lat="45.94917" lon="4.8613">
        <ele>273</ele>
        <time>2016-08-25T10:08:35Z</time>
      </trkpt>
      <trkpt lat="45.94913" lon="4.86121">
        <ele>274</ele>
        <time>2016-08-25T10:08:37Z</time>
      </trkpt>
      <trkpt lat="45.94911" lon="4.86117">
        <ele>274</ele>
        <time>2016-08-25T10:08:38Z</time>
      </trkpt>
      <trkpt lat="45.94906" lon="4.86108">
        <ele>274</ele>
        <time>2016-08-25T10:08:40Z</time>
      </trkpt>
      <trkpt lat="45.94904" lon="4.86103">
        <ele>274</ele>
        <time>2016-08-25T10:08:41Z</time>
      </trkpt>
      <trkpt lat="45.949" lon="4.86092">
        <ele>274</ele>
        <time>2016-08-25T10:08:43Z</time>
      </trkpt>
      <trkpt lat="45.94899" lon="4.86087">
        <ele>274</ele>
        <time>2016-08-25T10:08:44Z</time>
      </trkpt>
      <trkpt lat="45.94895" lon="4.86076">
        <ele>274</ele>
        <time>2016-08-25T10:08:46Z</time>
      </trkpt>
      <trkpt lat="45.94893" lon="4.8607">
        <ele>274</ele>
        <time>2016-08-25T10:08:47Z</time>
      </trkpt>
      <trkpt lat="45.9489" lon="4.8606">
        <ele>274</ele>
        <time>2016-08-25T10:08:49Z</time>
      </trkpt>
      <trkpt lat="45.94889" lon="4.86054">
        <ele>274</ele>
        <time>2016-08-25T10:08:50Z</time>
      </trkpt>
      <trkpt lat="45.94886" lon="4.86043">
        <ele>274</ele>
        <time>2016-08-25T10:08:52Z</time>
      </trkpt>
      <trkpt lat="45.94885" lon="4.86037">
        <ele>274</ele>
        <time>2016-08-25T10:08:53Z</time>
      </trkpt>
      <trkpt lat="45.94882" lon="4.86026">
        <ele>274</ele>
        <time>2016-08-25T10:08:55Z</time>
      </trkpt>
      <trkpt lat="45.94881" lon="4.8602">
        <ele>274</ele>
        <time>2016-08-25T10:08:56Z</time>
      </trkpt>
      <trkpt lat="45.94878" lon="4.86008">
        <ele>274</ele>
        <time>2016-08-25T10:08:58Z</time>
      </trkpt>
      <trkpt lat="45.94876" lon="4.86003">
        <ele>274</ele>
        <time>2016-08-25T10:08:59Z</time>
      </trkpt>
      <trkpt lat="45.94874" lon="4.85997">
        <ele>275</ele>
        <time>2016-08-25T10:09:00Z</time>
      </trkpt>
      <trkpt lat="45.94873" lon="4.85991">
        <ele>275</ele>
        <time>2016-08-25T10:09:01Z</time>
      </trkpt>
      <trkpt lat="45.94871" lon="4.85984">
        <ele>275</ele>
        <time>2016-08-25T10:09:02Z</time>
      </trkpt>
      <trkpt lat="45.94869" lon="4.85978">
        <ele>275</ele>
        <time>2016-08-25T10:09:03Z</time>
      </trkpt>
      <trkpt lat="45.94866" lon="4.85967">
        <ele>275</ele>
        <time>2016-08-25T10:09:05Z</time>
      </trkpt>
      <trkpt lat="45.94865" lon="4.85962">
        <ele>275</ele>
        <time>2016-08-25T10:09:06Z</time>
      </trkpt>
      <trkpt lat="45.94863" lon="4.85956">
        <ele>275</ele>
        <time>2016-08-25T10:09:07Z</time>
      </trkpt>
      <trkpt lat="45.94861" lon="4.85949">
        <ele>275</ele>
        <time>2016-08-25T10:09:08Z</time>
      </trkpt>
      <trkpt lat="45.9486" lon="4.85943">
        <ele>275</ele>
        <time>2016-08-25T10:09:09Z</time>
      </trkpt>
      <trkpt lat="45.94858" lon="4.85936">
        <ele>275</ele>
        <time>2016-08-25T10:09:10Z</time>
      </trkpt>
      <trkpt lat="45.94856" lon="4.85929">
        <ele>275</ele>
        <time>2016-08-25T10:09:11Z</time>
      </trkpt>
      <trkpt lat="45.94854" lon="4.85922">
        <ele>275</ele>
        <time>2016-08-25T10:09:12Z</time>
      </trkpt>
      <trkpt lat="45.94852" lon="4.85915">
        <ele>275</ele>
        <time>2016-08-25T10:09:13Z</time>
      </trkpt>
      <trkpt lat="45.9485" lon="4.85909">
        <ele>275</ele>
        <time>2016-08-25T10:09:14Z</time>
      </trkpt>
      <trkpt lat="45.94848" lon="4.85901">
        <ele>276</ele>
        <time>2016-08-25T10:09:15Z</time>
      </trkpt>
      <trkpt lat="45.94846" lon="4.85894">
        <ele>276</ele>
        <time>2016-08-25T10:09:16Z</time>
      </trkpt>
      <trkpt lat="45.94844" lon="4.85887">
        <ele>276</ele>
        <time>2016-08-25T10:09:17Z</time>
      </trkpt>
      <trkpt lat="45.94841" lon="4.8588">
        <ele>276</ele>
        <time>2016-08-25T10:09:18Z</time>
      </trkpt>
      <trkpt lat="45.9484" lon="4.85873">
        <ele>276</ele>
        <time>2016-08-25T10:09:19Z</time>
      </trkpt>
      <trkpt lat="45.94838" lon="4.85865">
        <ele>276</ele>
        <time>2016-08-25T10:09:20Z</time>
      </trkpt>
      <trkpt lat="45.94836" lon="4.85858">
        <ele>276</ele>
        <time>2016-08-25T10:09:21Z</time>
      </trkpt>
      <trkpt lat="45.94835" lon="4.8585">
        <ele>276</ele>
        <time>2016-08-25T10:09:22Z</time>
      </trkpt>
      <trkpt lat="45.94833" lon="4.85843">
        <ele>277</ele>
        <time>2016-08-25T10:09:23Z</time>
      </trkpt>
      <trkpt lat="45.94831" lon="4.85837">
        <ele>277</ele>
        <time>2016-08-25T10:09:24Z</time>
      </trkpt>
      <trkpt lat="45.94829" lon="4.85831">
        <ele>277</ele>
        <time>2016-08-25T10:09:25Z</time>
      </trkpt>
      <trkpt lat="45.94827" lon="4.85825">
        <ele>277</ele>
        <time>2016-08-25T10:09:26Z</time>
      </trkpt>
      <trkpt lat="45.94825" lon="4.85819">
        <ele>278</ele>
        <time>2016-08-25T10:09:27Z</time>
      </trkpt>
      <trkpt lat="45.94823" lon="4.85812">
        <ele>278</ele>
        <time>2016-08-25T10:09:28Z</time>
      </trkpt>
      <trkpt lat="45.94822" lon="4.85806">
        <ele>278</ele>
        <time>2016-08-25T10:09:29Z</time>
      </trkpt>
      <trkpt lat="45.9482" lon="4.858">
        <ele>278</ele>
        <time>2016-08-25T10:09:30Z</time>
      </trkpt>
      <trkpt lat="45.94818" lon="4.85793">
        <ele>278</ele>
        <time>2016-08-25T10:09:31Z</time>
      </trkpt>
      <trkpt lat="45.94817" lon="4.85786">
        <ele>278</ele>
        <time>2016-08-25T10:09:32Z</time>
      </trkpt>
      <trkpt lat="45.94815" lon="4.8578">
        <ele>278</ele>
        <time>2016-08-25T10:09:33Z</time>
      </trkpt>
      <trkpt lat="45.94814" lon="4.85773">
        <ele>278</ele>
        <time>2016-08-25T10:09:34Z</time>
      </trkpt>
      <trkpt lat="45.94812" lon="4.85766">
        <ele>278</ele>
        <time>2016-08-25T10:09:35Z</time>
      </trkpt>
      <trkpt lat="45.94811" lon="4.85759">
        <ele>278</ele>
        <time>2016-08-25T10:09:36Z</time>
      </trkpt>
      <trkpt lat="45.94809" lon="4.85753">
        <ele>278</ele>
        <time>2016-08-25T10:09:37Z</time>
      </trkpt>
      <trkpt lat="45.94807" lon="4.85746">
        <ele>279</ele>
        <time>2016-08-25T10:09:38Z</time>
      </trkpt>
      <trkpt lat="45.94805" lon="4.85739">
        <ele>279</ele>
        <time>2016-08-25T10:09:39Z</time>
      </trkpt>
      <trkpt lat="45.94803" lon="4.85731">
        <ele>280</ele>
        <time>2016-08-25T10:09:40Z</time>
      </trkpt>
      <trkpt lat="45.94801" lon="4.85724">
        <ele>280</ele>
        <time>2016-08-25T10:09:41Z</time>
      </trkpt>
      <trkpt lat="45.94799" lon="4.85717">
        <ele>280</ele>
        <time>2016-08-25T10:09:42Z</time>
      </trkpt>
      <trkpt lat="45.94797" lon="4.8571">
        <ele>280</ele>
        <time>2016-08-25T10:09:43Z</time>
      </trkpt>
      <trkpt lat="45.94795" lon="4.85702">
        <ele>280</ele>
        <time>2016-08-25T10:09:44Z</time>
      </trkpt>
      <trkpt lat="45.94793" lon="4.85695">
        <ele>280</ele>
        <time>2016-08-25T10:09:45Z</time>
      </trkpt>
      <trkpt lat="45.94791" lon="4.85688">
        <ele>280</ele>
        <time>2016-08-25T10:09:46Z</time>
      </trkpt>
      <trkpt lat="45.94789" lon="4.85681">
        <ele>280</ele>
        <time>2016-08-25T10:09:47Z</time>
      </trkpt>
      <trkpt lat="45.94787" lon="4.85674">
        <ele>280</ele>
        <time>2016-08-25T10:09:48Z</time>
      </trkpt>
      <trkpt lat="45.94785" lon="4.85667">
        <ele>281</ele>
        <time>2016-08-25T10:09:49Z</time>
      </trkpt>
      <trkpt lat="45.94783" lon="4.8566">
        <ele>281</ele>
        <time>2016-08-25T10:09:50Z</time>
      </trkpt>
      <trkpt lat="45.94781" lon="4.85653">
        <ele>281</ele>
        <time>2016-08-25T10:09:51Z</time>
      </trkpt>
      <trkpt lat="45.9478" lon="4.85646">
        <ele>281</ele>
        <time>2016-08-25T10:09:52Z</time>
      </trkpt>
      <trkpt lat="45.94778" lon="4.85638">
        <ele>281</ele>
        <time>2016-08-25T10:09:53Z</time>
      </trkpt>
      <trkpt lat="45.94776" lon="4.85631">
        <ele>280</ele>
        <time>2016-08-25T10:09:54Z</time>
      </trkpt>
      <trkpt lat="45.94774" lon="4.85623">
        <ele>280</ele>
        <time>2016-08-25T10:09:55Z</time>
      </trkpt>
      <trkpt lat="45.94772" lon="4.85615">
        <ele>280</ele>
        <time>2016-08-25T10:09:56Z</time>
      </trkpt>
      <trkpt lat="45.9477" lon="4.85607">
        <ele>280</ele>
        <time>2016-08-25T10:09:57Z</time>
      </trkpt>
      <trkpt lat="45.94769" lon="4.85599">
        <ele>280</ele>
        <time>2016-08-25T10:09:58Z</time>
      </trkpt>
      <trkpt lat="45.94767" lon="4.85591">
        <ele>280</ele>
        <time>2016-08-25T10:09:59Z</time>
      </trkpt>
      <trkpt lat="45.94766" lon="4.85582">
        <ele>279</ele>
        <time>2016-08-25T10:10:00Z</time>
      </trkpt>
      <trkpt lat="45.94764" lon="4.85572">
        <ele>279</ele>
        <time>2016-08-25T10:10:01Z</time>
      </trkpt>
      <trkpt lat="45.94762" lon="4.85563">
        <ele>278</ele>
        <time>2016-08-25T10:10:02Z</time>
      </trkpt>
      <trkpt lat="45.9476" lon="4.85553">
        <ele>278</ele>
        <time>2016-08-25T10:10:03Z</time>
      </trkpt>
      <trkpt lat="45.94758" lon="4.85542">
        <ele>278</ele>
        <time>2016-08-25T10:10:04Z</time>
      </trkpt>
      <trkpt lat="45.94756" lon="4.85531">
        <ele>278</ele>
        <time>2016-08-25T10:10:05Z</time>
      </trkpt>
      <trkpt lat="45.94754" lon="4.85519">
        <ele>277</ele>
        <time>2016-08-25T10:10:06Z</time>
      </trkpt>
      <trkpt lat="45.94753" lon="4.85507">
        <ele>277</ele>
        <time>2016-08-25T10:10:07Z</time>
      </trkpt>
      <trkpt lat="45.94752" lon="4.85495">
        <ele>276</ele>
        <time>2016-08-25T10:10:08Z</time>
      </trkpt>
      <trkpt lat="45.94751" lon="4.85482">
        <ele>275</ele>
        <time>2016-08-25T10:10:09Z</time>
      </trkpt>
      <trkpt lat="45.94749" lon="4.8547">
        <ele>274</ele>
        <time>2016-08-25T10:10:10Z</time>
      </trkpt>
      <trkpt lat="45.94748" lon="4.85457">
        <ele>274</ele>
        <time>2016-08-25T10:10:11Z</time>
      </trkpt>
      <trkpt lat="45.94746" lon="4.85444">
        <ele>274</ele>
        <time>2016-08-25T10:10:12Z</time>
      </trkpt>
      <trkpt lat="45.94745" lon="4.85431">
        <ele>273</ele>
        <time>2016-08-25T10:10:13Z</time>
      </trkpt>
      <trkpt lat="45.94744" lon="4.85418">
        <ele>273</ele>
        <time>2016-08-25T10:10:14Z</time>
      </trkpt>
      <trkpt lat="45.94742" lon="4.85405">
        <ele>272</ele>
        <time>2016-08-25T10:10:15Z</time>
      </trkpt>
      <trkpt lat="45.94741" lon="4.85393">
        <ele>272</ele>
        <time>2016-08-25T10:10:16Z</time>
      </trkpt>
      <trkpt lat="45.9474" lon="4.85381">
        <ele>271</ele>
        <time>2016-08-25T10:10:17Z</time>
      </trkpt>
      <trkpt lat="45.94738" lon="4.85369">
        <ele>271</ele>
        <time>2016-08-25T10:10:18Z</time>
      </trkpt>
      <trkpt lat="45.94737" lon="4.85357">
        <ele>271</ele>
        <time>2016-08-25T10:10:19Z</time>
      </trkpt>
      <trkpt lat="45.94736" lon="4.85345">
        <ele>271</ele>
        <time>2016-08-25T10:10:20Z</time>
      </trkpt>
      <trkpt lat="45.94735" lon="4.85334">
        <ele>271</ele>
        <time>2016-08-25T10:10:21Z</time>
      </trkpt>
      <trkpt lat="45.94733" lon="4.85323">
        <ele>270</ele>
        <time>2016-08-25T10:10:22Z</time>
      </trkpt>
      <trkpt lat="45.94732" lon="4.85312">
        <ele>270</ele>
        <time>2016-08-25T10:10:23Z</time>
      </trkpt>
      <trkpt lat="45.94731" lon="4.85302">
        <ele>270</ele>
        <time>2016-08-25T10:10:24Z</time>
      </trkpt>
      <trkpt lat="45.9473" lon="4.85291">
        <ele>269</ele>
        <time>2016-08-25T10:10:25Z</time>
      </trkpt>
      <trkpt lat="45.94729" lon="4.85281">
        <ele>269</ele>
        <time>2016-08-25T10:10:26Z</time>
      </trkpt>
      <trkpt lat="45.94728" lon="4.85271">
        <ele>269</ele>
        <time>2016-08-25T10:10:27Z</time>
      </trkpt>
      <trkpt lat="45.94726" lon="4.85261">
        <ele>269</ele>
        <time>2016-08-25T10:10:28Z</time>
      </trkpt>
      <trkpt lat="45.94725" lon="4.85252">
        <ele>269</ele>
        <time>2016-08-25T10:10:29Z</time>
      </trkpt>
      <trkpt lat="45.94724" lon="4.85242">
        <ele>269</ele>
        <time>2016-08-25T10:10:30Z</time>
      </trkpt>
      <trkpt lat="45.94723" lon="4.85233">
        <ele>269</ele>
        <time>2016-08-25T10:10:31Z</time>
      </trkpt>
      <trkpt lat="45.94722" lon="4.85224">
        <ele>269</ele>
        <time>2016-08-25T10:10:32Z</time>
      </trkpt>
      <trkpt lat="45.94721" lon="4.85215">
        <ele>269</ele>
        <time>2016-08-25T10:10:33Z</time>
      </trkpt>
      <trkpt lat="45.9472" lon="4.85206">
        <ele>269</ele>
        <time>2016-08-25T10:10:34Z</time>
      </trkpt>
      <trkpt lat="45.94719" lon="4.85196">
        <ele>269</ele>
        <time>2016-08-25T10:10:35Z</time>
      </trkpt>
      <trkpt lat="45.94718" lon="4.85186">
        <ele>269</ele>
        <time>2016-08-25T10:10:36Z</time>
      </trkpt>
      <trkpt lat="45.94717" lon="4.85176">
        <ele>269</ele>
        <time>2016-08-25T10:10:37Z</time>
      </trkpt>
      <trkpt lat="45.94716" lon="4.85167">
        <ele>269</ele>
        <time>2016-08-25T10:10:38Z</time>
      </trkpt>
      <trkpt lat="45.94715" lon="4.85158">
        <ele>269</ele>
        <time>2016-08-25T10:10:39Z</time>
      </trkpt>
      <trkpt lat="45.94714" lon="4.85149">
        <ele>269</ele>
        <time>2016-08-25T10:10:40Z</time>
      </trkpt>
      <trkpt lat="45.94714" lon="4.8514">
        <ele>269</ele>
        <time>2016-08-25T10:10:41Z</time>
      </trkpt>
      <trkpt lat="45.94713" lon="4.85131">
        <ele>269</ele>
        <time>2016-08-25T10:10:42Z</time>
      </trkpt>
      <trkpt lat="45.94712" lon="4.85122">
        <ele>269</ele>
        <time>2016-08-25T10:10:43Z</time>
      </trkpt>
      <trkpt lat="45.94711" lon="4.85112">
        <ele>269</ele>
        <time>2016-08-25T10:10:44Z</time>
      </trkpt>
      <trkpt lat="45.9471" lon="4.85103">
        <ele>269</ele>
        <time>2016-08-25T10:10:45Z</time>
      </trkpt>
      <trkpt lat="45.94709" lon="4.85093">
        <ele>269</ele>
        <time>2016-08-25T10:10:46Z</time>
      </trkpt>
      <trkpt lat="45.94707" lon="4.85084">
        <ele>269</ele>
        <time>2016-08-25T10:10:47Z</time>
      </trkpt>
      <trkpt lat="45.94706" lon="4.85075">
        <ele>269</ele>
        <time>2016-08-25T10:10:48Z</time>
      </trkpt>
      <trkpt lat="45.94705" lon="4.85066">
        <ele>269</ele>
        <time>2016-08-25T10:10:49Z</time>
      </trkpt>
      <trkpt lat="45.94704" lon="4.85058">
        <ele>269</ele>
        <time>2016-08-25T10:10:50Z</time>
      </trkpt>
      <trkpt lat="45.94704" lon="4.85049">
        <ele>269</ele>
        <time>2016-08-25T10:10:51Z</time>
      </trkpt>
      <trkpt lat="45.94703" lon="4.85041">
        <ele>269</ele>
        <time>2016-08-25T10:10:52Z</time>
      </trkpt>
      <trkpt lat="45.94702" lon="4.85032">
        <ele>269</ele>
        <time>2016-08-25T10:10:53Z</time>
      </trkpt>
      <trkpt lat="45.94702" lon="4.85024">
        <ele>269</ele>
        <time>2016-08-25T10:10:54Z</time>
      </trkpt>
      <trkpt lat="45.94701" lon="4.85015">
        <ele>269</ele>
        <time>2016-08-25T10:10:55Z</time>
      </trkpt>
      <trkpt lat="45.947" lon="4.85006">
        <ele>269</ele>
        <time>2016-08-25T10:10:56Z</time>
      </trkpt>
      <trkpt lat="45.94699" lon="4.84997">
        <ele>269</ele>
        <time>2016-08-25T10:10:57Z</time>
      </trkpt>
      <trkpt lat="45.94698" lon="4.84988">
        <ele>269</ele>
        <time>2016-08-25T10:10:58Z</time>
      </trkpt>
      <trkpt lat="45.94697" lon="4.84979">
        <ele>269</ele>
        <time>2016-08-25T10:10:59Z</time>
      </trkpt>
      <trkpt lat="45.94696" lon="4.84969">
        <ele>269</ele>
        <time>2016-08-25T10:11:00Z</time>
      </trkpt>
      <trkpt lat="45.94696" lon="4.8496">
        <ele>269</ele>
        <time>2016-08-25T10:11:01Z</time>
      </trkpt>
      <trkpt lat="45.94695" lon="4.84951">
        <ele>269</ele>
        <time>2016-08-25T10:11:02Z</time>
      </trkpt>
      <trkpt lat="45.94694" lon="4.84941">
        <ele>269</ele>
        <time>2016-08-25T10:11:03Z</time>
      </trkpt>
      <trkpt lat="45.94692" lon="4.84932">
        <ele>269</ele>
        <time>2016-08-25T10:11:04Z</time>
      </trkpt>
      <trkpt lat="45.94691" lon="4.84924">
        <ele>269</ele>
        <time>2016-08-25T10:11:05Z</time>
      </trkpt>
      <trkpt lat="45.9469" lon="4.84915">
        <ele>269</ele>
        <time>2016-08-25T10:11:06Z</time>
      </trkpt>
      <trkpt lat="45.94689" lon="4.84907">
        <ele>269</ele>
        <time>2016-08-25T10:11:07Z</time>
      </trkpt>
      <trkpt lat="45.94688" lon="4.84898">
        <ele>268</ele>
        <time>2016-08-25T10:11:08Z</time>
      </trkpt>
      <trkpt lat="45.94687" lon="4.8489">
        <ele>268</ele>
        <time>2016-08-25T10:11:09Z</time>
      </trkpt>
      <trkpt lat="45.94686" lon="4.84882">
        <ele>268</ele>
        <time>2016-08-25T10:11:10Z</time>
      </trkpt>
      <trkpt lat="45.94685" lon="4.84874">
        <ele>268</ele>
        <time>2016-08-25T10:11:11Z</time>
      </trkpt>
      <trkpt lat="45.94685" lon="4.84866">
        <ele>268</ele>
        <time>2016-08-25T10:11:12Z</time>
      </trkpt>
      <trkpt lat="45.94684" lon="4.84858">
        <ele>268</ele>
        <time>2016-08-25T10:11:13Z</time>
      </trkpt>
      <trkpt lat="45.94684" lon="4.8485">
        <ele>268</ele>
        <time>2016-08-25T10:11:14Z</time>
      </trkpt>
      <trkpt lat="45.94683" lon="4.84842">
        <ele>268</ele>
        <time>2016-08-25T10:11:15Z</time>
      </trkpt>
      <trkpt lat="45.94683" lon="4.84833">
        <ele>268</ele>
        <time>2016-08-25T10:11:16Z</time>
      </trkpt>
      <trkpt lat="45.94682" lon="4.84824">
        <ele>268</ele>
        <time>2016-08-25T10:11:17Z</time>
      </trkpt>
      <trkpt lat="45.94681" lon="4.84815">
        <ele>268</ele>
        <time>2016-08-25T10:11:18Z</time>
      </trkpt>
      <trkpt lat="45.94681" lon="4.84805">
        <ele>268</ele>
        <time>2016-08-25T10:11:19Z</time>
      </trkpt>
      <trkpt lat="45.9468" lon="4.84796">
        <ele>268</ele>
        <time>2016-08-25T10:11:20Z</time>
      </trkpt>
      <trkpt lat="45.94679" lon="4.84786">
        <ele>269</ele>
        <time>2016-08-25T10:11:21Z</time>
      </trkpt>
      <trkpt lat="45.94678" lon="4.84776">
        <ele>269</ele>
        <time>2016-08-25T10:11:22Z</time>
      </trkpt>
      <trkpt lat="45.94677" lon="4.84767">
        <ele>269</ele>
        <time>2016-08-25T10:11:23Z</time>
      </trkpt>
      <trkpt lat="45.94677" lon="4.84758">
        <ele>269</ele>
        <time>2016-08-25T10:11:24Z</time>
      </trkpt>
      <trkpt lat="45.94676" lon="4.8475">
        <ele>269</ele>
        <time>2016-08-25T10:11:25Z</time>
      </trkpt>
      <trkpt lat="45.94676" lon="4.84741">
        <ele>269</ele>
        <time>2016-08-25T10:11:26Z</time>
      </trkpt>
      <trkpt lat="45.94676" lon="4.84733">
        <ele>269</ele>
        <time>2016-08-25T10:11:27Z</time>
      </trkpt>
      <trkpt lat="45.94675" lon="4.84724">
        <ele>269</ele>
        <time>2016-08-25T10:11:28Z</time>
      </trkpt>
      <trkpt lat="45.94675" lon="4.84717">
        <ele>269</ele>
        <time>2016-08-25T10:11:29Z</time>
      </trkpt>
      <trkpt lat="45.94674" lon="4.84709">
        <ele>269</ele>
        <time>2016-08-25T10:11:30Z</time>
      </trkpt>
      <trkpt lat="45.94674" lon="4.84701">
        <ele>269</ele>
        <time>2016-08-25T10:11:31Z</time>
      </trkpt>
      <trkpt lat="45.94673" lon="4.84693">
        <ele>269</ele>
        <time>2016-08-25T10:11:32Z</time>
      </trkpt>
      <trkpt lat="45.94673" lon="4.84684">
        <ele>269</ele>
        <time>2016-08-25T10:11:33Z</time>
      </trkpt>
      <trkpt lat="45.94673" lon="4.84675">
        <ele>269</ele>
        <time>2016-08-25T10:11:34Z</time>
      </trkpt>
      <trkpt lat="45.94672" lon="4.84665">
        <ele>269</ele>
        <time>2016-08-25T10:11:35Z</time>
      </trkpt>
      <trkpt lat="45.94672" lon="4.84655">
        <ele>268</ele>
        <time>2016-08-25T10:11:36Z</time>
      </trkpt>
      <trkpt lat="45.94671" lon="4.84646">
        <ele>268</ele>
        <time>2016-08-25T10:11:37Z</time>
      </trkpt>
      <trkpt lat="45.94671" lon="4.84636">
        <ele>268</ele>
        <time>2016-08-25T10:11:38Z</time>
      </trkpt>
      <trkpt lat="45.94671" lon="4.84626">
        <ele>268</ele>
        <time>2016-08-25T10:11:39Z</time>
      </trkpt>
      <trkpt lat="45.94671" lon="4.84616">
        <ele>268</ele>
        <time>2016-08-25T10:11:40Z</time>
      </trkpt>
      <trkpt lat="45.9467" lon="4.84607">
        <ele>268</ele>
        <time>2016-08-25T10:11:41Z</time>
      </trkpt>
      <trkpt lat="45.9467" lon="4.84597">
        <ele>268</ele>
        <time>2016-08-25T10:11:42Z</time>
      </trkpt>
      <trkpt lat="45.9467" lon="4.84589">
        <ele>268</ele>
        <time>2016-08-25T10:11:43Z</time>
      </trkpt>
      <trkpt lat="45.94669" lon="4.8458">
        <ele>268</ele>
        <time>2016-08-25T10:11:44Z</time>
      </trkpt>
      <trkpt lat="45.94669" lon="4.84572">
        <ele>268</ele>
        <time>2016-08-25T10:11:45Z</time>
      </trkpt>
      <trkpt lat="45.94669" lon="4.84564">
        <ele>268</ele>
        <time>2016-08-25T10:11:46Z</time>
      </trkpt>
      <trkpt lat="45.94668" lon="4.84556">
        <ele>268</ele>
        <time>2016-08-25T10:11:47Z</time>
      </trkpt>
      <trkpt lat="45.94667" lon="4.84548">
        <ele>268</ele>
        <time>2016-08-25T10:11:48Z</time>
      </trkpt>
      <trkpt lat="45.94666" lon="4.84539">
        <ele>268</ele>
        <time>2016-08-25T10:11:49Z</time>
      </trkpt>
      <trkpt lat="45.94665" lon="4.84529">
        <ele>268</ele>
        <time>2016-08-25T10:11:50Z</time>
      </trkpt>
      <trkpt lat="45.94665" lon="4.8452">
        <ele>268</ele>
        <time>2016-08-25T10:11:51Z</time>
      </trkpt>
      <trkpt lat="45.94664" lon="4.84511">
        <ele>268</ele>
        <time>2016-08-25T10:11:52Z</time>
      </trkpt>
      <trkpt lat="45.94663" lon="4.84502">
        <ele>268</ele>
        <time>2016-08-25T10:11:53Z</time>
      </trkpt>
      <trkpt lat="45.94662" lon="4.84493">
        <ele>268</ele>
        <time>2016-08-25T10:11:54Z</time>
      </trkpt>
      <trkpt lat="45.94661" lon="4.84484">
        <ele>268</ele>
        <time>2016-08-25T10:11:55Z</time>
      </trkpt>
      <trkpt lat="45.9466" lon="4.84475">
        <ele>268</ele>
        <time>2016-08-25T10:11:56Z</time>
      </trkpt>
      <trkpt lat="45.94659" lon="4.84467">
        <ele>268</ele>
        <time>2016-08-25T10:11:57Z</time>
      </trkpt>
      <trkpt lat="45.94659" lon="4.84458">
        <ele>268</ele>
        <time>2016-08-25T10:11:58Z</time>
      </trkpt>
      <trkpt lat="45.94658" lon="4.84451">
        <ele>268</ele>
        <time>2016-08-25T10:11:59Z</time>
      </trkpt>
      <trkpt lat="45.94657" lon="4.84443">
        <ele>268</ele>
        <time>2016-08-25T10:12:00Z</time>
      </trkpt>
      <trkpt lat="45.94657" lon="4.84436">
        <ele>268</ele>
        <time>2016-08-25T10:12:01Z</time>
      </trkpt>
      <trkpt lat="45.94656" lon="4.84427">
        <ele>268</ele>
        <time>2016-08-25T10:12:02Z</time>
      </trkpt>
      <trkpt lat="45.94655" lon="4.84419">
        <ele>268</ele>
        <time>2016-08-25T10:12:03Z</time>
      </trkpt>
      <trkpt lat="45.94654" lon="4.84411">
        <ele>268</ele>
        <time>2016-08-25T10:12:04Z</time>
      </trkpt>
      <trkpt lat="45.94653" lon="4.84403">
        <ele>268</ele>
        <time>2016-08-25T10:12:05Z</time>
      </trkpt>
      <trkpt lat="45.94652" lon="4.84395">
        <ele>268</ele>
        <time>2016-08-25T10:12:06Z</time>
      </trkpt>
      <trkpt lat="45.94651" lon="4.84387">
        <ele>268</ele>
        <time>2016-08-25T10:12:07Z</time>
      </trkpt>
      <trkpt lat="45.9465" lon="4.84378">
        <ele>268</ele>
        <time>2016-08-25T10:12:08Z</time>
      </trkpt>
      <trkpt lat="45.94649" lon="4.84371">
        <ele>268</ele>
        <time>2016-08-25T10:12:09Z</time>
      </trkpt>
      <trkpt lat="45.94648" lon="4.84363">
        <ele>268</ele>
        <time>2016-08-25T10:12:10Z</time>
      </trkpt>
      <trkpt lat="45.94647" lon="4.84355">
        <ele>268</ele>
        <time>2016-08-25T10:12:11Z</time>
      </trkpt>
      <trkpt lat="45.94646" lon="4.84348">
        <ele>268</ele>
        <time>2016-08-25T10:12:12Z</time>
      </trkpt>
      <trkpt lat="45.94645" lon="4.84339">
        <ele>268</ele>
        <time>2016-08-25T10:12:13Z</time>
      </trkpt>
      <trkpt lat="45.94644" lon="4.84331">
        <ele>268</ele>
        <time>2016-08-25T10:12:14Z</time>
      </trkpt>
      <trkpt lat="45.94643" lon="4.84322">
        <ele>268</ele>
        <time>2016-08-25T10:12:15Z</time>
      </trkpt>
      <trkpt lat="45.94642" lon="4.84313">
        <ele>269</ele>
        <time>2016-08-25T10:12:16Z</time>
      </trkpt>
      <trkpt lat="45.94641" lon="4.84304">
        <ele>269</ele>
        <time>2016-08-25T10:12:17Z</time>
      </trkpt>
      <trkpt lat="45.94639" lon="4.84294">
        <ele>269</ele>
        <time>2016-08-25T10:12:18Z</time>
      </trkpt>
      <trkpt lat="45.94638" lon="4.84284">
        <ele>269</ele>
        <time>2016-08-25T10:12:19Z</time>
      </trkpt>
      <trkpt lat="45.94637" lon="4.84275">
        <ele>269</ele>
        <time>2016-08-25T10:12:20Z</time>
      </trkpt>
      <trkpt lat="45.94635" lon="4.84266">
        <ele>269</ele>
        <time>2016-08-25T10:12:21Z</time>
      </trkpt>
      <trkpt lat="45.94634" lon="4.84257">
        <ele>269</ele>
        <time>2016-08-25T10:12:22Z</time>
      </trkpt>
      <trkpt lat="45.94633" lon="4.84248">
        <ele>269</ele>
        <time>2016-08-25T10:12:23Z</time>
      </trkpt>
      <trkpt lat="45.94631" lon="4.8424">
        <ele>269</ele>
        <time>2016-08-25T10:12:24Z</time>
      </trkpt>
      <trkpt lat="45.9463" lon="4.84231">
        <ele>269</ele>
        <time>2016-08-25T10:12:25Z</time>
      </trkpt>
      <trkpt lat="45.94629" lon="4.84223">
        <ele>269</ele>
        <time>2016-08-25T10:12:26Z</time>
      </trkpt>
      <trkpt lat="45.94628" lon="4.84214">
        <ele>269</ele>
        <time>2016-08-25T10:12:27Z</time>
      </trkpt>
      <trkpt lat="45.94626" lon="4.84206">
        <ele>269</ele>
        <time>2016-08-25T10:12:28Z</time>
      </trkpt>
      <trkpt lat="45.94625" lon="4.84196">
        <ele>269</ele>
        <time>2016-08-25T10:12:29Z</time>
      </trkpt>
      <trkpt lat="45.94623" lon="4.84187">
        <ele>269</ele>
        <time>2016-08-25T10:12:30Z</time>
      </trkpt>
      <trkpt lat="45.94622" lon="4.84177">
        <ele>269</ele>
        <time>2016-08-25T10:12:31Z</time>
      </trkpt>
      <trkpt lat="45.9462" lon="4.84168">
        <ele>269</ele>
        <time>2016-08-25T10:12:32Z</time>
      </trkpt>
      <trkpt lat="45.94619" lon="4.84158">
        <ele>269</ele>
        <time>2016-08-25T10:12:33Z</time>
      </trkpt>
      <trkpt lat="45.94617" lon="4.84149">
        <ele>269</ele>
        <time>2016-08-25T10:12:34Z</time>
      </trkpt>
      <trkpt lat="45.94616" lon="4.8414">
        <ele>269</ele>
        <time>2016-08-25T10:12:35Z</time>
      </trkpt>
      <trkpt lat="45.94614" lon="4.84131">
        <ele>269</ele>
        <time>2016-08-25T10:12:36Z</time>
      </trkpt>
      <trkpt lat="45.94613" lon="4.84122">
        <ele>269</ele>
        <time>2016-08-25T10:12:37Z</time>
      </trkpt>
      <trkpt lat="45.94612" lon="4.84114">
        <ele>269</ele>
        <time>2016-08-25T10:12:38Z</time>
      </trkpt>
      <trkpt lat="45.94611" lon="4.84106">
        <ele>269</ele>
        <time>2016-08-25T10:12:39Z</time>
      </trkpt>
      <trkpt lat="45.9461" lon="4.84097">
        <ele>269</ele>
        <time>2016-08-25T10:12:40Z</time>
      </trkpt>
      <trkpt lat="45.94608" lon="4.84088">
        <ele>269</ele>
        <time>2016-08-25T10:12:41Z</time>
      </trkpt>
      <trkpt lat="45.94606" lon="4.84079">
        <ele>269</ele>
        <time>2016-08-25T10:12:42Z</time>
      </trkpt>
      <trkpt lat="45.94605" lon="4.8407">
        <ele>269</ele>
        <time>2016-08-25T10:12:43Z</time>
      </trkpt>
      <trkpt lat="45.94604" lon="4.84061">
        <ele>269</ele>
        <time>2016-08-25T10:12:44Z</time>
      </trkpt>
      <trkpt lat="45.94602" lon="4.84052">
        <ele>269</ele>
        <time>2016-08-25T10:12:45Z</time>
      </trkpt>
      <trkpt lat="45.94601" lon="4.84044">
        <ele>269</ele>
        <time>2016-08-25T10:12:46Z</time>
      </trkpt>
      <trkpt lat="45.946" lon="4.84036">
        <ele>269</ele>
        <time>2016-08-25T10:12:47Z</time>
      </trkpt>
      <trkpt lat="45.94598" lon="4.84028">
        <ele>269</ele>
        <time>2016-08-25T10:12:48Z</time>
      </trkpt>
      <trkpt lat="45.94597" lon="4.8402">
        <ele>269</ele>
        <time>2016-08-25T10:12:49Z</time>
      </trkpt>
      <trkpt lat="45.94596" lon="4.84013">
        <ele>269</ele>
        <time>2016-08-25T10:12:50Z</time>
      </trkpt>
      <trkpt lat="45.94595" lon="4.84005">
        <ele>269</ele>
        <time>2016-08-25T10:12:51Z</time>
      </trkpt>
      <trkpt lat="45.94593" lon="4.83997">
        <ele>269</ele>
        <time>2016-08-25T10:12:52Z</time>
      </trkpt>
      <trkpt lat="45.94592" lon="4.8399">
        <ele>269</ele>
        <time>2016-08-25T10:12:53Z</time>
      </trkpt>
      <trkpt lat="45.94591" lon="4.83981">
        <ele>268</ele>
        <time>2016-08-25T10:12:54Z</time>
      </trkpt>
      <trkpt lat="45.94589" lon="4.83974">
        <ele>268</ele>
        <time>2016-08-25T10:12:55Z</time>
      </trkpt>
      <trkpt lat="45.94588" lon="4.83966">
        <ele>268</ele>
        <time>2016-08-25T10:12:56Z</time>
      </trkpt>
      <trkpt lat="45.94587" lon="4.83958">
        <ele>268</ele>
        <time>2016-08-25T10:12:57Z</time>
      </trkpt>
      <trkpt lat="45.94586" lon="4.8395">
        <ele>268</ele>
        <time>2016-08-25T10:12:58Z</time>
      </trkpt>
      <trkpt lat="45.94584" lon="4.83942">
        <ele>268</ele>
        <time>2016-08-25T10:12:59Z</time>
      </trkpt>
      <trkpt lat="45.94583" lon="4.83935">
        <ele>269</ele>
        <time>2016-08-25T10:13:00Z</time>
      </trkpt>
      <trkpt lat="45.94581" lon="4.83926">
        <ele>268</ele>
        <time>2016-08-25T10:13:01Z</time>
      </trkpt>
      <trkpt lat="45.9458" lon="4.83916">
        <ele>268</ele>
        <time>2016-08-25T10:13:02Z</time>
      </trkpt>
      <trkpt lat="45.94579" lon="4.83907">
        <ele>268</ele>
        <time>2016-08-25T10:13:03Z</time>
      </trkpt>
      <trkpt lat="45.94577" lon="4.83897">
        <ele>268</ele>
        <time>2016-08-25T10:13:04Z</time>
      </trkpt>
      <trkpt lat="45.94576" lon="4.83887">
        <ele>267</ele>
        <time>2016-08-25T10:13:05Z</time>
      </trkpt>
      <trkpt lat="45.94574" lon="4.83877">
        <ele>267</ele>
        <time>2016-08-25T10:13:06Z</time>
      </trkpt>
      <trkpt lat="45.94573" lon="4.83866">
        <ele>267</ele>
        <time>2016-08-25T10:13:07Z</time>
      </trkpt>
      <trkpt lat="45.94571" lon="4.83856">
        <ele>266</ele>
        <time>2016-08-25T10:13:08Z</time>
      </trkpt>
      <trkpt lat="45.9457" lon="4.83845">
        <ele>266</ele>
        <time>2016-08-25T10:13:09Z</time>
      </trkpt>
      <trkpt lat="45.94568" lon="4.83834">
        <ele>266</ele>
        <time>2016-08-25T10:13:10Z</time>
      </trkpt>
      <trkpt lat="45.94566" lon="4.83823">
        <ele>264</ele>
        <time>2016-08-25T10:13:11Z</time>
      </trkpt>
      <trkpt lat="45.94565" lon="4.83812">
        <ele>264</ele>
        <time>2016-08-25T10:13:12Z</time>
      </trkpt>
      <trkpt lat="45.94563" lon="4.838">
        <ele>264</ele>
        <time>2016-08-25T10:13:13Z</time>
      </trkpt>
      <trkpt lat="45.94561" lon="4.83789">
        <ele>264</ele>
        <time>2016-08-25T10:13:14Z</time>
      </trkpt>
      <trkpt lat="45.9456" lon="4.83778">
        <ele>264</ele>
        <time>2016-08-25T10:13:15Z</time>
      </trkpt>
      <trkpt lat="45.94558" lon="4.83766">
        <ele>263</ele>
        <time>2016-08-25T10:13:16Z</time>
      </trkpt>
      <trkpt lat="45.94556" lon="4.83756">
        <ele>263</ele>
        <time>2016-08-25T10:13:17Z</time>
      </trkpt>
      <trkpt lat="45.94554" lon="4.83745">
        <ele>262</ele>
        <time>2016-08-25T10:13:18Z</time>
      </trkpt>
      <trkpt lat="45.94553" lon="4.83734">
        <ele>262</ele>
        <time>2016-08-25T10:13:19Z</time>
      </trkpt>
      <trkpt lat="45.94551" lon="4.83724">
        <ele>262</ele>
        <time>2016-08-25T10:13:20Z</time>
      </trkpt>
      <trkpt lat="45.9455" lon="4.83714">
        <ele>262</ele>
        <time>2016-08-25T10:13:21Z</time>
      </trkpt>
      <trkpt lat="45.94548" lon="4.83703">
        <ele>262</ele>
        <time>2016-08-25T10:13:22Z</time>
      </trkpt>
      <trkpt lat="45.94547" lon="4.83693">
        <ele>262</ele>
        <time>2016-08-25T10:13:23Z</time>
      </trkpt>
      <trkpt lat="45.94545" lon="4.83684">
        <ele>262</ele>
        <time>2016-08-25T10:13:24Z</time>
      </trkpt>
      <trkpt lat="45.94543" lon="4.83674">
        <ele>262</ele>
        <time>2016-08-25T10:13:25Z</time>
      </trkpt>
      <trkpt lat="45.94541" lon="4.83665">
        <ele>261</ele>
        <time>2016-08-25T10:13:26Z</time>
      </trkpt>
      <trkpt lat="45.9454" lon="4.83655">
        <ele>261</ele>
        <time>2016-08-25T10:13:27Z</time>
      </trkpt>
      <trkpt lat="45.94539" lon="4.83646">
        <ele>261</ele>
        <time>2016-08-25T10:13:28Z</time>
      </trkpt>
      <trkpt lat="45.94537" lon="4.83637">
        <ele>261</ele>
        <time>2016-08-25T10:13:29Z</time>
      </trkpt>
      <trkpt lat="45.94535" lon="4.83628">
        <ele>261</ele>
        <time>2016-08-25T10:13:30Z</time>
      </trkpt>
      <trkpt lat="45.94534" lon="4.83619">
        <ele>261</ele>
        <time>2016-08-25T10:13:31Z</time>
      </trkpt>
      <trkpt lat="45.94532" lon="4.8361">
        <ele>261</ele>
        <time>2016-08-25T10:13:32Z</time>
      </trkpt>
      <trkpt lat="45.9453" lon="4.836">
        <ele>261</ele>
        <time>2016-08-25T10:13:33Z</time>
      </trkpt>
      <trkpt lat="45.94528" lon="4.83591">
        <ele>261</ele>
        <time>2016-08-25T10:13:34Z</time>
      </trkpt>
      <trkpt lat="45.94526" lon="4.83583">
        <ele>261</ele>
        <time>2016-08-25T10:13:35Z</time>
      </trkpt>
      <trkpt lat="45.94523" lon="4.83575">
        <ele>261</ele>
        <time>2016-08-25T10:13:36Z</time>
      </trkpt>
      <trkpt lat="45.94521" lon="4.83567">
        <ele>261</ele>
        <time>2016-08-25T10:13:37Z</time>
      </trkpt>
      <trkpt lat="45.94518" lon="4.8356">
        <ele>261</ele>
        <time>2016-08-25T10:13:38Z</time>
      </trkpt>
      <trkpt lat="45.94515" lon="4.83553">
        <ele>261</ele>
        <time>2016-08-25T10:13:39Z</time>
      </trkpt>
      <trkpt lat="45.94511" lon="4.83547">
        <ele>261</ele>
        <time>2016-08-25T10:13:40Z</time>
      </trkpt>
      <trkpt lat="45.94508" lon="4.83541">
        <ele>262</ele>
        <time>2016-08-25T10:13:41Z</time>
      </trkpt>
      <trkpt lat="45.94504" lon="4.83535">
        <ele>262</ele>
        <time>2016-08-25T10:13:42Z</time>
      </trkpt>
      <trkpt lat="45.945" lon="4.83529">
        <ele>262</ele>
        <time>2016-08-25T10:13:43Z</time>
      </trkpt>
      <trkpt lat="45.94497" lon="4.83523">
        <ele>262</ele>
        <time>2016-08-25T10:13:44Z</time>
      </trkpt>
      <trkpt lat="45.94493" lon="4.83517">
        <ele>262</ele>
        <time>2016-08-25T10:13:45Z</time>
      </trkpt>
      <trkpt lat="45.9449" lon="4.83511">
        <ele>262</ele>
        <time>2016-08-25T10:13:46Z</time>
      </trkpt>
      <trkpt lat="45.94486" lon="4.83505">
        <ele>262</ele>
        <time>2016-08-25T10:13:47Z</time>
      </trkpt>
      <trkpt lat="45.94482" lon="4.83498">
        <ele>263</ele>
        <time>2016-08-25T10:13:48Z</time>
      </trkpt>
      <trkpt lat="45.94479" lon="4.83492">
        <ele>263</ele>
        <time>2016-08-25T10:13:49Z</time>
      </trkpt>
      <trkpt lat="45.94475" lon="4.83486">
        <ele>263</ele>
        <time>2016-08-25T10:13:50Z</time>
      </trkpt>
      <trkpt lat="45.94472" lon="4.8348">
        <ele>263</ele>
        <time>2016-08-25T10:13:51Z</time>
      </trkpt>
      <trkpt lat="45.94468" lon="4.83475">
        <ele>263</ele>
        <time>2016-08-25T10:13:52Z</time>
      </trkpt>
      <trkpt lat="45.94465" lon="4.83469">
        <ele>263</ele>
        <time>2016-08-25T10:13:53Z</time>
      </trkpt>
      <trkpt lat="45.94461" lon="4.83462">
        <ele>263</ele>
        <time>2016-08-25T10:13:54Z</time>
      </trkpt>
      <trkpt lat="45.94458" lon="4.83456">
        <ele>263</ele>
        <time>2016-08-25T10:13:55Z</time>
      </trkpt>
      <trkpt lat="45.94454" lon="4.8345">
        <ele>263</ele>
        <time>2016-08-25T10:13:56Z</time>
      </trkpt>
      <trkpt lat="45.94451" lon="4.83443">
        <ele>263</ele>
        <time>2016-08-25T10:13:57Z</time>
      </trkpt>
      <trkpt lat="45.94447" lon="4.83436">
        <ele>263</ele>
        <time>2016-08-25T10:13:58Z</time>
      </trkpt>
      <trkpt lat="45.94444" lon="4.8343">
        <ele>263</ele>
        <time>2016-08-25T10:13:59Z</time>
      </trkpt>
      <trkpt lat="45.94441" lon="4.83423">
        <ele>264</ele>
        <time>2016-08-25T10:14:00Z</time>
      </trkpt>
      <trkpt lat="45.94437" lon="4.83416">
        <ele>264</ele>
        <time>2016-08-25T10:14:01Z</time>
      </trkpt>
      <trkpt lat="45.94434" lon="4.83409">
        <ele>264</ele>
        <time>2016-08-25T10:14:02Z</time>
      </trkpt>
      <trkpt lat="45.94431" lon="4.83403">
        <ele>264</ele>
        <time>2016-08-25T10:14:03Z</time>
      </trkpt>
      <trkpt lat="45.94428" lon="4.83397">
        <ele>264</ele>
        <time>2016-08-25T10:14:04Z</time>
      </trkpt>
      <trkpt lat="45.94425" lon="4.83391">
        <ele>264</ele>
        <time>2016-08-25T10:14:05Z</time>
      </trkpt>
      <trkpt lat="45.94423" lon="4.83385">
        <ele>264</ele>
        <time>2016-08-25T10:14:06Z</time>
      </trkpt>
      <trkpt lat="45.9442" lon="4.83379">
        <ele>264</ele>
        <time>2016-08-25T10:14:07Z</time>
      </trkpt>
      <trkpt lat="45.94417" lon="4.83373">
        <ele>264</ele>
        <time>2016-08-25T10:14:08Z</time>
      </trkpt>
      <trkpt lat="45.94414" lon="4.83367">
        <ele>264</ele>
        <time>2016-08-25T10:14:09Z</time>
      </trkpt>
      <trkpt lat="45.94412" lon="4.83361">
        <ele>264</ele>
        <time>2016-08-25T10:14:10Z</time>
      </trkpt>
      <trkpt lat="45.94409" lon="4.83355">
        <ele>263</ele>
        <time>2016-08-25T10:14:11Z</time>
      </trkpt>
      <trkpt lat="45.94406" lon="4.83349">
        <ele>263</ele>
        <time>2016-08-25T10:14:12Z</time>
      </trkpt>
      <trkpt lat="45.94404" lon="4.83343">
        <ele>263</ele>
        <time>2016-08-25T10:14:13Z</time>
      </trkpt>
      <trkpt lat="45.94402" lon="4.83336">
        <ele>263</ele>
        <time>2016-08-25T10:14:14Z</time>
      </trkpt>
      <trkpt lat="45.94399" lon="4.8333">
        <ele>264</ele>
        <time>2016-08-25T10:14:15Z</time>
      </trkpt>
      <trkpt lat="45.94397" lon="4.83324">
        <ele>264</ele>
        <time>2016-08-25T10:14:16Z</time>
      </trkpt>
      <trkpt lat="45.94394" lon="4.83317">
        <ele>264</ele>
        <time>2016-08-25T10:14:17Z</time>
      </trkpt>
      <trkpt lat="45.94392" lon="4.83311">
        <ele>264</ele>
        <time>2016-08-25T10:14:18Z</time>
      </trkpt>
      <trkpt lat="45.9439" lon="4.83305">
        <ele>264</ele>
        <time>2016-08-25T10:14:19Z</time>
      </trkpt>
      <trkpt lat="45.94388" lon="4.83298">
        <ele>264</ele>
        <time>2016-08-25T10:14:20Z</time>
      </trkpt>
      <trkpt lat="45.94385" lon="4.83292">
        <ele>264</ele>
        <time>2016-08-25T10:14:21Z</time>
      </trkpt>
      <trkpt lat="45.94383" lon="4.83285">
        <ele>264</ele>
        <time>2016-08-25T10:14:22Z</time>
      </trkpt>
      <trkpt lat="45.94381" lon="4.83278">
        <ele>264</ele>
        <time>2016-08-25T10:14:23Z</time>
      </trkpt>
      <trkpt lat="45.94379" lon="4.83271">
        <ele>264</ele>
        <time>2016-08-25T10:14:24Z</time>
      </trkpt>
      <trkpt lat="45.94376" lon="4.83264">
        <ele>264</ele>
        <time>2016-08-25T10:14:25Z</time>
      </trkpt>
      <trkpt lat="45.94374" lon="4.83257">
        <ele>265</ele>
        <time>2016-08-25T10:14:26Z</time>
      </trkpt>
      <trkpt lat="45.94371" lon="4.8325">
        <ele>265</ele>
        <time>2016-08-25T10:14:27Z</time>
      </trkpt>
      <trkpt lat="45.94369" lon="4.83244">
        <ele>265</ele>
        <time>2016-08-25T10:14:28Z</time>
      </trkpt>
      <trkpt lat="45.94366" lon="4.83237">
        <ele>265</ele>
        <time>2016-08-25T10:14:29Z</time>
      </trkpt>
      <trkpt lat="45.94364" lon="4.8323">
        <ele>266</ele>
        <time>2016-08-25T10:14:30Z</time>
      </trkpt>
      <trkpt lat="45.94362" lon="4.83224">
        <ele>266</ele>
        <time>2016-08-25T10:14:31Z</time>
      </trkpt>
      <trkpt lat="45.94359" lon="4.83218">
        <ele>266</ele>
        <time>2016-08-25T10:14:32Z</time>
      </trkpt>
      <trkpt lat="45.94357" lon="4.83212">
        <ele>266</ele>
        <time>2016-08-25T10:14:33Z</time>
      </trkpt>
      <trkpt lat="45.94353" lon="4.83201">
        <ele>266</ele>
        <time>2016-08-25T10:14:35Z</time>
      </trkpt>
      <trkpt lat="45.94351" lon="4.83196">
        <ele>266</ele>
        <time>2016-08-25T10:14:36Z</time>
      </trkpt>
      <trkpt lat="45.94347" lon="4.83185">
        <ele>266</ele>
        <time>2016-08-25T10:14:38Z</time>
      </trkpt>
      <trkpt lat="45.94346" lon="4.8318">
        <ele>266</ele>
        <time>2016-08-25T10:14:39Z</time>
      </trkpt>
      <trkpt lat="45.94342" lon="4.83168">
        <ele>266</ele>
        <time>2016-08-25T10:14:41Z</time>
      </trkpt>
      <trkpt lat="45.9434" lon="4.83162">
        <ele>266</ele>
        <time>2016-08-25T10:14:42Z</time>
      </trkpt>
      <trkpt lat="45.94338" lon="4.83156">
        <ele>266</ele>
        <time>2016-08-25T10:14:43Z</time>
      </trkpt>
      <trkpt lat="45.94336" lon="4.8315">
        <ele>266</ele>
        <time>2016-08-25T10:14:44Z</time>
      </trkpt>
      <trkpt lat="45.94333" lon="4.83144">
        <ele>266</ele>
        <time>2016-08-25T10:14:45Z</time>
      </trkpt>
      <trkpt lat="45.94331" lon="4.83137">
        <ele>266</ele>
        <time>2016-08-25T10:14:46Z</time>
      </trkpt>
      <trkpt lat="45.94329" lon="4.83131">
        <ele>266</ele>
        <time>2016-08-25T10:14:47Z</time>
      </trkpt>
      <trkpt lat="45.94327" lon="4.83125">
        <ele>266</ele>
        <time>2016-08-25T10:14:48Z</time>
      </trkpt>
      <trkpt lat="45.94323" lon="4.83114">
        <ele>266</ele>
        <time>2016-08-25T10:14:50Z</time>
      </trkpt>
      <trkpt lat="45.94321" lon="4.83109">
        <ele>266</ele>
        <time>2016-08-25T10:14:51Z</time>
      </trkpt>
      <trkpt lat="45.9432" lon="4.83103">
        <ele>266</ele>
        <time>2016-08-25T10:14:52Z</time>
      </trkpt>
      <trkpt lat="45.94318" lon="4.83096">
        <ele>266</ele>
        <time>2016-08-25T10:14:53Z</time>
      </trkpt>
      <trkpt lat="45.94316" lon="4.8309">
        <ele>266</ele>
        <time>2016-08-25T10:14:54Z</time>
      </trkpt>
      <trkpt lat="45.94314" lon="4.83083">
        <ele>266</ele>
        <time>2016-08-25T10:14:55Z</time>
      </trkpt>
      <trkpt lat="45.94312" lon="4.83076">
        <ele>266</ele>
        <time>2016-08-25T10:14:56Z</time>
      </trkpt>
      <trkpt lat="45.9431" lon="4.83068">
        <ele>266</ele>
        <time>2016-08-25T10:14:57Z</time>
      </trkpt>
      <trkpt lat="45.94308" lon="4.83061">
        <ele>266</ele>
        <time>2016-08-25T10:14:58Z</time>
      </trkpt>
      <trkpt lat="45.94307" lon="4.83054">
        <ele>266</ele>
        <time>2016-08-25T10:14:59Z</time>
      </trkpt>
      <trkpt lat="45.94305" lon="4.83047">
        <ele>266</ele>
        <time>2016-08-25T10:15:00Z</time>
      </trkpt>
      <trkpt lat="45.94304" lon="4.8304">
        <ele>266</ele>
        <time>2016-08-25T10:15:01Z</time>
      </trkpt>
      <trkpt lat="45.94301" lon="4.83028">
        <ele>266</ele>
        <time>2016-08-25T10:15:03Z</time>
      </trkpt>
      <trkpt lat="45.943" lon="4.83022">
        <ele>266</ele>
        <time>2016-08-25T10:15:04Z</time>
      </trkpt>
      <trkpt lat="45.94298" lon="4.83016">
        <ele>266</ele>
        <time>2016-08-25T10:15:05Z</time>
      </trkpt>
      <trkpt lat="45.94297" lon="4.8301">
        <ele>266</ele>
        <time>2016-08-25T10:15:06Z</time>
      </trkpt>
      <trkpt lat="45.94296" lon="4.83003">
        <ele>266</ele>
        <time>2016-08-25T10:15:07Z</time>
      </trkpt>
      <trkpt lat="45.94294" lon="4.82997">
        <ele>265</ele>
        <time>2016-08-25T10:15:08Z</time>
      </trkpt>
      <trkpt lat="45.94293" lon="4.8299">
        <ele>265</ele>
        <time>2016-08-25T10:15:09Z</time>
      </trkpt>
      <trkpt lat="45.94292" lon="4.82984">
        <ele>265</ele>
        <time>2016-08-25T10:15:10Z</time>
      </trkpt>
      <trkpt lat="45.94289" lon="4.82972">
        <ele>265</ele>
        <time>2016-08-25T10:15:12Z</time>
      </trkpt>
      <trkpt lat="45.94287" lon="4.82967">
        <ele>265</ele>
        <time>2016-08-25T10:15:13Z</time>
      </trkpt>
      <trkpt lat="45.94284" lon="4.82956">
        <ele>265</ele>
        <time>2016-08-25T10:15:15Z</time>
      </trkpt>
      <trkpt lat="45.94283" lon="4.82949">
        <ele>265</ele>
        <time>2016-08-25T10:15:16Z</time>
      </trkpt>
      <trkpt lat="45.94284" lon="4.82942">
        <ele>265</ele>
        <time>2016-08-25T10:15:17Z</time>
      </trkpt>
      <trkpt lat="45.94285" lon="4.82935">
        <ele>265</ele>
        <time>2016-08-25T10:15:18Z</time>
      </trkpt>
      <trkpt lat="45.94287" lon="4.82928">
        <ele>265</ele>
        <time>2016-08-25T10:15:19Z</time>
      </trkpt>
      <trkpt lat="45.94288" lon="4.8292">
        <ele>265</ele>
        <time>2016-08-25T10:15:20Z</time>
      </trkpt>
      <trkpt lat="45.94289" lon="4.82913">
        <ele>265</ele>
        <time>2016-08-25T10:15:21Z</time>
      </trkpt>
      <trkpt lat="45.9429" lon="4.82906">
        <ele>265</ele>
        <time>2016-08-25T10:15:22Z</time>
      </trkpt>
      <trkpt lat="45.94291" lon="4.82899">
        <ele>265</ele>
        <time>2016-08-25T10:15:23Z</time>
      </trkpt>
      <trkpt lat="45.94291" lon="4.82892">
        <ele>265</ele>
        <time>2016-08-25T10:15:24Z</time>
      </trkpt>
      <trkpt lat="45.94292" lon="4.82885">
        <ele>265</ele>
        <time>2016-08-25T10:15:25Z</time>
      </trkpt>
      <trkpt lat="45.94293" lon="4.82878">
        <ele>265</ele>
        <time>2016-08-25T10:15:26Z</time>
      </trkpt>
      <trkpt lat="45.94293" lon="4.8287">
        <ele>265</ele>
        <time>2016-08-25T10:15:27Z</time>
      </trkpt>
      <trkpt lat="45.94293" lon="4.82862">
        <ele>265</ele>
        <time>2016-08-25T10:15:28Z</time>
      </trkpt>
      <trkpt lat="45.94293" lon="4.82854">
        <ele>265</ele>
        <time>2016-08-25T10:15:29Z</time>
      </trkpt>
      <trkpt lat="45.94293" lon="4.82846">
        <ele>265</ele>
        <time>2016-08-25T10:15:30Z</time>
      </trkpt>
      <trkpt lat="45.94293" lon="4.82838">
        <ele>265</ele>
        <time>2016-08-25T10:15:31Z</time>
      </trkpt>
      <trkpt lat="45.94293" lon="4.8283">
        <ele>265</ele>
        <time>2016-08-25T10:15:32Z</time>
      </trkpt>
      <trkpt lat="45.94293" lon="4.82822">
        <ele>265</ele>
        <time>2016-08-25T10:15:33Z</time>
      </trkpt>
      <trkpt lat="45.94293" lon="4.82815">
        <ele>265</ele>
        <time>2016-08-25T10:15:34Z</time>
      </trkpt>
      <trkpt lat="45.94294" lon="4.82807">
        <ele>265</ele>
        <time>2016-08-25T10:15:35Z</time>
      </trkpt>
      <trkpt lat="45.94294" lon="4.82799">
        <ele>265</ele>
        <time>2016-08-25T10:15:36Z</time>
      </trkpt>
      <trkpt lat="45.94294" lon="4.8279">
        <ele>265</ele>
        <time>2016-08-25T10:15:37Z</time>
      </trkpt>
      <trkpt lat="45.94295" lon="4.82782">
        <ele>265</ele>
        <time>2016-08-25T10:15:38Z</time>
      </trkpt>
      <trkpt lat="45.94295" lon="4.82773">
        <ele>265</ele>
        <time>2016-08-25T10:15:39Z</time>
      </trkpt>
      <trkpt lat="45.94295" lon="4.82764">
        <ele>265</ele>
        <time>2016-08-25T10:15:40Z</time>
      </trkpt>
      <trkpt lat="45.94295" lon="4.82756">
        <ele>265</ele>
        <time>2016-08-25T10:15:41Z</time>
      </trkpt>
      <trkpt lat="45.94295" lon="4.82747">
        <ele>265</ele>
        <time>2016-08-25T10:15:42Z</time>
      </trkpt>
      <trkpt lat="45.94295" lon="4.82739">
        <ele>265</ele>
        <time>2016-08-25T10:15:43Z</time>
      </trkpt>
      <trkpt lat="45.94295" lon="4.82732">
        <ele>265</ele>
        <time>2016-08-25T10:15:44Z</time>
      </trkpt>
      <trkpt lat="45.94295" lon="4.82724">
        <ele>265</ele>
        <time>2016-08-25T10:15:45Z</time>
      </trkpt>
      <trkpt lat="45.94295" lon="4.82716">
        <ele>265</ele>
        <time>2016-08-25T10:15:46Z</time>
      </trkpt>
      <trkpt lat="45.94295" lon="4.82709">
        <ele>265</ele>
        <time>2016-08-25T10:15:47Z</time>
      </trkpt>
      <trkpt lat="45.94295" lon="4.82701">
        <ele>265</ele>
        <time>2016-08-25T10:15:48Z</time>
      </trkpt>
      <trkpt lat="45.94296" lon="4.82692">
        <ele>265</ele>
        <time>2016-08-25T10:15:49Z</time>
      </trkpt>
      <trkpt lat="45.94296" lon="4.82684">
        <ele>265</ele>
        <time>2016-08-25T10:15:50Z</time>
      </trkpt>
      <trkpt lat="45.94296" lon="4.82676">
        <ele>265</ele>
        <time>2016-08-25T10:15:51Z</time>
      </trkpt>
      <trkpt lat="45.94296" lon="4.82668">
        <ele>265</ele>
        <time>2016-08-25T10:15:52Z</time>
      </trkpt>
      <trkpt lat="45.94297" lon="4.8266">
        <ele>265</ele>
        <time>2016-08-25T10:15:53Z</time>
      </trkpt>
      <trkpt lat="45.94297" lon="4.82651">
        <ele>265</ele>
        <time>2016-08-25T10:15:54Z</time>
      </trkpt>
      <trkpt lat="45.94297" lon="4.82643">
        <ele>265</ele>
        <time>2016-08-25T10:15:55Z</time>
      </trkpt>
      <trkpt lat="45.94297" lon="4.82635">
        <ele>265</ele>
        <time>2016-08-25T10:15:56Z</time>
      </trkpt>
      <trkpt lat="45.94297" lon="4.82627">
        <ele>265</ele>
        <time>2016-08-25T10:15:57Z</time>
      </trkpt>
      <trkpt lat="45.94297" lon="4.82619">
        <ele>265</ele>
        <time>2016-08-25T10:15:58Z</time>
      </trkpt>
      <trkpt lat="45.94296" lon="4.82611">
        <ele>265</ele>
        <time>2016-08-25T10:15:59Z</time>
      </trkpt>
      <trkpt lat="45.94297" lon="4.82602">
        <ele>265</ele>
        <time>2016-08-25T10:16:00Z</time>
      </trkpt>
      <trkpt lat="45.94297" lon="4.82594">
        <ele>265</ele>
        <time>2016-08-25T10:16:01Z</time>
      </trkpt>
      <trkpt lat="45.94297" lon="4.82584">
        <ele>265</ele>
        <time>2016-08-25T10:16:02Z</time>
      </trkpt>
      <trkpt lat="45.94297" lon="4.82575">
        <ele>264</ele>
        <time>2016-08-25T10:16:03Z</time>
      </trkpt>
      <trkpt lat="45.94298" lon="4.82565">
        <ele>264</ele>
        <time>2016-08-25T10:16:04Z</time>
      </trkpt>
      <trkpt lat="45.94298" lon="4.82556">
        <ele>264</ele>
        <time>2016-08-25T10:16:05Z</time>
      </trkpt>
      <trkpt lat="45.94297" lon="4.82547">
        <ele>264</ele>
        <time>2016-08-25T10:16:06Z</time>
      </trkpt>
      <trkpt lat="45.94297" lon="4.82537">
        <ele>264</ele>
        <time>2016-08-25T10:16:07Z</time>
      </trkpt>
      <trkpt lat="45.94297" lon="4.82528">
        <ele>264</ele>
        <time>2016-08-25T10:16:08Z</time>
      </trkpt>
      <trkpt lat="45.94297" lon="4.82519">
        <ele>264</ele>
        <time>2016-08-25T10:16:09Z</time>
      </trkpt>
      <trkpt lat="45.94297" lon="4.8251">
        <ele>264</ele>
        <time>2016-08-25T10:16:10Z</time>
      </trkpt>
      <trkpt lat="45.94297" lon="4.82501">
        <ele>264</ele>
        <time>2016-08-25T10:16:11Z</time>
      </trkpt>
      <trkpt lat="45.94297" lon="4.82492">
        <ele>264</ele>
        <time>2016-08-25T10:16:12Z</time>
      </trkpt>
      <trkpt lat="45.94297" lon="4.82483">
        <ele>264</ele>
        <time>2016-08-25T10:16:13Z</time>
      </trkpt>
      <trkpt lat="45.94297" lon="4.82474">
        <ele>264</ele>
        <time>2016-08-25T10:16:14Z</time>
      </trkpt>
      <trkpt lat="45.94296" lon="4.82465">
        <ele>264</ele>
        <time>2016-08-25T10:16:15Z</time>
      </trkpt>
      <trkpt lat="45.94296" lon="4.82455">
        <ele>264</ele>
        <time>2016-08-25T10:16:16Z</time>
      </trkpt>
      <trkpt lat="45.94295" lon="4.82446">
        <ele>264</ele>
        <time>2016-08-25T10:16:17Z</time>
      </trkpt>
      <trkpt lat="45.94295" lon="4.82437">
        <ele>264</ele>
        <time>2016-08-25T10:16:18Z</time>
      </trkpt>
      <trkpt lat="45.94294" lon="4.82428">
        <ele>264</ele>
        <time>2016-08-25T10:16:19Z</time>
      </trkpt>
      <trkpt lat="45.94294" lon="4.82419">
        <ele>264</ele>
        <time>2016-08-25T10:16:20Z</time>
      </trkpt>
      <trkpt lat="45.94293" lon="4.8241">
        <ele>264</ele>
        <time>2016-08-25T10:16:21Z</time>
      </trkpt>
      <trkpt lat="45.94292" lon="4.82401">
        <ele>264</ele>
        <time>2016-08-25T10:16:22Z</time>
      </trkpt>
      <trkpt lat="45.94292" lon="4.82391">
        <ele>264</ele>
        <time>2016-08-25T10:16:23Z</time>
      </trkpt>
      <trkpt lat="45.94291" lon="4.8238">
        <ele>264</ele>
        <time>2016-08-25T10:16:24Z</time>
      </trkpt>
      <trkpt lat="45.9429" lon="4.8237">
        <ele>264</ele>
        <time>2016-08-25T10:16:25Z</time>
      </trkpt>
      <trkpt lat="45.9429" lon="4.82359">
        <ele>264</ele>
        <time>2016-08-25T10:16:26Z</time>
      </trkpt>
      <trkpt lat="45.9429" lon="4.82349">
        <ele>264</ele>
        <time>2016-08-25T10:16:27Z</time>
      </trkpt>
      <trkpt lat="45.94289" lon="4.82338">
        <ele>264</ele>
        <time>2016-08-25T10:16:28Z</time>
      </trkpt>
      <trkpt lat="45.94289" lon="4.82328">
        <ele>265</ele>
        <time>2016-08-25T10:16:29Z</time>
      </trkpt>
      <trkpt lat="45.94288" lon="4.82318">
        <ele>265</ele>
        <time>2016-08-25T10:16:30Z</time>
      </trkpt>
      <trkpt lat="45.94288" lon="4.82308">
        <ele>265</ele>
        <time>2016-08-25T10:16:31Z</time>
      </trkpt>
      <trkpt lat="45.94287" lon="4.82298">
        <ele>265</ele>
        <time>2016-08-25T10:16:32Z</time>
      </trkpt>
      <trkpt lat="45.94287" lon="4.82288">
        <ele>265</ele>
        <time>2016-08-25T10:16:33Z</time>
      </trkpt>
      <trkpt lat="45.94287" lon="4.82277">
        <ele>265</ele>
        <time>2016-08-25T10:16:34Z</time>
      </trkpt>
      <trkpt lat="45.94286" lon="4.82267">
        <ele>265</ele>
        <time>2016-08-25T10:16:35Z</time>
      </trkpt>
      <trkpt lat="45.94286" lon="4.82257">
        <ele>265</ele>
        <time>2016-08-25T10:16:36Z</time>
      </trkpt>
      <trkpt lat="45.94286" lon="4.82247">
        <ele>264</ele>
        <time>2016-08-25T10:16:37Z</time>
      </trkpt>
      <trkpt lat="45.94286" lon="4.82237">
        <ele>264</ele>
        <time>2016-08-25T10:16:38Z</time>
      </trkpt>
      <trkpt lat="45.94285" lon="4.82228">
        <ele>264</ele>
        <time>2016-08-25T10:16:39Z</time>
      </trkpt>
      <trkpt lat="45.94285" lon="4.82218">
        <ele>264</ele>
        <time>2016-08-25T10:16:40Z</time>
      </trkpt>
      <trkpt lat="45.94284" lon="4.82208">
        <ele>264</ele>
        <time>2016-08-25T10:16:41Z</time>
      </trkpt>
      <trkpt lat="45.94283" lon="4.82199">
        <ele>264</ele>
        <time>2016-08-25T10:16:42Z</time>
      </trkpt>
      <trkpt lat="45.94281" lon="4.8219">
        <ele>264</ele>
        <time>2016-08-25T10:16:43Z</time>
      </trkpt>
      <trkpt lat="45.9428" lon="4.82181">
        <ele>264</ele>
        <time>2016-08-25T10:16:44Z</time>
      </trkpt>
      <trkpt lat="45.94278" lon="4.82172">
        <ele>264</ele>
        <time>2016-08-25T10:16:45Z</time>
      </trkpt>
      <trkpt lat="45.94276" lon="4.82162">
        <ele>263</ele>
        <time>2016-08-25T10:16:46Z</time>
      </trkpt>
      <trkpt lat="45.94274" lon="4.82152">
        <ele>263</ele>
        <time>2016-08-25T10:16:47Z</time>
      </trkpt>
      <trkpt lat="45.94272" lon="4.82143">
        <ele>263</ele>
        <time>2016-08-25T10:16:48Z</time>
      </trkpt>
      <trkpt lat="45.9427" lon="4.82133">
        <ele>263</ele>
        <time>2016-08-25T10:16:49Z</time>
      </trkpt>
      <trkpt lat="45.94268" lon="4.82123">
        <ele>263</ele>
        <time>2016-08-25T10:16:50Z</time>
      </trkpt>
      <trkpt lat="45.94266" lon="4.82114">
        <ele>263</ele>
        <time>2016-08-25T10:16:51Z</time>
      </trkpt>
      <trkpt lat="45.94264" lon="4.82105">
        <ele>263</ele>
        <time>2016-08-25T10:16:52Z</time>
      </trkpt>
      <trkpt lat="45.94262" lon="4.82095">
        <ele>262</ele>
        <time>2016-08-25T10:16:53Z</time>
      </trkpt>
      <trkpt lat="45.94261" lon="4.82087">
        <ele>262</ele>
        <time>2016-08-25T10:16:54Z</time>
      </trkpt>
      <trkpt lat="45.94259" lon="4.82078">
        <ele>262</ele>
        <time>2016-08-25T10:16:55Z</time>
      </trkpt>
      <trkpt lat="45.94257" lon="4.82069">
        <ele>262</ele>
        <time>2016-08-25T10:16:56Z</time>
      </trkpt>
      <trkpt lat="45.94255" lon="4.82061">
        <ele>262</ele>
        <time>2016-08-25T10:16:57Z</time>
      </trkpt>
      <trkpt lat="45.94253" lon="4.82052">
        <ele>262</ele>
        <time>2016-08-25T10:16:58Z</time>
      </trkpt>
      <trkpt lat="45.94251" lon="4.82043">
        <ele>262</ele>
        <time>2016-08-25T10:16:59Z</time>
      </trkpt>
      <trkpt lat="45.94249" lon="4.82034">
        <ele>263</ele>
        <time>2016-08-25T10:17:00Z</time>
      </trkpt>
      <trkpt lat="45.94248" lon="4.82024">
        <ele>263</ele>
        <time>2016-08-25T10:17:01Z</time>
      </trkpt>
      <trkpt lat="45.94246" lon="4.82015">
        <ele>263</ele>
        <time>2016-08-25T10:17:02Z</time>
      </trkpt>
      <trkpt lat="45.94243" lon="4.82005">
        <ele>263</ele>
        <time>2016-08-25T10:17:03Z</time>
      </trkpt>
      <trkpt lat="45.94241" lon="4.81996">
        <ele>263</ele>
        <time>2016-08-25T10:17:04Z</time>
      </trkpt>
      <trkpt lat="45.94239" lon="4.81988">
        <ele>263</ele>
        <time>2016-08-25T10:17:05Z</time>
      </trkpt>
      <trkpt lat="45.94238" lon="4.8198">
        <ele>263</ele>
        <time>2016-08-25T10:17:06Z</time>
      </trkpt>
      <trkpt lat="45.94236" lon="4.81972">
        <ele>263</ele>
        <time>2016-08-25T10:17:07Z</time>
      </trkpt>
      <trkpt lat="45.94235" lon="4.81963">
        <ele>264</ele>
        <time>2016-08-25T10:17:08Z</time>
      </trkpt>
      <trkpt lat="45.94233" lon="4.81956">
        <ele>264</ele>
        <time>2016-08-25T10:17:09Z</time>
      </trkpt>
      <trkpt lat="45.94231" lon="4.81948">
        <ele>264</ele>
        <time>2016-08-25T10:17:10Z</time>
      </trkpt>
      <trkpt lat="45.94229" lon="4.81939">
        <ele>264</ele>
        <time>2016-08-25T10:17:11Z</time>
      </trkpt>
      <trkpt lat="45.94228" lon="4.81931">
        <ele>264</ele>
        <time>2016-08-25T10:17:12Z</time>
      </trkpt>
      <trkpt lat="45.94226" lon="4.81922">
        <ele>264</ele>
        <time>2016-08-25T10:17:13Z</time>
      </trkpt>
      <trkpt lat="45.94224" lon="4.81913">
        <ele>264</ele>
        <time>2016-08-25T10:17:14Z</time>
      </trkpt>
      <trkpt lat="45.94222" lon="4.81904">
        <ele>264</ele>
        <time>2016-08-25T10:17:15Z</time>
      </trkpt>
      <trkpt lat="45.9422" lon="4.81895">
        <ele>265</ele>
        <time>2016-08-25T10:17:16Z</time>
      </trkpt>
      <trkpt lat="45.94218" lon="4.81886">
        <ele>265</ele>
        <time>2016-08-25T10:17:17Z</time>
      </trkpt>
      <trkpt lat="45.94216" lon="4.81877">
        <ele>265</ele>
        <time>2016-08-25T10:17:18Z</time>
      </trkpt>
      <trkpt lat="45.94215" lon="4.81868">
        <ele>265</ele>
        <time>2016-08-25T10:17:19Z</time>
      </trkpt>
      <trkpt lat="45.94213" lon="4.8186">
        <ele>265</ele>
        <time>2016-08-25T10:17:20Z</time>
      </trkpt>
      <trkpt lat="45.94212" lon="4.81851">
        <ele>265</ele>
        <time>2016-08-25T10:17:21Z</time>
      </trkpt>
      <trkpt lat="45.9421" lon="4.81842">
        <ele>265</ele>
        <time>2016-08-25T10:17:22Z</time>
      </trkpt>
      <trkpt lat="45.94208" lon="4.81834">
        <ele>266</ele>
        <time>2016-08-25T10:17:23Z</time>
      </trkpt>
      <trkpt lat="45.94207" lon="4.81826">
        <ele>266</ele>
        <time>2016-08-25T10:17:24Z</time>
      </trkpt>
      <trkpt lat="45.94206" lon="4.81817">
        <ele>266</ele>
        <time>2016-08-25T10:17:25Z</time>
      </trkpt>
      <trkpt lat="45.94205" lon="4.81809">
        <ele>266</ele>
        <time>2016-08-25T10:17:26Z</time>
      </trkpt>
      <trkpt lat="45.94205" lon="4.81801">
        <ele>266</ele>
        <time>2016-08-25T10:17:27Z</time>
      </trkpt>
      <trkpt lat="45.94205" lon="4.81792">
        <ele>266</ele>
        <time>2016-08-25T10:17:28Z</time>
      </trkpt>
      <trkpt lat="45.94207" lon="4.81784">
        <ele>266</ele>
        <time>2016-08-25T10:17:29Z</time>
      </trkpt>
      <trkpt lat="45.94208" lon="4.81776">
        <ele>265</ele>
        <time>2016-08-25T10:17:30Z</time>
      </trkpt>
      <trkpt lat="45.9421" lon="4.81768">
        <ele>265</ele>
        <time>2016-08-25T10:17:31Z</time>
      </trkpt>
      <trkpt lat="45.94213" lon="4.81761">
        <ele>265</ele>
        <time>2016-08-25T10:17:32Z</time>
      </trkpt>
      <trkpt lat="45.94216" lon="4.81753">
        <ele>265</ele>
        <time>2016-08-25T10:17:33Z</time>
      </trkpt>
      <trkpt lat="45.94218" lon="4.81747">
        <ele>265</ele>
        <time>2016-08-25T10:17:34Z</time>
      </trkpt>
      <trkpt lat="45.9422" lon="4.81739">
        <ele>265</ele>
        <time>2016-08-25T10:17:35Z</time>
      </trkpt>
      <trkpt lat="45.94221" lon="4.81732">
        <ele>265</ele>
        <time>2016-08-25T10:17:36Z</time>
      </trkpt>
      <trkpt lat="45.94221" lon="4.81724">
        <ele>266</ele>
        <time>2016-08-25T10:17:37Z</time>
      </trkpt>
      <trkpt lat="45.94219" lon="4.81717">
        <ele>266</ele>
        <time>2016-08-25T10:17:38Z</time>
      </trkpt>
      <trkpt lat="45.94215" lon="4.81711">
        <ele>266</ele>
        <time>2016-08-25T10:17:39Z</time>
      </trkpt>
      <trkpt lat="45.9421" lon="4.81706">
        <ele>266</ele>
        <time>2016-08-25T10:17:40Z</time>
      </trkpt>
      <trkpt lat="45.94205" lon="4.81703">
        <ele>266</ele>
        <time>2016-08-25T10:17:41Z</time>
      </trkpt>
      <trkpt lat="45.94199" lon="4.81701">
        <ele>267</ele>
        <time>2016-08-25T10:17:42Z</time>
      </trkpt>
      <trkpt lat="45.94194" lon="4.81697">
        <ele>267</ele>
        <time>2016-08-25T10:17:43Z</time>
      </trkpt>
      <trkpt lat="45.94189" lon="4.81691">
        <ele>267</ele>
        <time>2016-08-25T10:17:44Z</time>
      </trkpt>
      <trkpt lat="45.94184" lon="4.81683">
        <ele>267</ele>
        <time>2016-08-25T10:17:45Z</time>
      </trkpt>
      <trkpt lat="45.9418" lon="4.81674">
        <ele>268</ele>
        <time>2016-08-25T10:17:46Z</time>
      </trkpt>
      <trkpt lat="45.94177" lon="4.81663">
        <ele>268</ele>
        <time>2016-08-25T10:17:47Z</time>
      </trkpt>
      <trkpt lat="45.94174" lon="4.81652">
        <ele>268</ele>
        <time>2016-08-25T10:17:48Z</time>
      </trkpt>
      <trkpt lat="45.94172" lon="4.81641">
        <ele>268</ele>
        <time>2016-08-25T10:17:49Z</time>
      </trkpt>
      <trkpt lat="45.94169" lon="4.8163">
        <ele>267</ele>
        <time>2016-08-25T10:17:50Z</time>
      </trkpt>
      <trkpt lat="45.94166" lon="4.81618">
        <ele>268</ele>
        <time>2016-08-25T10:17:51Z</time>
      </trkpt>
      <trkpt lat="45.94163" lon="4.81607">
        <ele>267</ele>
        <time>2016-08-25T10:17:52Z</time>
      </trkpt>
      <trkpt lat="45.94161" lon="4.81596">
        <ele>267</ele>
        <time>2016-08-25T10:17:53Z</time>
      </trkpt>
      <trkpt lat="45.94159" lon="4.81584">
        <ele>267</ele>
        <time>2016-08-25T10:17:54Z</time>
      </trkpt>
      <trkpt lat="45.94157" lon="4.81572">
        <ele>266</ele>
        <time>2016-08-25T10:17:55Z</time>
      </trkpt>
      <trkpt lat="45.94156" lon="4.81561">
        <ele>265</ele>
        <time>2016-08-25T10:17:56Z</time>
      </trkpt>
      <trkpt lat="45.94155" lon="4.81549">
        <ele>264</ele>
        <time>2016-08-25T10:17:57Z</time>
      </trkpt>
      <trkpt lat="45.94154" lon="4.81537">
        <ele>264</ele>
        <time>2016-08-25T10:17:58Z</time>
      </trkpt>
      <trkpt lat="45.94154" lon="4.81525">
        <ele>263</ele>
        <time>2016-08-25T10:17:59Z</time>
      </trkpt>
      <trkpt lat="45.94154" lon="4.81514">
        <ele>263</ele>
        <time>2016-08-25T10:18:00Z</time>
      </trkpt>
      <trkpt lat="45.94154" lon="4.81502">
        <ele>263</ele>
        <time>2016-08-25T10:18:01Z</time>
      </trkpt>
      <trkpt lat="45.94155" lon="4.81491">
        <ele>260</ele>
        <time>2016-08-25T10:18:02Z</time>
      </trkpt>
      <trkpt lat="45.94156" lon="4.81478">
        <ele>259</ele>
        <time>2016-08-25T10:18:03Z</time>
      </trkpt>
      <trkpt lat="45.94157" lon="4.81465">
        <ele>258</ele>
        <time>2016-08-25T10:18:04Z</time>
      </trkpt>
      <trkpt lat="45.94159" lon="4.81452">
        <ele>257</ele>
        <time>2016-08-25T10:18:05Z</time>
      </trkpt>
      <trkpt lat="45.9416" lon="4.81439">
        <ele>256</ele>
        <time>2016-08-25T10:18:06Z</time>
      </trkpt>
      <trkpt lat="45.94161" lon="4.81425">
        <ele>256</ele>
        <time>2016-08-25T10:18:07Z</time>
      </trkpt>
      <trkpt lat="45.94161" lon="4.81411">
        <ele>254</ele>
        <time>2016-08-25T10:18:08Z</time>
      </trkpt>
      <trkpt lat="45.94163" lon="4.81397">
        <ele>252</ele>
        <time>2016-08-25T10:18:09Z</time>
      </trkpt>
      <trkpt lat="45.94164" lon="4.81383">
        <ele>251</ele>
        <time>2016-08-25T10:18:10Z</time>
      </trkpt>
      <trkpt lat="45.94165" lon="4.81369">
        <ele>251</ele>
        <time>2016-08-25T10:18:11Z</time>
      </trkpt>
      <trkpt lat="45.94166" lon="4.81355">
        <ele>251</ele>
        <time>2016-08-25T10:18:12Z</time>
      </trkpt>
      <trkpt lat="45.94166" lon="4.81341">
        <ele>251</ele>
        <time>2016-08-25T10:18:13Z</time>
      </trkpt>
      <trkpt lat="45.94167" lon="4.81327">
        <ele>253</ele>
        <time>2016-08-25T10:18:14Z</time>
      </trkpt>
      <trkpt lat="45.94167" lon="4.81312">
        <ele>255</ele>
        <time>2016-08-25T10:18:15Z</time>
      </trkpt>
      <trkpt lat="45.94166" lon="4.81297">
        <ele>247</ele>
        <time>2016-08-25T10:18:16Z</time>
      </trkpt>
      <trkpt lat="45.94166" lon="4.81283">
        <ele>247</ele>
        <time>2016-08-25T10:18:17Z</time>
      </trkpt>
      <trkpt lat="45.94164" lon="4.81269">
        <ele>248</ele>
        <time>2016-08-25T10:18:18Z</time>
      </trkpt>
      <trkpt lat="45.94162" lon="4.81255">
        <ele>249</ele>
        <time>2016-08-25T10:18:19Z</time>
      </trkpt>
      <trkpt lat="45.9416" lon="4.81241">
        <ele>247</ele>
        <time>2016-08-25T10:18:20Z</time>
      </trkpt>
      <trkpt lat="45.94157" lon="4.81228">
        <ele>246</ele>
        <time>2016-08-25T10:18:21Z</time>
      </trkpt>
      <trkpt lat="45.94153" lon="4.81215">
        <ele>245</ele>
        <time>2016-08-25T10:18:22Z</time>
      </trkpt>
      <trkpt lat="45.9415" lon="4.81201">
        <ele>244</ele>
        <time>2016-08-25T10:18:23Z</time>
      </trkpt>
      <trkpt lat="45.94146" lon="4.81188">
        <ele>244</ele>
        <time>2016-08-25T10:18:24Z</time>
      </trkpt>
      <trkpt lat="45.94141" lon="4.81174">
        <ele>244</ele>
        <time>2016-08-25T10:18:25Z</time>
      </trkpt>
      <trkpt lat="45.94136" lon="4.81161">
        <ele>244</ele>
        <time>2016-08-25T10:18:26Z</time>
      </trkpt>
      <trkpt lat="45.94131" lon="4.81148">
        <ele>243</ele>
        <time>2016-08-25T10:18:27Z</time>
      </trkpt>
      <trkpt lat="45.94125" lon="4.81136">
        <ele>243</ele>
        <time>2016-08-25T10:18:28Z</time>
      </trkpt>
      <trkpt lat="45.94119" lon="4.81124">
        <ele>243</ele>
        <time>2016-08-25T10:18:29Z</time>
      </trkpt>
      <trkpt lat="45.94113" lon="4.81113">
        <ele>242</ele>
        <time>2016-08-25T10:18:30Z</time>
      </trkpt>
      <trkpt lat="45.94107" lon="4.81102">
        <ele>242</ele>
        <time>2016-08-25T10:18:31Z</time>
      </trkpt>
      <trkpt lat="45.941" lon="4.81091">
        <ele>240</ele>
        <time>2016-08-25T10:18:32Z</time>
      </trkpt>
      <trkpt lat="45.94094" lon="4.81079">
        <ele>241</ele>
        <time>2016-08-25T10:18:33Z</time>
      </trkpt>
      <trkpt lat="45.94089" lon="4.81066">
        <ele>242</ele>
        <time>2016-08-25T10:18:34Z</time>
      </trkpt>
      <trkpt lat="45.94084" lon="4.81053">
        <ele>243</ele>
        <time>2016-08-25T10:18:35Z</time>
      </trkpt>
      <trkpt lat="45.94078" lon="4.8104">
        <ele>233</ele>
        <time>2016-08-25T10:18:36Z</time>
      </trkpt>
      <trkpt lat="45.94074" lon="4.81026">
        <ele>234</ele>
        <time>2016-08-25T10:18:37Z</time>
      </trkpt>
      <trkpt lat="45.94071" lon="4.81011">
        <ele>235</ele>
        <time>2016-08-25T10:18:38Z</time>
      </trkpt>
      <trkpt lat="45.94069" lon="4.80996">
        <ele>235</ele>
        <time>2016-08-25T10:18:39Z</time>
      </trkpt>
      <trkpt lat="45.94067" lon="4.80982">
        <ele>233</ele>
        <time>2016-08-25T10:18:40Z</time>
      </trkpt>
      <trkpt lat="45.94065" lon="4.80967">
        <ele>232</ele>
        <time>2016-08-25T10:18:41Z</time>
      </trkpt>
      <trkpt lat="45.94063" lon="4.80953">
        <ele>232</ele>
        <time>2016-08-25T10:18:42Z</time>
      </trkpt>
      <trkpt lat="45.94061" lon="4.80939">
        <ele>232</ele>
        <time>2016-08-25T10:18:43Z</time>
      </trkpt>
      <trkpt lat="45.9406" lon="4.80924">
        <ele>232</ele>
        <time>2016-08-25T10:18:44Z</time>
      </trkpt>
      <trkpt lat="45.94058" lon="4.80909">
        <ele>232</ele>
        <time>2016-08-25T10:18:45Z</time>
      </trkpt>
      <trkpt lat="45.94056" lon="4.80895">
        <ele>231</ele>
        <time>2016-08-25T10:18:46Z</time>
      </trkpt>
      <trkpt lat="45.94053" lon="4.80879">
        <ele>230</ele>
        <time>2016-08-25T10:18:47Z</time>
      </trkpt>
      <trkpt lat="45.94052" lon="4.80864">
        <ele>230</ele>
        <time>2016-08-25T10:18:48Z</time>
      </trkpt>
      <trkpt lat="45.9405" lon="4.80848">
        <ele>230</ele>
        <time>2016-08-25T10:18:49Z</time>
      </trkpt>
      <trkpt lat="45.94048" lon="4.80832">
        <ele>230</ele>
        <time>2016-08-25T10:18:50Z</time>
      </trkpt>
      <trkpt lat="45.94047" lon="4.80817">
        <ele>229</ele>
        <time>2016-08-25T10:18:51Z</time>
      </trkpt>
      <trkpt lat="45.94045" lon="4.80802">
        <ele>228</ele>
        <time>2016-08-25T10:18:52Z</time>
      </trkpt>
      <trkpt lat="45.94043" lon="4.80787">
        <ele>228</ele>
        <time>2016-08-25T10:18:53Z</time>
      </trkpt>
      <trkpt lat="45.94041" lon="4.80772">
        <ele>228</ele>
        <time>2016-08-25T10:18:54Z</time>
      </trkpt>
      <trkpt lat="45.9404" lon="4.80756">
        <ele>227</ele>
        <time>2016-08-25T10:18:55Z</time>
      </trkpt>
      <trkpt lat="45.94038" lon="4.80741">
        <ele>226</ele>
        <time>2016-08-25T10:18:56Z</time>
      </trkpt>
      <trkpt lat="45.94036" lon="4.80724">
        <ele>226</ele>
        <time>2016-08-25T10:18:57Z</time>
      </trkpt>
      <trkpt lat="45.94034" lon="4.80709">
        <ele>226</ele>
        <time>2016-08-25T10:18:58Z</time>
      </trkpt>
      <trkpt lat="45.94032" lon="4.80694">
        <ele>225</ele>
        <time>2016-08-25T10:18:59Z</time>
      </trkpt>
      <trkpt lat="45.94031" lon="4.80678">
        <ele>225</ele>
        <time>2016-08-25T10:19:00Z</time>
      </trkpt>
      <trkpt lat="45.94029" lon="4.80662">
        <ele>224</ele>
        <time>2016-08-25T10:19:01Z</time>
      </trkpt>
      <trkpt lat="45.94028" lon="4.80646">
        <ele>224</ele>
        <time>2016-08-25T10:19:02Z</time>
      </trkpt>
      <trkpt lat="45.94027" lon="4.8063">
        <ele>225</ele>
        <time>2016-08-25T10:19:03Z</time>
      </trkpt>
      <trkpt lat="45.94025" lon="4.80614">
        <ele>225</ele>
        <time>2016-08-25T10:19:04Z</time>
      </trkpt>
      <trkpt lat="45.94024" lon="4.80598">
        <ele>224</ele>
        <time>2016-08-25T10:19:05Z</time>
      </trkpt>
      <trkpt lat="45.94022" lon="4.80582">
        <ele>223</ele>
        <time>2016-08-25T10:19:06Z</time>
      </trkpt>
      <trkpt lat="45.94021" lon="4.80566">
        <ele>224</ele>
        <time>2016-08-25T10:19:07Z</time>
      </trkpt>
      <trkpt lat="45.9402" lon="4.80549">
        <ele>225</ele>
        <time>2016-08-25T10:19:08Z</time>
      </trkpt>
      <trkpt lat="45.94019" lon="4.80533">
        <ele>225</ele>
        <time>2016-08-25T10:19:09Z</time>
      </trkpt>
      <trkpt lat="45.94019" lon="4.80515">
        <ele>224</ele>
        <time>2016-08-25T10:19:10Z</time>
      </trkpt>
      <trkpt lat="45.94019" lon="4.80499">
        <ele>222</ele>
        <time>2016-08-25T10:19:11Z</time>
      </trkpt>
      <trkpt lat="45.94018" lon="4.80483">
        <ele>223</ele>
        <time>2016-08-25T10:19:12Z</time>
      </trkpt>
      <trkpt lat="45.94017" lon="4.80467">
        <ele>223</ele>
        <time>2016-08-25T10:19:13Z</time>
      </trkpt>
      <trkpt lat="45.94016" lon="4.80451">
        <ele>223</ele>
        <time>2016-08-25T10:19:14Z</time>
      </trkpt>
      <trkpt lat="45.94014" lon="4.80435">
        <ele>221</ele>
        <time>2016-08-25T10:19:15Z</time>
      </trkpt>
      <trkpt lat="45.94011" lon="4.8042">
        <ele>219</ele>
        <time>2016-08-25T10:19:16Z</time>
      </trkpt>
      <trkpt lat="45.94008" lon="4.80405">
        <ele>217</ele>
        <time>2016-08-25T10:19:17Z</time>
      </trkpt>
      <trkpt lat="45.94005" lon="4.8039">
        <ele>217</ele>
        <time>2016-08-25T10:19:18Z</time>
      </trkpt>
      <trkpt lat="45.94001" lon="4.80376">
        <ele>216</ele>
        <time>2016-08-25T10:19:19Z</time>
      </trkpt>
      <trkpt lat="45.93997" lon="4.80361">
        <ele>207</ele>
        <time>2016-08-25T10:19:20Z</time>
      </trkpt>
      <trkpt lat="45.93992" lon="4.80346">
        <ele>206</ele>
        <time>2016-08-25T10:19:21Z</time>
      </trkpt>
      <trkpt lat="45.93988" lon="4.8033">
        <ele>204</ele>
        <time>2016-08-25T10:19:22Z</time>
      </trkpt>
      <trkpt lat="45.93984" lon="4.80314">
        <ele>203</ele>
        <time>2016-08-25T10:19:23Z</time>
      </trkpt>
      <trkpt lat="45.9398" lon="4.80299">
        <ele>203</ele>
        <time>2016-08-25T10:19:24Z</time>
      </trkpt>
      <trkpt lat="45.93976" lon="4.80283">
        <ele>203</ele>
        <time>2016-08-25T10:19:25Z</time>
      </trkpt>
      <trkpt lat="45.93972" lon="4.80268">
        <ele>202</ele>
        <time>2016-08-25T10:19:26Z</time>
      </trkpt>
      <trkpt lat="45.93968" lon="4.80253">
        <ele>202</ele>
        <time>2016-08-25T10:19:27Z</time>
      </trkpt>
      <trkpt lat="45.93964" lon="4.80239">
        <ele>204</ele>
        <time>2016-08-25T10:19:28Z</time>
      </trkpt>
      <trkpt lat="45.93961" lon="4.80225">
        <ele>205</ele>
        <time>2016-08-25T10:19:29Z</time>
      </trkpt>
      <trkpt lat="45.93957" lon="4.80211">
        <ele>205</ele>
        <time>2016-08-25T10:19:30Z</time>
      </trkpt>
      <trkpt lat="45.93954" lon="4.80197">
        <ele>205</ele>
        <time>2016-08-25T10:19:31Z</time>
      </trkpt>
      <trkpt lat="45.93952" lon="4.80184">
        <ele>206</ele>
        <time>2016-08-25T10:19:32Z</time>
      </trkpt>
      <trkpt lat="45.93949" lon="4.80172">
        <ele>206</ele>
        <time>2016-08-25T10:19:33Z</time>
      </trkpt>
      <trkpt lat="45.93948" lon="4.8016">
        <ele>208</ele>
        <time>2016-08-25T10:19:34Z</time>
      </trkpt>
      <trkpt lat="45.93946" lon="4.80148">
        <ele>208</ele>
        <time>2016-08-25T10:19:35Z</time>
      </trkpt>
      <trkpt lat="45.93945" lon="4.80136">
        <ele>209</ele>
        <time>2016-08-25T10:19:36Z</time>
      </trkpt>
      <trkpt lat="45.93944" lon="4.80125">
        <ele>209</ele>
        <time>2016-08-25T10:19:37Z</time>
      </trkpt>
      <trkpt lat="45.93942" lon="4.80114">
        <ele>209</ele>
        <time>2016-08-25T10:19:38Z</time>
      </trkpt>
      <trkpt lat="45.93941" lon="4.80103">
        <ele>208</ele>
        <time>2016-08-25T10:19:39Z</time>
      </trkpt>
      <trkpt lat="45.9394" lon="4.80091">
        <ele>208</ele>
        <time>2016-08-25T10:19:40Z</time>
      </trkpt>
      <trkpt lat="45.9394" lon="4.8008">
        <ele>207</ele>
        <time>2016-08-25T10:19:41Z</time>
      </trkpt>
      <trkpt lat="45.93939" lon="4.80069">
        <ele>207</ele>
        <time>2016-08-25T10:19:42Z</time>
      </trkpt>
      <trkpt lat="45.93939" lon="4.80059">
        <ele>207</ele>
        <time>2016-08-25T10:19:43Z</time>
      </trkpt>
      <trkpt lat="45.93939" lon="4.80049">
        <ele>207</ele>
        <time>2016-08-25T10:19:44Z</time>
      </trkpt>
      <trkpt lat="45.9394" lon="4.80038">
        <ele>207</ele>
        <time>2016-08-25T10:19:45Z</time>
      </trkpt>
      <trkpt lat="45.93942" lon="4.80028">
        <ele>207</ele>
        <time>2016-08-25T10:19:46Z</time>
      </trkpt>
      <trkpt lat="45.93942" lon="4.80018">
        <ele>206</ele>
        <time>2016-08-25T10:19:47Z</time>
      </trkpt>
      <trkpt lat="45.93944" lon="4.80008">
        <ele>206</ele>
        <time>2016-08-25T10:19:48Z</time>
      </trkpt>
      <trkpt lat="45.93945" lon="4.79998">
        <ele>205</ele>
        <time>2016-08-25T10:19:49Z</time>
      </trkpt>
      <trkpt lat="45.93947" lon="4.79987">
        <ele>205</ele>
        <time>2016-08-25T10:19:50Z</time>
      </trkpt>
      <trkpt lat="45.93949" lon="4.79977">
        <ele>205</ele>
        <time>2016-08-25T10:19:51Z</time>
      </trkpt>
      <trkpt lat="45.93951" lon="4.79966">
        <ele>205</ele>
        <time>2016-08-25T10:19:52Z</time>
      </trkpt>
      <trkpt lat="45.93952" lon="4.79955">
        <ele>205</ele>
        <time>2016-08-25T10:19:53Z</time>
      </trkpt>
      <trkpt lat="45.93954" lon="4.79945">
        <ele>205</ele>
        <time>2016-08-25T10:19:54Z</time>
      </trkpt>
      <trkpt lat="45.93955" lon="4.79935">
        <ele>205</ele>
        <time>2016-08-25T10:19:55Z</time>
      </trkpt>
      <trkpt lat="45.93957" lon="4.79926">
        <ele>205</ele>
        <time>2016-08-25T10:19:56Z</time>
      </trkpt>
      <trkpt lat="45.93958" lon="4.79917">
        <ele>205</ele>
        <time>2016-08-25T10:19:57Z</time>
      </trkpt>
      <trkpt lat="45.93959" lon="4.79908">
        <ele>206</ele>
        <time>2016-08-25T10:19:58Z</time>
      </trkpt>
      <trkpt lat="45.9396" lon="4.79899">
        <ele>206</ele>
        <time>2016-08-25T10:19:59Z</time>
      </trkpt>
      <trkpt lat="45.93961" lon="4.79891">
        <ele>206</ele>
        <time>2016-08-25T10:20:00Z</time>
      </trkpt>
      <trkpt lat="45.93963" lon="4.79882">
        <ele>206</ele>
        <time>2016-08-25T10:20:01Z</time>
      </trkpt>
      <trkpt lat="45.93964" lon="4.79872">
        <ele>206</ele>
        <time>2016-08-25T10:20:02Z</time>
      </trkpt>
      <trkpt lat="45.93966" lon="4.79863">
        <ele>206</ele>
        <time>2016-08-25T10:20:03Z</time>
      </trkpt>
      <trkpt lat="45.93967" lon="4.79854">
        <ele>206</ele>
        <time>2016-08-25T10:20:04Z</time>
      </trkpt>
      <trkpt lat="45.93968" lon="4.79844">
        <ele>206</ele>
        <time>2016-08-25T10:20:05Z</time>
      </trkpt>
      <trkpt lat="45.9397" lon="4.79833">
        <ele>207</ele>
        <time>2016-08-25T10:20:06Z</time>
      </trkpt>
      <trkpt lat="45.93972" lon="4.79823">
        <ele>207</ele>
        <time>2016-08-25T10:20:07Z</time>
      </trkpt>
      <trkpt lat="45.93973" lon="4.79814">
        <ele>207</ele>
        <time>2016-08-25T10:20:08Z</time>
      </trkpt>
      <trkpt lat="45.93974" lon="4.79804">
        <ele>207</ele>
        <time>2016-08-25T10:20:09Z</time>
      </trkpt>
      <trkpt lat="45.93974" lon="4.79794">
        <ele>206</ele>
        <time>2016-08-25T10:20:10Z</time>
      </trkpt>
      <trkpt lat="45.93975" lon="4.79784">
        <ele>206</ele>
        <time>2016-08-25T10:20:11Z</time>
      </trkpt>
      <trkpt lat="45.93975" lon="4.79774">
        <ele>206</ele>
        <time>2016-08-25T10:20:12Z</time>
      </trkpt>
      <trkpt lat="45.93974" lon="4.79764">
        <ele>206</ele>
        <time>2016-08-25T10:20:13Z</time>
      </trkpt>
      <trkpt lat="45.93973" lon="4.79755">
        <ele>206</ele>
        <time>2016-08-25T10:20:14Z</time>
      </trkpt>
      <trkpt lat="45.93972" lon="4.79746">
        <ele>207</ele>
        <time>2016-08-25T10:20:15Z</time>
      </trkpt>
      <trkpt lat="45.93972" lon="4.79737">
        <ele>207</ele>
        <time>2016-08-25T10:20:16Z</time>
      </trkpt>
      <trkpt lat="45.93971" lon="4.79728">
        <ele>207</ele>
        <time>2016-08-25T10:20:17Z</time>
      </trkpt>
      <trkpt lat="45.9397" lon="4.79719">
        <ele>207</ele>
        <time>2016-08-25T10:20:18Z</time>
      </trkpt>
      <trkpt lat="45.93969" lon="4.7971">
        <ele>207</ele>
        <time>2016-08-25T10:20:19Z</time>
      </trkpt>
      <trkpt lat="45.93968" lon="4.79701">
        <ele>207</ele>
        <time>2016-08-25T10:20:20Z</time>
      </trkpt>
      <trkpt lat="45.93967" lon="4.79692">
        <ele>207</ele>
        <time>2016-08-25T10:20:21Z</time>
      </trkpt>
      <trkpt lat="45.93966" lon="4.79683">
        <ele>207</ele>
        <time>2016-08-25T10:20:22Z</time>
      </trkpt>
      <trkpt lat="45.93966" lon="4.79673">
        <ele>207</ele>
        <time>2016-08-25T10:20:23Z</time>
      </trkpt>
      <trkpt lat="45.93965" lon="4.79664">
        <ele>207</ele>
        <time>2016-08-25T10:20:24Z</time>
      </trkpt>
      <trkpt lat="45.93964" lon="4.79655">
        <ele>207</ele>
        <time>2016-08-25T10:20:25Z</time>
      </trkpt>
      <trkpt lat="45.93963" lon="4.79645">
        <ele>207</ele>
        <time>2016-08-25T10:20:26Z</time>
      </trkpt>
      <trkpt lat="45.93962" lon="4.79636">
        <ele>207</ele>
        <time>2016-08-25T10:20:27Z</time>
      </trkpt>
      <trkpt lat="45.93961" lon="4.79627">
        <ele>207</ele>
        <time>2016-08-25T10:20:28Z</time>
      </trkpt>
      <trkpt lat="45.9396" lon="4.79617">
        <ele>207</ele>
        <time>2016-08-25T10:20:29Z</time>
      </trkpt>
      <trkpt lat="45.93958" lon="4.79608">
        <ele>207</ele>
        <time>2016-08-25T10:20:30Z</time>
      </trkpt>
      <trkpt lat="45.93958" lon="4.79598">
        <ele>207</ele>
        <time>2016-08-25T10:20:31Z</time>
      </trkpt>
      <trkpt lat="45.93957" lon="4.79589">
        <ele>207</ele>
        <time>2016-08-25T10:20:32Z</time>
      </trkpt>
      <trkpt lat="45.93956" lon="4.79579">
        <ele>205</ele>
        <time>2016-08-25T10:20:33Z</time>
      </trkpt>
      <trkpt lat="45.93956" lon="4.79569">
        <ele>205</ele>
        <time>2016-08-25T10:20:34Z</time>
      </trkpt>
      <trkpt lat="45.93954" lon="4.79558">
        <ele>205</ele>
        <time>2016-08-25T10:20:35Z</time>
      </trkpt>
      <trkpt lat="45.93953" lon="4.79548">
        <ele>205</ele>
        <time>2016-08-25T10:20:36Z</time>
      </trkpt>
      <trkpt lat="45.93953" lon="4.79538">
        <ele>204</ele>
        <time>2016-08-25T10:20:37Z</time>
      </trkpt>
      <trkpt lat="45.93952" lon="4.79527">
        <ele>204</ele>
        <time>2016-08-25T10:20:38Z</time>
      </trkpt>
      <trkpt lat="45.93951" lon="4.79516">
        <ele>204</ele>
        <time>2016-08-25T10:20:39Z</time>
      </trkpt>
      <trkpt lat="45.9395" lon="4.79505">
        <ele>204</ele>
        <time>2016-08-25T10:20:40Z</time>
      </trkpt>
      <trkpt lat="45.9395" lon="4.79495">
        <ele>202</ele>
        <time>2016-08-25T10:20:41Z</time>
      </trkpt>
      <trkpt lat="45.9395" lon="4.79484">
        <ele>202</ele>
        <time>2016-08-25T10:20:42Z</time>
      </trkpt>
      <trkpt lat="45.93951" lon="4.79473">
        <ele>202</ele>
        <time>2016-08-25T10:20:43Z</time>
      </trkpt>
      <trkpt lat="45.93951" lon="4.79461">
        <ele>202</ele>
        <time>2016-08-25T10:20:44Z</time>
      </trkpt>
      <trkpt lat="45.93952" lon="4.7945">
        <ele>202</ele>
        <time>2016-08-25T10:20:45Z</time>
      </trkpt>
      <trkpt lat="45.93952" lon="4.79438">
        <ele>202</ele>
        <time>2016-08-25T10:20:46Z</time>
      </trkpt>
      <trkpt lat="45.93952" lon="4.79427">
        <ele>202</ele>
        <time>2016-08-25T10:20:47Z</time>
      </trkpt>
      <trkpt lat="45.93952" lon="4.79415">
        <ele>201</ele>
        <time>2016-08-25T10:20:48Z</time>
      </trkpt>
      <trkpt lat="45.93952" lon="4.79403">
        <ele>201</ele>
        <time>2016-08-25T10:20:49Z</time>
      </trkpt>
      <trkpt lat="45.93951" lon="4.7939">
        <ele>201</ele>
        <time>2016-08-25T10:20:50Z</time>
      </trkpt>
      <trkpt lat="45.93951" lon="4.79378">
        <ele>201</ele>
        <time>2016-08-25T10:20:51Z</time>
      </trkpt>
      <trkpt lat="45.93951" lon="4.79365">
        <ele>201</ele>
        <time>2016-08-25T10:20:52Z</time>
      </trkpt>
      <trkpt lat="45.9395" lon="4.79353">
        <ele>200</ele>
        <time>2016-08-25T10:20:53Z</time>
      </trkpt>
      <trkpt lat="45.9395" lon="4.79341">
        <ele>200</ele>
        <time>2016-08-25T10:20:54Z</time>
      </trkpt>
      <trkpt lat="45.9395" lon="4.79328">
        <ele>198</ele>
        <time>2016-08-25T10:20:55Z</time>
      </trkpt>
      <trkpt lat="45.9395" lon="4.79316">
        <ele>198</ele>
        <time>2016-08-25T10:20:56Z</time>
      </trkpt>
      <trkpt lat="45.9395" lon="4.79303">
        <ele>198</ele>
        <time>2016-08-25T10:20:57Z</time>
      </trkpt>
      <trkpt lat="45.9395" lon="4.79291">
        <ele>198</ele>
        <time>2016-08-25T10:20:58Z</time>
      </trkpt>
      <trkpt lat="45.9395" lon="4.79279">
        <ele>198</ele>
        <time>2016-08-25T10:20:59Z</time>
      </trkpt>
      <trkpt lat="45.93949" lon="4.79266">
        <ele>198</ele>
        <time>2016-08-25T10:21:00Z</time>
      </trkpt>
      <trkpt lat="45.93949" lon="4.79254">
        <ele>197</ele>
        <time>2016-08-25T10:21:01Z</time>
      </trkpt>
      <trkpt lat="45.93949" lon="4.79242">
        <ele>197</ele>
        <time>2016-08-25T10:21:02Z</time>
      </trkpt>
      <trkpt lat="45.93948" lon="4.7923">
        <ele>197</ele>
        <time>2016-08-25T10:21:03Z</time>
      </trkpt>
      <trkpt lat="45.93948" lon="4.79218">
        <ele>197</ele>
        <time>2016-08-25T10:21:04Z</time>
      </trkpt>
      <trkpt lat="45.93948" lon="4.79207">
        <ele>197</ele>
        <time>2016-08-25T10:21:05Z</time>
      </trkpt>
      <trkpt lat="45.93948" lon="4.79195">
        <ele>197</ele>
        <time>2016-08-25T10:21:06Z</time>
      </trkpt>
      <trkpt lat="45.93947" lon="4.79184">
        <ele>197</ele>
        <time>2016-08-25T10:21:07Z</time>
      </trkpt>
      <trkpt lat="45.93947" lon="4.79172">
        <ele>196</ele>
        <time>2016-08-25T10:21:08Z</time>
      </trkpt>
      <trkpt lat="45.93947" lon="4.7916">
        <ele>196</ele>
        <time>2016-08-25T10:21:09Z</time>
      </trkpt>
      <trkpt lat="45.93947" lon="4.79149">
        <ele>196</ele>
        <time>2016-08-25T10:21:10Z</time>
      </trkpt>
      <trkpt lat="45.93946" lon="4.79137">
        <ele>196</ele>
        <time>2016-08-25T10:21:11Z</time>
      </trkpt>
      <trkpt lat="45.93947" lon="4.79126">
        <ele>197</ele>
        <time>2016-08-25T10:21:12Z</time>
      </trkpt>
      <trkpt lat="45.93947" lon="4.79114">
        <ele>196</ele>
        <time>2016-08-25T10:21:13Z</time>
      </trkpt>
      <trkpt lat="45.93947" lon="4.79102">
        <ele>196</ele>
        <time>2016-08-25T10:21:14Z</time>
      </trkpt>
      <trkpt lat="45.93947" lon="4.79091">
        <ele>196</ele>
        <time>2016-08-25T10:21:15Z</time>
      </trkpt>
      <trkpt lat="45.93946" lon="4.79081">
        <ele>195</ele>
        <time>2016-08-25T10:21:16Z</time>
      </trkpt>
      <trkpt lat="45.93946" lon="4.7907">
        <ele>195</ele>
        <time>2016-08-25T10:21:17Z</time>
      </trkpt>
      <trkpt lat="45.93946" lon="4.79059">
        <ele>196</ele>
        <time>2016-08-25T10:21:18Z</time>
      </trkpt>
      <trkpt lat="45.93946" lon="4.79049">
        <ele>196</ele>
        <time>2016-08-25T10:21:19Z</time>
      </trkpt>
      <trkpt lat="45.93946" lon="4.79037">
        <ele>195</ele>
        <time>2016-08-25T10:21:20Z</time>
      </trkpt>
      <trkpt lat="45.93946" lon="4.79027">
        <ele>195</ele>
        <time>2016-08-25T10:21:21Z</time>
      </trkpt>
      <trkpt lat="45.93945" lon="4.79016">
        <ele>195</ele>
        <time>2016-08-25T10:21:22Z</time>
      </trkpt>
      <trkpt lat="45.93945" lon="4.79006">
        <ele>195</ele>
        <time>2016-08-25T10:21:23Z</time>
      </trkpt>
      <trkpt lat="45.93944" lon="4.78996">
        <ele>194</ele>
        <time>2016-08-25T10:21:24Z</time>
      </trkpt>
      <trkpt lat="45.93943" lon="4.78986">
        <ele>194</ele>
        <time>2016-08-25T10:21:25Z</time>
      </trkpt>
      <trkpt lat="45.93943" lon="4.78977">
        <ele>194</ele>
        <time>2016-08-25T10:21:26Z</time>
      </trkpt>
      <trkpt lat="45.93943" lon="4.78967">
        <ele>194</ele>
        <time>2016-08-25T10:21:27Z</time>
      </trkpt>
      <trkpt lat="45.93942" lon="4.78957">
        <ele>194</ele>
        <time>2016-08-25T10:21:28Z</time>
      </trkpt>
      <trkpt lat="45.93942" lon="4.78946">
        <ele>194</ele>
        <time>2016-08-25T10:21:29Z</time>
      </trkpt>
      <trkpt lat="45.93942" lon="4.78935">
        <ele>193</ele>
        <time>2016-08-25T10:21:30Z</time>
      </trkpt>
      <trkpt lat="45.93942" lon="4.78925">
        <ele>193</ele>
        <time>2016-08-25T10:21:31Z</time>
      </trkpt>
      <trkpt lat="45.93941" lon="4.78914">
        <ele>193</ele>
        <time>2016-08-25T10:21:32Z</time>
      </trkpt>
      <trkpt lat="45.93941" lon="4.78904">
        <ele>193</ele>
        <time>2016-08-25T10:21:33Z</time>
      </trkpt>
      <trkpt lat="45.93941" lon="4.78893">
        <ele>193</ele>
        <time>2016-08-25T10:21:34Z</time>
      </trkpt>
      <trkpt lat="45.93941" lon="4.78883">
        <ele>194</ele>
        <time>2016-08-25T10:21:35Z</time>
      </trkpt>
      <trkpt lat="45.93941" lon="4.78872">
        <ele>194</ele>
        <time>2016-08-25T10:21:36Z</time>
      </trkpt>
      <trkpt lat="45.9394" lon="4.78861">
        <ele>194</ele>
        <time>2016-08-25T10:21:37Z</time>
      </trkpt>
      <trkpt lat="45.9394" lon="4.7885">
        <ele>194</ele>
        <time>2016-08-25T10:21:38Z</time>
      </trkpt>
      <trkpt lat="45.93939" lon="4.7884">
        <ele>193</ele>
        <time>2016-08-25T10:21:39Z</time>
      </trkpt>
      <trkpt lat="45.93938" lon="4.78829">
        <ele>193</ele>
        <time>2016-08-25T10:21:40Z</time>
      </trkpt>
      <trkpt lat="45.93937" lon="4.78819">
        <ele>194</ele>
        <time>2016-08-25T10:21:41Z</time>
      </trkpt>
      <trkpt lat="45.93936" lon="4.78809">
        <ele>194</ele>
        <time>2016-08-25T10:21:42Z</time>
      </trkpt>
      <trkpt lat="45.93935" lon="4.78799">
        <ele>194</ele>
        <time>2016-08-25T10:21:43Z</time>
      </trkpt>
      <trkpt lat="45.93934" lon="4.7879">
        <ele>194</ele>
        <time>2016-08-25T10:21:44Z</time>
      </trkpt>
      <trkpt lat="45.93934" lon="4.78781">
        <ele>194</ele>
        <time>2016-08-25T10:21:45Z</time>
      </trkpt>
      <trkpt lat="45.93935" lon="4.78772">
        <ele>193</ele>
        <time>2016-08-25T10:21:46Z</time>
      </trkpt>
      <trkpt lat="45.93935" lon="4.78763">
        <ele>193</ele>
        <time>2016-08-25T10:21:47Z</time>
      </trkpt>
      <trkpt lat="45.93935" lon="4.78754">
        <ele>193</ele>
        <time>2016-08-25T10:21:48Z</time>
      </trkpt>
      <trkpt lat="45.93935" lon="4.78744">
        <ele>193</ele>
        <time>2016-08-25T10:21:49Z</time>
      </trkpt>
      <trkpt lat="45.93935" lon="4.78734">
        <ele>193</ele>
        <time>2016-08-25T10:21:50Z</time>
      </trkpt>
      <trkpt lat="45.93935" lon="4.78724">
        <ele>194</ele>
        <time>2016-08-25T10:21:51Z</time>
      </trkpt>
      <trkpt lat="45.93936" lon="4.78713">
        <ele>194</ele>
        <time>2016-08-25T10:21:52Z</time>
      </trkpt>
      <trkpt lat="45.93937" lon="4.78703">
        <ele>194</ele>
        <time>2016-08-25T10:21:53Z</time>
      </trkpt>
      <trkpt lat="45.93938" lon="4.78693">
        <ele>194</ele>
        <time>2016-08-25T10:21:54Z</time>
      </trkpt>
      <trkpt lat="45.93938" lon="4.78683">
        <ele>194</ele>
        <time>2016-08-25T10:21:55Z</time>
      </trkpt>
      <trkpt lat="45.93938" lon="4.78672">
        <ele>193</ele>
        <time>2016-08-25T10:21:56Z</time>
      </trkpt>
      <trkpt lat="45.93938" lon="4.78662">
        <ele>194</ele>
        <time>2016-08-25T10:21:57Z</time>
      </trkpt>
      <trkpt lat="45.93937" lon="4.78653">
        <ele>194</ele>
        <time>2016-08-25T10:21:58Z</time>
      </trkpt>
      <trkpt lat="45.93938" lon="4.78643">
        <ele>195</ele>
        <time>2016-08-25T10:21:59Z</time>
      </trkpt>
      <trkpt lat="45.93938" lon="4.78634">
        <ele>195</ele>
        <time>2016-08-25T10:22:00Z</time>
      </trkpt>
      <trkpt lat="45.93938" lon="4.78626">
        <ele>196</ele>
        <time>2016-08-25T10:22:01Z</time>
      </trkpt>
      <trkpt lat="45.93938" lon="4.78617">
        <ele>196</ele>
        <time>2016-08-25T10:22:02Z</time>
      </trkpt>
      <trkpt lat="45.93938" lon="4.78608">
        <ele>196</ele>
        <time>2016-08-25T10:22:03Z</time>
      </trkpt>
      <trkpt lat="45.93939" lon="4.78598">
        <ele>196</ele>
        <time>2016-08-25T10:22:04Z</time>
      </trkpt>
      <trkpt lat="45.93939" lon="4.7859">
        <ele>196</ele>
        <time>2016-08-25T10:22:05Z</time>
      </trkpt>
      <trkpt lat="45.93939" lon="4.78582">
        <ele>196</ele>
        <time>2016-08-25T10:22:06Z</time>
      </trkpt>
      <trkpt lat="45.93939" lon="4.78575">
        <ele>196</ele>
        <time>2016-08-25T10:22:07Z</time>
      </trkpt>
      <trkpt lat="45.93938" lon="4.78568">
        <ele>197</ele>
        <time>2016-08-25T10:22:08Z</time>
      </trkpt>
      <trkpt lat="45.93937" lon="4.78559">
        <ele>197</ele>
        <time>2016-08-25T10:22:14Z</time>
      </trkpt>
      <trkpt lat="45.93935" lon="4.78558">
        <ele>197</ele>
        <time>2016-08-25T10:22:15Z</time>
      </trkpt>
      <trkpt lat="45.93934" lon="4.78554">
        <ele>197</ele>
        <time>2016-08-25T10:22:17Z</time>
      </trkpt>
      <trkpt lat="45.93933" lon="4.78551">
        <ele>197</ele>
        <time>2016-08-25T10:22:18Z</time>
      </trkpt>
      <trkpt lat="45.93933" lon="4.78539">
        <ele>197</ele>
        <time>2016-08-25T10:22:21Z</time>
      </trkpt>
      <trkpt lat="45.93933" lon="4.78535">
        <ele>197</ele>
        <time>2016-08-25T10:22:22Z</time>
      </trkpt>
      <trkpt lat="45.93933" lon="4.78525">
        <ele>197</ele>
        <time>2016-08-25T10:22:24Z</time>
      </trkpt>
      <trkpt lat="45.93933" lon="4.78519">
        <ele>197</ele>
        <time>2016-08-25T10:22:25Z</time>
      </trkpt>
      <trkpt lat="45.93934" lon="4.78507">
        <ele>197</ele>
        <time>2016-08-25T10:22:27Z</time>
      </trkpt>
      <trkpt lat="45.93934" lon="4.78501">
        <ele>197</ele>
        <time>2016-08-25T10:22:28Z</time>
      </trkpt>
      <trkpt lat="45.93935" lon="4.78494">
        <ele>197</ele>
        <time>2016-08-25T10:22:29Z</time>
      </trkpt>
      <trkpt lat="45.93937" lon="4.78487">
        <ele>197</ele>
        <time>2016-08-25T10:22:30Z</time>
      </trkpt>
      <trkpt lat="45.93938" lon="4.7848">
        <ele>197</ele>
        <time>2016-08-25T10:22:31Z</time>
      </trkpt>
      <trkpt lat="45.9394" lon="4.78473">
        <ele>197</ele>
        <time>2016-08-25T10:22:32Z</time>
      </trkpt>
      <trkpt lat="45.93941" lon="4.78466">
        <ele>197</ele>
        <time>2016-08-25T10:22:33Z</time>
      </trkpt>
      <trkpt lat="45.93943" lon="4.78458">
        <ele>197</ele>
        <time>2016-08-25T10:22:34Z</time>
      </trkpt>
      <trkpt lat="45.93944" lon="4.78451">
        <ele>197</ele>
        <time>2016-08-25T10:22:35Z</time>
      </trkpt>
      <trkpt lat="45.93946" lon="4.78444">
        <ele>197</ele>
        <time>2016-08-25T10:22:36Z</time>
      </trkpt>
      <trkpt lat="45.93947" lon="4.78437">
        <ele>197</ele>
        <time>2016-08-25T10:22:37Z</time>
      </trkpt>
      <trkpt lat="45.93949" lon="4.7843">
        <ele>197</ele>
        <time>2016-08-25T10:22:38Z</time>
      </trkpt>
      <trkpt lat="45.9395" lon="4.78423">
        <ele>197</ele>
        <time>2016-08-25T10:22:39Z</time>
      </trkpt>
      <trkpt lat="45.93951" lon="4.78415">
        <ele>196</ele>
        <time>2016-08-25T10:22:40Z</time>
      </trkpt>
      <trkpt lat="45.93952" lon="4.78408">
        <ele>196</ele>
        <time>2016-08-25T10:22:41Z</time>
      </trkpt>
      <trkpt lat="45.93953" lon="4.78401">
        <ele>196</ele>
        <time>2016-08-25T10:22:42Z</time>
      </trkpt>
      <trkpt lat="45.93955" lon="4.78393">
        <ele>196</ele>
        <time>2016-08-25T10:22:43Z</time>
      </trkpt>
      <trkpt lat="45.93955" lon="4.78386">
        <ele>196</ele>
        <time>2016-08-25T10:22:44Z</time>
      </trkpt>
      <trkpt lat="45.93956" lon="4.78378">
        <ele>196</ele>
        <time>2016-08-25T10:22:45Z</time>
      </trkpt>
      <trkpt lat="45.93957" lon="4.78371">
        <ele>196</ele>
        <time>2016-08-25T10:22:46Z</time>
      </trkpt>
      <trkpt lat="45.93957" lon="4.78364">
        <ele>196</ele>
        <time>2016-08-25T10:22:47Z</time>
      </trkpt>
      <trkpt lat="45.93958" lon="4.78357">
        <ele>196</ele>
        <time>2016-08-25T10:22:48Z</time>
      </trkpt>
      <trkpt lat="45.93959" lon="4.7835">
        <ele>196</ele>
        <time>2016-08-25T10:22:49Z</time>
      </trkpt>
      <trkpt lat="45.9396" lon="4.78343">
        <ele>196</ele>
        <time>2016-08-25T10:22:50Z</time>
      </trkpt>
      <trkpt lat="45.93961" lon="4.78331">
        <ele>195</ele>
        <time>2016-08-25T10:22:52Z</time>
      </trkpt>
      <trkpt lat="45.93962" lon="4.78325">
        <ele>196</ele>
        <time>2016-08-25T10:22:53Z</time>
      </trkpt>
      <trkpt lat="45.93964" lon="4.78312">
        <ele>196</ele>
        <time>2016-08-25T10:22:55Z</time>
      </trkpt>
      <trkpt lat="45.93964" lon="4.78306">
        <ele>195</ele>
        <time>2016-08-25T10:22:56Z</time>
      </trkpt>
      <trkpt lat="45.93965" lon="4.783">
        <ele>195</ele>
        <time>2016-08-25T10:22:57Z</time>
      </trkpt>
      <trkpt lat="45.93966" lon="4.78293">
        <ele>195</ele>
        <time>2016-08-25T10:22:58Z</time>
      </trkpt>
      <trkpt lat="45.93967" lon="4.78286">
        <ele>195</ele>
        <time>2016-08-25T10:22:59Z</time>
      </trkpt>
      <trkpt lat="45.93967" lon="4.7828">
        <ele>195</ele>
        <time>2016-08-25T10:23:00Z</time>
      </trkpt>
      <trkpt lat="45.93968" lon="4.78272">
        <ele>196</ele>
        <time>2016-08-25T10:23:01Z</time>
      </trkpt>
      <trkpt lat="45.9397" lon="4.78265">
        <ele>196</ele>
        <time>2016-08-25T10:23:02Z</time>
      </trkpt>
      <trkpt lat="45.93971" lon="4.78257">
        <ele>196</ele>
        <time>2016-08-25T10:23:03Z</time>
      </trkpt>
      <trkpt lat="45.93972" lon="4.7825">
        <ele>196</ele>
        <time>2016-08-25T10:23:04Z</time>
      </trkpt>
      <trkpt lat="45.93972" lon="4.78243">
        <ele>196</ele>
        <time>2016-08-25T10:23:05Z</time>
      </trkpt>
      <trkpt lat="45.93973" lon="4.78237">
        <ele>196</ele>
        <time>2016-08-25T10:23:06Z</time>
      </trkpt>
      <trkpt lat="45.93974" lon="4.78231">
        <ele>196</ele>
        <time>2016-08-25T10:23:07Z</time>
      </trkpt>
      <trkpt lat="45.93975" lon="4.78224">
        <ele>196</ele>
        <time>2016-08-25T10:23:08Z</time>
      </trkpt>
      <trkpt lat="45.93976" lon="4.78218">
        <ele>197</ele>
        <time>2016-08-25T10:23:09Z</time>
      </trkpt>
      <trkpt lat="45.93978" lon="4.78211">
        <ele>197</ele>
        <time>2016-08-25T10:23:10Z</time>
      </trkpt>
      <trkpt lat="45.93979" lon="4.78205">
        <ele>197</ele>
        <time>2016-08-25T10:23:11Z</time>
      </trkpt>
      <trkpt lat="45.9398" lon="4.78199">
        <ele>197</ele>
        <time>2016-08-25T10:23:12Z</time>
      </trkpt>
      <trkpt lat="45.93981" lon="4.78192">
        <ele>197</ele>
        <time>2016-08-25T10:23:13Z</time>
      </trkpt>
      <trkpt lat="45.93984" lon="4.78185">
        <ele>198</ele>
        <time>2016-08-25T10:23:14Z</time>
      </trkpt>
      <trkpt lat="45.93986" lon="4.78179">
        <ele>198</ele>
        <time>2016-08-25T10:23:15Z</time>
      </trkpt>
      <trkpt lat="45.93988" lon="4.78173">
        <ele>199</ele>
        <time>2016-08-25T10:23:16Z</time>
      </trkpt>
      <trkpt lat="45.93992" lon="4.78161">
        <ele>199</ele>
        <time>2016-08-25T10:23:18Z</time>
      </trkpt>
      <trkpt lat="45.93991" lon="4.78155">
        <ele>199</ele>
        <time>2016-08-25T10:23:19Z</time>
      </trkpt>
      <trkpt lat="45.93992" lon="4.78148">
        <ele>198</ele>
        <time>2016-08-25T10:23:20Z</time>
      </trkpt>
      <trkpt lat="45.93993" lon="4.78142">
        <ele>198</ele>
        <time>2016-08-25T10:23:21Z</time>
      </trkpt>
      <trkpt lat="45.93995" lon="4.78131">
        <ele>197</ele>
        <time>2016-08-25T10:23:23Z</time>
      </trkpt>
      <trkpt lat="45.93996" lon="4.78124">
        <ele>197</ele>
        <time>2016-08-25T10:23:24Z</time>
      </trkpt>
      <trkpt lat="45.93998" lon="4.78117">
        <ele>197</ele>
        <time>2016-08-25T10:23:25Z</time>
      </trkpt>
      <trkpt lat="45.94" lon="4.7811">
        <ele>197</ele>
        <time>2016-08-25T10:23:26Z</time>
      </trkpt>
      <trkpt lat="45.94001" lon="4.78102">
        <ele>202</ele>
        <time>2016-08-25T10:23:27Z</time>
      </trkpt>
      <trkpt lat="45.94001" lon="4.78095">
        <ele>201</ele>
        <time>2016-08-25T10:23:28Z</time>
      </trkpt>
      <trkpt lat="45.94002" lon="4.78087">
        <ele>200</ele>
        <time>2016-08-25T10:23:29Z</time>
      </trkpt>
      <trkpt lat="45.94003" lon="4.78079">
        <ele>200</ele>
        <time>2016-08-25T10:23:30Z</time>
      </trkpt>
      <trkpt lat="45.94004" lon="4.78072">
        <ele>200</ele>
        <time>2016-08-25T10:23:31Z</time>
      </trkpt>
      <trkpt lat="45.94005" lon="4.78064">
        <ele>201</ele>
        <time>2016-08-25T10:23:32Z</time>
      </trkpt>
      <trkpt lat="45.94007" lon="4.78057">
        <ele>201</ele>
        <time>2016-08-25T10:23:33Z</time>
      </trkpt>
      <trkpt lat="45.94008" lon="4.7805">
        <ele>201</ele>
        <time>2016-08-25T10:23:34Z</time>
      </trkpt>
      <trkpt lat="45.9401" lon="4.78044">
        <ele>201</ele>
        <time>2016-08-25T10:23:35Z</time>
      </trkpt>
      <trkpt lat="45.94012" lon="4.78037">
        <ele>201</ele>
        <time>2016-08-25T10:23:36Z</time>
      </trkpt>
      <trkpt lat="45.94013" lon="4.7803">
        <ele>201</ele>
        <time>2016-08-25T10:23:37Z</time>
      </trkpt>
      <trkpt lat="45.94014" lon="4.78022">
        <ele>200</ele>
        <time>2016-08-25T10:23:38Z</time>
      </trkpt>
      <trkpt lat="45.94014" lon="4.78014">
        <ele>200</ele>
        <time>2016-08-25T10:23:39Z</time>
      </trkpt>
      <trkpt lat="45.94015" lon="4.78006">
        <ele>200</ele>
        <time>2016-08-25T10:23:40Z</time>
      </trkpt>
      <trkpt lat="45.94017" lon="4.77998">
        <ele>199</ele>
        <time>2016-08-25T10:23:41Z</time>
      </trkpt>
      <trkpt lat="45.94018" lon="4.77989">
        <ele>199</ele>
        <time>2016-08-25T10:23:42Z</time>
      </trkpt>
      <trkpt lat="45.94019" lon="4.77981">
        <ele>200</ele>
        <time>2016-08-25T10:23:43Z</time>
      </trkpt>
      <trkpt lat="45.9402" lon="4.77972">
        <ele>200</ele>
        <time>2016-08-25T10:23:44Z</time>
      </trkpt>
      <trkpt lat="45.94021" lon="4.77963">
        <ele>200</ele>
        <time>2016-08-25T10:23:45Z</time>
      </trkpt>
      <trkpt lat="45.94023" lon="4.77955">
        <ele>200</ele>
        <time>2016-08-25T10:23:46Z</time>
      </trkpt>
      <trkpt lat="45.94025" lon="4.77947">
        <ele>200</ele>
        <time>2016-08-25T10:23:47Z</time>
      </trkpt>
      <trkpt lat="45.94026" lon="4.7794">
        <ele>200</ele>
        <time>2016-08-25T10:23:48Z</time>
      </trkpt>
      <trkpt lat="45.94024" lon="4.77929">
        <ele>199</ele>
        <time>2016-08-25T10:23:50Z</time>
      </trkpt>
      <trkpt lat="45.94021" lon="4.77927">
        <ele>199</ele>
        <time>2016-08-25T10:23:51Z</time>
      </trkpt>
      <trkpt lat="45.94014" lon="4.77929">
        <ele>198</ele>
        <time>2016-08-25T10:23:53Z</time>
      </trkpt>
      <trkpt lat="45.9401" lon="4.77931">
        <ele>198</ele>
        <time>2016-08-25T10:23:54Z</time>
      </trkpt>
      <trkpt lat="45.94004" lon="4.77934">
        <ele>198</ele>
        <time>2016-08-25T10:23:55Z</time>
      </trkpt>
      <trkpt lat="45.93998" lon="4.77938">
        <ele>192</ele>
        <time>2016-08-25T10:23:56Z</time>
      </trkpt>
      <trkpt lat="45.93992" lon="4.77943">
        <ele>192</ele>
        <time>2016-08-25T10:23:57Z</time>
      </trkpt>
      <trkpt lat="45.93985" lon="4.77949">
        <ele>191</ele>
        <time>2016-08-25T10:23:58Z</time>
      </trkpt>
      <trkpt lat="45.93976" lon="4.77953">
        <ele>191</ele>
        <time>2016-08-25T10:23:59Z</time>
      </trkpt>
      <trkpt lat="45.93968" lon="4.77959">
        <ele>191</ele>
        <time>2016-08-25T10:24:00Z</time>
      </trkpt>
      <trkpt lat="45.9396" lon="4.77965">
        <ele>190</ele>
        <time>2016-08-25T10:24:01Z</time>
      </trkpt>
      <trkpt lat="45.93951" lon="4.7797">
        <ele>190</ele>
        <time>2016-08-25T10:24:02Z</time>
      </trkpt>
      <trkpt lat="45.93942" lon="4.77976">
        <ele>189</ele>
        <time>2016-08-25T10:24:03Z</time>
      </trkpt>
      <trkpt lat="45.93934" lon="4.77983">
        <ele>189</ele>
        <time>2016-08-25T10:24:04Z</time>
      </trkpt>
      <trkpt lat="45.93927" lon="4.77989">
        <ele>188</ele>
        <time>2016-08-25T10:24:05Z</time>
      </trkpt>
      <trkpt lat="45.93914" lon="4.77994">
        <ele>184</ele>
        <time>2016-08-25T10:24:06Z</time>
      </trkpt>
      <trkpt lat="45.93903" lon="4.77999">
        <ele>183</ele>
        <time>2016-08-25T10:24:07Z</time>
      </trkpt>
      <trkpt lat="45.93895" lon="4.78005">
        <ele>185</ele>
        <time>2016-08-25T10:24:08Z</time>
      </trkpt>
      <trkpt lat="45.93889" lon="4.7801">
        <ele>184</ele>
        <time>2016-08-25T10:24:09Z</time>
      </trkpt>
      <trkpt lat="45.93884" lon="4.78015">
        <ele>184</ele>
        <time>2016-08-25T10:24:10Z</time>
      </trkpt>
      <trkpt lat="45.93879" lon="4.78015">
        <ele>184</ele>
        <time>2016-08-25T10:24:11Z</time>
      </trkpt>
      <trkpt lat="45.93873" lon="4.78013">
        <ele>183</ele>
        <time>2016-08-25T10:24:12Z</time>
      </trkpt>
      <trkpt lat="45.93867" lon="4.78008">
        <ele>183</ele>
        <time>2016-08-25T10:24:13Z</time>
      </trkpt>
      <trkpt lat="45.93863" lon="4.78002">
        <ele>182</ele>
        <time>2016-08-25T10:24:14Z</time>
      </trkpt>
      <trkpt lat="45.93857" lon="4.77997">
        <ele>179</ele>
        <time>2016-08-25T10:24:15Z</time>
      </trkpt>
      <trkpt lat="45.93851" lon="4.77993">
        <ele>179</ele>
        <time>2016-08-25T10:24:16Z</time>
      </trkpt>
      <trkpt lat="45.93846" lon="4.77988">
        <ele>179</ele>
        <time>2016-08-25T10:24:17Z</time>
      </trkpt>
      <trkpt lat="45.93842" lon="4.77981">
        <ele>178</ele>
        <time>2016-08-25T10:24:18Z</time>
      </trkpt>
      <trkpt lat="45.93838" lon="4.77974">
        <ele>178</ele>
        <time>2016-08-25T10:24:19Z</time>
      </trkpt>
      <trkpt lat="45.93833" lon="4.77968">
        <ele>172</ele>
        <time>2016-08-25T10:24:20Z</time>
      </trkpt>
      <trkpt lat="45.93828" lon="4.77963">
        <ele>171</ele>
        <time>2016-08-25T10:24:21Z</time>
      </trkpt>
      <trkpt lat="45.93821" lon="4.77955">
        <ele>170</ele>
        <time>2016-08-25T10:24:23Z</time>
      </trkpt>
      <trkpt lat="45.93818" lon="4.77951">
        <ele>170</ele>
        <time>2016-08-25T10:24:24Z</time>
      </trkpt>
      <trkpt lat="45.93812" lon="4.77944">
        <ele>169</ele>
        <time>2016-08-25T10:24:26Z</time>
      </trkpt>
      <trkpt lat="45.9381" lon="4.7794">
        <ele>169</ele>
        <time>2016-08-25T10:24:27Z</time>
      </trkpt>
      <trkpt lat="45.93803" lon="4.77933">
        <ele>168</ele>
        <time>2016-08-25T10:24:30Z</time>
      </trkpt>
      <trkpt lat="45.93802" lon="4.7793">
        <ele>168</ele>
        <time>2016-08-25T10:24:31Z</time>
      </trkpt>
      <trkpt lat="45.93801" lon="4.77929">
        <ele>168</ele>
        <time>2016-08-25T10:24:32Z</time>
      </trkpt>
      <trkpt lat="45.93799" lon="4.77926">
        <ele>168</ele>
        <time>2016-08-25T10:26:21Z</time>
      </trkpt>
      <trkpt lat="45.93799" lon="4.77926">
        <ele>168</ele>
        <time>2016-08-25T10:26:22Z</time>
      </trkpt>
      <trkpt lat="45.93792" lon="4.77917">
        <ele>168</ele>
        <time>2016-08-25T10:26:30Z</time>
      </trkpt>
      <trkpt lat="45.93791" lon="4.77916">
        <ele>166</ele>
        <time>2016-08-25T10:26:31Z</time>
      </trkpt>
      <trkpt lat="45.93785" lon="4.77909">
        <ele>166</ele>
        <time>2016-08-25T10:28:35Z</time>
      </trkpt>
      <trkpt lat="45.93784" lon="4.77907">
        <ele>166</ele>
        <time>2016-08-25T10:28:36Z</time>
      </trkpt>
      <trkpt lat="45.93778" lon="4.77899">
        <ele>166</ele>
        <time>2016-08-25T10:28:39Z</time>
      </trkpt>
      <trkpt lat="45.93776" lon="4.77896">
        <ele>166</ele>
        <time>2016-08-25T10:28:40Z</time>
      </trkpt>
      <trkpt lat="45.93771" lon="4.77889">
        <ele>166</ele>
        <time>2016-08-25T10:28:42Z</time>
      </trkpt>
      <trkpt lat="45.93768" lon="4.77886">
        <ele>166</ele>
        <time>2016-08-25T10:28:43Z</time>
      </trkpt>
      <trkpt lat="45.93763" lon="4.77879">
        <ele>166</ele>
        <time>2016-08-25T10:28:45Z</time>
      </trkpt>
      <trkpt lat="45.9376" lon="4.77875">
        <ele>166</ele>
        <time>2016-08-25T10:28:46Z</time>
      </trkpt>
      <trkpt lat="45.93756" lon="4.7787">
        <ele>166</ele>
        <time>2016-08-25T10:28:47Z</time>
      </trkpt>
      <trkpt lat="45.93753" lon="4.77866">
        <ele>166</ele>
        <time>2016-08-25T10:28:48Z</time>
      </trkpt>
      <trkpt lat="45.93749" lon="4.77861">
        <ele>167</ele>
        <time>2016-08-25T10:28:49Z</time>
      </trkpt>
      <trkpt lat="45.93745" lon="4.77856">
        <ele>167</ele>
        <time>2016-08-25T10:28:50Z</time>
      </trkpt>
      <trkpt lat="45.93741" lon="4.77851">
        <ele>167</ele>
        <time>2016-08-25T10:28:51Z</time>
      </trkpt>
      <trkpt lat="45.93737" lon="4.77845">
        <ele>167</ele>
        <time>2016-08-25T10:28:52Z</time>
      </trkpt>
      <trkpt lat="45.93733" lon="4.7784">
        <ele>167</ele>
        <time>2016-08-25T10:28:53Z</time>
      </trkpt>
      <trkpt lat="45.93728" lon="4.77834">
        <ele>167</ele>
        <time>2016-08-25T10:28:54Z</time>
      </trkpt>
      <trkpt lat="45.93724" lon="4.77828">
        <ele>168</ele>
        <time>2016-08-25T10:28:55Z</time>
      </trkpt>
      <trkpt lat="45.9372" lon="4.77823">
        <ele>168</ele>
        <time>2016-08-25T10:28:56Z</time>
      </trkpt>
      <trkpt lat="45.93716" lon="4.77817">
        <ele>169</ele>
        <time>2016-08-25T10:28:57Z</time>
      </trkpt>
      <trkpt lat="45.93712" lon="4.77811">
        <ele>169</ele>
        <time>2016-08-25T10:28:58Z</time>
      </trkpt>
      <trkpt lat="45.93707" lon="4.77806">
        <ele>169</ele>
        <time>2016-08-25T10:28:59Z</time>
      </trkpt>
      <trkpt lat="45.93703" lon="4.778">
        <ele>169</ele>
        <time>2016-08-25T10:29:00Z</time>
      </trkpt>
      <trkpt lat="45.93698" lon="4.77794">
        <ele>169</ele>
        <time>2016-08-25T10:29:01Z</time>
      </trkpt>
      <trkpt lat="45.93693" lon="4.77788">
        <ele>170</ele>
        <time>2016-08-25T10:29:02Z</time>
      </trkpt>
      <trkpt lat="45.93688" lon="4.77782">
        <ele>170</ele>
        <time>2016-08-25T10:29:03Z</time>
      </trkpt>
      <trkpt lat="45.93684" lon="4.77776">
        <ele>170</ele>
        <time>2016-08-25T10:29:04Z</time>
      </trkpt>
      <trkpt lat="45.93679" lon="4.7777">
        <ele>170</ele>
        <time>2016-08-25T10:29:05Z</time>
      </trkpt>
      <trkpt lat="45.93674" lon="4.77763">
        <ele>170</ele>
        <time>2016-08-25T10:29:06Z</time>
      </trkpt>
      <trkpt lat="45.9367" lon="4.77756">
        <ele>171</ele>
        <time>2016-08-25T10:29:07Z</time>
      </trkpt>
      <trkpt lat="45.93665" lon="4.77748">
        <ele>171</ele>
        <time>2016-08-25T10:29:08Z</time>
      </trkpt>
      <trkpt lat="45.9366" lon="4.77741">
        <ele>170</ele>
        <time>2016-08-25T10:29:09Z</time>
      </trkpt>
      <trkpt lat="45.93655" lon="4.77732">
        <ele>170</ele>
        <time>2016-08-25T10:29:10Z</time>
      </trkpt>
      <trkpt lat="45.93651" lon="4.77724">
        <ele>170</ele>
        <time>2016-08-25T10:29:11Z</time>
      </trkpt>
      <trkpt lat="45.93646" lon="4.77715">
        <ele>170</ele>
        <time>2016-08-25T10:29:12Z</time>
      </trkpt>
      <trkpt lat="45.93641" lon="4.77706">
        <ele>170</ele>
        <time>2016-08-25T10:29:13Z</time>
      </trkpt>
      <trkpt lat="45.93636" lon="4.77697">
        <ele>169</ele>
        <time>2016-08-25T10:29:14Z</time>
      </trkpt>
      <trkpt lat="45.93631" lon="4.77687">
        <ele>169</ele>
        <time>2016-08-25T10:29:15Z</time>
      </trkpt>
      <trkpt lat="45.93627" lon="4.77678">
        <ele>169</ele>
        <time>2016-08-25T10:29:16Z</time>
      </trkpt>
      <trkpt lat="45.93622" lon="4.77668">
        <ele>169</ele>
        <time>2016-08-25T10:29:17Z</time>
      </trkpt>
      <trkpt lat="45.93617" lon="4.77658">
        <ele>169</ele>
        <time>2016-08-25T10:29:18Z</time>
      </trkpt>
      <trkpt lat="45.93613" lon="4.77649">
        <ele>169</ele>
        <time>2016-08-25T10:29:19Z</time>
      </trkpt>
      <trkpt lat="45.93609" lon="4.77639">
        <ele>169</ele>
        <time>2016-08-25T10:29:20Z</time>
      </trkpt>
      <trkpt lat="45.93605" lon="4.7763">
        <ele>169</ele>
        <time>2016-08-25T10:29:21Z</time>
      </trkpt>
      <trkpt lat="45.93602" lon="4.77621">
        <ele>170</ele>
        <time>2016-08-25T10:29:22Z</time>
      </trkpt>
      <trkpt lat="45.93599" lon="4.77612">
        <ele>170</ele>
        <time>2016-08-25T10:29:23Z</time>
      </trkpt>
      <trkpt lat="45.93596" lon="4.77603">
        <ele>170</ele>
        <time>2016-08-25T10:29:24Z</time>
      </trkpt>
      <trkpt lat="45.93593" lon="4.77594">
        <ele>170</ele>
        <time>2016-08-25T10:29:25Z</time>
      </trkpt>
      <trkpt lat="45.9359" lon="4.77585">
        <ele>170</ele>
        <time>2016-08-25T10:29:26Z</time>
      </trkpt>
      <trkpt lat="45.93587" lon="4.77577">
        <ele>170</ele>
        <time>2016-08-25T10:29:27Z</time>
      </trkpt>
      <trkpt lat="45.93585" lon="4.77568">
        <ele>170</ele>
        <time>2016-08-25T10:29:28Z</time>
      </trkpt>
      <trkpt lat="45.93582" lon="4.7756">
        <ele>169</ele>
        <time>2016-08-25T10:29:29Z</time>
      </trkpt>
      <trkpt lat="45.93579" lon="4.77551">
        <ele>169</ele>
        <time>2016-08-25T10:29:30Z</time>
      </trkpt>
      <trkpt lat="45.93577" lon="4.77543">
        <ele>169</ele>
        <time>2016-08-25T10:29:31Z</time>
      </trkpt>
      <trkpt lat="45.93575" lon="4.77534">
        <ele>169</ele>
        <time>2016-08-25T10:29:32Z</time>
      </trkpt>
      <trkpt lat="45.93573" lon="4.77526">
        <ele>169</ele>
        <time>2016-08-25T10:29:33Z</time>
      </trkpt>
      <trkpt lat="45.93571" lon="4.77517">
        <ele>169</ele>
        <time>2016-08-25T10:29:34Z</time>
      </trkpt>
      <trkpt lat="45.93569" lon="4.77508">
        <ele>169</ele>
        <time>2016-08-25T10:29:35Z</time>
      </trkpt>
      <trkpt lat="45.93568" lon="4.77499">
        <ele>169</ele>
        <time>2016-08-25T10:29:36Z</time>
      </trkpt>
      <trkpt lat="45.93566" lon="4.7749">
        <ele>169</ele>
        <time>2016-08-25T10:29:37Z</time>
      </trkpt>
      <trkpt lat="45.93564" lon="4.77481">
        <ele>169</ele>
        <time>2016-08-25T10:29:38Z</time>
      </trkpt>
      <trkpt lat="45.93562" lon="4.77472">
        <ele>169</ele>
        <time>2016-08-25T10:29:39Z</time>
      </trkpt>
      <trkpt lat="45.9356" lon="4.77464">
        <ele>169</ele>
        <time>2016-08-25T10:29:40Z</time>
      </trkpt>
      <trkpt lat="45.93558" lon="4.77455">
        <ele>169</ele>
        <time>2016-08-25T10:29:41Z</time>
      </trkpt>
      <trkpt lat="45.93556" lon="4.77447">
        <ele>169</ele>
        <time>2016-08-25T10:29:42Z</time>
      </trkpt>
      <trkpt lat="45.93554" lon="4.77439">
        <ele>169</ele>
        <time>2016-08-25T10:29:43Z</time>
      </trkpt>
      <trkpt lat="45.93553" lon="4.77431">
        <ele>169</ele>
        <time>2016-08-25T10:29:44Z</time>
      </trkpt>
      <trkpt lat="45.93551" lon="4.77424">
        <ele>170</ele>
        <time>2016-08-25T10:29:45Z</time>
      </trkpt>
      <trkpt lat="45.93549" lon="4.77416">
        <ele>170</ele>
        <time>2016-08-25T10:29:46Z</time>
      </trkpt>
      <trkpt lat="45.93548" lon="4.77408">
        <ele>170</ele>
        <time>2016-08-25T10:29:47Z</time>
      </trkpt>
      <trkpt lat="45.93546" lon="4.77401">
        <ele>170</ele>
        <time>2016-08-25T10:29:48Z</time>
      </trkpt>
      <trkpt lat="45.93545" lon="4.77394">
        <ele>170</ele>
        <time>2016-08-25T10:29:49Z</time>
      </trkpt>
      <trkpt lat="45.93543" lon="4.77387">
        <ele>170</ele>
        <time>2016-08-25T10:29:50Z</time>
      </trkpt>
      <trkpt lat="45.93541" lon="4.77379">
        <ele>170</ele>
        <time>2016-08-25T10:29:51Z</time>
      </trkpt>
      <trkpt lat="45.9354" lon="4.77371">
        <ele>170</ele>
        <time>2016-08-25T10:29:52Z</time>
      </trkpt>
      <trkpt lat="45.93538" lon="4.77363">
        <ele>170</ele>
        <time>2016-08-25T10:29:53Z</time>
      </trkpt>
      <trkpt lat="45.93536" lon="4.77355">
        <ele>170</ele>
        <time>2016-08-25T10:29:54Z</time>
      </trkpt>
      <trkpt lat="45.93534" lon="4.77346">
        <ele>170</ele>
        <time>2016-08-25T10:29:55Z</time>
      </trkpt>
      <trkpt lat="45.93532" lon="4.77338">
        <ele>170</ele>
        <time>2016-08-25T10:29:56Z</time>
      </trkpt>
      <trkpt lat="45.9353" lon="4.77329">
        <ele>170</ele>
        <time>2016-08-25T10:29:57Z</time>
      </trkpt>
      <trkpt lat="45.93528" lon="4.77321">
        <ele>170</ele>
        <time>2016-08-25T10:29:58Z</time>
      </trkpt>
      <trkpt lat="45.93526" lon="4.77312">
        <ele>170</ele>
        <time>2016-08-25T10:29:59Z</time>
      </trkpt>
      <trkpt lat="45.93524" lon="4.77304">
        <ele>170</ele>
        <time>2016-08-25T10:30:00Z</time>
      </trkpt>
      <trkpt lat="45.93523" lon="4.77296">
        <ele>170</ele>
        <time>2016-08-25T10:30:01Z</time>
      </trkpt>
      <trkpt lat="45.93521" lon="4.77288">
        <ele>170</ele>
        <time>2016-08-25T10:30:02Z</time>
      </trkpt>
      <trkpt lat="45.93519" lon="4.7728">
        <ele>170</ele>
        <time>2016-08-25T10:30:03Z</time>
      </trkpt>
      <trkpt lat="45.93518" lon="4.77273">
        <ele>170</ele>
        <time>2016-08-25T10:30:04Z</time>
      </trkpt>
      <trkpt lat="45.93516" lon="4.77265">
        <ele>170</ele>
        <time>2016-08-25T10:30:05Z</time>
      </trkpt>
      <trkpt lat="45.93514" lon="4.77258">
        <ele>170</ele>
        <time>2016-08-25T10:30:06Z</time>
      </trkpt>
      <trkpt lat="45.93512" lon="4.7725">
        <ele>169</ele>
        <time>2016-08-25T10:30:07Z</time>
      </trkpt>
      <trkpt lat="45.9351" lon="4.77242">
        <ele>169</ele>
        <time>2016-08-25T10:30:08Z</time>
      </trkpt>
      <trkpt lat="45.93508" lon="4.77234">
        <ele>169</ele>
        <time>2016-08-25T10:30:09Z</time>
      </trkpt>
      <trkpt lat="45.93507" lon="4.77225">
        <ele>169</ele>
        <time>2016-08-25T10:30:10Z</time>
      </trkpt>
      <trkpt lat="45.93505" lon="4.77216">
        <ele>169</ele>
        <time>2016-08-25T10:30:11Z</time>
      </trkpt>
      <trkpt lat="45.93503" lon="4.77208">
        <ele>169</ele>
        <time>2016-08-25T10:30:12Z</time>
      </trkpt>
      <trkpt lat="45.93501" lon="4.77199">
        <ele>169</ele>
        <time>2016-08-25T10:30:13Z</time>
      </trkpt>
      <trkpt lat="45.93499" lon="4.77191">
        <ele>169</ele>
        <time>2016-08-25T10:30:14Z</time>
      </trkpt>
      <trkpt lat="45.93498" lon="4.77183">
        <ele>169</ele>
        <time>2016-08-25T10:30:15Z</time>
      </trkpt>
      <trkpt lat="45.93496" lon="4.77175">
        <ele>169</ele>
        <time>2016-08-25T10:30:16Z</time>
      </trkpt>
      <trkpt lat="45.93494" lon="4.77168">
        <ele>169</ele>
        <time>2016-08-25T10:30:17Z</time>
      </trkpt>
      <trkpt lat="45.93493" lon="4.7716">
        <ele>169</ele>
        <time>2016-08-25T10:30:18Z</time>
      </trkpt>
      <trkpt lat="45.93491" lon="4.77152">
        <ele>169</ele>
        <time>2016-08-25T10:30:19Z</time>
      </trkpt>
      <trkpt lat="45.9349" lon="4.77145">
        <ele>169</ele>
        <time>2016-08-25T10:30:20Z</time>
      </trkpt>
      <trkpt lat="45.93488" lon="4.77137">
        <ele>169</ele>
        <time>2016-08-25T10:30:21Z</time>
      </trkpt>
      <trkpt lat="45.93487" lon="4.77129">
        <ele>169</ele>
        <time>2016-08-25T10:30:22Z</time>
      </trkpt>
      <trkpt lat="45.93485" lon="4.77121">
        <ele>169</ele>
        <time>2016-08-25T10:30:23Z</time>
      </trkpt>
      <trkpt lat="45.93484" lon="4.77112">
        <ele>169</ele>
        <time>2016-08-25T10:30:24Z</time>
      </trkpt>
      <trkpt lat="45.93482" lon="4.77103">
        <ele>169</ele>
        <time>2016-08-25T10:30:25Z</time>
      </trkpt>
      <trkpt lat="45.9348" lon="4.77095">
        <ele>169</ele>
        <time>2016-08-25T10:30:26Z</time>
      </trkpt>
      <trkpt lat="45.93479" lon="4.77086">
        <ele>169</ele>
        <time>2016-08-25T10:30:27Z</time>
      </trkpt>
      <trkpt lat="45.93477" lon="4.77078">
        <ele>170</ele>
        <time>2016-08-25T10:30:28Z</time>
      </trkpt>
      <trkpt lat="45.93475" lon="4.77069">
        <ele>170</ele>
        <time>2016-08-25T10:30:29Z</time>
      </trkpt>
      <trkpt lat="45.93474" lon="4.77061">
        <ele>170</ele>
        <time>2016-08-25T10:30:30Z</time>
      </trkpt>
      <trkpt lat="45.93472" lon="4.77053">
        <ele>170</ele>
        <time>2016-08-25T10:30:31Z</time>
      </trkpt>
      <trkpt lat="45.93471" lon="4.77046">
        <ele>170</ele>
        <time>2016-08-25T10:30:32Z</time>
      </trkpt>
      <trkpt lat="45.9347" lon="4.77038">
        <ele>170</ele>
        <time>2016-08-25T10:30:33Z</time>
      </trkpt>
      <trkpt lat="45.93469" lon="4.7703">
        <ele>170</ele>
        <time>2016-08-25T10:30:34Z</time>
      </trkpt>
      <trkpt lat="45.93467" lon="4.77022">
        <ele>170</ele>
        <time>2016-08-25T10:30:35Z</time>
      </trkpt>
      <trkpt lat="45.93466" lon="4.77013">
        <ele>170</ele>
        <time>2016-08-25T10:30:36Z</time>
      </trkpt>
      <trkpt lat="45.93465" lon="4.77005">
        <ele>170</ele>
        <time>2016-08-25T10:30:37Z</time>
      </trkpt>
      <trkpt lat="45.93463" lon="4.76996">
        <ele>170</ele>
        <time>2016-08-25T10:30:38Z</time>
      </trkpt>
      <trkpt lat="45.93462" lon="4.76987">
        <ele>170</ele>
        <time>2016-08-25T10:30:39Z</time>
      </trkpt>
      <trkpt lat="45.93461" lon="4.76979">
        <ele>170</ele>
        <time>2016-08-25T10:30:40Z</time>
      </trkpt>
      <trkpt lat="45.93459" lon="4.7697">
        <ele>170</ele>
        <time>2016-08-25T10:30:41Z</time>
      </trkpt>
      <trkpt lat="45.93458" lon="4.76962">
        <ele>170</ele>
        <time>2016-08-25T10:30:42Z</time>
      </trkpt>
      <trkpt lat="45.93457" lon="4.76954">
        <ele>170</ele>
        <time>2016-08-25T10:30:43Z</time>
      </trkpt>
      <trkpt lat="45.93456" lon="4.76947">
        <ele>170</ele>
        <time>2016-08-25T10:30:44Z</time>
      </trkpt>
      <trkpt lat="45.93455" lon="4.76939">
        <ele>170</ele>
        <time>2016-08-25T10:30:45Z</time>
      </trkpt>
      <trkpt lat="45.93453" lon="4.76931">
        <ele>170</ele>
        <time>2016-08-25T10:30:46Z</time>
      </trkpt>
      <trkpt lat="45.93451" lon="4.76923">
        <ele>170</ele>
        <time>2016-08-25T10:30:47Z</time>
      </trkpt>
      <trkpt lat="45.9345" lon="4.76916">
        <ele>170</ele>
        <time>2016-08-25T10:30:48Z</time>
      </trkpt>
      <trkpt lat="45.93448" lon="4.76908">
        <ele>170</ele>
        <time>2016-08-25T10:30:49Z</time>
      </trkpt>
      <trkpt lat="45.93446" lon="4.769">
        <ele>170</ele>
        <time>2016-08-25T10:30:50Z</time>
      </trkpt>
      <trkpt lat="45.93444" lon="4.76892">
        <ele>170</ele>
        <time>2016-08-25T10:30:51Z</time>
      </trkpt>
      <trkpt lat="45.93442" lon="4.76884">
        <ele>170</ele>
        <time>2016-08-25T10:30:52Z</time>
      </trkpt>
      <trkpt lat="45.93439" lon="4.76876">
        <ele>171</ele>
        <time>2016-08-25T10:30:53Z</time>
      </trkpt>
      <trkpt lat="45.93436" lon="4.76868">
        <ele>171</ele>
        <time>2016-08-25T10:30:54Z</time>
      </trkpt>
      <trkpt lat="45.93433" lon="4.76861">
        <ele>171</ele>
        <time>2016-08-25T10:30:55Z</time>
      </trkpt>
      <trkpt lat="45.9343" lon="4.76853">
        <ele>171</ele>
        <time>2016-08-25T10:30:56Z</time>
      </trkpt>
      <trkpt lat="45.93427" lon="4.76846">
        <ele>171</ele>
        <time>2016-08-25T10:30:57Z</time>
      </trkpt>
      <trkpt lat="45.93423" lon="4.76839">
        <ele>171</ele>
        <time>2016-08-25T10:30:58Z</time>
      </trkpt>
      <trkpt lat="45.9342" lon="4.76833">
        <ele>172</ele>
        <time>2016-08-25T10:30:59Z</time>
      </trkpt>
      <trkpt lat="45.93417" lon="4.76826">
        <ele>172</ele>
        <time>2016-08-25T10:31:00Z</time>
      </trkpt>
      <trkpt lat="45.93413" lon="4.7682">
        <ele>172</ele>
        <time>2016-08-25T10:31:01Z</time>
      </trkpt>
      <trkpt lat="45.9341" lon="4.76814">
        <ele>172</ele>
        <time>2016-08-25T10:31:02Z</time>
      </trkpt>
      <trkpt lat="45.93405" lon="4.76808">
        <ele>172</ele>
        <time>2016-08-25T10:31:03Z</time>
      </trkpt>
      <trkpt lat="45.93401" lon="4.76801">
        <ele>172</ele>
        <time>2016-08-25T10:31:04Z</time>
      </trkpt>
      <trkpt lat="45.93396" lon="4.76796">
        <ele>172</ele>
        <time>2016-08-25T10:31:05Z</time>
      </trkpt>
      <trkpt lat="45.93391" lon="4.7679">
        <ele>172</ele>
        <time>2016-08-25T10:31:06Z</time>
      </trkpt>
      <trkpt lat="45.93386" lon="4.76785">
        <ele>172</ele>
        <time>2016-08-25T10:31:07Z</time>
      </trkpt>
      <trkpt lat="45.93381" lon="4.7678">
        <ele>172</ele>
        <time>2016-08-25T10:31:08Z</time>
      </trkpt>
      <trkpt lat="45.93377" lon="4.76775">
        <ele>172</ele>
        <time>2016-08-25T10:31:09Z</time>
      </trkpt>
      <trkpt lat="45.93372" lon="4.7677">
        <ele>172</ele>
        <time>2016-08-25T10:31:10Z</time>
      </trkpt>
      <trkpt lat="45.93368" lon="4.76766">
        <ele>172</ele>
        <time>2016-08-25T10:31:11Z</time>
      </trkpt>
      <trkpt lat="45.93363" lon="4.76761">
        <ele>172</ele>
        <time>2016-08-25T10:31:12Z</time>
      </trkpt>
      <trkpt lat="45.93359" lon="4.76757">
        <ele>172</ele>
        <time>2016-08-25T10:31:13Z</time>
      </trkpt>
      <trkpt lat="45.93354" lon="4.76752">
        <ele>172</ele>
        <time>2016-08-25T10:31:14Z</time>
      </trkpt>
      <trkpt lat="45.9335" lon="4.76748">
        <ele>172</ele>
        <time>2016-08-25T10:31:15Z</time>
      </trkpt>
      <trkpt lat="45.93345" lon="4.76743">
        <ele>172</ele>
        <time>2016-08-25T10:31:16Z</time>
      </trkpt>
      <trkpt lat="45.93341" lon="4.76739">
        <ele>172</ele>
        <time>2016-08-25T10:31:17Z</time>
      </trkpt>
      <trkpt lat="45.93336" lon="4.76734">
        <ele>172</ele>
        <time>2016-08-25T10:31:18Z</time>
      </trkpt>
      <trkpt lat="45.93331" lon="4.76729">
        <ele>172</ele>
        <time>2016-08-25T10:31:19Z</time>
      </trkpt>
      <trkpt lat="45.93326" lon="4.76724">
        <ele>172</ele>
        <time>2016-08-25T10:31:20Z</time>
      </trkpt>
      <trkpt lat="45.93321" lon="4.76719">
        <ele>172</ele>
        <time>2016-08-25T10:31:21Z</time>
      </trkpt>
      <trkpt lat="45.93315" lon="4.76714">
        <ele>172</ele>
        <time>2016-08-25T10:31:22Z</time>
      </trkpt>
      <trkpt lat="45.9331" lon="4.76709">
        <ele>172</ele>
        <time>2016-08-25T10:31:23Z</time>
      </trkpt>
      <trkpt lat="45.93305" lon="4.76704">
        <ele>172</ele>
        <time>2016-08-25T10:31:24Z</time>
      </trkpt>
      <trkpt lat="45.93301" lon="4.76699">
        <ele>172</ele>
        <time>2016-08-25T10:31:25Z</time>
      </trkpt>
      <trkpt lat="45.93296" lon="4.76694">
        <ele>172</ele>
        <time>2016-08-25T10:31:26Z</time>
      </trkpt>
      <trkpt lat="45.93292" lon="4.7669">
        <ele>172</ele>
        <time>2016-08-25T10:31:27Z</time>
      </trkpt>
      <trkpt lat="45.93287" lon="4.76685">
        <ele>172</ele>
        <time>2016-08-25T10:31:28Z</time>
      </trkpt>
      <trkpt lat="45.93283" lon="4.76681">
        <ele>172</ele>
        <time>2016-08-25T10:31:29Z</time>
      </trkpt>
      <trkpt lat="45.93278" lon="4.76677">
        <ele>172</ele>
        <time>2016-08-25T10:31:30Z</time>
      </trkpt>
      <trkpt lat="45.93274" lon="4.76673">
        <ele>172</ele>
        <time>2016-08-25T10:31:31Z</time>
      </trkpt>
      <trkpt lat="45.93269" lon="4.76669">
        <ele>172</ele>
        <time>2016-08-25T10:31:32Z</time>
      </trkpt>
      <trkpt lat="45.93265" lon="4.76664">
        <ele>171</ele>
        <time>2016-08-25T10:31:33Z</time>
      </trkpt>
      <trkpt lat="45.9326" lon="4.7666">
        <ele>171</ele>
        <time>2016-08-25T10:31:34Z</time>
      </trkpt>
      <trkpt lat="45.93256" lon="4.76655">
        <ele>171</ele>
        <time>2016-08-25T10:31:35Z</time>
      </trkpt>
      <trkpt lat="45.93251" lon="4.7665">
        <ele>171</ele>
        <time>2016-08-25T10:31:36Z</time>
      </trkpt>
      <trkpt lat="45.93247" lon="4.76646">
        <ele>171</ele>
        <time>2016-08-25T10:31:37Z</time>
      </trkpt>
      <trkpt lat="45.93243" lon="4.76642">
        <ele>171</ele>
        <time>2016-08-25T10:31:38Z</time>
      </trkpt>
      <trkpt lat="45.93239" lon="4.76637">
        <ele>171</ele>
        <time>2016-08-25T10:31:39Z</time>
      </trkpt>
      <trkpt lat="45.93234" lon="4.76633">
        <ele>170</ele>
        <time>2016-08-25T10:31:40Z</time>
      </trkpt>
      <trkpt lat="45.9323" lon="4.76628">
        <ele>170</ele>
        <time>2016-08-25T10:31:41Z</time>
      </trkpt>
      <trkpt lat="45.93225" lon="4.76623">
        <ele>170</ele>
        <time>2016-08-25T10:31:42Z</time>
      </trkpt>
      <trkpt lat="45.93221" lon="4.76618">
        <ele>170</ele>
        <time>2016-08-25T10:31:43Z</time>
      </trkpt>
      <trkpt lat="45.93216" lon="4.76613">
        <ele>170</ele>
        <time>2016-08-25T10:31:44Z</time>
      </trkpt>
      <trkpt lat="45.9321" lon="4.76608">
        <ele>170</ele>
        <time>2016-08-25T10:31:45Z</time>
      </trkpt>
      <trkpt lat="45.93205" lon="4.76603">
        <ele>170</ele>
        <time>2016-08-25T10:31:46Z</time>
      </trkpt>
      <trkpt lat="45.932" lon="4.76598">
        <ele>170</ele>
        <time>2016-08-25T10:31:47Z</time>
      </trkpt>
      <trkpt lat="45.93195" lon="4.76592">
        <ele>170</ele>
        <time>2016-08-25T10:31:48Z</time>
      </trkpt>
      <trkpt lat="45.9319" lon="4.76587">
        <ele>170</ele>
        <time>2016-08-25T10:31:49Z</time>
      </trkpt>
      <trkpt lat="45.93185" lon="4.76582">
        <ele>170</ele>
        <time>2016-08-25T10:31:50Z</time>
      </trkpt>
      <trkpt lat="45.9318" lon="4.76577">
        <ele>170</ele>
        <time>2016-08-25T10:31:51Z</time>
      </trkpt>
      <trkpt lat="45.93175" lon="4.76572">
        <ele>170</ele>
        <time>2016-08-25T10:31:52Z</time>
      </trkpt>
      <trkpt lat="45.93171" lon="4.76568">
        <ele>170</ele>
        <time>2016-08-25T10:31:53Z</time>
      </trkpt>
      <trkpt lat="45.93166" lon="4.76563">
        <ele>170</ele>
        <time>2016-08-25T10:31:54Z</time>
      </trkpt>
      <trkpt lat="45.93161" lon="4.76559">
        <ele>170</ele>
        <time>2016-08-25T10:31:55Z</time>
      </trkpt>
      <trkpt lat="45.93156" lon="4.76554">
        <ele>170</ele>
        <time>2016-08-25T10:31:56Z</time>
      </trkpt>
      <trkpt lat="45.93151" lon="4.76549">
        <ele>170</ele>
        <time>2016-08-25T10:31:57Z</time>
      </trkpt>
      <trkpt lat="45.93146" lon="4.76543">
        <ele>170</ele>
        <time>2016-08-25T10:31:58Z</time>
      </trkpt>
      <trkpt lat="45.93141" lon="4.76538">
        <ele>170</ele>
        <time>2016-08-25T10:31:59Z</time>
      </trkpt>
      <trkpt lat="45.93137" lon="4.76534">
        <ele>170</ele>
        <time>2016-08-25T10:32:00Z</time>
      </trkpt>
      <trkpt lat="45.93132" lon="4.76529">
        <ele>170</ele>
        <time>2016-08-25T10:32:01Z</time>
      </trkpt>
      <trkpt lat="45.93126" lon="4.76525">
        <ele>170</ele>
        <time>2016-08-25T10:32:02Z</time>
      </trkpt>
      <trkpt lat="45.93121" lon="4.7652">
        <ele>170</ele>
        <time>2016-08-25T10:32:03Z</time>
      </trkpt>
      <trkpt lat="45.93116" lon="4.76515">
        <ele>170</ele>
        <time>2016-08-25T10:32:04Z</time>
      </trkpt>
      <trkpt lat="45.93111" lon="4.76511">
        <ele>170</ele>
        <time>2016-08-25T10:32:05Z</time>
      </trkpt>
      <trkpt lat="45.93106" lon="4.76506">
        <ele>170</ele>
        <time>2016-08-25T10:32:06Z</time>
      </trkpt>
      <trkpt lat="45.93101" lon="4.76501">
        <ele>170</ele>
        <time>2016-08-25T10:32:07Z</time>
      </trkpt>
      <trkpt lat="45.93096" lon="4.76496">
        <ele>170</ele>
        <time>2016-08-25T10:32:08Z</time>
      </trkpt>
      <trkpt lat="45.93092" lon="4.76491">
        <ele>170</ele>
        <time>2016-08-25T10:32:09Z</time>
      </trkpt>
      <trkpt lat="45.93087" lon="4.76486">
        <ele>170</ele>
        <time>2016-08-25T10:32:10Z</time>
      </trkpt>
      <trkpt lat="45.93082" lon="4.76482">
        <ele>169</ele>
        <time>2016-08-25T10:32:11Z</time>
      </trkpt>
      <trkpt lat="45.93077" lon="4.76476">
        <ele>169</ele>
        <time>2016-08-25T10:32:12Z</time>
      </trkpt>
      <trkpt lat="45.93072" lon="4.76471">
        <ele>169</ele>
        <time>2016-08-25T10:32:13Z</time>
      </trkpt>
      <trkpt lat="45.93067" lon="4.76466">
        <ele>169</ele>
        <time>2016-08-25T10:32:14Z</time>
      </trkpt>
      <trkpt lat="45.93062" lon="4.76461">
        <ele>169</ele>
        <time>2016-08-25T10:32:15Z</time>
      </trkpt>
      <trkpt lat="45.93057" lon="4.76456">
        <ele>169</ele>
        <time>2016-08-25T10:32:16Z</time>
      </trkpt>
      <trkpt lat="45.93052" lon="4.76452">
        <ele>169</ele>
        <time>2016-08-25T10:32:17Z</time>
      </trkpt>
      <trkpt lat="45.93047" lon="4.76447">
        <ele>169</ele>
        <time>2016-08-25T10:32:18Z</time>
      </trkpt>
      <trkpt lat="45.93042" lon="4.76442">
        <ele>169</ele>
        <time>2016-08-25T10:32:19Z</time>
      </trkpt>
      <trkpt lat="45.93038" lon="4.76438">
        <ele>169</ele>
        <time>2016-08-25T10:32:20Z</time>
      </trkpt>
      <trkpt lat="45.93033" lon="4.76433">
        <ele>169</ele>
        <time>2016-08-25T10:32:21Z</time>
      </trkpt>
      <trkpt lat="45.93029" lon="4.76429">
        <ele>169</ele>
        <time>2016-08-25T10:32:22Z</time>
      </trkpt>
      <trkpt lat="45.93024" lon="4.76424">
        <ele>169</ele>
        <time>2016-08-25T10:32:23Z</time>
      </trkpt>
      <trkpt lat="45.9302" lon="4.76421">
        <ele>169</ele>
        <time>2016-08-25T10:32:24Z</time>
      </trkpt>
      <trkpt lat="45.93016" lon="4.76417">
        <ele>169</ele>
        <time>2016-08-25T10:32:25Z</time>
      </trkpt>
      <trkpt lat="45.93012" lon="4.76413">
        <ele>169</ele>
        <time>2016-08-25T10:32:26Z</time>
      </trkpt>
      <trkpt lat="45.93007" lon="4.76409">
        <ele>169</ele>
        <time>2016-08-25T10:32:27Z</time>
      </trkpt>
      <trkpt lat="45.93003" lon="4.76405">
        <ele>169</ele>
        <time>2016-08-25T10:32:28Z</time>
      </trkpt>
      <trkpt lat="45.92998" lon="4.764">
        <ele>169</ele>
        <time>2016-08-25T10:32:29Z</time>
      </trkpt>
      <trkpt lat="45.92993" lon="4.76395">
        <ele>169</ele>
        <time>2016-08-25T10:32:30Z</time>
      </trkpt>
      <trkpt lat="45.92988" lon="4.7639">
        <ele>169</ele>
        <time>2016-08-25T10:32:31Z</time>
      </trkpt>
      <trkpt lat="45.92982" lon="4.76385">
        <ele>169</ele>
        <time>2016-08-25T10:32:32Z</time>
      </trkpt>
      <trkpt lat="45.92977" lon="4.7638">
        <ele>169</ele>
        <time>2016-08-25T10:32:33Z</time>
      </trkpt>
      <trkpt lat="45.92972" lon="4.76375">
        <ele>169</ele>
        <time>2016-08-25T10:32:34Z</time>
      </trkpt>
      <trkpt lat="45.92968" lon="4.7637">
        <ele>169</ele>
        <time>2016-08-25T10:32:35Z</time>
      </trkpt>
      <trkpt lat="45.92963" lon="4.76366">
        <ele>169</ele>
        <time>2016-08-25T10:32:36Z</time>
      </trkpt>
      <trkpt lat="45.92958" lon="4.76361">
        <ele>169</ele>
        <time>2016-08-25T10:32:37Z</time>
      </trkpt>
      <trkpt lat="45.92954" lon="4.76356">
        <ele>169</ele>
        <time>2016-08-25T10:32:38Z</time>
      </trkpt>
      <trkpt lat="45.92949" lon="4.76352">
        <ele>169</ele>
        <time>2016-08-25T10:32:39Z</time>
      </trkpt>
      <trkpt lat="45.92944" lon="4.76347">
        <ele>169</ele>
        <time>2016-08-25T10:32:40Z</time>
      </trkpt>
      <trkpt lat="45.9294" lon="4.76342">
        <ele>169</ele>
        <time>2016-08-25T10:32:41Z</time>
      </trkpt>
      <trkpt lat="45.92935" lon="4.76337">
        <ele>169</ele>
        <time>2016-08-25T10:32:42Z</time>
      </trkpt>
      <trkpt lat="45.92929" lon="4.76332">
        <ele>169</ele>
        <time>2016-08-25T10:32:43Z</time>
      </trkpt>
      <trkpt lat="45.92924" lon="4.76327">
        <ele>169</ele>
        <time>2016-08-25T10:32:44Z</time>
      </trkpt>
      <trkpt lat="45.92919" lon="4.76322">
        <ele>169</ele>
        <time>2016-08-25T10:32:45Z</time>
      </trkpt>
      <trkpt lat="45.92914" lon="4.76317">
        <ele>169</ele>
        <time>2016-08-25T10:32:46Z</time>
      </trkpt>
      <trkpt lat="45.92909" lon="4.76312">
        <ele>169</ele>
        <time>2016-08-25T10:32:47Z</time>
      </trkpt>
      <trkpt lat="45.92904" lon="4.76307">
        <ele>169</ele>
        <time>2016-08-25T10:32:48Z</time>
      </trkpt>
      <trkpt lat="45.92899" lon="4.76303">
        <ele>169</ele>
        <time>2016-08-25T10:32:49Z</time>
      </trkpt>
      <trkpt lat="45.92894" lon="4.76298">
        <ele>169</ele>
        <time>2016-08-25T10:32:50Z</time>
      </trkpt>
      <trkpt lat="45.92889" lon="4.76293">
        <ele>169</ele>
        <time>2016-08-25T10:32:51Z</time>
      </trkpt>
      <trkpt lat="45.92885" lon="4.76289">
        <ele>169</ele>
        <time>2016-08-25T10:32:52Z</time>
      </trkpt>
      <trkpt lat="45.9288" lon="4.76284">
        <ele>169</ele>
        <time>2016-08-25T10:32:53Z</time>
      </trkpt>
      <trkpt lat="45.92876" lon="4.76279">
        <ele>169</ele>
        <time>2016-08-25T10:32:54Z</time>
      </trkpt>
      <trkpt lat="45.92871" lon="4.76274">
        <ele>169</ele>
        <time>2016-08-25T10:32:55Z</time>
      </trkpt>
      <trkpt lat="45.92866" lon="4.76269">
        <ele>169</ele>
        <time>2016-08-25T10:32:56Z</time>
      </trkpt>
      <trkpt lat="45.92861" lon="4.76264">
        <ele>169</ele>
        <time>2016-08-25T10:32:57Z</time>
      </trkpt>
      <trkpt lat="45.92855" lon="4.76259">
        <ele>169</ele>
        <time>2016-08-25T10:32:58Z</time>
      </trkpt>
      <trkpt lat="45.9285" lon="4.76253">
        <ele>169</ele>
        <time>2016-08-25T10:32:59Z</time>
      </trkpt>
      <trkpt lat="45.92845" lon="4.76249">
        <ele>169</ele>
        <time>2016-08-25T10:33:00Z</time>
      </trkpt>
      <trkpt lat="45.92839" lon="4.76244">
        <ele>169</ele>
        <time>2016-08-25T10:33:01Z</time>
      </trkpt>
      <trkpt lat="45.92834" lon="4.76239">
        <ele>169</ele>
        <time>2016-08-25T10:33:02Z</time>
      </trkpt>
      <trkpt lat="45.92829" lon="4.76234">
        <ele>168</ele>
        <time>2016-08-25T10:33:03Z</time>
      </trkpt>
      <trkpt lat="45.92825" lon="4.76229">
        <ele>168</ele>
        <time>2016-08-25T10:33:04Z</time>
      </trkpt>
      <trkpt lat="45.9282" lon="4.76225">
        <ele>168</ele>
        <time>2016-08-25T10:33:05Z</time>
      </trkpt>
      <trkpt lat="45.92816" lon="4.76221">
        <ele>168</ele>
        <time>2016-08-25T10:33:06Z</time>
      </trkpt>
      <trkpt lat="45.92811" lon="4.76216">
        <ele>168</ele>
        <time>2016-08-25T10:33:07Z</time>
      </trkpt>
      <trkpt lat="45.92807" lon="4.76212">
        <ele>168</ele>
        <time>2016-08-25T10:33:08Z</time>
      </trkpt>
      <trkpt lat="45.92802" lon="4.76207">
        <ele>168</ele>
        <time>2016-08-25T10:33:09Z</time>
      </trkpt>
      <trkpt lat="45.92798" lon="4.76203">
        <ele>168</ele>
        <time>2016-08-25T10:33:10Z</time>
      </trkpt>
      <trkpt lat="45.92793" lon="4.76199">
        <ele>168</ele>
        <time>2016-08-25T10:33:11Z</time>
      </trkpt>
      <trkpt lat="45.92789" lon="4.76194">
        <ele>168</ele>
        <time>2016-08-25T10:33:12Z</time>
      </trkpt>
      <trkpt lat="45.92785" lon="4.76189">
        <ele>168</ele>
        <time>2016-08-25T10:33:13Z</time>
      </trkpt>
      <trkpt lat="45.92781" lon="4.76184">
        <ele>168</ele>
        <time>2016-08-25T10:33:14Z</time>
      </trkpt>
      <trkpt lat="45.92777" lon="4.7618">
        <ele>167</ele>
        <time>2016-08-25T10:33:15Z</time>
      </trkpt>
      <trkpt lat="45.92772" lon="4.76176">
        <ele>167</ele>
        <time>2016-08-25T10:33:16Z</time>
      </trkpt>
      <trkpt lat="45.92767" lon="4.76172">
        <ele>167</ele>
        <time>2016-08-25T10:33:17Z</time>
      </trkpt>
      <trkpt lat="45.92762" lon="4.76168">
        <ele>167</ele>
        <time>2016-08-25T10:33:18Z</time>
      </trkpt>
      <trkpt lat="45.92757" lon="4.76164">
        <ele>167</ele>
        <time>2016-08-25T10:33:19Z</time>
      </trkpt>
      <trkpt lat="45.92751" lon="4.7616">
        <ele>167</ele>
        <time>2016-08-25T10:33:20Z</time>
      </trkpt>
      <trkpt lat="45.92746" lon="4.76156">
        <ele>168</ele>
        <time>2016-08-25T10:33:21Z</time>
      </trkpt>
      <trkpt lat="45.92741" lon="4.76152">
        <ele>168</ele>
        <time>2016-08-25T10:33:22Z</time>
      </trkpt>
      <trkpt lat="45.92736" lon="4.76148">
        <ele>168</ele>
        <time>2016-08-25T10:33:23Z</time>
      </trkpt>
      <trkpt lat="45.92731" lon="4.76144">
        <ele>168</ele>
        <time>2016-08-25T10:33:24Z</time>
      </trkpt>
      <trkpt lat="45.92726" lon="4.7614">
        <ele>168</ele>
        <time>2016-08-25T10:33:25Z</time>
      </trkpt>
      <trkpt lat="45.9272" lon="4.76136">
        <ele>168</ele>
        <time>2016-08-25T10:33:26Z</time>
      </trkpt>
      <trkpt lat="45.92715" lon="4.76131">
        <ele>168</ele>
        <time>2016-08-25T10:33:27Z</time>
      </trkpt>
      <trkpt lat="45.9271" lon="4.76128">
        <ele>168</ele>
        <time>2016-08-25T10:33:28Z</time>
      </trkpt>
      <trkpt lat="45.92705" lon="4.76124">
        <ele>169</ele>
        <time>2016-08-25T10:33:29Z</time>
      </trkpt>
      <trkpt lat="45.92699" lon="4.7612">
        <ele>169</ele>
        <time>2016-08-25T10:33:30Z</time>
      </trkpt>
      <trkpt lat="45.92694" lon="4.76116">
        <ele>169</ele>
        <time>2016-08-25T10:33:31Z</time>
      </trkpt>
      <trkpt lat="45.92689" lon="4.76112">
        <ele>169</ele>
        <time>2016-08-25T10:33:32Z</time>
      </trkpt>
      <trkpt lat="45.92685" lon="4.76108">
        <ele>169</ele>
        <time>2016-08-25T10:33:33Z</time>
      </trkpt>
      <trkpt lat="45.9268" lon="4.76103">
        <ele>169</ele>
        <time>2016-08-25T10:33:34Z</time>
      </trkpt>
      <trkpt lat="45.92675" lon="4.76099">
        <ele>169</ele>
        <time>2016-08-25T10:33:35Z</time>
      </trkpt>
      <trkpt lat="45.92669" lon="4.76095">
        <ele>169</ele>
        <time>2016-08-25T10:33:36Z</time>
      </trkpt>
      <trkpt lat="45.92664" lon="4.76091">
        <ele>170</ele>
        <time>2016-08-25T10:33:37Z</time>
      </trkpt>
      <trkpt lat="45.92659" lon="4.76088">
        <ele>170</ele>
        <time>2016-08-25T10:33:38Z</time>
      </trkpt>
      <trkpt lat="45.92655" lon="4.76084">
        <ele>170</ele>
        <time>2016-08-25T10:33:39Z</time>
      </trkpt>
      <trkpt lat="45.9265" lon="4.7608">
        <ele>170</ele>
        <time>2016-08-25T10:33:40Z</time>
      </trkpt>
      <trkpt lat="45.92645" lon="4.76077">
        <ele>170</ele>
        <time>2016-08-25T10:33:41Z</time>
      </trkpt>
      <trkpt lat="45.9264" lon="4.76074">
        <ele>170</ele>
        <time>2016-08-25T10:33:42Z</time>
      </trkpt>
      <trkpt lat="45.92636" lon="4.7607">
        <ele>170</ele>
        <time>2016-08-25T10:33:43Z</time>
      </trkpt>
      <trkpt lat="45.92631" lon="4.76067">
        <ele>170</ele>
        <time>2016-08-25T10:33:44Z</time>
      </trkpt>
      <trkpt lat="45.92626" lon="4.76064">
        <ele>170</ele>
        <time>2016-08-25T10:33:45Z</time>
      </trkpt>
      <trkpt lat="45.92621" lon="4.7606">
        <ele>171</ele>
        <time>2016-08-25T10:33:46Z</time>
      </trkpt>
      <trkpt lat="45.92617" lon="4.76056">
        <ele>171</ele>
        <time>2016-08-25T10:33:47Z</time>
      </trkpt>
      <trkpt lat="45.92612" lon="4.76053">
        <ele>171</ele>
        <time>2016-08-25T10:33:48Z</time>
      </trkpt>
      <trkpt lat="45.92608" lon="4.76051">
        <ele>171</ele>
        <time>2016-08-25T10:33:49Z</time>
      </trkpt>
      <trkpt lat="45.92603" lon="4.76048">
        <ele>171</ele>
        <time>2016-08-25T10:33:50Z</time>
      </trkpt>
      <trkpt lat="45.92599" lon="4.76044">
        <ele>171</ele>
        <time>2016-08-25T10:33:51Z</time>
      </trkpt>
      <trkpt lat="45.92595" lon="4.76041">
        <ele>171</ele>
        <time>2016-08-25T10:33:52Z</time>
      </trkpt>
      <trkpt lat="45.92587" lon="4.76036">
        <ele>171</ele>
        <time>2016-08-25T10:33:54Z</time>
      </trkpt>
      <trkpt lat="45.92583" lon="4.76033">
        <ele>172</ele>
        <time>2016-08-25T10:33:55Z</time>
      </trkpt>
      <trkpt lat="45.92575" lon="4.76027">
        <ele>172</ele>
        <time>2016-08-25T10:33:57Z</time>
      </trkpt>
      <trkpt lat="45.92571" lon="4.76025">
        <ele>172</ele>
        <time>2016-08-25T10:33:58Z</time>
      </trkpt>
      <trkpt lat="45.92564" lon="4.76019">
        <ele>172</ele>
        <time>2016-08-25T10:34:00Z</time>
      </trkpt>
      <trkpt lat="45.9256" lon="4.76016">
        <ele>172</ele>
        <time>2016-08-25T10:34:01Z</time>
      </trkpt>
      <trkpt lat="45.92552" lon="4.76011">
        <ele>172</ele>
        <time>2016-08-25T10:34:03Z</time>
      </trkpt>
      <trkpt lat="45.92548" lon="4.76008">
        <ele>172</ele>
        <time>2016-08-25T10:34:04Z</time>
      </trkpt>
      <trkpt lat="45.92541" lon="4.76003">
        <ele>172</ele>
        <time>2016-08-25T10:34:06Z</time>
      </trkpt>
      <trkpt lat="45.92538" lon="4.76001">
        <ele>172</ele>
        <time>2016-08-25T10:34:07Z</time>
      </trkpt>
      <trkpt lat="45.92531" lon="4.75995">
        <ele>172</ele>
        <time>2016-08-25T10:34:09Z</time>
      </trkpt>
      <trkpt lat="45.92527" lon="4.75992">
        <ele>172</ele>
        <time>2016-08-25T10:34:10Z</time>
      </trkpt>
      <trkpt lat="45.92523" lon="4.75989">
        <ele>172</ele>
        <time>2016-08-25T10:34:11Z</time>
      </trkpt>
      <trkpt lat="45.92518" lon="4.75985">
        <ele>172</ele>
        <time>2016-08-25T10:34:12Z</time>
      </trkpt>
      <trkpt lat="45.92513" lon="4.75982">
        <ele>172</ele>
        <time>2016-08-25T10:34:13Z</time>
      </trkpt>
      <trkpt lat="45.92508" lon="4.75979">
        <ele>172</ele>
        <time>2016-08-25T10:34:14Z</time>
      </trkpt>
      <trkpt lat="45.92503" lon="4.75975">
        <ele>172</ele>
        <time>2016-08-25T10:34:15Z</time>
      </trkpt>
      <trkpt lat="45.92499" lon="4.75972">
        <ele>172</ele>
        <time>2016-08-25T10:34:16Z</time>
      </trkpt>
      <trkpt lat="45.92494" lon="4.75969">
        <ele>172</ele>
        <time>2016-08-25T10:34:17Z</time>
      </trkpt>
      <trkpt lat="45.92489" lon="4.75965">
        <ele>172</ele>
        <time>2016-08-25T10:34:18Z</time>
      </trkpt>
      <trkpt lat="45.92484" lon="4.75962">
        <ele>172</ele>
        <time>2016-08-25T10:34:19Z</time>
      </trkpt>
      <trkpt lat="45.92479" lon="4.75959">
        <ele>172</ele>
        <time>2016-08-25T10:34:20Z</time>
      </trkpt>
      <trkpt lat="45.92474" lon="4.75956">
        <ele>172</ele>
        <time>2016-08-25T10:34:21Z</time>
      </trkpt>
      <trkpt lat="45.92469" lon="4.75952">
        <ele>172</ele>
        <time>2016-08-25T10:34:22Z</time>
      </trkpt>
      <trkpt lat="45.92465" lon="4.75949">
        <ele>172</ele>
        <time>2016-08-25T10:34:23Z</time>
      </trkpt>
      <trkpt lat="45.92459" lon="4.75945">
        <ele>172</ele>
        <time>2016-08-25T10:34:24Z</time>
      </trkpt>
      <trkpt lat="45.92454" lon="4.75942">
        <ele>172</ele>
        <time>2016-08-25T10:34:25Z</time>
      </trkpt>
      <trkpt lat="45.92449" lon="4.75938">
        <ele>172</ele>
        <time>2016-08-25T10:34:26Z</time>
      </trkpt>
      <trkpt lat="45.92443" lon="4.75935">
        <ele>172</ele>
        <time>2016-08-25T10:34:27Z</time>
      </trkpt>
      <trkpt lat="45.92438" lon="4.75931">
        <ele>172</ele>
        <time>2016-08-25T10:34:28Z</time>
      </trkpt>
      <trkpt lat="45.92432" lon="4.75928">
        <ele>172</ele>
        <time>2016-08-25T10:34:29Z</time>
      </trkpt>
      <trkpt lat="45.92426" lon="4.75924">
        <ele>172</ele>
        <time>2016-08-25T10:34:30Z</time>
      </trkpt>
      <trkpt lat="45.9242" lon="4.75919">
        <ele>172</ele>
        <time>2016-08-25T10:34:31Z</time>
      </trkpt>
      <trkpt lat="45.92414" lon="4.75915">
        <ele>172</ele>
        <time>2016-08-25T10:34:32Z</time>
      </trkpt>
      <trkpt lat="45.92408" lon="4.75911">
        <ele>172</ele>
        <time>2016-08-25T10:34:33Z</time>
      </trkpt>
      <trkpt lat="45.92401" lon="4.75906">
        <ele>173</ele>
        <time>2016-08-25T10:34:34Z</time>
      </trkpt>
      <trkpt lat="45.92395" lon="4.75902">
        <ele>173</ele>
        <time>2016-08-25T10:34:35Z</time>
      </trkpt>
      <trkpt lat="45.92388" lon="4.75898">
        <ele>173</ele>
        <time>2016-08-25T10:34:36Z</time>
      </trkpt>
      <trkpt lat="45.92382" lon="4.75893">
        <ele>173</ele>
        <time>2016-08-25T10:34:37Z</time>
      </trkpt>
      <trkpt lat="45.92376" lon="4.75889">
        <ele>173</ele>
        <time>2016-08-25T10:34:38Z</time>
      </trkpt>
      <trkpt lat="45.92369" lon="4.75884">
        <ele>173</ele>
        <time>2016-08-25T10:34:39Z</time>
      </trkpt>
      <trkpt lat="45.92363" lon="4.7588">
        <ele>173</ele>
        <time>2016-08-25T10:34:40Z</time>
      </trkpt>
      <trkpt lat="45.92358" lon="4.75876">
        <ele>173</ele>
        <time>2016-08-25T10:34:41Z</time>
      </trkpt>
      <trkpt lat="45.92352" lon="4.75873">
        <ele>173</ele>
        <time>2016-08-25T10:34:42Z</time>
      </trkpt>
      <trkpt lat="45.92346" lon="4.7587">
        <ele>173</ele>
        <time>2016-08-25T10:34:43Z</time>
      </trkpt>
      <trkpt lat="45.92341" lon="4.75866">
        <ele>173</ele>
        <time>2016-08-25T10:34:44Z</time>
      </trkpt>
      <trkpt lat="45.92335" lon="4.75863">
        <ele>173</ele>
        <time>2016-08-25T10:34:45Z</time>
      </trkpt>
      <trkpt lat="45.92329" lon="4.75859">
        <ele>173</ele>
        <time>2016-08-25T10:34:46Z</time>
      </trkpt>
      <trkpt lat="45.92324" lon="4.75855">
        <ele>174</ele>
        <time>2016-08-25T10:34:47Z</time>
      </trkpt>
      <trkpt lat="45.92318" lon="4.75852">
        <ele>174</ele>
        <time>2016-08-25T10:34:48Z</time>
      </trkpt>
      <trkpt lat="45.92312" lon="4.75848">
        <ele>173</ele>
        <time>2016-08-25T10:34:49Z</time>
      </trkpt>
      <trkpt lat="45.92306" lon="4.75844">
        <ele>173</ele>
        <time>2016-08-25T10:34:50Z</time>
      </trkpt>
      <trkpt lat="45.923" lon="4.75841">
        <ele>173</ele>
        <time>2016-08-25T10:34:51Z</time>
      </trkpt>
      <trkpt lat="45.92295" lon="4.75837">
        <ele>173</ele>
        <time>2016-08-25T10:34:52Z</time>
      </trkpt>
      <trkpt lat="45.92289" lon="4.75833">
        <ele>174</ele>
        <time>2016-08-25T10:34:53Z</time>
      </trkpt>
      <trkpt lat="45.92283" lon="4.75829">
        <ele>174</ele>
        <time>2016-08-25T10:34:54Z</time>
      </trkpt>
      <trkpt lat="45.92277" lon="4.75824">
        <ele>174</ele>
        <time>2016-08-25T10:34:55Z</time>
      </trkpt>
      <trkpt lat="45.92272" lon="4.75819">
        <ele>174</ele>
        <time>2016-08-25T10:34:56Z</time>
      </trkpt>
      <trkpt lat="45.92268" lon="4.75813">
        <ele>174</ele>
        <time>2016-08-25T10:34:57Z</time>
      </trkpt>
      <trkpt lat="45.92265" lon="4.75806">
        <ele>174</ele>
        <time>2016-08-25T10:34:58Z</time>
      </trkpt>
      <trkpt lat="45.92262" lon="4.75799">
        <ele>174</ele>
        <time>2016-08-25T10:34:59Z</time>
      </trkpt>
      <trkpt lat="45.9226" lon="4.75793">
        <ele>174</ele>
        <time>2016-08-25T10:35:00Z</time>
      </trkpt>
      <trkpt lat="45.92258" lon="4.75785">
        <ele>174</ele>
        <time>2016-08-25T10:35:01Z</time>
      </trkpt>
      <trkpt lat="45.92256" lon="4.75777">
        <ele>174</ele>
        <time>2016-08-25T10:35:02Z</time>
      </trkpt>
      <trkpt lat="45.92254" lon="4.75769">
        <ele>174</ele>
        <time>2016-08-25T10:35:03Z</time>
      </trkpt>
      <trkpt lat="45.92253" lon="4.75761">
        <ele>174</ele>
        <time>2016-08-25T10:35:04Z</time>
      </trkpt>
      <trkpt lat="45.92252" lon="4.75753">
        <ele>174</ele>
        <time>2016-08-25T10:35:05Z</time>
      </trkpt>
      <trkpt lat="45.9225" lon="4.75744">
        <ele>174</ele>
        <time>2016-08-25T10:35:06Z</time>
      </trkpt>
      <trkpt lat="45.92248" lon="4.75736">
        <ele>174</ele>
        <time>2016-08-25T10:35:07Z</time>
      </trkpt>
      <trkpt lat="45.92246" lon="4.75728">
        <ele>174</ele>
        <time>2016-08-25T10:35:08Z</time>
      </trkpt>
      <trkpt lat="45.92244" lon="4.75721">
        <ele>174</ele>
        <time>2016-08-25T10:35:09Z</time>
      </trkpt>
      <trkpt lat="45.92241" lon="4.75713">
        <ele>174</ele>
        <time>2016-08-25T10:35:10Z</time>
      </trkpt>
      <trkpt lat="45.92238" lon="4.75706">
        <ele>174</ele>
        <time>2016-08-25T10:35:11Z</time>
      </trkpt>
      <trkpt lat="45.92234" lon="4.75701">
        <ele>174</ele>
        <time>2016-08-25T10:35:12Z</time>
      </trkpt>
      <trkpt lat="45.9223" lon="4.75695">
        <ele>174</ele>
        <time>2016-08-25T10:35:13Z</time>
      </trkpt>
      <trkpt lat="45.92225" lon="4.7569">
        <ele>174</ele>
        <time>2016-08-25T10:35:14Z</time>
      </trkpt>
      <trkpt lat="45.92221" lon="4.75686">
        <ele>174</ele>
        <time>2016-08-25T10:35:15Z</time>
      </trkpt>
      <trkpt lat="45.92216" lon="4.75681">
        <ele>174</ele>
        <time>2016-08-25T10:35:16Z</time>
      </trkpt>
      <trkpt lat="45.92212" lon="4.75677">
        <ele>174</ele>
        <time>2016-08-25T10:35:17Z</time>
      </trkpt>
      <trkpt lat="45.92207" lon="4.75672">
        <ele>174</ele>
        <time>2016-08-25T10:35:18Z</time>
      </trkpt>
      <trkpt lat="45.92202" lon="4.75667">
        <ele>174</ele>
        <time>2016-08-25T10:35:19Z</time>
      </trkpt>
      <trkpt lat="45.92197" lon="4.75662">
        <ele>174</ele>
        <time>2016-08-25T10:35:20Z</time>
      </trkpt>
      <trkpt lat="45.92192" lon="4.75658">
        <ele>174</ele>
        <time>2016-08-25T10:35:21Z</time>
      </trkpt>
      <trkpt lat="45.92186" lon="4.75653">
        <ele>174</ele>
        <time>2016-08-25T10:35:22Z</time>
      </trkpt>
      <trkpt lat="45.92181" lon="4.75647">
        <ele>174</ele>
        <time>2016-08-25T10:35:23Z</time>
      </trkpt>
      <trkpt lat="45.92175" lon="4.75642">
        <ele>174</ele>
        <time>2016-08-25T10:35:24Z</time>
      </trkpt>
      <trkpt lat="45.9217" lon="4.75637">
        <ele>174</ele>
        <time>2016-08-25T10:35:25Z</time>
      </trkpt>
      <trkpt lat="45.92165" lon="4.75632">
        <ele>174</ele>
        <time>2016-08-25T10:35:26Z</time>
      </trkpt>
      <trkpt lat="45.9216" lon="4.75627">
        <ele>174</ele>
        <time>2016-08-25T10:35:27Z</time>
      </trkpt>
      <trkpt lat="45.92155" lon="4.75623">
        <ele>174</ele>
        <time>2016-08-25T10:35:28Z</time>
      </trkpt>
      <trkpt lat="45.92151" lon="4.75618">
        <ele>174</ele>
        <time>2016-08-25T10:35:29Z</time>
      </trkpt>
      <trkpt lat="45.92146" lon="4.75613">
        <ele>174</ele>
        <time>2016-08-25T10:35:30Z</time>
      </trkpt>
      <trkpt lat="45.92141" lon="4.75608">
        <ele>174</ele>
        <time>2016-08-25T10:35:31Z</time>
      </trkpt>
      <trkpt lat="45.92137" lon="4.75603">
        <ele>174</ele>
        <time>2016-08-25T10:35:32Z</time>
      </trkpt>
      <trkpt lat="45.92132" lon="4.75598">
        <ele>174</ele>
        <time>2016-08-25T10:35:33Z</time>
      </trkpt>
      <trkpt lat="45.92128" lon="4.75593">
        <ele>174</ele>
        <time>2016-08-25T10:35:34Z</time>
      </trkpt>
      <trkpt lat="45.92123" lon="4.75588">
        <ele>174</ele>
        <time>2016-08-25T10:35:35Z</time>
      </trkpt>
      <trkpt lat="45.9212" lon="4.75583">
        <ele>174</ele>
        <time>2016-08-25T10:35:36Z</time>
      </trkpt>
      <trkpt lat="45.92116" lon="4.75577">
        <ele>174</ele>
        <time>2016-08-25T10:35:37Z</time>
      </trkpt>
      <trkpt lat="45.92114" lon="4.75571">
        <ele>174</ele>
        <time>2016-08-25T10:35:38Z</time>
      </trkpt>
      <trkpt lat="45.92115" lon="4.75564">
        <ele>174</ele>
        <time>2016-08-25T10:35:39Z</time>
      </trkpt>
      <trkpt lat="45.92118" lon="4.75558">
        <ele>174</ele>
        <time>2016-08-25T10:35:40Z</time>
      </trkpt>
      <trkpt lat="45.92121" lon="4.75553">
        <ele>174</ele>
        <time>2016-08-25T10:35:41Z</time>
      </trkpt>
      <trkpt lat="45.92124" lon="4.75547">
        <ele>174</ele>
        <time>2016-08-25T10:35:42Z</time>
      </trkpt>
      <trkpt lat="45.92127" lon="4.75541">
        <ele>174</ele>
        <time>2016-08-25T10:35:43Z</time>
      </trkpt>
      <trkpt lat="45.9213" lon="4.75535">
        <ele>174</ele>
        <time>2016-08-25T10:35:44Z</time>
      </trkpt>
      <trkpt lat="45.92134" lon="4.75529">
        <ele>174</ele>
        <time>2016-08-25T10:35:45Z</time>
      </trkpt>
      <trkpt lat="45.92137" lon="4.75523">
        <ele>174</ele>
        <time>2016-08-25T10:35:46Z</time>
      </trkpt>
      <trkpt lat="45.9214" lon="4.75516">
        <ele>174</ele>
        <time>2016-08-25T10:35:47Z</time>
      </trkpt>
      <trkpt lat="45.92144" lon="4.75509">
        <ele>175</ele>
        <time>2016-08-25T10:35:48Z</time>
      </trkpt>
      <trkpt lat="45.92147" lon="4.75502">
        <ele>175</ele>
        <time>2016-08-25T10:35:49Z</time>
      </trkpt>
      <trkpt lat="45.9215" lon="4.75495">
        <ele>175</ele>
        <time>2016-08-25T10:35:50Z</time>
      </trkpt>
      <trkpt lat="45.92152" lon="4.75488">
        <ele>176</ele>
        <time>2016-08-25T10:35:51Z</time>
      </trkpt>
      <trkpt lat="45.92155" lon="4.75481">
        <ele>176</ele>
        <time>2016-08-25T10:35:52Z</time>
      </trkpt>
      <trkpt lat="45.92158" lon="4.75474">
        <ele>176</ele>
        <time>2016-08-25T10:35:53Z</time>
      </trkpt>
      <trkpt lat="45.9216" lon="4.75468">
        <ele>176</ele>
        <time>2016-08-25T10:35:54Z</time>
      </trkpt>
      <trkpt lat="45.92163" lon="4.75461">
        <ele>176</ele>
        <time>2016-08-25T10:35:55Z</time>
      </trkpt>
      <trkpt lat="45.92165" lon="4.75454">
        <ele>176</ele>
        <time>2016-08-25T10:35:56Z</time>
      </trkpt>
      <trkpt lat="45.92168" lon="4.75448">
        <ele>176</ele>
        <time>2016-08-25T10:35:57Z</time>
      </trkpt>
      <trkpt lat="45.9217" lon="4.75441">
        <ele>177</ele>
        <time>2016-08-25T10:35:58Z</time>
      </trkpt>
      <trkpt lat="45.92173" lon="4.75434">
        <ele>177</ele>
        <time>2016-08-25T10:35:59Z</time>
      </trkpt>
      <trkpt lat="45.92176" lon="4.75428">
        <ele>177</ele>
        <time>2016-08-25T10:36:00Z</time>
      </trkpt>
      <trkpt lat="45.92178" lon="4.75422">
        <ele>177</ele>
        <time>2016-08-25T10:36:01Z</time>
      </trkpt>
      <trkpt lat="45.92181" lon="4.75415">
        <ele>177</ele>
        <time>2016-08-25T10:36:02Z</time>
      </trkpt>
      <trkpt lat="45.92183" lon="4.75409">
        <ele>177</ele>
        <time>2016-08-25T10:36:03Z</time>
      </trkpt>
      <trkpt lat="45.92185" lon="4.75403">
        <ele>177</ele>
        <time>2016-08-25T10:36:04Z</time>
      </trkpt>
      <trkpt lat="45.92187" lon="4.75396">
        <ele>177</ele>
        <time>2016-08-25T10:36:05Z</time>
      </trkpt>
      <trkpt lat="45.9219" lon="4.7539">
        <ele>177</ele>
        <time>2016-08-25T10:36:06Z</time>
      </trkpt>
      <trkpt lat="45.92193" lon="4.75383">
        <ele>177</ele>
        <time>2016-08-25T10:36:07Z</time>
      </trkpt>
      <trkpt lat="45.92196" lon="4.75375">
        <ele>177</ele>
        <time>2016-08-25T10:36:08Z</time>
      </trkpt>
      <trkpt lat="45.92199" lon="4.75368">
        <ele>177</ele>
        <time>2016-08-25T10:36:09Z</time>
      </trkpt>
      <trkpt lat="45.92202" lon="4.75361">
        <ele>177</ele>
        <time>2016-08-25T10:36:10Z</time>
      </trkpt>
      <trkpt lat="45.92204" lon="4.75352">
        <ele>177</ele>
        <time>2016-08-25T10:36:11Z</time>
      </trkpt>
      <trkpt lat="45.92206" lon="4.75344">
        <ele>177</ele>
        <time>2016-08-25T10:36:12Z</time>
      </trkpt>
      <trkpt lat="45.92208" lon="4.75336">
        <ele>177</ele>
        <time>2016-08-25T10:36:13Z</time>
      </trkpt>
      <trkpt lat="45.9221" lon="4.75328">
        <ele>176</ele>
        <time>2016-08-25T10:36:14Z</time>
      </trkpt>
      <trkpt lat="45.92211" lon="4.75319">
        <ele>176</ele>
        <time>2016-08-25T10:36:15Z</time>
      </trkpt>
      <trkpt lat="45.92212" lon="4.75311">
        <ele>176</ele>
        <time>2016-08-25T10:36:16Z</time>
      </trkpt>
      <trkpt lat="45.92213" lon="4.75303">
        <ele>176</ele>
        <time>2016-08-25T10:36:17Z</time>
      </trkpt>
      <trkpt lat="45.92213" lon="4.75295">
        <ele>176</ele>
        <time>2016-08-25T10:36:18Z</time>
      </trkpt>
      <trkpt lat="45.92213" lon="4.75286">
        <ele>176</ele>
        <time>2016-08-25T10:36:19Z</time>
      </trkpt>
      <trkpt lat="45.92214" lon="4.75277">
        <ele>176</ele>
        <time>2016-08-25T10:36:20Z</time>
      </trkpt>
      <trkpt lat="45.92214" lon="4.75269">
        <ele>176</ele>
        <time>2016-08-25T10:36:21Z</time>
      </trkpt>
      <trkpt lat="45.92214" lon="4.7526">
        <ele>176</ele>
        <time>2016-08-25T10:36:22Z</time>
      </trkpt>
      <trkpt lat="45.92214" lon="4.75251">
        <ele>175</ele>
        <time>2016-08-25T10:36:23Z</time>
      </trkpt>
      <trkpt lat="45.92215" lon="4.75242">
        <ele>175</ele>
        <time>2016-08-25T10:36:24Z</time>
      </trkpt>
      <trkpt lat="45.92215" lon="4.75233">
        <ele>175</ele>
        <time>2016-08-25T10:36:25Z</time>
      </trkpt>
      <trkpt lat="45.92216" lon="4.75224">
        <ele>175</ele>
        <time>2016-08-25T10:36:26Z</time>
      </trkpt>
      <trkpt lat="45.92216" lon="4.75215">
        <ele>175</ele>
        <time>2016-08-25T10:36:27Z</time>
      </trkpt>
      <trkpt lat="45.92217" lon="4.75206">
        <ele>175</ele>
        <time>2016-08-25T10:36:28Z</time>
      </trkpt>
      <trkpt lat="45.92219" lon="4.75197">
        <ele>175</ele>
        <time>2016-08-25T10:36:29Z</time>
      </trkpt>
      <trkpt lat="45.92222" lon="4.75188">
        <ele>175</ele>
        <time>2016-08-25T10:36:30Z</time>
      </trkpt>
      <trkpt lat="45.92224" lon="4.7518">
        <ele>175</ele>
        <time>2016-08-25T10:36:31Z</time>
      </trkpt>
      <trkpt lat="45.92227" lon="4.75171">
        <ele>175</ele>
        <time>2016-08-25T10:36:32Z</time>
      </trkpt>
      <trkpt lat="45.92231" lon="4.75163">
        <ele>174</ele>
        <time>2016-08-25T10:36:33Z</time>
      </trkpt>
      <trkpt lat="45.92235" lon="4.75155">
        <ele>174</ele>
        <time>2016-08-25T10:36:34Z</time>
      </trkpt>
      <trkpt lat="45.92238" lon="4.75148">
        <ele>174</ele>
        <time>2016-08-25T10:36:35Z</time>
      </trkpt>
      <trkpt lat="45.92243" lon="4.75141">
        <ele>174</ele>
        <time>2016-08-25T10:36:36Z</time>
      </trkpt>
      <trkpt lat="45.92248" lon="4.75135">
        <ele>174</ele>
        <time>2016-08-25T10:36:37Z</time>
      </trkpt>
      <trkpt lat="45.92252" lon="4.75129">
        <ele>174</ele>
        <time>2016-08-25T10:36:38Z</time>
      </trkpt>
      <trkpt lat="45.92257" lon="4.75123">
        <ele>174</ele>
        <time>2016-08-25T10:36:39Z</time>
      </trkpt>
      <trkpt lat="45.92261" lon="4.75117">
        <ele>174</ele>
        <time>2016-08-25T10:36:40Z</time>
      </trkpt>
      <trkpt lat="45.92266" lon="4.75111">
        <ele>174</ele>
        <time>2016-08-25T10:36:41Z</time>
      </trkpt>
      <trkpt lat="45.92271" lon="4.75106">
        <ele>174</ele>
        <time>2016-08-25T10:36:42Z</time>
      </trkpt>
      <trkpt lat="45.92277" lon="4.751">
        <ele>173</ele>
        <time>2016-08-25T10:36:43Z</time>
      </trkpt>
      <trkpt lat="45.92282" lon="4.75094">
        <ele>173</ele>
        <time>2016-08-25T10:36:44Z</time>
      </trkpt>
      <trkpt lat="45.92288" lon="4.75087">
        <ele>173</ele>
        <time>2016-08-25T10:36:45Z</time>
      </trkpt>
      <trkpt lat="45.92294" lon="4.75081">
        <ele>172</ele>
        <time>2016-08-25T10:36:46Z</time>
      </trkpt>
      <trkpt lat="45.92299" lon="4.75075">
        <ele>172</ele>
        <time>2016-08-25T10:36:47Z</time>
      </trkpt>
      <trkpt lat="45.92305" lon="4.75068">
        <ele>172</ele>
        <time>2016-08-25T10:36:48Z</time>
      </trkpt>
      <trkpt lat="45.9231" lon="4.75061">
        <ele>172</ele>
        <time>2016-08-25T10:36:49Z</time>
      </trkpt>
      <trkpt lat="45.92315" lon="4.75054">
        <ele>172</ele>
        <time>2016-08-25T10:36:50Z</time>
      </trkpt>
      <trkpt lat="45.92319" lon="4.75047">
        <ele>172</ele>
        <time>2016-08-25T10:36:51Z</time>
      </trkpt>
      <trkpt lat="45.92323" lon="4.7504">
        <ele>171</ele>
        <time>2016-08-25T10:36:52Z</time>
      </trkpt>
      <trkpt lat="45.92327" lon="4.75033">
        <ele>171</ele>
        <time>2016-08-25T10:36:53Z</time>
      </trkpt>
      <trkpt lat="45.92331" lon="4.75026">
        <ele>171</ele>
        <time>2016-08-25T10:36:54Z</time>
      </trkpt>
      <trkpt lat="45.92334" lon="4.75019">
        <ele>170</ele>
        <time>2016-08-25T10:36:55Z</time>
      </trkpt>
      <trkpt lat="45.92338" lon="4.75012">
        <ele>170</ele>
        <time>2016-08-25T10:36:56Z</time>
      </trkpt>
      <trkpt lat="45.92341" lon="4.75004">
        <ele>170</ele>
        <time>2016-08-25T10:36:57Z</time>
      </trkpt>
      <trkpt lat="45.92345" lon="4.74997">
        <ele>170</ele>
        <time>2016-08-25T10:36:58Z</time>
      </trkpt>
      <trkpt lat="45.92348" lon="4.74989">
        <ele>170</ele>
        <time>2016-08-25T10:36:59Z</time>
      </trkpt>
      <trkpt lat="45.92351" lon="4.7498">
        <ele>170</ele>
        <time>2016-08-25T10:37:00Z</time>
      </trkpt>
      <trkpt lat="45.92355" lon="4.74972">
        <ele>170</ele>
        <time>2016-08-25T10:37:01Z</time>
      </trkpt>
      <trkpt lat="45.92358" lon="4.74962">
        <ele>170</ele>
        <time>2016-08-25T10:37:02Z</time>
      </trkpt>
      <trkpt lat="45.92362" lon="4.74953">
        <ele>170</ele>
        <time>2016-08-25T10:37:03Z</time>
      </trkpt>
      <trkpt lat="45.92365" lon="4.74944">
        <ele>170</ele>
        <time>2016-08-25T10:37:04Z</time>
      </trkpt>
      <trkpt lat="45.92368" lon="4.74936">
        <ele>170</ele>
        <time>2016-08-25T10:37:05Z</time>
      </trkpt>
      <trkpt lat="45.92371" lon="4.74928">
        <ele>170</ele>
        <time>2016-08-25T10:37:06Z</time>
      </trkpt>
      <trkpt lat="45.92374" lon="4.7492">
        <ele>170</ele>
        <time>2016-08-25T10:37:07Z</time>
      </trkpt>
      <trkpt lat="45.92377" lon="4.74912">
        <ele>171</ele>
        <time>2016-08-25T10:37:08Z</time>
      </trkpt>
      <trkpt lat="45.9238" lon="4.74905">
        <ele>171</ele>
        <time>2016-08-25T10:37:09Z</time>
      </trkpt>
      <trkpt lat="45.92383" lon="4.74898">
        <ele>171</ele>
        <time>2016-08-25T10:37:10Z</time>
      </trkpt>
      <trkpt lat="45.92385" lon="4.74891">
        <ele>171</ele>
        <time>2016-08-25T10:37:11Z</time>
      </trkpt>
      <trkpt lat="45.92387" lon="4.74883">
        <ele>171</ele>
        <time>2016-08-25T10:37:12Z</time>
      </trkpt>
      <trkpt lat="45.9239" lon="4.74875">
        <ele>171</ele>
        <time>2016-08-25T10:37:13Z</time>
      </trkpt>
      <trkpt lat="45.92393" lon="4.74867">
        <ele>171</ele>
        <time>2016-08-25T10:37:14Z</time>
      </trkpt>
      <trkpt lat="45.92396" lon="4.74859">
        <ele>171</ele>
        <time>2016-08-25T10:37:15Z</time>
      </trkpt>
      <trkpt lat="45.92399" lon="4.74851">
        <ele>171</ele>
        <time>2016-08-25T10:37:16Z</time>
      </trkpt>
      <trkpt lat="45.92401" lon="4.74843">
        <ele>171</ele>
        <time>2016-08-25T10:37:17Z</time>
      </trkpt>
      <trkpt lat="45.92404" lon="4.74834">
        <ele>171</ele>
        <time>2016-08-25T10:37:18Z</time>
      </trkpt>
      <trkpt lat="45.92406" lon="4.74825">
        <ele>171</ele>
        <time>2016-08-25T10:37:19Z</time>
      </trkpt>
      <trkpt lat="45.92408" lon="4.74816">
        <ele>171</ele>
        <time>2016-08-25T10:37:20Z</time>
      </trkpt>
      <trkpt lat="45.9241" lon="4.74808">
        <ele>171</ele>
        <time>2016-08-25T10:37:21Z</time>
      </trkpt>
      <trkpt lat="45.92412" lon="4.74799">
        <ele>171</ele>
        <time>2016-08-25T10:37:22Z</time>
      </trkpt>
      <trkpt lat="45.92414" lon="4.74791">
        <ele>171</ele>
        <time>2016-08-25T10:37:23Z</time>
      </trkpt>
      <trkpt lat="45.92415" lon="4.74783">
        <ele>171</ele>
        <time>2016-08-25T10:37:24Z</time>
      </trkpt>
      <trkpt lat="45.92417" lon="4.74775">
        <ele>171</ele>
        <time>2016-08-25T10:37:25Z</time>
      </trkpt>
      <trkpt lat="45.92419" lon="4.74767">
        <ele>171</ele>
        <time>2016-08-25T10:37:26Z</time>
      </trkpt>
      <trkpt lat="45.92421" lon="4.74759">
        <ele>171</ele>
        <time>2016-08-25T10:37:27Z</time>
      </trkpt>
      <trkpt lat="45.92423" lon="4.74752">
        <ele>172</ele>
        <time>2016-08-25T10:37:28Z</time>
      </trkpt>
      <trkpt lat="45.92426" lon="4.74744">
        <ele>172</ele>
        <time>2016-08-25T10:37:29Z</time>
      </trkpt>
      <trkpt lat="45.92428" lon="4.74736">
        <ele>171</ele>
        <time>2016-08-25T10:37:30Z</time>
      </trkpt>
      <trkpt lat="45.92431" lon="4.74728">
        <ele>171</ele>
        <time>2016-08-25T10:37:31Z</time>
      </trkpt>
      <trkpt lat="45.92434" lon="4.7472">
        <ele>171</ele>
        <time>2016-08-25T10:37:32Z</time>
      </trkpt>
      <trkpt lat="45.92437" lon="4.74712">
        <ele>171</ele>
        <time>2016-08-25T10:37:33Z</time>
      </trkpt>
      <trkpt lat="45.9244" lon="4.74704">
        <ele>171</ele>
        <time>2016-08-25T10:37:34Z</time>
      </trkpt>
      <trkpt lat="45.92443" lon="4.74696">
        <ele>171</ele>
        <time>2016-08-25T10:37:35Z</time>
      </trkpt>
      <trkpt lat="45.92446" lon="4.74688">
        <ele>171</ele>
        <time>2016-08-25T10:37:36Z</time>
      </trkpt>
      <trkpt lat="45.9245" lon="4.74681">
        <ele>171</ele>
        <time>2016-08-25T10:37:37Z</time>
      </trkpt>
      <trkpt lat="45.92453" lon="4.74674">
        <ele>171</ele>
        <time>2016-08-25T10:37:38Z</time>
      </trkpt>
      <trkpt lat="45.92456" lon="4.74667">
        <ele>171</ele>
        <time>2016-08-25T10:37:39Z</time>
      </trkpt>
      <trkpt lat="45.9246" lon="4.7466">
        <ele>171</ele>
        <time>2016-08-25T10:37:40Z</time>
      </trkpt>
      <trkpt lat="45.92463" lon="4.74655">
        <ele>171</ele>
        <time>2016-08-25T10:37:41Z</time>
      </trkpt>
      <trkpt lat="45.92466" lon="4.74649">
        <ele>171</ele>
        <time>2016-08-25T10:37:42Z</time>
      </trkpt>
      <trkpt lat="45.92471" lon="4.74642">
        <ele>171</ele>
        <time>2016-08-25T10:37:43Z</time>
      </trkpt>
      <trkpt lat="45.92475" lon="4.74635">
        <ele>171</ele>
        <time>2016-08-25T10:37:44Z</time>
      </trkpt>
      <trkpt lat="45.9248" lon="4.74628">
        <ele>171</ele>
        <time>2016-08-25T10:37:45Z</time>
      </trkpt>
      <trkpt lat="45.92485" lon="4.7462">
        <ele>171</ele>
        <time>2016-08-25T10:37:46Z</time>
      </trkpt>
      <trkpt lat="45.92491" lon="4.74614">
        <ele>171</ele>
        <time>2016-08-25T10:37:47Z</time>
      </trkpt>
      <trkpt lat="45.92496" lon="4.74607">
        <ele>171</ele>
        <time>2016-08-25T10:37:48Z</time>
      </trkpt>
      <trkpt lat="45.92501" lon="4.74601">
        <ele>171</ele>
        <time>2016-08-25T10:37:49Z</time>
      </trkpt>
      <trkpt lat="45.92507" lon="4.74595">
        <ele>171</ele>
        <time>2016-08-25T10:37:50Z</time>
      </trkpt>
      <trkpt lat="45.92512" lon="4.74589">
        <ele>171</ele>
        <time>2016-08-25T10:37:51Z</time>
      </trkpt>
      <trkpt lat="45.92517" lon="4.74583">
        <ele>171</ele>
        <time>2016-08-25T10:37:52Z</time>
      </trkpt>
      <trkpt lat="45.92522" lon="4.74577">
        <ele>171</ele>
        <time>2016-08-25T10:37:53Z</time>
      </trkpt>
      <trkpt lat="45.92527" lon="4.74571">
        <ele>171</ele>
        <time>2016-08-25T10:37:54Z</time>
      </trkpt>
      <trkpt lat="45.92531" lon="4.74565">
        <ele>171</ele>
        <time>2016-08-25T10:37:55Z</time>
      </trkpt>
      <trkpt lat="45.92536" lon="4.74558">
        <ele>171</ele>
        <time>2016-08-25T10:37:56Z</time>
      </trkpt>
      <trkpt lat="45.9254" lon="4.74552">
        <ele>171</ele>
        <time>2016-08-25T10:37:57Z</time>
      </trkpt>
      <trkpt lat="45.92544" lon="4.74545">
        <ele>170</ele>
        <time>2016-08-25T10:37:58Z</time>
      </trkpt>
      <trkpt lat="45.92549" lon="4.74538">
        <ele>170</ele>
        <time>2016-08-25T10:37:59Z</time>
      </trkpt>
      <trkpt lat="45.92553" lon="4.74531">
        <ele>170</ele>
        <time>2016-08-25T10:38:00Z</time>
      </trkpt>
      <trkpt lat="45.92557" lon="4.74523">
        <ele>170</ele>
        <time>2016-08-25T10:38:01Z</time>
      </trkpt>
      <trkpt lat="45.92561" lon="4.74516">
        <ele>170</ele>
        <time>2016-08-25T10:38:02Z</time>
      </trkpt>
      <trkpt lat="45.92565" lon="4.74508">
        <ele>170</ele>
        <time>2016-08-25T10:38:03Z</time>
      </trkpt>
      <trkpt lat="45.9257" lon="4.745">
        <ele>170</ele>
        <time>2016-08-25T10:38:04Z</time>
      </trkpt>
      <trkpt lat="45.92574" lon="4.74493">
        <ele>170</ele>
        <time>2016-08-25T10:38:05Z</time>
      </trkpt>
      <trkpt lat="45.92578" lon="4.74485">
        <ele>170</ele>
        <time>2016-08-25T10:38:06Z</time>
      </trkpt>
      <trkpt lat="45.92582" lon="4.74478">
        <ele>170</ele>
        <time>2016-08-25T10:38:07Z</time>
      </trkpt>
      <trkpt lat="45.92586" lon="4.74471">
        <ele>170</ele>
        <time>2016-08-25T10:38:08Z</time>
      </trkpt>
      <trkpt lat="45.92589" lon="4.74464">
        <ele>170</ele>
        <time>2016-08-25T10:38:09Z</time>
      </trkpt>
      <trkpt lat="45.92593" lon="4.74457">
        <ele>170</ele>
        <time>2016-08-25T10:38:10Z</time>
      </trkpt>
      <trkpt lat="45.92597" lon="4.7445">
        <ele>170</ele>
        <time>2016-08-25T10:38:11Z</time>
      </trkpt>
      <trkpt lat="45.926" lon="4.74444">
        <ele>170</ele>
        <time>2016-08-25T10:38:12Z</time>
      </trkpt>
      <trkpt lat="45.92604" lon="4.74438">
        <ele>170</ele>
        <time>2016-08-25T10:38:13Z</time>
      </trkpt>
      <trkpt lat="45.92608" lon="4.74431">
        <ele>170</ele>
        <time>2016-08-25T10:38:14Z</time>
      </trkpt>
      <trkpt lat="45.92612" lon="4.74424">
        <ele>170</ele>
        <time>2016-08-25T10:38:15Z</time>
      </trkpt>
      <trkpt lat="45.92615" lon="4.74417">
        <ele>170</ele>
        <time>2016-08-25T10:38:16Z</time>
      </trkpt>
      <trkpt lat="45.92619" lon="4.7441">
        <ele>170</ele>
        <time>2016-08-25T10:38:17Z</time>
      </trkpt>
      <trkpt lat="45.92623" lon="4.74402">
        <ele>170</ele>
        <time>2016-08-25T10:38:18Z</time>
      </trkpt>
      <trkpt lat="45.92627" lon="4.74395">
        <ele>170</ele>
        <time>2016-08-25T10:38:19Z</time>
      </trkpt>
      <trkpt lat="45.92631" lon="4.74387">
        <ele>170</ele>
        <time>2016-08-25T10:38:20Z</time>
      </trkpt>
      <trkpt lat="45.92635" lon="4.7438">
        <ele>170</ele>
        <time>2016-08-25T10:38:21Z</time>
      </trkpt>
      <trkpt lat="45.92639" lon="4.74372">
        <ele>171</ele>
        <time>2016-08-25T10:38:22Z</time>
      </trkpt>
      <trkpt lat="45.92643" lon="4.74366">
        <ele>171</ele>
        <time>2016-08-25T10:38:23Z</time>
      </trkpt>
      <trkpt lat="45.92646" lon="4.74359">
        <ele>171</ele>
        <time>2016-08-25T10:38:24Z</time>
      </trkpt>
      <trkpt lat="45.92649" lon="4.74353">
        <ele>171</ele>
        <time>2016-08-25T10:38:25Z</time>
      </trkpt>
      <trkpt lat="45.92653" lon="4.74347">
        <ele>171</ele>
        <time>2016-08-25T10:38:26Z</time>
      </trkpt>
      <trkpt lat="45.92656" lon="4.74342">
        <ele>171</ele>
        <time>2016-08-25T10:38:27Z</time>
      </trkpt>
      <trkpt lat="45.92659" lon="4.74336">
        <ele>171</ele>
        <time>2016-08-25T10:38:28Z</time>
      </trkpt>
      <trkpt lat="45.92662" lon="4.74331">
        <ele>171</ele>
        <time>2016-08-25T10:38:29Z</time>
      </trkpt>
      <trkpt lat="45.92665" lon="4.74325">
        <ele>171</ele>
        <time>2016-08-25T10:38:30Z</time>
      </trkpt>
      <trkpt lat="45.92668" lon="4.74319">
        <ele>171</ele>
        <time>2016-08-25T10:38:31Z</time>
      </trkpt>
      <trkpt lat="45.92671" lon="4.74313">
        <ele>171</ele>
        <time>2016-08-25T10:38:32Z</time>
      </trkpt>
      <trkpt lat="45.92674" lon="4.74307">
        <ele>171</ele>
        <time>2016-08-25T10:38:33Z</time>
      </trkpt>
      <trkpt lat="45.92678" lon="4.74301">
        <ele>171</ele>
        <time>2016-08-25T10:38:34Z</time>
      </trkpt>
      <trkpt lat="45.92681" lon="4.74295">
        <ele>171</ele>
        <time>2016-08-25T10:38:35Z</time>
      </trkpt>
      <trkpt lat="45.92685" lon="4.74289">
        <ele>171</ele>
        <time>2016-08-25T10:38:36Z</time>
      </trkpt>
      <trkpt lat="45.92688" lon="4.74282">
        <ele>171</ele>
        <time>2016-08-25T10:38:37Z</time>
      </trkpt>
      <trkpt lat="45.92692" lon="4.74276">
        <ele>171</ele>
        <time>2016-08-25T10:38:38Z</time>
      </trkpt>
      <trkpt lat="45.92695" lon="4.74269">
        <ele>171</ele>
        <time>2016-08-25T10:38:39Z</time>
      </trkpt>
      <trkpt lat="45.92699" lon="4.74262">
        <ele>171</ele>
        <time>2016-08-25T10:38:40Z</time>
      </trkpt>
      <trkpt lat="45.92703" lon="4.74255">
        <ele>171</ele>
        <time>2016-08-25T10:38:41Z</time>
      </trkpt>
      <trkpt lat="45.92707" lon="4.74249">
        <ele>171</ele>
        <time>2016-08-25T10:38:42Z</time>
      </trkpt>
      <trkpt lat="45.92712" lon="4.74242">
        <ele>171</ele>
        <time>2016-08-25T10:38:43Z</time>
      </trkpt>
      <trkpt lat="45.92716" lon="4.74235">
        <ele>171</ele>
        <time>2016-08-25T10:38:44Z</time>
      </trkpt>
      <trkpt lat="45.9272" lon="4.74229">
        <ele>171</ele>
        <time>2016-08-25T10:38:45Z</time>
      </trkpt>
      <trkpt lat="45.92725" lon="4.74223">
        <ele>171</ele>
        <time>2016-08-25T10:38:46Z</time>
      </trkpt>
      <trkpt lat="45.92729" lon="4.74217">
        <ele>171</ele>
        <time>2016-08-25T10:38:47Z</time>
      </trkpt>
      <trkpt lat="45.92733" lon="4.74211">
        <ele>171</ele>
        <time>2016-08-25T10:38:48Z</time>
      </trkpt>
      <trkpt lat="45.92737" lon="4.74205">
        <ele>171</ele>
        <time>2016-08-25T10:38:49Z</time>
      </trkpt>
      <trkpt lat="45.92742" lon="4.74199">
        <ele>171</ele>
        <time>2016-08-25T10:38:50Z</time>
      </trkpt>
      <trkpt lat="45.92746" lon="4.74194">
        <ele>171</ele>
        <time>2016-08-25T10:38:51Z</time>
      </trkpt>
      <trkpt lat="45.9275" lon="4.74188">
        <ele>172</ele>
        <time>2016-08-25T10:38:52Z</time>
      </trkpt>
      <trkpt lat="45.92754" lon="4.74183">
        <ele>172</ele>
        <time>2016-08-25T10:38:53Z</time>
      </trkpt>
      <trkpt lat="45.92759" lon="4.74177">
        <ele>172</ele>
        <time>2016-08-25T10:38:54Z</time>
      </trkpt>
      <trkpt lat="45.92764" lon="4.74172">
        <ele>172</ele>
        <time>2016-08-25T10:38:55Z</time>
      </trkpt>
      <trkpt lat="45.92769" lon="4.74167">
        <ele>172</ele>
        <time>2016-08-25T10:38:56Z</time>
      </trkpt>
      <trkpt lat="45.92774" lon="4.74162">
        <ele>172</ele>
        <time>2016-08-25T10:38:57Z</time>
      </trkpt>
      <trkpt lat="45.92779" lon="4.74157">
        <ele>172</ele>
        <time>2016-08-25T10:38:58Z</time>
      </trkpt>
      <trkpt lat="45.92784" lon="4.74152">
        <ele>172</ele>
        <time>2016-08-25T10:38:59Z</time>
      </trkpt>
      <trkpt lat="45.92788" lon="4.74148">
        <ele>172</ele>
        <time>2016-08-25T10:39:00Z</time>
      </trkpt>
      <trkpt lat="45.92793" lon="4.74143">
        <ele>172</ele>
        <time>2016-08-25T10:39:01Z</time>
      </trkpt>
      <trkpt lat="45.92797" lon="4.74138">
        <ele>172</ele>
        <time>2016-08-25T10:39:02Z</time>
      </trkpt>
      <trkpt lat="45.92801" lon="4.74133">
        <ele>172</ele>
        <time>2016-08-25T10:39:03Z</time>
      </trkpt>
      <trkpt lat="45.92806" lon="4.74128">
        <ele>172</ele>
        <time>2016-08-25T10:39:04Z</time>
      </trkpt>
      <trkpt lat="45.9281" lon="4.74124">
        <ele>172</ele>
        <time>2016-08-25T10:39:05Z</time>
      </trkpt>
      <trkpt lat="45.92815" lon="4.74119">
        <ele>172</ele>
        <time>2016-08-25T10:39:06Z</time>
      </trkpt>
      <trkpt lat="45.92819" lon="4.74114">
        <ele>172</ele>
        <time>2016-08-25T10:39:07Z</time>
      </trkpt>
      <trkpt lat="45.92824" lon="4.74109">
        <ele>171</ele>
        <time>2016-08-25T10:39:08Z</time>
      </trkpt>
      <trkpt lat="45.92828" lon="4.74104">
        <ele>171</ele>
        <time>2016-08-25T10:39:09Z</time>
      </trkpt>
      <trkpt lat="45.92833" lon="4.74099">
        <ele>171</ele>
        <time>2016-08-25T10:39:10Z</time>
      </trkpt>
      <trkpt lat="45.92837" lon="4.74094">
        <ele>171</ele>
        <time>2016-08-25T10:39:11Z</time>
      </trkpt>
      <trkpt lat="45.92842" lon="4.74089">
        <ele>171</ele>
        <time>2016-08-25T10:39:12Z</time>
      </trkpt>
      <trkpt lat="45.92846" lon="4.74084">
        <ele>171</ele>
        <time>2016-08-25T10:39:13Z</time>
      </trkpt>
      <trkpt lat="45.92849" lon="4.74079">
        <ele>172</ele>
        <time>2016-08-25T10:39:14Z</time>
      </trkpt>
      <trkpt lat="45.92853" lon="4.74075">
        <ele>172</ele>
        <time>2016-08-25T10:39:15Z</time>
      </trkpt>
      <trkpt lat="45.92857" lon="4.7407">
        <ele>172</ele>
        <time>2016-08-25T10:39:16Z</time>
      </trkpt>
      <trkpt lat="45.92861" lon="4.74065">
        <ele>172</ele>
        <time>2016-08-25T10:39:17Z</time>
      </trkpt>
      <trkpt lat="45.92865" lon="4.74061">
        <ele>172</ele>
        <time>2016-08-25T10:39:18Z</time>
      </trkpt>
      <trkpt lat="45.92869" lon="4.74056">
        <ele>172</ele>
        <time>2016-08-25T10:39:19Z</time>
      </trkpt>
      <trkpt lat="45.92874" lon="4.74051">
        <ele>172</ele>
        <time>2016-08-25T10:39:20Z</time>
      </trkpt>
      <trkpt lat="45.9288" lon="4.74048">
        <ele>172</ele>
        <time>2016-08-25T10:39:21Z</time>
      </trkpt>
      <trkpt lat="45.92885" lon="4.74046">
        <ele>172</ele>
        <time>2016-08-25T10:39:22Z</time>
      </trkpt>
      <trkpt lat="45.92891" lon="4.74044">
        <ele>172</ele>
        <time>2016-08-25T10:39:23Z</time>
      </trkpt>
      <trkpt lat="45.92897" lon="4.74043">
        <ele>172</ele>
        <time>2016-08-25T10:39:24Z</time>
      </trkpt>
      <trkpt lat="45.92901" lon="4.74042">
        <ele>172</ele>
        <time>2016-08-25T10:39:25Z</time>
      </trkpt>
      <trkpt lat="45.92906" lon="4.7404">
        <ele>172</ele>
        <time>2016-08-25T10:39:26Z</time>
      </trkpt>
      <trkpt lat="45.9291" lon="4.74036">
        <ele>172</ele>
        <time>2016-08-25T10:39:27Z</time>
      </trkpt>
      <trkpt lat="45.92914" lon="4.7403">
        <ele>172</ele>
        <time>2016-08-25T10:39:28Z</time>
      </trkpt>
      <trkpt lat="45.92917" lon="4.74023">
        <ele>172</ele>
        <time>2016-08-25T10:39:29Z</time>
      </trkpt>
      <trkpt lat="45.92917" lon="4.74015">
        <ele>172</ele>
        <time>2016-08-25T10:39:30Z</time>
      </trkpt>
      <trkpt lat="45.92917" lon="4.74007">
        <ele>172</ele>
        <time>2016-08-25T10:39:31Z</time>
      </trkpt>
      <trkpt lat="45.92914" lon="4.73999">
        <ele>172</ele>
        <time>2016-08-25T10:39:32Z</time>
      </trkpt>
      <trkpt lat="45.9291" lon="4.73993">
        <ele>172</ele>
        <time>2016-08-25T10:39:33Z</time>
      </trkpt>
      <trkpt lat="45.92905" lon="4.73988">
        <ele>172</ele>
        <time>2016-08-25T10:39:34Z</time>
      </trkpt>
      <trkpt lat="45.929" lon="4.73983">
        <ele>172</ele>
        <time>2016-08-25T10:39:35Z</time>
      </trkpt>
      <trkpt lat="45.92895" lon="4.73978">
        <ele>172</ele>
        <time>2016-08-25T10:39:36Z</time>
      </trkpt>
      <trkpt lat="45.92891" lon="4.73971">
        <ele>172</ele>
        <time>2016-08-25T10:39:37Z</time>
      </trkpt>
      <trkpt lat="45.92889" lon="4.73963">
        <ele>172</ele>
        <time>2016-08-25T10:39:38Z</time>
      </trkpt>
      <trkpt lat="45.92887" lon="4.73954">
        <ele>172</ele>
        <time>2016-08-25T10:39:39Z</time>
      </trkpt>
      <trkpt lat="45.92886" lon="4.73944">
        <ele>172</ele>
        <time>2016-08-25T10:39:40Z</time>
      </trkpt>
      <trkpt lat="45.92885" lon="4.73934">
        <ele>172</ele>
        <time>2016-08-25T10:39:41Z</time>
      </trkpt>
      <trkpt lat="45.92884" lon="4.73924">
        <ele>172</ele>
        <time>2016-08-25T10:39:42Z</time>
      </trkpt>
      <trkpt lat="45.92883" lon="4.73914">
        <ele>173</ele>
        <time>2016-08-25T10:39:43Z</time>
      </trkpt>
      <trkpt lat="45.92882" lon="4.73904">
        <ele>173</ele>
        <time>2016-08-25T10:39:44Z</time>
      </trkpt>
      <trkpt lat="45.92881" lon="4.73894">
        <ele>173</ele>
        <time>2016-08-25T10:39:45Z</time>
      </trkpt>
      <trkpt lat="45.92879" lon="4.73884">
        <ele>173</ele>
        <time>2016-08-25T10:39:46Z</time>
      </trkpt>
      <trkpt lat="45.92877" lon="4.73875">
        <ele>173</ele>
        <time>2016-08-25T10:39:47Z</time>
      </trkpt>
      <trkpt lat="45.92874" lon="4.73866">
        <ele>173</ele>
        <time>2016-08-25T10:39:48Z</time>
      </trkpt>
      <trkpt lat="45.92872" lon="4.73857">
        <ele>173</ele>
        <time>2016-08-25T10:39:49Z</time>
      </trkpt>
      <trkpt lat="45.9287" lon="4.73848">
        <ele>173</ele>
        <time>2016-08-25T10:39:50Z</time>
      </trkpt>
      <trkpt lat="45.92868" lon="4.73839">
        <ele>173</ele>
        <time>2016-08-25T10:39:51Z</time>
      </trkpt>
      <trkpt lat="45.92865" lon="4.73831">
        <ele>173</ele>
        <time>2016-08-25T10:39:52Z</time>
      </trkpt>
      <trkpt lat="45.92862" lon="4.73823">
        <ele>173</ele>
        <time>2016-08-25T10:39:53Z</time>
      </trkpt>
      <trkpt lat="45.92858" lon="4.73816">
        <ele>173</ele>
        <time>2016-08-25T10:39:54Z</time>
      </trkpt>
      <trkpt lat="45.92855" lon="4.73808">
        <ele>173</ele>
        <time>2016-08-25T10:39:55Z</time>
      </trkpt>
      <trkpt lat="45.92852" lon="4.738">
        <ele>173</ele>
        <time>2016-08-25T10:39:56Z</time>
      </trkpt>
      <trkpt lat="45.92849" lon="4.73793">
        <ele>173</ele>
        <time>2016-08-25T10:39:57Z</time>
      </trkpt>
      <trkpt lat="45.92844" lon="4.73787">
        <ele>173</ele>
        <time>2016-08-25T10:39:58Z</time>
      </trkpt>
      <trkpt lat="45.92839" lon="4.73783">
        <ele>173</ele>
        <time>2016-08-25T10:39:59Z</time>
      </trkpt>
      <trkpt lat="45.92833" lon="4.73779">
        <ele>173</ele>
        <time>2016-08-25T10:40:00Z</time>
      </trkpt>
      <trkpt lat="45.92828" lon="4.73775">
        <ele>173</ele>
        <time>2016-08-25T10:40:01Z</time>
      </trkpt>
      <trkpt lat="45.92822" lon="4.73771">
        <ele>173</ele>
        <time>2016-08-25T10:40:02Z</time>
      </trkpt>
      <trkpt lat="45.92816" lon="4.73768">
        <ele>173</ele>
        <time>2016-08-25T10:40:03Z</time>
      </trkpt>
      <trkpt lat="45.92811" lon="4.73766">
        <ele>173</ele>
        <time>2016-08-25T10:40:04Z</time>
      </trkpt>
      <trkpt lat="45.92806" lon="4.73763">
        <ele>173</ele>
        <time>2016-08-25T10:40:05Z</time>
      </trkpt>
      <trkpt lat="45.92802" lon="4.73761">
        <ele>173</ele>
        <time>2016-08-25T10:40:06Z</time>
      </trkpt>
      <trkpt lat="45.92795" lon="4.73756">
        <ele>173</ele>
        <time>2016-08-25T10:40:08Z</time>
      </trkpt>
      <trkpt lat="45.92792" lon="4.73754">
        <ele>173</ele>
        <time>2016-08-25T10:40:09Z</time>
      </trkpt>
      <trkpt lat="45.92786" lon="4.73746">
        <ele>172</ele>
        <time>2016-08-25T10:40:11Z</time>
      </trkpt>
      <trkpt lat="45.92784" lon="4.73741">
        <ele>172</ele>
        <time>2016-08-25T10:40:12Z</time>
      </trkpt>
      <trkpt lat="45.92778" lon="4.73733">
        <ele>172</ele>
        <time>2016-08-25T10:40:14Z</time>
      </trkpt>
      <trkpt lat="45.92774" lon="4.73729">
        <ele>172</ele>
        <time>2016-08-25T10:40:15Z</time>
      </trkpt>
      <trkpt lat="45.92766" lon="4.73726">
        <ele>172</ele>
        <time>2016-08-25T10:40:17Z</time>
      </trkpt>
      <trkpt lat="45.9276" lon="4.73725">
        <ele>172</ele>
        <time>2016-08-25T10:40:18Z</time>
      </trkpt>
      <trkpt lat="45.92756" lon="4.73724">
        <ele>172</ele>
        <time>2016-08-25T10:40:19Z</time>
      </trkpt>
      <trkpt lat="45.92749" lon="4.73723">
        <ele>173</ele>
        <time>2016-08-25T10:40:20Z</time>
      </trkpt>
      <trkpt lat="45.92742" lon="4.73722">
        <ele>173</ele>
        <time>2016-08-25T10:40:21Z</time>
      </trkpt>
      <trkpt lat="45.92736" lon="4.73721">
        <ele>173</ele>
        <time>2016-08-25T10:40:22Z</time>
      </trkpt>
      <trkpt lat="45.92731" lon="4.7372">
        <ele>173</ele>
        <time>2016-08-25T10:40:23Z</time>
      </trkpt>
      <trkpt lat="45.92726" lon="4.73718">
        <ele>173</ele>
        <time>2016-08-25T10:40:24Z</time>
      </trkpt>
      <trkpt lat="45.9272" lon="4.73717">
        <ele>173</ele>
        <time>2016-08-25T10:40:25Z</time>
      </trkpt>
      <trkpt lat="45.92715" lon="4.73715">
        <ele>173</ele>
        <time>2016-08-25T10:40:26Z</time>
      </trkpt>
      <trkpt lat="45.92709" lon="4.73714">
        <ele>173</ele>
        <time>2016-08-25T10:40:27Z</time>
      </trkpt>
      <trkpt lat="45.92704" lon="4.73712">
        <ele>173</ele>
        <time>2016-08-25T10:40:28Z</time>
      </trkpt>
      <trkpt lat="45.92699" lon="4.73711">
        <ele>173</ele>
        <time>2016-08-25T10:40:29Z</time>
      </trkpt>
      <trkpt lat="45.92694" lon="4.7371">
        <ele>173</ele>
        <time>2016-08-25T10:40:30Z</time>
      </trkpt>
      <trkpt lat="45.92689" lon="4.73709">
        <ele>173</ele>
        <time>2016-08-25T10:40:31Z</time>
      </trkpt>
      <trkpt lat="45.92684" lon="4.73708">
        <ele>173</ele>
        <time>2016-08-25T10:40:32Z</time>
      </trkpt>
      <trkpt lat="45.92679" lon="4.73706">
        <ele>173</ele>
        <time>2016-08-25T10:40:33Z</time>
      </trkpt>
      <trkpt lat="45.92673" lon="4.73704">
        <ele>174</ele>
        <time>2016-08-25T10:40:34Z</time>
      </trkpt>
      <trkpt lat="45.92668" lon="4.73702">
        <ele>174</ele>
        <time>2016-08-25T10:40:35Z</time>
      </trkpt>
      <trkpt lat="45.92664" lon="4.73698">
        <ele>173</ele>
        <time>2016-08-25T10:40:36Z</time>
      </trkpt>
      <trkpt lat="45.9266" lon="4.73694">
        <ele>173</ele>
        <time>2016-08-25T10:40:37Z</time>
      </trkpt>
      <trkpt lat="45.92656" lon="4.73689">
        <ele>173</ele>
        <time>2016-08-25T10:40:38Z</time>
      </trkpt>
      <trkpt lat="45.92652" lon="4.73684">
        <ele>173</ele>
        <time>2016-08-25T10:40:39Z</time>
      </trkpt>
      <trkpt lat="45.92648" lon="4.73679">
        <ele>173</ele>
        <time>2016-08-25T10:40:40Z</time>
      </trkpt>
      <trkpt lat="45.92645" lon="4.73673">
        <ele>173</ele>
        <time>2016-08-25T10:40:41Z</time>
      </trkpt>
      <trkpt lat="45.92641" lon="4.73667">
        <ele>173</ele>
        <time>2016-08-25T10:40:42Z</time>
      </trkpt>
      <trkpt lat="45.92637" lon="4.73661">
        <ele>173</ele>
        <time>2016-08-25T10:40:43Z</time>
      </trkpt>
      <trkpt lat="45.92634" lon="4.73654">
        <ele>173</ele>
        <time>2016-08-25T10:40:44Z</time>
      </trkpt>
      <trkpt lat="45.92631" lon="4.73647">
        <ele>173</ele>
        <time>2016-08-25T10:40:45Z</time>
      </trkpt>
      <trkpt lat="45.92627" lon="4.7364">
        <ele>173</ele>
        <time>2016-08-25T10:40:46Z</time>
      </trkpt>
      <trkpt lat="45.92624" lon="4.73635">
        <ele>173</ele>
        <time>2016-08-25T10:40:47Z</time>
      </trkpt>
      <trkpt lat="45.92619" lon="4.73629">
        <ele>173</ele>
        <time>2016-08-25T10:40:48Z</time>
      </trkpt>
      <trkpt lat="45.92613" lon="4.73626">
        <ele>173</ele>
        <time>2016-08-25T10:40:49Z</time>
      </trkpt>
      <trkpt lat="45.92608" lon="4.73624">
        <ele>173</ele>
        <time>2016-08-25T10:40:50Z</time>
      </trkpt>
      <trkpt lat="45.92602" lon="4.73623">
        <ele>173</ele>
        <time>2016-08-25T10:40:51Z</time>
      </trkpt>
      <trkpt lat="45.92596" lon="4.73623">
        <ele>173</ele>
        <time>2016-08-25T10:40:52Z</time>
      </trkpt>
      <trkpt lat="45.9259" lon="4.73624">
        <ele>173</ele>
        <time>2016-08-25T10:40:53Z</time>
      </trkpt>
      <trkpt lat="45.92585" lon="4.73625">
        <ele>172</ele>
        <time>2016-08-25T10:40:54Z</time>
      </trkpt>
      <trkpt lat="45.9258" lon="4.73626">
        <ele>173</ele>
        <time>2016-08-25T10:40:55Z</time>
      </trkpt>
      <trkpt lat="45.92574" lon="4.73628">
        <ele>173</ele>
        <time>2016-08-25T10:40:56Z</time>
      </trkpt>
      <trkpt lat="45.92569" lon="4.73631">
        <ele>173</ele>
        <time>2016-08-25T10:40:57Z</time>
      </trkpt>
      <trkpt lat="45.92564" lon="4.73632">
        <ele>173</ele>
        <time>2016-08-25T10:40:58Z</time>
      </trkpt>
      <trkpt lat="45.92556" lon="4.73634">
        <ele>173</ele>
        <time>2016-08-25T10:40:59Z</time>
      </trkpt>
      <trkpt lat="45.9255" lon="4.73635">
        <ele>173</ele>
        <time>2016-08-25T10:41:00Z</time>
      </trkpt>
      <trkpt lat="45.92545" lon="4.73637">
        <ele>173</ele>
        <time>2016-08-25T10:41:01Z</time>
      </trkpt>
      <trkpt lat="45.9254" lon="4.73637">
        <ele>173</ele>
        <time>2016-08-25T10:41:02Z</time>
      </trkpt>
      <trkpt lat="45.92532" lon="4.73639">
        <ele>173</ele>
        <time>2016-08-25T10:41:04Z</time>
      </trkpt>
      <trkpt lat="45.92528" lon="4.73639">
        <ele>173</ele>
        <time>2016-08-25T10:41:05Z</time>
      </trkpt>
      <trkpt lat="45.92519" lon="4.7364">
        <ele>173</ele>
        <time>2016-08-25T10:41:07Z</time>
      </trkpt>
      <trkpt lat="45.92516" lon="4.7364">
        <ele>174</ele>
        <time>2016-08-25T10:41:08Z</time>
      </trkpt>
      <trkpt lat="45.92508" lon="4.7364">
        <ele>174</ele>
        <time>2016-08-25T10:41:10Z</time>
      </trkpt>
      <trkpt lat="45.92503" lon="4.7364">
        <ele>174</ele>
        <time>2016-08-25T10:41:11Z</time>
      </trkpt>
      <trkpt lat="45.92495" lon="4.73641">
        <ele>174</ele>
        <time>2016-08-25T10:41:13Z</time>
      </trkpt>
      <trkpt lat="45.92491" lon="4.73641">
        <ele>174</ele>
        <time>2016-08-25T10:41:14Z</time>
      </trkpt>
      <trkpt lat="45.92483" lon="4.73641">
        <ele>174</ele>
        <time>2016-08-25T10:41:16Z</time>
      </trkpt>
      <trkpt lat="45.9248" lon="4.73642">
        <ele>174</ele>
        <time>2016-08-25T10:41:17Z</time>
      </trkpt>
      <trkpt lat="45.92473" lon="4.73645">
        <ele>174</ele>
        <time>2016-08-25T10:41:20Z</time>
      </trkpt>
      <trkpt lat="45.92471" lon="4.73648">
        <ele>174</ele>
        <time>2016-08-25T10:41:21Z</time>
      </trkpt>
      <trkpt lat="45.9247" lon="4.73657">
        <ele>174</ele>
        <time>2016-08-25T10:41:23Z</time>
      </trkpt>
      <trkpt lat="45.9247" lon="4.73662">
        <ele>174</ele>
        <time>2016-08-25T10:41:24Z</time>
      </trkpt>
      <trkpt lat="45.92468" lon="4.73672">
        <ele>174</ele>
        <time>2016-08-25T10:41:26Z</time>
      </trkpt>
      <trkpt lat="45.92467" lon="4.73678">
        <ele>174</ele>
        <time>2016-08-25T10:41:27Z</time>
      </trkpt>
      <trkpt lat="45.92465" lon="4.7369">
        <ele>174</ele>
        <time>2016-08-25T10:41:29Z</time>
      </trkpt>
      <trkpt lat="45.92463" lon="4.73694">
        <ele>174</ele>
        <time>2016-08-25T10:41:30Z</time>
      </trkpt>
      <trkpt lat="45.92462" lon="4.73702">
        <ele>174</ele>
        <time>2016-08-25T10:41:32Z</time>
      </trkpt>
      <trkpt lat="45.92462" lon="4.73704">
        <ele>174</ele>
        <time>2016-08-25T10:41:33Z</time>
      </trkpt>
      <trkpt lat="45.92459" lon="4.73707">
        <ele>174</ele>
        <time>2016-08-25T10:41:43Z</time>
      </trkpt>
      <trkpt lat="45.92459" lon="4.73708">
        <ele>174</ele>
        <time>2016-08-25T10:41:44Z</time>
      </trkpt>
      <trkpt lat="45.92458" lon="4.73708">
        <ele>174</ele>
        <time>2016-08-25T10:41:57.443Z</time>
      </trkpt>
    </trkseg>
  </trk>
</gpx>